<?xml version="1.0" encoding="UTF-8" standalone="no" ?>
<gpx xmlns="http://www.topografix.com/GPX/1/1" xmlns:xsi="http://www.w3.org/2001/XMLSchema-instance" xsi:schemaLocation="http://www.topografix.com/GPX/1/1 http://www.topografix.com/GPX/1/1/gpx.xsd" version="1.1" creator="VisuGPX - https://www.visugpx.com">
  <metadata>
    <name>25-07-21</name>
    <desc><![CDATA[TDF-USMétro]]></desc>
  </metadata>
  <trk>
    <name><![CDATA[25-07-21_1]]></name>
    <trkseg>
      <trkpt lat="42.79083" lon="1.33522">
        <ele>747.6</ele>
        <time>2025-07-21T03:17:39Z</time>
      </trkpt>
      <trkpt lat="42.791" lon="1.33501">
        <ele>740</ele>
        <time>2025-07-21T03:17:45Z</time>
      </trkpt>
      <trkpt lat="42.79112" lon="1.33493">
        <ele>739.8</ele>
        <time>2025-07-21T03:17:48Z</time>
      </trkpt>
      <trkpt lat="42.79125" lon="1.33481">
        <ele>740</ele>
        <time>2025-07-21T03:17:51Z</time>
      </trkpt>
      <trkpt lat="42.79129" lon="1.33478">
        <ele>740</ele>
        <time>2025-07-21T03:17:52Z</time>
      </trkpt>
      <trkpt lat="42.79142" lon="1.33466">
        <ele>739.8</ele>
        <time>2025-07-21T03:17:55Z</time>
      </trkpt>
      <trkpt lat="42.79155" lon="1.33455">
        <ele>739.8</ele>
        <time>2025-07-21T03:17:58Z</time>
      </trkpt>
      <trkpt lat="42.79164" lon="1.33447">
        <ele>739.6</ele>
        <time>2025-07-21T03:18:00Z</time>
      </trkpt>
      <trkpt lat="42.79173" lon="1.33439">
        <ele>739.2</ele>
        <time>2025-07-21T03:18:02Z</time>
      </trkpt>
      <trkpt lat="42.79183" lon="1.33432">
        <ele>739</ele>
        <time>2025-07-21T03:18:04Z</time>
      </trkpt>
      <trkpt lat="42.79192" lon="1.33424">
        <ele>739</ele>
        <time>2025-07-21T03:18:06Z</time>
      </trkpt>
      <trkpt lat="42.79207" lon="1.3341">
        <ele>738.8</ele>
        <time>2025-07-21T03:18:09Z</time>
      </trkpt>
      <trkpt lat="42.79229" lon="1.33392">
        <ele>738.4</ele>
        <time>2025-07-21T03:18:13Z</time>
      </trkpt>
      <trkpt lat="42.7925" lon="1.33373">
        <ele>738</ele>
        <time>2025-07-21T03:18:17Z</time>
      </trkpt>
      <trkpt lat="42.79261" lon="1.33363">
        <ele>737.8</ele>
        <time>2025-07-21T03:18:19Z</time>
      </trkpt>
      <trkpt lat="42.79284" lon="1.33345">
        <ele>737.6</ele>
        <time>2025-07-21T03:18:23Z</time>
      </trkpt>
      <trkpt lat="42.79294" lon="1.33335">
        <ele>737.4</ele>
        <time>2025-07-21T03:18:25Z</time>
      </trkpt>
      <trkpt lat="42.79312" lon="1.3332">
        <ele>736.8</ele>
        <time>2025-07-21T03:18:28Z</time>
      </trkpt>
      <trkpt lat="42.79335" lon="1.33301">
        <ele>736.2</ele>
        <time>2025-07-21T03:18:32Z</time>
      </trkpt>
      <trkpt lat="42.79346" lon="1.3329">
        <ele>735.6</ele>
        <time>2025-07-21T03:18:34Z</time>
      </trkpt>
      <trkpt lat="42.79364" lon="1.33276">
        <ele>735.4</ele>
        <time>2025-07-21T03:18:37Z</time>
      </trkpt>
      <trkpt lat="42.79388" lon="1.33256">
        <ele>734.8</ele>
        <time>2025-07-21T03:18:41Z</time>
      </trkpt>
      <trkpt lat="42.79399" lon="1.33246">
        <ele>734.6</ele>
        <time>2025-07-21T03:18:43Z</time>
      </trkpt>
      <trkpt lat="42.79428" lon="1.33222">
        <ele>734.2</ele>
        <time>2025-07-21T03:18:48Z</time>
      </trkpt>
      <trkpt lat="42.79458" lon="1.33199">
        <ele>733.6</ele>
        <time>2025-07-21T03:18:53Z</time>
      </trkpt>
      <trkpt lat="42.79463" lon="1.33194">
        <ele>733.6</ele>
        <time>2025-07-21T03:18:54Z</time>
      </trkpt>
      <trkpt lat="42.79513" lon="1.33153">
        <ele>732.6</ele>
        <time>2025-07-21T03:19:03Z</time>
      </trkpt>
      <trkpt lat="42.79527" lon="1.33139">
        <ele>732.6</ele>
        <time>2025-07-21T03:19:06Z</time>
      </trkpt>
      <trkpt lat="42.79531" lon="1.33134">
        <ele>732.6</ele>
        <time>2025-07-21T03:19:07Z</time>
      </trkpt>
      <trkpt lat="42.79535" lon="1.33129">
        <ele>732.4</ele>
        <time>2025-07-21T03:19:08Z</time>
      </trkpt>
      <trkpt lat="42.79543" lon="1.33119">
        <ele>732.2</ele>
        <time>2025-07-21T03:19:10Z</time>
      </trkpt>
      <trkpt lat="42.7957" lon="1.3309">
        <ele>732</ele>
        <time>2025-07-21T03:19:16Z</time>
      </trkpt>
      <trkpt lat="42.79605" lon="1.33061">
        <ele>732.2</ele>
        <time>2025-07-21T03:19:23Z</time>
      </trkpt>
      <trkpt lat="42.79645" lon="1.33035">
        <ele>732.2</ele>
        <time>2025-07-21T03:19:30Z</time>
      </trkpt>
      <trkpt lat="42.79689" lon="1.33003">
        <ele>731.2</ele>
        <time>2025-07-21T03:19:38Z</time>
      </trkpt>
      <trkpt lat="42.79695" lon="1.32998">
        <ele>731</ele>
        <time>2025-07-21T03:19:39Z</time>
      </trkpt>
      <trkpt lat="42.79724" lon="1.32971">
        <ele>730.6</ele>
        <time>2025-07-21T03:19:45Z</time>
      </trkpt>
      <trkpt lat="42.79729" lon="1.32966">
        <ele>730.6</ele>
        <time>2025-07-21T03:19:46Z</time>
      </trkpt>
      <trkpt lat="42.79777" lon="1.32925">
        <ele>730.2</ele>
        <time>2025-07-21T03:19:55Z</time>
      </trkpt>
      <trkpt lat="42.79794" lon="1.32912">
        <ele>730</ele>
        <time>2025-07-21T03:19:58Z</time>
      </trkpt>
      <trkpt lat="42.79824" lon="1.32889">
        <ele>729.2</ele>
        <time>2025-07-21T03:20:03Z</time>
      </trkpt>
      <trkpt lat="42.79836" lon="1.3288">
        <ele>728.8</ele>
        <time>2025-07-21T03:20:05Z</time>
      </trkpt>
      <trkpt lat="42.79873" lon="1.32852">
        <ele>728</ele>
        <time>2025-07-21T03:20:11Z</time>
      </trkpt>
      <trkpt lat="42.7989" lon="1.32835">
        <ele>727.6</ele>
        <time>2025-07-21T03:20:14Z</time>
      </trkpt>
      <trkpt lat="42.79909" lon="1.3282">
        <ele>727</ele>
        <time>2025-07-21T03:20:17Z</time>
      </trkpt>
      <trkpt lat="42.79945" lon="1.32786">
        <ele>726.4</ele>
        <time>2025-07-21T03:20:23Z</time>
      </trkpt>
      <trkpt lat="42.79955" lon="1.32773">
        <ele>726</ele>
        <time>2025-07-21T03:20:25Z</time>
      </trkpt>
      <trkpt lat="42.79961" lon="1.32765">
        <ele>726</ele>
        <time>2025-07-21T03:20:26Z</time>
      </trkpt>
      <trkpt lat="42.79965" lon="1.32759">
        <ele>726</ele>
        <time>2025-07-21T03:20:27Z</time>
      </trkpt>
      <trkpt lat="42.79977" lon="1.32737">
        <ele>725.4</ele>
        <time>2025-07-21T03:20:30Z</time>
      </trkpt>
      <trkpt lat="42.79985" lon="1.32722">
        <ele>725.4</ele>
        <time>2025-07-21T03:20:32Z</time>
      </trkpt>
      <trkpt lat="42.80003" lon="1.32695">
        <ele>724.8</ele>
        <time>2025-07-21T03:20:36Z</time>
      </trkpt>
      <trkpt lat="42.80023" lon="1.32668">
        <ele>724.4</ele>
        <time>2025-07-21T03:20:40Z</time>
      </trkpt>
      <trkpt lat="42.80033" lon="1.32655">
        <ele>724.2</ele>
        <time>2025-07-21T03:20:42Z</time>
      </trkpt>
      <trkpt lat="42.80044" lon="1.32642">
        <ele>724</ele>
        <time>2025-07-21T03:20:44Z</time>
      </trkpt>
      <trkpt lat="42.80075" lon="1.32604">
        <ele>723</ele>
        <time>2025-07-21T03:20:50Z</time>
      </trkpt>
      <trkpt lat="42.80104" lon="1.32557">
        <ele>722.8</ele>
        <time>2025-07-21T03:20:57Z</time>
      </trkpt>
      <trkpt lat="42.80118" lon="1.32539">
        <ele>723</ele>
        <time>2025-07-21T03:21:00Z</time>
      </trkpt>
      <trkpt lat="42.80128" lon="1.3253">
        <ele>723</ele>
        <time>2025-07-21T03:21:02Z</time>
      </trkpt>
      <trkpt lat="42.80142" lon="1.32523">
        <ele>723</ele>
        <time>2025-07-21T03:21:04Z</time>
      </trkpt>
      <trkpt lat="42.80152" lon="1.32519">
        <ele>723</ele>
        <time>2025-07-21T03:21:06Z</time>
      </trkpt>
      <trkpt lat="42.8017" lon="1.32508">
        <ele>723</ele>
        <time>2025-07-21T03:21:09Z</time>
      </trkpt>
      <trkpt lat="42.8018" lon="1.32498">
        <ele>723</ele>
        <time>2025-07-21T03:21:11Z</time>
      </trkpt>
      <trkpt lat="42.80192" lon="1.32477">
        <ele>723</ele>
        <time>2025-07-21T03:21:14Z</time>
      </trkpt>
      <trkpt lat="42.80195" lon="1.32472">
        <ele>723</ele>
        <time>2025-07-21T03:21:15Z</time>
      </trkpt>
      <trkpt lat="42.80197" lon="1.32464">
        <ele>723</ele>
        <time>2025-07-21T03:21:16Z</time>
      </trkpt>
      <trkpt lat="42.80201" lon="1.32446">
        <ele>723.2</ele>
        <time>2025-07-21T03:21:18Z</time>
      </trkpt>
      <trkpt lat="42.80202" lon="1.32438">
        <ele>723.2</ele>
        <time>2025-07-21T03:21:19Z</time>
      </trkpt>
      <trkpt lat="42.80201" lon="1.32424">
        <ele>723.6</ele>
        <time>2025-07-21T03:21:21Z</time>
      </trkpt>
      <trkpt lat="42.802" lon="1.324">
        <ele>723.8</ele>
        <time>2025-07-21T03:21:24Z</time>
      </trkpt>
      <trkpt lat="42.80198" lon="1.32378">
        <ele>723.8</ele>
        <time>2025-07-21T03:21:27Z</time>
      </trkpt>
      <trkpt lat="42.80196" lon="1.32343">
        <ele>724.2</ele>
        <time>2025-07-21T03:21:32Z</time>
      </trkpt>
      <trkpt lat="42.80196" lon="1.32323">
        <ele>724.6</ele>
        <time>2025-07-21T03:21:35Z</time>
      </trkpt>
      <trkpt lat="42.80197" lon="1.32316">
        <ele>724.8</ele>
        <time>2025-07-21T03:21:36Z</time>
      </trkpt>
      <trkpt lat="42.80201" lon="1.32303">
        <ele>725</ele>
        <time>2025-07-21T03:21:38Z</time>
      </trkpt>
      <trkpt lat="42.80209" lon="1.32283">
        <ele>725.2</ele>
        <time>2025-07-21T03:21:41Z</time>
      </trkpt>
      <trkpt lat="42.80217" lon="1.32271">
        <ele>725.2</ele>
        <time>2025-07-21T03:21:43Z</time>
      </trkpt>
      <trkpt lat="42.80246" lon="1.32239">
        <ele>724.8</ele>
        <time>2025-07-21T03:21:49Z</time>
      </trkpt>
      <trkpt lat="42.80279" lon="1.32215">
        <ele>724.2</ele>
        <time>2025-07-21T03:21:55Z</time>
      </trkpt>
      <trkpt lat="42.80285" lon="1.32212">
        <ele>724.2</ele>
        <time>2025-07-21T03:21:56Z</time>
      </trkpt>
      <trkpt lat="42.80291" lon="1.32208">
        <ele>724</ele>
        <time>2025-07-21T03:21:57Z</time>
      </trkpt>
      <trkpt lat="42.8031" lon="1.32199">
        <ele>723.6</ele>
        <time>2025-07-21T03:22:00Z</time>
      </trkpt>
      <trkpt lat="42.80323" lon="1.32196">
        <ele>723.4</ele>
        <time>2025-07-21T03:22:02Z</time>
      </trkpt>
      <trkpt lat="42.80379" lon="1.32175">
        <ele>722.4</ele>
        <time>2025-07-21T03:22:10Z</time>
      </trkpt>
      <trkpt lat="42.80387" lon="1.32172">
        <ele>722.2</ele>
        <time>2025-07-21T03:22:11Z</time>
      </trkpt>
      <trkpt lat="42.80394" lon="1.32169">
        <ele>722</ele>
        <time>2025-07-21T03:22:12Z</time>
      </trkpt>
      <trkpt lat="42.80423" lon="1.32158">
        <ele>721.4</ele>
        <time>2025-07-21T03:22:16Z</time>
      </trkpt>
      <trkpt lat="42.80444" lon="1.32151">
        <ele>720.4</ele>
        <time>2025-07-21T03:22:19Z</time>
      </trkpt>
      <trkpt lat="42.80452" lon="1.32149">
        <ele>720</ele>
        <time>2025-07-21T03:22:20Z</time>
      </trkpt>
      <trkpt lat="42.80484" lon="1.32142">
        <ele>718.8</ele>
        <time>2025-07-21T03:22:24Z</time>
      </trkpt>
      <trkpt lat="42.80517" lon="1.32136">
        <ele>717.8</ele>
        <time>2025-07-21T03:22:28Z</time>
      </trkpt>
      <trkpt lat="42.80543" lon="1.32133">
        <ele>716.4</ele>
        <time>2025-07-21T03:22:31Z</time>
      </trkpt>
      <trkpt lat="42.80578" lon="1.32128">
        <ele>715.2</ele>
        <time>2025-07-21T03:22:35Z</time>
      </trkpt>
      <trkpt lat="42.80586" lon="1.32126">
        <ele>714.8</ele>
        <time>2025-07-21T03:22:36Z</time>
      </trkpt>
      <trkpt lat="42.80604" lon="1.32121">
        <ele>714.2</ele>
        <time>2025-07-21T03:22:38Z</time>
      </trkpt>
      <trkpt lat="42.80619" lon="1.32111">
        <ele>713.6</ele>
        <time>2025-07-21T03:22:40Z</time>
      </trkpt>
      <trkpt lat="42.80625" lon="1.32105">
        <ele>713</ele>
        <time>2025-07-21T03:22:41Z</time>
      </trkpt>
      <trkpt lat="42.80631" lon="1.32098">
        <ele>712.6</ele>
        <time>2025-07-21T03:22:42Z</time>
      </trkpt>
      <trkpt lat="42.80636" lon="1.3209">
        <ele>712.2</ele>
        <time>2025-07-21T03:22:43Z</time>
      </trkpt>
      <trkpt lat="42.80641" lon="1.32083">
        <ele>711.8</ele>
        <time>2025-07-21T03:22:44Z</time>
      </trkpt>
      <trkpt lat="42.80672" lon="1.3205">
        <ele>710.8</ele>
        <time>2025-07-21T03:22:49Z</time>
      </trkpt>
      <trkpt lat="42.80707" lon="1.32023">
        <ele>709.6</ele>
        <time>2025-07-21T03:22:54Z</time>
      </trkpt>
      <trkpt lat="42.80715" lon="1.32018">
        <ele>709.4</ele>
        <time>2025-07-21T03:22:55Z</time>
      </trkpt>
      <trkpt lat="42.80743" lon="1.31999">
        <ele>708.6</ele>
        <time>2025-07-21T03:22:59Z</time>
      </trkpt>
      <trkpt lat="42.80763" lon="1.31983">
        <ele>708</ele>
        <time>2025-07-21T03:23:02Z</time>
      </trkpt>
      <trkpt lat="42.80781" lon="1.31961">
        <ele>707.4</ele>
        <time>2025-07-21T03:23:05Z</time>
      </trkpt>
      <trkpt lat="42.8079" lon="1.31947">
        <ele>707</ele>
        <time>2025-07-21T03:23:07Z</time>
      </trkpt>
      <trkpt lat="42.80809" lon="1.31905">
        <ele>706.4</ele>
        <time>2025-07-21T03:23:12Z</time>
      </trkpt>
      <trkpt lat="42.80814" lon="1.31898">
        <ele>706</ele>
        <time>2025-07-21T03:23:13Z</time>
      </trkpt>
      <trkpt lat="42.8082" lon="1.3189">
        <ele>706</ele>
        <time>2025-07-21T03:23:14Z</time>
      </trkpt>
      <trkpt lat="42.80833" lon="1.31878">
        <ele>705.8</ele>
        <time>2025-07-21T03:23:16Z</time>
      </trkpt>
      <trkpt lat="42.80838" lon="1.31874">
        <ele>705.8</ele>
        <time>2025-07-21T03:23:17Z</time>
      </trkpt>
      <trkpt lat="42.80871" lon="1.31849">
        <ele>705</ele>
        <time>2025-07-21T03:23:22Z</time>
      </trkpt>
      <trkpt lat="42.80882" lon="1.3184">
        <ele>705</ele>
        <time>2025-07-21T03:23:24Z</time>
      </trkpt>
      <trkpt lat="42.8093" lon="1.31802">
        <ele>704.8</ele>
        <time>2025-07-21T03:23:32Z</time>
      </trkpt>
      <trkpt lat="42.80941" lon="1.31793">
        <ele>704.6</ele>
        <time>2025-07-21T03:23:34Z</time>
      </trkpt>
      <trkpt lat="42.80959" lon="1.31777">
        <ele>704.6</ele>
        <time>2025-07-21T03:23:37Z</time>
      </trkpt>
      <trkpt lat="42.8098" lon="1.31754">
        <ele>704.6</ele>
        <time>2025-07-21T03:23:41Z</time>
      </trkpt>
      <trkpt lat="42.8101" lon="1.31706">
        <ele>703.8</ele>
        <time>2025-07-21T03:23:47Z</time>
      </trkpt>
      <trkpt lat="42.81014" lon="1.31698">
        <ele>703.8</ele>
        <time>2025-07-21T03:23:48Z</time>
      </trkpt>
      <trkpt lat="42.81039" lon="1.31652">
        <ele>702.6</ele>
        <time>2025-07-21T03:23:54Z</time>
      </trkpt>
      <trkpt lat="42.81048" lon="1.31636">
        <ele>702.4</ele>
        <time>2025-07-21T03:23:56Z</time>
      </trkpt>
      <trkpt lat="42.81076" lon="1.3159">
        <ele>701.6</ele>
        <time>2025-07-21T03:24:02Z</time>
      </trkpt>
      <trkpt lat="42.81089" lon="1.31567">
        <ele>701.4</ele>
        <time>2025-07-21T03:24:05Z</time>
      </trkpt>
      <trkpt lat="42.81116" lon="1.31519">
        <ele>700.6</ele>
        <time>2025-07-21T03:24:12Z</time>
      </trkpt>
      <trkpt lat="42.81119" lon="1.31512">
        <ele>700.6</ele>
        <time>2025-07-21T03:24:13Z</time>
      </trkpt>
      <trkpt lat="42.81133" lon="1.31488">
        <ele>700.4</ele>
        <time>2025-07-21T03:24:18Z</time>
      </trkpt>
      <trkpt lat="42.81145" lon="1.31469">
        <ele>700.4</ele>
        <time>2025-07-21T03:24:24Z</time>
      </trkpt>
      <trkpt lat="42.81152" lon="1.31462">
        <ele>700.4</ele>
        <time>2025-07-21T03:24:29Z</time>
      </trkpt>
      <trkpt lat="42.81159" lon="1.31458">
        <ele>700.4</ele>
        <time>2025-07-21T03:24:33Z</time>
      </trkpt>
      <trkpt lat="42.81164" lon="1.31454">
        <ele>700.4</ele>
        <time>2025-07-21T03:24:36Z</time>
      </trkpt>
      <trkpt lat="42.81179" lon="1.31443">
        <ele>700.4</ele>
        <time>2025-07-21T03:24:44Z</time>
      </trkpt>
      <trkpt lat="42.81199" lon="1.31431">
        <ele>700.2</ele>
        <time>2025-07-21T03:24:51Z</time>
      </trkpt>
      <trkpt lat="42.8123" lon="1.31415">
        <ele>699.8</ele>
        <time>2025-07-21T03:24:58Z</time>
      </trkpt>
      <trkpt lat="42.81245" lon="1.31407">
        <ele>699.4</ele>
        <time>2025-07-21T03:25:01Z</time>
      </trkpt>
      <trkpt lat="42.8125" lon="1.31404">
        <ele>699.2</ele>
        <time>2025-07-21T03:25:02Z</time>
      </trkpt>
      <trkpt lat="42.81259" lon="1.31396">
        <ele>699</ele>
        <time>2025-07-21T03:25:04Z</time>
      </trkpt>
      <trkpt lat="42.81264" lon="1.31392">
        <ele>698.8</ele>
        <time>2025-07-21T03:25:05Z</time>
      </trkpt>
      <trkpt lat="42.81272" lon="1.31382">
        <ele>698.6</ele>
        <time>2025-07-21T03:25:07Z</time>
      </trkpt>
      <trkpt lat="42.8128" lon="1.31371">
        <ele>698.4</ele>
        <time>2025-07-21T03:25:09Z</time>
      </trkpt>
      <trkpt lat="42.81288" lon="1.31359">
        <ele>698.4</ele>
        <time>2025-07-21T03:25:11Z</time>
      </trkpt>
      <trkpt lat="42.81308" lon="1.31315">
        <ele>698</ele>
        <time>2025-07-21T03:25:17Z</time>
      </trkpt>
      <trkpt lat="42.81321" lon="1.31262">
        <ele>697.6</ele>
        <time>2025-07-21T03:25:23Z</time>
      </trkpt>
      <trkpt lat="42.81343" lon="1.31202">
        <ele>697.2</ele>
        <time>2025-07-21T03:25:30Z</time>
      </trkpt>
      <trkpt lat="42.81346" lon="1.31194">
        <ele>697.2</ele>
        <time>2025-07-21T03:25:31Z</time>
      </trkpt>
      <trkpt lat="42.81376" lon="1.31131">
        <ele>697</ele>
        <time>2025-07-21T03:25:39Z</time>
      </trkpt>
      <trkpt lat="42.81387" lon="1.31106">
        <ele>697.2</ele>
        <time>2025-07-21T03:25:42Z</time>
      </trkpt>
      <trkpt lat="42.814" lon="1.31052">
        <ele>697</ele>
        <time>2025-07-21T03:25:48Z</time>
      </trkpt>
      <trkpt lat="42.8141" lon="1.30975">
        <ele>697.6</ele>
        <time>2025-07-21T03:25:57Z</time>
      </trkpt>
      <trkpt lat="42.81417" lon="1.3095">
        <ele>697.8</ele>
        <time>2025-07-21T03:26:00Z</time>
      </trkpt>
      <trkpt lat="42.81425" lon="1.30935">
        <ele>697.8</ele>
        <time>2025-07-21T03:26:02Z</time>
      </trkpt>
      <trkpt lat="42.81453" lon="1.30881">
        <ele>697.4</ele>
        <time>2025-07-21T03:26:09Z</time>
      </trkpt>
      <trkpt lat="42.81456" lon="1.30873">
        <ele>697.4</ele>
        <time>2025-07-21T03:26:10Z</time>
      </trkpt>
      <trkpt lat="42.81458" lon="1.30864">
        <ele>697.2</ele>
        <time>2025-07-21T03:26:11Z</time>
      </trkpt>
      <trkpt lat="42.81459" lon="1.30847">
        <ele>697.2</ele>
        <time>2025-07-21T03:26:13Z</time>
      </trkpt>
      <trkpt lat="42.81459" lon="1.30838">
        <ele>697.4</ele>
        <time>2025-07-21T03:26:14Z</time>
      </trkpt>
      <trkpt lat="42.81457" lon="1.3083">
        <ele>697.4</ele>
        <time>2025-07-21T03:26:15Z</time>
      </trkpt>
      <trkpt lat="42.81452" lon="1.30809">
        <ele>697.6</ele>
        <time>2025-07-21T03:26:18Z</time>
      </trkpt>
      <trkpt lat="42.81451" lon="1.30801">
        <ele>697.8</ele>
        <time>2025-07-21T03:26:19Z</time>
      </trkpt>
      <trkpt lat="42.8145" lon="1.30794">
        <ele>698.2</ele>
        <time>2025-07-21T03:26:20Z</time>
      </trkpt>
      <trkpt lat="42.8145" lon="1.30788">
        <ele>698.4</ele>
        <time>2025-07-21T03:26:21Z</time>
      </trkpt>
      <trkpt lat="42.81451" lon="1.30775">
        <ele>698.8</ele>
        <time>2025-07-21T03:26:23Z</time>
      </trkpt>
      <trkpt lat="42.81454" lon="1.30763">
        <ele>699</ele>
        <time>2025-07-21T03:26:25Z</time>
      </trkpt>
      <trkpt lat="42.8146" lon="1.30753">
        <ele>699.6</ele>
        <time>2025-07-21T03:26:27Z</time>
      </trkpt>
      <trkpt lat="42.8147" lon="1.30738">
        <ele>700</ele>
        <time>2025-07-21T03:26:30Z</time>
      </trkpt>
      <trkpt lat="42.81485" lon="1.30718">
        <ele>700.4</ele>
        <time>2025-07-21T03:26:34Z</time>
      </trkpt>
      <trkpt lat="42.81518" lon="1.30675">
        <ele>701</ele>
        <time>2025-07-21T03:26:42Z</time>
      </trkpt>
      <trkpt lat="42.81522" lon="1.30669">
        <ele>701.2</ele>
        <time>2025-07-21T03:26:43Z</time>
      </trkpt>
      <trkpt lat="42.81547" lon="1.30644">
        <ele>701.2</ele>
        <time>2025-07-21T03:26:48Z</time>
      </trkpt>
      <trkpt lat="42.81585" lon="1.3062">
        <ele>700.6</ele>
        <time>2025-07-21T03:26:54Z</time>
      </trkpt>
      <trkpt lat="42.81611" lon="1.30604">
        <ele>700</ele>
        <time>2025-07-21T03:26:58Z</time>
      </trkpt>
      <trkpt lat="42.81641" lon="1.30592">
        <ele>699.2</ele>
        <time>2025-07-21T03:27:02Z</time>
      </trkpt>
      <trkpt lat="42.81664" lon="1.30584">
        <ele>698.8</ele>
        <time>2025-07-21T03:27:05Z</time>
      </trkpt>
      <trkpt lat="42.81695" lon="1.3057">
        <ele>697.6</ele>
        <time>2025-07-21T03:27:09Z</time>
      </trkpt>
      <trkpt lat="42.81726" lon="1.30552">
        <ele>696.8</ele>
        <time>2025-07-21T03:27:13Z</time>
      </trkpt>
      <trkpt lat="42.8175" lon="1.30536">
        <ele>696.4</ele>
        <time>2025-07-21T03:27:16Z</time>
      </trkpt>
      <trkpt lat="42.8178" lon="1.30515">
        <ele>695.6</ele>
        <time>2025-07-21T03:27:20Z</time>
      </trkpt>
      <trkpt lat="42.81818" lon="1.30487">
        <ele>694.4</ele>
        <time>2025-07-21T03:27:25Z</time>
      </trkpt>
      <trkpt lat="42.81826" lon="1.30481">
        <ele>694.2</ele>
        <time>2025-07-21T03:27:26Z</time>
      </trkpt>
      <trkpt lat="42.81862" lon="1.3045">
        <ele>693.2</ele>
        <time>2025-07-21T03:27:31Z</time>
      </trkpt>
      <trkpt lat="42.8189" lon="1.30427">
        <ele>692.2</ele>
        <time>2025-07-21T03:27:35Z</time>
      </trkpt>
      <trkpt lat="42.81917" lon="1.30403">
        <ele>692.2</ele>
        <time>2025-07-21T03:27:39Z</time>
      </trkpt>
      <trkpt lat="42.81952" lon="1.30373">
        <ele>691.4</ele>
        <time>2025-07-21T03:27:44Z</time>
      </trkpt>
      <trkpt lat="42.81986" lon="1.30343">
        <ele>690.8</ele>
        <time>2025-07-21T03:27:49Z</time>
      </trkpt>
      <trkpt lat="42.82026" lon="1.30309">
        <ele>690.6</ele>
        <time>2025-07-21T03:27:55Z</time>
      </trkpt>
      <trkpt lat="42.82058" lon="1.3028">
        <ele>690.4</ele>
        <time>2025-07-21T03:28:00Z</time>
      </trkpt>
      <trkpt lat="42.82062" lon="1.30273">
        <ele>690.4</ele>
        <time>2025-07-21T03:28:01Z</time>
      </trkpt>
      <trkpt lat="42.82066" lon="1.30264">
        <ele>690.4</ele>
        <time>2025-07-21T03:28:02Z</time>
      </trkpt>
      <trkpt lat="42.82069" lon="1.30244">
        <ele>690.2</ele>
        <time>2025-07-21T03:28:04Z</time>
      </trkpt>
      <trkpt lat="42.82074" lon="1.30213">
        <ele>690</ele>
        <time>2025-07-21T03:28:07Z</time>
      </trkpt>
      <trkpt lat="42.82082" lon="1.30194">
        <ele>689.6</ele>
        <time>2025-07-21T03:28:09Z</time>
      </trkpt>
      <trkpt lat="42.82092" lon="1.30177">
        <ele>689.4</ele>
        <time>2025-07-21T03:28:11Z</time>
      </trkpt>
      <trkpt lat="42.82106" lon="1.30163">
        <ele>689</ele>
        <time>2025-07-21T03:28:13Z</time>
      </trkpt>
      <trkpt lat="42.82113" lon="1.30159">
        <ele>688.6</ele>
        <time>2025-07-21T03:28:14Z</time>
      </trkpt>
      <trkpt lat="42.82121" lon="1.30155">
        <ele>688.4</ele>
        <time>2025-07-21T03:28:15Z</time>
      </trkpt>
      <trkpt lat="42.82138" lon="1.30153">
        <ele>687.8</ele>
        <time>2025-07-21T03:28:17Z</time>
      </trkpt>
      <trkpt lat="42.82154" lon="1.30153">
        <ele>687.4</ele>
        <time>2025-07-21T03:28:19Z</time>
      </trkpt>
      <trkpt lat="42.82179" lon="1.3015">
        <ele>686.6</ele>
        <time>2025-07-21T03:28:22Z</time>
      </trkpt>
      <trkpt lat="42.82187" lon="1.30146">
        <ele>686.4</ele>
        <time>2025-07-21T03:28:23Z</time>
      </trkpt>
      <trkpt lat="42.82195" lon="1.30142">
        <ele>686.4</ele>
        <time>2025-07-21T03:28:24Z</time>
      </trkpt>
      <trkpt lat="42.82241" lon="1.30119">
        <ele>685.2</ele>
        <time>2025-07-21T03:28:30Z</time>
      </trkpt>
      <trkpt lat="42.82249" lon="1.30119">
        <ele>684.8</ele>
        <time>2025-07-21T03:28:31Z</time>
      </trkpt>
      <trkpt lat="42.82256" lon="1.30122">
        <ele>684.6</ele>
        <time>2025-07-21T03:28:32Z</time>
      </trkpt>
      <trkpt lat="42.8227" lon="1.30129">
        <ele>684.2</ele>
        <time>2025-07-21T03:28:34Z</time>
      </trkpt>
      <trkpt lat="42.82277" lon="1.30133">
        <ele>684</ele>
        <time>2025-07-21T03:28:35Z</time>
      </trkpt>
      <trkpt lat="42.82316" lon="1.30156">
        <ele>684</ele>
        <time>2025-07-21T03:28:41Z</time>
      </trkpt>
      <trkpt lat="42.82347" lon="1.30174">
        <ele>684.2</ele>
        <time>2025-07-21T03:28:46Z</time>
      </trkpt>
      <trkpt lat="42.82354" lon="1.30178">
        <ele>684.4</ele>
        <time>2025-07-21T03:28:47Z</time>
      </trkpt>
      <trkpt lat="42.82372" lon="1.30191">
        <ele>684.4</ele>
        <time>2025-07-21T03:28:50Z</time>
      </trkpt>
      <trkpt lat="42.82377" lon="1.30194">
        <ele>684.6</ele>
        <time>2025-07-21T03:28:51Z</time>
      </trkpt>
      <trkpt lat="42.82383" lon="1.30196">
        <ele>684.8</ele>
        <time>2025-07-21T03:28:52Z</time>
      </trkpt>
      <trkpt lat="42.824" lon="1.30205">
        <ele>685</ele>
        <time>2025-07-21T03:28:55Z</time>
      </trkpt>
      <trkpt lat="42.82423" lon="1.30219">
        <ele>685</ele>
        <time>2025-07-21T03:28:59Z</time>
      </trkpt>
      <trkpt lat="42.82437" lon="1.30221">
        <ele>685.2</ele>
        <time>2025-07-21T03:29:01Z</time>
      </trkpt>
      <trkpt lat="42.82455" lon="1.30216">
        <ele>685.4</ele>
        <time>2025-07-21T03:29:04Z</time>
      </trkpt>
      <trkpt lat="42.82461" lon="1.30213">
        <ele>685.4</ele>
        <time>2025-07-21T03:29:05Z</time>
      </trkpt>
      <trkpt lat="42.82473" lon="1.30205">
        <ele>685.4</ele>
        <time>2025-07-21T03:29:07Z</time>
      </trkpt>
      <trkpt lat="42.82494" lon="1.30185">
        <ele>685.4</ele>
        <time>2025-07-21T03:29:11Z</time>
      </trkpt>
      <trkpt lat="42.82516" lon="1.30165">
        <ele>685.6</ele>
        <time>2025-07-21T03:29:15Z</time>
      </trkpt>
      <trkpt lat="42.82526" lon="1.30154">
        <ele>685.6</ele>
        <time>2025-07-21T03:29:17Z</time>
      </trkpt>
      <trkpt lat="42.82532" lon="1.30149">
        <ele>685.6</ele>
        <time>2025-07-21T03:29:18Z</time>
      </trkpt>
      <trkpt lat="42.82559" lon="1.30125">
        <ele>685.6</ele>
        <time>2025-07-21T03:29:23Z</time>
      </trkpt>
      <trkpt lat="42.82596" lon="1.30078">
        <ele>685.8</ele>
        <time>2025-07-21T03:29:31Z</time>
      </trkpt>
      <trkpt lat="42.82599" lon="1.30071">
        <ele>686</ele>
        <time>2025-07-21T03:29:32Z</time>
      </trkpt>
      <trkpt lat="42.82614" lon="1.30038">
        <ele>686.2</ele>
        <time>2025-07-21T03:29:37Z</time>
      </trkpt>
      <trkpt lat="42.82628" lon="1.29998">
        <ele>687</ele>
        <time>2025-07-21T03:29:43Z</time>
      </trkpt>
      <trkpt lat="42.82633" lon="1.29985">
        <ele>687.2</ele>
        <time>2025-07-21T03:29:45Z</time>
      </trkpt>
      <trkpt lat="42.82654" lon="1.29941">
        <ele>688</ele>
        <time>2025-07-21T03:29:52Z</time>
      </trkpt>
      <trkpt lat="42.82658" lon="1.29935">
        <ele>688.2</ele>
        <time>2025-07-21T03:29:53Z</time>
      </trkpt>
      <trkpt lat="42.82686" lon="1.29899">
        <ele>688</ele>
        <time>2025-07-21T03:29:59Z</time>
      </trkpt>
      <trkpt lat="42.82724" lon="1.29852">
        <ele>687.2</ele>
        <time>2025-07-21T03:30:06Z</time>
      </trkpt>
      <trkpt lat="42.82735" lon="1.29838">
        <ele>686.6</ele>
        <time>2025-07-21T03:30:08Z</time>
      </trkpt>
      <trkpt lat="42.82752" lon="1.29811">
        <ele>686</ele>
        <time>2025-07-21T03:30:11Z</time>
      </trkpt>
      <trkpt lat="42.82762" lon="1.29796">
        <ele>685.6</ele>
        <time>2025-07-21T03:30:13Z</time>
      </trkpt>
      <trkpt lat="42.82772" lon="1.29779">
        <ele>685.2</ele>
        <time>2025-07-21T03:30:15Z</time>
      </trkpt>
      <trkpt lat="42.82785" lon="1.29765">
        <ele>684.8</ele>
        <time>2025-07-21T03:30:17Z</time>
      </trkpt>
      <trkpt lat="42.82798" lon="1.29753">
        <ele>684.4</ele>
        <time>2025-07-21T03:30:19Z</time>
      </trkpt>
      <trkpt lat="42.82813" lon="1.29747">
        <ele>683.8</ele>
        <time>2025-07-21T03:30:21Z</time>
      </trkpt>
      <trkpt lat="42.82829" lon="1.29748">
        <ele>683</ele>
        <time>2025-07-21T03:30:23Z</time>
      </trkpt>
      <trkpt lat="42.82837" lon="1.2975">
        <ele>682.8</ele>
        <time>2025-07-21T03:30:24Z</time>
      </trkpt>
      <trkpt lat="42.82864" lon="1.29759">
        <ele>681.6</ele>
        <time>2025-07-21T03:30:27Z</time>
      </trkpt>
      <trkpt lat="42.82882" lon="1.29761">
        <ele>681.2</ele>
        <time>2025-07-21T03:30:29Z</time>
      </trkpt>
      <trkpt lat="42.829" lon="1.29753">
        <ele>680.6</ele>
        <time>2025-07-21T03:30:31Z</time>
      </trkpt>
      <trkpt lat="42.82907" lon="1.29746">
        <ele>680.2</ele>
        <time>2025-07-21T03:30:32Z</time>
      </trkpt>
      <trkpt lat="42.82929" lon="1.29711">
        <ele>679.4</ele>
        <time>2025-07-21T03:30:36Z</time>
      </trkpt>
      <trkpt lat="42.82934" lon="1.29702">
        <ele>679.2</ele>
        <time>2025-07-21T03:30:37Z</time>
      </trkpt>
      <trkpt lat="42.82941" lon="1.29691">
        <ele>679</ele>
        <time>2025-07-21T03:30:38Z</time>
      </trkpt>
      <trkpt lat="42.82954" lon="1.2968">
        <ele>678.2</ele>
        <time>2025-07-21T03:30:40Z</time>
      </trkpt>
      <trkpt lat="42.82972" lon="1.29674">
        <ele>677.2</ele>
        <time>2025-07-21T03:30:42Z</time>
      </trkpt>
      <trkpt lat="42.8298" lon="1.29677">
        <ele>677</ele>
        <time>2025-07-21T03:30:43Z</time>
      </trkpt>
      <trkpt lat="42.82986" lon="1.29681">
        <ele>676.6</ele>
        <time>2025-07-21T03:30:44Z</time>
      </trkpt>
      <trkpt lat="42.82999" lon="1.29698">
        <ele>675.6</ele>
        <time>2025-07-21T03:30:46Z</time>
      </trkpt>
      <trkpt lat="42.83016" lon="1.29727">
        <ele>674.2</ele>
        <time>2025-07-21T03:30:49Z</time>
      </trkpt>
      <trkpt lat="42.83034" lon="1.2976">
        <ele>672.8</ele>
        <time>2025-07-21T03:30:52Z</time>
      </trkpt>
      <trkpt lat="42.83055" lon="1.29795">
        <ele>671.6</ele>
        <time>2025-07-21T03:30:56Z</time>
      </trkpt>
      <trkpt lat="42.83062" lon="1.29803">
        <ele>671.4</ele>
        <time>2025-07-21T03:30:57Z</time>
      </trkpt>
      <trkpt lat="42.83068" lon="1.2981">
        <ele>670.8</ele>
        <time>2025-07-21T03:30:58Z</time>
      </trkpt>
      <trkpt lat="42.83076" lon="1.29815">
        <ele>670.2</ele>
        <time>2025-07-21T03:30:59Z</time>
      </trkpt>
      <trkpt lat="42.83094" lon="1.2982">
        <ele>669.6</ele>
        <time>2025-07-21T03:31:01Z</time>
      </trkpt>
      <trkpt lat="42.83112" lon="1.29821">
        <ele>669.2</ele>
        <time>2025-07-21T03:31:03Z</time>
      </trkpt>
      <trkpt lat="42.83121" lon="1.29821">
        <ele>668.6</ele>
        <time>2025-07-21T03:31:04Z</time>
      </trkpt>
      <trkpt lat="42.83129" lon="1.29818">
        <ele>668.4</ele>
        <time>2025-07-21T03:31:05Z</time>
      </trkpt>
      <trkpt lat="42.83138" lon="1.29813">
        <ele>668.2</ele>
        <time>2025-07-21T03:31:06Z</time>
      </trkpt>
      <trkpt lat="42.83153" lon="1.29799">
        <ele>667.8</ele>
        <time>2025-07-21T03:31:08Z</time>
      </trkpt>
      <trkpt lat="42.83169" lon="1.29782">
        <ele>667.4</ele>
        <time>2025-07-21T03:31:10Z</time>
      </trkpt>
      <trkpt lat="42.83175" lon="1.29775">
        <ele>667</ele>
        <time>2025-07-21T03:31:11Z</time>
      </trkpt>
      <trkpt lat="42.83182" lon="1.29767">
        <ele>666.8</ele>
        <time>2025-07-21T03:31:12Z</time>
      </trkpt>
      <trkpt lat="42.83189" lon="1.29758">
        <ele>666.4</ele>
        <time>2025-07-21T03:31:13Z</time>
      </trkpt>
      <trkpt lat="42.83204" lon="1.29739">
        <ele>666</ele>
        <time>2025-07-21T03:31:15Z</time>
      </trkpt>
      <trkpt lat="42.83218" lon="1.29724">
        <ele>665</ele>
        <time>2025-07-21T03:31:17Z</time>
      </trkpt>
      <trkpt lat="42.83224" lon="1.29716">
        <ele>664.2</ele>
        <time>2025-07-21T03:31:18Z</time>
      </trkpt>
      <trkpt lat="42.83238" lon="1.29695">
        <ele>663.6</ele>
        <time>2025-07-21T03:31:20Z</time>
      </trkpt>
      <trkpt lat="42.83255" lon="1.29668">
        <ele>662.2</ele>
        <time>2025-07-21T03:31:23Z</time>
      </trkpt>
      <trkpt lat="42.83264" lon="1.29658">
        <ele>662</ele>
        <time>2025-07-21T03:31:24Z</time>
      </trkpt>
      <trkpt lat="42.83278" lon="1.29645">
        <ele>660.8</ele>
        <time>2025-07-21T03:31:26Z</time>
      </trkpt>
      <trkpt lat="42.83286" lon="1.2964">
        <ele>660.4</ele>
        <time>2025-07-21T03:31:27Z</time>
      </trkpt>
      <trkpt lat="42.83305" lon="1.29634">
        <ele>659.8</ele>
        <time>2025-07-21T03:31:29Z</time>
      </trkpt>
      <trkpt lat="42.83332" lon="1.29637">
        <ele>658.6</ele>
        <time>2025-07-21T03:31:32Z</time>
      </trkpt>
      <trkpt lat="42.83351" lon="1.29641">
        <ele>657.8</ele>
        <time>2025-07-21T03:31:34Z</time>
      </trkpt>
      <trkpt lat="42.8336" lon="1.29643">
        <ele>657.4</ele>
        <time>2025-07-21T03:31:35Z</time>
      </trkpt>
      <trkpt lat="42.83387" lon="1.29647">
        <ele>656.2</ele>
        <time>2025-07-21T03:31:38Z</time>
      </trkpt>
      <trkpt lat="42.83396" lon="1.29648">
        <ele>656</ele>
        <time>2025-07-21T03:31:39Z</time>
      </trkpt>
      <trkpt lat="42.83432" lon="1.29652">
        <ele>655</ele>
        <time>2025-07-21T03:31:43Z</time>
      </trkpt>
      <trkpt lat="42.83459" lon="1.29657">
        <ele>654.2</ele>
        <time>2025-07-21T03:31:46Z</time>
      </trkpt>
      <trkpt lat="42.83468" lon="1.29659">
        <ele>653.8</ele>
        <time>2025-07-21T03:31:47Z</time>
      </trkpt>
      <trkpt lat="42.83508" lon="1.29669">
        <ele>653</ele>
        <time>2025-07-21T03:31:52Z</time>
      </trkpt>
      <trkpt lat="42.83517" lon="1.29673">
        <ele>652.8</ele>
        <time>2025-07-21T03:31:53Z</time>
      </trkpt>
      <trkpt lat="42.83564" lon="1.29702">
        <ele>652.2</ele>
        <time>2025-07-21T03:31:59Z</time>
      </trkpt>
      <trkpt lat="42.83599" lon="1.29736">
        <ele>651.8</ele>
        <time>2025-07-21T03:32:04Z</time>
      </trkpt>
      <trkpt lat="42.83618" lon="1.29758">
        <ele>651.2</ele>
        <time>2025-07-21T03:32:07Z</time>
      </trkpt>
      <trkpt lat="42.83638" lon="1.29778">
        <ele>650.8</ele>
        <time>2025-07-21T03:32:10Z</time>
      </trkpt>
      <trkpt lat="42.83646" lon="1.29783">
        <ele>650.8</ele>
        <time>2025-07-21T03:32:11Z</time>
      </trkpt>
      <trkpt lat="42.83654" lon="1.29786">
        <ele>650.6</ele>
        <time>2025-07-21T03:32:12Z</time>
      </trkpt>
      <trkpt lat="42.83671" lon="1.29787">
        <ele>650.4</ele>
        <time>2025-07-21T03:32:14Z</time>
      </trkpt>
      <trkpt lat="42.8368" lon="1.29784">
        <ele>650.2</ele>
        <time>2025-07-21T03:32:15Z</time>
      </trkpt>
      <trkpt lat="42.83697" lon="1.29778">
        <ele>649.8</ele>
        <time>2025-07-21T03:32:17Z</time>
      </trkpt>
      <trkpt lat="42.83731" lon="1.29759">
        <ele>648.8</ele>
        <time>2025-07-21T03:32:21Z</time>
      </trkpt>
      <trkpt lat="42.8374" lon="1.29754">
        <ele>648.6</ele>
        <time>2025-07-21T03:32:22Z</time>
      </trkpt>
      <trkpt lat="42.83772" lon="1.29732">
        <ele>647.6</ele>
        <time>2025-07-21T03:32:26Z</time>
      </trkpt>
      <trkpt lat="42.83779" lon="1.29726">
        <ele>647.2</ele>
        <time>2025-07-21T03:32:27Z</time>
      </trkpt>
      <trkpt lat="42.83814" lon="1.29688">
        <ele>646.6</ele>
        <time>2025-07-21T03:32:32Z</time>
      </trkpt>
      <trkpt lat="42.83822" lon="1.29679">
        <ele>646.4</ele>
        <time>2025-07-21T03:32:33Z</time>
      </trkpt>
      <trkpt lat="42.83843" lon="1.29664">
        <ele>646</ele>
        <time>2025-07-21T03:32:36Z</time>
      </trkpt>
      <trkpt lat="42.83851" lon="1.29659">
        <ele>646</ele>
        <time>2025-07-21T03:32:37Z</time>
      </trkpt>
      <trkpt lat="42.83882" lon="1.2964">
        <ele>645.4</ele>
        <time>2025-07-21T03:32:41Z</time>
      </trkpt>
      <trkpt lat="42.83889" lon="1.29633">
        <ele>645.2</ele>
        <time>2025-07-21T03:32:42Z</time>
      </trkpt>
      <trkpt lat="42.83933" lon="1.29593">
        <ele>644.2</ele>
        <time>2025-07-21T03:32:48Z</time>
      </trkpt>
      <trkpt lat="42.83941" lon="1.29585">
        <ele>644</ele>
        <time>2025-07-21T03:32:49Z</time>
      </trkpt>
      <trkpt lat="42.83969" lon="1.2956">
        <ele>643</ele>
        <time>2025-07-21T03:32:53Z</time>
      </trkpt>
      <trkpt lat="42.83983" lon="1.29546">
        <ele>642.6</ele>
        <time>2025-07-21T03:32:55Z</time>
      </trkpt>
      <trkpt lat="42.84003" lon="1.29522">
        <ele>642</ele>
        <time>2025-07-21T03:32:58Z</time>
      </trkpt>
      <trkpt lat="42.84025" lon="1.295">
        <ele>641.4</ele>
        <time>2025-07-21T03:33:01Z</time>
      </trkpt>
      <trkpt lat="42.84041" lon="1.29488">
        <ele>640.6</ele>
        <time>2025-07-21T03:33:03Z</time>
      </trkpt>
      <trkpt lat="42.84072" lon="1.29465">
        <ele>639.8</ele>
        <time>2025-07-21T03:33:07Z</time>
      </trkpt>
      <trkpt lat="42.84079" lon="1.29459">
        <ele>639.6</ele>
        <time>2025-07-21T03:33:08Z</time>
      </trkpt>
      <trkpt lat="42.84132" lon="1.29416">
        <ele>638.4</ele>
        <time>2025-07-21T03:33:15Z</time>
      </trkpt>
      <trkpt lat="42.84179" lon="1.29371">
        <ele>637.4</ele>
        <time>2025-07-21T03:33:22Z</time>
      </trkpt>
      <trkpt lat="42.84193" lon="1.29358">
        <ele>637.2</ele>
        <time>2025-07-21T03:33:24Z</time>
      </trkpt>
      <trkpt lat="42.84228" lon="1.29333">
        <ele>636.8</ele>
        <time>2025-07-21T03:33:29Z</time>
      </trkpt>
      <trkpt lat="42.84252" lon="1.29327">
        <ele>636.6</ele>
        <time>2025-07-21T03:33:32Z</time>
      </trkpt>
      <trkpt lat="42.84274" lon="1.29322">
        <ele>636.4</ele>
        <time>2025-07-21T03:33:35Z</time>
      </trkpt>
      <trkpt lat="42.84326" lon="1.29312">
        <ele>636.2</ele>
        <time>2025-07-21T03:33:42Z</time>
      </trkpt>
      <trkpt lat="42.84354" lon="1.2931">
        <ele>636.2</ele>
        <time>2025-07-21T03:33:46Z</time>
      </trkpt>
      <trkpt lat="42.84361" lon="1.29312">
        <ele>636.2</ele>
        <time>2025-07-21T03:33:47Z</time>
      </trkpt>
      <trkpt lat="42.84388" lon="1.29324">
        <ele>636</ele>
        <time>2025-07-21T03:33:51Z</time>
      </trkpt>
      <trkpt lat="42.84395" lon="1.29325">
        <ele>636</ele>
        <time>2025-07-21T03:33:52Z</time>
      </trkpt>
      <trkpt lat="42.84409" lon="1.29325">
        <ele>636</ele>
        <time>2025-07-21T03:33:54Z</time>
      </trkpt>
      <trkpt lat="42.84423" lon="1.29318">
        <ele>635.8</ele>
        <time>2025-07-21T03:33:56Z</time>
      </trkpt>
      <trkpt lat="42.84443" lon="1.29301">
        <ele>635.6</ele>
        <time>2025-07-21T03:33:59Z</time>
      </trkpt>
      <trkpt lat="42.84478" lon="1.29272">
        <ele>634.8</ele>
        <time>2025-07-21T03:34:04Z</time>
      </trkpt>
      <trkpt lat="42.84492" lon="1.2926">
        <ele>634.2</ele>
        <time>2025-07-21T03:34:06Z</time>
      </trkpt>
      <trkpt lat="42.84536" lon="1.29224">
        <ele>633.2</ele>
        <time>2025-07-21T03:34:12Z</time>
      </trkpt>
      <trkpt lat="42.84551" lon="1.29212">
        <ele>632.6</ele>
        <time>2025-07-21T03:34:14Z</time>
      </trkpt>
      <trkpt lat="42.8458" lon="1.29189">
        <ele>632</ele>
        <time>2025-07-21T03:34:18Z</time>
      </trkpt>
      <trkpt lat="42.84608" lon="1.29166">
        <ele>631</ele>
        <time>2025-07-21T03:34:22Z</time>
      </trkpt>
      <trkpt lat="42.84614" lon="1.2916">
        <ele>630.8</ele>
        <time>2025-07-21T03:34:23Z</time>
      </trkpt>
      <trkpt lat="42.84652" lon="1.29124">
        <ele>629.8</ele>
        <time>2025-07-21T03:34:29Z</time>
      </trkpt>
      <trkpt lat="42.84694" lon="1.29094">
        <ele>628.6</ele>
        <time>2025-07-21T03:34:35Z</time>
      </trkpt>
      <trkpt lat="42.84702" lon="1.29089">
        <ele>628.2</ele>
        <time>2025-07-21T03:34:36Z</time>
      </trkpt>
      <trkpt lat="42.84731" lon="1.29069">
        <ele>627.4</ele>
        <time>2025-07-21T03:34:40Z</time>
      </trkpt>
      <trkpt lat="42.84754" lon="1.29054">
        <ele>626.2</ele>
        <time>2025-07-21T03:34:43Z</time>
      </trkpt>
      <trkpt lat="42.8477" lon="1.29043">
        <ele>625.4</ele>
        <time>2025-07-21T03:34:45Z</time>
      </trkpt>
      <trkpt lat="42.84786" lon="1.29031">
        <ele>625</ele>
        <time>2025-07-21T03:34:47Z</time>
      </trkpt>
      <trkpt lat="42.8481" lon="1.29013">
        <ele>623.8</ele>
        <time>2025-07-21T03:34:50Z</time>
      </trkpt>
      <trkpt lat="42.84835" lon="1.28997">
        <ele>622.8</ele>
        <time>2025-07-21T03:34:53Z</time>
      </trkpt>
      <trkpt lat="42.84865" lon="1.28976">
        <ele>621.6</ele>
        <time>2025-07-21T03:34:57Z</time>
      </trkpt>
      <trkpt lat="42.8488" lon="1.2896">
        <ele>621.2</ele>
        <time>2025-07-21T03:34:59Z</time>
      </trkpt>
      <trkpt lat="42.84901" lon="1.28927">
        <ele>620.8</ele>
        <time>2025-07-21T03:35:03Z</time>
      </trkpt>
      <trkpt lat="42.84938" lon="1.28871">
        <ele>620.6</ele>
        <time>2025-07-21T03:35:10Z</time>
      </trkpt>
      <trkpt lat="42.84962" lon="1.28844">
        <ele>620.4</ele>
        <time>2025-07-21T03:35:14Z</time>
      </trkpt>
      <trkpt lat="42.84988" lon="1.28814">
        <ele>619.4</ele>
        <time>2025-07-21T03:35:18Z</time>
      </trkpt>
      <trkpt lat="42.84995" lon="1.28807">
        <ele>619.2</ele>
        <time>2025-07-21T03:35:19Z</time>
      </trkpt>
      <trkpt lat="42.85039" lon="1.28754">
        <ele>618.2</ele>
        <time>2025-07-21T03:35:26Z</time>
      </trkpt>
      <trkpt lat="42.85045" lon="1.28746">
        <ele>617.8</ele>
        <time>2025-07-21T03:35:27Z</time>
      </trkpt>
      <trkpt lat="42.85086" lon="1.28699">
        <ele>617.4</ele>
        <time>2025-07-21T03:35:34Z</time>
      </trkpt>
      <trkpt lat="42.85099" lon="1.28672">
        <ele>617.2</ele>
        <time>2025-07-21T03:35:37Z</time>
      </trkpt>
      <trkpt lat="42.85106" lon="1.28653">
        <ele>617</ele>
        <time>2025-07-21T03:35:39Z</time>
      </trkpt>
      <trkpt lat="42.85132" lon="1.28586">
        <ele>616.4</ele>
        <time>2025-07-21T03:35:46Z</time>
      </trkpt>
      <trkpt lat="42.85139" lon="1.28567">
        <ele>616.4</ele>
        <time>2025-07-21T03:35:48Z</time>
      </trkpt>
      <trkpt lat="42.85142" lon="1.28557">
        <ele>616.2</ele>
        <time>2025-07-21T03:35:49Z</time>
      </trkpt>
      <trkpt lat="42.85167" lon="1.2849">
        <ele>615.6</ele>
        <time>2025-07-21T03:35:56Z</time>
      </trkpt>
      <trkpt lat="42.85174" lon="1.2847">
        <ele>615.6</ele>
        <time>2025-07-21T03:35:58Z</time>
      </trkpt>
      <trkpt lat="42.85186" lon="1.2844">
        <ele>615</ele>
        <time>2025-07-21T03:36:01Z</time>
      </trkpt>
      <trkpt lat="42.85208" lon="1.28381">
        <ele>614.4</ele>
        <time>2025-07-21T03:36:07Z</time>
      </trkpt>
      <trkpt lat="42.85226" lon="1.28331">
        <ele>613.8</ele>
        <time>2025-07-21T03:36:12Z</time>
      </trkpt>
      <trkpt lat="42.85252" lon="1.28262">
        <ele>612.8</ele>
        <time>2025-07-21T03:36:19Z</time>
      </trkpt>
      <trkpt lat="42.85256" lon="1.28252">
        <ele>612.8</ele>
        <time>2025-07-21T03:36:20Z</time>
      </trkpt>
      <trkpt lat="42.85283" lon="1.28186">
        <ele>612.4</ele>
        <time>2025-07-21T03:36:27Z</time>
      </trkpt>
      <trkpt lat="42.85307" lon="1.28111">
        <ele>612.2</ele>
        <time>2025-07-21T03:36:35Z</time>
      </trkpt>
      <trkpt lat="42.85318" lon="1.28086">
        <ele>612.4</ele>
        <time>2025-07-21T03:36:38Z</time>
      </trkpt>
      <trkpt lat="42.85322" lon="1.28079">
        <ele>612.4</ele>
        <time>2025-07-21T03:36:39Z</time>
      </trkpt>
      <trkpt lat="42.85349" lon="1.28049">
        <ele>612.8</ele>
        <time>2025-07-21T03:36:44Z</time>
      </trkpt>
      <trkpt lat="42.8538" lon="1.28017">
        <ele>612.4</ele>
        <time>2025-07-21T03:36:49Z</time>
      </trkpt>
      <trkpt lat="42.85391" lon="1.28002">
        <ele>612.2</ele>
        <time>2025-07-21T03:36:51Z</time>
      </trkpt>
      <trkpt lat="42.85401" lon="1.27985">
        <ele>611.8</ele>
        <time>2025-07-21T03:36:53Z</time>
      </trkpt>
      <trkpt lat="42.8542" lon="1.27926">
        <ele>611</ele>
        <time>2025-07-21T03:36:59Z</time>
      </trkpt>
      <trkpt lat="42.85432" lon="1.27887">
        <ele>610.8</ele>
        <time>2025-07-21T03:37:03Z</time>
      </trkpt>
      <trkpt lat="42.85447" lon="1.27839">
        <ele>610.6</ele>
        <time>2025-07-21T03:37:08Z</time>
      </trkpt>
      <trkpt lat="42.8545" lon="1.27829">
        <ele>610.6</ele>
        <time>2025-07-21T03:37:09Z</time>
      </trkpt>
      <trkpt lat="42.85462" lon="1.27792">
        <ele>610.4</ele>
        <time>2025-07-21T03:37:13Z</time>
      </trkpt>
      <trkpt lat="42.85475" lon="1.27744">
        <ele>609.8</ele>
        <time>2025-07-21T03:37:18Z</time>
      </trkpt>
      <trkpt lat="42.85482" lon="1.27725">
        <ele>610</ele>
        <time>2025-07-21T03:37:20Z</time>
      </trkpt>
      <trkpt lat="42.8551" lon="1.27665">
        <ele>609.6</ele>
        <time>2025-07-21T03:37:27Z</time>
      </trkpt>
      <trkpt lat="42.8553" lon="1.27625">
        <ele>609.6</ele>
        <time>2025-07-21T03:37:32Z</time>
      </trkpt>
      <trkpt lat="42.85533" lon="1.27617">
        <ele>609.6</ele>
        <time>2025-07-21T03:37:33Z</time>
      </trkpt>
      <trkpt lat="42.85552" lon="1.27565">
        <ele>609.6</ele>
        <time>2025-07-21T03:37:39Z</time>
      </trkpt>
      <trkpt lat="42.85566" lon="1.27517">
        <ele>609</ele>
        <time>2025-07-21T03:37:44Z</time>
      </trkpt>
      <trkpt lat="42.85589" lon="1.27454">
        <ele>608.4</ele>
        <time>2025-07-21T03:37:51Z</time>
      </trkpt>
      <trkpt lat="42.85599" lon="1.27419">
        <ele>608.2</ele>
        <time>2025-07-21T03:37:55Z</time>
      </trkpt>
      <trkpt lat="42.85602" lon="1.27411">
        <ele>608.2</ele>
        <time>2025-07-21T03:37:56Z</time>
      </trkpt>
      <trkpt lat="42.8562" lon="1.27355">
        <ele>608</ele>
        <time>2025-07-21T03:38:02Z</time>
      </trkpt>
      <trkpt lat="42.8564" lon="1.27287">
        <ele>608.2</ele>
        <time>2025-07-21T03:38:09Z</time>
      </trkpt>
      <trkpt lat="42.85662" lon="1.27212">
        <ele>608.4</ele>
        <time>2025-07-21T03:38:17Z</time>
      </trkpt>
      <trkpt lat="42.85667" lon="1.27193">
        <ele>608.4</ele>
        <time>2025-07-21T03:38:19Z</time>
      </trkpt>
      <trkpt lat="42.85674" lon="1.27128">
        <ele>608.4</ele>
        <time>2025-07-21T03:38:26Z</time>
      </trkpt>
      <trkpt lat="42.85681" lon="1.27091">
        <ele>608.6</ele>
        <time>2025-07-21T03:38:30Z</time>
      </trkpt>
      <trkpt lat="42.85685" lon="1.27083">
        <ele>608.6</ele>
        <time>2025-07-21T03:38:31Z</time>
      </trkpt>
      <trkpt lat="42.85711" lon="1.27044">
        <ele>608.4</ele>
        <time>2025-07-21T03:38:36Z</time>
      </trkpt>
      <trkpt lat="42.85752" lon="1.26994">
        <ele>608</ele>
        <time>2025-07-21T03:38:43Z</time>
      </trkpt>
      <trkpt lat="42.8577" lon="1.2697">
        <ele>607.4</ele>
        <time>2025-07-21T03:38:46Z</time>
      </trkpt>
      <trkpt lat="42.85775" lon="1.26961">
        <ele>607.2</ele>
        <time>2025-07-21T03:38:47Z</time>
      </trkpt>
      <trkpt lat="42.85798" lon="1.26913">
        <ele>606.6</ele>
        <time>2025-07-21T03:38:52Z</time>
      </trkpt>
      <trkpt lat="42.85808" lon="1.26871">
        <ele>606.2</ele>
        <time>2025-07-21T03:38:56Z</time>
      </trkpt>
      <trkpt lat="42.85815" lon="1.26851">
        <ele>606</ele>
        <time>2025-07-21T03:38:58Z</time>
      </trkpt>
      <trkpt lat="42.85824" lon="1.26833">
        <ele>605.8</ele>
        <time>2025-07-21T03:39:00Z</time>
      </trkpt>
      <trkpt lat="42.85835" lon="1.26818">
        <ele>605.6</ele>
        <time>2025-07-21T03:39:02Z</time>
      </trkpt>
      <trkpt lat="42.85874" lon="1.2678">
        <ele>605.4</ele>
        <time>2025-07-21T03:39:08Z</time>
      </trkpt>
      <trkpt lat="42.85894" lon="1.26762">
        <ele>605</ele>
        <time>2025-07-21T03:39:11Z</time>
      </trkpt>
      <trkpt lat="42.85926" lon="1.26727">
        <ele>604.4</ele>
        <time>2025-07-21T03:39:16Z</time>
      </trkpt>
      <trkpt lat="42.85944" lon="1.26704">
        <ele>604</ele>
        <time>2025-07-21T03:39:19Z</time>
      </trkpt>
      <trkpt lat="42.85955" lon="1.26685">
        <ele>603.4</ele>
        <time>2025-07-21T03:39:21Z</time>
      </trkpt>
      <trkpt lat="42.85964" lon="1.26665">
        <ele>602.8</ele>
        <time>2025-07-21T03:39:23Z</time>
      </trkpt>
      <trkpt lat="42.85982" lon="1.26623">
        <ele>601.6</ele>
        <time>2025-07-21T03:39:27Z</time>
      </trkpt>
      <trkpt lat="42.85995" lon="1.26591">
        <ele>600.4</ele>
        <time>2025-07-21T03:39:30Z</time>
      </trkpt>
      <trkpt lat="42.86008" lon="1.2656">
        <ele>599.8</ele>
        <time>2025-07-21T03:39:33Z</time>
      </trkpt>
      <trkpt lat="42.86011" lon="1.26549">
        <ele>599.8</ele>
        <time>2025-07-21T03:39:34Z</time>
      </trkpt>
      <trkpt lat="42.86014" lon="1.26538">
        <ele>599.2</ele>
        <time>2025-07-21T03:39:35Z</time>
      </trkpt>
      <trkpt lat="42.86016" lon="1.26526">
        <ele>599</ele>
        <time>2025-07-21T03:39:36Z</time>
      </trkpt>
      <trkpt lat="42.86018" lon="1.26502">
        <ele>598.4</ele>
        <time>2025-07-21T03:39:38Z</time>
      </trkpt>
      <trkpt lat="42.86017" lon="1.26478">
        <ele>598</ele>
        <time>2025-07-21T03:39:40Z</time>
      </trkpt>
      <trkpt lat="42.86014" lon="1.26441">
        <ele>597.6</ele>
        <time>2025-07-21T03:39:43Z</time>
      </trkpt>
      <trkpt lat="42.86009" lon="1.26382">
        <ele>597</ele>
        <time>2025-07-21T03:39:48Z</time>
      </trkpt>
      <trkpt lat="42.86009" lon="1.2637">
        <ele>596.8</ele>
        <time>2025-07-21T03:39:49Z</time>
      </trkpt>
      <trkpt lat="42.86016" lon="1.26322">
        <ele>596.2</ele>
        <time>2025-07-21T03:39:53Z</time>
      </trkpt>
      <trkpt lat="42.86022" lon="1.26299">
        <ele>595.8</ele>
        <time>2025-07-21T03:39:55Z</time>
      </trkpt>
      <trkpt lat="42.8603" lon="1.26276">
        <ele>595</ele>
        <time>2025-07-21T03:39:57Z</time>
      </trkpt>
      <trkpt lat="42.86039" lon="1.26254">
        <ele>594.4</ele>
        <time>2025-07-21T03:39:59Z</time>
      </trkpt>
      <trkpt lat="42.86059" lon="1.26198">
        <ele>593</ele>
        <time>2025-07-21T03:40:04Z</time>
      </trkpt>
      <trkpt lat="42.86086" lon="1.26125">
        <ele>592.2</ele>
        <time>2025-07-21T03:40:11Z</time>
      </trkpt>
      <trkpt lat="42.86093" lon="1.26105">
        <ele>592</ele>
        <time>2025-07-21T03:40:13Z</time>
      </trkpt>
      <trkpt lat="42.86116" lon="1.2604">
        <ele>591.6</ele>
        <time>2025-07-21T03:40:20Z</time>
      </trkpt>
      <trkpt lat="42.8613" lon="1.25987">
        <ele>591.8</ele>
        <time>2025-07-21T03:40:26Z</time>
      </trkpt>
      <trkpt lat="42.86138" lon="1.25938">
        <ele>592.4</ele>
        <time>2025-07-21T03:40:32Z</time>
      </trkpt>
      <trkpt lat="42.86142" lon="1.25857">
        <ele>592.6</ele>
        <time>2025-07-21T03:40:41Z</time>
      </trkpt>
      <trkpt lat="42.86143" lon="1.25838">
        <ele>592.6</ele>
        <time>2025-07-21T03:40:43Z</time>
      </trkpt>
      <trkpt lat="42.86139" lon="1.25759">
        <ele>591.8</ele>
        <time>2025-07-21T03:40:51Z</time>
      </trkpt>
      <trkpt lat="42.86127" lon="1.25699">
        <ele>591</ele>
        <time>2025-07-21T03:40:57Z</time>
      </trkpt>
      <trkpt lat="42.86125" lon="1.25689">
        <ele>590.6</ele>
        <time>2025-07-21T03:40:58Z</time>
      </trkpt>
      <trkpt lat="42.86109" lon="1.25615">
        <ele>590</ele>
        <time>2025-07-21T03:41:06Z</time>
      </trkpt>
      <trkpt lat="42.86108" lon="1.25606">
        <ele>590</ele>
        <time>2025-07-21T03:41:07Z</time>
      </trkpt>
      <trkpt lat="42.86099" lon="1.25548">
        <ele>590.8</ele>
        <time>2025-07-21T03:41:14Z</time>
      </trkpt>
      <trkpt lat="42.86093" lon="1.25506">
        <ele>591.6</ele>
        <time>2025-07-21T03:41:20Z</time>
      </trkpt>
      <trkpt lat="42.86091" lon="1.25486">
        <ele>592</ele>
        <time>2025-07-21T03:41:23Z</time>
      </trkpt>
      <trkpt lat="42.86089" lon="1.25473">
        <ele>592.6</ele>
        <time>2025-07-21T03:41:25Z</time>
      </trkpt>
      <trkpt lat="42.86087" lon="1.2546">
        <ele>593.2</ele>
        <time>2025-07-21T03:41:27Z</time>
      </trkpt>
      <trkpt lat="42.86083" lon="1.25413">
        <ele>594.2</ele>
        <time>2025-07-21T03:41:34Z</time>
      </trkpt>
      <trkpt lat="42.86078" lon="1.25371">
        <ele>595</ele>
        <time>2025-07-21T03:41:40Z</time>
      </trkpt>
      <trkpt lat="42.86074" lon="1.25339">
        <ele>595.2</ele>
        <time>2025-07-21T03:41:44Z</time>
      </trkpt>
      <trkpt lat="42.8607" lon="1.25298">
        <ele>595.4</ele>
        <time>2025-07-21T03:41:49Z</time>
      </trkpt>
      <trkpt lat="42.86061" lon="1.25229">
        <ele>594.8</ele>
        <time>2025-07-21T03:41:57Z</time>
      </trkpt>
      <trkpt lat="42.86053" lon="1.25173">
        <ele>594</ele>
        <time>2025-07-21T03:42:03Z</time>
      </trkpt>
      <trkpt lat="42.8605" lon="1.25145">
        <ele>593.8</ele>
        <time>2025-07-21T03:42:06Z</time>
      </trkpt>
      <trkpt lat="42.86035" lon="1.25069">
        <ele>592.8</ele>
        <time>2025-07-21T03:42:14Z</time>
      </trkpt>
      <trkpt lat="42.86019" lon="1.25022">
        <ele>592.4</ele>
        <time>2025-07-21T03:42:19Z</time>
      </trkpt>
      <trkpt lat="42.86015" lon="1.25011">
        <ele>592.2</ele>
        <time>2025-07-21T03:42:20Z</time>
      </trkpt>
      <trkpt lat="42.86007" lon="1.24984">
        <ele>591.8</ele>
        <time>2025-07-21T03:42:23Z</time>
      </trkpt>
      <trkpt lat="42.86002" lon="1.24964">
        <ele>591.6</ele>
        <time>2025-07-21T03:42:25Z</time>
      </trkpt>
      <trkpt lat="42.85991" lon="1.24907">
        <ele>590.8</ele>
        <time>2025-07-21T03:42:30Z</time>
      </trkpt>
      <trkpt lat="42.85984" lon="1.24851">
        <ele>589.6</ele>
        <time>2025-07-21T03:42:35Z</time>
      </trkpt>
      <trkpt lat="42.85982" lon="1.24839">
        <ele>589.2</ele>
        <time>2025-07-21T03:42:36Z</time>
      </trkpt>
      <trkpt lat="42.85981" lon="1.24825">
        <ele>589</ele>
        <time>2025-07-21T03:42:37Z</time>
      </trkpt>
      <trkpt lat="42.85983" lon="1.24802">
        <ele>588.8</ele>
        <time>2025-07-21T03:42:39Z</time>
      </trkpt>
      <trkpt lat="42.85985" lon="1.24792">
        <ele>588.4</ele>
        <time>2025-07-21T03:42:40Z</time>
      </trkpt>
      <trkpt lat="42.85992" lon="1.2477">
        <ele>587.8</ele>
        <time>2025-07-21T03:42:42Z</time>
      </trkpt>
      <trkpt lat="42.85998" lon="1.24759">
        <ele>587.2</ele>
        <time>2025-07-21T03:42:43Z</time>
      </trkpt>
      <trkpt lat="42.86004" lon="1.24751">
        <ele>587</ele>
        <time>2025-07-21T03:42:44Z</time>
      </trkpt>
      <trkpt lat="42.86018" lon="1.24736">
        <ele>586</ele>
        <time>2025-07-21T03:42:46Z</time>
      </trkpt>
      <trkpt lat="42.86035" lon="1.24724">
        <ele>584.8</ele>
        <time>2025-07-21T03:42:48Z</time>
      </trkpt>
      <trkpt lat="42.86062" lon="1.24711">
        <ele>583.6</ele>
        <time>2025-07-21T03:42:51Z</time>
      </trkpt>
      <trkpt lat="42.86081" lon="1.24706">
        <ele>582.6</ele>
        <time>2025-07-21T03:42:53Z</time>
      </trkpt>
      <trkpt lat="42.86101" lon="1.24701">
        <ele>581.4</ele>
        <time>2025-07-21T03:42:55Z</time>
      </trkpt>
      <trkpt lat="42.86111" lon="1.24699">
        <ele>581.2</ele>
        <time>2025-07-21T03:42:56Z</time>
      </trkpt>
      <trkpt lat="42.86131" lon="1.24694">
        <ele>580.4</ele>
        <time>2025-07-21T03:42:58Z</time>
      </trkpt>
      <trkpt lat="42.86151" lon="1.24689">
        <ele>579</ele>
        <time>2025-07-21T03:43:00Z</time>
      </trkpt>
      <trkpt lat="42.8616" lon="1.24686">
        <ele>578.8</ele>
        <time>2025-07-21T03:43:01Z</time>
      </trkpt>
      <trkpt lat="42.86186" lon="1.24669">
        <ele>577.4</ele>
        <time>2025-07-21T03:43:04Z</time>
      </trkpt>
      <trkpt lat="42.86194" lon="1.24663">
        <ele>577</ele>
        <time>2025-07-21T03:43:05Z</time>
      </trkpt>
      <trkpt lat="42.86211" lon="1.24635">
        <ele>576.6</ele>
        <time>2025-07-21T03:43:08Z</time>
      </trkpt>
      <trkpt lat="42.86215" lon="1.24624">
        <ele>576.4</ele>
        <time>2025-07-21T03:43:09Z</time>
      </trkpt>
      <trkpt lat="42.86227" lon="1.24593">
        <ele>576</ele>
        <time>2025-07-21T03:43:12Z</time>
      </trkpt>
      <trkpt lat="42.8623" lon="1.24583">
        <ele>576</ele>
        <time>2025-07-21T03:43:13Z</time>
      </trkpt>
      <trkpt lat="42.86238" lon="1.24539">
        <ele>575.2</ele>
        <time>2025-07-21T03:43:17Z</time>
      </trkpt>
      <trkpt lat="42.86239" lon="1.24528">
        <ele>575</ele>
        <time>2025-07-21T03:43:18Z</time>
      </trkpt>
      <trkpt lat="42.86239" lon="1.24516">
        <ele>574.8</ele>
        <time>2025-07-21T03:43:19Z</time>
      </trkpt>
      <trkpt lat="42.86237" lon="1.24471">
        <ele>574.2</ele>
        <time>2025-07-21T03:43:23Z</time>
      </trkpt>
      <trkpt lat="42.86233" lon="1.24439">
        <ele>574.2</ele>
        <time>2025-07-21T03:43:26Z</time>
      </trkpt>
      <trkpt lat="42.86229" lon="1.24364">
        <ele>573.4</ele>
        <time>2025-07-21T03:43:33Z</time>
      </trkpt>
      <trkpt lat="42.86236" lon="1.24346">
        <ele>573.2</ele>
        <time>2025-07-21T03:43:35Z</time>
      </trkpt>
      <trkpt lat="42.8624" lon="1.24337">
        <ele>573.2</ele>
        <time>2025-07-21T03:43:36Z</time>
      </trkpt>
      <trkpt lat="42.86246" lon="1.2433">
        <ele>573.2</ele>
        <time>2025-07-21T03:43:37Z</time>
      </trkpt>
      <trkpt lat="42.86258" lon="1.24318">
        <ele>573.2</ele>
        <time>2025-07-21T03:43:39Z</time>
      </trkpt>
      <trkpt lat="42.86278" lon="1.24302">
        <ele>573.2</ele>
        <time>2025-07-21T03:43:42Z</time>
      </trkpt>
      <trkpt lat="42.86292" lon="1.24295">
        <ele>573</ele>
        <time>2025-07-21T03:43:44Z</time>
      </trkpt>
      <trkpt lat="42.86307" lon="1.24287">
        <ele>572.8</ele>
        <time>2025-07-21T03:43:46Z</time>
      </trkpt>
      <trkpt lat="42.86331" lon="1.24276">
        <ele>572.2</ele>
        <time>2025-07-21T03:43:49Z</time>
      </trkpt>
      <trkpt lat="42.86362" lon="1.24259">
        <ele>571.8</ele>
        <time>2025-07-21T03:43:53Z</time>
      </trkpt>
      <trkpt lat="42.86385" lon="1.24246">
        <ele>571.4</ele>
        <time>2025-07-21T03:43:56Z</time>
      </trkpt>
      <trkpt lat="42.864" lon="1.24234">
        <ele>570.8</ele>
        <time>2025-07-21T03:43:58Z</time>
      </trkpt>
      <trkpt lat="42.86421" lon="1.24212">
        <ele>569.6</ele>
        <time>2025-07-21T03:44:01Z</time>
      </trkpt>
      <trkpt lat="42.86427" lon="1.24203">
        <ele>569.4</ele>
        <time>2025-07-21T03:44:02Z</time>
      </trkpt>
      <trkpt lat="42.86437" lon="1.24183">
        <ele>568.6</ele>
        <time>2025-07-21T03:44:04Z</time>
      </trkpt>
      <trkpt lat="42.8644" lon="1.24172">
        <ele>568.4</ele>
        <time>2025-07-21T03:44:05Z</time>
      </trkpt>
      <trkpt lat="42.86443" lon="1.24161">
        <ele>568</ele>
        <time>2025-07-21T03:44:06Z</time>
      </trkpt>
      <trkpt lat="42.86444" lon="1.24148">
        <ele>567.8</ele>
        <time>2025-07-21T03:44:07Z</time>
      </trkpt>
      <trkpt lat="42.86443" lon="1.24109">
        <ele>567</ele>
        <time>2025-07-21T03:44:10Z</time>
      </trkpt>
      <trkpt lat="42.86442" lon="1.24096">
        <ele>566.4</ele>
        <time>2025-07-21T03:44:11Z</time>
      </trkpt>
      <trkpt lat="42.8644" lon="1.2407">
        <ele>565.4</ele>
        <time>2025-07-21T03:44:13Z</time>
      </trkpt>
      <trkpt lat="42.86434" lon="1.24044">
        <ele>564.6</ele>
        <time>2025-07-21T03:44:15Z</time>
      </trkpt>
      <trkpt lat="42.86431" lon="1.24032">
        <ele>564.2</ele>
        <time>2025-07-21T03:44:16Z</time>
      </trkpt>
      <trkpt lat="42.86422" lon="1.24009">
        <ele>562.8</ele>
        <time>2025-07-21T03:44:18Z</time>
      </trkpt>
      <trkpt lat="42.86418" lon="1.23997">
        <ele>562.6</ele>
        <time>2025-07-21T03:44:19Z</time>
      </trkpt>
      <trkpt lat="42.86403" lon="1.23964">
        <ele>561.8</ele>
        <time>2025-07-21T03:44:22Z</time>
      </trkpt>
      <trkpt lat="42.86382" lon="1.23912">
        <ele>561</ele>
        <time>2025-07-21T03:44:27Z</time>
      </trkpt>
      <trkpt lat="42.86375" lon="1.23892">
        <ele>560.8</ele>
        <time>2025-07-21T03:44:29Z</time>
      </trkpt>
      <trkpt lat="42.86351" lon="1.23831">
        <ele>560.2</ele>
        <time>2025-07-21T03:44:35Z</time>
      </trkpt>
      <trkpt lat="42.86335" lon="1.23789">
        <ele>559.4</ele>
        <time>2025-07-21T03:44:39Z</time>
      </trkpt>
      <trkpt lat="42.86314" lon="1.23736">
        <ele>558.6</ele>
        <time>2025-07-21T03:44:44Z</time>
      </trkpt>
      <trkpt lat="42.8631" lon="1.23726">
        <ele>558.4</ele>
        <time>2025-07-21T03:44:45Z</time>
      </trkpt>
      <trkpt lat="42.86296" lon="1.23682">
        <ele>557.8</ele>
        <time>2025-07-21T03:44:49Z</time>
      </trkpt>
      <trkpt lat="42.86294" lon="1.2367">
        <ele>557.4</ele>
        <time>2025-07-21T03:44:50Z</time>
      </trkpt>
      <trkpt lat="42.86293" lon="1.23657">
        <ele>557.4</ele>
        <time>2025-07-21T03:44:51Z</time>
      </trkpt>
      <trkpt lat="42.86292" lon="1.23645">
        <ele>557.2</ele>
        <time>2025-07-21T03:44:52Z</time>
      </trkpt>
      <trkpt lat="42.86294" lon="1.2362">
        <ele>556.8</ele>
        <time>2025-07-21T03:44:54Z</time>
      </trkpt>
      <trkpt lat="42.86296" lon="1.23595">
        <ele>556.2</ele>
        <time>2025-07-21T03:44:56Z</time>
      </trkpt>
      <trkpt lat="42.86301" lon="1.23533">
        <ele>555</ele>
        <time>2025-07-21T03:45:01Z</time>
      </trkpt>
      <trkpt lat="42.86303" lon="1.23509">
        <ele>554.8</ele>
        <time>2025-07-21T03:45:03Z</time>
      </trkpt>
      <trkpt lat="42.86306" lon="1.23471">
        <ele>554</ele>
        <time>2025-07-21T03:45:06Z</time>
      </trkpt>
      <trkpt lat="42.86309" lon="1.23433">
        <ele>553.4</ele>
        <time>2025-07-21T03:45:09Z</time>
      </trkpt>
      <trkpt lat="42.86314" lon="1.23408">
        <ele>552.6</ele>
        <time>2025-07-21T03:45:11Z</time>
      </trkpt>
      <trkpt lat="42.86323" lon="1.23385">
        <ele>552.2</ele>
        <time>2025-07-21T03:45:13Z</time>
      </trkpt>
      <trkpt lat="42.86329" lon="1.23375">
        <ele>551.6</ele>
        <time>2025-07-21T03:45:14Z</time>
      </trkpt>
      <trkpt lat="42.86355" lon="1.23338">
        <ele>550.4</ele>
        <time>2025-07-21T03:45:18Z</time>
      </trkpt>
      <trkpt lat="42.86369" lon="1.2332">
        <ele>550</ele>
        <time>2025-07-21T03:45:20Z</time>
      </trkpt>
      <trkpt lat="42.86392" lon="1.23297">
        <ele>549.2</ele>
        <time>2025-07-21T03:45:23Z</time>
      </trkpt>
      <trkpt lat="42.86401" lon="1.23291">
        <ele>548.6</ele>
        <time>2025-07-21T03:45:24Z</time>
      </trkpt>
      <trkpt lat="42.86418" lon="1.2328">
        <ele>547.8</ele>
        <time>2025-07-21T03:45:26Z</time>
      </trkpt>
      <trkpt lat="42.86444" lon="1.23266">
        <ele>546.8</ele>
        <time>2025-07-21T03:45:29Z</time>
      </trkpt>
      <trkpt lat="42.86453" lon="1.23261">
        <ele>546.6</ele>
        <time>2025-07-21T03:45:30Z</time>
      </trkpt>
      <trkpt lat="42.8648" lon="1.23249">
        <ele>545.6</ele>
        <time>2025-07-21T03:45:33Z</time>
      </trkpt>
      <trkpt lat="42.86489" lon="1.23245">
        <ele>545.4</ele>
        <time>2025-07-21T03:45:34Z</time>
      </trkpt>
      <trkpt lat="42.86498" lon="1.2324">
        <ele>545</ele>
        <time>2025-07-21T03:45:35Z</time>
      </trkpt>
      <trkpt lat="42.86523" lon="1.23221">
        <ele>544.4</ele>
        <time>2025-07-21T03:45:38Z</time>
      </trkpt>
      <trkpt lat="42.8653" lon="1.23213">
        <ele>544</ele>
        <time>2025-07-21T03:45:39Z</time>
      </trkpt>
      <trkpt lat="42.86549" lon="1.23185">
        <ele>543.2</ele>
        <time>2025-07-21T03:45:42Z</time>
      </trkpt>
      <trkpt lat="42.86555" lon="1.23175">
        <ele>543</ele>
        <time>2025-07-21T03:45:43Z</time>
      </trkpt>
      <trkpt lat="42.86565" lon="1.23155">
        <ele>542.2</ele>
        <time>2025-07-21T03:45:45Z</time>
      </trkpt>
      <trkpt lat="42.8658" lon="1.23124">
        <ele>541.2</ele>
        <time>2025-07-21T03:45:48Z</time>
      </trkpt>
      <trkpt lat="42.86587" lon="1.23115">
        <ele>541</ele>
        <time>2025-07-21T03:45:49Z</time>
      </trkpt>
      <trkpt lat="42.86611" lon="1.23078">
        <ele>539.8</ele>
        <time>2025-07-21T03:45:53Z</time>
      </trkpt>
      <trkpt lat="42.86642" lon="1.23032">
        <ele>538.6</ele>
        <time>2025-07-21T03:45:58Z</time>
      </trkpt>
      <trkpt lat="42.86666" lon="1.22995">
        <ele>537.4</ele>
        <time>2025-07-21T03:46:02Z</time>
      </trkpt>
      <trkpt lat="42.86696" lon="1.22948">
        <ele>536.2</ele>
        <time>2025-07-21T03:46:07Z</time>
      </trkpt>
      <trkpt lat="42.86726" lon="1.22897">
        <ele>535.2</ele>
        <time>2025-07-21T03:46:12Z</time>
      </trkpt>
      <trkpt lat="42.8675" lon="1.22855">
        <ele>534.2</ele>
        <time>2025-07-21T03:46:16Z</time>
      </trkpt>
      <trkpt lat="42.86756" lon="1.22845">
        <ele>533.8</ele>
        <time>2025-07-21T03:46:17Z</time>
      </trkpt>
      <trkpt lat="42.86774" lon="1.22815">
        <ele>532.6</ele>
        <time>2025-07-21T03:46:20Z</time>
      </trkpt>
      <trkpt lat="42.86803" lon="1.22765">
        <ele>531.6</ele>
        <time>2025-07-21T03:46:25Z</time>
      </trkpt>
      <trkpt lat="42.86837" lon="1.22707">
        <ele>530.6</ele>
        <time>2025-07-21T03:46:31Z</time>
      </trkpt>
      <trkpt lat="42.86843" lon="1.22697">
        <ele>530.4</ele>
        <time>2025-07-21T03:46:32Z</time>
      </trkpt>
      <trkpt lat="42.86854" lon="1.22677">
        <ele>529.8</ele>
        <time>2025-07-21T03:46:34Z</time>
      </trkpt>
      <trkpt lat="42.86866" lon="1.22658">
        <ele>529.2</ele>
        <time>2025-07-21T03:46:36Z</time>
      </trkpt>
      <trkpt lat="42.86895" lon="1.22608">
        <ele>527.8</ele>
        <time>2025-07-21T03:46:41Z</time>
      </trkpt>
      <trkpt lat="42.86912" lon="1.22578">
        <ele>527.2</ele>
        <time>2025-07-21T03:46:44Z</time>
      </trkpt>
      <trkpt lat="42.86924" lon="1.22558">
        <ele>526.6</ele>
        <time>2025-07-21T03:46:46Z</time>
      </trkpt>
      <trkpt lat="42.86942" lon="1.22527">
        <ele>525.4</ele>
        <time>2025-07-21T03:46:49Z</time>
      </trkpt>
      <trkpt lat="42.86971" lon="1.22478">
        <ele>524.4</ele>
        <time>2025-07-21T03:46:54Z</time>
      </trkpt>
      <trkpt lat="42.87" lon="1.22429">
        <ele>523</ele>
        <time>2025-07-21T03:46:59Z</time>
      </trkpt>
      <trkpt lat="42.87028" lon="1.22381">
        <ele>522.2</ele>
        <time>2025-07-21T03:47:04Z</time>
      </trkpt>
      <trkpt lat="42.87034" lon="1.22371">
        <ele>522</ele>
        <time>2025-07-21T03:47:05Z</time>
      </trkpt>
      <trkpt lat="42.87067" lon="1.22315">
        <ele>521</ele>
        <time>2025-07-21T03:47:11Z</time>
      </trkpt>
      <trkpt lat="42.87073" lon="1.22306">
        <ele>520.8</ele>
        <time>2025-07-21T03:47:12Z</time>
      </trkpt>
      <trkpt lat="42.871" lon="1.22259">
        <ele>520</ele>
        <time>2025-07-21T03:47:17Z</time>
      </trkpt>
      <trkpt lat="42.87116" lon="1.22231">
        <ele>519.6</ele>
        <time>2025-07-21T03:47:20Z</time>
      </trkpt>
      <trkpt lat="42.87134" lon="1.22205">
        <ele>519</ele>
        <time>2025-07-21T03:47:23Z</time>
      </trkpt>
      <trkpt lat="42.87147" lon="1.22189">
        <ele>518.6</ele>
        <time>2025-07-21T03:47:25Z</time>
      </trkpt>
      <trkpt lat="42.8718" lon="1.22151">
        <ele>517.8</ele>
        <time>2025-07-21T03:47:30Z</time>
      </trkpt>
      <trkpt lat="42.87193" lon="1.22136">
        <ele>517.4</ele>
        <time>2025-07-21T03:47:32Z</time>
      </trkpt>
      <trkpt lat="42.87224" lon="1.22096">
        <ele>516.6</ele>
        <time>2025-07-21T03:47:37Z</time>
      </trkpt>
      <trkpt lat="42.87243" lon="1.22073">
        <ele>519.2</ele>
        <time>2025-07-21T03:47:40Z</time>
      </trkpt>
      <trkpt lat="42.87268" lon="1.22041">
        <ele>515.4</ele>
        <time>2025-07-21T03:47:44Z</time>
      </trkpt>
      <trkpt lat="42.87312" lon="1.21985">
        <ele>514.2</ele>
        <time>2025-07-21T03:47:51Z</time>
      </trkpt>
      <trkpt lat="42.87342" lon="1.21947">
        <ele>513.2</ele>
        <time>2025-07-21T03:47:56Z</time>
      </trkpt>
      <trkpt lat="42.87353" lon="1.21931">
        <ele>512.8</ele>
        <time>2025-07-21T03:47:58Z</time>
      </trkpt>
      <trkpt lat="42.87376" lon="1.21899">
        <ele>512</ele>
        <time>2025-07-21T03:48:02Z</time>
      </trkpt>
      <trkpt lat="42.87394" lon="1.21876">
        <ele>511.6</ele>
        <time>2025-07-21T03:48:05Z</time>
      </trkpt>
      <trkpt lat="42.87415" lon="1.21849">
        <ele>511</ele>
        <time>2025-07-21T03:48:09Z</time>
      </trkpt>
      <trkpt lat="42.87426" lon="1.21836">
        <ele>510.4</ele>
        <time>2025-07-21T03:48:11Z</time>
      </trkpt>
      <trkpt lat="42.87435" lon="1.21824">
        <ele>510</ele>
        <time>2025-07-21T03:48:13Z</time>
      </trkpt>
      <trkpt lat="42.87455" lon="1.21799">
        <ele>509.2</ele>
        <time>2025-07-21T03:48:17Z</time>
      </trkpt>
      <trkpt lat="42.87467" lon="1.21783">
        <ele>509</ele>
        <time>2025-07-21T03:48:20Z</time>
      </trkpt>
      <trkpt lat="42.8747" lon="1.21777">
        <ele>508.8</ele>
        <time>2025-07-21T03:48:21Z</time>
      </trkpt>
      <trkpt lat="42.87471" lon="1.21772">
        <ele>508.6</ele>
        <time>2025-07-21T03:48:22Z</time>
      </trkpt>
      <trkpt lat="42.8747" lon="1.21762">
        <ele>508.4</ele>
        <time>2025-07-21T03:48:24Z</time>
      </trkpt>
      <trkpt lat="42.87468" lon="1.21757">
        <ele>508.2</ele>
        <time>2025-07-21T03:48:25Z</time>
      </trkpt>
      <trkpt lat="42.87461" lon="1.2174">
        <ele>508</ele>
        <time>2025-07-21T03:48:28Z</time>
      </trkpt>
      <trkpt lat="42.87458" lon="1.21735">
        <ele>507.8</ele>
        <time>2025-07-21T03:48:29Z</time>
      </trkpt>
      <trkpt lat="42.87455" lon="1.21729">
        <ele>507.8</ele>
        <time>2025-07-21T03:48:30Z</time>
      </trkpt>
      <trkpt lat="42.87449" lon="1.21717">
        <ele>507.8</ele>
        <time>2025-07-21T03:48:32Z</time>
      </trkpt>
      <trkpt lat="42.87446" lon="1.21703">
        <ele>507.8</ele>
        <time>2025-07-21T03:48:34Z</time>
      </trkpt>
      <trkpt lat="42.87446" lon="1.21695">
        <ele>507.8</ele>
        <time>2025-07-21T03:48:35Z</time>
      </trkpt>
      <trkpt lat="42.87442" lon="1.21653">
        <ele>507.8</ele>
        <time>2025-07-21T03:48:41Z</time>
      </trkpt>
      <trkpt lat="42.87437" lon="1.21644">
        <ele>507.8</ele>
        <time>2025-07-21T03:48:43Z</time>
      </trkpt>
      <trkpt lat="42.87436" lon="1.21632">
        <ele>507.8</ele>
        <time>2025-07-21T03:48:45Z</time>
      </trkpt>
      <trkpt lat="42.87438" lon="1.21627">
        <ele>507.8</ele>
        <time>2025-07-21T03:48:46Z</time>
      </trkpt>
      <trkpt lat="42.87444" lon="1.21617">
        <ele>507.8</ele>
        <time>2025-07-21T03:48:48Z</time>
      </trkpt>
      <trkpt lat="42.87455" lon="1.21603">
        <ele>507.8</ele>
        <time>2025-07-21T03:48:51Z</time>
      </trkpt>
      <trkpt lat="42.87463" lon="1.21592">
        <ele>507.8</ele>
        <time>2025-07-21T03:48:53Z</time>
      </trkpt>
      <trkpt lat="42.87467" lon="1.21587">
        <ele>507.8</ele>
        <time>2025-07-21T03:48:54Z</time>
      </trkpt>
      <trkpt lat="42.87481" lon="1.21565">
        <ele>507.8</ele>
        <time>2025-07-21T03:48:58Z</time>
      </trkpt>
      <trkpt lat="42.87487" lon="1.21551">
        <ele>507.8</ele>
        <time>2025-07-21T03:49:00Z</time>
      </trkpt>
      <trkpt lat="42.87497" lon="1.21525">
        <ele>507.6</ele>
        <time>2025-07-21T03:49:04Z</time>
      </trkpt>
      <trkpt lat="42.87501" lon="1.21513">
        <ele>507.6</ele>
        <time>2025-07-21T03:49:06Z</time>
      </trkpt>
      <trkpt lat="42.87503" lon="1.21506">
        <ele>507.6</ele>
        <time>2025-07-21T03:49:07Z</time>
      </trkpt>
      <trkpt lat="42.87505" lon="1.21501">
        <ele>507.8</ele>
        <time>2025-07-21T03:49:08Z</time>
      </trkpt>
      <trkpt lat="42.87503" lon="1.21488">
        <ele>507.8</ele>
        <time>2025-07-21T03:49:10Z</time>
      </trkpt>
      <trkpt lat="42.87499" lon="1.21482">
        <ele>507.8</ele>
        <time>2025-07-21T03:49:11Z</time>
      </trkpt>
      <trkpt lat="42.87493" lon="1.21461">
        <ele>508</ele>
        <time>2025-07-21T03:49:14Z</time>
      </trkpt>
      <trkpt lat="42.87489" lon="1.21447">
        <ele>508.2</ele>
        <time>2025-07-21T03:49:16Z</time>
      </trkpt>
      <trkpt lat="42.8748" lon="1.21416">
        <ele>508.4</ele>
        <time>2025-07-21T03:49:21Z</time>
      </trkpt>
      <trkpt lat="42.87477" lon="1.21408">
        <ele>508.4</ele>
        <time>2025-07-21T03:49:23Z</time>
      </trkpt>
      <trkpt lat="42.87474" lon="1.21398">
        <ele>508.6</ele>
        <time>2025-07-21T03:49:26Z</time>
      </trkpt>
      <trkpt lat="42.87472" lon="1.21397">
        <ele>508.8</ele>
        <time>2025-07-21T03:49:27Z</time>
      </trkpt>
      <trkpt lat="42.87468" lon="1.21396">
        <ele>509</ele>
        <time>2025-07-21T03:49:29Z</time>
      </trkpt>
      <trkpt lat="42.87465" lon="1.214">
        <ele>509.2</ele>
        <time>2025-07-21T03:49:31Z</time>
      </trkpt>
      <trkpt lat="42.87464" lon="1.21403">
        <ele>509.2</ele>
        <time>2025-07-21T03:49:32Z</time>
      </trkpt>
      <trkpt lat="42.87465" lon="1.21409">
        <ele>509.2</ele>
        <time>2025-07-21T03:49:34Z</time>
      </trkpt>
      <trkpt lat="42.87465" lon="1.21412">
        <ele>509.4</ele>
        <time>2025-07-21T03:49:35Z</time>
      </trkpt>
      <trkpt lat="42.87467" lon="1.21417">
        <ele>509.4</ele>
        <time>2025-07-21T03:49:40Z</time>
      </trkpt>
      <trkpt lat="42.87465" lon="1.214">
        <ele>510</ele>
        <time>2025-07-21T03:58:28Z</time>
      </trkpt>
      <trkpt lat="42.87465" lon="1.21396">
        <ele>510</ele>
        <time>2025-07-21T03:58:30Z</time>
      </trkpt>
      <trkpt lat="42.87466" lon="1.21391">
        <ele>510</ele>
        <time>2025-07-21T03:58:32Z</time>
      </trkpt>
      <trkpt lat="42.87464" lon="1.21385">
        <ele>510</ele>
        <time>2025-07-21T03:58:34Z</time>
      </trkpt>
      <trkpt lat="42.87462" lon="1.21382">
        <ele>510</ele>
        <time>2025-07-21T03:58:35Z</time>
      </trkpt>
      <trkpt lat="42.87447" lon="1.21365">
        <ele>510</ele>
        <time>2025-07-21T03:58:42Z</time>
      </trkpt>
      <trkpt lat="42.87427" lon="1.21342">
        <ele>510</ele>
        <time>2025-07-21T03:58:48Z</time>
      </trkpt>
      <trkpt lat="42.87402" lon="1.21313">
        <ele>509.8</ele>
        <time>2025-07-21T03:58:55Z</time>
      </trkpt>
      <trkpt lat="42.87394" lon="1.21305">
        <ele>509.8</ele>
        <time>2025-07-21T03:58:57Z</time>
      </trkpt>
      <trkpt lat="42.8739" lon="1.21301">
        <ele>509.8</ele>
        <time>2025-07-21T03:58:58Z</time>
      </trkpt>
      <trkpt lat="42.87366" lon="1.21274">
        <ele>510</ele>
        <time>2025-07-21T03:59:04Z</time>
      </trkpt>
      <trkpt lat="42.87331" lon="1.21235">
        <ele>510</ele>
        <time>2025-07-21T03:59:12Z</time>
      </trkpt>
      <trkpt lat="42.87294" lon="1.21194">
        <ele>509.8</ele>
        <time>2025-07-21T03:59:20Z</time>
      </trkpt>
      <trkpt lat="42.87271" lon="1.21169">
        <ele>509.6</ele>
        <time>2025-07-21T03:59:25Z</time>
      </trkpt>
      <trkpt lat="42.87268" lon="1.21163">
        <ele>509.6</ele>
        <time>2025-07-21T03:59:26Z</time>
      </trkpt>
      <trkpt lat="42.87265" lon="1.21157">
        <ele>509.4</ele>
        <time>2025-07-21T03:59:27Z</time>
      </trkpt>
      <trkpt lat="42.8726" lon="1.21145">
        <ele>509.4</ele>
        <time>2025-07-21T03:59:29Z</time>
      </trkpt>
      <trkpt lat="42.87253" lon="1.21135">
        <ele>509.4</ele>
        <time>2025-07-21T03:59:31Z</time>
      </trkpt>
      <trkpt lat="42.87231" lon="1.21128">
        <ele>509.4</ele>
        <time>2025-07-21T03:59:35Z</time>
      </trkpt>
      <trkpt lat="42.87182" lon="1.21112">
        <ele>509.4</ele>
        <time>2025-07-21T03:59:44Z</time>
      </trkpt>
      <trkpt lat="42.87126" lon="1.21086">
        <ele>509.6</ele>
        <time>2025-07-21T03:59:54Z</time>
      </trkpt>
      <trkpt lat="42.87075" lon="1.21059">
        <ele>509.8</ele>
        <time>2025-07-21T04:00:03Z</time>
      </trkpt>
      <trkpt lat="42.87063" lon="1.21052">
        <ele>509.8</ele>
        <time>2025-07-21T04:00:05Z</time>
      </trkpt>
      <trkpt lat="42.87009" lon="1.21018">
        <ele>510</ele>
        <time>2025-07-21T04:00:14Z</time>
      </trkpt>
      <trkpt lat="42.87009" lon="1.21018">
        <ele>510</ele>
        <time>2025-07-21T04:00:15Z</time>
      </trkpt>
      <trkpt lat="42.86991" lon="1.21">
        <ele>510.2</ele>
        <time>2025-07-21T04:00:18Z</time>
      </trkpt>
      <trkpt lat="42.86979" lon="1.20986">
        <ele>510.6</ele>
        <time>2025-07-21T04:00:21Z</time>
      </trkpt>
      <trkpt lat="42.86975" lon="1.2098">
        <ele>510.8</ele>
        <time>2025-07-21T04:00:23Z</time>
      </trkpt>
      <trkpt lat="42.86953" lon="1.20952">
        <ele>511.8</ele>
        <time>2025-07-21T04:00:29Z</time>
      </trkpt>
      <trkpt lat="42.86941" lon="1.20939">
        <ele>512</ele>
        <time>2025-07-21T04:00:31Z</time>
      </trkpt>
      <trkpt lat="42.86922" lon="1.2092">
        <ele>512.4</ele>
        <time>2025-07-21T04:00:36Z</time>
      </trkpt>
      <trkpt lat="42.86906" lon="1.20906">
        <ele>513</ele>
        <time>2025-07-21T04:00:40Z</time>
      </trkpt>
      <trkpt lat="42.86884" lon="1.20894">
        <ele>513.8</ele>
        <time>2025-07-21T04:00:45Z</time>
      </trkpt>
      <trkpt lat="42.86876" lon="1.20888">
        <ele>514.2</ele>
        <time>2025-07-21T04:00:47Z</time>
      </trkpt>
      <trkpt lat="42.86851" lon="1.20867">
        <ele>515</ele>
        <time>2025-07-21T04:00:53Z</time>
      </trkpt>
      <trkpt lat="42.86841" lon="1.20854">
        <ele>515</ele>
        <time>2025-07-21T04:00:56Z</time>
      </trkpt>
      <trkpt lat="42.86837" lon="1.20844">
        <ele>515.2</ele>
        <time>2025-07-21T04:00:58Z</time>
      </trkpt>
      <trkpt lat="42.86828" lon="1.20828">
        <ele>515.4</ele>
        <time>2025-07-21T04:01:01Z</time>
      </trkpt>
      <trkpt lat="42.86823" lon="1.20826">
        <ele>515.4</ele>
        <time>2025-07-21T04:01:02Z</time>
      </trkpt>
      <trkpt lat="42.86813" lon="1.20823">
        <ele>515.2</ele>
        <time>2025-07-21T04:01:04Z</time>
      </trkpt>
      <trkpt lat="42.86803" lon="1.20816">
        <ele>515</ele>
        <time>2025-07-21T04:01:07Z</time>
      </trkpt>
      <trkpt lat="42.86774" lon="1.20784">
        <ele>514.6</ele>
        <time>2025-07-21T04:01:12Z</time>
      </trkpt>
      <trkpt lat="42.86764" lon="1.20772">
        <ele>514.2</ele>
        <time>2025-07-21T04:01:14Z</time>
      </trkpt>
      <trkpt lat="42.86737" lon="1.20738">
        <ele>513.6</ele>
        <time>2025-07-21T04:01:19Z</time>
      </trkpt>
      <trkpt lat="42.86731" lon="1.20731">
        <ele>513.2</ele>
        <time>2025-07-21T04:01:21Z</time>
      </trkpt>
      <trkpt lat="42.86704" lon="1.20695">
        <ele>512</ele>
        <time>2025-07-21T04:01:26Z</time>
      </trkpt>
      <trkpt lat="42.86688" lon="1.20674">
        <ele>511.8</ele>
        <time>2025-07-21T04:01:28Z</time>
      </trkpt>
      <trkpt lat="42.86647" lon="1.2062">
        <ele>511.2</ele>
        <time>2025-07-21T04:01:36Z</time>
      </trkpt>
      <trkpt lat="42.86628" lon="1.20596">
        <ele>511</ele>
        <time>2025-07-21T04:01:40Z</time>
      </trkpt>
      <trkpt lat="42.86615" lon="1.20579">
        <ele>511.2</ele>
        <time>2025-07-21T04:01:43Z</time>
      </trkpt>
      <trkpt lat="42.86577" lon="1.2053">
        <ele>511.8</ele>
        <time>2025-07-21T04:01:52Z</time>
      </trkpt>
      <trkpt lat="42.86565" lon="1.20513">
        <ele>512</ele>
        <time>2025-07-21T04:01:55Z</time>
      </trkpt>
      <trkpt lat="42.86547" lon="1.20493">
        <ele>512.2</ele>
        <time>2025-07-21T04:01:59Z</time>
      </trkpt>
      <trkpt lat="42.86509" lon="1.20454">
        <ele>512.4</ele>
        <time>2025-07-21T04:02:07Z</time>
      </trkpt>
      <trkpt lat="42.86487" lon="1.20429">
        <ele>512.6</ele>
        <time>2025-07-21T04:02:12Z</time>
      </trkpt>
      <trkpt lat="42.86483" lon="1.20424">
        <ele>512.6</ele>
        <time>2025-07-21T04:02:13Z</time>
      </trkpt>
      <trkpt lat="42.86457" lon="1.20385">
        <ele>513</ele>
        <time>2025-07-21T04:02:20Z</time>
      </trkpt>
      <trkpt lat="42.86431" lon="1.20345">
        <ele>513.2</ele>
        <time>2025-07-21T04:02:27Z</time>
      </trkpt>
      <trkpt lat="42.8642" lon="1.20327">
        <ele>513.4</ele>
        <time>2025-07-21T04:02:30Z</time>
      </trkpt>
      <trkpt lat="42.86397" lon="1.20285">
        <ele>513.6</ele>
        <time>2025-07-21T04:02:37Z</time>
      </trkpt>
      <trkpt lat="42.86389" lon="1.20267">
        <ele>513.8</ele>
        <time>2025-07-21T04:02:40Z</time>
      </trkpt>
      <trkpt lat="42.86377" lon="1.20243">
        <ele>514</ele>
        <time>2025-07-21T04:02:44Z</time>
      </trkpt>
      <trkpt lat="42.86367" lon="1.2022">
        <ele>514.4</ele>
        <time>2025-07-21T04:02:48Z</time>
      </trkpt>
      <trkpt lat="42.86357" lon="1.20191">
        <ele>514.6</ele>
        <time>2025-07-21T04:02:53Z</time>
      </trkpt>
      <trkpt lat="42.86353" lon="1.20176">
        <ele>515</ele>
        <time>2025-07-21T04:02:56Z</time>
      </trkpt>
      <trkpt lat="42.86353" lon="1.20171">
        <ele>515.4</ele>
        <time>2025-07-21T04:02:58Z</time>
      </trkpt>
      <trkpt lat="42.86357" lon="1.20162">
        <ele>515.6</ele>
        <time>2025-07-21T04:02:59Z</time>
      </trkpt>
      <trkpt lat="42.86364" lon="1.20155">
        <ele>515.8</ele>
        <time>2025-07-21T04:03:01Z</time>
      </trkpt>
      <trkpt lat="42.86384" lon="1.20137">
        <ele>516.6</ele>
        <time>2025-07-21T04:03:07Z</time>
      </trkpt>
      <trkpt lat="42.86395" lon="1.20133">
        <ele>516.6</ele>
        <time>2025-07-21T04:03:10Z</time>
      </trkpt>
      <trkpt lat="42.86403" lon="1.20131">
        <ele>516.8</ele>
        <time>2025-07-21T04:03:12Z</time>
      </trkpt>
      <trkpt lat="42.86415" lon="1.20128">
        <ele>517</ele>
        <time>2025-07-21T04:03:15Z</time>
      </trkpt>
      <trkpt lat="42.86419" lon="1.20127">
        <ele>517</ele>
        <time>2025-07-21T04:03:16Z</time>
      </trkpt>
      <trkpt lat="42.8643" lon="1.20126">
        <ele>517.2</ele>
        <time>2025-07-21T04:03:19Z</time>
      </trkpt>
      <trkpt lat="42.86436" lon="1.20119">
        <ele>517.2</ele>
        <time>2025-07-21T04:03:21Z</time>
      </trkpt>
      <trkpt lat="42.86446" lon="1.20104">
        <ele>517.6</ele>
        <time>2025-07-21T04:03:25Z</time>
      </trkpt>
      <trkpt lat="42.86452" lon="1.20096">
        <ele>517.8</ele>
        <time>2025-07-21T04:03:27Z</time>
      </trkpt>
      <trkpt lat="42.86476" lon="1.20066">
        <ele>518.8</ele>
        <time>2025-07-21T04:03:35Z</time>
      </trkpt>
      <trkpt lat="42.86478" lon="1.20062">
        <ele>518.8</ele>
        <time>2025-07-21T04:03:36Z</time>
      </trkpt>
      <trkpt lat="42.86496" lon="1.20043">
        <ele>519.4</ele>
        <time>2025-07-21T04:03:41Z</time>
      </trkpt>
      <trkpt lat="42.86504" lon="1.20024">
        <ele>519.8</ele>
        <time>2025-07-21T04:03:45Z</time>
      </trkpt>
      <trkpt lat="42.86506" lon="1.2002">
        <ele>519.8</ele>
        <time>2025-07-21T04:03:46Z</time>
      </trkpt>
      <trkpt lat="42.86519" lon="1.19997">
        <ele>520.8</ele>
        <time>2025-07-21T04:03:53Z</time>
      </trkpt>
      <trkpt lat="42.86526" lon="1.19978">
        <ele>522</ele>
        <time>2025-07-21T04:03:59Z</time>
      </trkpt>
      <trkpt lat="42.86527" lon="1.19976">
        <ele>522.2</ele>
        <time>2025-07-21T04:04:00Z</time>
      </trkpt>
      <trkpt lat="42.86533" lon="1.19962">
        <ele>523.2</ele>
        <time>2025-07-21T04:04:05Z</time>
      </trkpt>
      <trkpt lat="42.86533" lon="1.19962">
        <ele>523.4</ele>
        <time>2025-07-21T04:04:06Z</time>
      </trkpt>
      <trkpt lat="42.86538" lon="1.19946">
        <ele>524.2</ele>
        <time>2025-07-21T04:04:10Z</time>
      </trkpt>
      <trkpt lat="42.86539" lon="1.19934">
        <ele>525</ele>
        <time>2025-07-21T04:04:14Z</time>
      </trkpt>
      <trkpt lat="42.86538" lon="1.19931">
        <ele>525.4</ele>
        <time>2025-07-21T04:04:16Z</time>
      </trkpt>
      <trkpt lat="42.86538" lon="1.19913">
        <ele>526.2</ele>
        <time>2025-07-21T04:04:20Z</time>
      </trkpt>
      <trkpt lat="42.86537" lon="1.19902">
        <ele>526.6</ele>
        <time>2025-07-21T04:04:23Z</time>
      </trkpt>
      <trkpt lat="42.86539" lon="1.19885">
        <ele>527.2</ele>
        <time>2025-07-21T04:04:28Z</time>
      </trkpt>
      <trkpt lat="42.86543" lon="1.19867">
        <ele>527.6</ele>
        <time>2025-07-21T04:04:33Z</time>
      </trkpt>
      <trkpt lat="42.86545" lon="1.1986">
        <ele>527.8</ele>
        <time>2025-07-21T04:04:35Z</time>
      </trkpt>
      <trkpt lat="42.86553" lon="1.19838">
        <ele>528.6</ele>
        <time>2025-07-21T04:04:42Z</time>
      </trkpt>
      <trkpt lat="42.86554" lon="1.19836">
        <ele>528.8</ele>
        <time>2025-07-21T04:04:43Z</time>
      </trkpt>
      <trkpt lat="42.86561" lon="1.19819">
        <ele>529.4</ele>
        <time>2025-07-21T04:04:48Z</time>
      </trkpt>
      <trkpt lat="42.86565" lon="1.19802">
        <ele>529.8</ele>
        <time>2025-07-21T04:04:52Z</time>
      </trkpt>
      <trkpt lat="42.86565" lon="1.19798">
        <ele>530</ele>
        <time>2025-07-21T04:04:53Z</time>
      </trkpt>
      <trkpt lat="42.86567" lon="1.19794">
        <ele>530</ele>
        <time>2025-07-21T04:04:54Z</time>
      </trkpt>
      <trkpt lat="42.8657" lon="1.19772">
        <ele>530.4</ele>
        <time>2025-07-21T04:04:59Z</time>
      </trkpt>
      <trkpt lat="42.86577" lon="1.1974">
        <ele>530.4</ele>
        <time>2025-07-21T04:05:05Z</time>
      </trkpt>
      <trkpt lat="42.86578" lon="1.19698">
        <ele>529.8</ele>
        <time>2025-07-21T04:05:12Z</time>
      </trkpt>
      <trkpt lat="42.86578" lon="1.19692">
        <ele>529.8</ele>
        <time>2025-07-21T04:05:13Z</time>
      </trkpt>
      <trkpt lat="42.86577" lon="1.19678">
        <ele>529.6</ele>
        <time>2025-07-21T04:05:15Z</time>
      </trkpt>
      <trkpt lat="42.86577" lon="1.19659">
        <ele>529.4</ele>
        <time>2025-07-21T04:05:18Z</time>
      </trkpt>
      <trkpt lat="42.86577" lon="1.19646">
        <ele>529.4</ele>
        <time>2025-07-21T04:05:20Z</time>
      </trkpt>
      <trkpt lat="42.86577" lon="1.19622">
        <ele>529.2</ele>
        <time>2025-07-21T04:05:24Z</time>
      </trkpt>
      <trkpt lat="42.86586" lon="1.1958">
        <ele>529.4</ele>
        <time>2025-07-21T04:05:31Z</time>
      </trkpt>
      <trkpt lat="42.86588" lon="1.19574">
        <ele>529.4</ele>
        <time>2025-07-21T04:05:32Z</time>
      </trkpt>
      <trkpt lat="42.86601" lon="1.19537">
        <ele>530</ele>
        <time>2025-07-21T04:05:39Z</time>
      </trkpt>
      <trkpt lat="42.86612" lon="1.1951">
        <ele>530.8</ele>
        <time>2025-07-21T04:05:46Z</time>
      </trkpt>
      <trkpt lat="42.86616" lon="1.19502">
        <ele>531</ele>
        <time>2025-07-21T04:05:47Z</time>
      </trkpt>
      <trkpt lat="42.86627" lon="1.19476">
        <ele>532</ele>
        <time>2025-07-21T04:05:54Z</time>
      </trkpt>
      <trkpt lat="42.86631" lon="1.19469">
        <ele>532.2</ele>
        <time>2025-07-21T04:05:56Z</time>
      </trkpt>
      <trkpt lat="42.86639" lon="1.19452">
        <ele>533</ele>
        <time>2025-07-21T04:06:01Z</time>
      </trkpt>
      <trkpt lat="42.86647" lon="1.19436">
        <ele>533.6</ele>
        <time>2025-07-21T04:06:06Z</time>
      </trkpt>
      <trkpt lat="42.8665" lon="1.1943">
        <ele>534</ele>
        <time>2025-07-21T04:06:08Z</time>
      </trkpt>
      <trkpt lat="42.86659" lon="1.19413">
        <ele>535</ele>
        <time>2025-07-21T04:06:14Z</time>
      </trkpt>
      <trkpt lat="42.86667" lon="1.19397">
        <ele>536.2</ele>
        <time>2025-07-21T04:06:20Z</time>
      </trkpt>
      <trkpt lat="42.86671" lon="1.19389">
        <ele>536.8</ele>
        <time>2025-07-21T04:06:23Z</time>
      </trkpt>
      <trkpt lat="42.86674" lon="1.19381">
        <ele>537.2</ele>
        <time>2025-07-21T04:06:26Z</time>
      </trkpt>
      <trkpt lat="42.86682" lon="1.19366">
        <ele>538.6</ele>
        <time>2025-07-21T04:06:32Z</time>
      </trkpt>
      <trkpt lat="42.86692" lon="1.1935">
        <ele>539.8</ele>
        <time>2025-07-21T04:06:39Z</time>
      </trkpt>
      <trkpt lat="42.86702" lon="1.19334">
        <ele>541</ele>
        <time>2025-07-21T04:06:46Z</time>
      </trkpt>
      <trkpt lat="42.86706" lon="1.19328">
        <ele>541.8</ele>
        <time>2025-07-21T04:06:49Z</time>
      </trkpt>
      <trkpt lat="42.86709" lon="1.19324">
        <ele>542.2</ele>
        <time>2025-07-21T04:06:51Z</time>
      </trkpt>
      <trkpt lat="42.86718" lon="1.19311">
        <ele>543.4</ele>
        <time>2025-07-21T04:06:57Z</time>
      </trkpt>
      <trkpt lat="42.8672" lon="1.19306">
        <ele>544</ele>
        <time>2025-07-21T04:06:59Z</time>
      </trkpt>
      <trkpt lat="42.86725" lon="1.19296">
        <ele>544.6</ele>
        <time>2025-07-21T04:07:03Z</time>
      </trkpt>
      <trkpt lat="42.86728" lon="1.19288">
        <ele>545.2</ele>
        <time>2025-07-21T04:07:06Z</time>
      </trkpt>
      <trkpt lat="42.86731" lon="1.19281">
        <ele>545.8</ele>
        <time>2025-07-21T04:07:09Z</time>
      </trkpt>
      <trkpt lat="42.86738" lon="1.19266">
        <ele>546.8</ele>
        <time>2025-07-21T04:07:15Z</time>
      </trkpt>
      <trkpt lat="42.86743" lon="1.19251">
        <ele>548</ele>
        <time>2025-07-21T04:07:22Z</time>
      </trkpt>
      <trkpt lat="42.86747" lon="1.19245">
        <ele>548.4</ele>
        <time>2025-07-21T04:07:25Z</time>
      </trkpt>
      <trkpt lat="42.86753" lon="1.19232">
        <ele>549</ele>
        <time>2025-07-21T04:07:31Z</time>
      </trkpt>
      <trkpt lat="42.86756" lon="1.19227">
        <ele>549.2</ele>
        <time>2025-07-21T04:07:33Z</time>
      </trkpt>
      <trkpt lat="42.86764" lon="1.19215">
        <ele>549.8</ele>
        <time>2025-07-21T04:07:38Z</time>
      </trkpt>
      <trkpt lat="42.86771" lon="1.19205">
        <ele>550.2</ele>
        <time>2025-07-21T04:07:42Z</time>
      </trkpt>
      <trkpt lat="42.86779" lon="1.19196">
        <ele>550.6</ele>
        <time>2025-07-21T04:07:46Z</time>
      </trkpt>
      <trkpt lat="42.86785" lon="1.19185">
        <ele>551.2</ele>
        <time>2025-07-21T04:07:50Z</time>
      </trkpt>
      <trkpt lat="42.86791" lon="1.19166">
        <ele>552</ele>
        <time>2025-07-21T04:07:56Z</time>
      </trkpt>
      <trkpt lat="42.86792" lon="1.19155">
        <ele>552.4</ele>
        <time>2025-07-21T04:07:59Z</time>
      </trkpt>
      <trkpt lat="42.86794" lon="1.19143">
        <ele>552.6</ele>
        <time>2025-07-21T04:08:02Z</time>
      </trkpt>
      <trkpt lat="42.86803" lon="1.19118">
        <ele>553.2</ele>
        <time>2025-07-21T04:08:09Z</time>
      </trkpt>
      <trkpt lat="42.86809" lon="1.1911">
        <ele>553.4</ele>
        <time>2025-07-21T04:08:12Z</time>
      </trkpt>
      <trkpt lat="42.86822" lon="1.19095">
        <ele>554.4</ele>
        <time>2025-07-21T04:08:19Z</time>
      </trkpt>
      <trkpt lat="42.86824" lon="1.19093">
        <ele>554.6</ele>
        <time>2025-07-21T04:08:20Z</time>
      </trkpt>
      <trkpt lat="42.86832" lon="1.19084">
        <ele>555.6</ele>
        <time>2025-07-21T04:08:24Z</time>
      </trkpt>
      <trkpt lat="42.8684" lon="1.19073">
        <ele>556.2</ele>
        <time>2025-07-21T04:08:29Z</time>
      </trkpt>
      <trkpt lat="42.86846" lon="1.19066">
        <ele>556.6</ele>
        <time>2025-07-21T04:08:33Z</time>
      </trkpt>
      <trkpt lat="42.86859" lon="1.19048">
        <ele>557.8</ele>
        <time>2025-07-21T04:08:40Z</time>
      </trkpt>
      <trkpt lat="42.86862" lon="1.19043">
        <ele>558.4</ele>
        <time>2025-07-21T04:08:42Z</time>
      </trkpt>
      <trkpt lat="42.86868" lon="1.19034">
        <ele>559</ele>
        <time>2025-07-21T04:08:46Z</time>
      </trkpt>
      <trkpt lat="42.86872" lon="1.1903">
        <ele>559.2</ele>
        <time>2025-07-21T04:08:48Z</time>
      </trkpt>
      <trkpt lat="42.86879" lon="1.19017">
        <ele>560</ele>
        <time>2025-07-21T04:08:53Z</time>
      </trkpt>
      <trkpt lat="42.86882" lon="1.1901">
        <ele>560.4</ele>
        <time>2025-07-21T04:08:56Z</time>
      </trkpt>
      <trkpt lat="42.86887" lon="1.18999">
        <ele>561</ele>
        <time>2025-07-21T04:09:00Z</time>
      </trkpt>
      <trkpt lat="42.86894" lon="1.18985">
        <ele>562</ele>
        <time>2025-07-21T04:09:05Z</time>
      </trkpt>
      <trkpt lat="42.86896" lon="1.1898">
        <ele>562.2</ele>
        <time>2025-07-21T04:09:07Z</time>
      </trkpt>
      <trkpt lat="42.86904" lon="1.18957">
        <ele>563.4</ele>
        <time>2025-07-21T04:09:15Z</time>
      </trkpt>
      <trkpt lat="42.86906" lon="1.18953">
        <ele>563.6</ele>
        <time>2025-07-21T04:09:16Z</time>
      </trkpt>
      <trkpt lat="42.86911" lon="1.18938">
        <ele>564.4</ele>
        <time>2025-07-21T04:09:22Z</time>
      </trkpt>
      <trkpt lat="42.86914" lon="1.1892">
        <ele>565.6</ele>
        <time>2025-07-21T04:09:28Z</time>
      </trkpt>
      <trkpt lat="42.86917" lon="1.18912">
        <ele>566</ele>
        <time>2025-07-21T04:09:31Z</time>
      </trkpt>
      <trkpt lat="42.86919" lon="1.18907">
        <ele>566.2</ele>
        <time>2025-07-21T04:09:33Z</time>
      </trkpt>
      <trkpt lat="42.8692" lon="1.18905">
        <ele>566.6</ele>
        <time>2025-07-21T04:09:34Z</time>
      </trkpt>
      <trkpt lat="42.86922" lon="1.18889">
        <ele>567.2</ele>
        <time>2025-07-21T04:09:39Z</time>
      </trkpt>
      <trkpt lat="42.86923" lon="1.18884">
        <ele>567.4</ele>
        <time>2025-07-21T04:09:42Z</time>
      </trkpt>
      <trkpt lat="42.86925" lon="1.1887">
        <ele>568</ele>
        <time>2025-07-21T04:09:46Z</time>
      </trkpt>
      <trkpt lat="42.8693" lon="1.18863">
        <ele>568.6</ele>
        <time>2025-07-21T04:09:50Z</time>
      </trkpt>
      <trkpt lat="42.86933" lon="1.18857">
        <ele>568.6</ele>
        <time>2025-07-21T04:09:51Z</time>
      </trkpt>
      <trkpt lat="42.8694" lon="1.18844">
        <ele>569.6</ele>
        <time>2025-07-21T04:09:56Z</time>
      </trkpt>
      <trkpt lat="42.86943" lon="1.18842">
        <ele>569.6</ele>
        <time>2025-07-21T04:09:57Z</time>
      </trkpt>
      <trkpt lat="42.86952" lon="1.1883">
        <ele>570.6</ele>
        <time>2025-07-21T04:10:01Z</time>
      </trkpt>
      <trkpt lat="42.86954" lon="1.18826">
        <ele>570.6</ele>
        <time>2025-07-21T04:10:02Z</time>
      </trkpt>
      <trkpt lat="42.86955" lon="1.18821">
        <ele>571</ele>
        <time>2025-07-21T04:10:04Z</time>
      </trkpt>
      <trkpt lat="42.86964" lon="1.18812">
        <ele>571.6</ele>
        <time>2025-07-21T04:10:07Z</time>
      </trkpt>
      <trkpt lat="42.86968" lon="1.18802">
        <ele>572.4</ele>
        <time>2025-07-21T04:10:10Z</time>
      </trkpt>
      <trkpt lat="42.86969" lon="1.18799">
        <ele>572.8</ele>
        <time>2025-07-21T04:10:11Z</time>
      </trkpt>
      <trkpt lat="42.8697" lon="1.18781">
        <ele>573.6</ele>
        <time>2025-07-21T04:10:17Z</time>
      </trkpt>
      <trkpt lat="42.86973" lon="1.18776">
        <ele>573.8</ele>
        <time>2025-07-21T04:10:19Z</time>
      </trkpt>
      <trkpt lat="42.86979" lon="1.18771">
        <ele>574.4</ele>
        <time>2025-07-21T04:10:23Z</time>
      </trkpt>
      <trkpt lat="42.86983" lon="1.18765">
        <ele>574.8</ele>
        <time>2025-07-21T04:10:25Z</time>
      </trkpt>
      <trkpt lat="42.86994" lon="1.18754">
        <ele>575.6</ele>
        <time>2025-07-21T04:10:31Z</time>
      </trkpt>
      <trkpt lat="42.86995" lon="1.18752">
        <ele>576</ele>
        <time>2025-07-21T04:10:32Z</time>
      </trkpt>
      <trkpt lat="42.87002" lon="1.18739">
        <ele>577.2</ele>
        <time>2025-07-21T04:10:37Z</time>
      </trkpt>
      <trkpt lat="42.87007" lon="1.18724">
        <ele>578.2</ele>
        <time>2025-07-21T04:10:43Z</time>
      </trkpt>
      <trkpt lat="42.87009" lon="1.18718">
        <ele>578.4</ele>
        <time>2025-07-21T04:10:44Z</time>
      </trkpt>
      <trkpt lat="42.8701" lon="1.18716">
        <ele>578.4</ele>
        <time>2025-07-21T04:10:45Z</time>
      </trkpt>
      <trkpt lat="42.87012" lon="1.18711">
        <ele>578.8</ele>
        <time>2025-07-21T04:10:47Z</time>
      </trkpt>
      <trkpt lat="42.87015" lon="1.18701">
        <ele>579.2</ele>
        <time>2025-07-21T04:10:50Z</time>
      </trkpt>
      <trkpt lat="42.87018" lon="1.18689">
        <ele>579.8</ele>
        <time>2025-07-21T04:10:54Z</time>
      </trkpt>
      <trkpt lat="42.87018" lon="1.18686">
        <ele>580</ele>
        <time>2025-07-21T04:10:55Z</time>
      </trkpt>
      <trkpt lat="42.8702" lon="1.1868">
        <ele>580.4</ele>
        <time>2025-07-21T04:10:57Z</time>
      </trkpt>
      <trkpt lat="42.87025" lon="1.1867">
        <ele>581</ele>
        <time>2025-07-21T04:11:01Z</time>
      </trkpt>
      <trkpt lat="42.87027" lon="1.18667">
        <ele>581.2</ele>
        <time>2025-07-21T04:11:02Z</time>
      </trkpt>
      <trkpt lat="42.87029" lon="1.18665">
        <ele>581.4</ele>
        <time>2025-07-21T04:11:04Z</time>
      </trkpt>
      <trkpt lat="42.87034" lon="1.1866">
        <ele>581.6</ele>
        <time>2025-07-21T04:11:05Z</time>
      </trkpt>
      <trkpt lat="42.87036" lon="1.18658">
        <ele>582</ele>
        <time>2025-07-21T04:11:07Z</time>
      </trkpt>
      <trkpt lat="42.87046" lon="1.18649">
        <ele>582.4</ele>
        <time>2025-07-21T04:11:10Z</time>
      </trkpt>
      <trkpt lat="42.87054" lon="1.18638">
        <ele>583</ele>
        <time>2025-07-21T04:11:14Z</time>
      </trkpt>
      <trkpt lat="42.87056" lon="1.18633">
        <ele>583.2</ele>
        <time>2025-07-21T04:11:16Z</time>
      </trkpt>
      <trkpt lat="42.87056" lon="1.18633">
        <ele>583.4</ele>
        <time>2025-07-21T04:11:17Z</time>
      </trkpt>
      <trkpt lat="42.87068" lon="1.18619">
        <ele>584.2</ele>
        <time>2025-07-21T04:11:22Z</time>
      </trkpt>
      <trkpt lat="42.87071" lon="1.18615">
        <ele>584.4</ele>
        <time>2025-07-21T04:11:24Z</time>
      </trkpt>
      <trkpt lat="42.87078" lon="1.18607">
        <ele>585</ele>
        <time>2025-07-21T04:11:28Z</time>
      </trkpt>
      <trkpt lat="42.87084" lon="1.18602">
        <ele>585.6</ele>
        <time>2025-07-21T04:11:31Z</time>
      </trkpt>
      <trkpt lat="42.87088" lon="1.18592">
        <ele>586.2</ele>
        <time>2025-07-21T04:11:35Z</time>
      </trkpt>
      <trkpt lat="42.87097" lon="1.18582">
        <ele>586.8</ele>
        <time>2025-07-21T04:11:40Z</time>
      </trkpt>
      <trkpt lat="42.87104" lon="1.18575">
        <ele>587.4</ele>
        <time>2025-07-21T04:11:44Z</time>
      </trkpt>
      <trkpt lat="42.87112" lon="1.18567">
        <ele>587.8</ele>
        <time>2025-07-21T04:11:48Z</time>
      </trkpt>
      <trkpt lat="42.87122" lon="1.1856">
        <ele>588.6</ele>
        <time>2025-07-21T04:11:53Z</time>
      </trkpt>
      <trkpt lat="42.87124" lon="1.1856">
        <ele>588.6</ele>
        <time>2025-07-21T04:11:54Z</time>
      </trkpt>
      <trkpt lat="42.87138" lon="1.18557">
        <ele>589.8</ele>
        <time>2025-07-21T04:12:00Z</time>
      </trkpt>
      <trkpt lat="42.87155" lon="1.1855">
        <ele>590.8</ele>
        <time>2025-07-21T04:12:07Z</time>
      </trkpt>
      <trkpt lat="42.87172" lon="1.18538">
        <ele>592</ele>
        <time>2025-07-21T04:12:14Z</time>
      </trkpt>
      <trkpt lat="42.87174" lon="1.18536">
        <ele>592.2</ele>
        <time>2025-07-21T04:12:15Z</time>
      </trkpt>
      <trkpt lat="42.87186" lon="1.1852">
        <ele>593.4</ele>
        <time>2025-07-21T04:12:21Z</time>
      </trkpt>
      <trkpt lat="42.87192" lon="1.18499">
        <ele>594.4</ele>
        <time>2025-07-21T04:12:28Z</time>
      </trkpt>
      <trkpt lat="42.87192" lon="1.18496">
        <ele>594.8</ele>
        <time>2025-07-21T04:12:29Z</time>
      </trkpt>
      <trkpt lat="42.87195" lon="1.18478">
        <ele>595.6</ele>
        <time>2025-07-21T04:12:35Z</time>
      </trkpt>
      <trkpt lat="42.87192" lon="1.18458">
        <ele>596.6</ele>
        <time>2025-07-21T04:12:42Z</time>
      </trkpt>
      <trkpt lat="42.87192" lon="1.18455">
        <ele>596.8</ele>
        <time>2025-07-21T04:12:43Z</time>
      </trkpt>
      <trkpt lat="42.87188" lon="1.18432">
        <ele>597.6</ele>
        <time>2025-07-21T04:12:50Z</time>
      </trkpt>
      <trkpt lat="42.87188" lon="1.18426">
        <ele>597.8</ele>
        <time>2025-07-21T04:12:52Z</time>
      </trkpt>
      <trkpt lat="42.87195" lon="1.18416">
        <ele>598.8</ele>
        <time>2025-07-21T04:12:56Z</time>
      </trkpt>
      <trkpt lat="42.87197" lon="1.18416">
        <ele>598.8</ele>
        <time>2025-07-21T04:12:57Z</time>
      </trkpt>
      <trkpt lat="42.87206" lon="1.18419">
        <ele>599.8</ele>
        <time>2025-07-21T04:13:02Z</time>
      </trkpt>
      <trkpt lat="42.87207" lon="1.1842">
        <ele>600.2</ele>
        <time>2025-07-21T04:13:03Z</time>
      </trkpt>
      <trkpt lat="42.87213" lon="1.18423">
        <ele>601</ele>
        <time>2025-07-21T04:13:06Z</time>
      </trkpt>
      <trkpt lat="42.87223" lon="1.18423">
        <ele>601.4</ele>
        <time>2025-07-21T04:13:10Z</time>
      </trkpt>
      <trkpt lat="42.8723" lon="1.18419">
        <ele>602.2</ele>
        <time>2025-07-21T04:13:13Z</time>
      </trkpt>
      <trkpt lat="42.87237" lon="1.18416">
        <ele>602.6</ele>
        <time>2025-07-21T04:13:16Z</time>
      </trkpt>
      <trkpt lat="42.87245" lon="1.18409">
        <ele>603.2</ele>
        <time>2025-07-21T04:13:20Z</time>
      </trkpt>
      <trkpt lat="42.87249" lon="1.18405">
        <ele>603.4</ele>
        <time>2025-07-21T04:13:22Z</time>
      </trkpt>
      <trkpt lat="42.87254" lon="1.18398">
        <ele>604.2</ele>
        <time>2025-07-21T04:13:25Z</time>
      </trkpt>
      <trkpt lat="42.8726" lon="1.18392">
        <ele>604.6</ele>
        <time>2025-07-21T04:13:28Z</time>
      </trkpt>
      <trkpt lat="42.87267" lon="1.1838">
        <ele>605.4</ele>
        <time>2025-07-21T04:13:33Z</time>
      </trkpt>
      <trkpt lat="42.87271" lon="1.18372">
        <ele>605.8</ele>
        <time>2025-07-21T04:13:36Z</time>
      </trkpt>
      <trkpt lat="42.87276" lon="1.18363">
        <ele>606.4</ele>
        <time>2025-07-21T04:13:39Z</time>
      </trkpt>
      <trkpt lat="42.87286" lon="1.18344">
        <ele>607.4</ele>
        <time>2025-07-21T04:13:46Z</time>
      </trkpt>
      <trkpt lat="42.87287" lon="1.18341">
        <ele>607.6</ele>
        <time>2025-07-21T04:13:47Z</time>
      </trkpt>
      <trkpt lat="42.87294" lon="1.18324">
        <ele>608.6</ele>
        <time>2025-07-21T04:13:54Z</time>
      </trkpt>
      <trkpt lat="42.87301" lon="1.18305">
        <ele>609.6</ele>
        <time>2025-07-21T04:14:01Z</time>
      </trkpt>
      <trkpt lat="42.87304" lon="1.18299">
        <ele>610</ele>
        <time>2025-07-21T04:14:03Z</time>
      </trkpt>
      <trkpt lat="42.87308" lon="1.18285">
        <ele>610.8</ele>
        <time>2025-07-21T04:14:09Z</time>
      </trkpt>
      <trkpt lat="42.87311" lon="1.18276">
        <ele>611.2</ele>
        <time>2025-07-21T04:14:12Z</time>
      </trkpt>
      <trkpt lat="42.87313" lon="1.18271">
        <ele>611.6</ele>
        <time>2025-07-21T04:14:14Z</time>
      </trkpt>
      <trkpt lat="42.87316" lon="1.18263">
        <ele>611.8</ele>
        <time>2025-07-21T04:14:16Z</time>
      </trkpt>
      <trkpt lat="42.87319" lon="1.18254">
        <ele>612.2</ele>
        <time>2025-07-21T04:14:18Z</time>
      </trkpt>
      <trkpt lat="42.87326" lon="1.18233">
        <ele>613</ele>
        <time>2025-07-21T04:14:24Z</time>
      </trkpt>
      <trkpt lat="42.87327" lon="1.18229">
        <ele>613</ele>
        <time>2025-07-21T04:14:25Z</time>
      </trkpt>
      <trkpt lat="42.87331" lon="1.18214">
        <ele>613.8</ele>
        <time>2025-07-21T04:14:29Z</time>
      </trkpt>
      <trkpt lat="42.87332" lon="1.18206">
        <ele>614.2</ele>
        <time>2025-07-21T04:14:31Z</time>
      </trkpt>
      <trkpt lat="42.87332" lon="1.18181">
        <ele>615.2</ele>
        <time>2025-07-21T04:14:37Z</time>
      </trkpt>
      <trkpt lat="42.87334" lon="1.18161">
        <ele>616.2</ele>
        <time>2025-07-21T04:14:43Z</time>
      </trkpt>
      <trkpt lat="42.87334" lon="1.18144">
        <ele>617.4</ele>
        <time>2025-07-21T04:14:49Z</time>
      </trkpt>
      <trkpt lat="42.87335" lon="1.18137">
        <ele>618</ele>
        <time>2025-07-21T04:14:52Z</time>
      </trkpt>
      <trkpt lat="42.87337" lon="1.18133">
        <ele>618</ele>
        <time>2025-07-21T04:14:54Z</time>
      </trkpt>
      <trkpt lat="42.87338" lon="1.1813">
        <ele>618.2</ele>
        <time>2025-07-21T04:14:55Z</time>
      </trkpt>
      <trkpt lat="42.87337" lon="1.1812">
        <ele>619</ele>
        <time>2025-07-21T04:15:00Z</time>
      </trkpt>
      <trkpt lat="42.87337" lon="1.18117">
        <ele>619.2</ele>
        <time>2025-07-21T04:15:01Z</time>
      </trkpt>
      <trkpt lat="42.87336" lon="1.18113">
        <ele>619.4</ele>
        <time>2025-07-21T04:15:02Z</time>
      </trkpt>
      <trkpt lat="42.87332" lon="1.18105">
        <ele>619.6</ele>
        <time>2025-07-21T04:15:04Z</time>
      </trkpt>
      <trkpt lat="42.87333" lon="1.18094">
        <ele>620.2</ele>
        <time>2025-07-21T04:15:07Z</time>
      </trkpt>
      <trkpt lat="42.8733" lon="1.18086">
        <ele>620.4</ele>
        <time>2025-07-21T04:15:09Z</time>
      </trkpt>
      <trkpt lat="42.87331" lon="1.18082">
        <ele>620.6</ele>
        <time>2025-07-21T04:15:10Z</time>
      </trkpt>
      <trkpt lat="42.87331" lon="1.18077">
        <ele>621</ele>
        <time>2025-07-21T04:15:12Z</time>
      </trkpt>
      <trkpt lat="42.8733" lon="1.18067">
        <ele>621.6</ele>
        <time>2025-07-21T04:15:15Z</time>
      </trkpt>
      <trkpt lat="42.87328" lon="1.18049">
        <ele>622.2</ele>
        <time>2025-07-21T04:15:19Z</time>
      </trkpt>
      <trkpt lat="42.87328" lon="1.18042">
        <ele>622.6</ele>
        <time>2025-07-21T04:15:21Z</time>
      </trkpt>
      <trkpt lat="42.87325" lon="1.18027">
        <ele>623.2</ele>
        <time>2025-07-21T04:15:25Z</time>
      </trkpt>
      <trkpt lat="42.87327" lon="1.18018">
        <ele>623.8</ele>
        <time>2025-07-21T04:15:28Z</time>
      </trkpt>
      <trkpt lat="42.87326" lon="1.18012">
        <ele>624</ele>
        <time>2025-07-21T04:15:30Z</time>
      </trkpt>
      <trkpt lat="42.87326" lon="1.17998">
        <ele>624.8</ele>
        <time>2025-07-21T04:15:35Z</time>
      </trkpt>
      <trkpt lat="42.87327" lon="1.17991">
        <ele>625.2</ele>
        <time>2025-07-21T04:15:38Z</time>
      </trkpt>
      <trkpt lat="42.87332" lon="1.17972">
        <ele>625.8</ele>
        <time>2025-07-21T04:15:44Z</time>
      </trkpt>
      <trkpt lat="42.87333" lon="1.17969">
        <ele>625.8</ele>
        <time>2025-07-21T04:15:45Z</time>
      </trkpt>
      <trkpt lat="42.87342" lon="1.17963">
        <ele>626</ele>
        <time>2025-07-21T04:15:49Z</time>
      </trkpt>
      <trkpt lat="42.87352" lon="1.17959">
        <ele>626.8</ele>
        <time>2025-07-21T04:15:53Z</time>
      </trkpt>
      <trkpt lat="42.87358" lon="1.17954">
        <ele>627.4</ele>
        <time>2025-07-21T04:15:57Z</time>
      </trkpt>
      <trkpt lat="42.87362" lon="1.1795">
        <ele>627.8</ele>
        <time>2025-07-21T04:15:59Z</time>
      </trkpt>
      <trkpt lat="42.87369" lon="1.17941">
        <ele>628.8</ele>
        <time>2025-07-21T04:16:03Z</time>
      </trkpt>
      <trkpt lat="42.87371" lon="1.17938">
        <ele>628.8</ele>
        <time>2025-07-21T04:16:04Z</time>
      </trkpt>
      <trkpt lat="42.87377" lon="1.17921">
        <ele>630</ele>
        <time>2025-07-21T04:16:10Z</time>
      </trkpt>
      <trkpt lat="42.87378" lon="1.17918">
        <ele>630</ele>
        <time>2025-07-21T04:16:11Z</time>
      </trkpt>
      <trkpt lat="42.8738" lon="1.1791">
        <ele>630.6</ele>
        <time>2025-07-21T04:16:14Z</time>
      </trkpt>
      <trkpt lat="42.87384" lon="1.17903">
        <ele>631</ele>
        <time>2025-07-21T04:16:17Z</time>
      </trkpt>
      <trkpt lat="42.87389" lon="1.17894">
        <ele>631.4</ele>
        <time>2025-07-21T04:16:20Z</time>
      </trkpt>
      <trkpt lat="42.87394" lon="1.17883">
        <ele>632.2</ele>
        <time>2025-07-21T04:16:24Z</time>
      </trkpt>
      <trkpt lat="42.87398" lon="1.17873">
        <ele>632.8</ele>
        <time>2025-07-21T04:16:27Z</time>
      </trkpt>
      <trkpt lat="42.87404" lon="1.17864">
        <ele>633.2</ele>
        <time>2025-07-21T04:16:30Z</time>
      </trkpt>
      <trkpt lat="42.87407" lon="1.17858">
        <ele>633.6</ele>
        <time>2025-07-21T04:16:32Z</time>
      </trkpt>
      <trkpt lat="42.87409" lon="1.17845">
        <ele>634.4</ele>
        <time>2025-07-21T04:16:37Z</time>
      </trkpt>
      <trkpt lat="42.87411" lon="1.17841">
        <ele>634.6</ele>
        <time>2025-07-21T04:16:39Z</time>
      </trkpt>
      <trkpt lat="42.87418" lon="1.17833">
        <ele>635.4</ele>
        <time>2025-07-21T04:16:43Z</time>
      </trkpt>
      <trkpt lat="42.87425" lon="1.17831">
        <ele>636.2</ele>
        <time>2025-07-21T04:16:47Z</time>
      </trkpt>
      <trkpt lat="42.87429" lon="1.17831">
        <ele>636.6</ele>
        <time>2025-07-21T04:16:49Z</time>
      </trkpt>
      <trkpt lat="42.87445" lon="1.17836">
        <ele>637.6</ele>
        <time>2025-07-21T04:16:56Z</time>
      </trkpt>
      <trkpt lat="42.8745" lon="1.17839">
        <ele>638</ele>
        <time>2025-07-21T04:16:58Z</time>
      </trkpt>
      <trkpt lat="42.87454" lon="1.17841">
        <ele>638.6</ele>
        <time>2025-07-21T04:17:00Z</time>
      </trkpt>
      <trkpt lat="42.8746" lon="1.17847">
        <ele>638.8</ele>
        <time>2025-07-21T04:17:03Z</time>
      </trkpt>
      <trkpt lat="42.87463" lon="1.17852">
        <ele>638.8</ele>
        <time>2025-07-21T04:17:05Z</time>
      </trkpt>
      <trkpt lat="42.87467" lon="1.17862">
        <ele>640</ele>
        <time>2025-07-21T04:17:09Z</time>
      </trkpt>
      <trkpt lat="42.87469" lon="1.17868">
        <ele>640.2</ele>
        <time>2025-07-21T04:17:11Z</time>
      </trkpt>
      <trkpt lat="42.87472" lon="1.17882">
        <ele>640.8</ele>
        <time>2025-07-21T04:17:16Z</time>
      </trkpt>
      <trkpt lat="42.87473" lon="1.17885">
        <ele>641</ele>
        <time>2025-07-21T04:17:17Z</time>
      </trkpt>
      <trkpt lat="42.87477" lon="1.17903">
        <ele>641.8</ele>
        <time>2025-07-21T04:17:23Z</time>
      </trkpt>
      <trkpt lat="42.87479" lon="1.17911">
        <ele>642.6</ele>
        <time>2025-07-21T04:17:26Z</time>
      </trkpt>
      <trkpt lat="42.8748" lon="1.1792">
        <ele>643</ele>
        <time>2025-07-21T04:17:29Z</time>
      </trkpt>
      <trkpt lat="42.87486" lon="1.17936">
        <ele>644.2</ele>
        <time>2025-07-21T04:17:35Z</time>
      </trkpt>
      <trkpt lat="42.87489" lon="1.17955">
        <ele>645.2</ele>
        <time>2025-07-21T04:17:42Z</time>
      </trkpt>
      <trkpt lat="42.8749" lon="1.17958">
        <ele>645.4</ele>
        <time>2025-07-21T04:17:43Z</time>
      </trkpt>
      <trkpt lat="42.87495" lon="1.17974">
        <ele>646.4</ele>
        <time>2025-07-21T04:17:49Z</time>
      </trkpt>
      <trkpt lat="42.87497" lon="1.17981">
        <ele>646.8</ele>
        <time>2025-07-21T04:17:52Z</time>
      </trkpt>
      <trkpt lat="42.87499" lon="1.17993">
        <ele>647.4</ele>
        <time>2025-07-21T04:17:56Z</time>
      </trkpt>
      <trkpt lat="42.87502" lon="1.18006">
        <ele>648.2</ele>
        <time>2025-07-21T04:18:01Z</time>
      </trkpt>
      <trkpt lat="42.87503" lon="1.18009">
        <ele>648.6</ele>
        <time>2025-07-21T04:18:02Z</time>
      </trkpt>
      <trkpt lat="42.87509" lon="1.18029">
        <ele>649.6</ele>
        <time>2025-07-21T04:18:09Z</time>
      </trkpt>
      <trkpt lat="42.8751" lon="1.18031">
        <ele>649.8</ele>
        <time>2025-07-21T04:18:10Z</time>
      </trkpt>
      <trkpt lat="42.87512" lon="1.18036">
        <ele>650.4</ele>
        <time>2025-07-21T04:18:12Z</time>
      </trkpt>
      <trkpt lat="42.87517" lon="1.18043">
        <ele>650.6</ele>
        <time>2025-07-21T04:18:15Z</time>
      </trkpt>
      <trkpt lat="42.87521" lon="1.18046">
        <ele>650.8</ele>
        <time>2025-07-21T04:18:17Z</time>
      </trkpt>
      <trkpt lat="42.87529" lon="1.1805">
        <ele>651.6</ele>
        <time>2025-07-21T04:18:21Z</time>
      </trkpt>
      <trkpt lat="42.87536" lon="1.18051">
        <ele>652.4</ele>
        <time>2025-07-21T04:18:24Z</time>
      </trkpt>
      <trkpt lat="42.87544" lon="1.18047">
        <ele>652.8</ele>
        <time>2025-07-21T04:18:28Z</time>
      </trkpt>
      <trkpt lat="42.87547" lon="1.18043">
        <ele>653.2</ele>
        <time>2025-07-21T04:18:30Z</time>
      </trkpt>
      <trkpt lat="42.87551" lon="1.18038">
        <ele>654.2</ele>
        <time>2025-07-21T04:18:33Z</time>
      </trkpt>
      <trkpt lat="42.87554" lon="1.18028">
        <ele>654.6</ele>
        <time>2025-07-21T04:18:37Z</time>
      </trkpt>
      <trkpt lat="42.87555" lon="1.18023">
        <ele>655.2</ele>
        <time>2025-07-21T04:18:39Z</time>
      </trkpt>
      <trkpt lat="42.87556" lon="1.18013">
        <ele>656</ele>
        <time>2025-07-21T04:18:43Z</time>
      </trkpt>
      <trkpt lat="42.87554" lon="1.18008">
        <ele>656.4</ele>
        <time>2025-07-21T04:18:45Z</time>
      </trkpt>
      <trkpt lat="42.8755" lon="1.17995">
        <ele>657.4</ele>
        <time>2025-07-21T04:18:50Z</time>
      </trkpt>
      <trkpt lat="42.87549" lon="1.17992">
        <ele>657.8</ele>
        <time>2025-07-21T04:18:51Z</time>
      </trkpt>
      <trkpt lat="42.87545" lon="1.17984">
        <ele>658.6</ele>
        <time>2025-07-21T04:18:55Z</time>
      </trkpt>
      <trkpt lat="42.87544" lon="1.17976">
        <ele>659.4</ele>
        <time>2025-07-21T04:18:58Z</time>
      </trkpt>
      <trkpt lat="42.8754" lon="1.17967">
        <ele>660</ele>
        <time>2025-07-21T04:19:02Z</time>
      </trkpt>
      <trkpt lat="42.87539" lon="1.17964">
        <ele>660.4</ele>
        <time>2025-07-21T04:19:03Z</time>
      </trkpt>
      <trkpt lat="42.87538" lon="1.17958">
        <ele>660.8</ele>
        <time>2025-07-21T04:19:05Z</time>
      </trkpt>
      <trkpt lat="42.87537" lon="1.17955">
        <ele>661</ele>
        <time>2025-07-21T04:19:06Z</time>
      </trkpt>
      <trkpt lat="42.87534" lon="1.17938">
        <ele>662.2</ele>
        <time>2025-07-21T04:19:11Z</time>
      </trkpt>
      <trkpt lat="42.87534" lon="1.17932">
        <ele>662.4</ele>
        <time>2025-07-21T04:19:13Z</time>
      </trkpt>
      <trkpt lat="42.87536" lon="1.17906">
        <ele>663.2</ele>
        <time>2025-07-21T04:19:21Z</time>
      </trkpt>
      <trkpt lat="42.87536" lon="1.17903">
        <ele>663.4</ele>
        <time>2025-07-21T04:19:22Z</time>
      </trkpt>
      <trkpt lat="42.87542" lon="1.17884">
        <ele>664.2</ele>
        <time>2025-07-21T04:19:29Z</time>
      </trkpt>
      <trkpt lat="42.87544" lon="1.17875">
        <ele>664.8</ele>
        <time>2025-07-21T04:19:32Z</time>
      </trkpt>
      <trkpt lat="42.87548" lon="1.17858">
        <ele>665.4</ele>
        <time>2025-07-21T04:19:38Z</time>
      </trkpt>
      <trkpt lat="42.87549" lon="1.17856">
        <ele>665.6</ele>
        <time>2025-07-21T04:19:39Z</time>
      </trkpt>
      <trkpt lat="42.87553" lon="1.17835">
        <ele>666.6</ele>
        <time>2025-07-21T04:19:46Z</time>
      </trkpt>
      <trkpt lat="42.87554" lon="1.17832">
        <ele>666.6</ele>
        <time>2025-07-21T04:19:47Z</time>
      </trkpt>
      <trkpt lat="42.87555" lon="1.17808">
        <ele>667.6</ele>
        <time>2025-07-21T04:19:55Z</time>
      </trkpt>
      <trkpt lat="42.87556" lon="1.17796">
        <ele>668.6</ele>
        <time>2025-07-21T04:19:59Z</time>
      </trkpt>
      <trkpt lat="42.87557" lon="1.17784">
        <ele>669.2</ele>
        <time>2025-07-21T04:20:03Z</time>
      </trkpt>
      <trkpt lat="42.87557" lon="1.17769">
        <ele>670</ele>
        <time>2025-07-21T04:20:08Z</time>
      </trkpt>
      <trkpt lat="42.87558" lon="1.17759">
        <ele>670.6</ele>
        <time>2025-07-21T04:20:11Z</time>
      </trkpt>
      <trkpt lat="42.87558" lon="1.17747">
        <ele>671.2</ele>
        <time>2025-07-21T04:20:15Z</time>
      </trkpt>
      <trkpt lat="42.87556" lon="1.17736">
        <ele>671.8</ele>
        <time>2025-07-21T04:20:19Z</time>
      </trkpt>
      <trkpt lat="42.87553" lon="1.17727">
        <ele>672.2</ele>
        <time>2025-07-21T04:20:22Z</time>
      </trkpt>
      <trkpt lat="42.87551" lon="1.17722">
        <ele>672.4</ele>
        <time>2025-07-21T04:20:24Z</time>
      </trkpt>
      <trkpt lat="42.87544" lon="1.17714">
        <ele>673.2</ele>
        <time>2025-07-21T04:20:28Z</time>
      </trkpt>
      <trkpt lat="42.87536" lon="1.17709">
        <ele>673.6</ele>
        <time>2025-07-21T04:20:32Z</time>
      </trkpt>
      <trkpt lat="42.87529" lon="1.17706">
        <ele>674</ele>
        <time>2025-07-21T04:20:35Z</time>
      </trkpt>
      <trkpt lat="42.87522" lon="1.17704">
        <ele>674.4</ele>
        <time>2025-07-21T04:20:38Z</time>
      </trkpt>
      <trkpt lat="42.87513" lon="1.17702">
        <ele>675.2</ele>
        <time>2025-07-21T04:20:42Z</time>
      </trkpt>
      <trkpt lat="42.87502" lon="1.17698">
        <ele>675.8</ele>
        <time>2025-07-21T04:20:47Z</time>
      </trkpt>
      <trkpt lat="42.87494" lon="1.17694">
        <ele>676.2</ele>
        <time>2025-07-21T04:20:51Z</time>
      </trkpt>
      <trkpt lat="42.87488" lon="1.17689">
        <ele>676.6</ele>
        <time>2025-07-21T04:20:54Z</time>
      </trkpt>
      <trkpt lat="42.87485" lon="1.17682">
        <ele>677.2</ele>
        <time>2025-07-21T04:20:57Z</time>
      </trkpt>
      <trkpt lat="42.87481" lon="1.17668">
        <ele>678.2</ele>
        <time>2025-07-21T04:21:02Z</time>
      </trkpt>
      <trkpt lat="42.8748" lon="1.17665">
        <ele>678.4</ele>
        <time>2025-07-21T04:21:03Z</time>
      </trkpt>
      <trkpt lat="42.8748" lon="1.1765">
        <ele>679.4</ele>
        <time>2025-07-21T04:21:09Z</time>
      </trkpt>
      <trkpt lat="42.87481" lon="1.17641">
        <ele>679.8</ele>
        <time>2025-07-21T04:21:12Z</time>
      </trkpt>
      <trkpt lat="42.87481" lon="1.17632">
        <ele>680.8</ele>
        <time>2025-07-21T04:21:15Z</time>
      </trkpt>
      <trkpt lat="42.87482" lon="1.17621">
        <ele>681.4</ele>
        <time>2025-07-21T04:21:19Z</time>
      </trkpt>
      <trkpt lat="42.87484" lon="1.17613">
        <ele>681.8</ele>
        <time>2025-07-21T04:21:22Z</time>
      </trkpt>
      <trkpt lat="42.87488" lon="1.17602">
        <ele>682.4</ele>
        <time>2025-07-21T04:21:26Z</time>
      </trkpt>
      <trkpt lat="42.87492" lon="1.17591">
        <ele>683</ele>
        <time>2025-07-21T04:21:30Z</time>
      </trkpt>
      <trkpt lat="42.87495" lon="1.1758">
        <ele>683.4</ele>
        <time>2025-07-21T04:21:34Z</time>
      </trkpt>
      <trkpt lat="42.87497" lon="1.17572">
        <ele>684</ele>
        <time>2025-07-21T04:21:37Z</time>
      </trkpt>
      <trkpt lat="42.87501" lon="1.17562">
        <ele>684.6</ele>
        <time>2025-07-21T04:21:41Z</time>
      </trkpt>
      <trkpt lat="42.87502" lon="1.1756">
        <ele>684.6</ele>
        <time>2025-07-21T04:21:42Z</time>
      </trkpt>
      <trkpt lat="42.87504" lon="1.17555">
        <ele>685.2</ele>
        <time>2025-07-21T04:21:44Z</time>
      </trkpt>
      <trkpt lat="42.87507" lon="1.17547">
        <ele>685.8</ele>
        <time>2025-07-21T04:21:47Z</time>
      </trkpt>
      <trkpt lat="42.8751" lon="1.1754">
        <ele>686.2</ele>
        <time>2025-07-21T04:21:50Z</time>
      </trkpt>
      <trkpt lat="42.87516" lon="1.17531">
        <ele>686.6</ele>
        <time>2025-07-21T04:21:54Z</time>
      </trkpt>
      <trkpt lat="42.87518" lon="1.17528">
        <ele>687.4</ele>
        <time>2025-07-21T04:21:57Z</time>
      </trkpt>
      <trkpt lat="42.87518" lon="1.17528">
        <ele>687.6</ele>
        <time>2025-07-21T04:21:58Z</time>
      </trkpt>
      <trkpt lat="42.87518" lon="1.17525">
        <ele>687.8</ele>
        <time>2025-07-21T04:23:03Z</time>
      </trkpt>
      <trkpt lat="42.87521" lon="1.17506">
        <ele>688</ele>
        <time>2025-07-21T04:23:09Z</time>
      </trkpt>
      <trkpt lat="42.87525" lon="1.17497">
        <ele>688.4</ele>
        <time>2025-07-21T04:23:12Z</time>
      </trkpt>
      <trkpt lat="42.87531" lon="1.17484">
        <ele>689.4</ele>
        <time>2025-07-21T04:23:17Z</time>
      </trkpt>
      <trkpt lat="42.87532" lon="1.17481">
        <ele>689.4</ele>
        <time>2025-07-21T04:23:18Z</time>
      </trkpt>
      <trkpt lat="42.87537" lon="1.17465">
        <ele>690.4</ele>
        <time>2025-07-21T04:23:24Z</time>
      </trkpt>
      <trkpt lat="42.87541" lon="1.17451">
        <ele>691.2</ele>
        <time>2025-07-21T04:23:29Z</time>
      </trkpt>
      <trkpt lat="42.87544" lon="1.17444">
        <ele>691.6</ele>
        <time>2025-07-21T04:23:32Z</time>
      </trkpt>
      <trkpt lat="42.87543" lon="1.17437">
        <ele>692</ele>
        <time>2025-07-21T04:23:34Z</time>
      </trkpt>
      <trkpt lat="42.87546" lon="1.17423">
        <ele>692.8</ele>
        <time>2025-07-21T04:23:38Z</time>
      </trkpt>
      <trkpt lat="42.87548" lon="1.1741">
        <ele>693.6</ele>
        <time>2025-07-21T04:23:42Z</time>
      </trkpt>
      <trkpt lat="42.87549" lon="1.17403">
        <ele>693.8</ele>
        <time>2025-07-21T04:23:44Z</time>
      </trkpt>
      <trkpt lat="42.87552" lon="1.17381">
        <ele>694.8</ele>
        <time>2025-07-21T04:23:51Z</time>
      </trkpt>
      <trkpt lat="42.87552" lon="1.17378">
        <ele>695</ele>
        <time>2025-07-21T04:23:52Z</time>
      </trkpt>
      <trkpt lat="42.87552" lon="1.17355">
        <ele>696</ele>
        <time>2025-07-21T04:23:59Z</time>
      </trkpt>
      <trkpt lat="42.87553" lon="1.17339">
        <ele>697</ele>
        <time>2025-07-21T04:24:04Z</time>
      </trkpt>
      <trkpt lat="42.87561" lon="1.17329">
        <ele>697.6</ele>
        <time>2025-07-21T04:24:09Z</time>
      </trkpt>
      <trkpt lat="42.87564" lon="1.17329">
        <ele>697.8</ele>
        <time>2025-07-21T04:24:10Z</time>
      </trkpt>
      <trkpt lat="42.87566" lon="1.1733">
        <ele>698</ele>
        <time>2025-07-21T04:24:11Z</time>
      </trkpt>
      <trkpt lat="42.87569" lon="1.17334">
        <ele>698.4</ele>
        <time>2025-07-21T04:24:13Z</time>
      </trkpt>
      <trkpt lat="42.87572" lon="1.17346">
        <ele>699.2</ele>
        <time>2025-07-21T04:24:17Z</time>
      </trkpt>
      <trkpt lat="42.87571" lon="1.17356">
        <ele>699.4</ele>
        <time>2025-07-21T04:24:20Z</time>
      </trkpt>
      <trkpt lat="42.8757" lon="1.17374">
        <ele>700.2</ele>
        <time>2025-07-21T04:24:26Z</time>
      </trkpt>
      <trkpt lat="42.8757" lon="1.17386">
        <ele>700.8</ele>
        <time>2025-07-21T04:24:30Z</time>
      </trkpt>
      <trkpt lat="42.87569" lon="1.17391">
        <ele>701</ele>
        <time>2025-07-21T04:24:32Z</time>
      </trkpt>
      <trkpt lat="42.87568" lon="1.17405">
        <ele>701.6</ele>
        <time>2025-07-21T04:24:37Z</time>
      </trkpt>
      <trkpt lat="42.87567" lon="1.1742">
        <ele>702.2</ele>
        <time>2025-07-21T04:24:42Z</time>
      </trkpt>
      <trkpt lat="42.87567" lon="1.17434">
        <ele>703</ele>
        <time>2025-07-21T04:24:47Z</time>
      </trkpt>
      <trkpt lat="42.87567" lon="1.17437">
        <ele>703.4</ele>
        <time>2025-07-21T04:24:48Z</time>
      </trkpt>
      <trkpt lat="42.87568" lon="1.17456">
        <ele>704.2</ele>
        <time>2025-07-21T04:24:55Z</time>
      </trkpt>
      <trkpt lat="42.87569" lon="1.17461">
        <ele>704.8</ele>
        <time>2025-07-21T04:24:57Z</time>
      </trkpt>
      <trkpt lat="42.87572" lon="1.17474">
        <ele>705.4</ele>
        <time>2025-07-21T04:25:02Z</time>
      </trkpt>
      <trkpt lat="42.87573" lon="1.17479">
        <ele>705.6</ele>
        <time>2025-07-21T04:25:04Z</time>
      </trkpt>
      <trkpt lat="42.87576" lon="1.17493">
        <ele>706.6</ele>
        <time>2025-07-21T04:25:10Z</time>
      </trkpt>
      <trkpt lat="42.87576" lon="1.17495">
        <ele>706.6</ele>
        <time>2025-07-21T04:25:11Z</time>
      </trkpt>
      <trkpt lat="42.8758" lon="1.17512">
        <ele>707.8</ele>
        <time>2025-07-21T04:25:18Z</time>
      </trkpt>
      <trkpt lat="42.87581" lon="1.17521">
        <ele>708.2</ele>
        <time>2025-07-21T04:25:22Z</time>
      </trkpt>
      <trkpt lat="42.87583" lon="1.17531">
        <ele>708.6</ele>
        <time>2025-07-21T04:25:26Z</time>
      </trkpt>
      <trkpt lat="42.87585" lon="1.17538">
        <ele>708.8</ele>
        <time>2025-07-21T04:25:29Z</time>
      </trkpt>
      <trkpt lat="42.87587" lon="1.17548">
        <ele>709.8</ele>
        <time>2025-07-21T04:25:33Z</time>
      </trkpt>
      <trkpt lat="42.87591" lon="1.17556">
        <ele>710.2</ele>
        <time>2025-07-21T04:25:37Z</time>
      </trkpt>
      <trkpt lat="42.87596" lon="1.17564">
        <ele>711</ele>
        <time>2025-07-21T04:25:41Z</time>
      </trkpt>
      <trkpt lat="42.87601" lon="1.17569">
        <ele>711.4</ele>
        <time>2025-07-21T04:25:44Z</time>
      </trkpt>
      <trkpt lat="42.87609" lon="1.17577">
        <ele>712</ele>
        <time>2025-07-21T04:25:49Z</time>
      </trkpt>
      <trkpt lat="42.87618" lon="1.17584">
        <ele>712.6</ele>
        <time>2025-07-21T04:25:54Z</time>
      </trkpt>
      <trkpt lat="42.87624" lon="1.1759">
        <ele>713</ele>
        <time>2025-07-21T04:25:57Z</time>
      </trkpt>
      <trkpt lat="42.87631" lon="1.17596">
        <ele>713.4</ele>
        <time>2025-07-21T04:26:01Z</time>
      </trkpt>
      <trkpt lat="42.87639" lon="1.17603">
        <ele>714</ele>
        <time>2025-07-21T04:26:06Z</time>
      </trkpt>
      <trkpt lat="42.87642" lon="1.17604">
        <ele>714.4</ele>
        <time>2025-07-21T04:26:08Z</time>
      </trkpt>
      <trkpt lat="42.87644" lon="1.17604">
        <ele>714.4</ele>
        <time>2025-07-21T04:26:09Z</time>
      </trkpt>
      <trkpt lat="42.87651" lon="1.176">
        <ele>714.8</ele>
        <time>2025-07-21T04:26:13Z</time>
      </trkpt>
      <trkpt lat="42.87652" lon="1.17598">
        <ele>715</ele>
        <time>2025-07-21T04:26:14Z</time>
      </trkpt>
      <trkpt lat="42.87652" lon="1.17595">
        <ele>715</ele>
        <time>2025-07-21T04:26:15Z</time>
      </trkpt>
      <trkpt lat="42.8765" lon="1.17586">
        <ele>715.6</ele>
        <time>2025-07-21T04:26:19Z</time>
      </trkpt>
      <trkpt lat="42.87646" lon="1.1758">
        <ele>716.2</ele>
        <time>2025-07-21T04:26:22Z</time>
      </trkpt>
      <trkpt lat="42.87638" lon="1.1757">
        <ele>716.8</ele>
        <time>2025-07-21T04:26:27Z</time>
      </trkpt>
      <trkpt lat="42.87634" lon="1.17565">
        <ele>717.2</ele>
        <time>2025-07-21T04:26:30Z</time>
      </trkpt>
      <trkpt lat="42.87632" lon="1.17561">
        <ele>717.8</ele>
        <time>2025-07-21T04:26:33Z</time>
      </trkpt>
      <trkpt lat="42.8763" lon="1.17555">
        <ele>718.2</ele>
        <time>2025-07-21T04:26:36Z</time>
      </trkpt>
      <trkpt lat="42.8763" lon="1.17552">
        <ele>718.6</ele>
        <time>2025-07-21T04:26:37Z</time>
      </trkpt>
      <trkpt lat="42.87628" lon="1.17548">
        <ele>719</ele>
        <time>2025-07-21T04:26:39Z</time>
      </trkpt>
      <trkpt lat="42.87625" lon="1.17539">
        <ele>719.4</ele>
        <time>2025-07-21T04:26:43Z</time>
      </trkpt>
      <trkpt lat="42.87625" lon="1.17532">
        <ele>720</ele>
        <time>2025-07-21T04:26:46Z</time>
      </trkpt>
      <trkpt lat="42.87626" lon="1.17523">
        <ele>720.6</ele>
        <time>2025-07-21T04:26:50Z</time>
      </trkpt>
      <trkpt lat="42.87627" lon="1.17521">
        <ele>720.8</ele>
        <time>2025-07-21T04:26:51Z</time>
      </trkpt>
      <trkpt lat="42.87628" lon="1.17504">
        <ele>721.8</ele>
        <time>2025-07-21T04:26:56Z</time>
      </trkpt>
      <trkpt lat="42.8763" lon="1.17493">
        <ele>722.4</ele>
        <time>2025-07-21T04:27:00Z</time>
      </trkpt>
      <trkpt lat="42.87631" lon="1.17483">
        <ele>722.8</ele>
        <time>2025-07-21T04:27:04Z</time>
      </trkpt>
      <trkpt lat="42.87632" lon="1.17477">
        <ele>723.2</ele>
        <time>2025-07-21T04:27:06Z</time>
      </trkpt>
      <trkpt lat="42.87635" lon="1.17465">
        <ele>723.8</ele>
        <time>2025-07-21T04:27:11Z</time>
      </trkpt>
      <trkpt lat="42.87637" lon="1.17457">
        <ele>724.2</ele>
        <time>2025-07-21T04:27:14Z</time>
      </trkpt>
      <trkpt lat="42.87638" lon="1.17447">
        <ele>725</ele>
        <time>2025-07-21T04:27:18Z</time>
      </trkpt>
      <trkpt lat="42.8764" lon="1.17436">
        <ele>725.4</ele>
        <time>2025-07-21T04:27:22Z</time>
      </trkpt>
      <trkpt lat="42.87641" lon="1.17428">
        <ele>726</ele>
        <time>2025-07-21T04:27:25Z</time>
      </trkpt>
      <trkpt lat="42.87644" lon="1.1741">
        <ele>727</ele>
        <time>2025-07-21T04:27:32Z</time>
      </trkpt>
      <trkpt lat="42.87644" lon="1.17407">
        <ele>727.2</ele>
        <time>2025-07-21T04:27:33Z</time>
      </trkpt>
      <trkpt lat="42.87647" lon="1.17386">
        <ele>728</ele>
        <time>2025-07-21T04:27:41Z</time>
      </trkpt>
      <trkpt lat="42.87649" lon="1.17365">
        <ele>729.2</ele>
        <time>2025-07-21T04:27:49Z</time>
      </trkpt>
      <trkpt lat="42.87649" lon="1.17363">
        <ele>729.4</ele>
        <time>2025-07-21T04:27:50Z</time>
      </trkpt>
      <trkpt lat="42.8765" lon="1.17349">
        <ele>730.2</ele>
        <time>2025-07-21T04:27:55Z</time>
      </trkpt>
      <trkpt lat="42.87652" lon="1.17334">
        <ele>731.4</ele>
        <time>2025-07-21T04:28:01Z</time>
      </trkpt>
      <trkpt lat="42.87654" lon="1.17314">
        <ele>732.4</ele>
        <time>2025-07-21T04:28:08Z</time>
      </trkpt>
      <trkpt lat="42.87655" lon="1.1731">
        <ele>732.8</ele>
        <time>2025-07-21T04:28:10Z</time>
      </trkpt>
      <trkpt lat="42.87657" lon="1.17298">
        <ele>733.6</ele>
        <time>2025-07-21T04:28:15Z</time>
      </trkpt>
      <trkpt lat="42.87657" lon="1.17292">
        <ele>733.8</ele>
        <time>2025-07-21T04:28:17Z</time>
      </trkpt>
      <trkpt lat="42.87659" lon="1.17279">
        <ele>734.6</ele>
        <time>2025-07-21T04:28:22Z</time>
      </trkpt>
      <trkpt lat="42.87659" lon="1.17271">
        <ele>735</ele>
        <time>2025-07-21T04:28:25Z</time>
      </trkpt>
      <trkpt lat="42.8766" lon="1.1726">
        <ele>735.6</ele>
        <time>2025-07-21T04:28:29Z</time>
      </trkpt>
      <trkpt lat="42.87661" lon="1.17249">
        <ele>736.4</ele>
        <time>2025-07-21T04:28:33Z</time>
      </trkpt>
      <trkpt lat="42.87661" lon="1.17241">
        <ele>736.8</ele>
        <time>2025-07-21T04:28:36Z</time>
      </trkpt>
      <trkpt lat="42.87661" lon="1.17221">
        <ele>738</ele>
        <time>2025-07-21T04:28:43Z</time>
      </trkpt>
      <trkpt lat="42.87659" lon="1.17202">
        <ele>739</ele>
        <time>2025-07-21T04:28:50Z</time>
      </trkpt>
      <trkpt lat="42.87658" lon="1.17197">
        <ele>739.4</ele>
        <time>2025-07-21T04:28:52Z</time>
      </trkpt>
      <trkpt lat="42.87656" lon="1.17181">
        <ele>740.2</ele>
        <time>2025-07-21T04:28:58Z</time>
      </trkpt>
      <trkpt lat="42.87655" lon="1.17177">
        <ele>740.4</ele>
        <time>2025-07-21T04:29:00Z</time>
      </trkpt>
      <trkpt lat="42.87652" lon="1.17163">
        <ele>741.4</ele>
        <time>2025-07-21T04:29:06Z</time>
      </trkpt>
      <trkpt lat="42.87651" lon="1.17155">
        <ele>741.8</ele>
        <time>2025-07-21T04:29:09Z</time>
      </trkpt>
      <trkpt lat="42.87649" lon="1.17143">
        <ele>742.4</ele>
        <time>2025-07-21T04:29:14Z</time>
      </trkpt>
      <trkpt lat="42.87647" lon="1.17135">
        <ele>743.2</ele>
        <time>2025-07-21T04:29:17Z</time>
      </trkpt>
      <trkpt lat="42.87646" lon="1.17125">
        <ele>743.4</ele>
        <time>2025-07-21T04:29:21Z</time>
      </trkpt>
      <trkpt lat="42.87645" lon="1.17116">
        <ele>744.2</ele>
        <time>2025-07-21T04:29:24Z</time>
      </trkpt>
      <trkpt lat="42.87646" lon="1.17106">
        <ele>744.6</ele>
        <time>2025-07-21T04:29:27Z</time>
      </trkpt>
      <trkpt lat="42.87646" lon="1.17098">
        <ele>744.8</ele>
        <time>2025-07-21T04:29:30Z</time>
      </trkpt>
      <trkpt lat="42.87647" lon="1.17084">
        <ele>745.6</ele>
        <time>2025-07-21T04:29:35Z</time>
      </trkpt>
      <trkpt lat="42.87648" lon="1.17069">
        <ele>746.2</ele>
        <time>2025-07-21T04:29:40Z</time>
      </trkpt>
      <trkpt lat="42.87648" lon="1.17059">
        <ele>746.8</ele>
        <time>2025-07-21T04:29:43Z</time>
      </trkpt>
      <trkpt lat="42.87651" lon="1.17049">
        <ele>747.2</ele>
        <time>2025-07-21T04:29:47Z</time>
      </trkpt>
      <trkpt lat="42.87652" lon="1.17039">
        <ele>747.8</ele>
        <time>2025-07-21T04:29:51Z</time>
      </trkpt>
      <trkpt lat="42.87654" lon="1.17032">
        <ele>748.6</ele>
        <time>2025-07-21T04:29:54Z</time>
      </trkpt>
      <trkpt lat="42.87657" lon="1.17025">
        <ele>748.8</ele>
        <time>2025-07-21T04:29:57Z</time>
      </trkpt>
      <trkpt lat="42.87658" lon="1.17023">
        <ele>749.4</ele>
        <time>2025-07-21T04:29:58Z</time>
      </trkpt>
      <trkpt lat="42.87659" lon="1.17018">
        <ele>749.4</ele>
        <time>2025-07-21T04:30:00Z</time>
      </trkpt>
      <trkpt lat="42.87665" lon="1.17003">
        <ele>750.4</ele>
        <time>2025-07-21T04:30:06Z</time>
      </trkpt>
      <trkpt lat="42.87666" lon="1.16997">
        <ele>750.8</ele>
        <time>2025-07-21T04:30:08Z</time>
      </trkpt>
      <trkpt lat="42.8767" lon="1.16986">
        <ele>751.4</ele>
        <time>2025-07-21T04:30:13Z</time>
      </trkpt>
      <trkpt lat="42.87673" lon="1.16973">
        <ele>752.2</ele>
        <time>2025-07-21T04:30:18Z</time>
      </trkpt>
      <trkpt lat="42.87675" lon="1.16963">
        <ele>752.6</ele>
        <time>2025-07-21T04:30:22Z</time>
      </trkpt>
      <trkpt lat="42.87677" lon="1.16959">
        <ele>752.8</ele>
        <time>2025-07-21T04:30:24Z</time>
      </trkpt>
      <trkpt lat="42.87677" lon="1.16947">
        <ele>753.6</ele>
        <time>2025-07-21T04:30:29Z</time>
      </trkpt>
      <trkpt lat="42.87678" lon="1.16941">
        <ele>753.8</ele>
        <time>2025-07-21T04:30:31Z</time>
      </trkpt>
      <trkpt lat="42.87677" lon="1.1693">
        <ele>754.8</ele>
        <time>2025-07-21T04:30:35Z</time>
      </trkpt>
      <trkpt lat="42.87675" lon="1.16913">
        <ele>755.6</ele>
        <time>2025-07-21T04:30:41Z</time>
      </trkpt>
      <trkpt lat="42.87674" lon="1.16908">
        <ele>755.8</ele>
        <time>2025-07-21T04:30:43Z</time>
      </trkpt>
      <trkpt lat="42.87671" lon="1.16895">
        <ele>756.8</ele>
        <time>2025-07-21T04:30:48Z</time>
      </trkpt>
      <trkpt lat="42.87668" lon="1.1689">
        <ele>757.2</ele>
        <time>2025-07-21T04:30:50Z</time>
      </trkpt>
      <trkpt lat="42.8766" lon="1.16878">
        <ele>758</ele>
        <time>2025-07-21T04:30:56Z</time>
      </trkpt>
      <trkpt lat="42.87659" lon="1.16877">
        <ele>758.2</ele>
        <time>2025-07-21T04:30:57Z</time>
      </trkpt>
      <trkpt lat="42.87652" lon="1.1687">
        <ele>759</ele>
        <time>2025-07-21T04:31:02Z</time>
      </trkpt>
      <trkpt lat="42.8765" lon="1.16868">
        <ele>759.2</ele>
        <time>2025-07-21T04:31:03Z</time>
      </trkpt>
      <trkpt lat="42.87642" lon="1.1686">
        <ele>760.2</ele>
        <time>2025-07-21T04:31:08Z</time>
      </trkpt>
      <trkpt lat="42.87638" lon="1.16853">
        <ele>760.4</ele>
        <time>2025-07-21T04:31:11Z</time>
      </trkpt>
      <trkpt lat="42.87634" lon="1.16843">
        <ele>761.2</ele>
        <time>2025-07-21T04:31:15Z</time>
      </trkpt>
      <trkpt lat="42.87632" lon="1.16836">
        <ele>761.8</ele>
        <time>2025-07-21T04:31:18Z</time>
      </trkpt>
      <trkpt lat="42.87629" lon="1.16828">
        <ele>762.4</ele>
        <time>2025-07-21T04:31:21Z</time>
      </trkpt>
      <trkpt lat="42.87625" lon="1.16813">
        <ele>763.2</ele>
        <time>2025-07-21T04:31:27Z</time>
      </trkpt>
      <trkpt lat="42.87625" lon="1.16808">
        <ele>763.4</ele>
        <time>2025-07-21T04:31:29Z</time>
      </trkpt>
      <trkpt lat="42.87624" lon="1.16792">
        <ele>764.6</ele>
        <time>2025-07-21T04:31:35Z</time>
      </trkpt>
      <trkpt lat="42.87624" lon="1.16789">
        <ele>764.8</ele>
        <time>2025-07-21T04:31:36Z</time>
      </trkpt>
      <trkpt lat="42.87626" lon="1.16776">
        <ele>765.6</ele>
        <time>2025-07-21T04:31:41Z</time>
      </trkpt>
      <trkpt lat="42.87629" lon="1.16767">
        <ele>766.2</ele>
        <time>2025-07-21T04:31:45Z</time>
      </trkpt>
      <trkpt lat="42.87632" lon="1.1676">
        <ele>766.8</ele>
        <time>2025-07-21T04:31:48Z</time>
      </trkpt>
      <trkpt lat="42.87636" lon="1.16754">
        <ele>767.2</ele>
        <time>2025-07-21T04:31:51Z</time>
      </trkpt>
      <trkpt lat="42.87641" lon="1.16747">
        <ele>768</ele>
        <time>2025-07-21T04:31:55Z</time>
      </trkpt>
      <trkpt lat="42.87647" lon="1.1674">
        <ele>768.4</ele>
        <time>2025-07-21T04:31:59Z</time>
      </trkpt>
      <trkpt lat="42.87656" lon="1.16734">
        <ele>769</ele>
        <time>2025-07-21T04:32:04Z</time>
      </trkpt>
      <trkpt lat="42.87659" lon="1.1673">
        <ele>769.2</ele>
        <time>2025-07-21T04:32:06Z</time>
      </trkpt>
      <trkpt lat="42.87668" lon="1.16723">
        <ele>770</ele>
        <time>2025-07-21T04:32:11Z</time>
      </trkpt>
      <trkpt lat="42.87673" lon="1.16719">
        <ele>770.4</ele>
        <time>2025-07-21T04:32:14Z</time>
      </trkpt>
      <trkpt lat="42.87682" lon="1.1671">
        <ele>771.2</ele>
        <time>2025-07-21T04:32:20Z</time>
      </trkpt>
      <trkpt lat="42.87688" lon="1.16703">
        <ele>771.8</ele>
        <time>2025-07-21T04:32:24Z</time>
      </trkpt>
      <trkpt lat="42.87693" lon="1.16697">
        <ele>772.2</ele>
        <time>2025-07-21T04:32:27Z</time>
      </trkpt>
      <trkpt lat="42.877" lon="1.16687">
        <ele>773</ele>
        <time>2025-07-21T04:32:32Z</time>
      </trkpt>
      <trkpt lat="42.87703" lon="1.16684">
        <ele>773.4</ele>
        <time>2025-07-21T04:32:34Z</time>
      </trkpt>
      <trkpt lat="42.8771" lon="1.16671">
        <ele>774.2</ele>
        <time>2025-07-21T04:32:40Z</time>
      </trkpt>
      <trkpt lat="42.87711" lon="1.16669">
        <ele>774.4</ele>
        <time>2025-07-21T04:32:41Z</time>
      </trkpt>
      <trkpt lat="42.87717" lon="1.16652">
        <ele>775.2</ele>
        <time>2025-07-21T04:32:48Z</time>
      </trkpt>
      <trkpt lat="42.87719" lon="1.16647">
        <ele>775.4</ele>
        <time>2025-07-21T04:32:50Z</time>
      </trkpt>
      <trkpt lat="42.87719" lon="1.16626">
        <ele>776.4</ele>
        <time>2025-07-21T04:32:57Z</time>
      </trkpt>
      <trkpt lat="42.87719" lon="1.16624">
        <ele>776.4</ele>
        <time>2025-07-21T04:32:58Z</time>
      </trkpt>
      <trkpt lat="42.87715" lon="1.16608">
        <ele>777.2</ele>
        <time>2025-07-21T04:33:04Z</time>
      </trkpt>
      <trkpt lat="42.87715" lon="1.16606">
        <ele>777.6</ele>
        <time>2025-07-21T04:33:05Z</time>
      </trkpt>
      <trkpt lat="42.87709" lon="1.1659">
        <ele>778.6</ele>
        <time>2025-07-21T04:33:11Z</time>
      </trkpt>
      <trkpt lat="42.87706" lon="1.16583">
        <ele>779.2</ele>
        <time>2025-07-21T04:33:14Z</time>
      </trkpt>
      <trkpt lat="42.87702" lon="1.16573">
        <ele>779.8</ele>
        <time>2025-07-21T04:33:18Z</time>
      </trkpt>
      <trkpt lat="42.877" lon="1.16561">
        <ele>780.6</ele>
        <time>2025-07-21T04:33:23Z</time>
      </trkpt>
      <trkpt lat="42.87699" lon="1.16555">
        <ele>781</ele>
        <time>2025-07-21T04:33:25Z</time>
      </trkpt>
      <trkpt lat="42.87702" lon="1.1654">
        <ele>781.8</ele>
        <time>2025-07-21T04:33:31Z</time>
      </trkpt>
      <trkpt lat="42.87702" lon="1.16537">
        <ele>782</ele>
        <time>2025-07-21T04:33:32Z</time>
      </trkpt>
      <trkpt lat="42.87707" lon="1.16521">
        <ele>783.2</ele>
        <time>2025-07-21T04:33:39Z</time>
      </trkpt>
      <trkpt lat="42.8771" lon="1.16503">
        <ele>784.2</ele>
        <time>2025-07-21T04:33:46Z</time>
      </trkpt>
      <trkpt lat="42.87715" lon="1.16489">
        <ele>785.2</ele>
        <time>2025-07-21T04:33:52Z</time>
      </trkpt>
      <trkpt lat="42.87716" lon="1.16485">
        <ele>785.2</ele>
        <time>2025-07-21T04:33:54Z</time>
      </trkpt>
      <trkpt lat="42.8772" lon="1.16464">
        <ele>786.2</ele>
        <time>2025-07-21T04:34:02Z</time>
      </trkpt>
      <trkpt lat="42.8772" lon="1.16461">
        <ele>786.4</ele>
        <time>2025-07-21T04:34:03Z</time>
      </trkpt>
      <trkpt lat="42.87713" lon="1.16444">
        <ele>787</ele>
        <time>2025-07-21T04:34:09Z</time>
      </trkpt>
      <trkpt lat="42.87703" lon="1.16434">
        <ele>787.6</ele>
        <time>2025-07-21T04:34:15Z</time>
      </trkpt>
      <trkpt lat="42.87697" lon="1.16429">
        <ele>788</ele>
        <time>2025-07-21T04:34:18Z</time>
      </trkpt>
      <trkpt lat="42.87687" lon="1.16422">
        <ele>788.8</ele>
        <time>2025-07-21T04:34:23Z</time>
      </trkpt>
      <trkpt lat="42.87683" lon="1.16419">
        <ele>788.8</ele>
        <time>2025-07-21T04:34:25Z</time>
      </trkpt>
      <trkpt lat="42.87675" lon="1.16411">
        <ele>789.6</ele>
        <time>2025-07-21T04:34:30Z</time>
      </trkpt>
      <trkpt lat="42.87668" lon="1.16406">
        <ele>790.2</ele>
        <time>2025-07-21T04:34:34Z</time>
      </trkpt>
      <trkpt lat="42.87663" lon="1.16402">
        <ele>790.6</ele>
        <time>2025-07-21T04:34:37Z</time>
      </trkpt>
      <trkpt lat="42.87654" lon="1.16394">
        <ele>791.8</ele>
        <time>2025-07-21T04:34:42Z</time>
      </trkpt>
      <trkpt lat="42.87653" lon="1.16392">
        <ele>791.8</ele>
        <time>2025-07-21T04:34:43Z</time>
      </trkpt>
      <trkpt lat="42.87646" lon="1.16383">
        <ele>792.8</ele>
        <time>2025-07-21T04:34:48Z</time>
      </trkpt>
      <trkpt lat="42.87641" lon="1.16377">
        <ele>793.2</ele>
        <time>2025-07-21T04:34:51Z</time>
      </trkpt>
      <trkpt lat="42.87636" lon="1.16366">
        <ele>794</ele>
        <time>2025-07-21T04:34:56Z</time>
      </trkpt>
      <trkpt lat="42.87632" lon="1.16355">
        <ele>794.8</ele>
        <time>2025-07-21T04:35:00Z</time>
      </trkpt>
      <trkpt lat="42.8763" lon="1.1635">
        <ele>795</ele>
        <time>2025-07-21T04:35:02Z</time>
      </trkpt>
      <trkpt lat="42.87626" lon="1.16337">
        <ele>796</ele>
        <time>2025-07-21T04:35:08Z</time>
      </trkpt>
      <trkpt lat="42.87625" lon="1.16334">
        <ele>796.2</ele>
        <time>2025-07-21T04:35:09Z</time>
      </trkpt>
      <trkpt lat="42.8762" lon="1.16317">
        <ele>797.2</ele>
        <time>2025-07-21T04:35:16Z</time>
      </trkpt>
      <trkpt lat="42.87619" lon="1.16315">
        <ele>797.4</ele>
        <time>2025-07-21T04:35:17Z</time>
      </trkpt>
      <trkpt lat="42.87615" lon="1.16301">
        <ele>798.4</ele>
        <time>2025-07-21T04:35:23Z</time>
      </trkpt>
      <trkpt lat="42.87614" lon="1.16298">
        <ele>798.6</ele>
        <time>2025-07-21T04:35:24Z</time>
      </trkpt>
      <trkpt lat="42.87609" lon="1.16282">
        <ele>799.6</ele>
        <time>2025-07-21T04:35:31Z</time>
      </trkpt>
      <trkpt lat="42.87607" lon="1.16276">
        <ele>799.8</ele>
        <time>2025-07-21T04:35:33Z</time>
      </trkpt>
      <trkpt lat="42.87605" lon="1.1626">
        <ele>800.6</ele>
        <time>2025-07-21T04:35:39Z</time>
      </trkpt>
      <trkpt lat="42.87606" lon="1.16255">
        <ele>800.8</ele>
        <time>2025-07-21T04:35:41Z</time>
      </trkpt>
      <trkpt lat="42.87605" lon="1.1624">
        <ele>801.6</ele>
        <time>2025-07-21T04:35:47Z</time>
      </trkpt>
      <trkpt lat="42.87603" lon="1.16231">
        <ele>802.4</ele>
        <time>2025-07-21T04:35:51Z</time>
      </trkpt>
      <trkpt lat="42.87602" lon="1.16225">
        <ele>802.6</ele>
        <time>2025-07-21T04:35:53Z</time>
      </trkpt>
      <trkpt lat="42.87598" lon="1.1621">
        <ele>803.6</ele>
        <time>2025-07-21T04:35:59Z</time>
      </trkpt>
      <trkpt lat="42.87595" lon="1.16206">
        <ele>803.8</ele>
        <time>2025-07-21T04:36:01Z</time>
      </trkpt>
      <trkpt lat="42.87587" lon="1.16198">
        <ele>805</ele>
        <time>2025-07-21T04:36:06Z</time>
      </trkpt>
      <trkpt lat="42.87586" lon="1.16197">
        <ele>805.2</ele>
        <time>2025-07-21T04:36:07Z</time>
      </trkpt>
      <trkpt lat="42.87578" lon="1.16192">
        <ele>806</ele>
        <time>2025-07-21T04:36:12Z</time>
      </trkpt>
      <trkpt lat="42.87575" lon="1.16191">
        <ele>806.2</ele>
        <time>2025-07-21T04:36:14Z</time>
      </trkpt>
      <trkpt lat="42.87566" lon="1.16188">
        <ele>807</ele>
        <time>2025-07-21T04:36:19Z</time>
      </trkpt>
      <trkpt lat="42.87565" lon="1.16187">
        <ele>807.2</ele>
        <time>2025-07-21T04:36:20Z</time>
      </trkpt>
      <trkpt lat="42.87556" lon="1.16183">
        <ele>808.2</ele>
        <time>2025-07-21T04:36:25Z</time>
      </trkpt>
      <trkpt lat="42.87553" lon="1.16183">
        <ele>808</ele>
        <time>2025-07-21T04:36:26Z</time>
      </trkpt>
      <trkpt lat="42.87541" lon="1.16178">
        <ele>809</ele>
        <time>2025-07-21T04:36:32Z</time>
      </trkpt>
      <trkpt lat="42.8754" lon="1.16178">
        <ele>809.2</ele>
        <time>2025-07-21T04:36:33Z</time>
      </trkpt>
      <trkpt lat="42.8753" lon="1.16177">
        <ele>810</ele>
        <time>2025-07-21T04:36:38Z</time>
      </trkpt>
      <trkpt lat="42.87528" lon="1.16176">
        <ele>810.2</ele>
        <time>2025-07-21T04:36:39Z</time>
      </trkpt>
      <trkpt lat="42.87516" lon="1.16177">
        <ele>811.2</ele>
        <time>2025-07-21T04:36:45Z</time>
      </trkpt>
      <trkpt lat="42.87512" lon="1.16179">
        <ele>811.6</ele>
        <time>2025-07-21T04:36:47Z</time>
      </trkpt>
      <trkpt lat="42.87505" lon="1.16185">
        <ele>812.4</ele>
        <time>2025-07-21T04:36:52Z</time>
      </trkpt>
      <trkpt lat="42.87503" lon="1.16186">
        <ele>812.4</ele>
        <time>2025-07-21T04:36:53Z</time>
      </trkpt>
      <trkpt lat="42.87491" lon="1.16195">
        <ele>813.2</ele>
        <time>2025-07-21T04:37:00Z</time>
      </trkpt>
      <trkpt lat="42.87484" lon="1.16199">
        <ele>813.8</ele>
        <time>2025-07-21T04:37:04Z</time>
      </trkpt>
      <trkpt lat="42.8748" lon="1.162">
        <ele>814.2</ele>
        <time>2025-07-21T04:37:06Z</time>
      </trkpt>
      <trkpt lat="42.87469" lon="1.16199">
        <ele>815</ele>
        <time>2025-07-21T04:37:11Z</time>
      </trkpt>
      <trkpt lat="42.87465" lon="1.16198">
        <ele>815.2</ele>
        <time>2025-07-21T04:37:13Z</time>
      </trkpt>
      <trkpt lat="42.87455" lon="1.16194">
        <ele>816</ele>
        <time>2025-07-21T04:37:18Z</time>
      </trkpt>
      <trkpt lat="42.8745" lon="1.16192">
        <ele>816.6</ele>
        <time>2025-07-21T04:37:21Z</time>
      </trkpt>
      <trkpt lat="42.87444" lon="1.1619">
        <ele>817.2</ele>
        <time>2025-07-21T04:37:24Z</time>
      </trkpt>
      <trkpt lat="42.87439" lon="1.16187">
        <ele>817.6</ele>
        <time>2025-07-21T04:37:27Z</time>
      </trkpt>
      <trkpt lat="42.87429" lon="1.16179">
        <ele>818.6</ele>
        <time>2025-07-21T04:37:33Z</time>
      </trkpt>
      <trkpt lat="42.87419" lon="1.16167">
        <ele>819.4</ele>
        <time>2025-07-21T04:37:40Z</time>
      </trkpt>
      <trkpt lat="42.87418" lon="1.16165">
        <ele>819.6</ele>
        <time>2025-07-21T04:37:41Z</time>
      </trkpt>
      <trkpt lat="42.87408" lon="1.16152">
        <ele>820.6</ele>
        <time>2025-07-21T04:37:48Z</time>
      </trkpt>
      <trkpt lat="42.87407" lon="1.1615">
        <ele>820.8</ele>
        <time>2025-07-21T04:37:49Z</time>
      </trkpt>
      <trkpt lat="42.87398" lon="1.16135">
        <ele>821.6</ele>
        <time>2025-07-21T04:37:56Z</time>
      </trkpt>
      <trkpt lat="42.87395" lon="1.16132">
        <ele>822</ele>
        <time>2025-07-21T04:37:58Z</time>
      </trkpt>
      <trkpt lat="42.87387" lon="1.16123">
        <ele>822.8</ele>
        <time>2025-07-21T04:38:03Z</time>
      </trkpt>
      <trkpt lat="42.87383" lon="1.16118">
        <ele>823</ele>
        <time>2025-07-21T04:38:06Z</time>
      </trkpt>
      <trkpt lat="42.87376" lon="1.16114">
        <ele>823.8</ele>
        <time>2025-07-21T04:38:10Z</time>
      </trkpt>
      <trkpt lat="42.87369" lon="1.16112">
        <ele>824.4</ele>
        <time>2025-07-21T04:38:14Z</time>
      </trkpt>
      <trkpt lat="42.87363" lon="1.16115">
        <ele>824.8</ele>
        <time>2025-07-21T04:38:17Z</time>
      </trkpt>
      <trkpt lat="42.87357" lon="1.1612">
        <ele>825.2</ele>
        <time>2025-07-21T04:38:20Z</time>
      </trkpt>
      <trkpt lat="42.87351" lon="1.16131">
        <ele>826</ele>
        <time>2025-07-21T04:38:25Z</time>
      </trkpt>
      <trkpt lat="42.87349" lon="1.16136">
        <ele>826.2</ele>
        <time>2025-07-21T04:38:27Z</time>
      </trkpt>
      <trkpt lat="42.87349" lon="1.16138">
        <ele>826.4</ele>
        <time>2025-07-21T04:38:28Z</time>
      </trkpt>
      <trkpt lat="42.87344" lon="1.16147">
        <ele>827</ele>
        <time>2025-07-21T04:38:32Z</time>
      </trkpt>
      <trkpt lat="42.87333" lon="1.16161">
        <ele>827.6</ele>
        <time>2025-07-21T04:38:39Z</time>
      </trkpt>
      <trkpt lat="42.87331" lon="1.16164">
        <ele>828</ele>
        <time>2025-07-21T04:38:41Z</time>
      </trkpt>
      <trkpt lat="42.87326" lon="1.16172">
        <ele>828.6</ele>
        <time>2025-07-21T04:38:45Z</time>
      </trkpt>
      <trkpt lat="42.87319" lon="1.16177">
        <ele>829.2</ele>
        <time>2025-07-21T04:38:49Z</time>
      </trkpt>
      <trkpt lat="42.87314" lon="1.1618">
        <ele>829.6</ele>
        <time>2025-07-21T04:38:52Z</time>
      </trkpt>
      <trkpt lat="42.87308" lon="1.16187">
        <ele>830.4</ele>
        <time>2025-07-21T04:38:56Z</time>
      </trkpt>
      <trkpt lat="42.87305" lon="1.16191">
        <ele>830.8</ele>
        <time>2025-07-21T04:38:58Z</time>
      </trkpt>
      <trkpt lat="42.87298" lon="1.16198">
        <ele>831</ele>
        <time>2025-07-21T04:39:02Z</time>
      </trkpt>
      <trkpt lat="42.87297" lon="1.162">
        <ele>831.2</ele>
        <time>2025-07-21T04:39:03Z</time>
      </trkpt>
      <trkpt lat="42.87295" lon="1.16202">
        <ele>831.4</ele>
        <time>2025-07-21T04:39:04Z</time>
      </trkpt>
      <trkpt lat="42.87285" lon="1.16218">
        <ele>832.4</ele>
        <time>2025-07-21T04:39:11Z</time>
      </trkpt>
      <trkpt lat="42.8727" lon="1.16231">
        <ele>833.4</ele>
        <time>2025-07-21T04:39:18Z</time>
      </trkpt>
      <trkpt lat="42.87265" lon="1.16234">
        <ele>833.8</ele>
        <time>2025-07-21T04:39:21Z</time>
      </trkpt>
      <trkpt lat="42.87253" lon="1.16237">
        <ele>834.8</ele>
        <time>2025-07-21T04:39:27Z</time>
      </trkpt>
      <trkpt lat="42.87251" lon="1.16236">
        <ele>834.6</ele>
        <time>2025-07-21T04:39:28Z</time>
      </trkpt>
      <trkpt lat="42.87238" lon="1.1623">
        <ele>835.6</ele>
        <time>2025-07-21T04:39:35Z</time>
      </trkpt>
      <trkpt lat="42.87236" lon="1.16229">
        <ele>835.8</ele>
        <time>2025-07-21T04:39:36Z</time>
      </trkpt>
      <trkpt lat="42.8722" lon="1.16225">
        <ele>837</ele>
        <time>2025-07-21T04:39:44Z</time>
      </trkpt>
      <trkpt lat="42.87203" lon="1.16226">
        <ele>838</ele>
        <time>2025-07-21T04:39:52Z</time>
      </trkpt>
      <trkpt lat="42.87187" lon="1.16226">
        <ele>839</ele>
        <time>2025-07-21T04:40:00Z</time>
      </trkpt>
      <trkpt lat="42.87173" lon="1.16229">
        <ele>840</ele>
        <time>2025-07-21T04:40:07Z</time>
      </trkpt>
      <trkpt lat="42.87168" lon="1.1623">
        <ele>840.4</ele>
        <time>2025-07-21T04:40:09Z</time>
      </trkpt>
      <trkpt lat="42.87159" lon="1.16227">
        <ele>840.8</ele>
        <time>2025-07-21T04:40:13Z</time>
      </trkpt>
      <trkpt lat="42.87155" lon="1.16226">
        <ele>841.2</ele>
        <time>2025-07-21T04:40:15Z</time>
      </trkpt>
      <trkpt lat="42.87153" lon="1.16225">
        <ele>841.2</ele>
        <time>2025-07-21T04:40:16Z</time>
      </trkpt>
      <trkpt lat="42.87143" lon="1.16219">
        <ele>842</ele>
        <time>2025-07-21T04:40:21Z</time>
      </trkpt>
      <trkpt lat="42.87142" lon="1.16217">
        <ele>842</ele>
        <time>2025-07-21T04:40:22Z</time>
      </trkpt>
      <trkpt lat="42.87134" lon="1.16207">
        <ele>842.6</ele>
        <time>2025-07-21T04:40:27Z</time>
      </trkpt>
      <trkpt lat="42.87131" lon="1.16203">
        <ele>843</ele>
        <time>2025-07-21T04:40:29Z</time>
      </trkpt>
      <trkpt lat="42.87122" lon="1.16186">
        <ele>844.2</ele>
        <time>2025-07-21T04:40:36Z</time>
      </trkpt>
      <trkpt lat="42.87118" lon="1.16178">
        <ele>844.6</ele>
        <time>2025-07-21T04:40:40Z</time>
      </trkpt>
      <trkpt lat="42.87115" lon="1.16175">
        <ele>844.8</ele>
        <time>2025-07-21T04:40:42Z</time>
      </trkpt>
      <trkpt lat="42.87111" lon="1.16168">
        <ele>845</ele>
        <time>2025-07-21T04:40:45Z</time>
      </trkpt>
      <trkpt lat="42.87109" lon="1.16167">
        <ele>845.2</ele>
        <time>2025-07-21T04:40:46Z</time>
      </trkpt>
      <trkpt lat="42.87107" lon="1.16165">
        <ele>845.4</ele>
        <time>2025-07-21T04:40:48Z</time>
      </trkpt>
      <trkpt lat="42.87104" lon="1.16164">
        <ele>845.4</ele>
        <time>2025-07-21T04:40:49Z</time>
      </trkpt>
      <trkpt lat="42.87096" lon="1.1616">
        <ele>846</ele>
        <time>2025-07-21T04:40:53Z</time>
      </trkpt>
      <trkpt lat="42.87095" lon="1.16159">
        <ele>846.2</ele>
        <time>2025-07-21T04:40:54Z</time>
      </trkpt>
      <trkpt lat="42.87093" lon="1.16159">
        <ele>846.4</ele>
        <time>2025-07-21T04:40:55Z</time>
      </trkpt>
      <trkpt lat="42.87086" lon="1.1616">
        <ele>846.8</ele>
        <time>2025-07-21T04:40:58Z</time>
      </trkpt>
      <trkpt lat="42.87082" lon="1.16161">
        <ele>847.2</ele>
        <time>2025-07-21T04:41:00Z</time>
      </trkpt>
      <trkpt lat="42.87081" lon="1.16163">
        <ele>847.2</ele>
        <time>2025-07-21T04:41:01Z</time>
      </trkpt>
      <trkpt lat="42.87072" lon="1.16178">
        <ele>847.8</ele>
        <time>2025-07-21T04:41:07Z</time>
      </trkpt>
      <trkpt lat="42.87069" lon="1.16186">
        <ele>848.2</ele>
        <time>2025-07-21T04:41:10Z</time>
      </trkpt>
      <trkpt lat="42.87069" lon="1.16193">
        <ele>848.4</ele>
        <time>2025-07-21T04:41:13Z</time>
      </trkpt>
      <trkpt lat="42.87067" lon="1.16209">
        <ele>849</ele>
        <time>2025-07-21T04:41:19Z</time>
      </trkpt>
      <trkpt lat="42.87068" lon="1.16215">
        <ele>849.4</ele>
        <time>2025-07-21T04:41:21Z</time>
      </trkpt>
      <trkpt lat="42.8707" lon="1.16229">
        <ele>850</ele>
        <time>2025-07-21T04:41:26Z</time>
      </trkpt>
      <trkpt lat="42.87069" lon="1.16232">
        <ele>850.2</ele>
        <time>2025-07-21T04:41:27Z</time>
      </trkpt>
      <trkpt lat="42.87068" lon="1.16249">
        <ele>851</ele>
        <time>2025-07-21T04:41:32Z</time>
      </trkpt>
      <trkpt lat="42.87067" lon="1.16256">
        <ele>851.4</ele>
        <time>2025-07-21T04:41:34Z</time>
      </trkpt>
      <trkpt lat="42.87065" lon="1.16272">
        <ele>851.8</ele>
        <time>2025-07-21T04:41:39Z</time>
      </trkpt>
      <trkpt lat="42.87062" lon="1.16279">
        <ele>852.2</ele>
        <time>2025-07-21T04:41:41Z</time>
      </trkpt>
      <trkpt lat="42.87056" lon="1.16296">
        <ele>853</ele>
        <time>2025-07-21T04:41:46Z</time>
      </trkpt>
      <trkpt lat="42.87055" lon="1.16302">
        <ele>853.2</ele>
        <time>2025-07-21T04:41:48Z</time>
      </trkpt>
      <trkpt lat="42.87051" lon="1.16311">
        <ele>853.8</ele>
        <time>2025-07-21T04:41:52Z</time>
      </trkpt>
      <trkpt lat="42.8705" lon="1.16314">
        <ele>853.8</ele>
        <time>2025-07-21T04:41:53Z</time>
      </trkpt>
      <trkpt lat="42.87049" lon="1.16317">
        <ele>854</ele>
        <time>2025-07-21T04:41:54Z</time>
      </trkpt>
      <trkpt lat="42.87039" lon="1.16328">
        <ele>854.8</ele>
        <time>2025-07-21T04:41:59Z</time>
      </trkpt>
      <trkpt lat="42.87031" lon="1.16335">
        <ele>855.2</ele>
        <time>2025-07-21T04:42:03Z</time>
      </trkpt>
      <trkpt lat="42.87023" lon="1.1634">
        <ele>855.8</ele>
        <time>2025-07-21T04:42:07Z</time>
      </trkpt>
      <trkpt lat="42.87019" lon="1.16342">
        <ele>856.2</ele>
        <time>2025-07-21T04:42:09Z</time>
      </trkpt>
      <trkpt lat="42.87007" lon="1.16347">
        <ele>857.2</ele>
        <time>2025-07-21T04:42:14Z</time>
      </trkpt>
      <trkpt lat="42.87003" lon="1.1635">
        <ele>857.8</ele>
        <time>2025-07-21T04:42:16Z</time>
      </trkpt>
      <trkpt lat="42.86996" lon="1.16355">
        <ele>858.4</ele>
        <time>2025-07-21T04:42:20Z</time>
      </trkpt>
      <trkpt lat="42.86993" lon="1.16356">
        <ele>858.8</ele>
        <time>2025-07-21T04:42:22Z</time>
      </trkpt>
      <trkpt lat="42.86988" lon="1.1636">
        <ele>859.4</ele>
        <time>2025-07-21T04:42:25Z</time>
      </trkpt>
      <trkpt lat="42.86979" lon="1.16366">
        <ele>860.2</ele>
        <time>2025-07-21T04:42:30Z</time>
      </trkpt>
      <trkpt lat="42.86968" lon="1.16372">
        <ele>861</ele>
        <time>2025-07-21T04:42:37Z</time>
      </trkpt>
      <trkpt lat="42.86966" lon="1.16373">
        <ele>861.4</ele>
        <time>2025-07-21T04:42:38Z</time>
      </trkpt>
      <trkpt lat="42.86957" lon="1.16381">
        <ele>862</ele>
        <time>2025-07-21T04:42:43Z</time>
      </trkpt>
      <trkpt lat="42.86953" lon="1.16384">
        <ele>862.4</ele>
        <time>2025-07-21T04:42:45Z</time>
      </trkpt>
      <trkpt lat="42.86946" lon="1.16387">
        <ele>863.2</ele>
        <time>2025-07-21T04:42:49Z</time>
      </trkpt>
      <trkpt lat="42.86942" lon="1.16389">
        <ele>863.4</ele>
        <time>2025-07-21T04:42:51Z</time>
      </trkpt>
      <trkpt lat="42.86932" lon="1.16393">
        <ele>864.6</ele>
        <time>2025-07-21T04:42:57Z</time>
      </trkpt>
      <trkpt lat="42.86927" lon="1.16396">
        <ele>865</ele>
        <time>2025-07-21T04:43:00Z</time>
      </trkpt>
      <trkpt lat="42.86919" lon="1.16399">
        <ele>865.8</ele>
        <time>2025-07-21T04:43:04Z</time>
      </trkpt>
      <trkpt lat="42.86915" lon="1.16401">
        <ele>866</ele>
        <time>2025-07-21T04:43:06Z</time>
      </trkpt>
      <trkpt lat="42.8691" lon="1.16403">
        <ele>866.8</ele>
        <time>2025-07-21T04:43:09Z</time>
      </trkpt>
      <trkpt lat="42.86901" lon="1.16408">
        <ele>867.4</ele>
        <time>2025-07-21T04:43:14Z</time>
      </trkpt>
      <trkpt lat="42.86896" lon="1.1641">
        <ele>868</ele>
        <time>2025-07-21T04:43:17Z</time>
      </trkpt>
      <trkpt lat="42.86883" lon="1.16416">
        <ele>869</ele>
        <time>2025-07-21T04:43:24Z</time>
      </trkpt>
      <trkpt lat="42.86874" lon="1.16419">
        <ele>870</ele>
        <time>2025-07-21T04:43:29Z</time>
      </trkpt>
      <trkpt lat="42.86863" lon="1.16423">
        <ele>871</ele>
        <time>2025-07-21T04:43:35Z</time>
      </trkpt>
      <trkpt lat="42.86861" lon="1.16424">
        <ele>871.2</ele>
        <time>2025-07-21T04:43:36Z</time>
      </trkpt>
      <trkpt lat="42.86852" lon="1.16427">
        <ele>871.8</ele>
        <time>2025-07-21T04:43:42Z</time>
      </trkpt>
      <trkpt lat="42.86847" lon="1.16427">
        <ele>872.4</ele>
        <time>2025-07-21T04:43:45Z</time>
      </trkpt>
      <trkpt lat="42.86841" lon="1.16429">
        <ele>873</ele>
        <time>2025-07-21T04:43:48Z</time>
      </trkpt>
      <trkpt lat="42.86837" lon="1.16429">
        <ele>873.2</ele>
        <time>2025-07-21T04:43:50Z</time>
      </trkpt>
      <trkpt lat="42.86834" lon="1.1643">
        <ele>873.4</ele>
        <time>2025-07-21T04:43:52Z</time>
      </trkpt>
      <trkpt lat="42.86833" lon="1.16431">
        <ele>873.6</ele>
        <time>2025-07-21T04:43:53Z</time>
      </trkpt>
      <trkpt lat="42.86823" lon="1.16436">
        <ele>874.6</ele>
        <time>2025-07-21T04:43:58Z</time>
      </trkpt>
      <trkpt lat="42.8682" lon="1.16437">
        <ele>874.8</ele>
        <time>2025-07-21T04:43:59Z</time>
      </trkpt>
      <trkpt lat="42.86818" lon="1.16438">
        <ele>875</ele>
        <time>2025-07-21T04:44:00Z</time>
      </trkpt>
      <trkpt lat="42.86805" lon="1.16441">
        <ele>875.6</ele>
        <time>2025-07-21T04:44:06Z</time>
      </trkpt>
      <trkpt lat="42.86804" lon="1.16441">
        <ele>875.8</ele>
        <time>2025-07-21T04:44:07Z</time>
      </trkpt>
      <trkpt lat="42.86795" lon="1.16441">
        <ele>876.8</ele>
        <time>2025-07-21T04:44:12Z</time>
      </trkpt>
      <trkpt lat="42.86793" lon="1.16441">
        <ele>876.8</ele>
        <time>2025-07-21T04:44:13Z</time>
      </trkpt>
      <trkpt lat="42.86788" lon="1.16443">
        <ele>877.4</ele>
        <time>2025-07-21T04:44:16Z</time>
      </trkpt>
      <trkpt lat="42.86785" lon="1.16443">
        <ele>877.8</ele>
        <time>2025-07-21T04:44:18Z</time>
      </trkpt>
      <trkpt lat="42.86784" lon="1.16443">
        <ele>877.8</ele>
        <time>2025-07-21T04:44:19Z</time>
      </trkpt>
      <trkpt lat="42.86778" lon="1.16444">
        <ele>878.6</ele>
        <time>2025-07-21T04:44:23Z</time>
      </trkpt>
      <trkpt lat="42.86777" lon="1.16445">
        <ele>879</ele>
        <time>2025-07-21T04:44:24Z</time>
      </trkpt>
      <trkpt lat="42.86767" lon="1.16453">
        <ele>880</ele>
        <time>2025-07-21T04:44:30Z</time>
      </trkpt>
      <trkpt lat="42.86765" lon="1.16455">
        <ele>880</ele>
        <time>2025-07-21T04:44:31Z</time>
      </trkpt>
      <trkpt lat="42.86755" lon="1.16462">
        <ele>880.6</ele>
        <time>2025-07-21T04:44:36Z</time>
      </trkpt>
      <trkpt lat="42.86752" lon="1.16463">
        <ele>881</ele>
        <time>2025-07-21T04:44:37Z</time>
      </trkpt>
      <trkpt lat="42.86742" lon="1.16461">
        <ele>881.8</ele>
        <time>2025-07-21T04:44:42Z</time>
      </trkpt>
      <trkpt lat="42.8674" lon="1.1646">
        <ele>881.8</ele>
        <time>2025-07-21T04:44:43Z</time>
      </trkpt>
      <trkpt lat="42.86738" lon="1.16458">
        <ele>882</ele>
        <time>2025-07-21T04:44:44Z</time>
      </trkpt>
      <trkpt lat="42.86738" lon="1.16455">
        <ele>882.2</ele>
        <time>2025-07-21T04:44:45Z</time>
      </trkpt>
      <trkpt lat="42.86738" lon="1.16452">
        <ele>882.4</ele>
        <time>2025-07-21T04:44:46Z</time>
      </trkpt>
      <trkpt lat="42.86749" lon="1.16441">
        <ele>883</ele>
        <time>2025-07-21T04:44:51Z</time>
      </trkpt>
      <trkpt lat="42.86751" lon="1.1644">
        <ele>883.2</ele>
        <time>2025-07-21T04:44:52Z</time>
      </trkpt>
      <trkpt lat="42.86766" lon="1.16432">
        <ele>884</ele>
        <time>2025-07-21T04:44:59Z</time>
      </trkpt>
      <trkpt lat="42.86771" lon="1.16428">
        <ele>884.4</ele>
        <time>2025-07-21T04:45:02Z</time>
      </trkpt>
      <trkpt lat="42.86781" lon="1.1642">
        <ele>885.2</ele>
        <time>2025-07-21T04:45:08Z</time>
      </trkpt>
      <trkpt lat="42.86783" lon="1.16418">
        <ele>885.4</ele>
        <time>2025-07-21T04:45:09Z</time>
      </trkpt>
      <trkpt lat="42.86795" lon="1.16411">
        <ele>886.6</ele>
        <time>2025-07-21T04:45:16Z</time>
      </trkpt>
      <trkpt lat="42.86806" lon="1.16403">
        <ele>887.8</ele>
        <time>2025-07-21T04:45:23Z</time>
      </trkpt>
      <trkpt lat="42.86809" lon="1.16401">
        <ele>888.2</ele>
        <time>2025-07-21T04:45:25Z</time>
      </trkpt>
      <trkpt lat="42.86815" lon="1.16395">
        <ele>889</ele>
        <time>2025-07-21T04:45:29Z</time>
      </trkpt>
      <trkpt lat="42.8682" lon="1.1639">
        <ele>889.4</ele>
        <time>2025-07-21T04:45:32Z</time>
      </trkpt>
      <trkpt lat="42.86823" lon="1.16388">
        <ele>889.8</ele>
        <time>2025-07-21T04:45:34Z</time>
      </trkpt>
      <trkpt lat="42.86832" lon="1.1638">
        <ele>890.4</ele>
        <time>2025-07-21T04:45:39Z</time>
      </trkpt>
      <trkpt lat="42.86838" lon="1.16375">
        <ele>891</ele>
        <time>2025-07-21T04:45:43Z</time>
      </trkpt>
      <trkpt lat="42.86841" lon="1.16371">
        <ele>891.2</ele>
        <time>2025-07-21T04:45:45Z</time>
      </trkpt>
      <trkpt lat="42.86849" lon="1.16363">
        <ele>892.2</ele>
        <time>2025-07-21T04:45:50Z</time>
      </trkpt>
      <trkpt lat="42.86852" lon="1.1636">
        <ele>892.4</ele>
        <time>2025-07-21T04:45:52Z</time>
      </trkpt>
      <trkpt lat="42.86861" lon="1.1635">
        <ele>893.2</ele>
        <time>2025-07-21T04:45:58Z</time>
      </trkpt>
      <trkpt lat="42.86863" lon="1.16348">
        <ele>893.6</ele>
        <time>2025-07-21T04:45:59Z</time>
      </trkpt>
      <trkpt lat="42.86867" lon="1.16343">
        <ele>894.2</ele>
        <time>2025-07-21T04:46:02Z</time>
      </trkpt>
      <trkpt lat="42.86874" lon="1.16336">
        <ele>895</ele>
        <time>2025-07-21T04:46:07Z</time>
      </trkpt>
      <trkpt lat="42.86877" lon="1.16332">
        <ele>895.4</ele>
        <time>2025-07-21T04:46:09Z</time>
      </trkpt>
      <trkpt lat="42.86884" lon="1.16324">
        <ele>896.4</ele>
        <time>2025-07-21T04:46:14Z</time>
      </trkpt>
      <trkpt lat="42.86885" lon="1.16322">
        <ele>896.6</ele>
        <time>2025-07-21T04:46:15Z</time>
      </trkpt>
      <trkpt lat="42.86895" lon="1.16309">
        <ele>897.8</ele>
        <time>2025-07-21T04:46:22Z</time>
      </trkpt>
      <trkpt lat="42.86902" lon="1.16296">
        <ele>898.2</ele>
        <time>2025-07-21T04:46:28Z</time>
      </trkpt>
      <trkpt lat="42.86903" lon="1.16294">
        <ele>898.4</ele>
        <time>2025-07-21T04:46:29Z</time>
      </trkpt>
      <trkpt lat="42.86905" lon="1.16289">
        <ele>898.8</ele>
        <time>2025-07-21T04:46:31Z</time>
      </trkpt>
      <trkpt lat="42.86906" lon="1.16287">
        <ele>899</ele>
        <time>2025-07-21T04:46:32Z</time>
      </trkpt>
      <trkpt lat="42.8691" lon="1.1628">
        <ele>899.4</ele>
        <time>2025-07-21T04:46:35Z</time>
      </trkpt>
      <trkpt lat="42.86911" lon="1.16275">
        <ele>899.8</ele>
        <time>2025-07-21T04:46:37Z</time>
      </trkpt>
      <trkpt lat="42.86916" lon="1.16262">
        <ele>900.6</ele>
        <time>2025-07-21T04:46:43Z</time>
      </trkpt>
      <trkpt lat="42.86919" lon="1.16257">
        <ele>900.8</ele>
        <time>2025-07-21T04:46:45Z</time>
      </trkpt>
      <trkpt lat="42.86922" lon="1.16249">
        <ele>901.6</ele>
        <time>2025-07-21T04:46:49Z</time>
      </trkpt>
      <trkpt lat="42.86924" lon="1.16244">
        <ele>902</ele>
        <time>2025-07-21T04:46:51Z</time>
      </trkpt>
      <trkpt lat="42.86927" lon="1.16234">
        <ele>903</ele>
        <time>2025-07-21T04:46:56Z</time>
      </trkpt>
      <trkpt lat="42.86927" lon="1.16219">
        <ele>903.6</ele>
        <time>2025-07-21T04:47:02Z</time>
      </trkpt>
      <trkpt lat="42.86927" lon="1.16214">
        <ele>904</ele>
        <time>2025-07-21T04:47:04Z</time>
      </trkpt>
      <trkpt lat="42.86926" lon="1.16211">
        <ele>904.2</ele>
        <time>2025-07-21T04:47:05Z</time>
      </trkpt>
      <trkpt lat="42.86925" lon="1.16204">
        <ele>904.8</ele>
        <time>2025-07-21T04:47:08Z</time>
      </trkpt>
      <trkpt lat="42.86925" lon="1.16201">
        <ele>905</ele>
        <time>2025-07-21T04:47:09Z</time>
      </trkpt>
      <trkpt lat="42.86925" lon="1.16186">
        <ele>905.6</ele>
        <time>2025-07-21T04:47:14Z</time>
      </trkpt>
      <trkpt lat="42.86927" lon="1.1618">
        <ele>906</ele>
        <time>2025-07-21T04:47:16Z</time>
      </trkpt>
      <trkpt lat="42.86926" lon="1.16167">
        <ele>906.8</ele>
        <time>2025-07-21T04:47:20Z</time>
      </trkpt>
      <trkpt lat="42.86927" lon="1.16162">
        <ele>907</ele>
        <time>2025-07-21T04:47:22Z</time>
      </trkpt>
      <trkpt lat="42.86923" lon="1.16145">
        <ele>908</ele>
        <time>2025-07-21T04:47:29Z</time>
      </trkpt>
      <trkpt lat="42.86914" lon="1.16137">
        <ele>909</ele>
        <time>2025-07-21T04:47:35Z</time>
      </trkpt>
      <trkpt lat="42.86911" lon="1.16138">
        <ele>909.2</ele>
        <time>2025-07-21T04:47:37Z</time>
      </trkpt>
      <trkpt lat="42.86907" lon="1.16144">
        <ele>909.6</ele>
        <time>2025-07-21T04:47:40Z</time>
      </trkpt>
      <trkpt lat="42.86907" lon="1.16157">
        <ele>910.4</ele>
        <time>2025-07-21T04:47:45Z</time>
      </trkpt>
      <trkpt lat="42.86907" lon="1.1616">
        <ele>910.6</ele>
        <time>2025-07-21T04:47:46Z</time>
      </trkpt>
      <trkpt lat="42.8691" lon="1.16185">
        <ele>911.4</ele>
        <time>2025-07-21T04:47:54Z</time>
      </trkpt>
      <trkpt lat="42.86904" lon="1.16206">
        <ele>912.4</ele>
        <time>2025-07-21T04:48:02Z</time>
      </trkpt>
      <trkpt lat="42.86898" lon="1.16216">
        <ele>913</ele>
        <time>2025-07-21T04:48:07Z</time>
      </trkpt>
      <trkpt lat="42.86897" lon="1.16218">
        <ele>913.2</ele>
        <time>2025-07-21T04:48:08Z</time>
      </trkpt>
      <trkpt lat="42.86891" lon="1.16225">
        <ele>913.8</ele>
        <time>2025-07-21T04:48:13Z</time>
      </trkpt>
      <trkpt lat="42.86887" lon="1.1623">
        <ele>914.4</ele>
        <time>2025-07-21T04:48:16Z</time>
      </trkpt>
      <trkpt lat="42.86884" lon="1.16233">
        <ele>915</ele>
        <time>2025-07-21T04:48:18Z</time>
      </trkpt>
      <trkpt lat="42.86883" lon="1.16234">
        <ele>915.2</ele>
        <time>2025-07-21T04:48:19Z</time>
      </trkpt>
      <trkpt lat="42.86881" lon="1.16236">
        <ele>915.6</ele>
        <time>2025-07-21T04:48:21Z</time>
      </trkpt>
      <trkpt lat="42.86879" lon="1.16238">
        <ele>915.8</ele>
        <time>2025-07-21T04:48:24Z</time>
      </trkpt>
      <trkpt lat="42.86877" lon="1.16239">
        <ele>915.8</ele>
        <time>2025-07-21T04:48:25Z</time>
      </trkpt>
      <trkpt lat="42.86872" lon="1.16243">
        <ele>916.6</ele>
        <time>2025-07-21T04:48:29Z</time>
      </trkpt>
      <trkpt lat="42.8687" lon="1.16245">
        <ele>917</ele>
        <time>2025-07-21T04:48:31Z</time>
      </trkpt>
      <trkpt lat="42.86868" lon="1.16248">
        <ele>917</ele>
        <time>2025-07-21T04:48:32Z</time>
      </trkpt>
      <trkpt lat="42.86865" lon="1.16253">
        <ele>917.4</ele>
        <time>2025-07-21T04:48:34Z</time>
      </trkpt>
      <trkpt lat="42.86863" lon="1.16255">
        <ele>917.8</ele>
        <time>2025-07-21T04:48:36Z</time>
      </trkpt>
      <trkpt lat="42.86857" lon="1.16258">
        <ele>918.6</ele>
        <time>2025-07-21T04:48:40Z</time>
      </trkpt>
      <trkpt lat="42.86855" lon="1.16258">
        <ele>918.8</ele>
        <time>2025-07-21T04:48:41Z</time>
      </trkpt>
      <trkpt lat="42.86851" lon="1.16261">
        <ele>919.2</ele>
        <time>2025-07-21T04:48:43Z</time>
      </trkpt>
      <trkpt lat="42.86848" lon="1.16264">
        <ele>919.6</ele>
        <time>2025-07-21T04:48:45Z</time>
      </trkpt>
      <trkpt lat="42.86843" lon="1.16268">
        <ele>919.6</ele>
        <time>2025-07-21T04:48:47Z</time>
      </trkpt>
      <trkpt lat="42.86841" lon="1.16269">
        <ele>919.8</ele>
        <time>2025-07-21T04:48:48Z</time>
      </trkpt>
      <trkpt lat="42.86832" lon="1.16282">
        <ele>920.8</ele>
        <time>2025-07-21T04:48:53Z</time>
      </trkpt>
      <trkpt lat="42.86829" lon="1.16284">
        <ele>921</ele>
        <time>2025-07-21T04:48:55Z</time>
      </trkpt>
      <trkpt lat="42.86828" lon="1.16288">
        <ele>921.4</ele>
        <time>2025-07-21T04:48:57Z</time>
      </trkpt>
      <trkpt lat="42.86821" lon="1.16292">
        <ele>922</ele>
        <time>2025-07-21T04:49:01Z</time>
      </trkpt>
      <trkpt lat="42.86816" lon="1.16295">
        <ele>922.4</ele>
        <time>2025-07-21T04:49:04Z</time>
      </trkpt>
      <trkpt lat="42.86809" lon="1.16299">
        <ele>923.2</ele>
        <time>2025-07-21T04:49:08Z</time>
      </trkpt>
      <trkpt lat="42.86801" lon="1.16302">
        <ele>923.8</ele>
        <time>2025-07-21T04:49:12Z</time>
      </trkpt>
      <trkpt lat="42.868" lon="1.16303">
        <ele>924</ele>
        <time>2025-07-21T04:49:13Z</time>
      </trkpt>
      <trkpt lat="42.86798" lon="1.16304">
        <ele>924.2</ele>
        <time>2025-07-21T04:49:14Z</time>
      </trkpt>
      <trkpt lat="42.86791" lon="1.16309">
        <ele>924.8</ele>
        <time>2025-07-21T04:49:18Z</time>
      </trkpt>
      <trkpt lat="42.86784" lon="1.16312">
        <ele>925.2</ele>
        <time>2025-07-21T04:49:22Z</time>
      </trkpt>
      <trkpt lat="42.86776" lon="1.16317">
        <ele>926</ele>
        <time>2025-07-21T04:49:27Z</time>
      </trkpt>
      <trkpt lat="42.86772" lon="1.16318">
        <ele>926.2</ele>
        <time>2025-07-21T04:49:29Z</time>
      </trkpt>
      <trkpt lat="42.86761" lon="1.16323">
        <ele>926.8</ele>
        <time>2025-07-21T04:49:35Z</time>
      </trkpt>
      <trkpt lat="42.86756" lon="1.16326">
        <ele>927</ele>
        <time>2025-07-21T04:49:38Z</time>
      </trkpt>
      <trkpt lat="42.86747" lon="1.1633">
        <ele>927.8</ele>
        <time>2025-07-21T04:49:43Z</time>
      </trkpt>
      <trkpt lat="42.86746" lon="1.1633">
        <ele>928</ele>
        <time>2025-07-21T04:49:44Z</time>
      </trkpt>
      <trkpt lat="42.86743" lon="1.16333">
        <ele>928.4</ele>
        <time>2025-07-21T04:49:46Z</time>
      </trkpt>
      <trkpt lat="42.86738" lon="1.16336">
        <ele>929</ele>
        <time>2025-07-21T04:49:49Z</time>
      </trkpt>
      <trkpt lat="42.86735" lon="1.16338">
        <ele>929.2</ele>
        <time>2025-07-21T04:49:51Z</time>
      </trkpt>
      <trkpt lat="42.86725" lon="1.16345">
        <ele>930</ele>
        <time>2025-07-21T04:49:57Z</time>
      </trkpt>
      <trkpt lat="42.86723" lon="1.16347">
        <ele>930.2</ele>
        <time>2025-07-21T04:49:58Z</time>
      </trkpt>
      <trkpt lat="42.86716" lon="1.16352">
        <ele>931.4</ele>
        <time>2025-07-21T04:50:03Z</time>
      </trkpt>
      <trkpt lat="42.86715" lon="1.16352">
        <ele>931.6</ele>
        <time>2025-07-21T04:50:04Z</time>
      </trkpt>
      <trkpt lat="42.86705" lon="1.16359">
        <ele>932.6</ele>
        <time>2025-07-21T04:50:09Z</time>
      </trkpt>
      <trkpt lat="42.86703" lon="1.16361">
        <ele>932.8</ele>
        <time>2025-07-21T04:50:10Z</time>
      </trkpt>
      <trkpt lat="42.86697" lon="1.16365">
        <ele>933.8</ele>
        <time>2025-07-21T04:50:14Z</time>
      </trkpt>
      <trkpt lat="42.86694" lon="1.16368">
        <ele>934.2</ele>
        <time>2025-07-21T04:50:16Z</time>
      </trkpt>
      <trkpt lat="42.86688" lon="1.16372">
        <ele>934.8</ele>
        <time>2025-07-21T04:50:21Z</time>
      </trkpt>
      <trkpt lat="42.86686" lon="1.16373">
        <ele>935</ele>
        <time>2025-07-21T04:50:22Z</time>
      </trkpt>
      <trkpt lat="42.8668" lon="1.16374">
        <ele>935.8</ele>
        <time>2025-07-21T04:50:26Z</time>
      </trkpt>
      <trkpt lat="42.86674" lon="1.16378">
        <ele>936.6</ele>
        <time>2025-07-21T04:50:30Z</time>
      </trkpt>
      <trkpt lat="42.8667" lon="1.16381">
        <ele>936.6</ele>
        <time>2025-07-21T04:50:32Z</time>
      </trkpt>
      <trkpt lat="42.86666" lon="1.16385">
        <ele>937.2</ele>
        <time>2025-07-21T04:50:34Z</time>
      </trkpt>
      <trkpt lat="42.86663" lon="1.16386">
        <ele>937.6</ele>
        <time>2025-07-21T04:50:36Z</time>
      </trkpt>
      <trkpt lat="42.86662" lon="1.16388">
        <ele>937.8</ele>
        <time>2025-07-21T04:50:37Z</time>
      </trkpt>
      <trkpt lat="42.86654" lon="1.16393">
        <ele>938.8</ele>
        <time>2025-07-21T04:50:41Z</time>
      </trkpt>
      <trkpt lat="42.86652" lon="1.16394">
        <ele>938.8</ele>
        <time>2025-07-21T04:50:42Z</time>
      </trkpt>
      <trkpt lat="42.86645" lon="1.16402">
        <ele>939.4</ele>
        <time>2025-07-21T04:50:47Z</time>
      </trkpt>
      <trkpt lat="42.8664" lon="1.16405">
        <ele>940</ele>
        <time>2025-07-21T04:50:50Z</time>
      </trkpt>
      <trkpt lat="42.86633" lon="1.16406">
        <ele>940.4</ele>
        <time>2025-07-21T04:50:54Z</time>
      </trkpt>
      <trkpt lat="42.86628" lon="1.16409">
        <ele>941.2</ele>
        <time>2025-07-21T04:50:57Z</time>
      </trkpt>
      <trkpt lat="42.86622" lon="1.16415">
        <ele>942.2</ele>
        <time>2025-07-21T04:51:02Z</time>
      </trkpt>
      <trkpt lat="42.86618" lon="1.16417">
        <ele>942.8</ele>
        <time>2025-07-21T04:51:05Z</time>
      </trkpt>
      <trkpt lat="42.86617" lon="1.16418">
        <ele>942.8</ele>
        <time>2025-07-21T04:51:06Z</time>
      </trkpt>
      <trkpt lat="42.86615" lon="1.1642">
        <ele>943.4</ele>
        <time>2025-07-21T04:51:08Z</time>
      </trkpt>
      <trkpt lat="42.86614" lon="1.16421">
        <ele>943.6</ele>
        <time>2025-07-21T04:51:09Z</time>
      </trkpt>
      <trkpt lat="42.86613" lon="1.16423">
        <ele>943.8</ele>
        <time>2025-07-21T04:51:10Z</time>
      </trkpt>
      <trkpt lat="42.86609" lon="1.16427">
        <ele>944.6</ele>
        <time>2025-07-21T04:51:14Z</time>
      </trkpt>
      <trkpt lat="42.86603" lon="1.16431">
        <ele>945.2</ele>
        <time>2025-07-21T04:51:18Z</time>
      </trkpt>
      <trkpt lat="42.86602" lon="1.16432">
        <ele>945.6</ele>
        <time>2025-07-21T04:51:19Z</time>
      </trkpt>
      <trkpt lat="42.86596" lon="1.16436">
        <ele>946</ele>
        <time>2025-07-21T04:51:22Z</time>
      </trkpt>
      <trkpt lat="42.86593" lon="1.16439">
        <ele>946.2</ele>
        <time>2025-07-21T04:51:24Z</time>
      </trkpt>
      <trkpt lat="42.86592" lon="1.16439">
        <ele>946.2</ele>
        <time>2025-07-21T04:51:25Z</time>
      </trkpt>
      <trkpt lat="42.8659" lon="1.1644">
        <ele>946.8</ele>
        <time>2025-07-21T04:51:26Z</time>
      </trkpt>
      <trkpt lat="42.86586" lon="1.16446">
        <ele>947.2</ele>
        <time>2025-07-21T04:51:30Z</time>
      </trkpt>
      <trkpt lat="42.86583" lon="1.16449">
        <ele>947.6</ele>
        <time>2025-07-21T04:51:32Z</time>
      </trkpt>
      <trkpt lat="42.86581" lon="1.1645">
        <ele>947.8</ele>
        <time>2025-07-21T04:51:33Z</time>
      </trkpt>
      <trkpt lat="42.86573" lon="1.16458">
        <ele>948.8</ele>
        <time>2025-07-21T04:51:38Z</time>
      </trkpt>
      <trkpt lat="42.8657" lon="1.16461">
        <ele>949.4</ele>
        <time>2025-07-21T04:51:40Z</time>
      </trkpt>
      <trkpt lat="42.86568" lon="1.16463">
        <ele>950</ele>
        <time>2025-07-21T04:51:43Z</time>
      </trkpt>
      <trkpt lat="42.86565" lon="1.16466">
        <ele>950.4</ele>
        <time>2025-07-21T04:51:45Z</time>
      </trkpt>
      <trkpt lat="42.86559" lon="1.1647">
        <ele>951.2</ele>
        <time>2025-07-21T04:51:49Z</time>
      </trkpt>
      <trkpt lat="42.86558" lon="1.16471">
        <ele>951.2</ele>
        <time>2025-07-21T04:51:50Z</time>
      </trkpt>
      <trkpt lat="42.86556" lon="1.16472">
        <ele>951.6</ele>
        <time>2025-07-21T04:51:51Z</time>
      </trkpt>
      <trkpt lat="42.86549" lon="1.16477">
        <ele>952.2</ele>
        <time>2025-07-21T04:51:55Z</time>
      </trkpt>
      <trkpt lat="42.86548" lon="1.16477">
        <ele>952.6</ele>
        <time>2025-07-21T04:51:56Z</time>
      </trkpt>
      <trkpt lat="42.86541" lon="1.1648">
        <ele>953.2</ele>
        <time>2025-07-21T04:52:00Z</time>
      </trkpt>
      <trkpt lat="42.86538" lon="1.1648">
        <ele>953.6</ele>
        <time>2025-07-21T04:52:02Z</time>
      </trkpt>
      <trkpt lat="42.86537" lon="1.16481">
        <ele>953.6</ele>
        <time>2025-07-21T04:52:03Z</time>
      </trkpt>
      <trkpt lat="42.86533" lon="1.16482">
        <ele>954</ele>
        <time>2025-07-21T04:52:06Z</time>
      </trkpt>
      <trkpt lat="42.86521" lon="1.16484">
        <ele>955.2</ele>
        <time>2025-07-21T04:52:13Z</time>
      </trkpt>
      <trkpt lat="42.86511" lon="1.16485">
        <ele>956.4</ele>
        <time>2025-07-21T04:52:19Z</time>
      </trkpt>
      <trkpt lat="42.86509" lon="1.16484">
        <ele>956.6</ele>
        <time>2025-07-21T04:52:20Z</time>
      </trkpt>
      <trkpt lat="42.86504" lon="1.16486">
        <ele>957.6</ele>
        <time>2025-07-21T04:52:23Z</time>
      </trkpt>
      <trkpt lat="42.865" lon="1.16487">
        <ele>958</ele>
        <time>2025-07-21T04:52:25Z</time>
      </trkpt>
      <trkpt lat="42.86491" lon="1.1649">
        <ele>958.6</ele>
        <time>2025-07-21T04:52:30Z</time>
      </trkpt>
      <trkpt lat="42.86486" lon="1.1649">
        <ele>959</ele>
        <time>2025-07-21T04:52:33Z</time>
      </trkpt>
      <trkpt lat="42.86479" lon="1.16492">
        <ele>959.6</ele>
        <time>2025-07-21T04:52:37Z</time>
      </trkpt>
      <trkpt lat="42.86471" lon="1.16493">
        <ele>960.6</ele>
        <time>2025-07-21T04:52:42Z</time>
      </trkpt>
      <trkpt lat="42.86467" lon="1.16493">
        <ele>960.8</ele>
        <time>2025-07-21T04:52:44Z</time>
      </trkpt>
      <trkpt lat="42.86456" lon="1.16495">
        <ele>961.8</ele>
        <time>2025-07-21T04:52:50Z</time>
      </trkpt>
      <trkpt lat="42.86455" lon="1.16495">
        <ele>962</ele>
        <time>2025-07-21T04:52:51Z</time>
      </trkpt>
      <trkpt lat="42.86444" lon="1.16494">
        <ele>963.2</ele>
        <time>2025-07-21T04:52:57Z</time>
      </trkpt>
      <trkpt lat="42.86442" lon="1.16494">
        <ele>963.2</ele>
        <time>2025-07-21T04:52:58Z</time>
      </trkpt>
      <trkpt lat="42.86431" lon="1.1649">
        <ele>964.4</ele>
        <time>2025-07-21T04:53:04Z</time>
      </trkpt>
      <trkpt lat="42.86428" lon="1.16489">
        <ele>964.8</ele>
        <time>2025-07-21T04:53:06Z</time>
      </trkpt>
      <trkpt lat="42.86419" lon="1.16481">
        <ele>965.6</ele>
        <time>2025-07-21T04:53:12Z</time>
      </trkpt>
      <trkpt lat="42.86417" lon="1.16479">
        <ele>966</ele>
        <time>2025-07-21T04:53:14Z</time>
      </trkpt>
      <trkpt lat="42.86411" lon="1.1647">
        <ele>966.8</ele>
        <time>2025-07-21T04:53:19Z</time>
      </trkpt>
      <trkpt lat="42.86407" lon="1.16464">
        <ele>967.2</ele>
        <time>2025-07-21T04:53:22Z</time>
      </trkpt>
      <trkpt lat="42.86405" lon="1.16459">
        <ele>968</ele>
        <time>2025-07-21T04:53:24Z</time>
      </trkpt>
      <trkpt lat="42.86401" lon="1.16452">
        <ele>968.4</ele>
        <time>2025-07-21T04:53:27Z</time>
      </trkpt>
      <trkpt lat="42.86395" lon="1.16446">
        <ele>969</ele>
        <time>2025-07-21T04:53:31Z</time>
      </trkpt>
      <trkpt lat="42.86394" lon="1.16442">
        <ele>969.6</ele>
        <time>2025-07-21T04:53:33Z</time>
      </trkpt>
      <trkpt lat="42.8639" lon="1.16437">
        <ele>970.2</ele>
        <time>2025-07-21T04:53:36Z</time>
      </trkpt>
      <trkpt lat="42.86385" lon="1.16427">
        <ele>971</ele>
        <time>2025-07-21T04:53:41Z</time>
      </trkpt>
      <trkpt lat="42.86383" lon="1.16423">
        <ele>971.4</ele>
        <time>2025-07-21T04:53:43Z</time>
      </trkpt>
      <trkpt lat="42.86377" lon="1.16408">
        <ele>972.4</ele>
        <time>2025-07-21T04:53:50Z</time>
      </trkpt>
      <trkpt lat="42.86376" lon="1.16407">
        <ele>972.8</ele>
        <time>2025-07-21T04:53:51Z</time>
      </trkpt>
      <trkpt lat="42.8637" lon="1.16392">
        <ele>973.8</ele>
        <time>2025-07-21T04:53:58Z</time>
      </trkpt>
      <trkpt lat="42.86365" lon="1.16378">
        <ele>975.2</ele>
        <time>2025-07-21T04:54:05Z</time>
      </trkpt>
      <trkpt lat="42.86363" lon="1.16373">
        <ele>975.2</ele>
        <time>2025-07-21T04:54:07Z</time>
      </trkpt>
      <trkpt lat="42.86357" lon="1.16361">
        <ele>976</ele>
        <time>2025-07-21T04:54:13Z</time>
      </trkpt>
      <trkpt lat="42.86356" lon="1.16359">
        <ele>976.6</ele>
        <time>2025-07-21T04:54:14Z</time>
      </trkpt>
      <trkpt lat="42.86352" lon="1.16348">
        <ele>977.2</ele>
        <time>2025-07-21T04:54:19Z</time>
      </trkpt>
      <trkpt lat="42.86347" lon="1.16337">
        <ele>978.2</ele>
        <time>2025-07-21T04:54:24Z</time>
      </trkpt>
      <trkpt lat="42.86347" lon="1.16335">
        <ele>978.2</ele>
        <time>2025-07-21T04:54:25Z</time>
      </trkpt>
      <trkpt lat="42.86345" lon="1.16322">
        <ele>978.8</ele>
        <time>2025-07-21T04:54:30Z</time>
      </trkpt>
      <trkpt lat="42.86344" lon="1.16311">
        <ele>979.2</ele>
        <time>2025-07-21T04:54:34Z</time>
      </trkpt>
      <trkpt lat="42.86342" lon="1.16297">
        <ele>980</ele>
        <time>2025-07-21T04:54:39Z</time>
      </trkpt>
      <trkpt lat="42.86339" lon="1.16281">
        <ele>980.2</ele>
        <time>2025-07-21T04:54:44Z</time>
      </trkpt>
      <trkpt lat="42.86337" lon="1.16275">
        <ele>980.4</ele>
        <time>2025-07-21T04:54:46Z</time>
      </trkpt>
      <trkpt lat="42.86328" lon="1.16268">
        <ele>980.6</ele>
        <time>2025-07-21T04:54:50Z</time>
      </trkpt>
      <trkpt lat="42.8631" lon="1.16274">
        <ele>980.8</ele>
        <time>2025-07-21T04:54:56Z</time>
      </trkpt>
      <trkpt lat="42.86282" lon="1.16291">
        <ele>981</ele>
        <time>2025-07-21T04:55:05Z</time>
      </trkpt>
      <trkpt lat="42.86269" lon="1.16297">
        <ele>981.2</ele>
        <time>2025-07-21T04:55:09Z</time>
      </trkpt>
      <trkpt lat="42.86259" lon="1.16301">
        <ele>981.2</ele>
        <time>2025-07-21T04:55:12Z</time>
      </trkpt>
      <trkpt lat="42.86223" lon="1.16304">
        <ele>981.8</ele>
        <time>2025-07-21T04:55:22Z</time>
      </trkpt>
      <trkpt lat="42.86198" lon="1.16301">
        <ele>982</ele>
        <time>2025-07-21T04:55:29Z</time>
      </trkpt>
      <trkpt lat="42.86195" lon="1.16301">
        <ele>982.2</ele>
        <time>2025-07-21T04:55:30Z</time>
      </trkpt>
      <trkpt lat="42.86177" lon="1.16295">
        <ele>982.2</ele>
        <time>2025-07-21T04:55:35Z</time>
      </trkpt>
      <trkpt lat="42.86156" lon="1.16286">
        <ele>982.2</ele>
        <time>2025-07-21T04:55:41Z</time>
      </trkpt>
      <trkpt lat="42.86141" lon="1.16272">
        <ele>982.4</ele>
        <time>2025-07-21T04:55:46Z</time>
      </trkpt>
      <trkpt lat="42.86124" lon="1.1626">
        <ele>982.8</ele>
        <time>2025-07-21T04:55:52Z</time>
      </trkpt>
      <trkpt lat="42.86115" lon="1.16259">
        <ele>983</ele>
        <time>2025-07-21T04:55:55Z</time>
      </trkpt>
      <trkpt lat="42.8611" lon="1.16261">
        <ele>983.2</ele>
        <time>2025-07-21T04:55:57Z</time>
      </trkpt>
      <trkpt lat="42.86098" lon="1.16269">
        <ele>984</ele>
        <time>2025-07-21T04:56:02Z</time>
      </trkpt>
      <trkpt lat="42.86094" lon="1.16272">
        <ele>984.4</ele>
        <time>2025-07-21T04:56:04Z</time>
      </trkpt>
      <trkpt lat="42.86088" lon="1.16276">
        <ele>985</ele>
        <time>2025-07-21T04:56:07Z</time>
      </trkpt>
      <trkpt lat="42.86077" lon="1.16281">
        <ele>986</ele>
        <time>2025-07-21T04:56:12Z</time>
      </trkpt>
      <trkpt lat="42.86075" lon="1.16282">
        <ele>986</ele>
        <time>2025-07-21T04:56:13Z</time>
      </trkpt>
      <trkpt lat="42.86061" lon="1.16284">
        <ele>986.8</ele>
        <time>2025-07-21T04:56:19Z</time>
      </trkpt>
      <trkpt lat="42.86059" lon="1.16285">
        <ele>987</ele>
        <time>2025-07-21T04:56:20Z</time>
      </trkpt>
      <trkpt lat="42.86044" lon="1.16284">
        <ele>988.2</ele>
        <time>2025-07-21T04:56:27Z</time>
      </trkpt>
      <trkpt lat="42.86033" lon="1.1627">
        <ele>989.8</ele>
        <time>2025-07-21T04:56:34Z</time>
      </trkpt>
      <trkpt lat="42.86032" lon="1.16267">
        <ele>990</ele>
        <time>2025-07-21T04:56:35Z</time>
      </trkpt>
      <trkpt lat="42.86029" lon="1.16255">
        <ele>990.8</ele>
        <time>2025-07-21T04:56:39Z</time>
      </trkpt>
      <trkpt lat="42.86029" lon="1.16249">
        <ele>991.4</ele>
        <time>2025-07-21T04:56:41Z</time>
      </trkpt>
      <trkpt lat="42.86029" lon="1.16237">
        <ele>992</ele>
        <time>2025-07-21T04:56:45Z</time>
      </trkpt>
      <trkpt lat="42.86028" lon="1.16228">
        <ele>992.4</ele>
        <time>2025-07-21T04:56:48Z</time>
      </trkpt>
      <trkpt lat="42.86027" lon="1.16214">
        <ele>993</ele>
        <time>2025-07-21T04:56:52Z</time>
      </trkpt>
      <trkpt lat="42.86026" lon="1.16198">
        <ele>993.8</ele>
        <time>2025-07-21T04:56:57Z</time>
      </trkpt>
      <trkpt lat="42.86026" lon="1.16194">
        <ele>994</ele>
        <time>2025-07-21T04:56:59Z</time>
      </trkpt>
      <trkpt lat="42.86025" lon="1.16192">
        <ele>994.4</ele>
        <time>2025-07-21T04:57:01Z</time>
      </trkpt>
      <trkpt lat="42.86024" lon="1.16191">
        <ele>994.8</ele>
        <time>2025-07-21T04:57:03Z</time>
      </trkpt>
      <trkpt lat="42.86023" lon="1.16187">
        <ele>994.8</ele>
        <time>2025-07-21T05:01:09Z</time>
      </trkpt>
      <trkpt lat="42.86023" lon="1.16184">
        <ele>994.8</ele>
        <time>2025-07-21T05:01:10Z</time>
      </trkpt>
      <trkpt lat="42.8602" lon="1.16171">
        <ele>995</ele>
        <time>2025-07-21T05:01:14Z</time>
      </trkpt>
      <trkpt lat="42.86017" lon="1.16162">
        <ele>995.4</ele>
        <time>2025-07-21T05:01:17Z</time>
      </trkpt>
      <trkpt lat="42.86015" lon="1.16147">
        <ele>996.2</ele>
        <time>2025-07-21T05:01:22Z</time>
      </trkpt>
      <trkpt lat="42.86015" lon="1.16144">
        <ele>996.4</ele>
        <time>2025-07-21T05:01:23Z</time>
      </trkpt>
      <trkpt lat="42.8601" lon="1.16121">
        <ele>997.6</ele>
        <time>2025-07-21T05:01:31Z</time>
      </trkpt>
      <trkpt lat="42.8601" lon="1.16118">
        <ele>997.8</ele>
        <time>2025-07-21T05:01:32Z</time>
      </trkpt>
      <trkpt lat="42.86007" lon="1.16103">
        <ele>998.4</ele>
        <time>2025-07-21T05:01:37Z</time>
      </trkpt>
      <trkpt lat="42.86006" lon="1.16092">
        <ele>999</ele>
        <time>2025-07-21T05:01:41Z</time>
      </trkpt>
      <trkpt lat="42.86004" lon="1.16083">
        <ele>999.4</ele>
        <time>2025-07-21T05:01:44Z</time>
      </trkpt>
      <trkpt lat="42.86" lon="1.16068">
        <ele>1000</ele>
        <time>2025-07-21T05:01:49Z</time>
      </trkpt>
      <trkpt lat="42.85998" lon="1.16056">
        <ele>1000.4</ele>
        <time>2025-07-21T05:01:53Z</time>
      </trkpt>
      <trkpt lat="42.85995" lon="1.16045">
        <ele>1001</ele>
        <time>2025-07-21T05:01:57Z</time>
      </trkpt>
      <trkpt lat="42.85993" lon="1.16037">
        <ele>1001.6</ele>
        <time>2025-07-21T05:02:00Z</time>
      </trkpt>
      <trkpt lat="42.85989" lon="1.16024">
        <ele>1002.4</ele>
        <time>2025-07-21T05:02:05Z</time>
      </trkpt>
      <trkpt lat="42.85987" lon="1.16019">
        <ele>1002.6</ele>
        <time>2025-07-21T05:02:07Z</time>
      </trkpt>
      <trkpt lat="42.85984" lon="1.16004">
        <ele>1003.6</ele>
        <time>2025-07-21T05:02:12Z</time>
      </trkpt>
      <trkpt lat="42.85978" lon="1.1598">
        <ele>1004.6</ele>
        <time>2025-07-21T05:02:20Z</time>
      </trkpt>
      <trkpt lat="42.85976" lon="1.15967">
        <ele>1005.4</ele>
        <time>2025-07-21T05:02:24Z</time>
      </trkpt>
      <trkpt lat="42.85974" lon="1.15957">
        <ele>1005.8</ele>
        <time>2025-07-21T05:02:27Z</time>
      </trkpt>
      <trkpt lat="42.85969" lon="1.15935">
        <ele>1006.6</ele>
        <time>2025-07-21T05:02:34Z</time>
      </trkpt>
      <trkpt lat="42.85967" lon="1.15928">
        <ele>1006.8</ele>
        <time>2025-07-21T05:02:36Z</time>
      </trkpt>
      <trkpt lat="42.85963" lon="1.1592">
        <ele>1007.4</ele>
        <time>2025-07-21T05:02:39Z</time>
      </trkpt>
      <trkpt lat="42.85952" lon="1.15907">
        <ele>1008</ele>
        <time>2025-07-21T05:02:44Z</time>
      </trkpt>
      <trkpt lat="42.85946" lon="1.15904">
        <ele>1008.2</ele>
        <time>2025-07-21T05:02:46Z</time>
      </trkpt>
      <trkpt lat="42.85921" lon="1.15899">
        <ele>1008.8</ele>
        <time>2025-07-21T05:02:54Z</time>
      </trkpt>
      <trkpt lat="42.85891" lon="1.15892">
        <ele>1009.4</ele>
        <time>2025-07-21T05:03:03Z</time>
      </trkpt>
      <trkpt lat="42.85874" lon="1.15874">
        <ele>1009.6</ele>
        <time>2025-07-21T05:03:09Z</time>
      </trkpt>
      <trkpt lat="42.85865" lon="1.15847">
        <ele>1009.8</ele>
        <time>2025-07-21T05:03:15Z</time>
      </trkpt>
      <trkpt lat="42.85864" lon="1.15817">
        <ele>1010.2</ele>
        <time>2025-07-21T05:03:21Z</time>
      </trkpt>
      <trkpt lat="42.85864" lon="1.15794">
        <ele>1010.8</ele>
        <time>2025-07-21T05:03:26Z</time>
      </trkpt>
      <trkpt lat="42.85865" lon="1.15784">
        <ele>1011</ele>
        <time>2025-07-21T05:03:28Z</time>
      </trkpt>
      <trkpt lat="42.85865" lon="1.15751">
        <ele>1011.8</ele>
        <time>2025-07-21T05:03:35Z</time>
      </trkpt>
      <trkpt lat="42.8586" lon="1.1573">
        <ele>1012.6</ele>
        <time>2025-07-21T05:03:40Z</time>
      </trkpt>
      <trkpt lat="42.85856" lon="1.15711">
        <ele>1013</ele>
        <time>2025-07-21T05:03:44Z</time>
      </trkpt>
      <trkpt lat="42.85848" lon="1.15685">
        <ele>1013.6</ele>
        <time>2025-07-21T05:03:50Z</time>
      </trkpt>
      <trkpt lat="42.85838" lon="1.15662">
        <ele>1014.2</ele>
        <time>2025-07-21T05:03:55Z</time>
      </trkpt>
      <trkpt lat="42.85831" lon="1.1565">
        <ele>1014.4</ele>
        <time>2025-07-21T05:03:58Z</time>
      </trkpt>
      <trkpt lat="42.85821" lon="1.15624">
        <ele>1015.2</ele>
        <time>2025-07-21T05:04:04Z</time>
      </trkpt>
      <trkpt lat="42.85818" lon="1.15615">
        <ele>1015.6</ele>
        <time>2025-07-21T05:04:06Z</time>
      </trkpt>
      <trkpt lat="42.85807" lon="1.15576">
        <ele>1016.4</ele>
        <time>2025-07-21T05:04:15Z</time>
      </trkpt>
      <trkpt lat="42.85805" lon="1.15567">
        <ele>1016.6</ele>
        <time>2025-07-21T05:04:17Z</time>
      </trkpt>
      <trkpt lat="42.85799" lon="1.15544">
        <ele>1017.4</ele>
        <time>2025-07-21T05:04:22Z</time>
      </trkpt>
      <trkpt lat="42.85796" lon="1.15535">
        <ele>1017.8</ele>
        <time>2025-07-21T05:04:24Z</time>
      </trkpt>
      <trkpt lat="42.85791" lon="1.15512">
        <ele>1018.4</ele>
        <time>2025-07-21T05:04:29Z</time>
      </trkpt>
      <trkpt lat="42.85785" lon="1.15501">
        <ele>1019</ele>
        <time>2025-07-21T05:04:32Z</time>
      </trkpt>
      <trkpt lat="42.85771" lon="1.15484">
        <ele>1019.6</ele>
        <time>2025-07-21T05:04:37Z</time>
      </trkpt>
      <trkpt lat="42.85761" lon="1.15474">
        <ele>1020</ele>
        <time>2025-07-21T05:04:40Z</time>
      </trkpt>
      <trkpt lat="42.85746" lon="1.15446">
        <ele>1020.6</ele>
        <time>2025-07-21T05:04:47Z</time>
      </trkpt>
      <trkpt lat="42.8573" lon="1.15405">
        <ele>1021.6</ele>
        <time>2025-07-21T05:04:56Z</time>
      </trkpt>
      <trkpt lat="42.8572" lon="1.15368">
        <ele>1022</ele>
        <time>2025-07-21T05:05:04Z</time>
      </trkpt>
      <trkpt lat="42.85718" lon="1.15339">
        <ele>1022.6</ele>
        <time>2025-07-21T05:05:10Z</time>
      </trkpt>
      <trkpt lat="42.85717" lon="1.15334">
        <ele>1022.8</ele>
        <time>2025-07-21T05:05:11Z</time>
      </trkpt>
      <trkpt lat="42.85717" lon="1.15302">
        <ele>1023.8</ele>
        <time>2025-07-21T05:05:18Z</time>
      </trkpt>
      <trkpt lat="42.85717" lon="1.15297">
        <ele>1024</ele>
        <time>2025-07-21T05:05:19Z</time>
      </trkpt>
      <trkpt lat="42.85716" lon="1.15277">
        <ele>1025</ele>
        <time>2025-07-21T05:05:24Z</time>
      </trkpt>
      <trkpt lat="42.85716" lon="1.15265">
        <ele>1025.4</ele>
        <time>2025-07-21T05:05:27Z</time>
      </trkpt>
      <trkpt lat="42.85716" lon="1.15245">
        <ele>1026</ele>
        <time>2025-07-21T05:05:32Z</time>
      </trkpt>
      <trkpt lat="42.85715" lon="1.1523">
        <ele>1026.4</ele>
        <time>2025-07-21T05:05:35Z</time>
      </trkpt>
      <trkpt lat="42.85717" lon="1.15206">
        <ele>1027</ele>
        <time>2025-07-21T05:05:40Z</time>
      </trkpt>
      <trkpt lat="42.85718" lon="1.15196">
        <ele>1027.2</ele>
        <time>2025-07-21T05:05:42Z</time>
      </trkpt>
      <trkpt lat="42.85714" lon="1.15163">
        <ele>1027.8</ele>
        <time>2025-07-21T05:05:49Z</time>
      </trkpt>
      <trkpt lat="42.85712" lon="1.15149">
        <ele>1028.2</ele>
        <time>2025-07-21T05:05:52Z</time>
      </trkpt>
      <trkpt lat="42.8571" lon="1.15126">
        <ele>1028.6</ele>
        <time>2025-07-21T05:05:57Z</time>
      </trkpt>
      <trkpt lat="42.85714" lon="1.15097">
        <ele>1029.2</ele>
        <time>2025-07-21T05:06:03Z</time>
      </trkpt>
      <trkpt lat="42.85714" lon="1.15092">
        <ele>1029.2</ele>
        <time>2025-07-21T05:06:04Z</time>
      </trkpt>
      <trkpt lat="42.85711" lon="1.15061">
        <ele>1029.8</ele>
        <time>2025-07-21T05:06:10Z</time>
      </trkpt>
      <trkpt lat="42.85702" lon="1.1503">
        <ele>1030.2</ele>
        <time>2025-07-21T05:06:16Z</time>
      </trkpt>
      <trkpt lat="42.85694" lon="1.15017">
        <ele>1030.4</ele>
        <time>2025-07-21T05:06:19Z</time>
      </trkpt>
      <trkpt lat="42.85688" lon="1.15013">
        <ele>1030.4</ele>
        <time>2025-07-21T05:06:21Z</time>
      </trkpt>
      <trkpt lat="42.85664" lon="1.15006">
        <ele>1031.2</ele>
        <time>2025-07-21T05:06:27Z</time>
      </trkpt>
      <trkpt lat="42.85656" lon="1.1499">
        <ele>1032</ele>
        <time>2025-07-21T05:06:31Z</time>
      </trkpt>
      <trkpt lat="42.85654" lon="1.1498">
        <ele>1032.2</ele>
        <time>2025-07-21T05:06:33Z</time>
      </trkpt>
      <trkpt lat="42.85649" lon="1.14956">
        <ele>1032.8</ele>
        <time>2025-07-21T05:06:38Z</time>
      </trkpt>
      <trkpt lat="42.85647" lon="1.14941">
        <ele>1033.2</ele>
        <time>2025-07-21T05:06:41Z</time>
      </trkpt>
      <trkpt lat="42.85646" lon="1.14922">
        <ele>1033.8</ele>
        <time>2025-07-21T05:06:45Z</time>
      </trkpt>
      <trkpt lat="42.85644" lon="1.14908">
        <ele>1034.4</ele>
        <time>2025-07-21T05:06:48Z</time>
      </trkpt>
      <trkpt lat="42.8564" lon="1.14869">
        <ele>1035.4</ele>
        <time>2025-07-21T05:06:56Z</time>
      </trkpt>
      <trkpt lat="42.85639" lon="1.14865">
        <ele>1035.4</ele>
        <time>2025-07-21T05:06:57Z</time>
      </trkpt>
      <trkpt lat="42.85635" lon="1.14831">
        <ele>1036.4</ele>
        <time>2025-07-21T05:07:04Z</time>
      </trkpt>
      <trkpt lat="42.85635" lon="1.14822">
        <ele>1036.8</ele>
        <time>2025-07-21T05:07:06Z</time>
      </trkpt>
      <trkpt lat="42.85634" lon="1.148">
        <ele>1037.6</ele>
        <time>2025-07-21T05:07:11Z</time>
      </trkpt>
      <trkpt lat="42.85633" lon="1.14786">
        <ele>1038.2</ele>
        <time>2025-07-21T05:07:14Z</time>
      </trkpt>
      <trkpt lat="42.85633" lon="1.14768">
        <ele>1038.6</ele>
        <time>2025-07-21T05:07:19Z</time>
      </trkpt>
      <trkpt lat="42.85634" lon="1.14757">
        <ele>1039.2</ele>
        <time>2025-07-21T05:07:22Z</time>
      </trkpt>
      <trkpt lat="42.85635" lon="1.14745">
        <ele>1039.8</ele>
        <time>2025-07-21T05:07:25Z</time>
      </trkpt>
      <trkpt lat="42.85638" lon="1.14724">
        <ele>1041</ele>
        <time>2025-07-21T05:07:31Z</time>
      </trkpt>
      <trkpt lat="42.85638" lon="1.14721">
        <ele>1041.2</ele>
        <time>2025-07-21T05:07:32Z</time>
      </trkpt>
      <trkpt lat="42.85642" lon="1.14701">
        <ele>1042.2</ele>
        <time>2025-07-21T05:07:38Z</time>
      </trkpt>
      <trkpt lat="42.85645" lon="1.14689">
        <ele>1042.8</ele>
        <time>2025-07-21T05:07:42Z</time>
      </trkpt>
      <trkpt lat="42.85647" lon="1.1468">
        <ele>1043.2</ele>
        <time>2025-07-21T05:07:45Z</time>
      </trkpt>
      <trkpt lat="42.85649" lon="1.14671">
        <ele>1043.8</ele>
        <time>2025-07-21T05:07:48Z</time>
      </trkpt>
      <trkpt lat="42.8565" lon="1.14665">
        <ele>1044.4</ele>
        <time>2025-07-21T05:07:50Z</time>
      </trkpt>
      <trkpt lat="42.85652" lon="1.14657">
        <ele>1045.2</ele>
        <time>2025-07-21T05:07:53Z</time>
      </trkpt>
      <trkpt lat="42.85653" lon="1.14651">
        <ele>1045.6</ele>
        <time>2025-07-21T05:07:55Z</time>
      </trkpt>
      <trkpt lat="42.85656" lon="1.14638">
        <ele>1046.4</ele>
        <time>2025-07-21T05:08:00Z</time>
      </trkpt>
      <trkpt lat="42.85657" lon="1.1463">
        <ele>1047</ele>
        <time>2025-07-21T05:08:03Z</time>
      </trkpt>
      <trkpt lat="42.8566" lon="1.14618">
        <ele>1047.6</ele>
        <time>2025-07-21T05:08:07Z</time>
      </trkpt>
      <trkpt lat="42.85661" lon="1.14612">
        <ele>1048</ele>
        <time>2025-07-21T05:08:09Z</time>
      </trkpt>
      <trkpt lat="42.85664" lon="1.14596">
        <ele>1049</ele>
        <time>2025-07-21T05:08:15Z</time>
      </trkpt>
      <trkpt lat="42.85666" lon="1.1459">
        <ele>1049.4</ele>
        <time>2025-07-21T05:08:17Z</time>
      </trkpt>
      <trkpt lat="42.85668" lon="1.14576">
        <ele>1050.4</ele>
        <time>2025-07-21T05:08:22Z</time>
      </trkpt>
      <trkpt lat="42.85671" lon="1.14562">
        <ele>1051.4</ele>
        <time>2025-07-21T05:08:27Z</time>
      </trkpt>
      <trkpt lat="42.85675" lon="1.14544">
        <ele>1052.6</ele>
        <time>2025-07-21T05:08:34Z</time>
      </trkpt>
      <trkpt lat="42.85676" lon="1.14541">
        <ele>1052.8</ele>
        <time>2025-07-21T05:08:35Z</time>
      </trkpt>
      <trkpt lat="42.85679" lon="1.14525">
        <ele>1053.8</ele>
        <time>2025-07-21T05:08:41Z</time>
      </trkpt>
      <trkpt lat="42.85681" lon="1.14517">
        <ele>1054.2</ele>
        <time>2025-07-21T05:08:44Z</time>
      </trkpt>
      <trkpt lat="42.85684" lon="1.14506">
        <ele>1054.8</ele>
        <time>2025-07-21T05:08:48Z</time>
      </trkpt>
      <trkpt lat="42.85686" lon="1.14498">
        <ele>1055.2</ele>
        <time>2025-07-21T05:08:51Z</time>
      </trkpt>
      <trkpt lat="42.8569" lon="1.14484">
        <ele>1056.2</ele>
        <time>2025-07-21T05:08:56Z</time>
      </trkpt>
      <trkpt lat="42.85693" lon="1.14476">
        <ele>1056.8</ele>
        <time>2025-07-21T05:08:59Z</time>
      </trkpt>
      <trkpt lat="42.85695" lon="1.14467">
        <ele>1057.2</ele>
        <time>2025-07-21T05:09:02Z</time>
      </trkpt>
      <trkpt lat="42.857" lon="1.14454">
        <ele>1058.2</ele>
        <time>2025-07-21T05:09:07Z</time>
      </trkpt>
      <trkpt lat="42.85701" lon="1.14451">
        <ele>1058.4</ele>
        <time>2025-07-21T05:09:08Z</time>
      </trkpt>
      <trkpt lat="42.85701" lon="1.14448">
        <ele>1058.4</ele>
        <time>2025-07-21T05:09:09Z</time>
      </trkpt>
      <trkpt lat="42.85707" lon="1.14436">
        <ele>1059.2</ele>
        <time>2025-07-21T05:09:14Z</time>
      </trkpt>
      <trkpt lat="42.8571" lon="1.14432">
        <ele>1059.8</ele>
        <time>2025-07-21T05:09:16Z</time>
      </trkpt>
      <trkpt lat="42.85716" lon="1.14425">
        <ele>1060.4</ele>
        <time>2025-07-21T05:09:20Z</time>
      </trkpt>
      <trkpt lat="42.85719" lon="1.14422">
        <ele>1060.8</ele>
        <time>2025-07-21T05:09:22Z</time>
      </trkpt>
      <trkpt lat="42.85726" lon="1.14415">
        <ele>1061.4</ele>
        <time>2025-07-21T05:09:26Z</time>
      </trkpt>
      <trkpt lat="42.85733" lon="1.14405">
        <ele>1062.4</ele>
        <time>2025-07-21T05:09:31Z</time>
      </trkpt>
      <trkpt lat="42.85743" lon="1.1439">
        <ele>1063.6</ele>
        <time>2025-07-21T05:09:38Z</time>
      </trkpt>
      <trkpt lat="42.85745" lon="1.14387">
        <ele>1063.8</ele>
        <time>2025-07-21T05:09:40Z</time>
      </trkpt>
      <trkpt lat="42.85752" lon="1.14378">
        <ele>1064.8</ele>
        <time>2025-07-21T05:09:44Z</time>
      </trkpt>
      <trkpt lat="42.85759" lon="1.14368">
        <ele>1065.8</ele>
        <time>2025-07-21T05:09:49Z</time>
      </trkpt>
      <trkpt lat="42.8576" lon="1.14366">
        <ele>1066.2</ele>
        <time>2025-07-21T05:09:50Z</time>
      </trkpt>
      <trkpt lat="42.85763" lon="1.14361">
        <ele>1066.8</ele>
        <time>2025-07-21T05:09:52Z</time>
      </trkpt>
      <trkpt lat="42.85768" lon="1.14343">
        <ele>1068</ele>
        <time>2025-07-21T05:09:58Z</time>
      </trkpt>
      <trkpt lat="42.85769" lon="1.14322">
        <ele>1069</ele>
        <time>2025-07-21T05:10:05Z</time>
      </trkpt>
      <trkpt lat="42.85763" lon="1.14304">
        <ele>1070</ele>
        <time>2025-07-21T05:10:12Z</time>
      </trkpt>
      <trkpt lat="42.85762" lon="1.14301">
        <ele>1070.2</ele>
        <time>2025-07-21T05:10:13Z</time>
      </trkpt>
      <trkpt lat="42.85757" lon="1.14286">
        <ele>1071</ele>
        <time>2025-07-21T05:10:18Z</time>
      </trkpt>
      <trkpt lat="42.85757" lon="1.14282">
        <ele>1071.6</ele>
        <time>2025-07-21T05:10:20Z</time>
      </trkpt>
      <trkpt lat="42.85755" lon="1.14271">
        <ele>1072</ele>
        <time>2025-07-21T05:10:24Z</time>
      </trkpt>
      <trkpt lat="42.85756" lon="1.14269">
        <ele>1072</ele>
        <time>2025-07-21T05:10:25Z</time>
      </trkpt>
      <trkpt lat="42.85756" lon="1.14257">
        <ele>1073</ele>
        <time>2025-07-21T05:10:29Z</time>
      </trkpt>
      <trkpt lat="42.85758" lon="1.14244">
        <ele>1073.8</ele>
        <time>2025-07-21T05:10:34Z</time>
      </trkpt>
      <trkpt lat="42.85758" lon="1.14238">
        <ele>1074.2</ele>
        <time>2025-07-21T05:10:36Z</time>
      </trkpt>
      <trkpt lat="42.85759" lon="1.14225">
        <ele>1075.2</ele>
        <time>2025-07-21T05:10:41Z</time>
      </trkpt>
      <trkpt lat="42.85758" lon="1.14212">
        <ele>1076.2</ele>
        <time>2025-07-21T05:10:46Z</time>
      </trkpt>
      <trkpt lat="42.85758" lon="1.14208">
        <ele>1076.6</ele>
        <time>2025-07-21T05:10:48Z</time>
      </trkpt>
      <trkpt lat="42.85757" lon="1.14199">
        <ele>1077.4</ele>
        <time>2025-07-21T05:10:52Z</time>
      </trkpt>
      <trkpt lat="42.85756" lon="1.14193">
        <ele>1078</ele>
        <time>2025-07-21T05:10:55Z</time>
      </trkpt>
      <trkpt lat="42.85754" lon="1.14188">
        <ele>1078.4</ele>
        <time>2025-07-21T05:10:57Z</time>
      </trkpt>
      <trkpt lat="42.85751" lon="1.14174">
        <ele>1079.2</ele>
        <time>2025-07-21T05:11:02Z</time>
      </trkpt>
      <trkpt lat="42.85744" lon="1.14159">
        <ele>1080.4</ele>
        <time>2025-07-21T05:11:08Z</time>
      </trkpt>
      <trkpt lat="42.8574" lon="1.14153">
        <ele>1081</ele>
        <time>2025-07-21T05:11:11Z</time>
      </trkpt>
      <trkpt lat="42.85734" lon="1.14147">
        <ele>1081.6</ele>
        <time>2025-07-21T05:11:15Z</time>
      </trkpt>
      <trkpt lat="42.85729" lon="1.14141">
        <ele>1082</ele>
        <time>2025-07-21T05:11:18Z</time>
      </trkpt>
      <trkpt lat="42.85726" lon="1.14134">
        <ele>1082.8</ele>
        <time>2025-07-21T05:11:21Z</time>
      </trkpt>
      <trkpt lat="42.85724" lon="1.1412">
        <ele>1083.4</ele>
        <time>2025-07-21T05:11:26Z</time>
      </trkpt>
      <trkpt lat="42.85724" lon="1.14115">
        <ele>1083.8</ele>
        <time>2025-07-21T05:11:28Z</time>
      </trkpt>
      <trkpt lat="42.85722" lon="1.141">
        <ele>1084.8</ele>
        <time>2025-07-21T05:11:33Z</time>
      </trkpt>
      <trkpt lat="42.85722" lon="1.14089">
        <ele>1085.4</ele>
        <time>2025-07-21T05:11:37Z</time>
      </trkpt>
      <trkpt lat="42.85722" lon="1.14082">
        <ele>1086</ele>
        <time>2025-07-21T05:11:40Z</time>
      </trkpt>
      <trkpt lat="42.85722" lon="1.14065">
        <ele>1086.8</ele>
        <time>2025-07-21T05:11:46Z</time>
      </trkpt>
      <trkpt lat="42.85722" lon="1.14063">
        <ele>1087.2</ele>
        <time>2025-07-21T05:11:47Z</time>
      </trkpt>
      <trkpt lat="42.85723" lon="1.14046">
        <ele>1088.2</ele>
        <time>2025-07-21T05:11:53Z</time>
      </trkpt>
      <trkpt lat="42.85723" lon="1.14036">
        <ele>1088.8</ele>
        <time>2025-07-21T05:11:57Z</time>
      </trkpt>
      <trkpt lat="42.85723" lon="1.14027">
        <ele>1089.2</ele>
        <time>2025-07-21T05:12:00Z</time>
      </trkpt>
      <trkpt lat="42.85724" lon="1.14014">
        <ele>1090.2</ele>
        <time>2025-07-21T05:12:05Z</time>
      </trkpt>
      <trkpt lat="42.85724" lon="1.14011">
        <ele>1090.4</ele>
        <time>2025-07-21T05:12:06Z</time>
      </trkpt>
      <trkpt lat="42.85724" lon="1.14">
        <ele>1091.4</ele>
        <time>2025-07-21T05:12:10Z</time>
      </trkpt>
      <trkpt lat="42.85727" lon="1.13988">
        <ele>1092</ele>
        <time>2025-07-21T05:12:15Z</time>
      </trkpt>
      <trkpt lat="42.85729" lon="1.13983">
        <ele>1092.4</ele>
        <time>2025-07-21T05:12:17Z</time>
      </trkpt>
      <trkpt lat="42.85732" lon="1.13973">
        <ele>1093</ele>
        <time>2025-07-21T05:12:21Z</time>
      </trkpt>
      <trkpt lat="42.85737" lon="1.13964">
        <ele>1093.6</ele>
        <time>2025-07-21T05:12:25Z</time>
      </trkpt>
      <trkpt lat="42.85742" lon="1.13956">
        <ele>1094.2</ele>
        <time>2025-07-21T05:12:29Z</time>
      </trkpt>
      <trkpt lat="42.85745" lon="1.13951">
        <ele>1094.8</ele>
        <time>2025-07-21T05:12:31Z</time>
      </trkpt>
      <trkpt lat="42.85752" lon="1.13938">
        <ele>1095.6</ele>
        <time>2025-07-21T05:12:37Z</time>
      </trkpt>
      <trkpt lat="42.85753" lon="1.13935">
        <ele>1095.8</ele>
        <time>2025-07-21T05:12:38Z</time>
      </trkpt>
      <trkpt lat="42.85756" lon="1.13925">
        <ele>1096.8</ele>
        <time>2025-07-21T05:12:42Z</time>
      </trkpt>
      <trkpt lat="42.85761" lon="1.13913">
        <ele>1097.6</ele>
        <time>2025-07-21T05:12:47Z</time>
      </trkpt>
      <trkpt lat="42.85762" lon="1.13911">
        <ele>1098</ele>
        <time>2025-07-21T05:12:48Z</time>
      </trkpt>
      <trkpt lat="42.85769" lon="1.13898">
        <ele>1099.2</ele>
        <time>2025-07-21T05:12:54Z</time>
      </trkpt>
      <trkpt lat="42.85772" lon="1.13895">
        <ele>1099.6</ele>
        <time>2025-07-21T05:12:56Z</time>
      </trkpt>
      <trkpt lat="42.8578" lon="1.13881">
        <ele>1100.4</ele>
        <time>2025-07-21T05:13:03Z</time>
      </trkpt>
      <trkpt lat="42.85782" lon="1.13879">
        <ele>1100.4</ele>
        <time>2025-07-21T05:13:04Z</time>
      </trkpt>
      <trkpt lat="42.85788" lon="1.13872">
        <ele>1101.6</ele>
        <time>2025-07-21T05:13:08Z</time>
      </trkpt>
      <trkpt lat="42.85791" lon="1.13864">
        <ele>1102.2</ele>
        <time>2025-07-21T05:13:11Z</time>
      </trkpt>
      <trkpt lat="42.85796" lon="1.13855">
        <ele>1102.6</ele>
        <time>2025-07-21T05:13:15Z</time>
      </trkpt>
      <trkpt lat="42.85799" lon="1.13848">
        <ele>1103.2</ele>
        <time>2025-07-21T05:13:18Z</time>
      </trkpt>
      <trkpt lat="42.85803" lon="1.13842">
        <ele>1103.8</ele>
        <time>2025-07-21T05:13:21Z</time>
      </trkpt>
      <trkpt lat="42.85805" lon="1.13838">
        <ele>1104</ele>
        <time>2025-07-21T05:13:23Z</time>
      </trkpt>
      <trkpt lat="42.85809" lon="1.13829">
        <ele>1104.8</ele>
        <time>2025-07-21T05:13:27Z</time>
      </trkpt>
      <trkpt lat="42.85813" lon="1.13819">
        <ele>1105.6</ele>
        <time>2025-07-21T05:13:31Z</time>
      </trkpt>
      <trkpt lat="42.85814" lon="1.13817">
        <ele>1105.8</ele>
        <time>2025-07-21T05:13:32Z</time>
      </trkpt>
      <trkpt lat="42.8582" lon="1.13802">
        <ele>1106.8</ele>
        <time>2025-07-21T05:13:38Z</time>
      </trkpt>
      <trkpt lat="42.8582" lon="1.138">
        <ele>1107</ele>
        <time>2025-07-21T05:13:39Z</time>
      </trkpt>
      <trkpt lat="42.85825" lon="1.1378">
        <ele>1107.8</ele>
        <time>2025-07-21T05:13:46Z</time>
      </trkpt>
      <trkpt lat="42.85826" lon="1.13778">
        <ele>1108</ele>
        <time>2025-07-21T05:13:47Z</time>
      </trkpt>
      <trkpt lat="42.85829" lon="1.13767">
        <ele>1109</ele>
        <time>2025-07-21T05:13:52Z</time>
      </trkpt>
      <trkpt lat="42.8583" lon="1.13762">
        <ele>1109.2</ele>
        <time>2025-07-21T05:13:54Z</time>
      </trkpt>
      <trkpt lat="42.85833" lon="1.1375">
        <ele>1110.2</ele>
        <time>2025-07-21T05:13:59Z</time>
      </trkpt>
      <trkpt lat="42.85835" lon="1.13742">
        <ele>1110.8</ele>
        <time>2025-07-21T05:14:02Z</time>
      </trkpt>
      <trkpt lat="42.85839" lon="1.13732">
        <ele>1111.2</ele>
        <time>2025-07-21T05:14:06Z</time>
      </trkpt>
      <trkpt lat="42.85843" lon="1.13723">
        <ele>1112</ele>
        <time>2025-07-21T05:14:10Z</time>
      </trkpt>
      <trkpt lat="42.85847" lon="1.1371">
        <ele>1112.4</ele>
        <time>2025-07-21T05:14:15Z</time>
      </trkpt>
      <trkpt lat="42.8585" lon="1.13703">
        <ele>1113</ele>
        <time>2025-07-21T05:14:18Z</time>
      </trkpt>
      <trkpt lat="42.85851" lon="1.13701">
        <ele>1113.2</ele>
        <time>2025-07-21T05:14:19Z</time>
      </trkpt>
      <trkpt lat="42.85853" lon="1.13696">
        <ele>1113.6</ele>
        <time>2025-07-21T05:14:21Z</time>
      </trkpt>
      <trkpt lat="42.85854" lon="1.13693">
        <ele>1113.8</ele>
        <time>2025-07-21T05:14:22Z</time>
      </trkpt>
      <trkpt lat="42.8586" lon="1.13682">
        <ele>1114.4</ele>
        <time>2025-07-21T05:14:27Z</time>
      </trkpt>
      <trkpt lat="42.85862" lon="1.13678">
        <ele>1114.8</ele>
        <time>2025-07-21T05:14:29Z</time>
      </trkpt>
      <trkpt lat="42.85865" lon="1.1367">
        <ele>1115.6</ele>
        <time>2025-07-21T05:14:32Z</time>
      </trkpt>
      <trkpt lat="42.85866" lon="1.13658">
        <ele>1116.4</ele>
        <time>2025-07-21T05:14:36Z</time>
      </trkpt>
      <trkpt lat="42.85866" lon="1.13653">
        <ele>1116.8</ele>
        <time>2025-07-21T05:14:38Z</time>
      </trkpt>
      <trkpt lat="42.85862" lon="1.13642">
        <ele>1117.6</ele>
        <time>2025-07-21T05:14:43Z</time>
      </trkpt>
      <trkpt lat="42.85861" lon="1.13641">
        <ele>1117.8</ele>
        <time>2025-07-21T05:14:44Z</time>
      </trkpt>
      <trkpt lat="42.85855" lon="1.13632">
        <ele>1119</ele>
        <time>2025-07-21T05:14:49Z</time>
      </trkpt>
      <trkpt lat="42.85849" lon="1.13619">
        <ele>1119.8</ele>
        <time>2025-07-21T05:14:55Z</time>
      </trkpt>
      <trkpt lat="42.85845" lon="1.13615">
        <ele>1120.4</ele>
        <time>2025-07-21T05:14:58Z</time>
      </trkpt>
      <trkpt lat="42.85841" lon="1.13614">
        <ele>1120.8</ele>
        <time>2025-07-21T05:15:00Z</time>
      </trkpt>
      <trkpt lat="42.85836" lon="1.1361">
        <ele>1121.8</ele>
        <time>2025-07-21T05:15:04Z</time>
      </trkpt>
      <trkpt lat="42.85831" lon="1.13606">
        <ele>1122.4</ele>
        <time>2025-07-21T05:15:07Z</time>
      </trkpt>
      <trkpt lat="42.85828" lon="1.13604">
        <ele>1122.8</ele>
        <time>2025-07-21T05:15:09Z</time>
      </trkpt>
      <trkpt lat="42.85819" lon="1.13598">
        <ele>1123.8</ele>
        <time>2025-07-21T05:15:15Z</time>
      </trkpt>
      <trkpt lat="42.85809" lon="1.1359">
        <ele>1125</ele>
        <time>2025-07-21T05:15:21Z</time>
      </trkpt>
      <trkpt lat="42.85808" lon="1.13589">
        <ele>1125</ele>
        <time>2025-07-21T05:15:22Z</time>
      </trkpt>
      <trkpt lat="42.85802" lon="1.13579">
        <ele>1126</ele>
        <time>2025-07-21T05:15:27Z</time>
      </trkpt>
      <trkpt lat="42.85798" lon="1.13571">
        <ele>1126.8</ele>
        <time>2025-07-21T05:15:30Z</time>
      </trkpt>
      <trkpt lat="42.85797" lon="1.13565">
        <ele>1127</ele>
        <time>2025-07-21T05:15:32Z</time>
      </trkpt>
      <trkpt lat="42.85795" lon="1.1355">
        <ele>1128</ele>
        <time>2025-07-21T05:15:37Z</time>
      </trkpt>
      <trkpt lat="42.85795" lon="1.13547">
        <ele>1128.2</ele>
        <time>2025-07-21T05:15:38Z</time>
      </trkpt>
      <trkpt lat="42.85798" lon="1.13531">
        <ele>1129.4</ele>
        <time>2025-07-21T05:15:44Z</time>
      </trkpt>
      <trkpt lat="42.85799" lon="1.13528">
        <ele>1129.6</ele>
        <time>2025-07-21T05:15:45Z</time>
      </trkpt>
      <trkpt lat="42.85803" lon="1.1351">
        <ele>1130.6</ele>
        <time>2025-07-21T05:15:52Z</time>
      </trkpt>
      <trkpt lat="42.85803" lon="1.13507">
        <ele>1130.6</ele>
        <time>2025-07-21T05:15:53Z</time>
      </trkpt>
      <trkpt lat="42.8581" lon="1.13493">
        <ele>1131.6</ele>
        <time>2025-07-21T05:15:59Z</time>
      </trkpt>
      <trkpt lat="42.85816" lon="1.13481">
        <ele>1132.8</ele>
        <time>2025-07-21T05:16:05Z</time>
      </trkpt>
      <trkpt lat="42.85821" lon="1.13473">
        <ele>1133.2</ele>
        <time>2025-07-21T05:16:09Z</time>
      </trkpt>
      <trkpt lat="42.85825" lon="1.13467">
        <ele>1133.8</ele>
        <time>2025-07-21T05:16:12Z</time>
      </trkpt>
      <trkpt lat="42.85832" lon="1.13457">
        <ele>1135.2</ele>
        <time>2025-07-21T05:16:17Z</time>
      </trkpt>
      <trkpt lat="42.85842" lon="1.13445">
        <ele>1136.2</ele>
        <time>2025-07-21T05:16:24Z</time>
      </trkpt>
      <trkpt lat="42.85844" lon="1.13442">
        <ele>1136.4</ele>
        <time>2025-07-21T05:16:26Z</time>
      </trkpt>
      <trkpt lat="42.8585" lon="1.13435">
        <ele>1137.2</ele>
        <time>2025-07-21T05:16:30Z</time>
      </trkpt>
      <trkpt lat="42.85858" lon="1.13426">
        <ele>1138</ele>
        <time>2025-07-21T05:16:35Z</time>
      </trkpt>
      <trkpt lat="42.8586" lon="1.13424">
        <ele>1138.2</ele>
        <time>2025-07-21T05:16:36Z</time>
      </trkpt>
      <trkpt lat="42.8587" lon="1.13413">
        <ele>1139.6</ele>
        <time>2025-07-21T05:16:43Z</time>
      </trkpt>
      <trkpt lat="42.8588" lon="1.13401">
        <ele>1140.6</ele>
        <time>2025-07-21T05:16:49Z</time>
      </trkpt>
      <trkpt lat="42.85881" lon="1.13398">
        <ele>1140.6</ele>
        <time>2025-07-21T05:16:50Z</time>
      </trkpt>
      <trkpt lat="42.85887" lon="1.1339">
        <ele>1141.6</ele>
        <time>2025-07-21T05:16:54Z</time>
      </trkpt>
      <trkpt lat="42.85892" lon="1.13382">
        <ele>1142.4</ele>
        <time>2025-07-21T05:16:58Z</time>
      </trkpt>
      <trkpt lat="42.85893" lon="1.1338">
        <ele>1142.6</ele>
        <time>2025-07-21T05:16:59Z</time>
      </trkpt>
      <trkpt lat="42.85901" lon="1.13364">
        <ele>1143.8</ele>
        <time>2025-07-21T05:17:06Z</time>
      </trkpt>
      <trkpt lat="42.85903" lon="1.13362">
        <ele>1143.8</ele>
        <time>2025-07-21T05:17:07Z</time>
      </trkpt>
      <trkpt lat="42.85904" lon="1.1336">
        <ele>1144</ele>
        <time>2025-07-21T05:17:08Z</time>
      </trkpt>
      <trkpt lat="42.8591" lon="1.13357">
        <ele>1144.4</ele>
        <time>2025-07-21T05:17:12Z</time>
      </trkpt>
      <trkpt lat="42.85911" lon="1.13355">
        <ele>1145</ele>
        <time>2025-07-21T05:17:13Z</time>
      </trkpt>
      <trkpt lat="42.85917" lon="1.13344">
        <ele>1145.8</ele>
        <time>2025-07-21T05:17:19Z</time>
      </trkpt>
      <trkpt lat="42.85922" lon="1.13335">
        <ele>1146.6</ele>
        <time>2025-07-21T05:17:23Z</time>
      </trkpt>
      <trkpt lat="42.85923" lon="1.13332">
        <ele>1146.8</ele>
        <time>2025-07-21T05:17:24Z</time>
      </trkpt>
      <trkpt lat="42.85924" lon="1.1333">
        <ele>1147</ele>
        <time>2025-07-21T05:17:25Z</time>
      </trkpt>
      <trkpt lat="42.85931" lon="1.13313">
        <ele>1147.8</ele>
        <time>2025-07-21T05:17:31Z</time>
      </trkpt>
      <trkpt lat="42.85936" lon="1.13296">
        <ele>1148.8</ele>
        <time>2025-07-21T05:17:37Z</time>
      </trkpt>
      <trkpt lat="42.8594" lon="1.13293">
        <ele>1149.2</ele>
        <time>2025-07-21T05:17:39Z</time>
      </trkpt>
      <trkpt lat="42.85944" lon="1.13288">
        <ele>1149.8</ele>
        <time>2025-07-21T05:17:42Z</time>
      </trkpt>
      <trkpt lat="42.85947" lon="1.13277">
        <ele>1150.8</ele>
        <time>2025-07-21T05:17:47Z</time>
      </trkpt>
      <trkpt lat="42.85948" lon="1.13275">
        <ele>1151</ele>
        <time>2025-07-21T05:17:48Z</time>
      </trkpt>
      <trkpt lat="42.85951" lon="1.13262">
        <ele>1152.2</ele>
        <time>2025-07-21T05:17:53Z</time>
      </trkpt>
      <trkpt lat="42.85952" lon="1.13255">
        <ele>1152.6</ele>
        <time>2025-07-21T05:17:56Z</time>
      </trkpt>
      <trkpt lat="42.85953" lon="1.13253">
        <ele>1153</ele>
        <time>2025-07-21T05:17:57Z</time>
      </trkpt>
      <trkpt lat="42.85955" lon="1.13235">
        <ele>1154</ele>
        <time>2025-07-21T05:18:04Z</time>
      </trkpt>
      <trkpt lat="42.85955" lon="1.13233">
        <ele>1154.2</ele>
        <time>2025-07-21T05:18:05Z</time>
      </trkpt>
      <trkpt lat="42.85956" lon="1.13218">
        <ele>1155.2</ele>
        <time>2025-07-21T05:18:11Z</time>
      </trkpt>
      <trkpt lat="42.85956" lon="1.13212">
        <ele>1155.6</ele>
        <time>2025-07-21T05:18:13Z</time>
      </trkpt>
      <trkpt lat="42.85958" lon="1.13204">
        <ele>1156.2</ele>
        <time>2025-07-21T05:18:16Z</time>
      </trkpt>
      <trkpt lat="42.8596" lon="1.13196">
        <ele>1157</ele>
        <time>2025-07-21T05:18:19Z</time>
      </trkpt>
      <trkpt lat="42.85962" lon="1.13191">
        <ele>1157.2</ele>
        <time>2025-07-21T05:18:21Z</time>
      </trkpt>
      <trkpt lat="42.85967" lon="1.1318">
        <ele>1158.4</ele>
        <time>2025-07-21T05:18:26Z</time>
      </trkpt>
      <trkpt lat="42.85975" lon="1.13169">
        <ele>1159.2</ele>
        <time>2025-07-21T05:18:32Z</time>
      </trkpt>
      <trkpt lat="42.85976" lon="1.13167">
        <ele>1159.4</ele>
        <time>2025-07-21T05:18:33Z</time>
      </trkpt>
      <trkpt lat="42.85977" lon="1.13165">
        <ele>1159.6</ele>
        <time>2025-07-21T05:18:34Z</time>
      </trkpt>
      <trkpt lat="42.85982" lon="1.13161">
        <ele>1159.8</ele>
        <time>2025-07-21T05:18:37Z</time>
      </trkpt>
      <trkpt lat="42.85984" lon="1.13159">
        <ele>1160.2</ele>
        <time>2025-07-21T05:18:39Z</time>
      </trkpt>
      <trkpt lat="42.85988" lon="1.13154">
        <ele>1160.6</ele>
        <time>2025-07-21T05:18:42Z</time>
      </trkpt>
      <trkpt lat="42.85993" lon="1.13147">
        <ele>1161.4</ele>
        <time>2025-07-21T05:18:46Z</time>
      </trkpt>
      <trkpt lat="42.85995" lon="1.13144">
        <ele>1161.8</ele>
        <time>2025-07-21T05:18:48Z</time>
      </trkpt>
      <trkpt lat="42.86002" lon="1.13135">
        <ele>1162.6</ele>
        <time>2025-07-21T05:18:53Z</time>
      </trkpt>
      <trkpt lat="42.86003" lon="1.13134">
        <ele>1162.8</ele>
        <time>2025-07-21T05:18:54Z</time>
      </trkpt>
      <trkpt lat="42.86006" lon="1.13123">
        <ele>1163.4</ele>
        <time>2025-07-21T05:18:58Z</time>
      </trkpt>
      <trkpt lat="42.86007" lon="1.13116">
        <ele>1164</ele>
        <time>2025-07-21T05:19:00Z</time>
      </trkpt>
      <trkpt lat="42.86009" lon="1.13113">
        <ele>1164.2</ele>
        <time>2025-07-21T05:19:01Z</time>
      </trkpt>
      <trkpt lat="42.86011" lon="1.1311">
        <ele>1164.4</ele>
        <time>2025-07-21T05:19:02Z</time>
      </trkpt>
      <trkpt lat="42.86016" lon="1.13105">
        <ele>1165.2</ele>
        <time>2025-07-21T05:19:06Z</time>
      </trkpt>
      <trkpt lat="42.86018" lon="1.13102">
        <ele>1165.4</ele>
        <time>2025-07-21T05:19:07Z</time>
      </trkpt>
      <trkpt lat="42.86017" lon="1.13095">
        <ele>1166</ele>
        <time>2025-07-21T05:19:09Z</time>
      </trkpt>
      <trkpt lat="42.8602" lon="1.13093">
        <ele>1166.4</ele>
        <time>2025-07-21T05:19:11Z</time>
      </trkpt>
      <trkpt lat="42.86029" lon="1.13082">
        <ele>1167.2</ele>
        <time>2025-07-21T05:19:17Z</time>
      </trkpt>
      <trkpt lat="42.8603" lon="1.13063">
        <ele>1168</ele>
        <time>2025-07-21T05:19:24Z</time>
      </trkpt>
      <trkpt lat="42.8603" lon="1.1306">
        <ele>1168.2</ele>
        <time>2025-07-21T05:19:25Z</time>
      </trkpt>
      <trkpt lat="42.86032" lon="1.13044">
        <ele>1169.2</ele>
        <time>2025-07-21T05:19:31Z</time>
      </trkpt>
      <trkpt lat="42.86031" lon="1.13036">
        <ele>1169.8</ele>
        <time>2025-07-21T05:19:34Z</time>
      </trkpt>
      <trkpt lat="42.86031" lon="1.13027">
        <ele>1170.4</ele>
        <time>2025-07-21T05:19:37Z</time>
      </trkpt>
      <trkpt lat="42.8603" lon="1.13014">
        <ele>1171</ele>
        <time>2025-07-21T05:19:42Z</time>
      </trkpt>
      <trkpt lat="42.86029" lon="1.13009">
        <ele>1171.4</ele>
        <time>2025-07-21T05:19:44Z</time>
      </trkpt>
      <trkpt lat="42.86027" lon="1.12996">
        <ele>1172.6</ele>
        <time>2025-07-21T05:19:49Z</time>
      </trkpt>
      <trkpt lat="42.86026" lon="1.12991">
        <ele>1173</ele>
        <time>2025-07-21T05:19:51Z</time>
      </trkpt>
      <trkpt lat="42.86022" lon="1.12981">
        <ele>1173.6</ele>
        <time>2025-07-21T05:19:55Z</time>
      </trkpt>
      <trkpt lat="42.8602" lon="1.12977">
        <ele>1174</ele>
        <time>2025-07-21T05:19:57Z</time>
      </trkpt>
      <trkpt lat="42.86015" lon="1.12967">
        <ele>1174.8</ele>
        <time>2025-07-21T05:20:02Z</time>
      </trkpt>
      <trkpt lat="42.86014" lon="1.12963">
        <ele>1175.2</ele>
        <time>2025-07-21T05:20:04Z</time>
      </trkpt>
      <trkpt lat="42.86011" lon="1.12956">
        <ele>1175.8</ele>
        <time>2025-07-21T05:20:07Z</time>
      </trkpt>
      <trkpt lat="42.86008" lon="1.12945">
        <ele>1176.8</ele>
        <time>2025-07-21T05:20:12Z</time>
      </trkpt>
      <trkpt lat="42.86007" lon="1.12942">
        <ele>1176.8</ele>
        <time>2025-07-21T05:20:13Z</time>
      </trkpt>
      <trkpt lat="42.86005" lon="1.1293">
        <ele>1177.8</ele>
        <time>2025-07-21T05:20:18Z</time>
      </trkpt>
      <trkpt lat="42.86003" lon="1.12919">
        <ele>1178.4</ele>
        <time>2025-07-21T05:20:22Z</time>
      </trkpt>
      <trkpt lat="42.86002" lon="1.12914">
        <ele>1178.8</ele>
        <time>2025-07-21T05:20:24Z</time>
      </trkpt>
      <trkpt lat="42.85999" lon="1.12902">
        <ele>1179.6</ele>
        <time>2025-07-21T05:20:29Z</time>
      </trkpt>
      <trkpt lat="42.85997" lon="1.12898">
        <ele>1180</ele>
        <time>2025-07-21T05:20:31Z</time>
      </trkpt>
      <trkpt lat="42.85991" lon="1.12883">
        <ele>1181</ele>
        <time>2025-07-21T05:20:37Z</time>
      </trkpt>
      <trkpt lat="42.85987" lon="1.12872">
        <ele>1182</ele>
        <time>2025-07-21T05:20:42Z</time>
      </trkpt>
      <trkpt lat="42.85985" lon="1.12862">
        <ele>1182.8</ele>
        <time>2025-07-21T05:20:46Z</time>
      </trkpt>
      <trkpt lat="42.85983" lon="1.12857">
        <ele>1183.2</ele>
        <time>2025-07-21T05:20:48Z</time>
      </trkpt>
      <trkpt lat="42.85982" lon="1.12846">
        <ele>1183.8</ele>
        <time>2025-07-21T05:20:52Z</time>
      </trkpt>
      <trkpt lat="42.85982" lon="1.12844">
        <ele>1183.8</ele>
        <time>2025-07-21T05:20:53Z</time>
      </trkpt>
      <trkpt lat="42.85982" lon="1.12838">
        <ele>1184.2</ele>
        <time>2025-07-21T05:20:55Z</time>
      </trkpt>
      <trkpt lat="42.85983" lon="1.12825">
        <ele>1185.2</ele>
        <time>2025-07-21T05:21:00Z</time>
      </trkpt>
      <trkpt lat="42.85983" lon="1.1282">
        <ele>1185.4</ele>
        <time>2025-07-21T05:21:02Z</time>
      </trkpt>
      <trkpt lat="42.85983" lon="1.12812">
        <ele>1186.2</ele>
        <time>2025-07-21T05:21:05Z</time>
      </trkpt>
      <trkpt lat="42.85986" lon="1.12796">
        <ele>1187.2</ele>
        <time>2025-07-21T05:21:11Z</time>
      </trkpt>
      <trkpt lat="42.85988" lon="1.1278">
        <ele>1188.4</ele>
        <time>2025-07-21T05:21:17Z</time>
      </trkpt>
      <trkpt lat="42.85988" lon="1.12777">
        <ele>1188.6</ele>
        <time>2025-07-21T05:21:18Z</time>
      </trkpt>
      <trkpt lat="42.8599" lon="1.12765">
        <ele>1189.4</ele>
        <time>2025-07-21T05:21:23Z</time>
      </trkpt>
      <trkpt lat="42.85992" lon="1.12754">
        <ele>1190.2</ele>
        <time>2025-07-21T05:21:27Z</time>
      </trkpt>
      <trkpt lat="42.85993" lon="1.12751">
        <ele>1190.6</ele>
        <time>2025-07-21T05:21:28Z</time>
      </trkpt>
      <trkpt lat="42.85995" lon="1.12738">
        <ele>1191.6</ele>
        <time>2025-07-21T05:21:33Z</time>
      </trkpt>
      <trkpt lat="42.85997" lon="1.12732">
        <ele>1192</ele>
        <time>2025-07-21T05:21:35Z</time>
      </trkpt>
      <trkpt lat="42.86" lon="1.1272">
        <ele>1192.8</ele>
        <time>2025-07-21T05:21:40Z</time>
      </trkpt>
      <trkpt lat="42.86003" lon="1.12707">
        <ele>1193.2</ele>
        <time>2025-07-21T05:21:45Z</time>
      </trkpt>
      <trkpt lat="42.86006" lon="1.12696">
        <ele>1193.8</ele>
        <time>2025-07-21T05:21:49Z</time>
      </trkpt>
      <trkpt lat="42.86009" lon="1.12685">
        <ele>1194.6</ele>
        <time>2025-07-21T05:21:53Z</time>
      </trkpt>
      <trkpt lat="42.86012" lon="1.12679">
        <ele>1194.8</ele>
        <time>2025-07-21T05:21:55Z</time>
      </trkpt>
      <trkpt lat="42.86016" lon="1.12672">
        <ele>1195.2</ele>
        <time>2025-07-21T05:21:58Z</time>
      </trkpt>
      <trkpt lat="42.8602" lon="1.12663">
        <ele>1196</ele>
        <time>2025-07-21T05:22:02Z</time>
      </trkpt>
      <trkpt lat="42.86023" lon="1.12658">
        <ele>1196.2</ele>
        <time>2025-07-21T05:22:04Z</time>
      </trkpt>
      <trkpt lat="42.86028" lon="1.12646">
        <ele>1197</ele>
        <time>2025-07-21T05:22:09Z</time>
      </trkpt>
      <trkpt lat="42.86029" lon="1.12643">
        <ele>1197.2</ele>
        <time>2025-07-21T05:22:10Z</time>
      </trkpt>
      <trkpt lat="42.86029" lon="1.12626">
        <ele>1198.2</ele>
        <time>2025-07-21T05:22:16Z</time>
      </trkpt>
      <trkpt lat="42.86029" lon="1.12621">
        <ele>1198.4</ele>
        <time>2025-07-21T05:22:18Z</time>
      </trkpt>
      <trkpt lat="42.86026" lon="1.12608">
        <ele>1199.2</ele>
        <time>2025-07-21T05:22:23Z</time>
      </trkpt>
      <trkpt lat="42.86025" lon="1.12607">
        <ele>1199.4</ele>
        <time>2025-07-21T05:22:24Z</time>
      </trkpt>
      <trkpt lat="42.86018" lon="1.12598">
        <ele>1200</ele>
        <time>2025-07-21T05:22:29Z</time>
      </trkpt>
      <trkpt lat="42.86017" lon="1.12597">
        <ele>1200.2</ele>
        <time>2025-07-21T05:22:30Z</time>
      </trkpt>
      <trkpt lat="42.86012" lon="1.12595">
        <ele>1200.8</ele>
        <time>2025-07-21T05:22:33Z</time>
      </trkpt>
      <trkpt lat="42.86011" lon="1.12594">
        <ele>1201.2</ele>
        <time>2025-07-21T05:22:34Z</time>
      </trkpt>
      <trkpt lat="42.86005" lon="1.12588">
        <ele>1202</ele>
        <time>2025-07-21T05:22:38Z</time>
      </trkpt>
      <trkpt lat="42.86003" lon="1.12587">
        <ele>1202.2</ele>
        <time>2025-07-21T05:22:39Z</time>
      </trkpt>
      <trkpt lat="42.85996" lon="1.12581">
        <ele>1203.4</ele>
        <time>2025-07-21T05:22:44Z</time>
      </trkpt>
      <trkpt lat="42.85995" lon="1.12579">
        <ele>1203.4</ele>
        <time>2025-07-21T05:22:45Z</time>
      </trkpt>
      <trkpt lat="42.85993" lon="1.12571">
        <ele>1204.6</ele>
        <time>2025-07-21T05:22:49Z</time>
      </trkpt>
      <trkpt lat="42.85993" lon="1.12566">
        <ele>1205</ele>
        <time>2025-07-21T05:22:51Z</time>
      </trkpt>
      <trkpt lat="42.85994" lon="1.1256">
        <ele>1205.6</ele>
        <time>2025-07-21T05:22:53Z</time>
      </trkpt>
      <trkpt lat="42.85996" lon="1.12558">
        <ele>1205.8</ele>
        <time>2025-07-21T05:22:54Z</time>
      </trkpt>
      <trkpt lat="42.85998" lon="1.12555">
        <ele>1206.2</ele>
        <time>2025-07-21T05:22:56Z</time>
      </trkpt>
      <trkpt lat="42.86002" lon="1.1255">
        <ele>1206.8</ele>
        <time>2025-07-21T05:22:59Z</time>
      </trkpt>
      <trkpt lat="42.86005" lon="1.12544">
        <ele>1207.4</ele>
        <time>2025-07-21T05:23:02Z</time>
      </trkpt>
      <trkpt lat="42.86006" lon="1.12542">
        <ele>1207.8</ele>
        <time>2025-07-21T05:23:03Z</time>
      </trkpt>
      <trkpt lat="42.86007" lon="1.1254">
        <ele>1208</ele>
        <time>2025-07-21T05:23:04Z</time>
      </trkpt>
      <trkpt lat="42.8601" lon="1.12534">
        <ele>1208.6</ele>
        <time>2025-07-21T05:23:07Z</time>
      </trkpt>
      <trkpt lat="42.86012" lon="1.1253">
        <ele>1209</ele>
        <time>2025-07-21T05:23:09Z</time>
      </trkpt>
      <trkpt lat="42.86018" lon="1.12516">
        <ele>1209.8</ele>
        <time>2025-07-21T05:23:14Z</time>
      </trkpt>
      <trkpt lat="42.86019" lon="1.12513">
        <ele>1210</ele>
        <time>2025-07-21T05:23:15Z</time>
      </trkpt>
      <trkpt lat="42.8602" lon="1.12506">
        <ele>1210.4</ele>
        <time>2025-07-21T05:23:17Z</time>
      </trkpt>
      <trkpt lat="42.86021" lon="1.12499">
        <ele>1210.8</ele>
        <time>2025-07-21T05:23:19Z</time>
      </trkpt>
      <trkpt lat="42.86022" lon="1.12495">
        <ele>1211</ele>
        <time>2025-07-21T05:23:20Z</time>
      </trkpt>
      <trkpt lat="42.86024" lon="1.12476">
        <ele>1212</ele>
        <time>2025-07-21T05:23:26Z</time>
      </trkpt>
      <trkpt lat="42.86024" lon="1.12473">
        <ele>1212.4</ele>
        <time>2025-07-21T05:23:27Z</time>
      </trkpt>
      <trkpt lat="42.86027" lon="1.12466">
        <ele>1213.2</ele>
        <time>2025-07-21T05:23:32Z</time>
      </trkpt>
      <trkpt lat="42.86026" lon="1.1246">
        <ele>1213.6</ele>
        <time>2025-07-21T05:23:34Z</time>
      </trkpt>
      <trkpt lat="42.86024" lon="1.1245">
        <ele>1214.4</ele>
        <time>2025-07-21T05:23:38Z</time>
      </trkpt>
      <trkpt lat="42.8602" lon="1.12445">
        <ele>1214.6</ele>
        <time>2025-07-21T05:23:41Z</time>
      </trkpt>
      <trkpt lat="42.86016" lon="1.12438">
        <ele>1215.2</ele>
        <time>2025-07-21T05:23:44Z</time>
      </trkpt>
      <trkpt lat="42.86012" lon="1.12431">
        <ele>1215.6</ele>
        <time>2025-07-21T05:23:48Z</time>
      </trkpt>
      <trkpt lat="42.86008" lon="1.12426">
        <ele>1216.2</ele>
        <time>2025-07-21T05:23:51Z</time>
      </trkpt>
      <trkpt lat="42.86003" lon="1.1242">
        <ele>1217</ele>
        <time>2025-07-21T05:23:54Z</time>
      </trkpt>
      <trkpt lat="42.86" lon="1.12417">
        <ele>1217.4</ele>
        <time>2025-07-21T05:23:56Z</time>
      </trkpt>
      <trkpt lat="42.85994" lon="1.12407">
        <ele>1218.4</ele>
        <time>2025-07-21T05:24:01Z</time>
      </trkpt>
      <trkpt lat="42.85993" lon="1.12405">
        <ele>1218.6</ele>
        <time>2025-07-21T05:24:02Z</time>
      </trkpt>
      <trkpt lat="42.85989" lon="1.124">
        <ele>1218.8</ele>
        <time>2025-07-21T05:24:05Z</time>
      </trkpt>
      <trkpt lat="42.85987" lon="1.12395">
        <ele>1219.4</ele>
        <time>2025-07-21T05:24:07Z</time>
      </trkpt>
      <trkpt lat="42.85982" lon="1.12384">
        <ele>1220.2</ele>
        <time>2025-07-21T05:24:12Z</time>
      </trkpt>
      <trkpt lat="42.85978" lon="1.12379">
        <ele>1220.4</ele>
        <time>2025-07-21T05:24:15Z</time>
      </trkpt>
      <trkpt lat="42.85973" lon="1.12371">
        <ele>1221.4</ele>
        <time>2025-07-21T05:24:19Z</time>
      </trkpt>
      <trkpt lat="42.85971" lon="1.1237">
        <ele>1221.4</ele>
        <time>2025-07-21T05:24:20Z</time>
      </trkpt>
      <trkpt lat="42.85966" lon="1.12362">
        <ele>1222.4</ele>
        <time>2025-07-21T05:24:24Z</time>
      </trkpt>
      <trkpt lat="42.85963" lon="1.12358">
        <ele>1222.8</ele>
        <time>2025-07-21T05:24:26Z</time>
      </trkpt>
      <trkpt lat="42.85955" lon="1.1235">
        <ele>1223.6</ele>
        <time>2025-07-21T05:24:31Z</time>
      </trkpt>
      <trkpt lat="42.85952" lon="1.12347">
        <ele>1224</ele>
        <time>2025-07-21T05:24:33Z</time>
      </trkpt>
      <trkpt lat="42.85948" lon="1.12341">
        <ele>1224.6</ele>
        <time>2025-07-21T05:24:36Z</time>
      </trkpt>
      <trkpt lat="42.85944" lon="1.12337">
        <ele>1225.4</ele>
        <time>2025-07-21T05:24:39Z</time>
      </trkpt>
      <trkpt lat="42.85942" lon="1.12332">
        <ele>1225.6</ele>
        <time>2025-07-21T05:24:41Z</time>
      </trkpt>
      <trkpt lat="42.85936" lon="1.12314">
        <ele>1226.8</ele>
        <time>2025-07-21T05:24:48Z</time>
      </trkpt>
      <trkpt lat="42.85933" lon="1.12297">
        <ele>1227.8</ele>
        <time>2025-07-21T05:24:54Z</time>
      </trkpt>
      <trkpt lat="42.85933" lon="1.12294">
        <ele>1228</ele>
        <time>2025-07-21T05:24:55Z</time>
      </trkpt>
      <trkpt lat="42.85931" lon="1.12277">
        <ele>1228.8</ele>
        <time>2025-07-21T05:25:01Z</time>
      </trkpt>
      <trkpt lat="42.8593" lon="1.12272">
        <ele>1229.2</ele>
        <time>2025-07-21T05:25:03Z</time>
      </trkpt>
      <trkpt lat="42.85927" lon="1.12259">
        <ele>1230</ele>
        <time>2025-07-21T05:25:08Z</time>
      </trkpt>
      <trkpt lat="42.85924" lon="1.12243">
        <ele>1231</ele>
        <time>2025-07-21T05:25:14Z</time>
      </trkpt>
      <trkpt lat="42.85924" lon="1.1224">
        <ele>1231.2</ele>
        <time>2025-07-21T05:25:15Z</time>
      </trkpt>
      <trkpt lat="42.85923" lon="1.1223">
        <ele>1231.8</ele>
        <time>2025-07-21T05:25:19Z</time>
      </trkpt>
      <trkpt lat="42.85923" lon="1.12227">
        <ele>1232</ele>
        <time>2025-07-21T05:25:20Z</time>
      </trkpt>
      <trkpt lat="42.85924" lon="1.12222">
        <ele>1232.4</ele>
        <time>2025-07-21T05:25:22Z</time>
      </trkpt>
      <trkpt lat="42.85926" lon="1.12207">
        <ele>1233.4</ele>
        <time>2025-07-21T05:25:28Z</time>
      </trkpt>
      <trkpt lat="42.85929" lon="1.12191">
        <ele>1234.6</ele>
        <time>2025-07-21T05:25:34Z</time>
      </trkpt>
      <trkpt lat="42.8593" lon="1.12189">
        <ele>1234.8</ele>
        <time>2025-07-21T05:25:35Z</time>
      </trkpt>
      <trkpt lat="42.85933" lon="1.1217">
        <ele>1235.8</ele>
        <time>2025-07-21T05:25:42Z</time>
      </trkpt>
      <trkpt lat="42.85936" lon="1.12151">
        <ele>1237</ele>
        <time>2025-07-21T05:25:49Z</time>
      </trkpt>
      <trkpt lat="42.85937" lon="1.12146">
        <ele>1237.4</ele>
        <time>2025-07-21T05:25:51Z</time>
      </trkpt>
      <trkpt lat="42.85939" lon="1.12134">
        <ele>1238.2</ele>
        <time>2025-07-21T05:25:55Z</time>
      </trkpt>
      <trkpt lat="42.85943" lon="1.12118">
        <ele>1238.8</ele>
        <time>2025-07-21T05:26:01Z</time>
      </trkpt>
      <trkpt lat="42.85943" lon="1.12116">
        <ele>1239.2</ele>
        <time>2025-07-21T05:26:02Z</time>
      </trkpt>
      <trkpt lat="42.85948" lon="1.12096">
        <ele>1240</ele>
        <time>2025-07-21T05:26:10Z</time>
      </trkpt>
      <trkpt lat="42.85948" lon="1.12093">
        <ele>1240.4</ele>
        <time>2025-07-21T05:26:11Z</time>
      </trkpt>
      <trkpt lat="42.85952" lon="1.12081">
        <ele>1240.8</ele>
        <time>2025-07-21T05:26:16Z</time>
      </trkpt>
      <trkpt lat="42.85953" lon="1.12078">
        <ele>1241.2</ele>
        <time>2025-07-21T05:26:17Z</time>
      </trkpt>
      <trkpt lat="42.8596" lon="1.12064">
        <ele>1242.2</ele>
        <time>2025-07-21T05:26:23Z</time>
      </trkpt>
      <trkpt lat="42.85965" lon="1.12055">
        <ele>1243</ele>
        <time>2025-07-21T05:26:27Z</time>
      </trkpt>
      <trkpt lat="42.85967" lon="1.1205">
        <ele>1243.4</ele>
        <time>2025-07-21T05:26:29Z</time>
      </trkpt>
      <trkpt lat="42.8597" lon="1.12045">
        <ele>1243.8</ele>
        <time>2025-07-21T05:26:32Z</time>
      </trkpt>
      <trkpt lat="42.85976" lon="1.12035">
        <ele>1244.6</ele>
        <time>2025-07-21T05:26:36Z</time>
      </trkpt>
      <trkpt lat="42.85981" lon="1.12024">
        <ele>1245.2</ele>
        <time>2025-07-21T05:26:40Z</time>
      </trkpt>
      <trkpt lat="42.85982" lon="1.12018">
        <ele>1245.6</ele>
        <time>2025-07-21T05:26:42Z</time>
      </trkpt>
      <trkpt lat="42.85981" lon="1.12003">
        <ele>1246.4</ele>
        <time>2025-07-21T05:26:48Z</time>
      </trkpt>
      <trkpt lat="42.8598" lon="1.12">
        <ele>1246.6</ele>
        <time>2025-07-21T05:26:49Z</time>
      </trkpt>
      <trkpt lat="42.85976" lon="1.1199">
        <ele>1247.4</ele>
        <time>2025-07-21T05:26:53Z</time>
      </trkpt>
      <trkpt lat="42.85975" lon="1.11988">
        <ele>1247.6</ele>
        <time>2025-07-21T05:26:54Z</time>
      </trkpt>
      <trkpt lat="42.85969" lon="1.11975">
        <ele>1248.6</ele>
        <time>2025-07-21T05:27:00Z</time>
      </trkpt>
      <trkpt lat="42.85967" lon="1.11973">
        <ele>1248.8</ele>
        <time>2025-07-21T05:27:01Z</time>
      </trkpt>
      <trkpt lat="42.85962" lon="1.11969">
        <ele>1249.6</ele>
        <time>2025-07-21T05:27:04Z</time>
      </trkpt>
      <trkpt lat="42.85956" lon="1.11962">
        <ele>1250.2</ele>
        <time>2025-07-21T05:27:08Z</time>
      </trkpt>
      <trkpt lat="42.85951" lon="1.11957">
        <ele>1250.8</ele>
        <time>2025-07-21T05:27:11Z</time>
      </trkpt>
      <trkpt lat="42.85942" lon="1.11946">
        <ele>1251.2</ele>
        <time>2025-07-21T05:27:17Z</time>
      </trkpt>
      <trkpt lat="42.85937" lon="1.1194">
        <ele>1251.8</ele>
        <time>2025-07-21T05:27:20Z</time>
      </trkpt>
      <trkpt lat="42.85932" lon="1.11932">
        <ele>1252.6</ele>
        <time>2025-07-21T05:27:24Z</time>
      </trkpt>
      <trkpt lat="42.8593" lon="1.11927">
        <ele>1252.8</ele>
        <time>2025-07-21T05:27:26Z</time>
      </trkpt>
      <trkpt lat="42.85926" lon="1.11913">
        <ele>1253.8</ele>
        <time>2025-07-21T05:27:31Z</time>
      </trkpt>
      <trkpt lat="42.85925" lon="1.11911">
        <ele>1253.8</ele>
        <time>2025-07-21T05:27:32Z</time>
      </trkpt>
      <trkpt lat="42.85924" lon="1.11899">
        <ele>1255</ele>
        <time>2025-07-21T05:27:37Z</time>
      </trkpt>
      <trkpt lat="42.85923" lon="1.11897">
        <ele>1255.2</ele>
        <time>2025-07-21T05:27:38Z</time>
      </trkpt>
      <trkpt lat="42.85926" lon="1.11885">
        <ele>1256.2</ele>
        <time>2025-07-21T05:27:43Z</time>
      </trkpt>
      <trkpt lat="42.85928" lon="1.11871">
        <ele>1257.4</ele>
        <time>2025-07-21T05:27:48Z</time>
      </trkpt>
      <trkpt lat="42.85929" lon="1.11866">
        <ele>1257.6</ele>
        <time>2025-07-21T05:27:50Z</time>
      </trkpt>
      <trkpt lat="42.85931" lon="1.11853">
        <ele>1258.4</ele>
        <time>2025-07-21T05:27:55Z</time>
      </trkpt>
      <trkpt lat="42.85931" lon="1.11849">
        <ele>1258.6</ele>
        <time>2025-07-21T05:27:56Z</time>
      </trkpt>
      <trkpt lat="42.85932" lon="1.11835">
        <ele>1259.6</ele>
        <time>2025-07-21T05:28:01Z</time>
      </trkpt>
      <trkpt lat="42.85933" lon="1.11831">
        <ele>1259.8</ele>
        <time>2025-07-21T05:28:02Z</time>
      </trkpt>
      <trkpt lat="42.85934" lon="1.11819">
        <ele>1260.6</ele>
        <time>2025-07-21T05:28:06Z</time>
      </trkpt>
      <trkpt lat="42.85936" lon="1.11802">
        <ele>1261.8</ele>
        <time>2025-07-21T05:28:12Z</time>
      </trkpt>
      <trkpt lat="42.85939" lon="1.11786">
        <ele>1262.6</ele>
        <time>2025-07-21T05:28:18Z</time>
      </trkpt>
      <trkpt lat="42.85941" lon="1.11781">
        <ele>1263</ele>
        <time>2025-07-21T05:28:20Z</time>
      </trkpt>
      <trkpt lat="42.85944" lon="1.11772">
        <ele>1263.6</ele>
        <time>2025-07-21T05:28:24Z</time>
      </trkpt>
      <trkpt lat="42.85944" lon="1.11769">
        <ele>1264</ele>
        <time>2025-07-21T05:28:25Z</time>
      </trkpt>
      <trkpt lat="42.85946" lon="1.11768">
        <ele>1264</ele>
        <time>2025-07-21T05:28:26Z</time>
      </trkpt>
      <trkpt lat="42.85949" lon="1.11762">
        <ele>1264.4</ele>
        <time>2025-07-21T05:28:29Z</time>
      </trkpt>
      <trkpt lat="42.85954" lon="1.11749">
        <ele>1265.2</ele>
        <time>2025-07-21T05:28:34Z</time>
      </trkpt>
      <trkpt lat="42.85954" lon="1.11747">
        <ele>1265.4</ele>
        <time>2025-07-21T05:28:35Z</time>
      </trkpt>
      <trkpt lat="42.85958" lon="1.11732">
        <ele>1266.2</ele>
        <time>2025-07-21T05:28:40Z</time>
      </trkpt>
      <trkpt lat="42.85961" lon="1.11725">
        <ele>1266.6</ele>
        <time>2025-07-21T05:28:43Z</time>
      </trkpt>
      <trkpt lat="42.85965" lon="1.11716">
        <ele>1267.4</ele>
        <time>2025-07-21T05:28:47Z</time>
      </trkpt>
      <trkpt lat="42.85967" lon="1.11704">
        <ele>1268</ele>
        <time>2025-07-21T05:28:51Z</time>
      </trkpt>
      <trkpt lat="42.85969" lon="1.11697">
        <ele>1268.6</ele>
        <time>2025-07-21T05:28:54Z</time>
      </trkpt>
      <trkpt lat="42.85972" lon="1.11684">
        <ele>1269.8</ele>
        <time>2025-07-21T05:28:59Z</time>
      </trkpt>
      <trkpt lat="42.85973" lon="1.11665">
        <ele>1270.6</ele>
        <time>2025-07-21T05:29:06Z</time>
      </trkpt>
      <trkpt lat="42.85972" lon="1.11651">
        <ele>1271.6</ele>
        <time>2025-07-21T05:29:11Z</time>
      </trkpt>
      <trkpt lat="42.85973" lon="1.1164">
        <ele>1272.2</ele>
        <time>2025-07-21T05:29:15Z</time>
      </trkpt>
      <trkpt lat="42.85973" lon="1.11635">
        <ele>1272.8</ele>
        <time>2025-07-21T05:29:17Z</time>
      </trkpt>
      <trkpt lat="42.85975" lon="1.11618">
        <ele>1273.8</ele>
        <time>2025-07-21T05:29:23Z</time>
      </trkpt>
      <trkpt lat="42.85975" lon="1.11613">
        <ele>1274</ele>
        <time>2025-07-21T05:29:25Z</time>
      </trkpt>
      <trkpt lat="42.85976" lon="1.11604">
        <ele>1275</ele>
        <time>2025-07-21T05:29:28Z</time>
      </trkpt>
      <trkpt lat="42.85979" lon="1.11587">
        <ele>1276</ele>
        <time>2025-07-21T05:29:34Z</time>
      </trkpt>
      <trkpt lat="42.85981" lon="1.1158">
        <ele>1276.6</ele>
        <time>2025-07-21T05:29:37Z</time>
      </trkpt>
      <trkpt lat="42.85982" lon="1.11575">
        <ele>1277.2</ele>
        <time>2025-07-21T05:29:39Z</time>
      </trkpt>
      <trkpt lat="42.85983" lon="1.11565">
        <ele>1277.8</ele>
        <time>2025-07-21T05:29:43Z</time>
      </trkpt>
      <trkpt lat="42.85986" lon="1.11556">
        <ele>1278.4</ele>
        <time>2025-07-21T05:29:47Z</time>
      </trkpt>
      <trkpt lat="42.85988" lon="1.11548">
        <ele>1279</ele>
        <time>2025-07-21T05:29:50Z</time>
      </trkpt>
      <trkpt lat="42.8599" lon="1.11539">
        <ele>1279.4</ele>
        <time>2025-07-21T05:29:53Z</time>
      </trkpt>
      <trkpt lat="42.85994" lon="1.11525">
        <ele>1280.4</ele>
        <time>2025-07-21T05:29:58Z</time>
      </trkpt>
      <trkpt lat="42.85997" lon="1.11513">
        <ele>1281</ele>
        <time>2025-07-21T05:30:02Z</time>
      </trkpt>
      <trkpt lat="42.86" lon="1.11504">
        <ele>1281.4</ele>
        <time>2025-07-21T05:30:05Z</time>
      </trkpt>
      <trkpt lat="42.86" lon="1.11501">
        <ele>1281.6</ele>
        <time>2025-07-21T05:30:06Z</time>
      </trkpt>
      <trkpt lat="42.86006" lon="1.11489">
        <ele>1282.2</ele>
        <time>2025-07-21T05:30:11Z</time>
      </trkpt>
      <trkpt lat="42.86007" lon="1.11487">
        <ele>1282.4</ele>
        <time>2025-07-21T05:30:12Z</time>
      </trkpt>
      <trkpt lat="42.86008" lon="1.11484">
        <ele>1282.8</ele>
        <time>2025-07-21T05:30:13Z</time>
      </trkpt>
      <trkpt lat="42.86015" lon="1.11466">
        <ele>1283.8</ele>
        <time>2025-07-21T05:30:20Z</time>
      </trkpt>
      <trkpt lat="42.86019" lon="1.11448">
        <ele>1284.8</ele>
        <time>2025-07-21T05:30:26Z</time>
      </trkpt>
      <trkpt lat="42.86019" lon="1.11442">
        <ele>1285.2</ele>
        <time>2025-07-21T05:30:28Z</time>
      </trkpt>
      <trkpt lat="42.8602" lon="1.11427">
        <ele>1286</ele>
        <time>2025-07-21T05:30:33Z</time>
      </trkpt>
      <trkpt lat="42.86021" lon="1.11418">
        <ele>1286</ele>
        <time>2025-07-21T05:30:36Z</time>
      </trkpt>
      <trkpt lat="42.86024" lon="1.11403">
        <ele>1286.8</ele>
        <time>2025-07-21T05:30:41Z</time>
      </trkpt>
      <trkpt lat="42.86027" lon="1.1139">
        <ele>1287.4</ele>
        <time>2025-07-21T05:30:45Z</time>
      </trkpt>
      <trkpt lat="42.86029" lon="1.11388">
        <ele>1287.4</ele>
        <time>2025-07-21T05:30:46Z</time>
      </trkpt>
      <trkpt lat="42.86032" lon="1.1138">
        <ele>1288</ele>
        <time>2025-07-21T05:30:49Z</time>
      </trkpt>
      <trkpt lat="42.86035" lon="1.11355">
        <ele>1289</ele>
        <time>2025-07-21T05:30:56Z</time>
      </trkpt>
      <trkpt lat="42.86028" lon="1.11337">
        <ele>1289.8</ele>
        <time>2025-07-21T05:31:02Z</time>
      </trkpt>
      <trkpt lat="42.86024" lon="1.11332">
        <ele>1290</ele>
        <time>2025-07-21T05:31:04Z</time>
      </trkpt>
      <trkpt lat="42.86017" lon="1.11321">
        <ele>1290.6</ele>
        <time>2025-07-21T05:31:08Z</time>
      </trkpt>
      <trkpt lat="42.86009" lon="1.1131">
        <ele>1291.2</ele>
        <time>2025-07-21T05:31:13Z</time>
      </trkpt>
      <trkpt lat="42.86002" lon="1.11298">
        <ele>1291.8</ele>
        <time>2025-07-21T05:31:18Z</time>
      </trkpt>
      <trkpt lat="42.85998" lon="1.11288">
        <ele>1292</ele>
        <time>2025-07-21T05:31:21Z</time>
      </trkpt>
      <trkpt lat="42.8599" lon="1.11262">
        <ele>1293</ele>
        <time>2025-07-21T05:31:29Z</time>
      </trkpt>
      <trkpt lat="42.85988" lon="1.11255">
        <ele>1293.2</ele>
        <time>2025-07-21T05:31:31Z</time>
      </trkpt>
      <trkpt lat="42.85984" lon="1.11239">
        <ele>1293.8</ele>
        <time>2025-07-21T05:31:36Z</time>
      </trkpt>
      <trkpt lat="42.85982" lon="1.1123">
        <ele>1294.2</ele>
        <time>2025-07-21T05:31:39Z</time>
      </trkpt>
      <trkpt lat="42.85979" lon="1.11212">
        <ele>1294.8</ele>
        <time>2025-07-21T05:31:44Z</time>
      </trkpt>
      <trkpt lat="42.85977" lon="1.11197">
        <ele>1295.2</ele>
        <time>2025-07-21T05:31:48Z</time>
      </trkpt>
      <trkpt lat="42.85977" lon="1.11186">
        <ele>1295.4</ele>
        <time>2025-07-21T05:31:51Z</time>
      </trkpt>
      <trkpt lat="42.85985" lon="1.11161">
        <ele>1296</ele>
        <time>2025-07-21T05:31:58Z</time>
      </trkpt>
      <trkpt lat="42.85988" lon="1.11155">
        <ele>1296.4</ele>
        <time>2025-07-21T05:32:00Z</time>
      </trkpt>
      <trkpt lat="42.85994" lon="1.11143">
        <ele>1297.2</ele>
        <time>2025-07-21T05:32:04Z</time>
      </trkpt>
      <trkpt lat="42.85996" lon="1.11136">
        <ele>1297.6</ele>
        <time>2025-07-21T05:32:06Z</time>
      </trkpt>
      <trkpt lat="42.85998" lon="1.11133">
        <ele>1297.6</ele>
        <time>2025-07-21T05:32:07Z</time>
      </trkpt>
      <trkpt lat="42.85999" lon="1.11125">
        <ele>1298</ele>
        <time>2025-07-21T05:32:09Z</time>
      </trkpt>
      <trkpt lat="42.86" lon="1.11113">
        <ele>1298.4</ele>
        <time>2025-07-21T05:32:12Z</time>
      </trkpt>
      <trkpt lat="42.86001" lon="1.11094">
        <ele>1299.2</ele>
        <time>2025-07-21T05:32:17Z</time>
      </trkpt>
      <trkpt lat="42.86" lon="1.11082">
        <ele>1299.6</ele>
        <time>2025-07-21T05:32:20Z</time>
      </trkpt>
      <trkpt lat="42.85998" lon="1.1106">
        <ele>1300.4</ele>
        <time>2025-07-21T05:32:26Z</time>
      </trkpt>
      <trkpt lat="42.85997" lon="1.11056">
        <ele>1300.6</ele>
        <time>2025-07-21T05:32:27Z</time>
      </trkpt>
      <trkpt lat="42.85992" lon="1.1103">
        <ele>1301.6</ele>
        <time>2025-07-21T05:32:34Z</time>
      </trkpt>
      <trkpt lat="42.85991" lon="1.11027">
        <ele>1302</ele>
        <time>2025-07-21T05:32:35Z</time>
      </trkpt>
      <trkpt lat="42.85985" lon="1.11014">
        <ele>1302.4</ele>
        <time>2025-07-21T05:32:39Z</time>
      </trkpt>
      <trkpt lat="42.85979" lon="1.11006">
        <ele>1302.8</ele>
        <time>2025-07-21T05:32:42Z</time>
      </trkpt>
      <trkpt lat="42.85968" lon="1.10995">
        <ele>1303.6</ele>
        <time>2025-07-21T05:32:47Z</time>
      </trkpt>
      <trkpt lat="42.85961" lon="1.10988">
        <ele>1304</ele>
        <time>2025-07-21T05:32:50Z</time>
      </trkpt>
      <trkpt lat="42.85955" lon="1.10981">
        <ele>1304.2</ele>
        <time>2025-07-21T05:32:53Z</time>
      </trkpt>
      <trkpt lat="42.8595" lon="1.10975">
        <ele>1304.8</ele>
        <time>2025-07-21T05:32:56Z</time>
      </trkpt>
      <trkpt lat="42.85941" lon="1.10966">
        <ele>1305.4</ele>
        <time>2025-07-21T05:33:00Z</time>
      </trkpt>
      <trkpt lat="42.85937" lon="1.10962">
        <ele>1305.8</ele>
        <time>2025-07-21T05:33:02Z</time>
      </trkpt>
      <trkpt lat="42.85923" lon="1.10951">
        <ele>1306.8</ele>
        <time>2025-07-21T05:33:08Z</time>
      </trkpt>
      <trkpt lat="42.8592" lon="1.10951">
        <ele>1307</ele>
        <time>2025-07-21T05:33:09Z</time>
      </trkpt>
      <trkpt lat="42.85908" lon="1.10944">
        <ele>1307.8</ele>
        <time>2025-07-21T05:33:14Z</time>
      </trkpt>
      <trkpt lat="42.85906" lon="1.10942">
        <ele>1308</ele>
        <time>2025-07-21T05:33:15Z</time>
      </trkpt>
      <trkpt lat="42.85898" lon="1.10926">
        <ele>1309.2</ele>
        <time>2025-07-21T05:33:21Z</time>
      </trkpt>
      <trkpt lat="42.85891" lon="1.109">
        <ele>1310</ele>
        <time>2025-07-21T05:33:29Z</time>
      </trkpt>
      <trkpt lat="42.8589" lon="1.10897">
        <ele>1310.2</ele>
        <time>2025-07-21T05:33:30Z</time>
      </trkpt>
      <trkpt lat="42.85887" lon="1.1088">
        <ele>1311.2</ele>
        <time>2025-07-21T05:33:35Z</time>
      </trkpt>
      <trkpt lat="42.85883" lon="1.10867">
        <ele>1311.8</ele>
        <time>2025-07-21T05:33:39Z</time>
      </trkpt>
      <trkpt lat="42.85882" lon="1.10861">
        <ele>1312.2</ele>
        <time>2025-07-21T05:33:41Z</time>
      </trkpt>
      <trkpt lat="42.85877" lon="1.1084">
        <ele>1313</ele>
        <time>2025-07-21T05:33:48Z</time>
      </trkpt>
      <trkpt lat="42.85876" lon="1.10837">
        <ele>1313.4</ele>
        <time>2025-07-21T05:33:49Z</time>
      </trkpt>
      <trkpt lat="42.85872" lon="1.10822">
        <ele>1314.4</ele>
        <time>2025-07-21T05:33:54Z</time>
      </trkpt>
      <trkpt lat="42.85871" lon="1.10819">
        <ele>1314.6</ele>
        <time>2025-07-21T05:33:55Z</time>
      </trkpt>
      <trkpt lat="42.85866" lon="1.108">
        <ele>1315.6</ele>
        <time>2025-07-21T05:34:02Z</time>
      </trkpt>
      <trkpt lat="42.85865" lon="1.10794">
        <ele>1316</ele>
        <time>2025-07-21T05:34:04Z</time>
      </trkpt>
      <trkpt lat="42.85862" lon="1.10787">
        <ele>1316.4</ele>
        <time>2025-07-21T05:34:07Z</time>
      </trkpt>
      <trkpt lat="42.85858" lon="1.10776">
        <ele>1317.4</ele>
        <time>2025-07-21T05:34:12Z</time>
      </trkpt>
      <trkpt lat="42.85857" lon="1.10774">
        <ele>1317.4</ele>
        <time>2025-07-21T05:34:13Z</time>
      </trkpt>
      <trkpt lat="42.85852" lon="1.10764">
        <ele>1318.4</ele>
        <time>2025-07-21T05:34:18Z</time>
      </trkpt>
      <trkpt lat="42.8585" lon="1.10758">
        <ele>1318.8</ele>
        <time>2025-07-21T05:34:20Z</time>
      </trkpt>
      <trkpt lat="42.85848" lon="1.1075">
        <ele>1319.6</ele>
        <time>2025-07-21T05:34:23Z</time>
      </trkpt>
      <trkpt lat="42.85841" lon="1.10735">
        <ele>1320.4</ele>
        <time>2025-07-21T05:34:28Z</time>
      </trkpt>
      <trkpt lat="42.85839" lon="1.10732">
        <ele>1320.6</ele>
        <time>2025-07-21T05:34:29Z</time>
      </trkpt>
      <trkpt lat="42.85827" lon="1.10719">
        <ele>1321.8</ele>
        <time>2025-07-21T05:34:35Z</time>
      </trkpt>
      <trkpt lat="42.85814" lon="1.1071">
        <ele>1322.8</ele>
        <time>2025-07-21T05:34:41Z</time>
      </trkpt>
      <trkpt lat="42.85809" lon="1.10706">
        <ele>1323.2</ele>
        <time>2025-07-21T05:34:43Z</time>
      </trkpt>
      <trkpt lat="42.85799" lon="1.10699">
        <ele>1323.6</ele>
        <time>2025-07-21T05:34:48Z</time>
      </trkpt>
      <trkpt lat="42.85791" lon="1.10693">
        <ele>1324.2</ele>
        <time>2025-07-21T05:34:52Z</time>
      </trkpt>
      <trkpt lat="42.85787" lon="1.10689">
        <ele>1324.6</ele>
        <time>2025-07-21T05:34:54Z</time>
      </trkpt>
      <trkpt lat="42.85775" lon="1.1068">
        <ele>1325.8</ele>
        <time>2025-07-21T05:35:00Z</time>
      </trkpt>
      <trkpt lat="42.85769" lon="1.10676">
        <ele>1326.4</ele>
        <time>2025-07-21T05:35:03Z</time>
      </trkpt>
      <trkpt lat="42.85761" lon="1.10671">
        <ele>1327.2</ele>
        <time>2025-07-21T05:35:07Z</time>
      </trkpt>
      <trkpt lat="42.85749" lon="1.10662">
        <ele>1328.2</ele>
        <time>2025-07-21T05:35:13Z</time>
      </trkpt>
      <trkpt lat="42.85747" lon="1.10661">
        <ele>1328.4</ele>
        <time>2025-07-21T05:35:14Z</time>
      </trkpt>
      <trkpt lat="42.85737" lon="1.10654">
        <ele>1329.4</ele>
        <time>2025-07-21T05:35:19Z</time>
      </trkpt>
      <trkpt lat="42.85725" lon="1.10647">
        <ele>1330.4</ele>
        <time>2025-07-21T05:35:25Z</time>
      </trkpt>
      <trkpt lat="42.85722" lon="1.10646">
        <ele>1330.6</ele>
        <time>2025-07-21T05:35:26Z</time>
      </trkpt>
      <trkpt lat="42.85709" lon="1.10639">
        <ele>1331.6</ele>
        <time>2025-07-21T05:35:32Z</time>
      </trkpt>
      <trkpt lat="42.85707" lon="1.10638">
        <ele>1331.6</ele>
        <time>2025-07-21T05:35:33Z</time>
      </trkpt>
      <trkpt lat="42.85696" lon="1.10633">
        <ele>1332.6</ele>
        <time>2025-07-21T05:35:38Z</time>
      </trkpt>
      <trkpt lat="42.85691" lon="1.10632">
        <ele>1333</ele>
        <time>2025-07-21T05:35:40Z</time>
      </trkpt>
      <trkpt lat="42.85682" lon="1.10629">
        <ele>1333.6</ele>
        <time>2025-07-21T05:35:44Z</time>
      </trkpt>
      <trkpt lat="42.85672" lon="1.10629">
        <ele>1334</ele>
        <time>2025-07-21T05:35:48Z</time>
      </trkpt>
      <trkpt lat="42.85663" lon="1.10634">
        <ele>1334.6</ele>
        <time>2025-07-21T05:35:52Z</time>
      </trkpt>
      <trkpt lat="42.85657" lon="1.10639">
        <ele>1335</ele>
        <time>2025-07-21T05:35:55Z</time>
      </trkpt>
      <trkpt lat="42.85651" lon="1.10646">
        <ele>1335.8</ele>
        <time>2025-07-21T05:35:58Z</time>
      </trkpt>
      <trkpt lat="42.85648" lon="1.10653">
        <ele>1336.4</ele>
        <time>2025-07-21T05:36:01Z</time>
      </trkpt>
      <trkpt lat="42.85645" lon="1.10659">
        <ele>1337</ele>
        <time>2025-07-21T05:36:03Z</time>
      </trkpt>
      <trkpt lat="42.8564" lon="1.10672">
        <ele>1338</ele>
        <time>2025-07-21T05:36:08Z</time>
      </trkpt>
      <trkpt lat="42.85636" lon="1.10687">
        <ele>1339.4</ele>
        <time>2025-07-21T05:36:13Z</time>
      </trkpt>
      <trkpt lat="42.85634" lon="1.10692">
        <ele>1339.8</ele>
        <time>2025-07-21T05:36:15Z</time>
      </trkpt>
      <trkpt lat="42.8563" lon="1.10704">
        <ele>1340.6</ele>
        <time>2025-07-21T05:36:19Z</time>
      </trkpt>
      <trkpt lat="42.85626" lon="1.10715">
        <ele>1341</ele>
        <time>2025-07-21T05:36:23Z</time>
      </trkpt>
      <trkpt lat="42.85623" lon="1.10723">
        <ele>1341.8</ele>
        <time>2025-07-21T05:36:26Z</time>
      </trkpt>
      <trkpt lat="42.85616" lon="1.10742">
        <ele>1342.8</ele>
        <time>2025-07-21T05:36:33Z</time>
      </trkpt>
      <trkpt lat="42.85611" lon="1.10757">
        <ele>1343.6</ele>
        <time>2025-07-21T05:36:38Z</time>
      </trkpt>
      <trkpt lat="42.85607" lon="1.10772">
        <ele>1344.4</ele>
        <time>2025-07-21T05:36:43Z</time>
      </trkpt>
      <trkpt lat="42.85606" lon="1.10779">
        <ele>1344.6</ele>
        <time>2025-07-21T05:36:45Z</time>
      </trkpt>
      <trkpt lat="42.856" lon="1.10797">
        <ele>1345.8</ele>
        <time>2025-07-21T05:36:51Z</time>
      </trkpt>
      <trkpt lat="42.85595" lon="1.10818">
        <ele>1346.8</ele>
        <time>2025-07-21T05:36:58Z</time>
      </trkpt>
      <trkpt lat="42.85594" lon="1.10831">
        <ele>1347.2</ele>
        <time>2025-07-21T05:37:02Z</time>
      </trkpt>
      <trkpt lat="42.85589" lon="1.10842">
        <ele>1347.8</ele>
        <time>2025-07-21T05:37:06Z</time>
      </trkpt>
      <trkpt lat="42.85587" lon="1.10844">
        <ele>1348</ele>
        <time>2025-07-21T05:37:07Z</time>
      </trkpt>
      <trkpt lat="42.85585" lon="1.10843">
        <ele>1348</ele>
        <time>2025-07-21T05:37:08Z</time>
      </trkpt>
      <trkpt lat="42.85581" lon="1.10839">
        <ele>1348.2</ele>
        <time>2025-07-21T05:37:10Z</time>
      </trkpt>
      <trkpt lat="42.85581" lon="1.10828">
        <ele>1348.6</ele>
        <time>2025-07-21T05:37:13Z</time>
      </trkpt>
      <trkpt lat="42.85582" lon="1.10821">
        <ele>1348.8</ele>
        <time>2025-07-21T05:37:15Z</time>
      </trkpt>
      <trkpt lat="42.85584" lon="1.10806">
        <ele>1349.6</ele>
        <time>2025-07-21T05:37:20Z</time>
      </trkpt>
      <trkpt lat="42.85587" lon="1.10797">
        <ele>1350.2</ele>
        <time>2025-07-21T05:37:23Z</time>
      </trkpt>
      <trkpt lat="42.85588" lon="1.10786">
        <ele>1350.8</ele>
        <time>2025-07-21T05:37:27Z</time>
      </trkpt>
      <trkpt lat="42.85588" lon="1.10783">
        <ele>1351</ele>
        <time>2025-07-21T05:37:28Z</time>
      </trkpt>
      <trkpt lat="42.85589" lon="1.10775">
        <ele>1351.4</ele>
        <time>2025-07-21T05:37:31Z</time>
      </trkpt>
      <trkpt lat="42.85589" lon="1.10769">
        <ele>1351.6</ele>
        <time>2025-07-21T05:37:33Z</time>
      </trkpt>
      <trkpt lat="42.8559" lon="1.10766">
        <ele>1351.8</ele>
        <time>2025-07-21T05:37:34Z</time>
      </trkpt>
      <trkpt lat="42.85592" lon="1.1075">
        <ele>1352.6</ele>
        <time>2025-07-21T05:37:39Z</time>
      </trkpt>
      <trkpt lat="42.85593" lon="1.10746">
        <ele>1352.8</ele>
        <time>2025-07-21T05:37:40Z</time>
      </trkpt>
      <trkpt lat="42.85597" lon="1.10726">
        <ele>1353.6</ele>
        <time>2025-07-21T05:37:45Z</time>
      </trkpt>
      <trkpt lat="42.85598" lon="1.10719">
        <ele>1354</ele>
        <time>2025-07-21T05:37:47Z</time>
      </trkpt>
      <trkpt lat="42.85596" lon="1.10703">
        <ele>1355</ele>
        <time>2025-07-21T05:37:52Z</time>
      </trkpt>
      <trkpt lat="42.85597" lon="1.107">
        <ele>1355</ele>
        <time>2025-07-21T05:37:53Z</time>
      </trkpt>
      <trkpt lat="42.85598" lon="1.10685">
        <ele>1355.8</ele>
        <time>2025-07-21T05:37:58Z</time>
      </trkpt>
      <trkpt lat="42.85598" lon="1.10682">
        <ele>1356</ele>
        <time>2025-07-21T05:37:59Z</time>
      </trkpt>
      <trkpt lat="42.85599" lon="1.10667">
        <ele>1357.2</ele>
        <time>2025-07-21T05:38:04Z</time>
      </trkpt>
      <trkpt lat="42.85599" lon="1.10645">
        <ele>1358.2</ele>
        <time>2025-07-21T05:38:11Z</time>
      </trkpt>
      <trkpt lat="42.85598" lon="1.10642">
        <ele>1358.6</ele>
        <time>2025-07-21T05:38:12Z</time>
      </trkpt>
      <trkpt lat="42.85597" lon="1.10639">
        <ele>1358.6</ele>
        <time>2025-07-21T05:38:13Z</time>
      </trkpt>
      <trkpt lat="42.85599" lon="1.10633">
        <ele>1359</ele>
        <time>2025-07-21T05:38:15Z</time>
      </trkpt>
      <trkpt lat="42.85602" lon="1.1062">
        <ele>1359.8</ele>
        <time>2025-07-21T05:38:19Z</time>
      </trkpt>
      <trkpt lat="42.85604" lon="1.10608">
        <ele>1360.6</ele>
        <time>2025-07-21T05:38:23Z</time>
      </trkpt>
      <trkpt lat="42.85604" lon="1.10605">
        <ele>1360.8</ele>
        <time>2025-07-21T05:38:24Z</time>
      </trkpt>
      <trkpt lat="42.85606" lon="1.10593">
        <ele>1361.6</ele>
        <time>2025-07-21T05:38:29Z</time>
      </trkpt>
      <trkpt lat="42.85607" lon="1.1059">
        <ele>1361.6</ele>
        <time>2025-07-21T05:38:30Z</time>
      </trkpt>
      <trkpt lat="42.85611" lon="1.10576">
        <ele>1362.6</ele>
        <time>2025-07-21T05:38:35Z</time>
      </trkpt>
      <trkpt lat="42.85615" lon="1.10567">
        <ele>1363.2</ele>
        <time>2025-07-21T05:38:38Z</time>
      </trkpt>
      <trkpt lat="42.85619" lon="1.10559">
        <ele>1363.8</ele>
        <time>2025-07-21T05:38:41Z</time>
      </trkpt>
      <trkpt lat="42.85629" lon="1.10549">
        <ele>1364.6</ele>
        <time>2025-07-21T05:38:46Z</time>
      </trkpt>
      <trkpt lat="42.85633" lon="1.10547">
        <ele>1364.8</ele>
        <time>2025-07-21T05:38:48Z</time>
      </trkpt>
      <trkpt lat="42.85635" lon="1.10546">
        <ele>1365</ele>
        <time>2025-07-21T05:38:49Z</time>
      </trkpt>
      <trkpt lat="42.85647" lon="1.10542">
        <ele>1366</ele>
        <time>2025-07-21T05:38:54Z</time>
      </trkpt>
      <trkpt lat="42.85649" lon="1.10542">
        <ele>1366.2</ele>
        <time>2025-07-21T05:38:55Z</time>
      </trkpt>
      <trkpt lat="42.8566" lon="1.1054">
        <ele>1367</ele>
        <time>2025-07-21T05:39:00Z</time>
      </trkpt>
      <trkpt lat="42.85671" lon="1.1054">
        <ele>1368</ele>
        <time>2025-07-21T05:39:05Z</time>
      </trkpt>
      <trkpt lat="42.85674" lon="1.1054">
        <ele>1368.4</ele>
        <time>2025-07-21T05:39:06Z</time>
      </trkpt>
      <trkpt lat="42.85683" lon="1.1054">
        <ele>1369</ele>
        <time>2025-07-21T05:39:10Z</time>
      </trkpt>
      <trkpt lat="42.85695" lon="1.1054">
        <ele>1369.8</ele>
        <time>2025-07-21T05:39:15Z</time>
      </trkpt>
      <trkpt lat="42.85703" lon="1.1054">
        <ele>1370.2</ele>
        <time>2025-07-21T05:39:18Z</time>
      </trkpt>
      <trkpt lat="42.85714" lon="1.10539">
        <ele>1371.4</ele>
        <time>2025-07-21T05:39:23Z</time>
      </trkpt>
      <trkpt lat="42.85717" lon="1.10539">
        <ele>1371.4</ele>
        <time>2025-07-21T05:39:24Z</time>
      </trkpt>
      <trkpt lat="42.8573" lon="1.1054">
        <ele>1372.4</ele>
        <time>2025-07-21T05:39:30Z</time>
      </trkpt>
      <trkpt lat="42.85735" lon="1.1054">
        <ele>1372.8</ele>
        <time>2025-07-21T05:39:32Z</time>
      </trkpt>
      <trkpt lat="42.85742" lon="1.1054">
        <ele>1373.6</ele>
        <time>2025-07-21T05:39:35Z</time>
      </trkpt>
      <trkpt lat="42.85753" lon="1.1054">
        <ele>1375</ele>
        <time>2025-07-21T05:39:40Z</time>
      </trkpt>
      <trkpt lat="42.85757" lon="1.1054">
        <ele>1375.4</ele>
        <time>2025-07-21T05:39:42Z</time>
      </trkpt>
      <trkpt lat="42.85762" lon="1.1054">
        <ele>1376</ele>
        <time>2025-07-21T05:39:44Z</time>
      </trkpt>
      <trkpt lat="42.85775" lon="1.10537">
        <ele>1377</ele>
        <time>2025-07-21T05:39:50Z</time>
      </trkpt>
      <trkpt lat="42.85782" lon="1.10536">
        <ele>1377.4</ele>
        <time>2025-07-21T05:39:53Z</time>
      </trkpt>
      <trkpt lat="42.85794" lon="1.10532">
        <ele>1378</ele>
        <time>2025-07-21T05:39:58Z</time>
      </trkpt>
      <trkpt lat="42.85803" lon="1.10527">
        <ele>1378.6</ele>
        <time>2025-07-21T05:40:02Z</time>
      </trkpt>
      <trkpt lat="42.85815" lon="1.10522">
        <ele>1379.2</ele>
        <time>2025-07-21T05:40:07Z</time>
      </trkpt>
      <trkpt lat="42.8583" lon="1.10514">
        <ele>1379.8</ele>
        <time>2025-07-21T05:40:13Z</time>
      </trkpt>
      <trkpt lat="42.8584" lon="1.10509">
        <ele>1380.2</ele>
        <time>2025-07-21T05:40:17Z</time>
      </trkpt>
      <trkpt lat="42.8585" lon="1.10507">
        <ele>1380.8</ele>
        <time>2025-07-21T05:40:21Z</time>
      </trkpt>
      <trkpt lat="42.85862" lon="1.10503">
        <ele>1381.4</ele>
        <time>2025-07-21T05:40:26Z</time>
      </trkpt>
      <trkpt lat="42.85871" lon="1.10501">
        <ele>1381.8</ele>
        <time>2025-07-21T05:40:30Z</time>
      </trkpt>
      <trkpt lat="42.85873" lon="1.105">
        <ele>1382.2</ele>
        <time>2025-07-21T05:40:34Z</time>
      </trkpt>
      <trkpt lat="42.85881" lon="1.10497">
        <ele>1382</ele>
        <time>2025-07-21T05:50:26Z</time>
      </trkpt>
      <trkpt lat="42.85886" lon="1.10496">
        <ele>1382</ele>
        <time>2025-07-21T05:50:28Z</time>
      </trkpt>
      <trkpt lat="42.85889" lon="1.10496">
        <ele>1382</ele>
        <time>2025-07-21T05:50:29Z</time>
      </trkpt>
      <trkpt lat="42.85907" lon="1.10494">
        <ele>1381.8</ele>
        <time>2025-07-21T05:50:35Z</time>
      </trkpt>
      <trkpt lat="42.85925" lon="1.10486">
        <ele>1381.6</ele>
        <time>2025-07-21T05:50:40Z</time>
      </trkpt>
      <trkpt lat="42.85933" lon="1.10481">
        <ele>1381.4</ele>
        <time>2025-07-21T05:50:42Z</time>
      </trkpt>
      <trkpt lat="42.85942" lon="1.10476">
        <ele>1381.2</ele>
        <time>2025-07-21T05:50:44Z</time>
      </trkpt>
      <trkpt lat="42.85947" lon="1.10474">
        <ele>1381</ele>
        <time>2025-07-21T05:50:45Z</time>
      </trkpt>
      <trkpt lat="42.85968" lon="1.10466">
        <ele>1380</ele>
        <time>2025-07-21T05:50:49Z</time>
      </trkpt>
      <trkpt lat="42.85973" lon="1.10465">
        <ele>1380</ele>
        <time>2025-07-21T05:50:50Z</time>
      </trkpt>
      <trkpt lat="42.85979" lon="1.10465">
        <ele>1379.8</ele>
        <time>2025-07-21T05:50:51Z</time>
      </trkpt>
      <trkpt lat="42.85984" lon="1.10467">
        <ele>1379.6</ele>
        <time>2025-07-21T05:50:52Z</time>
      </trkpt>
      <trkpt lat="42.85996" lon="1.10472">
        <ele>1379.2</ele>
        <time>2025-07-21T05:50:54Z</time>
      </trkpt>
      <trkpt lat="42.86001" lon="1.10476">
        <ele>1379.2</ele>
        <time>2025-07-21T05:50:55Z</time>
      </trkpt>
      <trkpt lat="42.86006" lon="1.1048">
        <ele>1378.8</ele>
        <time>2025-07-21T05:50:56Z</time>
      </trkpt>
      <trkpt lat="42.8601" lon="1.10485">
        <ele>1378.4</ele>
        <time>2025-07-21T05:50:57Z</time>
      </trkpt>
      <trkpt lat="42.86017" lon="1.10495">
        <ele>1377.8</ele>
        <time>2025-07-21T05:50:59Z</time>
      </trkpt>
      <trkpt lat="42.8602" lon="1.10501">
        <ele>1377.4</ele>
        <time>2025-07-21T05:51:00Z</time>
      </trkpt>
      <trkpt lat="42.86027" lon="1.10514">
        <ele>1376.4</ele>
        <time>2025-07-21T05:51:02Z</time>
      </trkpt>
      <trkpt lat="42.86042" lon="1.10541">
        <ele>1374.8</ele>
        <time>2025-07-21T05:51:06Z</time>
      </trkpt>
      <trkpt lat="42.86054" lon="1.10562">
        <ele>1373.4</ele>
        <time>2025-07-21T05:51:09Z</time>
      </trkpt>
      <trkpt lat="42.8608" lon="1.10594">
        <ele>1372.4</ele>
        <time>2025-07-21T05:51:14Z</time>
      </trkpt>
      <trkpt lat="42.86108" lon="1.10612">
        <ele>1370.8</ele>
        <time>2025-07-21T05:51:18Z</time>
      </trkpt>
      <trkpt lat="42.86116" lon="1.10615">
        <ele>1370.4</ele>
        <time>2025-07-21T05:51:19Z</time>
      </trkpt>
      <trkpt lat="42.86132" lon="1.1062">
        <ele>1369.6</ele>
        <time>2025-07-21T05:51:21Z</time>
      </trkpt>
      <trkpt lat="42.86158" lon="1.10625">
        <ele>1367.8</ele>
        <time>2025-07-21T05:51:24Z</time>
      </trkpt>
      <trkpt lat="42.86175" lon="1.10625">
        <ele>1366.6</ele>
        <time>2025-07-21T05:51:26Z</time>
      </trkpt>
      <trkpt lat="42.86191" lon="1.10619">
        <ele>1365.6</ele>
        <time>2025-07-21T05:51:28Z</time>
      </trkpt>
      <trkpt lat="42.862" lon="1.10615">
        <ele>1365.2</ele>
        <time>2025-07-21T05:51:29Z</time>
      </trkpt>
      <trkpt lat="42.86216" lon="1.10604">
        <ele>1364.2</ele>
        <time>2025-07-21T05:51:31Z</time>
      </trkpt>
      <trkpt lat="42.86225" lon="1.10598">
        <ele>1363.8</ele>
        <time>2025-07-21T05:51:32Z</time>
      </trkpt>
      <trkpt lat="42.86234" lon="1.10592">
        <ele>1362.8</ele>
        <time>2025-07-21T05:51:33Z</time>
      </trkpt>
      <trkpt lat="42.86252" lon="1.10582">
        <ele>1361.6</ele>
        <time>2025-07-21T05:51:35Z</time>
      </trkpt>
      <trkpt lat="42.86271" lon="1.10571">
        <ele>1360.4</ele>
        <time>2025-07-21T05:51:37Z</time>
      </trkpt>
      <trkpt lat="42.8628" lon="1.10566">
        <ele>1359.2</ele>
        <time>2025-07-21T05:51:38Z</time>
      </trkpt>
      <trkpt lat="42.86299" lon="1.10557">
        <ele>1357.6</ele>
        <time>2025-07-21T05:51:40Z</time>
      </trkpt>
      <trkpt lat="42.86308" lon="1.10553">
        <ele>1356.2</ele>
        <time>2025-07-21T05:51:41Z</time>
      </trkpt>
      <trkpt lat="42.86326" lon="1.10543">
        <ele>1354.4</ele>
        <time>2025-07-21T05:51:43Z</time>
      </trkpt>
      <trkpt lat="42.86346" lon="1.10534">
        <ele>1352.4</ele>
        <time>2025-07-21T05:51:45Z</time>
      </trkpt>
      <trkpt lat="42.86354" lon="1.10531">
        <ele>1351.2</ele>
        <time>2025-07-21T05:51:46Z</time>
      </trkpt>
      <trkpt lat="42.86372" lon="1.10524">
        <ele>1349.8</ele>
        <time>2025-07-21T05:51:48Z</time>
      </trkpt>
      <trkpt lat="42.86392" lon="1.1052">
        <ele>1348.6</ele>
        <time>2025-07-21T05:51:50Z</time>
      </trkpt>
      <trkpt lat="42.86402" lon="1.10518">
        <ele>1347.2</ele>
        <time>2025-07-21T05:51:51Z</time>
      </trkpt>
      <trkpt lat="42.86421" lon="1.10515">
        <ele>1346</ele>
        <time>2025-07-21T05:51:53Z</time>
      </trkpt>
      <trkpt lat="42.86439" lon="1.10512">
        <ele>1344</ele>
        <time>2025-07-21T05:51:55Z</time>
      </trkpt>
      <trkpt lat="42.86457" lon="1.10507">
        <ele>1343</ele>
        <time>2025-07-21T05:51:57Z</time>
      </trkpt>
      <trkpt lat="42.86466" lon="1.10504">
        <ele>1342.2</ele>
        <time>2025-07-21T05:51:58Z</time>
      </trkpt>
      <trkpt lat="42.86473" lon="1.10501">
        <ele>1341.6</ele>
        <time>2025-07-21T05:51:59Z</time>
      </trkpt>
      <trkpt lat="42.86485" lon="1.10489">
        <ele>1340</ele>
        <time>2025-07-21T05:52:01Z</time>
      </trkpt>
      <trkpt lat="42.86491" lon="1.10468">
        <ele>1338.4</ele>
        <time>2025-07-21T05:52:03Z</time>
      </trkpt>
      <trkpt lat="42.86493" lon="1.10456">
        <ele>1337.8</ele>
        <time>2025-07-21T05:52:04Z</time>
      </trkpt>
      <trkpt lat="42.86496" lon="1.10444">
        <ele>1336.8</ele>
        <time>2025-07-21T05:52:05Z</time>
      </trkpt>
      <trkpt lat="42.86501" lon="1.1042">
        <ele>1335.8</ele>
        <time>2025-07-21T05:52:07Z</time>
      </trkpt>
      <trkpt lat="42.86504" lon="1.10408">
        <ele>1334.6</ele>
        <time>2025-07-21T05:52:08Z</time>
      </trkpt>
      <trkpt lat="42.86509" lon="1.10385">
        <ele>1333.4</ele>
        <time>2025-07-21T05:52:10Z</time>
      </trkpt>
      <trkpt lat="42.86515" lon="1.10362">
        <ele>1331.6</ele>
        <time>2025-07-21T05:52:12Z</time>
      </trkpt>
      <trkpt lat="42.86523" lon="1.10339">
        <ele>1330.2</ele>
        <time>2025-07-21T05:52:14Z</time>
      </trkpt>
      <trkpt lat="42.86528" lon="1.10328">
        <ele>1329</ele>
        <time>2025-07-21T05:52:15Z</time>
      </trkpt>
      <trkpt lat="42.86537" lon="1.10307">
        <ele>1327.2</ele>
        <time>2025-07-21T05:52:17Z</time>
      </trkpt>
      <trkpt lat="42.86549" lon="1.10286">
        <ele>1326</ele>
        <time>2025-07-21T05:52:19Z</time>
      </trkpt>
      <trkpt lat="42.86554" lon="1.10275">
        <ele>1324.8</ele>
        <time>2025-07-21T05:52:20Z</time>
      </trkpt>
      <trkpt lat="42.8656" lon="1.10265">
        <ele>1324.4</ele>
        <time>2025-07-21T05:52:21Z</time>
      </trkpt>
      <trkpt lat="42.86565" lon="1.10255">
        <ele>1323.6</ele>
        <time>2025-07-21T05:52:22Z</time>
      </trkpt>
      <trkpt lat="42.86571" lon="1.10245">
        <ele>1322.6</ele>
        <time>2025-07-21T05:52:23Z</time>
      </trkpt>
      <trkpt lat="42.86575" lon="1.10234">
        <ele>1322</ele>
        <time>2025-07-21T05:52:24Z</time>
      </trkpt>
      <trkpt lat="42.86578" lon="1.10223">
        <ele>1321.2</ele>
        <time>2025-07-21T05:52:25Z</time>
      </trkpt>
      <trkpt lat="42.86581" lon="1.10211">
        <ele>1320.6</ele>
        <time>2025-07-21T05:52:26Z</time>
      </trkpt>
      <trkpt lat="42.86583" lon="1.10198">
        <ele>1319.6</ele>
        <time>2025-07-21T05:52:27Z</time>
      </trkpt>
      <trkpt lat="42.86585" lon="1.10173">
        <ele>1318.4</ele>
        <time>2025-07-21T05:52:29Z</time>
      </trkpt>
      <trkpt lat="42.86585" lon="1.10161">
        <ele>1317.4</ele>
        <time>2025-07-21T05:52:30Z</time>
      </trkpt>
      <trkpt lat="42.86585" lon="1.10138">
        <ele>1316</ele>
        <time>2025-07-21T05:52:32Z</time>
      </trkpt>
      <trkpt lat="42.86582" lon="1.10117">
        <ele>1315</ele>
        <time>2025-07-21T05:52:34Z</time>
      </trkpt>
      <trkpt lat="42.86581" lon="1.10106">
        <ele>1314</ele>
        <time>2025-07-21T05:52:35Z</time>
      </trkpt>
      <trkpt lat="42.86582" lon="1.10092">
        <ele>1313.8</ele>
        <time>2025-07-21T05:52:36Z</time>
      </trkpt>
      <trkpt lat="42.86584" lon="1.10084">
        <ele>1312.8</ele>
        <time>2025-07-21T05:52:37Z</time>
      </trkpt>
      <trkpt lat="42.86592" lon="1.10065">
        <ele>1311.6</ele>
        <time>2025-07-21T05:52:39Z</time>
      </trkpt>
      <trkpt lat="42.86597" lon="1.10057">
        <ele>1310.8</ele>
        <time>2025-07-21T05:52:40Z</time>
      </trkpt>
      <trkpt lat="42.86602" lon="1.10051">
        <ele>1310.4</ele>
        <time>2025-07-21T05:52:41Z</time>
      </trkpt>
      <trkpt lat="42.86614" lon="1.10042">
        <ele>1309.4</ele>
        <time>2025-07-21T05:52:43Z</time>
      </trkpt>
      <trkpt lat="42.86619" lon="1.10038">
        <ele>1308.2</ele>
        <time>2025-07-21T05:52:44Z</time>
      </trkpt>
      <trkpt lat="42.86622" lon="1.10032">
        <ele>1307.4</ele>
        <time>2025-07-21T05:52:45Z</time>
      </trkpt>
      <trkpt lat="42.86624" lon="1.10026">
        <ele>1307</ele>
        <time>2025-07-21T05:52:46Z</time>
      </trkpt>
      <trkpt lat="42.86623" lon="1.10021">
        <ele>1305.8</ele>
        <time>2025-07-21T05:52:47Z</time>
      </trkpt>
      <trkpt lat="42.86617" lon="1.10015">
        <ele>1304.8</ele>
        <time>2025-07-21T05:52:49Z</time>
      </trkpt>
      <trkpt lat="42.86607" lon="1.10018">
        <ele>1303.6</ele>
        <time>2025-07-21T05:52:51Z</time>
      </trkpt>
      <trkpt lat="42.86602" lon="1.10022">
        <ele>1302.8</ele>
        <time>2025-07-21T05:52:52Z</time>
      </trkpt>
      <trkpt lat="42.86597" lon="1.10026">
        <ele>1302.4</ele>
        <time>2025-07-21T05:52:53Z</time>
      </trkpt>
      <trkpt lat="42.86592" lon="1.10031">
        <ele>1301.8</ele>
        <time>2025-07-21T05:52:54Z</time>
      </trkpt>
      <trkpt lat="42.86586" lon="1.10036">
        <ele>1301.2</ele>
        <time>2025-07-21T05:52:55Z</time>
      </trkpt>
      <trkpt lat="42.86575" lon="1.10049">
        <ele>1300.4</ele>
        <time>2025-07-21T05:52:57Z</time>
      </trkpt>
      <trkpt lat="42.86564" lon="1.10064">
        <ele>1299.8</ele>
        <time>2025-07-21T05:52:59Z</time>
      </trkpt>
      <trkpt lat="42.8656" lon="1.10073">
        <ele>1299.6</ele>
        <time>2025-07-21T05:53:00Z</time>
      </trkpt>
      <trkpt lat="42.86557" lon="1.10083">
        <ele>1299</ele>
        <time>2025-07-21T05:53:01Z</time>
      </trkpt>
      <trkpt lat="42.86554" lon="1.10094">
        <ele>1298.4</ele>
        <time>2025-07-21T05:53:02Z</time>
      </trkpt>
      <trkpt lat="42.86553" lon="1.10117">
        <ele>1297.6</ele>
        <time>2025-07-21T05:53:04Z</time>
      </trkpt>
      <trkpt lat="42.86553" lon="1.1013">
        <ele>1297.2</ele>
        <time>2025-07-21T05:53:05Z</time>
      </trkpt>
      <trkpt lat="42.86551" lon="1.10154">
        <ele>1296.4</ele>
        <time>2025-07-21T05:53:07Z</time>
      </trkpt>
      <trkpt lat="42.86548" lon="1.10166">
        <ele>1296.2</ele>
        <time>2025-07-21T05:53:08Z</time>
      </trkpt>
      <trkpt lat="42.86544" lon="1.10178">
        <ele>1295.6</ele>
        <time>2025-07-21T05:53:09Z</time>
      </trkpt>
      <trkpt lat="42.86533" lon="1.10197">
        <ele>1294.2</ele>
        <time>2025-07-21T05:53:11Z</time>
      </trkpt>
      <trkpt lat="42.86521" lon="1.10216">
        <ele>1293</ele>
        <time>2025-07-21T05:53:13Z</time>
      </trkpt>
      <trkpt lat="42.86507" lon="1.10233">
        <ele>1291.6</ele>
        <time>2025-07-21T05:53:15Z</time>
      </trkpt>
      <trkpt lat="42.865" lon="1.10241">
        <ele>1290.8</ele>
        <time>2025-07-21T05:53:16Z</time>
      </trkpt>
      <trkpt lat="42.86493" lon="1.10249">
        <ele>1290.2</ele>
        <time>2025-07-21T05:53:17Z</time>
      </trkpt>
      <trkpt lat="42.8648" lon="1.10265">
        <ele>1288.8</ele>
        <time>2025-07-21T05:53:19Z</time>
      </trkpt>
      <trkpt lat="42.86467" lon="1.10282">
        <ele>1287.2</ele>
        <time>2025-07-21T05:53:21Z</time>
      </trkpt>
      <trkpt lat="42.86461" lon="1.10292">
        <ele>1286.2</ele>
        <time>2025-07-21T05:53:22Z</time>
      </trkpt>
      <trkpt lat="42.86449" lon="1.1031">
        <ele>1284.8</ele>
        <time>2025-07-21T05:53:24Z</time>
      </trkpt>
      <trkpt lat="42.86442" lon="1.10318">
        <ele>1284.4</ele>
        <time>2025-07-21T05:53:25Z</time>
      </trkpt>
      <trkpt lat="42.86435" lon="1.10325">
        <ele>1283.6</ele>
        <time>2025-07-21T05:53:26Z</time>
      </trkpt>
      <trkpt lat="42.86427" lon="1.1033">
        <ele>1282</ele>
        <time>2025-07-21T05:53:27Z</time>
      </trkpt>
      <trkpt lat="42.8641" lon="1.10336">
        <ele>1280.8</ele>
        <time>2025-07-21T05:53:29Z</time>
      </trkpt>
      <trkpt lat="42.86394" lon="1.10337">
        <ele>1279.2</ele>
        <time>2025-07-21T05:53:31Z</time>
      </trkpt>
      <trkpt lat="42.86376" lon="1.10336">
        <ele>1278.2</ele>
        <time>2025-07-21T05:53:33Z</time>
      </trkpt>
      <trkpt lat="42.86368" lon="1.10335">
        <ele>1277.6</ele>
        <time>2025-07-21T05:53:34Z</time>
      </trkpt>
      <trkpt lat="42.8635" lon="1.10333">
        <ele>1276.8</ele>
        <time>2025-07-21T05:53:36Z</time>
      </trkpt>
      <trkpt lat="42.86333" lon="1.10333">
        <ele>1275.2</ele>
        <time>2025-07-21T05:53:38Z</time>
      </trkpt>
      <trkpt lat="42.86323" lon="1.10334">
        <ele>1274</ele>
        <time>2025-07-21T05:53:39Z</time>
      </trkpt>
      <trkpt lat="42.86306" lon="1.10334">
        <ele>1272.8</ele>
        <time>2025-07-21T05:53:41Z</time>
      </trkpt>
      <trkpt lat="42.86286" lon="1.10337">
        <ele>1271.4</ele>
        <time>2025-07-21T05:53:43Z</time>
      </trkpt>
      <trkpt lat="42.86268" lon="1.10341">
        <ele>1270.2</ele>
        <time>2025-07-21T05:53:45Z</time>
      </trkpt>
      <trkpt lat="42.86259" lon="1.10342">
        <ele>1269.2</ele>
        <time>2025-07-21T05:53:46Z</time>
      </trkpt>
      <trkpt lat="42.8625" lon="1.10344">
        <ele>1268.6</ele>
        <time>2025-07-21T05:53:47Z</time>
      </trkpt>
      <trkpt lat="42.86242" lon="1.10345">
        <ele>1267.8</ele>
        <time>2025-07-21T05:53:48Z</time>
      </trkpt>
      <trkpt lat="42.86227" lon="1.10341">
        <ele>1266.6</ele>
        <time>2025-07-21T05:53:50Z</time>
      </trkpt>
      <trkpt lat="42.86216" lon="1.10329">
        <ele>1265</ele>
        <time>2025-07-21T05:53:52Z</time>
      </trkpt>
      <trkpt lat="42.86214" lon="1.10321">
        <ele>1264</ele>
        <time>2025-07-21T05:53:53Z</time>
      </trkpt>
      <trkpt lat="42.86213" lon="1.10312">
        <ele>1263.2</ele>
        <time>2025-07-21T05:53:54Z</time>
      </trkpt>
      <trkpt lat="42.86215" lon="1.10291">
        <ele>1262</ele>
        <time>2025-07-21T05:53:56Z</time>
      </trkpt>
      <trkpt lat="42.8622" lon="1.10259">
        <ele>1260.8</ele>
        <time>2025-07-21T05:53:59Z</time>
      </trkpt>
      <trkpt lat="42.86221" lon="1.10248">
        <ele>1260.4</ele>
        <time>2025-07-21T05:54:00Z</time>
      </trkpt>
      <trkpt lat="42.86221" lon="1.10238">
        <ele>1259.8</ele>
        <time>2025-07-21T05:54:01Z</time>
      </trkpt>
      <trkpt lat="42.8622" lon="1.10226">
        <ele>1259.2</ele>
        <time>2025-07-21T05:54:02Z</time>
      </trkpt>
      <trkpt lat="42.86216" lon="1.10204">
        <ele>1258</ele>
        <time>2025-07-21T05:54:04Z</time>
      </trkpt>
      <trkpt lat="42.86213" lon="1.10192">
        <ele>1257.2</ele>
        <time>2025-07-21T05:54:05Z</time>
      </trkpt>
      <trkpt lat="42.8621" lon="1.10181">
        <ele>1256.6</ele>
        <time>2025-07-21T05:54:06Z</time>
      </trkpt>
      <trkpt lat="42.86204" lon="1.10161">
        <ele>1254.8</ele>
        <time>2025-07-21T05:54:08Z</time>
      </trkpt>
      <trkpt lat="42.86196" lon="1.10146">
        <ele>1253.6</ele>
        <time>2025-07-21T05:54:10Z</time>
      </trkpt>
      <trkpt lat="42.86191" lon="1.10141">
        <ele>1252.4</ele>
        <time>2025-07-21T05:54:11Z</time>
      </trkpt>
      <trkpt lat="42.86185" lon="1.10139">
        <ele>1252</ele>
        <time>2025-07-21T05:54:12Z</time>
      </trkpt>
      <trkpt lat="42.86174" lon="1.10143">
        <ele>1251</ele>
        <time>2025-07-21T05:54:14Z</time>
      </trkpt>
      <trkpt lat="42.86168" lon="1.10148">
        <ele>1249.6</ele>
        <time>2025-07-21T05:54:15Z</time>
      </trkpt>
      <trkpt lat="42.86157" lon="1.1016">
        <ele>1248.6</ele>
        <time>2025-07-21T05:54:17Z</time>
      </trkpt>
      <trkpt lat="42.86144" lon="1.1017">
        <ele>1247.6</ele>
        <time>2025-07-21T05:54:19Z</time>
      </trkpt>
      <trkpt lat="42.86129" lon="1.10175">
        <ele>1246.4</ele>
        <time>2025-07-21T05:54:21Z</time>
      </trkpt>
      <trkpt lat="42.86122" lon="1.10174">
        <ele>1246</ele>
        <time>2025-07-21T05:54:22Z</time>
      </trkpt>
      <trkpt lat="42.86115" lon="1.10172">
        <ele>1245.2</ele>
        <time>2025-07-21T05:54:23Z</time>
      </trkpt>
      <trkpt lat="42.861" lon="1.10165">
        <ele>1243.8</ele>
        <time>2025-07-21T05:54:25Z</time>
      </trkpt>
      <trkpt lat="42.86084" lon="1.10158">
        <ele>1243</ele>
        <time>2025-07-21T05:54:27Z</time>
      </trkpt>
      <trkpt lat="42.86077" lon="1.10155">
        <ele>1242.4</ele>
        <time>2025-07-21T05:54:28Z</time>
      </trkpt>
      <trkpt lat="42.8605" lon="1.10143">
        <ele>1241</ele>
        <time>2025-07-21T05:54:31Z</time>
      </trkpt>
      <trkpt lat="42.86035" lon="1.10136">
        <ele>1239.4</ele>
        <time>2025-07-21T05:54:33Z</time>
      </trkpt>
      <trkpt lat="42.86026" lon="1.10131">
        <ele>1239.2</ele>
        <time>2025-07-21T05:54:34Z</time>
      </trkpt>
      <trkpt lat="42.86016" lon="1.10124">
        <ele>1238.4</ele>
        <time>2025-07-21T05:54:35Z</time>
      </trkpt>
      <trkpt lat="42.86" lon="1.10108">
        <ele>1237</ele>
        <time>2025-07-21T05:54:37Z</time>
      </trkpt>
      <trkpt lat="42.85993" lon="1.101">
        <ele>1236.2</ele>
        <time>2025-07-21T05:54:38Z</time>
      </trkpt>
      <trkpt lat="42.85986" lon="1.10091">
        <ele>1235.6</ele>
        <time>2025-07-21T05:54:39Z</time>
      </trkpt>
      <trkpt lat="42.8598" lon="1.10081">
        <ele>1234.4</ele>
        <time>2025-07-21T05:54:40Z</time>
      </trkpt>
      <trkpt lat="42.8597" lon="1.1006">
        <ele>1233.2</ele>
        <time>2025-07-21T05:54:42Z</time>
      </trkpt>
      <trkpt lat="42.85967" lon="1.10051">
        <ele>1232</ele>
        <time>2025-07-21T05:54:43Z</time>
      </trkpt>
      <trkpt lat="42.85959" lon="1.10024">
        <ele>1230.8</ele>
        <time>2025-07-21T05:54:45Z</time>
      </trkpt>
      <trkpt lat="42.85956" lon="1.10013">
        <ele>1230.2</ele>
        <time>2025-07-21T05:54:46Z</time>
      </trkpt>
      <trkpt lat="42.85952" lon="1.10001">
        <ele>1229.2</ele>
        <time>2025-07-21T05:54:47Z</time>
      </trkpt>
      <trkpt lat="42.85945" lon="1.09979">
        <ele>1227.6</ele>
        <time>2025-07-21T05:54:49Z</time>
      </trkpt>
      <trkpt lat="42.85937" lon="1.09958">
        <ele>1226.2</ele>
        <time>2025-07-21T05:54:51Z</time>
      </trkpt>
      <trkpt lat="42.85934" lon="1.09949">
        <ele>1225.6</ele>
        <time>2025-07-21T05:54:52Z</time>
      </trkpt>
      <trkpt lat="42.85929" lon="1.0994">
        <ele>1224.4</ele>
        <time>2025-07-21T05:54:53Z</time>
      </trkpt>
      <trkpt lat="42.85918" lon="1.09926">
        <ele>1223.2</ele>
        <time>2025-07-21T05:54:55Z</time>
      </trkpt>
      <trkpt lat="42.85902" lon="1.09918">
        <ele>1221.6</ele>
        <time>2025-07-21T05:54:57Z</time>
      </trkpt>
      <trkpt lat="42.85894" lon="1.09914">
        <ele>1220.8</ele>
        <time>2025-07-21T05:54:58Z</time>
      </trkpt>
      <trkpt lat="42.85886" lon="1.09909">
        <ele>1220.2</ele>
        <time>2025-07-21T05:54:59Z</time>
      </trkpt>
      <trkpt lat="42.85871" lon="1.09896">
        <ele>1219.2</ele>
        <time>2025-07-21T05:55:01Z</time>
      </trkpt>
      <trkpt lat="42.85856" lon="1.09883">
        <ele>1217.8</ele>
        <time>2025-07-21T05:55:03Z</time>
      </trkpt>
      <trkpt lat="42.85849" lon="1.09878">
        <ele>1216.6</ele>
        <time>2025-07-21T05:55:04Z</time>
      </trkpt>
      <trkpt lat="42.85841" lon="1.09873">
        <ele>1215.4</ele>
        <time>2025-07-21T05:55:05Z</time>
      </trkpt>
      <trkpt lat="42.85824" lon="1.09864">
        <ele>1214.4</ele>
        <time>2025-07-21T05:55:07Z</time>
      </trkpt>
      <trkpt lat="42.85807" lon="1.09854">
        <ele>1212.6</ele>
        <time>2025-07-21T05:55:09Z</time>
      </trkpt>
      <trkpt lat="42.85798" lon="1.0985">
        <ele>1211.4</ele>
        <time>2025-07-21T05:55:10Z</time>
      </trkpt>
      <trkpt lat="42.8579" lon="1.09844">
        <ele>1211</ele>
        <time>2025-07-21T05:55:11Z</time>
      </trkpt>
      <trkpt lat="42.85782" lon="1.09839">
        <ele>1210.2</ele>
        <time>2025-07-21T05:55:12Z</time>
      </trkpt>
      <trkpt lat="42.85774" lon="1.09834">
        <ele>1209.6</ele>
        <time>2025-07-21T05:55:13Z</time>
      </trkpt>
      <trkpt lat="42.85766" lon="1.09829">
        <ele>1208.6</ele>
        <time>2025-07-21T05:55:14Z</time>
      </trkpt>
      <trkpt lat="42.85756" lon="1.09822">
        <ele>1207.4</ele>
        <time>2025-07-21T05:55:15Z</time>
      </trkpt>
      <trkpt lat="42.85736" lon="1.09811">
        <ele>1206</ele>
        <time>2025-07-21T05:55:17Z</time>
      </trkpt>
      <trkpt lat="42.85726" lon="1.09807">
        <ele>1205.6</ele>
        <time>2025-07-21T05:55:18Z</time>
      </trkpt>
      <trkpt lat="42.85716" lon="1.09804">
        <ele>1204.4</ele>
        <time>2025-07-21T05:55:19Z</time>
      </trkpt>
      <trkpt lat="42.85708" lon="1.098">
        <ele>1203</ele>
        <time>2025-07-21T05:55:20Z</time>
      </trkpt>
      <trkpt lat="42.85702" lon="1.09796">
        <ele>1202.4</ele>
        <time>2025-07-21T05:55:21Z</time>
      </trkpt>
      <trkpt lat="42.85696" lon="1.0979">
        <ele>1201.2</ele>
        <time>2025-07-21T05:55:22Z</time>
      </trkpt>
      <trkpt lat="42.85689" lon="1.09783">
        <ele>1200.8</ele>
        <time>2025-07-21T05:55:23Z</time>
      </trkpt>
      <trkpt lat="42.85681" lon="1.09774">
        <ele>1200.2</ele>
        <time>2025-07-21T05:55:24Z</time>
      </trkpt>
      <trkpt lat="42.85665" lon="1.09763">
        <ele>1198.8</ele>
        <time>2025-07-21T05:55:26Z</time>
      </trkpt>
      <trkpt lat="42.85655" lon="1.09756">
        <ele>1198</ele>
        <time>2025-07-21T05:55:27Z</time>
      </trkpt>
      <trkpt lat="42.85648" lon="1.09751">
        <ele>1197.6</ele>
        <time>2025-07-21T05:55:28Z</time>
      </trkpt>
      <trkpt lat="42.85633" lon="1.0974">
        <ele>1195.4</ele>
        <time>2025-07-21T05:55:30Z</time>
      </trkpt>
      <trkpt lat="42.85614" lon="1.09724">
        <ele>1193.8</ele>
        <time>2025-07-21T05:55:32Z</time>
      </trkpt>
      <trkpt lat="42.85605" lon="1.09717">
        <ele>1193.2</ele>
        <time>2025-07-21T05:55:33Z</time>
      </trkpt>
      <trkpt lat="42.85597" lon="1.09712">
        <ele>1192.6</ele>
        <time>2025-07-21T05:55:34Z</time>
      </trkpt>
      <trkpt lat="42.8559" lon="1.09713">
        <ele>1192</ele>
        <time>2025-07-21T05:55:35Z</time>
      </trkpt>
      <trkpt lat="42.85583" lon="1.09711">
        <ele>1191.2</ele>
        <time>2025-07-21T05:55:36Z</time>
      </trkpt>
      <trkpt lat="42.85569" lon="1.09701">
        <ele>1190</ele>
        <time>2025-07-21T05:55:38Z</time>
      </trkpt>
      <trkpt lat="42.85561" lon="1.09696">
        <ele>1189</ele>
        <time>2025-07-21T05:55:39Z</time>
      </trkpt>
      <trkpt lat="42.85546" lon="1.09682">
        <ele>1187.4</ele>
        <time>2025-07-21T05:55:41Z</time>
      </trkpt>
      <trkpt lat="42.85538" lon="1.09672">
        <ele>1186.4</ele>
        <time>2025-07-21T05:55:42Z</time>
      </trkpt>
      <trkpt lat="42.85523" lon="1.09662">
        <ele>1185.2</ele>
        <time>2025-07-21T05:55:44Z</time>
      </trkpt>
      <trkpt lat="42.85511" lon="1.09653">
        <ele>1183.8</ele>
        <time>2025-07-21T05:55:46Z</time>
      </trkpt>
      <trkpt lat="42.85505" lon="1.09648">
        <ele>1183</ele>
        <time>2025-07-21T05:55:47Z</time>
      </trkpt>
      <trkpt lat="42.85499" lon="1.09642">
        <ele>1182.4</ele>
        <time>2025-07-21T05:55:48Z</time>
      </trkpt>
      <trkpt lat="42.85486" lon="1.09628">
        <ele>1181.2</ele>
        <time>2025-07-21T05:55:50Z</time>
      </trkpt>
      <trkpt lat="42.85475" lon="1.09617">
        <ele>1179.4</ele>
        <time>2025-07-21T05:55:52Z</time>
      </trkpt>
      <trkpt lat="42.8547" lon="1.09612">
        <ele>1179</ele>
        <time>2025-07-21T05:55:53Z</time>
      </trkpt>
      <trkpt lat="42.85466" lon="1.09604">
        <ele>1177.8</ele>
        <time>2025-07-21T05:55:54Z</time>
      </trkpt>
      <trkpt lat="42.85456" lon="1.09587">
        <ele>1176</ele>
        <time>2025-07-21T05:55:56Z</time>
      </trkpt>
      <trkpt lat="42.85451" lon="1.09569">
        <ele>1174.8</ele>
        <time>2025-07-21T05:55:58Z</time>
      </trkpt>
      <trkpt lat="42.85448" lon="1.09549">
        <ele>1174</ele>
        <time>2025-07-21T05:56:00Z</time>
      </trkpt>
      <trkpt lat="42.85448" lon="1.09538">
        <ele>1173</ele>
        <time>2025-07-21T05:56:01Z</time>
      </trkpt>
      <trkpt lat="42.85447" lon="1.09515">
        <ele>1171.6</ele>
        <time>2025-07-21T05:56:03Z</time>
      </trkpt>
      <trkpt lat="42.85445" lon="1.09482">
        <ele>1170.2</ele>
        <time>2025-07-21T05:56:06Z</time>
      </trkpt>
      <trkpt lat="42.85443" lon="1.0946">
        <ele>1168.4</ele>
        <time>2025-07-21T05:56:08Z</time>
      </trkpt>
      <trkpt lat="42.85441" lon="1.09437">
        <ele>1167.4</ele>
        <time>2025-07-21T05:56:10Z</time>
      </trkpt>
      <trkpt lat="42.8544" lon="1.09425">
        <ele>1167</ele>
        <time>2025-07-21T05:56:11Z</time>
      </trkpt>
      <trkpt lat="42.8544" lon="1.09414">
        <ele>1166.4</ele>
        <time>2025-07-21T05:56:12Z</time>
      </trkpt>
      <trkpt lat="42.85442" lon="1.09402">
        <ele>1165.4</ele>
        <time>2025-07-21T05:56:13Z</time>
      </trkpt>
      <trkpt lat="42.85444" lon="1.09392">
        <ele>1164.4</ele>
        <time>2025-07-21T05:56:14Z</time>
      </trkpt>
      <trkpt lat="42.85448" lon="1.09383">
        <ele>1164</ele>
        <time>2025-07-21T05:56:15Z</time>
      </trkpt>
      <trkpt lat="42.85452" lon="1.09374">
        <ele>1163.2</ele>
        <time>2025-07-21T05:56:16Z</time>
      </trkpt>
      <trkpt lat="42.85456" lon="1.09365">
        <ele>1162.8</ele>
        <time>2025-07-21T05:56:17Z</time>
      </trkpt>
      <trkpt lat="42.85464" lon="1.09347">
        <ele>1161.4</ele>
        <time>2025-07-21T05:56:19Z</time>
      </trkpt>
      <trkpt lat="42.85468" lon="1.09339">
        <ele>1161.2</ele>
        <time>2025-07-21T05:56:20Z</time>
      </trkpt>
      <trkpt lat="42.85472" lon="1.0933">
        <ele>1160</ele>
        <time>2025-07-21T05:56:21Z</time>
      </trkpt>
      <trkpt lat="42.85483" lon="1.09316">
        <ele>1158.6</ele>
        <time>2025-07-21T05:56:23Z</time>
      </trkpt>
      <trkpt lat="42.85489" lon="1.09309">
        <ele>1157.8</ele>
        <time>2025-07-21T05:56:24Z</time>
      </trkpt>
      <trkpt lat="42.85496" lon="1.09304">
        <ele>1157.4</ele>
        <time>2025-07-21T05:56:25Z</time>
      </trkpt>
      <trkpt lat="42.85519" lon="1.09286">
        <ele>1156</ele>
        <time>2025-07-21T05:56:28Z</time>
      </trkpt>
      <trkpt lat="42.85527" lon="1.09279">
        <ele>1154.8</ele>
        <time>2025-07-21T05:56:29Z</time>
      </trkpt>
      <trkpt lat="42.8554" lon="1.09262">
        <ele>1153.4</ele>
        <time>2025-07-21T05:56:31Z</time>
      </trkpt>
      <trkpt lat="42.85546" lon="1.09254">
        <ele>1153</ele>
        <time>2025-07-21T05:56:32Z</time>
      </trkpt>
      <trkpt lat="42.85554" lon="1.09246">
        <ele>1152.4</ele>
        <time>2025-07-21T05:56:33Z</time>
      </trkpt>
      <trkpt lat="42.85568" lon="1.09231">
        <ele>1151.4</ele>
        <time>2025-07-21T05:56:35Z</time>
      </trkpt>
      <trkpt lat="42.85581" lon="1.09216">
        <ele>1150.2</ele>
        <time>2025-07-21T05:56:37Z</time>
      </trkpt>
      <trkpt lat="42.85587" lon="1.09208">
        <ele>1149.4</ele>
        <time>2025-07-21T05:56:38Z</time>
      </trkpt>
      <trkpt lat="42.85594" lon="1.09202">
        <ele>1148.6</ele>
        <time>2025-07-21T05:56:39Z</time>
      </trkpt>
      <trkpt lat="42.85602" lon="1.09198">
        <ele>1147.6</ele>
        <time>2025-07-21T05:56:40Z</time>
      </trkpt>
      <trkpt lat="42.8561" lon="1.09197">
        <ele>1147</ele>
        <time>2025-07-21T05:56:41Z</time>
      </trkpt>
      <trkpt lat="42.85619" lon="1.09197">
        <ele>1146.4</ele>
        <time>2025-07-21T05:56:42Z</time>
      </trkpt>
      <trkpt lat="42.85627" lon="1.092">
        <ele>1145.6</ele>
        <time>2025-07-21T05:56:43Z</time>
      </trkpt>
      <trkpt lat="42.85635" lon="1.09204">
        <ele>1145.2</ele>
        <time>2025-07-21T05:56:44Z</time>
      </trkpt>
      <trkpt lat="42.85643" lon="1.09208">
        <ele>1144.4</ele>
        <time>2025-07-21T05:56:45Z</time>
      </trkpt>
      <trkpt lat="42.8565" lon="1.09212">
        <ele>1143.4</ele>
        <time>2025-07-21T05:56:46Z</time>
      </trkpt>
      <trkpt lat="42.85658" lon="1.09217">
        <ele>1143</ele>
        <time>2025-07-21T05:56:47Z</time>
      </trkpt>
      <trkpt lat="42.85666" lon="1.09221">
        <ele>1141.8</ele>
        <time>2025-07-21T05:56:48Z</time>
      </trkpt>
      <trkpt lat="42.85681" lon="1.09232">
        <ele>1140.6</ele>
        <time>2025-07-21T05:56:50Z</time>
      </trkpt>
      <trkpt lat="42.85704" lon="1.0925">
        <ele>1139.2</ele>
        <time>2025-07-21T05:56:53Z</time>
      </trkpt>
      <trkpt lat="42.85719" lon="1.09263">
        <ele>1137.8</ele>
        <time>2025-07-21T05:56:55Z</time>
      </trkpt>
      <trkpt lat="42.85735" lon="1.09277">
        <ele>1136.6</ele>
        <time>2025-07-21T05:56:57Z</time>
      </trkpt>
      <trkpt lat="42.8575" lon="1.09291">
        <ele>1135.4</ele>
        <time>2025-07-21T05:56:59Z</time>
      </trkpt>
      <trkpt lat="42.8576" lon="1.09298">
        <ele>1134.2</ele>
        <time>2025-07-21T05:57:00Z</time>
      </trkpt>
      <trkpt lat="42.85776" lon="1.09309">
        <ele>1133</ele>
        <time>2025-07-21T05:57:02Z</time>
      </trkpt>
      <trkpt lat="42.85804" lon="1.09328">
        <ele>1131.4</ele>
        <time>2025-07-21T05:57:05Z</time>
      </trkpt>
      <trkpt lat="42.85819" lon="1.0934">
        <ele>1130.2</ele>
        <time>2025-07-21T05:57:07Z</time>
      </trkpt>
      <trkpt lat="42.85836" lon="1.09353">
        <ele>1128.6</ele>
        <time>2025-07-21T05:57:09Z</time>
      </trkpt>
      <trkpt lat="42.85853" lon="1.09366">
        <ele>1127.4</ele>
        <time>2025-07-21T05:57:11Z</time>
      </trkpt>
      <trkpt lat="42.85869" lon="1.09379">
        <ele>1125</ele>
        <time>2025-07-21T05:57:13Z</time>
      </trkpt>
      <trkpt lat="42.85877" lon="1.09385">
        <ele>1124.6</ele>
        <time>2025-07-21T05:57:14Z</time>
      </trkpt>
      <trkpt lat="42.85886" lon="1.09389">
        <ele>1124</ele>
        <time>2025-07-21T05:57:15Z</time>
      </trkpt>
      <trkpt lat="42.85895" lon="1.09394">
        <ele>1123.4</ele>
        <time>2025-07-21T05:57:16Z</time>
      </trkpt>
      <trkpt lat="42.85904" lon="1.09398">
        <ele>1122</ele>
        <time>2025-07-21T05:57:17Z</time>
      </trkpt>
      <trkpt lat="42.85913" lon="1.09402">
        <ele>1121</ele>
        <time>2025-07-21T05:57:18Z</time>
      </trkpt>
      <trkpt lat="42.85931" lon="1.0941">
        <ele>1119.4</ele>
        <time>2025-07-21T05:57:20Z</time>
      </trkpt>
      <trkpt lat="42.85957" lon="1.0942">
        <ele>1117.2</ele>
        <time>2025-07-21T05:57:23Z</time>
      </trkpt>
      <trkpt lat="42.85966" lon="1.09423">
        <ele>1116.8</ele>
        <time>2025-07-21T05:57:24Z</time>
      </trkpt>
      <trkpt lat="42.85974" lon="1.09425">
        <ele>1116</ele>
        <time>2025-07-21T05:57:25Z</time>
      </trkpt>
      <trkpt lat="42.85998" lon="1.09431">
        <ele>1114.4</ele>
        <time>2025-07-21T05:57:28Z</time>
      </trkpt>
      <trkpt lat="42.86016" lon="1.09436">
        <ele>1113.2</ele>
        <time>2025-07-21T05:57:30Z</time>
      </trkpt>
      <trkpt lat="42.86041" lon="1.09443">
        <ele>1111.6</ele>
        <time>2025-07-21T05:57:33Z</time>
      </trkpt>
      <trkpt lat="42.86059" lon="1.09443">
        <ele>1110.4</ele>
        <time>2025-07-21T05:57:35Z</time>
      </trkpt>
      <trkpt lat="42.86079" lon="1.09443">
        <ele>1109.4</ele>
        <time>2025-07-21T05:57:37Z</time>
      </trkpt>
      <trkpt lat="42.86089" lon="1.09442">
        <ele>1109</ele>
        <time>2025-07-21T05:57:38Z</time>
      </trkpt>
      <trkpt lat="42.86109" lon="1.09437">
        <ele>1107.4</ele>
        <time>2025-07-21T05:57:40Z</time>
      </trkpt>
      <trkpt lat="42.8613" lon="1.0943">
        <ele>1106.2</ele>
        <time>2025-07-21T05:57:42Z</time>
      </trkpt>
      <trkpt lat="42.86139" lon="1.09426">
        <ele>1105.8</ele>
        <time>2025-07-21T05:57:43Z</time>
      </trkpt>
      <trkpt lat="42.86149" lon="1.0942">
        <ele>1104.8</ele>
        <time>2025-07-21T05:57:44Z</time>
      </trkpt>
      <trkpt lat="42.86157" lon="1.09414">
        <ele>1103.6</ele>
        <time>2025-07-21T05:57:45Z</time>
      </trkpt>
      <trkpt lat="42.86174" lon="1.094">
        <ele>1102.4</ele>
        <time>2025-07-21T05:57:47Z</time>
      </trkpt>
      <trkpt lat="42.86188" lon="1.09382">
        <ele>1101</ele>
        <time>2025-07-21T05:57:49Z</time>
      </trkpt>
      <trkpt lat="42.86195" lon="1.09372">
        <ele>1100</ele>
        <time>2025-07-21T05:57:50Z</time>
      </trkpt>
      <trkpt lat="42.86202" lon="1.09362">
        <ele>1099.2</ele>
        <time>2025-07-21T05:57:51Z</time>
      </trkpt>
      <trkpt lat="42.86208" lon="1.09351">
        <ele>1098.4</ele>
        <time>2025-07-21T05:57:52Z</time>
      </trkpt>
      <trkpt lat="42.8622" lon="1.09329">
        <ele>1097.2</ele>
        <time>2025-07-21T05:57:54Z</time>
      </trkpt>
      <trkpt lat="42.86226" lon="1.09317">
        <ele>1096.2</ele>
        <time>2025-07-21T05:57:55Z</time>
      </trkpt>
      <trkpt lat="42.86231" lon="1.09305">
        <ele>1095.6</ele>
        <time>2025-07-21T05:57:56Z</time>
      </trkpt>
      <trkpt lat="42.86236" lon="1.09293">
        <ele>1094.2</ele>
        <time>2025-07-21T05:57:57Z</time>
      </trkpt>
      <trkpt lat="42.86246" lon="1.09269">
        <ele>1092.6</ele>
        <time>2025-07-21T05:57:59Z</time>
      </trkpt>
      <trkpt lat="42.86251" lon="1.09258">
        <ele>1091.4</ele>
        <time>2025-07-21T05:58:00Z</time>
      </trkpt>
      <trkpt lat="42.8626" lon="1.09233">
        <ele>1090</ele>
        <time>2025-07-21T05:58:02Z</time>
      </trkpt>
      <trkpt lat="42.86264" lon="1.0922">
        <ele>1089.6</ele>
        <time>2025-07-21T05:58:03Z</time>
      </trkpt>
      <trkpt lat="42.86273" lon="1.09195">
        <ele>1088.4</ele>
        <time>2025-07-21T05:58:05Z</time>
      </trkpt>
      <trkpt lat="42.86281" lon="1.09171">
        <ele>1087.2</ele>
        <time>2025-07-21T05:58:07Z</time>
      </trkpt>
      <trkpt lat="42.8629" lon="1.09147">
        <ele>1086.2</ele>
        <time>2025-07-21T05:58:09Z</time>
      </trkpt>
      <trkpt lat="42.86295" lon="1.09135">
        <ele>1085.8</ele>
        <time>2025-07-21T05:58:10Z</time>
      </trkpt>
      <trkpt lat="42.86299" lon="1.09123">
        <ele>1085.2</ele>
        <time>2025-07-21T05:58:11Z</time>
      </trkpt>
      <trkpt lat="42.86307" lon="1.091">
        <ele>1084</ele>
        <time>2025-07-21T05:58:13Z</time>
      </trkpt>
      <trkpt lat="42.86316" lon="1.09078">
        <ele>1082.8</ele>
        <time>2025-07-21T05:58:15Z</time>
      </trkpt>
      <trkpt lat="42.86321" lon="1.09067">
        <ele>1082.2</ele>
        <time>2025-07-21T05:58:16Z</time>
      </trkpt>
      <trkpt lat="42.86327" lon="1.09057">
        <ele>1081</ele>
        <time>2025-07-21T05:58:17Z</time>
      </trkpt>
      <trkpt lat="42.86342" lon="1.09026">
        <ele>1079.6</ele>
        <time>2025-07-21T05:58:20Z</time>
      </trkpt>
      <trkpt lat="42.86347" lon="1.09015">
        <ele>1078.8</ele>
        <time>2025-07-21T05:58:21Z</time>
      </trkpt>
      <trkpt lat="42.86352" lon="1.09004">
        <ele>1078.2</ele>
        <time>2025-07-21T05:58:22Z</time>
      </trkpt>
      <trkpt lat="42.86368" lon="1.08971">
        <ele>1076.8</ele>
        <time>2025-07-21T05:58:25Z</time>
      </trkpt>
      <trkpt lat="42.8638" lon="1.08949">
        <ele>1075.6</ele>
        <time>2025-07-21T05:58:27Z</time>
      </trkpt>
      <trkpt lat="42.86386" lon="1.08938">
        <ele>1075.4</ele>
        <time>2025-07-21T05:58:28Z</time>
      </trkpt>
      <trkpt lat="42.86393" lon="1.08927">
        <ele>1074.4</ele>
        <time>2025-07-21T05:58:29Z</time>
      </trkpt>
      <trkpt lat="42.86405" lon="1.08905">
        <ele>1073</ele>
        <time>2025-07-21T05:58:31Z</time>
      </trkpt>
      <trkpt lat="42.86418" lon="1.08883">
        <ele>1072</ele>
        <time>2025-07-21T05:58:33Z</time>
      </trkpt>
      <trkpt lat="42.86431" lon="1.08862">
        <ele>1070.8</ele>
        <time>2025-07-21T05:58:35Z</time>
      </trkpt>
      <trkpt lat="42.86437" lon="1.08852">
        <ele>1070.6</ele>
        <time>2025-07-21T05:58:36Z</time>
      </trkpt>
      <trkpt lat="42.8645" lon="1.08832">
        <ele>1069.8</ele>
        <time>2025-07-21T05:58:38Z</time>
      </trkpt>
      <trkpt lat="42.86456" lon="1.08822">
        <ele>1068.6</ele>
        <time>2025-07-21T05:58:39Z</time>
      </trkpt>
      <trkpt lat="42.86468" lon="1.08802">
        <ele>1067.4</ele>
        <time>2025-07-21T05:58:41Z</time>
      </trkpt>
      <trkpt lat="42.86474" lon="1.08793">
        <ele>1067</ele>
        <time>2025-07-21T05:58:42Z</time>
      </trkpt>
      <trkpt lat="42.86479" lon="1.08785">
        <ele>1066.4</ele>
        <time>2025-07-21T05:58:43Z</time>
      </trkpt>
      <trkpt lat="42.86487" lon="1.0877">
        <ele>1065.2</ele>
        <time>2025-07-21T05:58:45Z</time>
      </trkpt>
      <trkpt lat="42.86489" lon="1.08755">
        <ele>1063.8</ele>
        <time>2025-07-21T05:58:47Z</time>
      </trkpt>
      <trkpt lat="42.86487" lon="1.08748">
        <ele>1063</ele>
        <time>2025-07-21T05:58:48Z</time>
      </trkpt>
      <trkpt lat="42.86484" lon="1.08741">
        <ele>1062.2</ele>
        <time>2025-07-21T05:58:49Z</time>
      </trkpt>
      <trkpt lat="42.86474" lon="1.08728">
        <ele>1061.4</ele>
        <time>2025-07-21T05:58:51Z</time>
      </trkpt>
      <trkpt lat="42.86469" lon="1.08722">
        <ele>1061.2</ele>
        <time>2025-07-21T05:58:52Z</time>
      </trkpt>
      <trkpt lat="42.86464" lon="1.08714">
        <ele>1060.8</ele>
        <time>2025-07-21T05:58:53Z</time>
      </trkpt>
      <trkpt lat="42.86455" lon="1.08697">
        <ele>1060.4</ele>
        <time>2025-07-21T05:58:55Z</time>
      </trkpt>
      <trkpt lat="42.86451" lon="1.08687">
        <ele>1059.8</ele>
        <time>2025-07-21T05:58:56Z</time>
      </trkpt>
      <trkpt lat="42.86445" lon="1.08667">
        <ele>1058.6</ele>
        <time>2025-07-21T05:58:58Z</time>
      </trkpt>
      <trkpt lat="42.86443" lon="1.08657">
        <ele>1057.6</ele>
        <time>2025-07-21T05:58:59Z</time>
      </trkpt>
      <trkpt lat="42.86441" lon="1.08646">
        <ele>1057.2</ele>
        <time>2025-07-21T05:59:00Z</time>
      </trkpt>
      <trkpt lat="42.86435" lon="1.08625">
        <ele>1056.2</ele>
        <time>2025-07-21T05:59:02Z</time>
      </trkpt>
      <trkpt lat="42.86433" lon="1.08614">
        <ele>1055.2</ele>
        <time>2025-07-21T05:59:03Z</time>
      </trkpt>
      <trkpt lat="42.86428" lon="1.08605">
        <ele>1053.6</ele>
        <time>2025-07-21T05:59:04Z</time>
      </trkpt>
      <trkpt lat="42.86423" lon="1.08596">
        <ele>1053.4</ele>
        <time>2025-07-21T05:59:05Z</time>
      </trkpt>
      <trkpt lat="42.86418" lon="1.08588">
        <ele>1052.4</ele>
        <time>2025-07-21T05:59:06Z</time>
      </trkpt>
      <trkpt lat="42.86409" lon="1.08576">
        <ele>1051</ele>
        <time>2025-07-21T05:59:08Z</time>
      </trkpt>
      <trkpt lat="42.864" lon="1.08566">
        <ele>1049.6</ele>
        <time>2025-07-21T05:59:10Z</time>
      </trkpt>
      <trkpt lat="42.86396" lon="1.08561">
        <ele>1048.8</ele>
        <time>2025-07-21T05:59:11Z</time>
      </trkpt>
      <trkpt lat="42.86393" lon="1.08556">
        <ele>1048.4</ele>
        <time>2025-07-21T05:59:12Z</time>
      </trkpt>
      <trkpt lat="42.86392" lon="1.08551">
        <ele>1047.2</ele>
        <time>2025-07-21T05:59:13Z</time>
      </trkpt>
      <trkpt lat="42.86396" lon="1.08542">
        <ele>1046.4</ele>
        <time>2025-07-21T05:59:15Z</time>
      </trkpt>
      <trkpt lat="42.86401" lon="1.08541">
        <ele>1046</ele>
        <time>2025-07-21T05:59:16Z</time>
      </trkpt>
      <trkpt lat="42.8641" lon="1.08545">
        <ele>1045</ele>
        <time>2025-07-21T05:59:18Z</time>
      </trkpt>
      <trkpt lat="42.86414" lon="1.0855">
        <ele>1044.8</ele>
        <time>2025-07-21T05:59:19Z</time>
      </trkpt>
      <trkpt lat="42.86422" lon="1.08563">
        <ele>1043.4</ele>
        <time>2025-07-21T05:59:21Z</time>
      </trkpt>
      <trkpt lat="42.86435" lon="1.08584">
        <ele>1042.2</ele>
        <time>2025-07-21T05:59:24Z</time>
      </trkpt>
      <trkpt lat="42.8644" lon="1.08591">
        <ele>1041.6</ele>
        <time>2025-07-21T05:59:25Z</time>
      </trkpt>
      <trkpt lat="42.86445" lon="1.08597">
        <ele>1041</ele>
        <time>2025-07-21T05:59:26Z</time>
      </trkpt>
      <trkpt lat="42.86449" lon="1.08604">
        <ele>1040.8</ele>
        <time>2025-07-21T05:59:27Z</time>
      </trkpt>
      <trkpt lat="42.86455" lon="1.08622">
        <ele>1040.4</ele>
        <time>2025-07-21T05:59:29Z</time>
      </trkpt>
      <trkpt lat="42.86458" lon="1.08631">
        <ele>1040</ele>
        <time>2025-07-21T05:59:30Z</time>
      </trkpt>
      <trkpt lat="42.86463" lon="1.0865">
        <ele>1039.4</ele>
        <time>2025-07-21T05:59:32Z</time>
      </trkpt>
      <trkpt lat="42.86469" lon="1.08667">
        <ele>1038.8</ele>
        <time>2025-07-21T05:59:34Z</time>
      </trkpt>
      <trkpt lat="42.86479" lon="1.08679">
        <ele>1038.2</ele>
        <time>2025-07-21T05:59:36Z</time>
      </trkpt>
      <trkpt lat="42.86492" lon="1.08689">
        <ele>1037.6</ele>
        <time>2025-07-21T05:59:38Z</time>
      </trkpt>
      <trkpt lat="42.86499" lon="1.08692">
        <ele>1037.6</ele>
        <time>2025-07-21T05:59:39Z</time>
      </trkpt>
      <trkpt lat="42.86508" lon="1.08697">
        <ele>1037.2</ele>
        <time>2025-07-21T05:59:40Z</time>
      </trkpt>
      <trkpt lat="42.86524" lon="1.08704">
        <ele>1036.4</ele>
        <time>2025-07-21T05:59:42Z</time>
      </trkpt>
      <trkpt lat="42.86539" lon="1.08713">
        <ele>1035.4</ele>
        <time>2025-07-21T05:59:44Z</time>
      </trkpt>
      <trkpt lat="42.86554" lon="1.0872">
        <ele>1034.2</ele>
        <time>2025-07-21T05:59:46Z</time>
      </trkpt>
      <trkpt lat="42.86562" lon="1.08722">
        <ele>1033.6</ele>
        <time>2025-07-21T05:59:47Z</time>
      </trkpt>
      <trkpt lat="42.86569" lon="1.08728">
        <ele>1032.8</ele>
        <time>2025-07-21T05:59:48Z</time>
      </trkpt>
      <trkpt lat="42.86577" lon="1.0874">
        <ele>1031.6</ele>
        <time>2025-07-21T05:59:50Z</time>
      </trkpt>
      <trkpt lat="42.86577" lon="1.08754">
        <ele>1030.8</ele>
        <time>2025-07-21T05:59:52Z</time>
      </trkpt>
      <trkpt lat="42.86574" lon="1.08761">
        <ele>1030</ele>
        <time>2025-07-21T05:59:53Z</time>
      </trkpt>
      <trkpt lat="42.86569" lon="1.08768">
        <ele>1029.6</ele>
        <time>2025-07-21T05:59:54Z</time>
      </trkpt>
      <trkpt lat="42.86564" lon="1.08775">
        <ele>1029</ele>
        <time>2025-07-21T05:59:55Z</time>
      </trkpt>
      <trkpt lat="42.86559" lon="1.08782">
        <ele>1028.6</ele>
        <time>2025-07-21T05:59:56Z</time>
      </trkpt>
      <trkpt lat="42.86553" lon="1.0879">
        <ele>1027.8</ele>
        <time>2025-07-21T05:59:57Z</time>
      </trkpt>
      <trkpt lat="42.86538" lon="1.08813">
        <ele>1026.4</ele>
        <time>2025-07-21T06:00:00Z</time>
      </trkpt>
      <trkpt lat="42.86532" lon="1.08821">
        <ele>1026</ele>
        <time>2025-07-21T06:00:01Z</time>
      </trkpt>
      <trkpt lat="42.86527" lon="1.0883">
        <ele>1025.2</ele>
        <time>2025-07-21T06:00:02Z</time>
      </trkpt>
      <trkpt lat="42.86518" lon="1.08848">
        <ele>1023.6</ele>
        <time>2025-07-21T06:00:04Z</time>
      </trkpt>
      <trkpt lat="42.86509" lon="1.08869">
        <ele>1022.6</ele>
        <time>2025-07-21T06:00:06Z</time>
      </trkpt>
      <trkpt lat="42.86504" lon="1.08893">
        <ele>1021.4</ele>
        <time>2025-07-21T06:00:08Z</time>
      </trkpt>
      <trkpt lat="42.86501" lon="1.08906">
        <ele>1020.2</ele>
        <time>2025-07-21T06:00:09Z</time>
      </trkpt>
      <trkpt lat="42.86498" lon="1.08918">
        <ele>1019.4</ele>
        <time>2025-07-21T06:00:10Z</time>
      </trkpt>
      <trkpt lat="42.86493" lon="1.08943">
        <ele>1017.8</ele>
        <time>2025-07-21T06:00:12Z</time>
      </trkpt>
      <trkpt lat="42.86488" lon="1.08966">
        <ele>1016.6</ele>
        <time>2025-07-21T06:00:14Z</time>
      </trkpt>
      <trkpt lat="42.86484" lon="1.08988">
        <ele>1015.4</ele>
        <time>2025-07-21T06:00:16Z</time>
      </trkpt>
      <trkpt lat="42.86482" lon="1.08999">
        <ele>1014.4</ele>
        <time>2025-07-21T06:00:17Z</time>
      </trkpt>
      <trkpt lat="42.86477" lon="1.09021">
        <ele>1012.6</ele>
        <time>2025-07-21T06:00:19Z</time>
      </trkpt>
      <trkpt lat="42.86476" lon="1.09044">
        <ele>1011.6</ele>
        <time>2025-07-21T06:00:21Z</time>
      </trkpt>
      <trkpt lat="42.86477" lon="1.09056">
        <ele>1011</ele>
        <time>2025-07-21T06:00:22Z</time>
      </trkpt>
      <trkpt lat="42.86481" lon="1.09092">
        <ele>1009.4</ele>
        <time>2025-07-21T06:00:25Z</time>
      </trkpt>
      <trkpt lat="42.86484" lon="1.09115">
        <ele>1008.2</ele>
        <time>2025-07-21T06:00:27Z</time>
      </trkpt>
      <trkpt lat="42.86493" lon="1.09149">
        <ele>1006.8</ele>
        <time>2025-07-21T06:00:30Z</time>
      </trkpt>
      <trkpt lat="42.86498" lon="1.09158">
        <ele>1005.6</ele>
        <time>2025-07-21T06:00:31Z</time>
      </trkpt>
      <trkpt lat="42.86503" lon="1.09168">
        <ele>1004.4</ele>
        <time>2025-07-21T06:00:32Z</time>
      </trkpt>
      <trkpt lat="42.86517" lon="1.09197">
        <ele>1003.2</ele>
        <time>2025-07-21T06:00:35Z</time>
      </trkpt>
      <trkpt lat="42.8652" lon="1.09207">
        <ele>1002.4</ele>
        <time>2025-07-21T06:00:36Z</time>
      </trkpt>
      <trkpt lat="42.86523" lon="1.09217">
        <ele>1001.6</ele>
        <time>2025-07-21T06:00:37Z</time>
      </trkpt>
      <trkpt lat="42.86525" lon="1.09237">
        <ele>1000.2</ele>
        <time>2025-07-21T06:00:39Z</time>
      </trkpt>
      <trkpt lat="42.86526" lon="1.09254">
        <ele>998.8</ele>
        <time>2025-07-21T06:00:41Z</time>
      </trkpt>
      <trkpt lat="42.86531" lon="1.09268">
        <ele>998</ele>
        <time>2025-07-21T06:00:43Z</time>
      </trkpt>
      <trkpt lat="42.86535" lon="1.09273">
        <ele>997.2</ele>
        <time>2025-07-21T06:00:44Z</time>
      </trkpt>
      <trkpt lat="42.86545" lon="1.09277">
        <ele>995.4</ele>
        <time>2025-07-21T06:00:46Z</time>
      </trkpt>
      <trkpt lat="42.86557" lon="1.09276">
        <ele>994.2</ele>
        <time>2025-07-21T06:00:48Z</time>
      </trkpt>
      <trkpt lat="42.86578" lon="1.09269">
        <ele>992.8</ele>
        <time>2025-07-21T06:00:51Z</time>
      </trkpt>
      <trkpt lat="42.86593" lon="1.09262">
        <ele>992</ele>
        <time>2025-07-21T06:00:53Z</time>
      </trkpt>
      <trkpt lat="42.866" lon="1.09255">
        <ele>991.6</ele>
        <time>2025-07-21T06:00:54Z</time>
      </trkpt>
      <trkpt lat="42.86616" lon="1.0924">
        <ele>990.6</ele>
        <time>2025-07-21T06:00:56Z</time>
      </trkpt>
      <trkpt lat="42.86624" lon="1.09233">
        <ele>990</ele>
        <time>2025-07-21T06:00:57Z</time>
      </trkpt>
      <trkpt lat="42.86632" lon="1.09225">
        <ele>989.8</ele>
        <time>2025-07-21T06:00:58Z</time>
      </trkpt>
      <trkpt lat="42.86646" lon="1.09208">
        <ele>988.6</ele>
        <time>2025-07-21T06:01:00Z</time>
      </trkpt>
      <trkpt lat="42.86653" lon="1.092">
        <ele>987.8</ele>
        <time>2025-07-21T06:01:01Z</time>
      </trkpt>
      <trkpt lat="42.8666" lon="1.0919">
        <ele>987.2</ele>
        <time>2025-07-21T06:01:02Z</time>
      </trkpt>
      <trkpt lat="42.86667" lon="1.0918">
        <ele>986</ele>
        <time>2025-07-21T06:01:03Z</time>
      </trkpt>
      <trkpt lat="42.86681" lon="1.0916">
        <ele>985</ele>
        <time>2025-07-21T06:01:05Z</time>
      </trkpt>
      <trkpt lat="42.86693" lon="1.09138">
        <ele>983.6</ele>
        <time>2025-07-21T06:01:07Z</time>
      </trkpt>
      <trkpt lat="42.86699" lon="1.09127">
        <ele>982.4</ele>
        <time>2025-07-21T06:01:08Z</time>
      </trkpt>
      <trkpt lat="42.86706" lon="1.09116">
        <ele>981</ele>
        <time>2025-07-21T06:01:09Z</time>
      </trkpt>
      <trkpt lat="42.86719" lon="1.09095">
        <ele>979.6</ele>
        <time>2025-07-21T06:01:11Z</time>
      </trkpt>
      <trkpt lat="42.86732" lon="1.0907">
        <ele>977.8</ele>
        <time>2025-07-21T06:01:13Z</time>
      </trkpt>
      <trkpt lat="42.86738" lon="1.09057">
        <ele>976.6</ele>
        <time>2025-07-21T06:01:14Z</time>
      </trkpt>
      <trkpt lat="42.86751" lon="1.09033">
        <ele>974.8</ele>
        <time>2025-07-21T06:01:16Z</time>
      </trkpt>
      <trkpt lat="42.86757" lon="1.09022">
        <ele>974</ele>
        <time>2025-07-21T06:01:17Z</time>
      </trkpt>
      <trkpt lat="42.86764" lon="1.09011">
        <ele>972.4</ele>
        <time>2025-07-21T06:01:18Z</time>
      </trkpt>
      <trkpt lat="42.86771" lon="1.09001">
        <ele>970.8</ele>
        <time>2025-07-21T06:01:19Z</time>
      </trkpt>
      <trkpt lat="42.86786" lon="1.08982">
        <ele>968.8</ele>
        <time>2025-07-21T06:01:21Z</time>
      </trkpt>
      <trkpt lat="42.86801" lon="1.08965">
        <ele>967.2</ele>
        <time>2025-07-21T06:01:23Z</time>
      </trkpt>
      <trkpt lat="42.86816" lon="1.08948">
        <ele>965.6</ele>
        <time>2025-07-21T06:01:25Z</time>
      </trkpt>
      <trkpt lat="42.86824" lon="1.0894">
        <ele>964.6</ele>
        <time>2025-07-21T06:01:26Z</time>
      </trkpt>
      <trkpt lat="42.86837" lon="1.08924">
        <ele>963.2</ele>
        <time>2025-07-21T06:01:28Z</time>
      </trkpt>
      <trkpt lat="42.86852" lon="1.08908">
        <ele>961.8</ele>
        <time>2025-07-21T06:01:30Z</time>
      </trkpt>
      <trkpt lat="42.8686" lon="1.089">
        <ele>960.6</ele>
        <time>2025-07-21T06:01:31Z</time>
      </trkpt>
      <trkpt lat="42.86877" lon="1.08885">
        <ele>959.6</ele>
        <time>2025-07-21T06:01:33Z</time>
      </trkpt>
      <trkpt lat="42.86886" lon="1.08878">
        <ele>959.2</ele>
        <time>2025-07-21T06:01:34Z</time>
      </trkpt>
      <trkpt lat="42.86895" lon="1.0887">
        <ele>958</ele>
        <time>2025-07-21T06:01:35Z</time>
      </trkpt>
      <trkpt lat="42.86911" lon="1.08856">
        <ele>956.6</ele>
        <time>2025-07-21T06:01:37Z</time>
      </trkpt>
      <trkpt lat="42.86926" lon="1.08841">
        <ele>955.4</ele>
        <time>2025-07-21T06:01:39Z</time>
      </trkpt>
      <trkpt lat="42.86933" lon="1.08832">
        <ele>954.6</ele>
        <time>2025-07-21T06:01:40Z</time>
      </trkpt>
      <trkpt lat="42.86939" lon="1.08823">
        <ele>953.4</ele>
        <time>2025-07-21T06:01:41Z</time>
      </trkpt>
      <trkpt lat="42.86944" lon="1.08813">
        <ele>953</ele>
        <time>2025-07-21T06:01:42Z</time>
      </trkpt>
      <trkpt lat="42.86948" lon="1.08801">
        <ele>951.8</ele>
        <time>2025-07-21T06:01:43Z</time>
      </trkpt>
      <trkpt lat="42.86954" lon="1.08777">
        <ele>950.6</ele>
        <time>2025-07-21T06:01:45Z</time>
      </trkpt>
      <trkpt lat="42.86957" lon="1.08764">
        <ele>949.6</ele>
        <time>2025-07-21T06:01:46Z</time>
      </trkpt>
      <trkpt lat="42.86959" lon="1.08751">
        <ele>949</ele>
        <time>2025-07-21T06:01:47Z</time>
      </trkpt>
      <trkpt lat="42.86963" lon="1.0874">
        <ele>947.6</ele>
        <time>2025-07-21T06:01:48Z</time>
      </trkpt>
      <trkpt lat="42.86973" lon="1.08721">
        <ele>946</ele>
        <time>2025-07-21T06:01:50Z</time>
      </trkpt>
      <trkpt lat="42.86979" lon="1.08712">
        <ele>945</ele>
        <time>2025-07-21T06:01:51Z</time>
      </trkpt>
      <trkpt lat="42.86985" lon="1.08703">
        <ele>944.8</ele>
        <time>2025-07-21T06:01:52Z</time>
      </trkpt>
      <trkpt lat="42.8699" lon="1.08693">
        <ele>944</ele>
        <time>2025-07-21T06:01:53Z</time>
      </trkpt>
      <trkpt lat="42.86996" lon="1.08683">
        <ele>943.6</ele>
        <time>2025-07-21T06:01:54Z</time>
      </trkpt>
      <trkpt lat="42.87001" lon="1.08672">
        <ele>942.6</ele>
        <time>2025-07-21T06:01:55Z</time>
      </trkpt>
      <trkpt lat="42.8701" lon="1.08648">
        <ele>941.2</ele>
        <time>2025-07-21T06:01:57Z</time>
      </trkpt>
      <trkpt lat="42.87019" lon="1.08627">
        <ele>940</ele>
        <time>2025-07-21T06:01:59Z</time>
      </trkpt>
      <trkpt lat="42.8703" lon="1.08609">
        <ele>939</ele>
        <time>2025-07-21T06:02:01Z</time>
      </trkpt>
      <trkpt lat="42.87036" lon="1.08602">
        <ele>938</ele>
        <time>2025-07-21T06:02:02Z</time>
      </trkpt>
      <trkpt lat="42.87043" lon="1.08597">
        <ele>937</ele>
        <time>2025-07-21T06:02:03Z</time>
      </trkpt>
      <trkpt lat="42.8705" lon="1.08593">
        <ele>937</ele>
        <time>2025-07-21T06:02:04Z</time>
      </trkpt>
      <trkpt lat="42.87057" lon="1.08589">
        <ele>935.8</ele>
        <time>2025-07-21T06:02:05Z</time>
      </trkpt>
      <trkpt lat="42.87063" lon="1.08584">
        <ele>935.4</ele>
        <time>2025-07-21T06:02:06Z</time>
      </trkpt>
      <trkpt lat="42.87067" lon="1.08577">
        <ele>934.2</ele>
        <time>2025-07-21T06:02:07Z</time>
      </trkpt>
      <trkpt lat="42.8707" lon="1.08569">
        <ele>933.2</ele>
        <time>2025-07-21T06:02:08Z</time>
      </trkpt>
      <trkpt lat="42.87072" lon="1.08559">
        <ele>932.8</ele>
        <time>2025-07-21T06:02:09Z</time>
      </trkpt>
      <trkpt lat="42.87071" lon="1.08538">
        <ele>931.2</ele>
        <time>2025-07-21T06:02:11Z</time>
      </trkpt>
      <trkpt lat="42.87072" lon="1.08516">
        <ele>929.6</ele>
        <time>2025-07-21T06:02:13Z</time>
      </trkpt>
      <trkpt lat="42.87075" lon="1.08504">
        <ele>929.2</ele>
        <time>2025-07-21T06:02:14Z</time>
      </trkpt>
      <trkpt lat="42.87079" lon="1.08493">
        <ele>928.4</ele>
        <time>2025-07-21T06:02:15Z</time>
      </trkpt>
      <trkpt lat="42.87088" lon="1.0847">
        <ele>927.2</ele>
        <time>2025-07-21T06:02:17Z</time>
      </trkpt>
      <trkpt lat="42.87093" lon="1.08459">
        <ele>926.2</ele>
        <time>2025-07-21T06:02:18Z</time>
      </trkpt>
      <trkpt lat="42.87102" lon="1.08437">
        <ele>925</ele>
        <time>2025-07-21T06:02:20Z</time>
      </trkpt>
      <trkpt lat="42.87113" lon="1.08416">
        <ele>923.4</ele>
        <time>2025-07-21T06:02:22Z</time>
      </trkpt>
      <trkpt lat="42.87125" lon="1.08395">
        <ele>921.8</ele>
        <time>2025-07-21T06:02:24Z</time>
      </trkpt>
      <trkpt lat="42.87131" lon="1.08384">
        <ele>920.2</ele>
        <time>2025-07-21T06:02:25Z</time>
      </trkpt>
      <trkpt lat="42.87144" lon="1.08362">
        <ele>918.6</ele>
        <time>2025-07-21T06:02:27Z</time>
      </trkpt>
      <trkpt lat="42.87157" lon="1.0834">
        <ele>917.2</ele>
        <time>2025-07-21T06:02:29Z</time>
      </trkpt>
      <trkpt lat="42.87164" lon="1.0833">
        <ele>915.6</ele>
        <time>2025-07-21T06:02:30Z</time>
      </trkpt>
      <trkpt lat="42.87171" lon="1.08319">
        <ele>915</ele>
        <time>2025-07-21T06:02:31Z</time>
      </trkpt>
      <trkpt lat="42.87177" lon="1.08308">
        <ele>913.8</ele>
        <time>2025-07-21T06:02:32Z</time>
      </trkpt>
      <trkpt lat="42.8719" lon="1.08286">
        <ele>911.8</ele>
        <time>2025-07-21T06:02:34Z</time>
      </trkpt>
      <trkpt lat="42.87196" lon="1.08275">
        <ele>910.4</ele>
        <time>2025-07-21T06:02:35Z</time>
      </trkpt>
      <trkpt lat="42.87207" lon="1.08253">
        <ele>909</ele>
        <time>2025-07-21T06:02:37Z</time>
      </trkpt>
      <trkpt lat="42.87215" lon="1.08233">
        <ele>906.8</ele>
        <time>2025-07-21T06:02:39Z</time>
      </trkpt>
      <trkpt lat="42.8722" lon="1.08223">
        <ele>905.8</ele>
        <time>2025-07-21T06:02:40Z</time>
      </trkpt>
      <trkpt lat="42.87225" lon="1.08214">
        <ele>905.4</ele>
        <time>2025-07-21T06:02:41Z</time>
      </trkpt>
      <trkpt lat="42.87231" lon="1.08205">
        <ele>904.6</ele>
        <time>2025-07-21T06:02:42Z</time>
      </trkpt>
      <trkpt lat="42.87242" lon="1.08186">
        <ele>902.8</ele>
        <time>2025-07-21T06:02:44Z</time>
      </trkpt>
      <trkpt lat="42.87259" lon="1.08158">
        <ele>901.2</ele>
        <time>2025-07-21T06:02:47Z</time>
      </trkpt>
      <trkpt lat="42.87273" lon="1.0814">
        <ele>899.8</ele>
        <time>2025-07-21T06:02:49Z</time>
      </trkpt>
      <trkpt lat="42.87286" lon="1.08119">
        <ele>898.6</ele>
        <time>2025-07-21T06:02:51Z</time>
      </trkpt>
      <trkpt lat="42.87292" lon="1.08109">
        <ele>897.6</ele>
        <time>2025-07-21T06:02:52Z</time>
      </trkpt>
      <trkpt lat="42.87305" lon="1.08086">
        <ele>895</ele>
        <time>2025-07-21T06:02:54Z</time>
      </trkpt>
      <trkpt lat="42.87314" lon="1.08061">
        <ele>893.8</ele>
        <time>2025-07-21T06:02:56Z</time>
      </trkpt>
      <trkpt lat="42.8732" lon="1.08049">
        <ele>892.8</ele>
        <time>2025-07-21T06:02:57Z</time>
      </trkpt>
      <trkpt lat="42.87326" lon="1.08038">
        <ele>892.2</ele>
        <time>2025-07-21T06:02:58Z</time>
      </trkpt>
      <trkpt lat="42.87332" lon="1.08027">
        <ele>891.4</ele>
        <time>2025-07-21T06:02:59Z</time>
      </trkpt>
      <trkpt lat="42.87338" lon="1.08017">
        <ele>891</ele>
        <time>2025-07-21T06:03:00Z</time>
      </trkpt>
      <trkpt lat="42.87349" lon="1.07994">
        <ele>888.8</ele>
        <time>2025-07-21T06:03:02Z</time>
      </trkpt>
      <trkpt lat="42.87362" lon="1.07973">
        <ele>887.2</ele>
        <time>2025-07-21T06:03:04Z</time>
      </trkpt>
      <trkpt lat="42.87368" lon="1.07963">
        <ele>886.6</ele>
        <time>2025-07-21T06:03:05Z</time>
      </trkpt>
      <trkpt lat="42.87375" lon="1.07952">
        <ele>886.2</ele>
        <time>2025-07-21T06:03:06Z</time>
      </trkpt>
      <trkpt lat="42.87387" lon="1.07931">
        <ele>885</ele>
        <time>2025-07-21T06:03:08Z</time>
      </trkpt>
      <trkpt lat="42.87397" lon="1.0791">
        <ele>883.4</ele>
        <time>2025-07-21T06:03:10Z</time>
      </trkpt>
      <trkpt lat="42.87405" lon="1.07889">
        <ele>882.2</ele>
        <time>2025-07-21T06:03:12Z</time>
      </trkpt>
      <trkpt lat="42.87417" lon="1.07873">
        <ele>880.8</ele>
        <time>2025-07-21T06:03:14Z</time>
      </trkpt>
      <trkpt lat="42.87431" lon="1.07858">
        <ele>879.8</ele>
        <time>2025-07-21T06:03:16Z</time>
      </trkpt>
      <trkpt lat="42.87445" lon="1.07845">
        <ele>878.8</ele>
        <time>2025-07-21T06:03:18Z</time>
      </trkpt>
      <trkpt lat="42.87452" lon="1.07837">
        <ele>878.4</ele>
        <time>2025-07-21T06:03:19Z</time>
      </trkpt>
      <trkpt lat="42.87465" lon="1.07821">
        <ele>876.8</ele>
        <time>2025-07-21T06:03:21Z</time>
      </trkpt>
      <trkpt lat="42.87472" lon="1.07813">
        <ele>876.6</ele>
        <time>2025-07-21T06:03:22Z</time>
      </trkpt>
      <trkpt lat="42.8748" lon="1.07806">
        <ele>875.8</ele>
        <time>2025-07-21T06:03:23Z</time>
      </trkpt>
      <trkpt lat="42.87487" lon="1.07801">
        <ele>875.2</ele>
        <time>2025-07-21T06:03:24Z</time>
      </trkpt>
      <trkpt lat="42.87502" lon="1.07791">
        <ele>874.4</ele>
        <time>2025-07-21T06:03:26Z</time>
      </trkpt>
      <trkpt lat="42.87516" lon="1.07779">
        <ele>873.6</ele>
        <time>2025-07-21T06:03:28Z</time>
      </trkpt>
      <trkpt lat="42.87523" lon="1.07771">
        <ele>873</ele>
        <time>2025-07-21T06:03:29Z</time>
      </trkpt>
      <trkpt lat="42.87529" lon="1.07763">
        <ele>872.6</ele>
        <time>2025-07-21T06:03:30Z</time>
      </trkpt>
      <trkpt lat="42.87534" lon="1.07753">
        <ele>871.8</ele>
        <time>2025-07-21T06:03:31Z</time>
      </trkpt>
      <trkpt lat="42.87538" lon="1.07742">
        <ele>871.4</ele>
        <time>2025-07-21T06:03:32Z</time>
      </trkpt>
      <trkpt lat="42.87541" lon="1.07731">
        <ele>870.8</ele>
        <time>2025-07-21T06:03:33Z</time>
      </trkpt>
      <trkpt lat="42.87549" lon="1.07709">
        <ele>869.6</ele>
        <time>2025-07-21T06:03:35Z</time>
      </trkpt>
      <trkpt lat="42.87553" lon="1.07698">
        <ele>868.8</ele>
        <time>2025-07-21T06:03:36Z</time>
      </trkpt>
      <trkpt lat="42.87559" lon="1.07686">
        <ele>868.6</ele>
        <time>2025-07-21T06:03:37Z</time>
      </trkpt>
      <trkpt lat="42.87564" lon="1.0768">
        <ele>867.8</ele>
        <time>2025-07-21T06:03:38Z</time>
      </trkpt>
      <trkpt lat="42.87571" lon="1.07673">
        <ele>867.4</ele>
        <time>2025-07-21T06:03:39Z</time>
      </trkpt>
      <trkpt lat="42.87586" lon="1.07661">
        <ele>866.6</ele>
        <time>2025-07-21T06:03:41Z</time>
      </trkpt>
      <trkpt lat="42.87593" lon="1.07656">
        <ele>866.4</ele>
        <time>2025-07-21T06:03:42Z</time>
      </trkpt>
      <trkpt lat="42.87616" lon="1.07639">
        <ele>864.8</ele>
        <time>2025-07-21T06:03:45Z</time>
      </trkpt>
      <trkpt lat="42.87631" lon="1.07629">
        <ele>863.4</ele>
        <time>2025-07-21T06:03:47Z</time>
      </trkpt>
      <trkpt lat="42.87639" lon="1.07624">
        <ele>862.6</ele>
        <time>2025-07-21T06:03:48Z</time>
      </trkpt>
      <trkpt lat="42.87655" lon="1.07612">
        <ele>862</ele>
        <time>2025-07-21T06:03:50Z</time>
      </trkpt>
      <trkpt lat="42.87678" lon="1.07598">
        <ele>860.4</ele>
        <time>2025-07-21T06:03:53Z</time>
      </trkpt>
      <trkpt lat="42.87686" lon="1.07595">
        <ele>860.2</ele>
        <time>2025-07-21T06:03:54Z</time>
      </trkpt>
      <trkpt lat="42.87693" lon="1.07594">
        <ele>859.6</ele>
        <time>2025-07-21T06:03:55Z</time>
      </trkpt>
      <trkpt lat="42.87701" lon="1.07594">
        <ele>859.2</ele>
        <time>2025-07-21T06:03:56Z</time>
      </trkpt>
      <trkpt lat="42.87708" lon="1.07596">
        <ele>858.8</ele>
        <time>2025-07-21T06:03:57Z</time>
      </trkpt>
      <trkpt lat="42.87723" lon="1.07602">
        <ele>858</ele>
        <time>2025-07-21T06:03:59Z</time>
      </trkpt>
      <trkpt lat="42.87739" lon="1.0761">
        <ele>857</ele>
        <time>2025-07-21T06:04:01Z</time>
      </trkpt>
      <trkpt lat="42.87746" lon="1.07613">
        <ele>856.8</ele>
        <time>2025-07-21T06:04:02Z</time>
      </trkpt>
      <trkpt lat="42.87762" lon="1.07619">
        <ele>855.6</ele>
        <time>2025-07-21T06:04:04Z</time>
      </trkpt>
      <trkpt lat="42.87777" lon="1.07621">
        <ele>854.8</ele>
        <time>2025-07-21T06:04:06Z</time>
      </trkpt>
      <trkpt lat="42.87784" lon="1.0762">
        <ele>854.2</ele>
        <time>2025-07-21T06:04:07Z</time>
      </trkpt>
      <trkpt lat="42.87791" lon="1.07617">
        <ele>853.6</ele>
        <time>2025-07-21T06:04:08Z</time>
      </trkpt>
      <trkpt lat="42.87796" lon="1.07611">
        <ele>853.4</ele>
        <time>2025-07-21T06:04:09Z</time>
      </trkpt>
      <trkpt lat="42.87799" lon="1.07604">
        <ele>853</ele>
        <time>2025-07-21T06:04:10Z</time>
      </trkpt>
      <trkpt lat="42.87799" lon="1.07583">
        <ele>852.2</ele>
        <time>2025-07-21T06:04:12Z</time>
      </trkpt>
      <trkpt lat="42.87796" lon="1.07575">
        <ele>851.8</ele>
        <time>2025-07-21T06:04:13Z</time>
      </trkpt>
      <trkpt lat="42.87791" lon="1.07567">
        <ele>851.4</ele>
        <time>2025-07-21T06:04:14Z</time>
      </trkpt>
      <trkpt lat="42.87787" lon="1.0756">
        <ele>850.8</ele>
        <time>2025-07-21T06:04:15Z</time>
      </trkpt>
      <trkpt lat="42.87783" lon="1.07541">
        <ele>849.4</ele>
        <time>2025-07-21T06:04:17Z</time>
      </trkpt>
      <trkpt lat="42.87785" lon="1.0752">
        <ele>848.6</ele>
        <time>2025-07-21T06:04:19Z</time>
      </trkpt>
      <trkpt lat="42.87788" lon="1.0751">
        <ele>848.2</ele>
        <time>2025-07-21T06:04:20Z</time>
      </trkpt>
      <trkpt lat="42.87791" lon="1.07499">
        <ele>847.8</ele>
        <time>2025-07-21T06:04:21Z</time>
      </trkpt>
      <trkpt lat="42.87794" lon="1.07489">
        <ele>847.2</ele>
        <time>2025-07-21T06:04:22Z</time>
      </trkpt>
      <trkpt lat="42.87796" lon="1.07479">
        <ele>847</ele>
        <time>2025-07-21T06:04:23Z</time>
      </trkpt>
      <trkpt lat="42.87801" lon="1.07459">
        <ele>846.6</ele>
        <time>2025-07-21T06:04:25Z</time>
      </trkpt>
      <trkpt lat="42.87803" lon="1.07449">
        <ele>845.8</ele>
        <time>2025-07-21T06:04:26Z</time>
      </trkpt>
      <trkpt lat="42.87805" lon="1.07427">
        <ele>844.6</ele>
        <time>2025-07-21T06:04:28Z</time>
      </trkpt>
      <trkpt lat="42.87807" lon="1.07417">
        <ele>843.8</ele>
        <time>2025-07-21T06:04:29Z</time>
      </trkpt>
      <trkpt lat="42.8781" lon="1.07406">
        <ele>843</ele>
        <time>2025-07-21T06:04:30Z</time>
      </trkpt>
      <trkpt lat="42.87817" lon="1.07383">
        <ele>842</ele>
        <time>2025-07-21T06:04:32Z</time>
      </trkpt>
      <trkpt lat="42.87821" lon="1.07371">
        <ele>841.8</ele>
        <time>2025-07-21T06:04:33Z</time>
      </trkpt>
      <trkpt lat="42.87829" lon="1.07345">
        <ele>840.4</ele>
        <time>2025-07-21T06:04:35Z</time>
      </trkpt>
      <trkpt lat="42.87837" lon="1.07321">
        <ele>839.4</ele>
        <time>2025-07-21T06:04:37Z</time>
      </trkpt>
      <trkpt lat="42.87841" lon="1.0731">
        <ele>839</ele>
        <time>2025-07-21T06:04:38Z</time>
      </trkpt>
      <trkpt lat="42.87844" lon="1.07297">
        <ele>838.2</ele>
        <time>2025-07-21T06:04:39Z</time>
      </trkpt>
      <trkpt lat="42.87849" lon="1.07285">
        <ele>837.8</ele>
        <time>2025-07-21T06:04:40Z</time>
      </trkpt>
      <trkpt lat="42.8786" lon="1.07263">
        <ele>836.6</ele>
        <time>2025-07-21T06:04:42Z</time>
      </trkpt>
      <trkpt lat="42.8788" lon="1.07233">
        <ele>834.6</ele>
        <time>2025-07-21T06:04:45Z</time>
      </trkpt>
      <trkpt lat="42.87892" lon="1.07213">
        <ele>833.2</ele>
        <time>2025-07-21T06:04:47Z</time>
      </trkpt>
      <trkpt lat="42.87897" lon="1.07205">
        <ele>832.6</ele>
        <time>2025-07-21T06:04:48Z</time>
      </trkpt>
      <trkpt lat="42.87903" lon="1.07196">
        <ele>831.8</ele>
        <time>2025-07-21T06:04:49Z</time>
      </trkpt>
      <trkpt lat="42.87914" lon="1.07176">
        <ele>830.8</ele>
        <time>2025-07-21T06:04:51Z</time>
      </trkpt>
      <trkpt lat="42.87918" lon="1.07166">
        <ele>830.2</ele>
        <time>2025-07-21T06:04:52Z</time>
      </trkpt>
      <trkpt lat="42.87926" lon="1.07146">
        <ele>828.8</ele>
        <time>2025-07-21T06:04:54Z</time>
      </trkpt>
      <trkpt lat="42.87936" lon="1.07129">
        <ele>827.8</ele>
        <time>2025-07-21T06:04:56Z</time>
      </trkpt>
      <trkpt lat="42.87953" lon="1.0711">
        <ele>826.4</ele>
        <time>2025-07-21T06:04:59Z</time>
      </trkpt>
      <trkpt lat="42.87965" lon="1.07097">
        <ele>825.2</ele>
        <time>2025-07-21T06:05:01Z</time>
      </trkpt>
      <trkpt lat="42.87975" lon="1.07089">
        <ele>824.4</ele>
        <time>2025-07-21T06:05:03Z</time>
      </trkpt>
      <trkpt lat="42.8798" lon="1.07086">
        <ele>823.4</ele>
        <time>2025-07-21T06:05:04Z</time>
      </trkpt>
      <trkpt lat="42.87985" lon="1.07084">
        <ele>823</ele>
        <time>2025-07-21T06:05:05Z</time>
      </trkpt>
      <trkpt lat="42.87997" lon="1.07086">
        <ele>822.4</ele>
        <time>2025-07-21T06:05:07Z</time>
      </trkpt>
      <trkpt lat="42.88002" lon="1.0709">
        <ele>822.2</ele>
        <time>2025-07-21T06:05:08Z</time>
      </trkpt>
      <trkpt lat="42.88016" lon="1.07108">
        <ele>820.4</ele>
        <time>2025-07-21T06:05:11Z</time>
      </trkpt>
      <trkpt lat="42.88022" lon="1.07114">
        <ele>820</ele>
        <time>2025-07-21T06:05:12Z</time>
      </trkpt>
      <trkpt lat="42.88029" lon="1.07118">
        <ele>819.6</ele>
        <time>2025-07-21T06:05:13Z</time>
      </trkpt>
      <trkpt lat="42.88036" lon="1.07121">
        <ele>819</ele>
        <time>2025-07-21T06:05:14Z</time>
      </trkpt>
      <trkpt lat="42.88052" lon="1.0712">
        <ele>818</ele>
        <time>2025-07-21T06:05:16Z</time>
      </trkpt>
      <trkpt lat="42.88059" lon="1.07118">
        <ele>817.6</ele>
        <time>2025-07-21T06:05:17Z</time>
      </trkpt>
      <trkpt lat="42.88067" lon="1.07116">
        <ele>816.8</ele>
        <time>2025-07-21T06:05:18Z</time>
      </trkpt>
      <trkpt lat="42.88074" lon="1.07115">
        <ele>816</ele>
        <time>2025-07-21T06:05:19Z</time>
      </trkpt>
      <trkpt lat="42.88082" lon="1.07115">
        <ele>815.8</ele>
        <time>2025-07-21T06:05:20Z</time>
      </trkpt>
      <trkpt lat="42.8809" lon="1.07116">
        <ele>815.4</ele>
        <time>2025-07-21T06:05:21Z</time>
      </trkpt>
      <trkpt lat="42.88098" lon="1.07118">
        <ele>815</ele>
        <time>2025-07-21T06:05:22Z</time>
      </trkpt>
      <trkpt lat="42.88105" lon="1.07118">
        <ele>814.4</ele>
        <time>2025-07-21T06:05:23Z</time>
      </trkpt>
      <trkpt lat="42.88113" lon="1.07117">
        <ele>814</ele>
        <time>2025-07-21T06:05:24Z</time>
      </trkpt>
      <trkpt lat="42.8812" lon="1.07113">
        <ele>813.8</ele>
        <time>2025-07-21T06:05:25Z</time>
      </trkpt>
      <trkpt lat="42.88132" lon="1.07099">
        <ele>812.8</ele>
        <time>2025-07-21T06:05:27Z</time>
      </trkpt>
      <trkpt lat="42.88141" lon="1.07081">
        <ele>810.6</ele>
        <time>2025-07-21T06:05:29Z</time>
      </trkpt>
      <trkpt lat="42.8815" lon="1.07066">
        <ele>809.6</ele>
        <time>2025-07-21T06:05:31Z</time>
      </trkpt>
      <trkpt lat="42.88169" lon="1.07049">
        <ele>808</ele>
        <time>2025-07-21T06:05:34Z</time>
      </trkpt>
      <trkpt lat="42.88176" lon="1.07046">
        <ele>807.8</ele>
        <time>2025-07-21T06:05:35Z</time>
      </trkpt>
      <trkpt lat="42.88187" lon="1.07037">
        <ele>807</ele>
        <time>2025-07-21T06:05:37Z</time>
      </trkpt>
      <trkpt lat="42.88193" lon="1.07032">
        <ele>806.2</ele>
        <time>2025-07-21T06:05:38Z</time>
      </trkpt>
      <trkpt lat="42.88198" lon="1.07025">
        <ele>805.6</ele>
        <time>2025-07-21T06:05:39Z</time>
      </trkpt>
      <trkpt lat="42.882" lon="1.07017">
        <ele>805.4</ele>
        <time>2025-07-21T06:05:40Z</time>
      </trkpt>
      <trkpt lat="42.88201" lon="1.07008">
        <ele>804.4</ele>
        <time>2025-07-21T06:05:41Z</time>
      </trkpt>
      <trkpt lat="42.88199" lon="1.07001">
        <ele>804.2</ele>
        <time>2025-07-21T06:05:42Z</time>
      </trkpt>
      <trkpt lat="42.8819" lon="1.06986">
        <ele>803.2</ele>
        <time>2025-07-21T06:05:44Z</time>
      </trkpt>
      <trkpt lat="42.88176" lon="1.06978">
        <ele>802</ele>
        <time>2025-07-21T06:05:46Z</time>
      </trkpt>
      <trkpt lat="42.88164" lon="1.0697">
        <ele>801</ele>
        <time>2025-07-21T06:05:48Z</time>
      </trkpt>
      <trkpt lat="42.88155" lon="1.06956">
        <ele>800</ele>
        <time>2025-07-21T06:05:50Z</time>
      </trkpt>
      <trkpt lat="42.88151" lon="1.06948">
        <ele>799.4</ele>
        <time>2025-07-21T06:05:51Z</time>
      </trkpt>
      <trkpt lat="42.88149" lon="1.0694">
        <ele>799</ele>
        <time>2025-07-21T06:05:52Z</time>
      </trkpt>
      <trkpt lat="42.88149" lon="1.06924">
        <ele>798</ele>
        <time>2025-07-21T06:05:54Z</time>
      </trkpt>
      <trkpt lat="42.88152" lon="1.06908">
        <ele>796.8</ele>
        <time>2025-07-21T06:05:56Z</time>
      </trkpt>
      <trkpt lat="42.88156" lon="1.06901">
        <ele>796.6</ele>
        <time>2025-07-21T06:05:57Z</time>
      </trkpt>
      <trkpt lat="42.88161" lon="1.06894">
        <ele>796.4</ele>
        <time>2025-07-21T06:05:58Z</time>
      </trkpt>
      <trkpt lat="42.88174" lon="1.06884">
        <ele>795.6</ele>
        <time>2025-07-21T06:06:00Z</time>
      </trkpt>
      <trkpt lat="42.88195" lon="1.06869">
        <ele>794.4</ele>
        <time>2025-07-21T06:06:03Z</time>
      </trkpt>
      <trkpt lat="42.88209" lon="1.0686">
        <ele>793.4</ele>
        <time>2025-07-21T06:06:05Z</time>
      </trkpt>
      <trkpt lat="42.88214" lon="1.06856">
        <ele>793</ele>
        <time>2025-07-21T06:06:06Z</time>
      </trkpt>
      <trkpt lat="42.8823" lon="1.06846">
        <ele>792</ele>
        <time>2025-07-21T06:06:08Z</time>
      </trkpt>
      <trkpt lat="42.88253" lon="1.06833">
        <ele>790.6</ele>
        <time>2025-07-21T06:06:11Z</time>
      </trkpt>
      <trkpt lat="42.88261" lon="1.06829">
        <ele>790</ele>
        <time>2025-07-21T06:06:12Z</time>
      </trkpt>
      <trkpt lat="42.88269" lon="1.06826">
        <ele>789.4</ele>
        <time>2025-07-21T06:06:13Z</time>
      </trkpt>
      <trkpt lat="42.88286" lon="1.06819">
        <ele>788.4</ele>
        <time>2025-07-21T06:06:15Z</time>
      </trkpt>
      <trkpt lat="42.88302" lon="1.06812">
        <ele>787.4</ele>
        <time>2025-07-21T06:06:17Z</time>
      </trkpt>
      <trkpt lat="42.88316" lon="1.06803">
        <ele>786.4</ele>
        <time>2025-07-21T06:06:19Z</time>
      </trkpt>
      <trkpt lat="42.88327" lon="1.0679">
        <ele>785.6</ele>
        <time>2025-07-21T06:06:21Z</time>
      </trkpt>
      <trkpt lat="42.88331" lon="1.06781">
        <ele>785</ele>
        <time>2025-07-21T06:06:22Z</time>
      </trkpt>
      <trkpt lat="42.88339" lon="1.06762">
        <ele>784</ele>
        <time>2025-07-21T06:06:24Z</time>
      </trkpt>
      <trkpt lat="42.88351" lon="1.06732">
        <ele>782.2</ele>
        <time>2025-07-21T06:06:27Z</time>
      </trkpt>
      <trkpt lat="42.88355" lon="1.06722">
        <ele>781.4</ele>
        <time>2025-07-21T06:06:28Z</time>
      </trkpt>
      <trkpt lat="42.88364" lon="1.06702">
        <ele>780.4</ele>
        <time>2025-07-21T06:06:30Z</time>
      </trkpt>
      <trkpt lat="42.88372" lon="1.06683">
        <ele>779.6</ele>
        <time>2025-07-21T06:06:32Z</time>
      </trkpt>
      <trkpt lat="42.88376" lon="1.06674">
        <ele>779.4</ele>
        <time>2025-07-21T06:06:33Z</time>
      </trkpt>
      <trkpt lat="42.88385" lon="1.06657">
        <ele>778</ele>
        <time>2025-07-21T06:06:35Z</time>
      </trkpt>
      <trkpt lat="42.88392" lon="1.06637">
        <ele>777.4</ele>
        <time>2025-07-21T06:06:37Z</time>
      </trkpt>
      <trkpt lat="42.88401" lon="1.06617">
        <ele>776.2</ele>
        <time>2025-07-21T06:06:39Z</time>
      </trkpt>
      <trkpt lat="42.88415" lon="1.06589">
        <ele>775</ele>
        <time>2025-07-21T06:06:42Z</time>
      </trkpt>
      <trkpt lat="42.88419" lon="1.0658">
        <ele>774.8</ele>
        <time>2025-07-21T06:06:43Z</time>
      </trkpt>
      <trkpt lat="42.88432" lon="1.06556">
        <ele>773.8</ele>
        <time>2025-07-21T06:06:46Z</time>
      </trkpt>
      <trkpt lat="42.88441" lon="1.06542">
        <ele>773.6</ele>
        <time>2025-07-21T06:06:48Z</time>
      </trkpt>
      <trkpt lat="42.88464" lon="1.06504">
        <ele>772.8</ele>
        <time>2025-07-21T06:06:54Z</time>
      </trkpt>
      <trkpt lat="42.8849" lon="1.06459">
        <ele>772.6</ele>
        <time>2025-07-21T06:07:01Z</time>
      </trkpt>
      <trkpt lat="42.88499" lon="1.06447">
        <ele>772.4</ele>
        <time>2025-07-21T06:07:03Z</time>
      </trkpt>
      <trkpt lat="42.88514" lon="1.06423">
        <ele>772.2</ele>
        <time>2025-07-21T06:07:07Z</time>
      </trkpt>
      <trkpt lat="42.88528" lon="1.064">
        <ele>771.8</ele>
        <time>2025-07-21T06:07:11Z</time>
      </trkpt>
      <trkpt lat="42.88532" lon="1.06394">
        <ele>771.8</ele>
        <time>2025-07-21T06:07:12Z</time>
      </trkpt>
      <trkpt lat="42.8854" lon="1.06386">
        <ele>771.8</ele>
        <time>2025-07-21T06:07:14Z</time>
      </trkpt>
      <trkpt lat="42.88561" lon="1.06375">
        <ele>771.4</ele>
        <time>2025-07-21T06:07:18Z</time>
      </trkpt>
      <trkpt lat="42.88566" lon="1.06374">
        <ele>771.2</ele>
        <time>2025-07-21T06:07:19Z</time>
      </trkpt>
      <trkpt lat="42.88577" lon="1.06374">
        <ele>771.2</ele>
        <time>2025-07-21T06:07:21Z</time>
      </trkpt>
      <trkpt lat="42.88583" lon="1.06377">
        <ele>771.2</ele>
        <time>2025-07-21T06:07:22Z</time>
      </trkpt>
      <trkpt lat="42.88588" lon="1.0638">
        <ele>771.2</ele>
        <time>2025-07-21T06:07:23Z</time>
      </trkpt>
      <trkpt lat="42.88597" lon="1.06387">
        <ele>771</ele>
        <time>2025-07-21T06:07:25Z</time>
      </trkpt>
      <trkpt lat="42.88601" lon="1.06391">
        <ele>771</ele>
        <time>2025-07-21T06:07:26Z</time>
      </trkpt>
      <trkpt lat="42.88605" lon="1.06396">
        <ele>770.8</ele>
        <time>2025-07-21T06:07:27Z</time>
      </trkpt>
      <trkpt lat="42.88622" lon="1.06414">
        <ele>770.6</ele>
        <time>2025-07-21T06:07:31Z</time>
      </trkpt>
      <trkpt lat="42.88629" lon="1.06424">
        <ele>770.4</ele>
        <time>2025-07-21T06:07:33Z</time>
      </trkpt>
      <trkpt lat="42.88638" lon="1.06432">
        <ele>770.4</ele>
        <time>2025-07-21T06:07:35Z</time>
      </trkpt>
      <trkpt lat="42.88648" lon="1.06436">
        <ele>770.4</ele>
        <time>2025-07-21T06:07:37Z</time>
      </trkpt>
      <trkpt lat="42.88653" lon="1.06437">
        <ele>770.4</ele>
        <time>2025-07-21T06:07:38Z</time>
      </trkpt>
      <trkpt lat="42.88658" lon="1.06435">
        <ele>770.4</ele>
        <time>2025-07-21T06:07:39Z</time>
      </trkpt>
      <trkpt lat="42.88667" lon="1.06426">
        <ele>770.2</ele>
        <time>2025-07-21T06:07:41Z</time>
      </trkpt>
      <trkpt lat="42.88671" lon="1.06412">
        <ele>770</ele>
        <time>2025-07-21T06:07:43Z</time>
      </trkpt>
      <trkpt lat="42.88672" lon="1.06404">
        <ele>770</ele>
        <time>2025-07-21T06:07:44Z</time>
      </trkpt>
      <trkpt lat="42.88672" lon="1.06395">
        <ele>769.8</ele>
        <time>2025-07-21T06:07:45Z</time>
      </trkpt>
      <trkpt lat="42.88667" lon="1.06365">
        <ele>769.2</ele>
        <time>2025-07-21T06:07:49Z</time>
      </trkpt>
      <trkpt lat="42.88661" lon="1.06336">
        <ele>769.2</ele>
        <time>2025-07-21T06:07:53Z</time>
      </trkpt>
      <trkpt lat="42.88658" lon="1.06322">
        <ele>769.2</ele>
        <time>2025-07-21T06:07:55Z</time>
      </trkpt>
      <trkpt lat="42.88658" lon="1.06317">
        <ele>769.2</ele>
        <time>2025-07-21T06:07:56Z</time>
      </trkpt>
      <trkpt lat="42.88654" lon="1.06294">
        <ele>769.2</ele>
        <time>2025-07-21T06:07:59Z</time>
      </trkpt>
      <trkpt lat="42.88648" lon="1.06264">
        <ele>769.2</ele>
        <time>2025-07-21T06:08:03Z</time>
      </trkpt>
      <trkpt lat="42.88645" lon="1.06233">
        <ele>769</ele>
        <time>2025-07-21T06:08:07Z</time>
      </trkpt>
      <trkpt lat="42.88642" lon="1.0621">
        <ele>768.8</ele>
        <time>2025-07-21T06:08:10Z</time>
      </trkpt>
      <trkpt lat="42.88642" lon="1.06203">
        <ele>768.8</ele>
        <time>2025-07-21T06:08:11Z</time>
      </trkpt>
      <trkpt lat="42.88643" lon="1.06181">
        <ele>768.4</ele>
        <time>2025-07-21T06:08:14Z</time>
      </trkpt>
      <trkpt lat="42.88647" lon="1.06159">
        <ele>768.2</ele>
        <time>2025-07-21T06:08:17Z</time>
      </trkpt>
      <trkpt lat="42.88652" lon="1.06146">
        <ele>768.2</ele>
        <time>2025-07-21T06:08:19Z</time>
      </trkpt>
      <trkpt lat="42.88664" lon="1.06129">
        <ele>768</ele>
        <time>2025-07-21T06:08:22Z</time>
      </trkpt>
      <trkpt lat="42.8867" lon="1.06123">
        <ele>768</ele>
        <time>2025-07-21T06:08:23Z</time>
      </trkpt>
      <trkpt lat="42.88686" lon="1.06111">
        <ele>767.6</ele>
        <time>2025-07-21T06:08:26Z</time>
      </trkpt>
      <trkpt lat="42.88709" lon="1.06091">
        <ele>766.6</ele>
        <time>2025-07-21T06:08:30Z</time>
      </trkpt>
      <trkpt lat="42.88715" lon="1.06086">
        <ele>766.4</ele>
        <time>2025-07-21T06:08:31Z</time>
      </trkpt>
      <trkpt lat="42.88724" lon="1.06069">
        <ele>766.2</ele>
        <time>2025-07-21T06:08:33Z</time>
      </trkpt>
      <trkpt lat="42.88727" lon="1.0606">
        <ele>766</ele>
        <time>2025-07-21T06:08:34Z</time>
      </trkpt>
      <trkpt lat="42.88728" lon="1.06049">
        <ele>765.6</ele>
        <time>2025-07-21T06:08:35Z</time>
      </trkpt>
      <trkpt lat="42.88728" lon="1.06039">
        <ele>765.6</ele>
        <time>2025-07-21T06:08:36Z</time>
      </trkpt>
      <trkpt lat="42.88728" lon="1.0603">
        <ele>765.4</ele>
        <time>2025-07-21T06:08:37Z</time>
      </trkpt>
      <trkpt lat="42.88725" lon="1.06011">
        <ele>764.8</ele>
        <time>2025-07-21T06:08:39Z</time>
      </trkpt>
      <trkpt lat="42.88723" lon="1.05992">
        <ele>764.2</ele>
        <time>2025-07-21T06:08:41Z</time>
      </trkpt>
      <trkpt lat="42.88724" lon="1.05973">
        <ele>763.8</ele>
        <time>2025-07-21T06:08:43Z</time>
      </trkpt>
      <trkpt lat="42.88726" lon="1.05963">
        <ele>763.4</ele>
        <time>2025-07-21T06:08:44Z</time>
      </trkpt>
      <trkpt lat="42.88732" lon="1.05944">
        <ele>762.8</ele>
        <time>2025-07-21T06:08:46Z</time>
      </trkpt>
      <trkpt lat="42.88735" lon="1.05936">
        <ele>762.6</ele>
        <time>2025-07-21T06:08:47Z</time>
      </trkpt>
      <trkpt lat="42.88744" lon="1.05919">
        <ele>762</ele>
        <time>2025-07-21T06:08:49Z</time>
      </trkpt>
      <trkpt lat="42.88756" lon="1.05906">
        <ele>761.6</ele>
        <time>2025-07-21T06:08:51Z</time>
      </trkpt>
      <trkpt lat="42.88778" lon="1.05892">
        <ele>760.6</ele>
        <time>2025-07-21T06:08:54Z</time>
      </trkpt>
      <trkpt lat="42.88786" lon="1.05889">
        <ele>760.4</ele>
        <time>2025-07-21T06:08:55Z</time>
      </trkpt>
      <trkpt lat="42.88801" lon="1.05887">
        <ele>759.2</ele>
        <time>2025-07-21T06:08:57Z</time>
      </trkpt>
      <trkpt lat="42.88817" lon="1.05889">
        <ele>758.6</ele>
        <time>2025-07-21T06:08:59Z</time>
      </trkpt>
      <trkpt lat="42.8884" lon="1.05898">
        <ele>758</ele>
        <time>2025-07-21T06:09:02Z</time>
      </trkpt>
      <trkpt lat="42.88853" lon="1.05905">
        <ele>757.6</ele>
        <time>2025-07-21T06:09:04Z</time>
      </trkpt>
      <trkpt lat="42.88869" lon="1.05914">
        <ele>757.2</ele>
        <time>2025-07-21T06:09:06Z</time>
      </trkpt>
      <trkpt lat="42.88883" lon="1.05918">
        <ele>756.8</ele>
        <time>2025-07-21T06:09:08Z</time>
      </trkpt>
      <trkpt lat="42.88898" lon="1.05916">
        <ele>756.4</ele>
        <time>2025-07-21T06:09:10Z</time>
      </trkpt>
      <trkpt lat="42.88905" lon="1.05913">
        <ele>756</ele>
        <time>2025-07-21T06:09:11Z</time>
      </trkpt>
      <trkpt lat="42.88911" lon="1.05907">
        <ele>756</ele>
        <time>2025-07-21T06:09:12Z</time>
      </trkpt>
      <trkpt lat="42.88915" lon="1.05899">
        <ele>755.8</ele>
        <time>2025-07-21T06:09:13Z</time>
      </trkpt>
      <trkpt lat="42.88917" lon="1.05892">
        <ele>755.6</ele>
        <time>2025-07-21T06:09:14Z</time>
      </trkpt>
      <trkpt lat="42.8892" lon="1.05871">
        <ele>755.2</ele>
        <time>2025-07-21T06:09:16Z</time>
      </trkpt>
      <trkpt lat="42.8892" lon="1.05842">
        <ele>754.6</ele>
        <time>2025-07-21T06:09:19Z</time>
      </trkpt>
      <trkpt lat="42.8892" lon="1.05834">
        <ele>754.4</ele>
        <time>2025-07-21T06:09:20Z</time>
      </trkpt>
      <trkpt lat="42.8892" lon="1.05823">
        <ele>754.2</ele>
        <time>2025-07-21T06:09:21Z</time>
      </trkpt>
      <trkpt lat="42.88921" lon="1.05793">
        <ele>753.6</ele>
        <time>2025-07-21T06:09:24Z</time>
      </trkpt>
      <trkpt lat="42.88922" lon="1.05783">
        <ele>753.4</ele>
        <time>2025-07-21T06:09:25Z</time>
      </trkpt>
      <trkpt lat="42.88925" lon="1.05764">
        <ele>753.2</ele>
        <time>2025-07-21T06:09:27Z</time>
      </trkpt>
      <trkpt lat="42.88938" lon="1.05698">
        <ele>752.4</ele>
        <time>2025-07-21T06:09:34Z</time>
      </trkpt>
      <trkpt lat="42.8894" lon="1.05689">
        <ele>752</ele>
        <time>2025-07-21T06:09:35Z</time>
      </trkpt>
      <trkpt lat="42.88953" lon="1.05655">
        <ele>751.2</ele>
        <time>2025-07-21T06:09:39Z</time>
      </trkpt>
      <trkpt lat="42.8896" lon="1.05641">
        <ele>751</ele>
        <time>2025-07-21T06:09:41Z</time>
      </trkpt>
      <trkpt lat="42.88964" lon="1.05633">
        <ele>750.8</ele>
        <time>2025-07-21T06:09:42Z</time>
      </trkpt>
      <trkpt lat="42.88982" lon="1.05614">
        <ele>750.2</ele>
        <time>2025-07-21T06:09:45Z</time>
      </trkpt>
      <trkpt lat="42.88996" lon="1.05609">
        <ele>749.4</ele>
        <time>2025-07-21T06:09:47Z</time>
      </trkpt>
      <trkpt lat="42.89003" lon="1.05609">
        <ele>749</ele>
        <time>2025-07-21T06:09:48Z</time>
      </trkpt>
      <trkpt lat="42.89012" lon="1.05611">
        <ele>748.8</ele>
        <time>2025-07-21T06:09:49Z</time>
      </trkpt>
      <trkpt lat="42.89025" lon="1.05619">
        <ele>748</ele>
        <time>2025-07-21T06:09:51Z</time>
      </trkpt>
      <trkpt lat="42.89032" lon="1.05623">
        <ele>747.8</ele>
        <time>2025-07-21T06:09:52Z</time>
      </trkpt>
      <trkpt lat="42.89047" lon="1.05632">
        <ele>746.8</ele>
        <time>2025-07-21T06:09:54Z</time>
      </trkpt>
      <trkpt lat="42.89067" lon="1.05642">
        <ele>745.6</ele>
        <time>2025-07-21T06:09:57Z</time>
      </trkpt>
      <trkpt lat="42.89072" lon="1.05643">
        <ele>744.8</ele>
        <time>2025-07-21T06:09:58Z</time>
      </trkpt>
      <trkpt lat="42.89079" lon="1.05644">
        <ele>744.4</ele>
        <time>2025-07-21T06:09:59Z</time>
      </trkpt>
      <trkpt lat="42.89091" lon="1.05643">
        <ele>743.8</ele>
        <time>2025-07-21T06:10:01Z</time>
      </trkpt>
      <trkpt lat="42.89095" lon="1.05641">
        <ele>743</ele>
        <time>2025-07-21T06:10:02Z</time>
      </trkpt>
      <trkpt lat="42.89099" lon="1.05638">
        <ele>742.6</ele>
        <time>2025-07-21T06:10:03Z</time>
      </trkpt>
      <trkpt lat="42.89101" lon="1.05632">
        <ele>742.2</ele>
        <time>2025-07-21T06:10:04Z</time>
      </trkpt>
      <trkpt lat="42.89103" lon="1.05622">
        <ele>741.6</ele>
        <time>2025-07-21T06:10:05Z</time>
      </trkpt>
      <trkpt lat="42.89099" lon="1.05604">
        <ele>741.2</ele>
        <time>2025-07-21T06:10:07Z</time>
      </trkpt>
      <trkpt lat="42.8909" lon="1.05587">
        <ele>740.2</ele>
        <time>2025-07-21T06:10:09Z</time>
      </trkpt>
      <trkpt lat="42.89086" lon="1.05579">
        <ele>739.6</ele>
        <time>2025-07-21T06:10:10Z</time>
      </trkpt>
      <trkpt lat="42.89083" lon="1.0557">
        <ele>739.4</ele>
        <time>2025-07-21T06:10:11Z</time>
      </trkpt>
      <trkpt lat="42.8908" lon="1.05561">
        <ele>739.2</ele>
        <time>2025-07-21T06:10:12Z</time>
      </trkpt>
      <trkpt lat="42.89079" lon="1.05542">
        <ele>738.8</ele>
        <time>2025-07-21T06:10:14Z</time>
      </trkpt>
      <trkpt lat="42.89077" lon="1.05492">
        <ele>738.4</ele>
        <time>2025-07-21T06:10:19Z</time>
      </trkpt>
      <trkpt lat="42.89073" lon="1.05448">
        <ele>738.4</ele>
        <time>2025-07-21T06:10:24Z</time>
      </trkpt>
      <trkpt lat="42.89073" lon="1.05431">
        <ele>738.4</ele>
        <time>2025-07-21T06:10:26Z</time>
      </trkpt>
      <trkpt lat="42.89074" lon="1.05423">
        <ele>738.4</ele>
        <time>2025-07-21T06:10:27Z</time>
      </trkpt>
      <trkpt lat="42.89079" lon="1.05408">
        <ele>738.4</ele>
        <time>2025-07-21T06:10:29Z</time>
      </trkpt>
      <trkpt lat="42.89082" lon="1.05401">
        <ele>738.4</ele>
        <time>2025-07-21T06:10:30Z</time>
      </trkpt>
      <trkpt lat="42.89091" lon="1.05382">
        <ele>738.6</ele>
        <time>2025-07-21T06:10:33Z</time>
      </trkpt>
      <trkpt lat="42.89098" lon="1.05372">
        <ele>738.8</ele>
        <time>2025-07-21T06:10:35Z</time>
      </trkpt>
      <trkpt lat="42.89107" lon="1.05364">
        <ele>738.8</ele>
        <time>2025-07-21T06:10:37Z</time>
      </trkpt>
      <trkpt lat="42.89123" lon="1.05353">
        <ele>738.8</ele>
        <time>2025-07-21T06:10:40Z</time>
      </trkpt>
      <trkpt lat="42.8916" lon="1.05337">
        <ele>738.4</ele>
        <time>2025-07-21T06:10:46Z</time>
      </trkpt>
      <trkpt lat="42.89167" lon="1.05333">
        <ele>738.2</ele>
        <time>2025-07-21T06:10:47Z</time>
      </trkpt>
      <trkpt lat="42.8918" lon="1.0532">
        <ele>738</ele>
        <time>2025-07-21T06:10:49Z</time>
      </trkpt>
      <trkpt lat="42.892" lon="1.05295">
        <ele>737</ele>
        <time>2025-07-21T06:10:53Z</time>
      </trkpt>
      <trkpt lat="42.89207" lon="1.0529">
        <ele>736.6</ele>
        <time>2025-07-21T06:10:54Z</time>
      </trkpt>
      <trkpt lat="42.89224" lon="1.05276">
        <ele>736.2</ele>
        <time>2025-07-21T06:10:57Z</time>
      </trkpt>
      <trkpt lat="42.89232" lon="1.05259">
        <ele>735.6</ele>
        <time>2025-07-21T06:10:59Z</time>
      </trkpt>
      <trkpt lat="42.89234" lon="1.05248">
        <ele>735.6</ele>
        <time>2025-07-21T06:11:00Z</time>
      </trkpt>
      <trkpt lat="42.89236" lon="1.05221">
        <ele>735.4</ele>
        <time>2025-07-21T06:11:03Z</time>
      </trkpt>
      <trkpt lat="42.89241" lon="1.05169">
        <ele>734.8</ele>
        <time>2025-07-21T06:11:09Z</time>
      </trkpt>
      <trkpt lat="42.89244" lon="1.05161">
        <ele>734.8</ele>
        <time>2025-07-21T06:11:10Z</time>
      </trkpt>
      <trkpt lat="42.8926" lon="1.05124">
        <ele>734.8</ele>
        <time>2025-07-21T06:11:15Z</time>
      </trkpt>
      <trkpt lat="42.89266" lon="1.05116">
        <ele>734.4</ele>
        <time>2025-07-21T06:11:16Z</time>
      </trkpt>
      <trkpt lat="42.89275" lon="1.05105">
        <ele>734.2</ele>
        <time>2025-07-21T06:11:18Z</time>
      </trkpt>
      <trkpt lat="42.89281" lon="1.05099">
        <ele>734.2</ele>
        <time>2025-07-21T06:11:19Z</time>
      </trkpt>
      <trkpt lat="42.89307" lon="1.05082">
        <ele>733.4</ele>
        <time>2025-07-21T06:11:23Z</time>
      </trkpt>
      <trkpt lat="42.89315" lon="1.05078">
        <ele>733.2</ele>
        <time>2025-07-21T06:11:24Z</time>
      </trkpt>
      <trkpt lat="42.8933" lon="1.05072">
        <ele>732</ele>
        <time>2025-07-21T06:11:26Z</time>
      </trkpt>
      <trkpt lat="42.89338" lon="1.0507">
        <ele>732</ele>
        <time>2025-07-21T06:11:27Z</time>
      </trkpt>
      <trkpt lat="42.89346" lon="1.05069">
        <ele>731.6</ele>
        <time>2025-07-21T06:11:28Z</time>
      </trkpt>
      <trkpt lat="42.89363" lon="1.0507">
        <ele>731</ele>
        <time>2025-07-21T06:11:30Z</time>
      </trkpt>
      <trkpt lat="42.89389" lon="1.05075">
        <ele>730</ele>
        <time>2025-07-21T06:11:33Z</time>
      </trkpt>
      <trkpt lat="42.89397" lon="1.05078">
        <ele>729.8</ele>
        <time>2025-07-21T06:11:34Z</time>
      </trkpt>
      <trkpt lat="42.89416" lon="1.05088">
        <ele>729</ele>
        <time>2025-07-21T06:11:36Z</time>
      </trkpt>
      <trkpt lat="42.89423" lon="1.05092">
        <ele>728.6</ele>
        <time>2025-07-21T06:11:37Z</time>
      </trkpt>
      <trkpt lat="42.89436" lon="1.051">
        <ele>727.4</ele>
        <time>2025-07-21T06:11:39Z</time>
      </trkpt>
      <trkpt lat="42.89452" lon="1.05104">
        <ele>726.6</ele>
        <time>2025-07-21T06:11:41Z</time>
      </trkpt>
      <trkpt lat="42.89459" lon="1.05105">
        <ele>726.2</ele>
        <time>2025-07-21T06:11:42Z</time>
      </trkpt>
      <trkpt lat="42.89469" lon="1.05098">
        <ele>725</ele>
        <time>2025-07-21T06:11:44Z</time>
      </trkpt>
      <trkpt lat="42.8947" lon="1.05082">
        <ele>724.2</ele>
        <time>2025-07-21T06:11:46Z</time>
      </trkpt>
      <trkpt lat="42.89468" lon="1.05071">
        <ele>723.6</ele>
        <time>2025-07-21T06:11:47Z</time>
      </trkpt>
      <trkpt lat="42.89463" lon="1.05042">
        <ele>722.6</ele>
        <time>2025-07-21T06:11:50Z</time>
      </trkpt>
      <trkpt lat="42.89462" lon="1.05031">
        <ele>722.4</ele>
        <time>2025-07-21T06:11:51Z</time>
      </trkpt>
      <trkpt lat="42.89457" lon="1.04997">
        <ele>721.4</ele>
        <time>2025-07-21T06:11:54Z</time>
      </trkpt>
      <trkpt lat="42.89455" lon="1.04989">
        <ele>721</ele>
        <time>2025-07-21T06:11:55Z</time>
      </trkpt>
      <trkpt lat="42.89451" lon="1.04979">
        <ele>720.8</ele>
        <time>2025-07-21T06:11:56Z</time>
      </trkpt>
      <trkpt lat="42.89445" lon="1.0497">
        <ele>720.4</ele>
        <time>2025-07-21T06:11:57Z</time>
      </trkpt>
      <trkpt lat="42.89431" lon="1.04955">
        <ele>719.6</ele>
        <time>2025-07-21T06:11:59Z</time>
      </trkpt>
      <trkpt lat="42.89426" lon="1.04949">
        <ele>719.2</ele>
        <time>2025-07-21T06:12:00Z</time>
      </trkpt>
      <trkpt lat="42.89413" lon="1.04933">
        <ele>718.6</ele>
        <time>2025-07-21T06:12:02Z</time>
      </trkpt>
      <trkpt lat="42.89402" lon="1.04912">
        <ele>717.6</ele>
        <time>2025-07-21T06:12:04Z</time>
      </trkpt>
      <trkpt lat="42.8939" lon="1.04884">
        <ele>716.2</ele>
        <time>2025-07-21T06:12:07Z</time>
      </trkpt>
      <trkpt lat="42.89386" lon="1.04871">
        <ele>716</ele>
        <time>2025-07-21T06:12:08Z</time>
      </trkpt>
      <trkpt lat="42.89386" lon="1.04861">
        <ele>715.4</ele>
        <time>2025-07-21T06:12:09Z</time>
      </trkpt>
      <trkpt lat="42.89387" lon="1.04848">
        <ele>715</ele>
        <time>2025-07-21T06:12:10Z</time>
      </trkpt>
      <trkpt lat="42.89389" lon="1.04841">
        <ele>714.8</ele>
        <time>2025-07-21T06:12:11Z</time>
      </trkpt>
      <trkpt lat="42.89393" lon="1.04833">
        <ele>714.2</ele>
        <time>2025-07-21T06:12:12Z</time>
      </trkpt>
      <trkpt lat="42.89407" lon="1.04822">
        <ele>713.8</ele>
        <time>2025-07-21T06:12:14Z</time>
      </trkpt>
      <trkpt lat="42.89414" lon="1.0482">
        <ele>713.6</ele>
        <time>2025-07-21T06:12:15Z</time>
      </trkpt>
      <trkpt lat="42.89449" lon="1.04811">
        <ele>713</ele>
        <time>2025-07-21T06:12:20Z</time>
      </trkpt>
      <trkpt lat="42.89456" lon="1.04809">
        <ele>712.6</ele>
        <time>2025-07-21T06:12:21Z</time>
      </trkpt>
      <trkpt lat="42.89471" lon="1.04805">
        <ele>712.4</ele>
        <time>2025-07-21T06:12:23Z</time>
      </trkpt>
      <trkpt lat="42.89481" lon="1.04792">
        <ele>711.8</ele>
        <time>2025-07-21T06:12:25Z</time>
      </trkpt>
      <trkpt lat="42.89484" lon="1.04773">
        <ele>711.2</ele>
        <time>2025-07-21T06:12:27Z</time>
      </trkpt>
      <trkpt lat="42.89482" lon="1.04764">
        <ele>711</ele>
        <time>2025-07-21T06:12:28Z</time>
      </trkpt>
      <trkpt lat="42.89478" lon="1.04755">
        <ele>710.6</ele>
        <time>2025-07-21T06:12:29Z</time>
      </trkpt>
      <trkpt lat="42.89464" lon="1.04716">
        <ele>709.4</ele>
        <time>2025-07-21T06:12:33Z</time>
      </trkpt>
      <trkpt lat="42.89462" lon="1.04705">
        <ele>709.2</ele>
        <time>2025-07-21T06:12:34Z</time>
      </trkpt>
      <trkpt lat="42.8946" lon="1.0468">
        <ele>708.4</ele>
        <time>2025-07-21T06:12:36Z</time>
      </trkpt>
      <trkpt lat="42.8946" lon="1.0467">
        <ele>708.2</ele>
        <time>2025-07-21T06:12:37Z</time>
      </trkpt>
      <trkpt lat="42.89461" lon="1.04647">
        <ele>707</ele>
        <time>2025-07-21T06:12:39Z</time>
      </trkpt>
      <trkpt lat="42.89466" lon="1.04623">
        <ele>706</ele>
        <time>2025-07-21T06:12:41Z</time>
      </trkpt>
      <trkpt lat="42.89473" lon="1.04599">
        <ele>704.8</ele>
        <time>2025-07-21T06:12:43Z</time>
      </trkpt>
      <trkpt lat="42.89481" lon="1.04571">
        <ele>703.6</ele>
        <time>2025-07-21T06:12:45Z</time>
      </trkpt>
      <trkpt lat="42.89488" lon="1.04546">
        <ele>702.4</ele>
        <time>2025-07-21T06:12:47Z</time>
      </trkpt>
      <trkpt lat="42.89494" lon="1.04523">
        <ele>701.2</ele>
        <time>2025-07-21T06:12:49Z</time>
      </trkpt>
      <trkpt lat="42.89502" lon="1.04498">
        <ele>700.2</ele>
        <time>2025-07-21T06:12:51Z</time>
      </trkpt>
      <trkpt lat="42.89511" lon="1.04475">
        <ele>698.6</ele>
        <time>2025-07-21T06:12:53Z</time>
      </trkpt>
      <trkpt lat="42.89521" lon="1.04453">
        <ele>697.2</ele>
        <time>2025-07-21T06:12:55Z</time>
      </trkpt>
      <trkpt lat="42.89532" lon="1.04429">
        <ele>696.2</ele>
        <time>2025-07-21T06:12:57Z</time>
      </trkpt>
      <trkpt lat="42.89543" lon="1.04413">
        <ele>695</ele>
        <time>2025-07-21T06:12:59Z</time>
      </trkpt>
      <trkpt lat="42.89559" lon="1.044">
        <ele>693.6</ele>
        <time>2025-07-21T06:13:01Z</time>
      </trkpt>
      <trkpt lat="42.89565" lon="1.04398">
        <ele>693.4</ele>
        <time>2025-07-21T06:13:02Z</time>
      </trkpt>
      <trkpt lat="42.89572" lon="1.04396">
        <ele>692.8</ele>
        <time>2025-07-21T06:13:03Z</time>
      </trkpt>
      <trkpt lat="42.89579" lon="1.04398">
        <ele>692.6</ele>
        <time>2025-07-21T06:13:04Z</time>
      </trkpt>
      <trkpt lat="42.89585" lon="1.04404">
        <ele>691.4</ele>
        <time>2025-07-21T06:13:05Z</time>
      </trkpt>
      <trkpt lat="42.89591" lon="1.04412">
        <ele>690.2</ele>
        <time>2025-07-21T06:13:06Z</time>
      </trkpt>
      <trkpt lat="42.896" lon="1.04429">
        <ele>688.6</ele>
        <time>2025-07-21T06:13:08Z</time>
      </trkpt>
      <trkpt lat="42.89604" lon="1.04437">
        <ele>688.2</ele>
        <time>2025-07-21T06:13:09Z</time>
      </trkpt>
      <trkpt lat="42.89609" lon="1.04444">
        <ele>687.4</ele>
        <time>2025-07-21T06:13:10Z</time>
      </trkpt>
      <trkpt lat="42.89616" lon="1.04453">
        <ele>687</ele>
        <time>2025-07-21T06:13:11Z</time>
      </trkpt>
      <trkpt lat="42.89627" lon="1.04461">
        <ele>685.8</ele>
        <time>2025-07-21T06:13:13Z</time>
      </trkpt>
      <trkpt lat="42.89641" lon="1.04459">
        <ele>684.6</ele>
        <time>2025-07-21T06:13:15Z</time>
      </trkpt>
      <trkpt lat="42.89655" lon="1.04451">
        <ele>683.8</ele>
        <time>2025-07-21T06:13:17Z</time>
      </trkpt>
      <trkpt lat="42.89659" lon="1.04446">
        <ele>683.4</ele>
        <time>2025-07-21T06:13:18Z</time>
      </trkpt>
      <trkpt lat="42.89661" lon="1.04441">
        <ele>683</ele>
        <time>2025-07-21T06:13:19Z</time>
      </trkpt>
      <trkpt lat="42.89665" lon="1.04425">
        <ele>682.2</ele>
        <time>2025-07-21T06:13:21Z</time>
      </trkpt>
      <trkpt lat="42.89667" lon="1.04416">
        <ele>681.6</ele>
        <time>2025-07-21T06:13:22Z</time>
      </trkpt>
      <trkpt lat="42.89667" lon="1.04409">
        <ele>681</ele>
        <time>2025-07-21T06:13:23Z</time>
      </trkpt>
      <trkpt lat="42.89662" lon="1.04396">
        <ele>680</ele>
        <time>2025-07-21T06:13:25Z</time>
      </trkpt>
      <trkpt lat="42.89658" lon="1.04387">
        <ele>679.8</ele>
        <time>2025-07-21T06:13:26Z</time>
      </trkpt>
      <trkpt lat="42.89647" lon="1.04367">
        <ele>679.2</ele>
        <time>2025-07-21T06:13:29Z</time>
      </trkpt>
      <trkpt lat="42.89644" lon="1.04361">
        <ele>679</ele>
        <time>2025-07-21T06:13:30Z</time>
      </trkpt>
      <trkpt lat="42.89641" lon="1.04354">
        <ele>678.8</ele>
        <time>2025-07-21T06:13:31Z</time>
      </trkpt>
      <trkpt lat="42.89635" lon="1.04337">
        <ele>677.8</ele>
        <time>2025-07-21T06:13:33Z</time>
      </trkpt>
      <trkpt lat="42.89634" lon="1.04331">
        <ele>677.6</ele>
        <time>2025-07-21T06:13:34Z</time>
      </trkpt>
      <trkpt lat="42.89633" lon="1.04327">
        <ele>676.8</ele>
        <time>2025-07-21T06:13:35Z</time>
      </trkpt>
      <trkpt lat="42.89632" lon="1.04323">
        <ele>676.4</ele>
        <time>2025-07-21T06:13:36Z</time>
      </trkpt>
      <trkpt lat="42.89631" lon="1.04317">
        <ele>675.4</ele>
        <time>2025-07-21T06:13:38Z</time>
      </trkpt>
      <trkpt lat="42.8963" lon="1.04315">
        <ele>674.4</ele>
        <time>2025-07-21T06:13:39Z</time>
      </trkpt>
      <trkpt lat="42.8963" lon="1.04314">
        <ele>673.6</ele>
        <time>2025-07-21T06:13:40Z</time>
      </trkpt>
      <trkpt lat="42.89629" lon="1.04312">
        <ele>672.6</ele>
        <time>2025-07-21T06:13:43Z</time>
      </trkpt>
      <trkpt lat="42.89629" lon="1.04312">
        <ele>672.2</ele>
        <time>2025-07-21T06:13:44Z</time>
      </trkpt>
      <trkpt lat="42.89629" lon="1.04307">
        <ele>671.6</ele>
        <time>2025-07-21T06:13:49Z</time>
      </trkpt>
      <trkpt lat="42.89628" lon="1.04301">
        <ele>671.6</ele>
        <time>2025-07-21T06:13:51Z</time>
      </trkpt>
      <trkpt lat="42.89627" lon="1.04297">
        <ele>671.4</ele>
        <time>2025-07-21T06:13:52Z</time>
      </trkpt>
      <trkpt lat="42.89622" lon="1.04278">
        <ele>670.8</ele>
        <time>2025-07-21T06:13:56Z</time>
      </trkpt>
      <trkpt lat="42.89619" lon="1.04273">
        <ele>670.4</ele>
        <time>2025-07-21T06:13:57Z</time>
      </trkpt>
      <trkpt lat="42.89607" lon="1.04249">
        <ele>668.8</ele>
        <time>2025-07-21T06:14:01Z</time>
      </trkpt>
      <trkpt lat="42.89604" lon="1.04242">
        <ele>668.4</ele>
        <time>2025-07-21T06:14:02Z</time>
      </trkpt>
      <trkpt lat="42.89598" lon="1.04226">
        <ele>667.8</ele>
        <time>2025-07-21T06:14:04Z</time>
      </trkpt>
      <trkpt lat="42.89587" lon="1.04198">
        <ele>666.6</ele>
        <time>2025-07-21T06:14:07Z</time>
      </trkpt>
      <trkpt lat="42.89581" lon="1.0418">
        <ele>665.2</ele>
        <time>2025-07-21T06:14:09Z</time>
      </trkpt>
      <trkpt lat="42.89573" lon="1.04157">
        <ele>663.6</ele>
        <time>2025-07-21T06:14:11Z</time>
      </trkpt>
      <trkpt lat="42.89568" lon="1.04139">
        <ele>662.8</ele>
        <time>2025-07-21T06:14:13Z</time>
      </trkpt>
      <trkpt lat="42.89565" lon="1.04129">
        <ele>661.8</ele>
        <time>2025-07-21T06:14:14Z</time>
      </trkpt>
      <trkpt lat="42.89564" lon="1.04107">
        <ele>660.2</ele>
        <time>2025-07-21T06:14:16Z</time>
      </trkpt>
      <trkpt lat="42.89571" lon="1.04087">
        <ele>658.8</ele>
        <time>2025-07-21T06:14:18Z</time>
      </trkpt>
      <trkpt lat="42.89577" lon="1.04079">
        <ele>658</ele>
        <time>2025-07-21T06:14:19Z</time>
      </trkpt>
      <trkpt lat="42.89583" lon="1.04072">
        <ele>657.4</ele>
        <time>2025-07-21T06:14:20Z</time>
      </trkpt>
      <trkpt lat="42.89598" lon="1.04062">
        <ele>656.2</ele>
        <time>2025-07-21T06:14:22Z</time>
      </trkpt>
      <trkpt lat="42.89612" lon="1.04053">
        <ele>655</ele>
        <time>2025-07-21T06:14:24Z</time>
      </trkpt>
      <trkpt lat="42.89634" lon="1.04042">
        <ele>654.4</ele>
        <time>2025-07-21T06:14:27Z</time>
      </trkpt>
      <trkpt lat="42.89641" lon="1.04037">
        <ele>654.2</ele>
        <time>2025-07-21T06:14:28Z</time>
      </trkpt>
      <trkpt lat="42.89646" lon="1.0403">
        <ele>653.8</ele>
        <time>2025-07-21T06:14:29Z</time>
      </trkpt>
      <trkpt lat="42.89654" lon="1.04014">
        <ele>653.6</ele>
        <time>2025-07-21T06:14:31Z</time>
      </trkpt>
      <trkpt lat="42.89656" lon="1.03994">
        <ele>653.4</ele>
        <time>2025-07-21T06:14:33Z</time>
      </trkpt>
      <trkpt lat="42.89655" lon="1.03985">
        <ele>653.2</ele>
        <time>2025-07-21T06:14:34Z</time>
      </trkpt>
      <trkpt lat="42.89654" lon="1.03975">
        <ele>653.2</ele>
        <time>2025-07-21T06:14:35Z</time>
      </trkpt>
      <trkpt lat="42.89647" lon="1.03949">
        <ele>653.4</ele>
        <time>2025-07-21T06:14:38Z</time>
      </trkpt>
      <trkpt lat="42.89644" lon="1.03931">
        <ele>653.2</ele>
        <time>2025-07-21T06:14:40Z</time>
      </trkpt>
      <trkpt lat="42.89644" lon="1.03922">
        <ele>652.8</ele>
        <time>2025-07-21T06:14:41Z</time>
      </trkpt>
      <trkpt lat="42.89644" lon="1.03913">
        <ele>652.8</ele>
        <time>2025-07-21T06:14:42Z</time>
      </trkpt>
      <trkpt lat="42.89645" lon="1.03903">
        <ele>652.8</ele>
        <time>2025-07-21T06:14:43Z</time>
      </trkpt>
      <trkpt lat="42.89648" lon="1.03885">
        <ele>652.6</ele>
        <time>2025-07-21T06:14:45Z</time>
      </trkpt>
      <trkpt lat="42.89651" lon="1.03877">
        <ele>652.4</ele>
        <time>2025-07-21T06:14:46Z</time>
      </trkpt>
      <trkpt lat="42.89655" lon="1.03869">
        <ele>652.4</ele>
        <time>2025-07-21T06:14:47Z</time>
      </trkpt>
      <trkpt lat="42.89664" lon="1.03856">
        <ele>652.4</ele>
        <time>2025-07-21T06:14:49Z</time>
      </trkpt>
      <trkpt lat="42.89669" lon="1.03849">
        <ele>652.2</ele>
        <time>2025-07-21T06:14:50Z</time>
      </trkpt>
      <trkpt lat="42.89688" lon="1.03831">
        <ele>651.6</ele>
        <time>2025-07-21T06:14:53Z</time>
      </trkpt>
      <trkpt lat="42.89702" lon="1.03817">
        <ele>651.4</ele>
        <time>2025-07-21T06:14:55Z</time>
      </trkpt>
      <trkpt lat="42.8971" lon="1.03811">
        <ele>651.2</ele>
        <time>2025-07-21T06:14:56Z</time>
      </trkpt>
      <trkpt lat="42.89718" lon="1.03804">
        <ele>650.6</ele>
        <time>2025-07-21T06:14:57Z</time>
      </trkpt>
      <trkpt lat="42.89742" lon="1.03786">
        <ele>649.2</ele>
        <time>2025-07-21T06:15:00Z</time>
      </trkpt>
      <trkpt lat="42.8975" lon="1.0378">
        <ele>648.8</ele>
        <time>2025-07-21T06:15:01Z</time>
      </trkpt>
      <trkpt lat="42.89758" lon="1.03773">
        <ele>647.8</ele>
        <time>2025-07-21T06:15:02Z</time>
      </trkpt>
      <trkpt lat="42.89765" lon="1.03762">
        <ele>647</ele>
        <time>2025-07-21T06:15:03Z</time>
      </trkpt>
      <trkpt lat="42.8977" lon="1.03752">
        <ele>646.6</ele>
        <time>2025-07-21T06:15:04Z</time>
      </trkpt>
      <trkpt lat="42.89773" lon="1.0374">
        <ele>646</ele>
        <time>2025-07-21T06:15:05Z</time>
      </trkpt>
      <trkpt lat="42.89775" lon="1.03726">
        <ele>645.4</ele>
        <time>2025-07-21T06:15:06Z</time>
      </trkpt>
      <trkpt lat="42.89776" lon="1.03712">
        <ele>644.2</ele>
        <time>2025-07-21T06:15:07Z</time>
      </trkpt>
      <trkpt lat="42.89777" lon="1.03698">
        <ele>643.4</ele>
        <time>2025-07-21T06:15:08Z</time>
      </trkpt>
      <trkpt lat="42.89779" lon="1.03685">
        <ele>642.8</ele>
        <time>2025-07-21T06:15:09Z</time>
      </trkpt>
      <trkpt lat="42.89782" lon="1.03671">
        <ele>642</ele>
        <time>2025-07-21T06:15:10Z</time>
      </trkpt>
      <trkpt lat="42.89785" lon="1.03662">
        <ele>641.6</ele>
        <time>2025-07-21T06:15:11Z</time>
      </trkpt>
      <trkpt lat="42.89789" lon="1.03651">
        <ele>640.6</ele>
        <time>2025-07-21T06:15:12Z</time>
      </trkpt>
      <trkpt lat="42.89795" lon="1.0364">
        <ele>640.2</ele>
        <time>2025-07-21T06:15:13Z</time>
      </trkpt>
      <trkpt lat="42.89802" lon="1.03629">
        <ele>639.4</ele>
        <time>2025-07-21T06:15:14Z</time>
      </trkpt>
      <trkpt lat="42.89808" lon="1.03621">
        <ele>639</ele>
        <time>2025-07-21T06:15:15Z</time>
      </trkpt>
      <trkpt lat="42.8982" lon="1.03607">
        <ele>637.4</ele>
        <time>2025-07-21T06:15:17Z</time>
      </trkpt>
      <trkpt lat="42.89834" lon="1.03592">
        <ele>636.4</ele>
        <time>2025-07-21T06:15:19Z</time>
      </trkpt>
      <trkpt lat="42.8985" lon="1.03576">
        <ele>635.2</ele>
        <time>2025-07-21T06:15:21Z</time>
      </trkpt>
      <trkpt lat="42.89861" lon="1.03562">
        <ele>634.6</ele>
        <time>2025-07-21T06:15:23Z</time>
      </trkpt>
      <trkpt lat="42.89866" lon="1.03552">
        <ele>633.6</ele>
        <time>2025-07-21T06:15:24Z</time>
      </trkpt>
      <trkpt lat="42.89869" lon="1.03541">
        <ele>632.8</ele>
        <time>2025-07-21T06:15:25Z</time>
      </trkpt>
      <trkpt lat="42.89871" lon="1.03528">
        <ele>632.4</ele>
        <time>2025-07-21T06:15:26Z</time>
      </trkpt>
      <trkpt lat="42.8987" lon="1.03516">
        <ele>631.4</ele>
        <time>2025-07-21T06:15:27Z</time>
      </trkpt>
      <trkpt lat="42.89867" lon="1.03504">
        <ele>631</ele>
        <time>2025-07-21T06:15:28Z</time>
      </trkpt>
      <trkpt lat="42.89861" lon="1.03478">
        <ele>629.8</ele>
        <time>2025-07-21T06:15:30Z</time>
      </trkpt>
      <trkpt lat="42.8986" lon="1.03467">
        <ele>629</ele>
        <time>2025-07-21T06:15:31Z</time>
      </trkpt>
      <trkpt lat="42.8986" lon="1.03451">
        <ele>628.2</ele>
        <time>2025-07-21T06:15:32Z</time>
      </trkpt>
      <trkpt lat="42.89863" lon="1.03427">
        <ele>627.4</ele>
        <time>2025-07-21T06:15:34Z</time>
      </trkpt>
      <trkpt lat="42.89866" lon="1.03414">
        <ele>627</ele>
        <time>2025-07-21T06:15:35Z</time>
      </trkpt>
      <trkpt lat="42.8987" lon="1.03401">
        <ele>625.8</ele>
        <time>2025-07-21T06:15:36Z</time>
      </trkpt>
      <trkpt lat="42.89877" lon="1.03375">
        <ele>624.8</ele>
        <time>2025-07-21T06:15:38Z</time>
      </trkpt>
      <trkpt lat="42.89881" lon="1.03361">
        <ele>624</ele>
        <time>2025-07-21T06:15:39Z</time>
      </trkpt>
      <trkpt lat="42.89884" lon="1.03348">
        <ele>623.6</ele>
        <time>2025-07-21T06:15:40Z</time>
      </trkpt>
      <trkpt lat="42.89887" lon="1.03335">
        <ele>622.4</ele>
        <time>2025-07-21T06:15:41Z</time>
      </trkpt>
      <trkpt lat="42.89893" lon="1.03305">
        <ele>621.4</ele>
        <time>2025-07-21T06:15:43Z</time>
      </trkpt>
      <trkpt lat="42.899" lon="1.03266">
        <ele>619.6</ele>
        <time>2025-07-21T06:15:46Z</time>
      </trkpt>
      <trkpt lat="42.89908" lon="1.03236">
        <ele>618.2</ele>
        <time>2025-07-21T06:15:48Z</time>
      </trkpt>
      <trkpt lat="42.89911" lon="1.03225">
        <ele>617.2</ele>
        <time>2025-07-21T06:15:49Z</time>
      </trkpt>
      <trkpt lat="42.89918" lon="1.03197">
        <ele>615.8</ele>
        <time>2025-07-21T06:15:51Z</time>
      </trkpt>
      <trkpt lat="42.89925" lon="1.03166">
        <ele>614.6</ele>
        <time>2025-07-21T06:15:53Z</time>
      </trkpt>
      <trkpt lat="42.89928" lon="1.03141">
        <ele>613.2</ele>
        <time>2025-07-21T06:15:55Z</time>
      </trkpt>
      <trkpt lat="42.89929" lon="1.0311">
        <ele>611.8</ele>
        <time>2025-07-21T06:15:57Z</time>
      </trkpt>
      <trkpt lat="42.89929" lon="1.03088">
        <ele>610.2</ele>
        <time>2025-07-21T06:15:59Z</time>
      </trkpt>
      <trkpt lat="42.89931" lon="1.03077">
        <ele>609.8</ele>
        <time>2025-07-21T06:16:00Z</time>
      </trkpt>
      <trkpt lat="42.89934" lon="1.03069">
        <ele>609</ele>
        <time>2025-07-21T06:16:01Z</time>
      </trkpt>
      <trkpt lat="42.89939" lon="1.03063">
        <ele>608.6</ele>
        <time>2025-07-21T06:16:02Z</time>
      </trkpt>
      <trkpt lat="42.89945" lon="1.0306">
        <ele>607.8</ele>
        <time>2025-07-21T06:16:03Z</time>
      </trkpt>
      <trkpt lat="42.89957" lon="1.03059">
        <ele>606.6</ele>
        <time>2025-07-21T06:16:05Z</time>
      </trkpt>
      <trkpt lat="42.89963" lon="1.03061">
        <ele>605.8</ele>
        <time>2025-07-21T06:16:06Z</time>
      </trkpt>
      <trkpt lat="42.89969" lon="1.03068">
        <ele>605.4</ele>
        <time>2025-07-21T06:16:07Z</time>
      </trkpt>
      <trkpt lat="42.89975" lon="1.03076">
        <ele>604.6</ele>
        <time>2025-07-21T06:16:08Z</time>
      </trkpt>
      <trkpt lat="42.89991" lon="1.03092">
        <ele>603.4</ele>
        <time>2025-07-21T06:16:10Z</time>
      </trkpt>
      <trkpt lat="42.90006" lon="1.03104">
        <ele>602.2</ele>
        <time>2025-07-21T06:16:12Z</time>
      </trkpt>
      <trkpt lat="42.90022" lon="1.03115">
        <ele>601</ele>
        <time>2025-07-21T06:16:14Z</time>
      </trkpt>
      <trkpt lat="42.9003" lon="1.03121">
        <ele>599.8</ele>
        <time>2025-07-21T06:16:15Z</time>
      </trkpt>
      <trkpt lat="42.90038" lon="1.03127">
        <ele>598.8</ele>
        <time>2025-07-21T06:16:16Z</time>
      </trkpt>
      <trkpt lat="42.90047" lon="1.03132">
        <ele>598.4</ele>
        <time>2025-07-21T06:16:17Z</time>
      </trkpt>
      <trkpt lat="42.90056" lon="1.03136">
        <ele>597.4</ele>
        <time>2025-07-21T06:16:18Z</time>
      </trkpt>
      <trkpt lat="42.90073" lon="1.03145">
        <ele>596.6</ele>
        <time>2025-07-21T06:16:20Z</time>
      </trkpt>
      <trkpt lat="42.90081" lon="1.0315">
        <ele>595.6</ele>
        <time>2025-07-21T06:16:21Z</time>
      </trkpt>
      <trkpt lat="42.90088" lon="1.03158">
        <ele>595.4</ele>
        <time>2025-07-21T06:16:22Z</time>
      </trkpt>
      <trkpt lat="42.90093" lon="1.03169">
        <ele>594.4</ele>
        <time>2025-07-21T06:16:23Z</time>
      </trkpt>
      <trkpt lat="42.90096" lon="1.03183">
        <ele>594.2</ele>
        <time>2025-07-21T06:16:24Z</time>
      </trkpt>
      <trkpt lat="42.90098" lon="1.03195">
        <ele>593</ele>
        <time>2025-07-21T06:16:25Z</time>
      </trkpt>
      <trkpt lat="42.90099" lon="1.03207">
        <ele>592.6</ele>
        <time>2025-07-21T06:16:26Z</time>
      </trkpt>
      <trkpt lat="42.90106" lon="1.03229">
        <ele>591.6</ele>
        <time>2025-07-21T06:16:28Z</time>
      </trkpt>
      <trkpt lat="42.90116" lon="1.03246">
        <ele>590.2</ele>
        <time>2025-07-21T06:16:30Z</time>
      </trkpt>
      <trkpt lat="42.90128" lon="1.03255">
        <ele>589.2</ele>
        <time>2025-07-21T06:16:32Z</time>
      </trkpt>
      <trkpt lat="42.90139" lon="1.03253">
        <ele>588</ele>
        <time>2025-07-21T06:16:34Z</time>
      </trkpt>
      <trkpt lat="42.90144" lon="1.03244">
        <ele>587.2</ele>
        <time>2025-07-21T06:16:35Z</time>
      </trkpt>
      <trkpt lat="42.90146" lon="1.03233">
        <ele>586.8</ele>
        <time>2025-07-21T06:16:36Z</time>
      </trkpt>
      <trkpt lat="42.90147" lon="1.03221">
        <ele>585.6</ele>
        <time>2025-07-21T06:16:37Z</time>
      </trkpt>
      <trkpt lat="42.90149" lon="1.03209">
        <ele>585.2</ele>
        <time>2025-07-21T06:16:38Z</time>
      </trkpt>
      <trkpt lat="42.90151" lon="1.03184">
        <ele>584</ele>
        <time>2025-07-21T06:16:40Z</time>
      </trkpt>
      <trkpt lat="42.90152" lon="1.03159">
        <ele>582.6</ele>
        <time>2025-07-21T06:16:42Z</time>
      </trkpt>
      <trkpt lat="42.90152" lon="1.03137">
        <ele>581.6</ele>
        <time>2025-07-21T06:16:44Z</time>
      </trkpt>
      <trkpt lat="42.90152" lon="1.03122">
        <ele>580.2</ele>
        <time>2025-07-21T06:16:45Z</time>
      </trkpt>
      <trkpt lat="42.90152" lon="1.03098">
        <ele>579</ele>
        <time>2025-07-21T06:16:47Z</time>
      </trkpt>
      <trkpt lat="42.90153" lon="1.03088">
        <ele>578</ele>
        <time>2025-07-21T06:16:48Z</time>
      </trkpt>
      <trkpt lat="42.90158" lon="1.03067">
        <ele>577.4</ele>
        <time>2025-07-21T06:16:50Z</time>
      </trkpt>
      <trkpt lat="42.90163" lon="1.03055">
        <ele>576.8</ele>
        <time>2025-07-21T06:16:51Z</time>
      </trkpt>
      <trkpt lat="42.90167" lon="1.03048">
        <ele>575.8</ele>
        <time>2025-07-21T06:16:52Z</time>
      </trkpt>
      <trkpt lat="42.90177" lon="1.03031">
        <ele>575.2</ele>
        <time>2025-07-21T06:16:54Z</time>
      </trkpt>
      <trkpt lat="42.90183" lon="1.03022">
        <ele>574.6</ele>
        <time>2025-07-21T06:16:55Z</time>
      </trkpt>
      <trkpt lat="42.90198" lon="1.03008">
        <ele>573.8</ele>
        <time>2025-07-21T06:16:57Z</time>
      </trkpt>
      <trkpt lat="42.90205" lon="1.03004">
        <ele>573.6</ele>
        <time>2025-07-21T06:16:58Z</time>
      </trkpt>
      <trkpt lat="42.90221" lon="1.03">
        <ele>572</ele>
        <time>2025-07-21T06:17:00Z</time>
      </trkpt>
      <trkpt lat="42.90239" lon="1.02994">
        <ele>570.8</ele>
        <time>2025-07-21T06:17:02Z</time>
      </trkpt>
      <trkpt lat="42.90263" lon="1.02987">
        <ele>569</ele>
        <time>2025-07-21T06:17:05Z</time>
      </trkpt>
      <trkpt lat="42.90278" lon="1.02981">
        <ele>567.4</ele>
        <time>2025-07-21T06:17:07Z</time>
      </trkpt>
      <trkpt lat="42.90289" lon="1.02973">
        <ele>565.2</ele>
        <time>2025-07-21T06:17:09Z</time>
      </trkpt>
      <trkpt lat="42.90297" lon="1.02964">
        <ele>564</ele>
        <time>2025-07-21T06:17:11Z</time>
      </trkpt>
      <trkpt lat="42.90304" lon="1.02956">
        <ele>562.6</ele>
        <time>2025-07-21T06:17:13Z</time>
      </trkpt>
      <trkpt lat="42.90306" lon="1.02954">
        <ele>561.6</ele>
        <time>2025-07-21T06:17:14Z</time>
      </trkpt>
      <trkpt lat="42.90308" lon="1.02952">
        <ele>561.4</ele>
        <time>2025-07-21T06:17:15Z</time>
      </trkpt>
      <trkpt lat="42.90313" lon="1.02947">
        <ele>560</ele>
        <time>2025-07-21T06:17:17Z</time>
      </trkpt>
      <trkpt lat="42.90315" lon="1.02941">
        <ele>559.6</ele>
        <time>2025-07-21T06:17:19Z</time>
      </trkpt>
      <trkpt lat="42.90311" lon="1.02938">
        <ele>559</ele>
        <time>2025-07-21T06:17:21Z</time>
      </trkpt>
      <trkpt lat="42.90309" lon="1.02937">
        <ele>558.8</ele>
        <time>2025-07-21T06:17:22Z</time>
      </trkpt>
      <trkpt lat="42.90284" lon="1.02931">
        <ele>558.4</ele>
        <time>2025-07-21T06:17:29Z</time>
      </trkpt>
      <trkpt lat="42.90272" lon="1.02928">
        <ele>558</ele>
        <time>2025-07-21T06:17:32Z</time>
      </trkpt>
      <trkpt lat="42.90259" lon="1.02922">
        <ele>557.8</ele>
        <time>2025-07-21T06:17:35Z</time>
      </trkpt>
      <trkpt lat="42.90243" lon="1.02916">
        <ele>557.6</ele>
        <time>2025-07-21T06:17:39Z</time>
      </trkpt>
      <trkpt lat="42.90236" lon="1.02915">
        <ele>557.4</ele>
        <time>2025-07-21T06:17:41Z</time>
      </trkpt>
      <trkpt lat="42.90215" lon="1.02909">
        <ele>557.4</ele>
        <time>2025-07-21T06:17:46Z</time>
      </trkpt>
      <trkpt lat="42.90206" lon="1.02908">
        <ele>557.4</ele>
        <time>2025-07-21T06:17:48Z</time>
      </trkpt>
      <trkpt lat="42.90196" lon="1.02908">
        <ele>557.4</ele>
        <time>2025-07-21T06:17:50Z</time>
      </trkpt>
      <trkpt lat="42.90172" lon="1.02909">
        <ele>557.6</ele>
        <time>2025-07-21T06:17:55Z</time>
      </trkpt>
      <trkpt lat="42.90164" lon="1.02909">
        <ele>557.6</ele>
        <time>2025-07-21T06:17:57Z</time>
      </trkpt>
      <trkpt lat="42.90148" lon="1.02912">
        <ele>557.4</ele>
        <time>2025-07-21T06:18:01Z</time>
      </trkpt>
      <trkpt lat="42.90137" lon="1.02914">
        <ele>557.2</ele>
        <time>2025-07-21T06:18:05Z</time>
      </trkpt>
      <trkpt lat="42.90135" lon="1.02915">
        <ele>557.2</ele>
        <time>2025-07-21T06:18:06Z</time>
      </trkpt>
      <trkpt lat="42.90134" lon="1.02916">
        <ele>557.2</ele>
        <time>2025-07-21T06:18:07Z</time>
      </trkpt>
      <trkpt lat="42.90135" lon="1.02919">
        <ele>557.2</ele>
        <time>2025-07-21T06:18:09Z</time>
      </trkpt>
      <trkpt lat="42.90147" lon="1.02917">
        <ele>557.2</ele>
        <time>2025-07-21T06:18:14Z</time>
      </trkpt>
      <trkpt lat="42.90165" lon="1.02916">
        <ele>557.2</ele>
        <time>2025-07-21T06:18:19Z</time>
      </trkpt>
      <trkpt lat="42.90195" lon="1.02914">
        <ele>557.2</ele>
        <time>2025-07-21T06:18:26Z</time>
      </trkpt>
      <trkpt lat="42.9021" lon="1.02914">
        <ele>557.4</ele>
        <time>2025-07-21T06:18:29Z</time>
      </trkpt>
      <trkpt lat="42.90226" lon="1.02917">
        <ele>557.4</ele>
        <time>2025-07-21T06:18:33Z</time>
      </trkpt>
      <trkpt lat="42.90242" lon="1.02921">
        <ele>557.4</ele>
        <time>2025-07-21T06:18:37Z</time>
      </trkpt>
      <trkpt lat="42.90251" lon="1.02922">
        <ele>557.4</ele>
        <time>2025-07-21T06:18:39Z</time>
      </trkpt>
      <trkpt lat="42.90279" lon="1.02934">
        <ele>557.6</ele>
        <time>2025-07-21T06:18:46Z</time>
      </trkpt>
      <trkpt lat="42.90316" lon="1.02946">
        <ele>558</ele>
        <time>2025-07-21T06:18:55Z</time>
      </trkpt>
      <trkpt lat="42.90349" lon="1.02948">
        <ele>558.4</ele>
        <time>2025-07-21T06:19:02Z</time>
      </trkpt>
      <trkpt lat="42.90381" lon="1.02949">
        <ele>558.4</ele>
        <time>2025-07-21T06:19:08Z</time>
      </trkpt>
      <trkpt lat="42.90397" lon="1.02948">
        <ele>558</ele>
        <time>2025-07-21T06:19:11Z</time>
      </trkpt>
      <trkpt lat="42.90413" lon="1.02943">
        <ele>558</ele>
        <time>2025-07-21T06:19:14Z</time>
      </trkpt>
      <trkpt lat="42.90418" lon="1.02941">
        <ele>558</ele>
        <time>2025-07-21T06:19:15Z</time>
      </trkpt>
      <trkpt lat="42.90439" lon="1.02925">
        <ele>557.6</ele>
        <time>2025-07-21T06:19:19Z</time>
      </trkpt>
      <trkpt lat="42.90445" lon="1.0292">
        <ele>557.2</ele>
        <time>2025-07-21T06:19:20Z</time>
      </trkpt>
      <trkpt lat="42.90467" lon="1.02896">
        <ele>556</ele>
        <time>2025-07-21T06:19:24Z</time>
      </trkpt>
      <trkpt lat="42.90473" lon="1.02891">
        <ele>555.8</ele>
        <time>2025-07-21T06:19:25Z</time>
      </trkpt>
      <trkpt lat="42.90491" lon="1.02874">
        <ele>554.6</ele>
        <time>2025-07-21T06:19:28Z</time>
      </trkpt>
      <trkpt lat="42.90511" lon="1.02857">
        <ele>553.4</ele>
        <time>2025-07-21T06:19:31Z</time>
      </trkpt>
      <trkpt lat="42.90542" lon="1.02837">
        <ele>552</ele>
        <time>2025-07-21T06:19:35Z</time>
      </trkpt>
      <trkpt lat="42.9055" lon="1.02833">
        <ele>551.8</ele>
        <time>2025-07-21T06:19:36Z</time>
      </trkpt>
      <trkpt lat="42.90574" lon="1.02831">
        <ele>551.4</ele>
        <time>2025-07-21T06:19:39Z</time>
      </trkpt>
      <trkpt lat="42.9059" lon="1.02835">
        <ele>551.2</ele>
        <time>2025-07-21T06:19:41Z</time>
      </trkpt>
      <trkpt lat="42.90598" lon="1.02838">
        <ele>551</ele>
        <time>2025-07-21T06:19:42Z</time>
      </trkpt>
      <trkpt lat="42.90607" lon="1.02843">
        <ele>550.8</ele>
        <time>2025-07-21T06:19:43Z</time>
      </trkpt>
      <trkpt lat="42.90641" lon="1.02863">
        <ele>550.4</ele>
        <time>2025-07-21T06:19:48Z</time>
      </trkpt>
      <trkpt lat="42.90657" lon="1.02871">
        <ele>550.2</ele>
        <time>2025-07-21T06:19:50Z</time>
      </trkpt>
      <trkpt lat="42.90677" lon="1.02873">
        <ele>550</ele>
        <time>2025-07-21T06:19:53Z</time>
      </trkpt>
      <trkpt lat="42.90711" lon="1.02876">
        <ele>550.2</ele>
        <time>2025-07-21T06:19:58Z</time>
      </trkpt>
      <trkpt lat="42.90717" lon="1.02882">
        <ele>550.2</ele>
        <time>2025-07-21T06:19:59Z</time>
      </trkpt>
      <trkpt lat="42.9073" lon="1.02894">
        <ele>550.2</ele>
        <time>2025-07-21T06:20:01Z</time>
      </trkpt>
      <trkpt lat="42.90736" lon="1.02899">
        <ele>550.2</ele>
        <time>2025-07-21T06:20:02Z</time>
      </trkpt>
      <trkpt lat="42.90754" lon="1.02908">
        <ele>550.2</ele>
        <time>2025-07-21T06:20:05Z</time>
      </trkpt>
      <trkpt lat="42.90759" lon="1.02909">
        <ele>550.2</ele>
        <time>2025-07-21T06:20:06Z</time>
      </trkpt>
      <trkpt lat="42.90774" lon="1.02915">
        <ele>551</ele>
        <time>2025-07-21T06:20:09Z</time>
      </trkpt>
      <trkpt lat="42.90783" lon="1.02916">
        <ele>551.6</ele>
        <time>2025-07-21T06:20:11Z</time>
      </trkpt>
      <trkpt lat="42.90788" lon="1.02916">
        <ele>552</ele>
        <time>2025-07-21T06:20:12Z</time>
      </trkpt>
      <trkpt lat="42.90792" lon="1.02917">
        <ele>552.2</ele>
        <time>2025-07-21T06:20:13Z</time>
      </trkpt>
      <trkpt lat="42.90811" lon="1.02918">
        <ele>553.2</ele>
        <time>2025-07-21T06:20:17Z</time>
      </trkpt>
      <trkpt lat="42.90815" lon="1.02919">
        <ele>553.2</ele>
        <time>2025-07-21T06:20:18Z</time>
      </trkpt>
      <trkpt lat="42.90823" lon="1.02919">
        <ele>553.6</ele>
        <time>2025-07-21T06:20:20Z</time>
      </trkpt>
      <trkpt lat="42.90834" lon="1.0292">
        <ele>554.2</ele>
        <time>2025-07-21T06:20:23Z</time>
      </trkpt>
      <trkpt lat="42.90854" lon="1.02917">
        <ele>554.8</ele>
        <time>2025-07-21T06:20:28Z</time>
      </trkpt>
      <trkpt lat="42.90862" lon="1.02914">
        <ele>555.2</ele>
        <time>2025-07-21T06:20:30Z</time>
      </trkpt>
      <trkpt lat="42.90876" lon="1.02911">
        <ele>555.8</ele>
        <time>2025-07-21T06:20:34Z</time>
      </trkpt>
      <trkpt lat="42.90895" lon="1.0291">
        <ele>556.2</ele>
        <time>2025-07-21T06:20:39Z</time>
      </trkpt>
      <trkpt lat="42.90921" lon="1.02911">
        <ele>557.2</ele>
        <time>2025-07-21T06:20:46Z</time>
      </trkpt>
      <trkpt lat="42.90935" lon="1.02918">
        <ele>557.8</ele>
        <time>2025-07-21T06:20:50Z</time>
      </trkpt>
      <trkpt lat="42.90946" lon="1.02928">
        <ele>558.2</ele>
        <time>2025-07-21T06:20:53Z</time>
      </trkpt>
      <trkpt lat="42.90954" lon="1.02933">
        <ele>558.4</ele>
        <time>2025-07-21T06:20:55Z</time>
      </trkpt>
      <trkpt lat="42.90962" lon="1.02937">
        <ele>558.8</ele>
        <time>2025-07-21T06:20:57Z</time>
      </trkpt>
      <trkpt lat="42.90969" lon="1.02937">
        <ele>559.2</ele>
        <time>2025-07-21T06:20:59Z</time>
      </trkpt>
      <trkpt lat="42.90983" lon="1.02936">
        <ele>560</ele>
        <time>2025-07-21T06:21:03Z</time>
      </trkpt>
      <trkpt lat="42.90995" lon="1.02933">
        <ele>560.4</ele>
        <time>2025-07-21T06:21:06Z</time>
      </trkpt>
      <trkpt lat="42.91004" lon="1.02934">
        <ele>560.8</ele>
        <time>2025-07-21T06:21:09Z</time>
      </trkpt>
      <trkpt lat="42.91015" lon="1.02927">
        <ele>561.4</ele>
        <time>2025-07-21T06:21:12Z</time>
      </trkpt>
      <trkpt lat="42.91027" lon="1.02926">
        <ele>562.2</ele>
        <time>2025-07-21T06:21:15Z</time>
      </trkpt>
      <trkpt lat="42.91034" lon="1.02926">
        <ele>562.6</ele>
        <time>2025-07-21T06:21:17Z</time>
      </trkpt>
      <trkpt lat="42.91051" lon="1.02927">
        <ele>563.4</ele>
        <time>2025-07-21T06:21:21Z</time>
      </trkpt>
      <trkpt lat="42.91055" lon="1.02927">
        <ele>563.4</ele>
        <time>2025-07-21T06:21:22Z</time>
      </trkpt>
      <trkpt lat="42.91063" lon="1.02927">
        <ele>563.6</ele>
        <time>2025-07-21T06:21:24Z</time>
      </trkpt>
      <trkpt lat="42.91076" lon="1.02926">
        <ele>564</ele>
        <time>2025-07-21T06:21:27Z</time>
      </trkpt>
      <trkpt lat="42.91101" lon="1.02924">
        <ele>564.4</ele>
        <time>2025-07-21T06:21:33Z</time>
      </trkpt>
      <trkpt lat="42.91106" lon="1.02923">
        <ele>564.6</ele>
        <time>2025-07-21T06:21:34Z</time>
      </trkpt>
      <trkpt lat="42.9111" lon="1.02921">
        <ele>564.6</ele>
        <time>2025-07-21T06:21:35Z</time>
      </trkpt>
      <trkpt lat="42.91114" lon="1.02919">
        <ele>564.8</ele>
        <time>2025-07-21T06:21:36Z</time>
      </trkpt>
      <trkpt lat="42.91118" lon="1.02918">
        <ele>564.8</ele>
        <time>2025-07-21T06:21:37Z</time>
      </trkpt>
      <trkpt lat="42.91122" lon="1.02919">
        <ele>564.8</ele>
        <time>2025-07-21T06:21:38Z</time>
      </trkpt>
      <trkpt lat="42.91126" lon="1.02917">
        <ele>565</ele>
        <time>2025-07-21T06:21:39Z</time>
      </trkpt>
      <trkpt lat="42.91135" lon="1.02912">
        <ele>565.2</ele>
        <time>2025-07-21T06:21:41Z</time>
      </trkpt>
      <trkpt lat="42.91144" lon="1.02905">
        <ele>565.4</ele>
        <time>2025-07-21T06:21:43Z</time>
      </trkpt>
      <trkpt lat="42.91165" lon="1.02889">
        <ele>565.8</ele>
        <time>2025-07-21T06:21:48Z</time>
      </trkpt>
      <trkpt lat="42.91169" lon="1.02885">
        <ele>565.8</ele>
        <time>2025-07-21T06:21:49Z</time>
      </trkpt>
      <trkpt lat="42.9118" lon="1.02876">
        <ele>565.8</ele>
        <time>2025-07-21T06:21:52Z</time>
      </trkpt>
      <trkpt lat="42.91192" lon="1.02867">
        <ele>566.2</ele>
        <time>2025-07-21T06:21:55Z</time>
      </trkpt>
      <trkpt lat="42.91203" lon="1.0286">
        <ele>566.6</ele>
        <time>2025-07-21T06:21:58Z</time>
      </trkpt>
      <trkpt lat="42.91216" lon="1.02856">
        <ele>566.8</ele>
        <time>2025-07-21T06:22:01Z</time>
      </trkpt>
      <trkpt lat="42.91221" lon="1.02856">
        <ele>566.8</ele>
        <time>2025-07-21T06:22:02Z</time>
      </trkpt>
      <trkpt lat="42.9123" lon="1.02856">
        <ele>567</ele>
        <time>2025-07-21T06:22:04Z</time>
      </trkpt>
      <trkpt lat="42.91249" lon="1.02861">
        <ele>566.6</ele>
        <time>2025-07-21T06:22:08Z</time>
      </trkpt>
      <trkpt lat="42.91276" lon="1.02864">
        <ele>566.4</ele>
        <time>2025-07-21T06:22:13Z</time>
      </trkpt>
      <trkpt lat="42.91311" lon="1.02858">
        <ele>566.2</ele>
        <time>2025-07-21T06:22:19Z</time>
      </trkpt>
      <trkpt lat="42.9133" lon="1.02861">
        <ele>566</ele>
        <time>2025-07-21T06:22:22Z</time>
      </trkpt>
      <trkpt lat="42.91337" lon="1.02864">
        <ele>565.6</ele>
        <time>2025-07-21T06:22:23Z</time>
      </trkpt>
      <trkpt lat="42.9136" lon="1.02881">
        <ele>564.6</ele>
        <time>2025-07-21T06:22:27Z</time>
      </trkpt>
      <trkpt lat="42.91366" lon="1.02885">
        <ele>564.2</ele>
        <time>2025-07-21T06:22:28Z</time>
      </trkpt>
      <trkpt lat="42.91388" lon="1.02898">
        <ele>563.4</ele>
        <time>2025-07-21T06:22:31Z</time>
      </trkpt>
      <trkpt lat="42.91403" lon="1.02902">
        <ele>562.4</ele>
        <time>2025-07-21T06:22:33Z</time>
      </trkpt>
      <trkpt lat="42.91422" lon="1.02903">
        <ele>561.2</ele>
        <time>2025-07-21T06:22:35Z</time>
      </trkpt>
      <trkpt lat="42.91454" lon="1.02909">
        <ele>559.8</ele>
        <time>2025-07-21T06:22:39Z</time>
      </trkpt>
      <trkpt lat="42.91473" lon="1.02915">
        <ele>558.8</ele>
        <time>2025-07-21T06:22:41Z</time>
      </trkpt>
      <trkpt lat="42.91483" lon="1.02919">
        <ele>558.4</ele>
        <time>2025-07-21T06:22:42Z</time>
      </trkpt>
      <trkpt lat="42.9149" lon="1.02923">
        <ele>558.4</ele>
        <time>2025-07-21T06:22:43Z</time>
      </trkpt>
      <trkpt lat="42.91508" lon="1.0293">
        <ele>557</ele>
        <time>2025-07-21T06:22:45Z</time>
      </trkpt>
      <trkpt lat="42.91534" lon="1.02946">
        <ele>556</ele>
        <time>2025-07-21T06:22:48Z</time>
      </trkpt>
      <trkpt lat="42.91542" lon="1.02952">
        <ele>555.6</ele>
        <time>2025-07-21T06:22:49Z</time>
      </trkpt>
      <trkpt lat="42.91559" lon="1.02969">
        <ele>555</ele>
        <time>2025-07-21T06:22:51Z</time>
      </trkpt>
      <trkpt lat="42.91566" lon="1.02979">
        <ele>554.4</ele>
        <time>2025-07-21T06:22:52Z</time>
      </trkpt>
      <trkpt lat="42.9158" lon="1.02996">
        <ele>553.6</ele>
        <time>2025-07-21T06:22:54Z</time>
      </trkpt>
      <trkpt lat="42.91609" lon="1.0302">
        <ele>551.8</ele>
        <time>2025-07-21T06:22:58Z</time>
      </trkpt>
      <trkpt lat="42.91623" lon="1.03026">
        <ele>550.8</ele>
        <time>2025-07-21T06:23:00Z</time>
      </trkpt>
      <trkpt lat="42.91632" lon="1.03031">
        <ele>550.2</ele>
        <time>2025-07-21T06:23:01Z</time>
      </trkpt>
      <trkpt lat="42.91639" lon="1.03036">
        <ele>549.8</ele>
        <time>2025-07-21T06:23:02Z</time>
      </trkpt>
      <trkpt lat="42.91654" lon="1.03041">
        <ele>548.8</ele>
        <time>2025-07-21T06:23:04Z</time>
      </trkpt>
      <trkpt lat="42.91681" lon="1.0305">
        <ele>548</ele>
        <time>2025-07-21T06:23:08Z</time>
      </trkpt>
      <trkpt lat="42.91687" lon="1.03052">
        <ele>547.6</ele>
        <time>2025-07-21T06:23:09Z</time>
      </trkpt>
      <trkpt lat="42.91723" lon="1.03064">
        <ele>546.6</ele>
        <time>2025-07-21T06:23:15Z</time>
      </trkpt>
      <trkpt lat="42.91728" lon="1.03065">
        <ele>546.4</ele>
        <time>2025-07-21T06:23:16Z</time>
      </trkpt>
      <trkpt lat="42.91752" lon="1.03074">
        <ele>546</ele>
        <time>2025-07-21T06:23:20Z</time>
      </trkpt>
      <trkpt lat="42.91778" lon="1.03083">
        <ele>545.8</ele>
        <time>2025-07-21T06:23:25Z</time>
      </trkpt>
      <trkpt lat="42.91819" lon="1.03108">
        <ele>545.6</ele>
        <time>2025-07-21T06:23:33Z</time>
      </trkpt>
      <trkpt lat="42.91825" lon="1.03112">
        <ele>545.6</ele>
        <time>2025-07-21T06:23:34Z</time>
      </trkpt>
      <trkpt lat="42.91841" lon="1.03124">
        <ele>545.6</ele>
        <time>2025-07-21T06:23:38Z</time>
      </trkpt>
      <trkpt lat="42.9185" lon="1.03127">
        <ele>545.6</ele>
        <time>2025-07-21T06:23:40Z</time>
      </trkpt>
      <trkpt lat="42.91862" lon="1.0313">
        <ele>545.6</ele>
        <time>2025-07-21T06:23:43Z</time>
      </trkpt>
      <trkpt lat="42.91876" lon="1.03133">
        <ele>545.6</ele>
        <time>2025-07-21T06:23:48Z</time>
      </trkpt>
      <trkpt lat="42.91878" lon="1.03134">
        <ele>545.8</ele>
        <time>2025-07-21T06:23:52Z</time>
      </trkpt>
      <trkpt lat="42.91882" lon="1.03133">
        <ele>546.2</ele>
        <time>2025-07-21T06:30:41Z</time>
      </trkpt>
      <trkpt lat="42.91888" lon="1.03132">
        <ele>546.2</ele>
        <time>2025-07-21T06:30:44Z</time>
      </trkpt>
      <trkpt lat="42.91903" lon="1.03132">
        <ele>546.2</ele>
        <time>2025-07-21T06:30:49Z</time>
      </trkpt>
      <trkpt lat="42.91917" lon="1.03135">
        <ele>546</ele>
        <time>2025-07-21T06:30:53Z</time>
      </trkpt>
      <trkpt lat="42.91921" lon="1.03135">
        <ele>546</ele>
        <time>2025-07-21T06:30:54Z</time>
      </trkpt>
      <trkpt lat="42.91945" lon="1.03137">
        <ele>545.6</ele>
        <time>2025-07-21T06:31:00Z</time>
      </trkpt>
      <trkpt lat="42.9196" lon="1.0314">
        <ele>545.4</ele>
        <time>2025-07-21T06:31:03Z</time>
      </trkpt>
      <trkpt lat="42.91979" lon="1.03142">
        <ele>545.2</ele>
        <time>2025-07-21T06:31:07Z</time>
      </trkpt>
      <trkpt lat="42.92015" lon="1.03143">
        <ele>544.6</ele>
        <time>2025-07-21T06:31:15Z</time>
      </trkpt>
      <trkpt lat="42.92036" lon="1.03146">
        <ele>544.4</ele>
        <time>2025-07-21T06:31:21Z</time>
      </trkpt>
      <trkpt lat="42.92049" lon="1.03148">
        <ele>544.2</ele>
        <time>2025-07-21T06:31:25Z</time>
      </trkpt>
      <trkpt lat="42.92073" lon="1.03152">
        <ele>544.2</ele>
        <time>2025-07-21T06:31:34Z</time>
      </trkpt>
      <trkpt lat="42.92087" lon="1.03151">
        <ele>544</ele>
        <time>2025-07-21T06:31:40Z</time>
      </trkpt>
      <trkpt lat="42.92089" lon="1.03151">
        <ele>544</ele>
        <time>2025-07-21T06:31:41Z</time>
      </trkpt>
      <trkpt lat="42.92095" lon="1.0315">
        <ele>544</ele>
        <time>2025-07-21T06:31:44Z</time>
      </trkpt>
      <trkpt lat="42.92098" lon="1.03149">
        <ele>543.8</ele>
        <time>2025-07-21T06:31:45Z</time>
      </trkpt>
      <trkpt lat="42.92107" lon="1.0315">
        <ele>543.8</ele>
        <time>2025-07-21T06:31:48Z</time>
      </trkpt>
      <trkpt lat="42.92129" lon="1.03155">
        <ele>543.6</ele>
        <time>2025-07-21T06:31:54Z</time>
      </trkpt>
      <trkpt lat="42.9215" lon="1.03153">
        <ele>543.4</ele>
        <time>2025-07-21T06:32:01Z</time>
      </trkpt>
      <trkpt lat="42.92153" lon="1.03152">
        <ele>543.4</ele>
        <time>2025-07-21T06:32:03Z</time>
      </trkpt>
      <trkpt lat="42.92154" lon="1.03152">
        <ele>543.4</ele>
        <time>2025-07-21T06:32:04Z</time>
      </trkpt>
      <trkpt lat="42.92155" lon="1.03151">
        <ele>543.2</ele>
        <time>2025-07-21T06:32:05Z</time>
      </trkpt>
      <trkpt lat="42.92155" lon="1.03151">
        <ele>543.2</ele>
        <time>2025-07-21T06:32:08Z</time>
      </trkpt>
      <trkpt lat="42.92159" lon="1.03153">
        <ele>540.4</ele>
        <time>2025-07-21T06:59:09Z</time>
      </trkpt>
      <trkpt lat="42.92161" lon="1.03153">
        <ele>540.4</ele>
        <time>2025-07-21T06:59:10Z</time>
      </trkpt>
      <trkpt lat="42.92174" lon="1.03153">
        <ele>540.6</ele>
        <time>2025-07-21T06:59:17Z</time>
      </trkpt>
      <trkpt lat="42.9219" lon="1.03152">
        <ele>540.2</ele>
        <time>2025-07-21T06:59:23Z</time>
      </trkpt>
      <trkpt lat="42.92214" lon="1.03151">
        <ele>540</ele>
        <time>2025-07-21T06:59:30Z</time>
      </trkpt>
      <trkpt lat="42.92242" lon="1.03141">
        <ele>540</ele>
        <time>2025-07-21T06:59:37Z</time>
      </trkpt>
      <trkpt lat="42.92268" lon="1.03129">
        <ele>540</ele>
        <time>2025-07-21T06:59:44Z</time>
      </trkpt>
      <trkpt lat="42.92307" lon="1.03108">
        <ele>539.6</ele>
        <time>2025-07-21T06:59:54Z</time>
      </trkpt>
      <trkpt lat="42.92325" lon="1.03099">
        <ele>539.4</ele>
        <time>2025-07-21T06:59:58Z</time>
      </trkpt>
      <trkpt lat="42.92335" lon="1.03092">
        <ele>539.4</ele>
        <time>2025-07-21T07:00:00Z</time>
      </trkpt>
      <trkpt lat="42.92373" lon="1.0307">
        <ele>539.2</ele>
        <time>2025-07-21T07:00:08Z</time>
      </trkpt>
      <trkpt lat="42.92409" lon="1.0305">
        <ele>539.2</ele>
        <time>2025-07-21T07:00:15Z</time>
      </trkpt>
      <trkpt lat="42.92433" lon="1.03036">
        <ele>539.2</ele>
        <time>2025-07-21T07:00:20Z</time>
      </trkpt>
      <trkpt lat="42.9244" lon="1.03033">
        <ele>539</ele>
        <time>2025-07-21T07:00:21Z</time>
      </trkpt>
      <trkpt lat="42.9246" lon="1.03021">
        <ele>538.8</ele>
        <time>2025-07-21T07:00:25Z</time>
      </trkpt>
      <trkpt lat="42.92467" lon="1.03016">
        <ele>538.8</ele>
        <time>2025-07-21T07:00:26Z</time>
      </trkpt>
      <trkpt lat="42.92472" lon="1.03012">
        <ele>538.8</ele>
        <time>2025-07-21T07:00:27Z</time>
      </trkpt>
      <trkpt lat="42.92489" lon="1.03001">
        <ele>538.4</ele>
        <time>2025-07-21T07:00:30Z</time>
      </trkpt>
      <trkpt lat="42.92497" lon="1.02997">
        <ele>538.4</ele>
        <time>2025-07-21T07:00:31Z</time>
      </trkpt>
      <trkpt lat="42.92532" lon="1.02984">
        <ele>537.2</ele>
        <time>2025-07-21T07:00:36Z</time>
      </trkpt>
      <trkpt lat="42.92539" lon="1.02981">
        <ele>537</ele>
        <time>2025-07-21T07:00:37Z</time>
      </trkpt>
      <trkpt lat="42.9256" lon="1.02974">
        <ele>536.2</ele>
        <time>2025-07-21T07:00:40Z</time>
      </trkpt>
      <trkpt lat="42.92584" lon="1.02969">
        <ele>535.6</ele>
        <time>2025-07-21T07:00:43Z</time>
      </trkpt>
      <trkpt lat="42.9261" lon="1.02967">
        <ele>534.8</ele>
        <time>2025-07-21T07:00:46Z</time>
      </trkpt>
      <trkpt lat="42.92628" lon="1.02967">
        <ele>534.4</ele>
        <time>2025-07-21T07:00:48Z</time>
      </trkpt>
      <trkpt lat="42.92656" lon="1.02969">
        <ele>533.8</ele>
        <time>2025-07-21T07:00:51Z</time>
      </trkpt>
      <trkpt lat="42.92688" lon="1.02972">
        <ele>533</ele>
        <time>2025-07-21T07:00:55Z</time>
      </trkpt>
      <trkpt lat="42.92697" lon="1.02972">
        <ele>532.8</ele>
        <time>2025-07-21T07:00:56Z</time>
      </trkpt>
      <trkpt lat="42.92741" lon="1.02979">
        <ele>531.4</ele>
        <time>2025-07-21T07:01:01Z</time>
      </trkpt>
      <trkpt lat="42.92783" lon="1.02985">
        <ele>530.2</ele>
        <time>2025-07-21T07:01:06Z</time>
      </trkpt>
      <trkpt lat="42.92807" lon="1.02988">
        <ele>529.6</ele>
        <time>2025-07-21T07:01:09Z</time>
      </trkpt>
      <trkpt lat="42.92831" lon="1.02988">
        <ele>529.2</ele>
        <time>2025-07-21T07:01:12Z</time>
      </trkpt>
      <trkpt lat="42.9285" lon="1.02987">
        <ele>528.6</ele>
        <time>2025-07-21T07:01:15Z</time>
      </trkpt>
      <trkpt lat="42.92863" lon="1.02984">
        <ele>528.2</ele>
        <time>2025-07-21T07:01:17Z</time>
      </trkpt>
      <trkpt lat="42.92873" lon="1.02978">
        <ele>527.6</ele>
        <time>2025-07-21T07:01:19Z</time>
      </trkpt>
      <trkpt lat="42.92878" lon="1.02975">
        <ele>527.4</ele>
        <time>2025-07-21T07:01:20Z</time>
      </trkpt>
      <trkpt lat="42.92883" lon="1.02971">
        <ele>527</ele>
        <time>2025-07-21T07:01:22Z</time>
      </trkpt>
      <trkpt lat="42.92884" lon="1.02956">
        <ele>527</ele>
        <time>2025-07-21T07:01:23Z</time>
      </trkpt>
      <trkpt lat="42.92883" lon="1.02948">
        <ele>526.8</ele>
        <time>2025-07-21T07:01:24Z</time>
      </trkpt>
      <trkpt lat="42.92881" lon="1.02939">
        <ele>526.6</ele>
        <time>2025-07-21T07:01:25Z</time>
      </trkpt>
      <trkpt lat="42.92876" lon="1.0292">
        <ele>526</ele>
        <time>2025-07-21T07:01:27Z</time>
      </trkpt>
      <trkpt lat="42.92873" lon="1.0291">
        <ele>525.6</ele>
        <time>2025-07-21T07:01:28Z</time>
      </trkpt>
      <trkpt lat="42.92868" lon="1.02888">
        <ele>525</ele>
        <time>2025-07-21T07:01:30Z</time>
      </trkpt>
      <trkpt lat="42.92859" lon="1.02853">
        <ele>524</ele>
        <time>2025-07-21T07:01:33Z</time>
      </trkpt>
      <trkpt lat="42.92856" lon="1.02841">
        <ele>523.4</ele>
        <time>2025-07-21T07:01:34Z</time>
      </trkpt>
      <trkpt lat="42.92852" lon="1.02829">
        <ele>522.8</ele>
        <time>2025-07-21T07:01:35Z</time>
      </trkpt>
      <trkpt lat="42.92846" lon="1.02804">
        <ele>521.6</ele>
        <time>2025-07-21T07:01:37Z</time>
      </trkpt>
      <trkpt lat="42.92838" lon="1.02775">
        <ele>520.2</ele>
        <time>2025-07-21T07:01:39Z</time>
      </trkpt>
      <trkpt lat="42.92832" lon="1.02751">
        <ele>519</ele>
        <time>2025-07-21T07:01:41Z</time>
      </trkpt>
      <trkpt lat="42.92824" lon="1.02724">
        <ele>517.8</ele>
        <time>2025-07-21T07:01:43Z</time>
      </trkpt>
      <trkpt lat="42.92817" lon="1.02698">
        <ele>516.6</ele>
        <time>2025-07-21T07:01:45Z</time>
      </trkpt>
      <trkpt lat="42.92813" lon="1.02685">
        <ele>515.6</ele>
        <time>2025-07-21T07:01:46Z</time>
      </trkpt>
      <trkpt lat="42.92811" lon="1.02672">
        <ele>514.8</ele>
        <time>2025-07-21T07:01:47Z</time>
      </trkpt>
      <trkpt lat="42.92805" lon="1.02647">
        <ele>514</ele>
        <time>2025-07-21T07:01:49Z</time>
      </trkpt>
      <trkpt lat="42.928" lon="1.02623">
        <ele>512.8</ele>
        <time>2025-07-21T07:01:51Z</time>
      </trkpt>
      <trkpt lat="42.92794" lon="1.026">
        <ele>511.8</ele>
        <time>2025-07-21T07:01:53Z</time>
      </trkpt>
      <trkpt lat="42.92791" lon="1.02589">
        <ele>511.2</ele>
        <time>2025-07-21T07:01:54Z</time>
      </trkpt>
      <trkpt lat="42.92783" lon="1.02545">
        <ele>510.4</ele>
        <time>2025-07-21T07:01:58Z</time>
      </trkpt>
      <trkpt lat="42.92782" lon="1.02497">
        <ele>509.2</ele>
        <time>2025-07-21T07:02:03Z</time>
      </trkpt>
      <trkpt lat="42.92781" lon="1.02488">
        <ele>509.2</ele>
        <time>2025-07-21T07:02:04Z</time>
      </trkpt>
      <trkpt lat="42.92782" lon="1.02451">
        <ele>509</ele>
        <time>2025-07-21T07:02:08Z</time>
      </trkpt>
      <trkpt lat="42.92785" lon="1.02434">
        <ele>509</ele>
        <time>2025-07-21T07:02:10Z</time>
      </trkpt>
      <trkpt lat="42.92797" lon="1.02398">
        <ele>509.4</ele>
        <time>2025-07-21T07:02:15Z</time>
      </trkpt>
      <trkpt lat="42.92805" lon="1.02374">
        <ele>510.2</ele>
        <time>2025-07-21T07:02:19Z</time>
      </trkpt>
      <trkpt lat="42.92806" lon="1.02368">
        <ele>510.4</ele>
        <time>2025-07-21T07:02:20Z</time>
      </trkpt>
      <trkpt lat="42.9281" lon="1.02331">
        <ele>511.4</ele>
        <time>2025-07-21T07:02:27Z</time>
      </trkpt>
      <trkpt lat="42.92806" lon="1.023">
        <ele>512</ele>
        <time>2025-07-21T07:02:33Z</time>
      </trkpt>
      <trkpt lat="42.92792" lon="1.02263">
        <ele>512.2</ele>
        <time>2025-07-21T07:02:40Z</time>
      </trkpt>
      <trkpt lat="42.92772" lon="1.02226">
        <ele>512.2</ele>
        <time>2025-07-21T07:02:47Z</time>
      </trkpt>
      <trkpt lat="42.92757" lon="1.02197">
        <ele>512.2</ele>
        <time>2025-07-21T07:02:52Z</time>
      </trkpt>
      <trkpt lat="42.92753" lon="1.02191">
        <ele>512.2</ele>
        <time>2025-07-21T07:02:53Z</time>
      </trkpt>
      <trkpt lat="42.92726" lon="1.02142">
        <ele>511.6</ele>
        <time>2025-07-21T07:03:01Z</time>
      </trkpt>
      <trkpt lat="42.92691" lon="1.02076">
        <ele>511.2</ele>
        <time>2025-07-21T07:03:11Z</time>
      </trkpt>
      <trkpt lat="42.92678" lon="1.02038">
        <ele>511</ele>
        <time>2025-07-21T07:03:16Z</time>
      </trkpt>
      <trkpt lat="42.92672" lon="1.01989">
        <ele>510.8</ele>
        <time>2025-07-21T07:03:22Z</time>
      </trkpt>
      <trkpt lat="42.92667" lon="1.01923">
        <ele>510.8</ele>
        <time>2025-07-21T07:03:30Z</time>
      </trkpt>
      <trkpt lat="42.92664" lon="1.01862">
        <ele>510.8</ele>
        <time>2025-07-21T07:03:38Z</time>
      </trkpt>
      <trkpt lat="42.92665" lon="1.01849">
        <ele>510.8</ele>
        <time>2025-07-21T07:03:40Z</time>
      </trkpt>
      <trkpt lat="42.92667" lon="1.01836">
        <ele>511</ele>
        <time>2025-07-21T07:03:42Z</time>
      </trkpt>
      <trkpt lat="42.92668" lon="1.0183">
        <ele>511</ele>
        <time>2025-07-21T07:03:43Z</time>
      </trkpt>
      <trkpt lat="42.9268" lon="1.01784">
        <ele>512</ele>
        <time>2025-07-21T07:03:50Z</time>
      </trkpt>
      <trkpt lat="42.92691" lon="1.01745">
        <ele>512.4</ele>
        <time>2025-07-21T07:03:56Z</time>
      </trkpt>
      <trkpt lat="42.92693" lon="1.01739">
        <ele>512.6</ele>
        <time>2025-07-21T07:03:57Z</time>
      </trkpt>
      <trkpt lat="42.92698" lon="1.01726">
        <ele>512.6</ele>
        <time>2025-07-21T07:03:59Z</time>
      </trkpt>
      <trkpt lat="42.92703" lon="1.01714">
        <ele>512.8</ele>
        <time>2025-07-21T07:04:01Z</time>
      </trkpt>
      <trkpt lat="42.92705" lon="1.01709">
        <ele>513</ele>
        <time>2025-07-21T07:04:02Z</time>
      </trkpt>
      <trkpt lat="42.92707" lon="1.01703">
        <ele>513</ele>
        <time>2025-07-21T07:04:03Z</time>
      </trkpt>
      <trkpt lat="42.92718" lon="1.01686">
        <ele>513</ele>
        <time>2025-07-21T07:04:06Z</time>
      </trkpt>
      <trkpt lat="42.9272" lon="1.01682">
        <ele>513</ele>
        <time>2025-07-21T07:04:07Z</time>
      </trkpt>
      <trkpt lat="42.9273" lon="1.01665">
        <ele>513</ele>
        <time>2025-07-21T07:04:10Z</time>
      </trkpt>
      <trkpt lat="42.92741" lon="1.01643">
        <ele>513</ele>
        <time>2025-07-21T07:04:14Z</time>
      </trkpt>
      <trkpt lat="42.92746" lon="1.01629">
        <ele>513</ele>
        <time>2025-07-21T07:04:16Z</time>
      </trkpt>
      <trkpt lat="42.92751" lon="1.01606">
        <ele>513</ele>
        <time>2025-07-21T07:04:19Z</time>
      </trkpt>
      <trkpt lat="42.92753" lon="1.01588">
        <ele>513</ele>
        <time>2025-07-21T07:04:21Z</time>
      </trkpt>
      <trkpt lat="42.92751" lon="1.01566">
        <ele>512.8</ele>
        <time>2025-07-21T07:04:24Z</time>
      </trkpt>
      <trkpt lat="42.92746" lon="1.01549">
        <ele>512.8</ele>
        <time>2025-07-21T07:04:26Z</time>
      </trkpt>
      <trkpt lat="42.92738" lon="1.01528">
        <ele>512.6</ele>
        <time>2025-07-21T07:04:29Z</time>
      </trkpt>
      <trkpt lat="42.92712" lon="1.01483">
        <ele>512.4</ele>
        <time>2025-07-21T07:04:36Z</time>
      </trkpt>
      <trkpt lat="42.92685" lon="1.01436">
        <ele>512.8</ele>
        <time>2025-07-21T07:04:44Z</time>
      </trkpt>
      <trkpt lat="42.92679" lon="1.01425">
        <ele>512.8</ele>
        <time>2025-07-21T07:04:46Z</time>
      </trkpt>
      <trkpt lat="42.92666" lon="1.01393">
        <ele>513.2</ele>
        <time>2025-07-21T07:04:51Z</time>
      </trkpt>
      <trkpt lat="42.92643" lon="1.01328">
        <ele>513.6</ele>
        <time>2025-07-21T07:05:01Z</time>
      </trkpt>
      <trkpt lat="42.92622" lon="1.01267">
        <ele>514</ele>
        <time>2025-07-21T07:05:10Z</time>
      </trkpt>
      <trkpt lat="42.92608" lon="1.01226">
        <ele>514</ele>
        <time>2025-07-21T07:05:16Z</time>
      </trkpt>
      <trkpt lat="42.92598" lon="1.0119">
        <ele>514.4</ele>
        <time>2025-07-21T07:05:21Z</time>
      </trkpt>
      <trkpt lat="42.92584" lon="1.01121">
        <ele>514.8</ele>
        <time>2025-07-21T07:05:31Z</time>
      </trkpt>
      <trkpt lat="42.92573" lon="1.01051">
        <ele>515.8</ele>
        <time>2025-07-21T07:05:41Z</time>
      </trkpt>
      <trkpt lat="42.9257" lon="1.01032">
        <ele>515.8</ele>
        <time>2025-07-21T07:05:44Z</time>
      </trkpt>
      <trkpt lat="42.92565" lon="1.00957">
        <ele>516.4</ele>
        <time>2025-07-21T07:05:55Z</time>
      </trkpt>
      <trkpt lat="42.92565" lon="1.0095">
        <ele>516.6</ele>
        <time>2025-07-21T07:05:56Z</time>
      </trkpt>
      <trkpt lat="42.9256" lon="1.00887">
        <ele>517</ele>
        <time>2025-07-21T07:06:05Z</time>
      </trkpt>
      <trkpt lat="42.92555" lon="1.00823">
        <ele>517.6</ele>
        <time>2025-07-21T07:06:14Z</time>
      </trkpt>
      <trkpt lat="42.92554" lon="1.00809">
        <ele>517.6</ele>
        <time>2025-07-21T07:06:16Z</time>
      </trkpt>
      <trkpt lat="42.92548" lon="1.00736">
        <ele>518</ele>
        <time>2025-07-21T07:06:26Z</time>
      </trkpt>
      <trkpt lat="42.92548" lon="1.00728">
        <ele>518.2</ele>
        <time>2025-07-21T07:06:27Z</time>
      </trkpt>
      <trkpt lat="42.92543" lon="1.00654">
        <ele>518.4</ele>
        <time>2025-07-21T07:06:37Z</time>
      </trkpt>
      <trkpt lat="42.92542" lon="1.00617">
        <ele>518.6</ele>
        <time>2025-07-21T07:06:42Z</time>
      </trkpt>
      <trkpt lat="42.92543" lon="1.0058">
        <ele>518.8</ele>
        <time>2025-07-21T07:06:47Z</time>
      </trkpt>
      <trkpt lat="42.92546" lon="1.00505">
        <ele>519.8</ele>
        <time>2025-07-21T07:06:58Z</time>
      </trkpt>
      <trkpt lat="42.92547" lon="1.00491">
        <ele>520</ele>
        <time>2025-07-21T07:07:00Z</time>
      </trkpt>
      <trkpt lat="42.92552" lon="1.00428">
        <ele>520.8</ele>
        <time>2025-07-21T07:07:09Z</time>
      </trkpt>
      <trkpt lat="42.92554" lon="1.00413">
        <ele>520.8</ele>
        <time>2025-07-21T07:07:11Z</time>
      </trkpt>
      <trkpt lat="42.92564" lon="1.0035">
        <ele>521.8</ele>
        <time>2025-07-21T07:07:20Z</time>
      </trkpt>
      <trkpt lat="42.92565" lon="1.00343">
        <ele>521.8</ele>
        <time>2025-07-21T07:07:21Z</time>
      </trkpt>
      <trkpt lat="42.92578" lon="1.00281">
        <ele>522.6</ele>
        <time>2025-07-21T07:07:30Z</time>
      </trkpt>
      <trkpt lat="42.92584" lon="1.00251">
        <ele>522.8</ele>
        <time>2025-07-21T07:07:34Z</time>
      </trkpt>
      <trkpt lat="42.92596" lon="1.00203">
        <ele>522.8</ele>
        <time>2025-07-21T07:07:41Z</time>
      </trkpt>
      <trkpt lat="42.92615" lon="1.00147">
        <ele>522.6</ele>
        <time>2025-07-21T07:07:49Z</time>
      </trkpt>
      <trkpt lat="42.92641" lon="1.00098">
        <ele>522.8</ele>
        <time>2025-07-21T07:07:57Z</time>
      </trkpt>
      <trkpt lat="42.92677" lon="1.00041">
        <ele>523.6</ele>
        <time>2025-07-21T07:08:07Z</time>
      </trkpt>
      <trkpt lat="42.92688" lon="1.00023">
        <ele>523.8</ele>
        <time>2025-07-21T07:08:10Z</time>
      </trkpt>
      <trkpt lat="42.92721" lon="0.99973">
        <ele>524.2</ele>
        <time>2025-07-21T07:08:19Z</time>
      </trkpt>
      <trkpt lat="42.92756" lon="0.99916">
        <ele>524.8</ele>
        <time>2025-07-21T07:08:29Z</time>
      </trkpt>
      <trkpt lat="42.9276" lon="0.9991">
        <ele>524.8</ele>
        <time>2025-07-21T07:08:30Z</time>
      </trkpt>
      <trkpt lat="42.92787" lon="0.99853">
        <ele>525.2</ele>
        <time>2025-07-21T07:08:39Z</time>
      </trkpt>
      <trkpt lat="42.92817" lon="0.9979">
        <ele>525.4</ele>
        <time>2025-07-21T07:08:49Z</time>
      </trkpt>
      <trkpt lat="42.92853" lon="0.99731">
        <ele>525.6</ele>
        <time>2025-07-21T07:08:59Z</time>
      </trkpt>
      <trkpt lat="42.92857" lon="0.99725">
        <ele>525.6</ele>
        <time>2025-07-21T07:09:00Z</time>
      </trkpt>
      <trkpt lat="42.92892" lon="0.99675">
        <ele>525.6</ele>
        <time>2025-07-21T07:09:09Z</time>
      </trkpt>
      <trkpt lat="42.92915" lon="0.99643">
        <ele>525.8</ele>
        <time>2025-07-21T07:09:15Z</time>
      </trkpt>
      <trkpt lat="42.92944" lon="0.99607">
        <ele>526</ele>
        <time>2025-07-21T07:09:22Z</time>
      </trkpt>
      <trkpt lat="42.92979" lon="0.9956">
        <ele>526.4</ele>
        <time>2025-07-21T07:09:31Z</time>
      </trkpt>
      <trkpt lat="42.93008" lon="0.99512">
        <ele>526.4</ele>
        <time>2025-07-21T07:09:39Z</time>
      </trkpt>
      <trkpt lat="42.9301" lon="0.99507">
        <ele>526.4</ele>
        <time>2025-07-21T07:09:40Z</time>
      </trkpt>
      <trkpt lat="42.93014" lon="0.99493">
        <ele>526.6</ele>
        <time>2025-07-21T07:09:42Z</time>
      </trkpt>
      <trkpt lat="42.93019" lon="0.99471">
        <ele>526.6</ele>
        <time>2025-07-21T07:09:45Z</time>
      </trkpt>
      <trkpt lat="42.93025" lon="0.99433">
        <ele>526.6</ele>
        <time>2025-07-21T07:09:50Z</time>
      </trkpt>
      <trkpt lat="42.93027" lon="0.99416">
        <ele>526.8</ele>
        <time>2025-07-21T07:09:52Z</time>
      </trkpt>
      <trkpt lat="42.93035" lon="0.99365">
        <ele>527</ele>
        <time>2025-07-21T07:09:59Z</time>
      </trkpt>
      <trkpt lat="42.93037" lon="0.99356">
        <ele>527</ele>
        <time>2025-07-21T07:10:00Z</time>
      </trkpt>
      <trkpt lat="42.93042" lon="0.99344">
        <ele>527</ele>
        <time>2025-07-21T07:10:02Z</time>
      </trkpt>
      <trkpt lat="42.93046" lon="0.99338">
        <ele>527</ele>
        <time>2025-07-21T07:10:03Z</time>
      </trkpt>
      <trkpt lat="42.93058" lon="0.99322">
        <ele>527</ele>
        <time>2025-07-21T07:10:06Z</time>
      </trkpt>
      <trkpt lat="42.93071" lon="0.99309">
        <ele>527</ele>
        <time>2025-07-21T07:10:09Z</time>
      </trkpt>
      <trkpt lat="42.93085" lon="0.99297">
        <ele>527.2</ele>
        <time>2025-07-21T07:10:12Z</time>
      </trkpt>
      <trkpt lat="42.93097" lon="0.99284">
        <ele>527.4</ele>
        <time>2025-07-21T07:10:15Z</time>
      </trkpt>
      <trkpt lat="42.93101" lon="0.9928">
        <ele>527.6</ele>
        <time>2025-07-21T07:10:16Z</time>
      </trkpt>
      <trkpt lat="42.93109" lon="0.99271">
        <ele>527.8</ele>
        <time>2025-07-21T07:10:18Z</time>
      </trkpt>
      <trkpt lat="42.93112" lon="0.99266">
        <ele>528</ele>
        <time>2025-07-21T07:10:19Z</time>
      </trkpt>
      <trkpt lat="42.9312" lon="0.99256">
        <ele>528.2</ele>
        <time>2025-07-21T07:10:21Z</time>
      </trkpt>
      <trkpt lat="42.93136" lon="0.99242">
        <ele>528.4</ele>
        <time>2025-07-21T07:10:25Z</time>
      </trkpt>
      <trkpt lat="42.9314" lon="0.99239">
        <ele>528.6</ele>
        <time>2025-07-21T07:10:26Z</time>
      </trkpt>
      <trkpt lat="42.93145" lon="0.99237">
        <ele>528.8</ele>
        <time>2025-07-21T07:10:27Z</time>
      </trkpt>
      <trkpt lat="42.93158" lon="0.99233">
        <ele>529.4</ele>
        <time>2025-07-21T07:10:30Z</time>
      </trkpt>
      <trkpt lat="42.93176" lon="0.99227">
        <ele>529.8</ele>
        <time>2025-07-21T07:10:34Z</time>
      </trkpt>
      <trkpt lat="42.93192" lon="0.99218">
        <ele>530.6</ele>
        <time>2025-07-21T07:10:38Z</time>
      </trkpt>
      <trkpt lat="42.93199" lon="0.99212">
        <ele>531</ele>
        <time>2025-07-21T07:10:40Z</time>
      </trkpt>
      <trkpt lat="42.93204" lon="0.99204">
        <ele>531.6</ele>
        <time>2025-07-21T07:10:42Z</time>
      </trkpt>
      <trkpt lat="42.93211" lon="0.99192">
        <ele>532</ele>
        <time>2025-07-21T07:10:45Z</time>
      </trkpt>
      <trkpt lat="42.93215" lon="0.99179">
        <ele>532.2</ele>
        <time>2025-07-21T07:10:48Z</time>
      </trkpt>
      <trkpt lat="42.93217" lon="0.99166">
        <ele>533.2</ele>
        <time>2025-07-21T07:10:51Z</time>
      </trkpt>
      <trkpt lat="42.93218" lon="0.99152">
        <ele>533.6</ele>
        <time>2025-07-21T07:10:54Z</time>
      </trkpt>
      <trkpt lat="42.9322" lon="0.99134">
        <ele>534.2</ele>
        <time>2025-07-21T07:10:58Z</time>
      </trkpt>
      <trkpt lat="42.93222" lon="0.99117">
        <ele>535</ele>
        <time>2025-07-21T07:11:02Z</time>
      </trkpt>
      <trkpt lat="42.93223" lon="0.99108">
        <ele>535.4</ele>
        <time>2025-07-21T07:11:04Z</time>
      </trkpt>
      <trkpt lat="42.93227" lon="0.99086">
        <ele>536</ele>
        <time>2025-07-21T07:11:09Z</time>
      </trkpt>
      <trkpt lat="42.93231" lon="0.99063">
        <ele>536.6</ele>
        <time>2025-07-21T07:11:14Z</time>
      </trkpt>
      <trkpt lat="42.93232" lon="0.99058">
        <ele>536.8</ele>
        <time>2025-07-21T07:11:15Z</time>
      </trkpt>
      <trkpt lat="42.93234" lon="0.99033">
        <ele>537.6</ele>
        <time>2025-07-21T07:11:20Z</time>
      </trkpt>
      <trkpt lat="42.93233" lon="0.99017">
        <ele>538.4</ele>
        <time>2025-07-21T07:11:23Z</time>
      </trkpt>
      <trkpt lat="42.93231" lon="0.99012">
        <ele>538.6</ele>
        <time>2025-07-21T07:11:25Z</time>
      </trkpt>
      <trkpt lat="42.93224" lon="0.98966">
        <ele>539.6</ele>
        <time>2025-07-21T07:11:33Z</time>
      </trkpt>
      <trkpt lat="42.93219" lon="0.98923">
        <ele>540.2</ele>
        <time>2025-07-21T07:11:41Z</time>
      </trkpt>
      <trkpt lat="42.93213" lon="0.98871">
        <ele>540.8</ele>
        <time>2025-07-21T07:11:50Z</time>
      </trkpt>
      <trkpt lat="42.93211" lon="0.98833">
        <ele>541</ele>
        <time>2025-07-21T07:11:56Z</time>
      </trkpt>
      <trkpt lat="42.93211" lon="0.9882">
        <ele>541</ele>
        <time>2025-07-21T07:11:58Z</time>
      </trkpt>
      <trkpt lat="42.93214" lon="0.98759">
        <ele>540.8</ele>
        <time>2025-07-21T07:12:06Z</time>
      </trkpt>
      <trkpt lat="42.93217" lon="0.98686">
        <ele>540.6</ele>
        <time>2025-07-21T07:12:16Z</time>
      </trkpt>
      <trkpt lat="42.93212" lon="0.98629">
        <ele>541</ele>
        <time>2025-07-21T07:12:24Z</time>
      </trkpt>
      <trkpt lat="42.93206" lon="0.98551">
        <ele>541.8</ele>
        <time>2025-07-21T07:12:35Z</time>
      </trkpt>
      <trkpt lat="42.93206" lon="0.98528">
        <ele>542</ele>
        <time>2025-07-21T07:12:38Z</time>
      </trkpt>
      <trkpt lat="42.93206" lon="0.98521">
        <ele>542</ele>
        <time>2025-07-21T07:12:39Z</time>
      </trkpt>
      <trkpt lat="42.93208" lon="0.98499">
        <ele>542.6</ele>
        <time>2025-07-21T07:12:43Z</time>
      </trkpt>
      <trkpt lat="42.93217" lon="0.98434">
        <ele>542.8</ele>
        <time>2025-07-21T07:12:51Z</time>
      </trkpt>
      <trkpt lat="42.93222" lon="0.98397">
        <ele>543</ele>
        <time>2025-07-21T07:12:56Z</time>
      </trkpt>
      <trkpt lat="42.93227" lon="0.98368">
        <ele>543.2</ele>
        <time>2025-07-21T07:13:00Z</time>
      </trkpt>
      <trkpt lat="42.93244" lon="0.98304">
        <ele>543.6</ele>
        <time>2025-07-21T07:13:09Z</time>
      </trkpt>
      <trkpt lat="42.9326" lon="0.98262">
        <ele>544.2</ele>
        <time>2025-07-21T07:13:16Z</time>
      </trkpt>
      <trkpt lat="42.93261" lon="0.98257">
        <ele>544.4</ele>
        <time>2025-07-21T07:13:17Z</time>
      </trkpt>
      <trkpt lat="42.93277" lon="0.98218">
        <ele>545.2</ele>
        <time>2025-07-21T07:13:24Z</time>
      </trkpt>
      <trkpt lat="42.93287" lon="0.98181">
        <ele>546.4</ele>
        <time>2025-07-21T07:13:31Z</time>
      </trkpt>
      <trkpt lat="42.93288" lon="0.98175">
        <ele>546.4</ele>
        <time>2025-07-21T07:13:32Z</time>
      </trkpt>
      <trkpt lat="42.93295" lon="0.98138">
        <ele>547.4</ele>
        <time>2025-07-21T07:13:38Z</time>
      </trkpt>
      <trkpt lat="42.93299" lon="0.98111">
        <ele>547.6</ele>
        <time>2025-07-21T07:13:42Z</time>
      </trkpt>
      <trkpt lat="42.93309" lon="0.98052">
        <ele>547.8</ele>
        <time>2025-07-21T07:13:50Z</time>
      </trkpt>
      <trkpt lat="42.93321" lon="0.97984">
        <ele>547.4</ele>
        <time>2025-07-21T07:13:58Z</time>
      </trkpt>
      <trkpt lat="42.93334" lon="0.97916">
        <ele>547</ele>
        <time>2025-07-21T07:14:06Z</time>
      </trkpt>
      <trkpt lat="42.93349" lon="0.97865">
        <ele>546.8</ele>
        <time>2025-07-21T07:14:12Z</time>
      </trkpt>
      <trkpt lat="42.93378" lon="0.97808">
        <ele>546.6</ele>
        <time>2025-07-21T07:14:20Z</time>
      </trkpt>
      <trkpt lat="42.93406" lon="0.97761">
        <ele>546.6</ele>
        <time>2025-07-21T07:14:27Z</time>
      </trkpt>
      <trkpt lat="42.93422" lon="0.97734">
        <ele>546.4</ele>
        <time>2025-07-21T07:14:31Z</time>
      </trkpt>
      <trkpt lat="42.93436" lon="0.97713">
        <ele>546.4</ele>
        <time>2025-07-21T07:14:34Z</time>
      </trkpt>
      <trkpt lat="42.93449" lon="0.97696">
        <ele>546.4</ele>
        <time>2025-07-21T07:14:37Z</time>
      </trkpt>
      <trkpt lat="42.93464" lon="0.97679">
        <ele>546.4</ele>
        <time>2025-07-21T07:14:40Z</time>
      </trkpt>
      <trkpt lat="42.93497" lon="0.97647">
        <ele>546.4</ele>
        <time>2025-07-21T07:14:47Z</time>
      </trkpt>
      <trkpt lat="42.93511" lon="0.97631">
        <ele>546.4</ele>
        <time>2025-07-21T07:14:50Z</time>
      </trkpt>
      <trkpt lat="42.93518" lon="0.97618">
        <ele>546.4</ele>
        <time>2025-07-21T07:14:52Z</time>
      </trkpt>
      <trkpt lat="42.93541" lon="0.97545">
        <ele>546</ele>
        <time>2025-07-21T07:15:01Z</time>
      </trkpt>
      <trkpt lat="42.93543" lon="0.97537">
        <ele>546</ele>
        <time>2025-07-21T07:15:02Z</time>
      </trkpt>
      <trkpt lat="42.93559" lon="0.97474">
        <ele>545.4</ele>
        <time>2025-07-21T07:15:10Z</time>
      </trkpt>
      <trkpt lat="42.93572" lon="0.97422">
        <ele>545.4</ele>
        <time>2025-07-21T07:15:17Z</time>
      </trkpt>
      <trkpt lat="42.93578" lon="0.97395">
        <ele>545.6</ele>
        <time>2025-07-21T07:15:21Z</time>
      </trkpt>
      <trkpt lat="42.93588" lon="0.97341">
        <ele>546.2</ele>
        <time>2025-07-21T07:15:29Z</time>
      </trkpt>
      <trkpt lat="42.93595" lon="0.97304">
        <ele>546</ele>
        <time>2025-07-21T07:15:35Z</time>
      </trkpt>
      <trkpt lat="42.93595" lon="0.973">
        <ele>546</ele>
        <time>2025-07-21T07:15:36Z</time>
      </trkpt>
      <trkpt lat="42.936" lon="0.97284">
        <ele>546</ele>
        <time>2025-07-21T07:15:41Z</time>
      </trkpt>
      <trkpt lat="42.93601" lon="0.97279">
        <ele>546</ele>
        <time>2025-07-21T07:15:46Z</time>
      </trkpt>
      <trkpt lat="42.93602" lon="0.97274">
        <ele>545.2</ele>
        <time>2025-07-21T07:22:06Z</time>
      </trkpt>
      <trkpt lat="42.93603" lon="0.97266">
        <ele>545.4</ele>
        <time>2025-07-21T07:22:09Z</time>
      </trkpt>
      <trkpt lat="42.93607" lon="0.97243">
        <ele>545.4</ele>
        <time>2025-07-21T07:22:16Z</time>
      </trkpt>
      <trkpt lat="42.93614" lon="0.9721">
        <ele>545.8</ele>
        <time>2025-07-21T07:22:24Z</time>
      </trkpt>
      <trkpt lat="42.93622" lon="0.97172">
        <ele>546.2</ele>
        <time>2025-07-21T07:22:31Z</time>
      </trkpt>
      <trkpt lat="42.93632" lon="0.97119">
        <ele>547</ele>
        <time>2025-07-21T07:22:40Z</time>
      </trkpt>
      <trkpt lat="42.9364" lon="0.97089">
        <ele>547.2</ele>
        <time>2025-07-21T07:22:45Z</time>
      </trkpt>
      <trkpt lat="42.93644" lon="0.97064">
        <ele>547.6</ele>
        <time>2025-07-21T07:22:49Z</time>
      </trkpt>
      <trkpt lat="42.93658" lon="0.97001">
        <ele>548.4</ele>
        <time>2025-07-21T07:22:59Z</time>
      </trkpt>
      <trkpt lat="42.93671" lon="0.96938">
        <ele>549.2</ele>
        <time>2025-07-21T07:23:09Z</time>
      </trkpt>
      <trkpt lat="42.93673" lon="0.96925">
        <ele>549.4</ele>
        <time>2025-07-21T07:23:11Z</time>
      </trkpt>
      <trkpt lat="42.93681" lon="0.96887">
        <ele>550</ele>
        <time>2025-07-21T07:23:17Z</time>
      </trkpt>
      <trkpt lat="42.93687" lon="0.96857">
        <ele>550.4</ele>
        <time>2025-07-21T07:23:22Z</time>
      </trkpt>
      <trkpt lat="42.9369" lon="0.9684">
        <ele>550.8</ele>
        <time>2025-07-21T07:23:25Z</time>
      </trkpt>
      <trkpt lat="42.93696" lon="0.96818">
        <ele>551.4</ele>
        <time>2025-07-21T07:23:29Z</time>
      </trkpt>
      <trkpt lat="42.93701" lon="0.96791">
        <ele>551.8</ele>
        <time>2025-07-21T07:23:34Z</time>
      </trkpt>
      <trkpt lat="42.93705" lon="0.96766">
        <ele>552.4</ele>
        <time>2025-07-21T07:23:39Z</time>
      </trkpt>
      <trkpt lat="42.93709" lon="0.96742">
        <ele>553.4</ele>
        <time>2025-07-21T07:23:44Z</time>
      </trkpt>
      <trkpt lat="42.93708" lon="0.96716">
        <ele>554</ele>
        <time>2025-07-21T07:23:49Z</time>
      </trkpt>
      <trkpt lat="42.93707" lon="0.96705">
        <ele>554.6</ele>
        <time>2025-07-21T07:23:51Z</time>
      </trkpt>
      <trkpt lat="42.93706" lon="0.9668">
        <ele>555.4</ele>
        <time>2025-07-21T07:23:56Z</time>
      </trkpt>
      <trkpt lat="42.93705" lon="0.96672">
        <ele>555.6</ele>
        <time>2025-07-21T07:23:58Z</time>
      </trkpt>
      <trkpt lat="42.93703" lon="0.96652">
        <ele>556.2</ele>
        <time>2025-07-21T07:24:02Z</time>
      </trkpt>
      <trkpt lat="42.937" lon="0.96624">
        <ele>556.8</ele>
        <time>2025-07-21T07:24:07Z</time>
      </trkpt>
      <trkpt lat="42.93699" lon="0.96606">
        <ele>557</ele>
        <time>2025-07-21T07:24:10Z</time>
      </trkpt>
      <trkpt lat="42.93697" lon="0.96545">
        <ele>557.4</ele>
        <time>2025-07-21T07:24:19Z</time>
      </trkpt>
      <trkpt lat="42.93691" lon="0.9649">
        <ele>557.6</ele>
        <time>2025-07-21T07:24:27Z</time>
      </trkpt>
      <trkpt lat="42.9368" lon="0.96429">
        <ele>557.8</ele>
        <time>2025-07-21T07:24:36Z</time>
      </trkpt>
      <trkpt lat="42.93679" lon="0.96422">
        <ele>557.8</ele>
        <time>2025-07-21T07:24:37Z</time>
      </trkpt>
      <trkpt lat="42.93662" lon="0.96363">
        <ele>558.4</ele>
        <time>2025-07-21T07:24:46Z</time>
      </trkpt>
      <trkpt lat="42.93642" lon="0.96325">
        <ele>558.8</ele>
        <time>2025-07-21T07:24:53Z</time>
      </trkpt>
      <trkpt lat="42.9363" lon="0.96312">
        <ele>558.8</ele>
        <time>2025-07-21T07:24:56Z</time>
      </trkpt>
      <trkpt lat="42.93623" lon="0.96302">
        <ele>559</ele>
        <time>2025-07-21T07:24:58Z</time>
      </trkpt>
      <trkpt lat="42.93622" lon="0.96296">
        <ele>559.2</ele>
        <time>2025-07-21T07:24:59Z</time>
      </trkpt>
      <trkpt lat="42.93622" lon="0.9629">
        <ele>559.2</ele>
        <time>2025-07-21T07:25:00Z</time>
      </trkpt>
      <trkpt lat="42.93628" lon="0.96281">
        <ele>559.2</ele>
        <time>2025-07-21T07:25:02Z</time>
      </trkpt>
      <trkpt lat="42.93648" lon="0.96269">
        <ele>559.4</ele>
        <time>2025-07-21T07:25:06Z</time>
      </trkpt>
      <trkpt lat="42.93659" lon="0.96263">
        <ele>559.4</ele>
        <time>2025-07-21T07:25:08Z</time>
      </trkpt>
      <trkpt lat="42.93689" lon="0.96238">
        <ele>559</ele>
        <time>2025-07-21T07:25:14Z</time>
      </trkpt>
      <trkpt lat="42.93694" lon="0.96233">
        <ele>559</ele>
        <time>2025-07-21T07:25:15Z</time>
      </trkpt>
      <trkpt lat="42.93698" lon="0.96227">
        <ele>559</ele>
        <time>2025-07-21T07:25:16Z</time>
      </trkpt>
      <trkpt lat="42.93707" lon="0.96209">
        <ele>559</ele>
        <time>2025-07-21T07:25:19Z</time>
      </trkpt>
      <trkpt lat="42.9371" lon="0.96203">
        <ele>559</ele>
        <time>2025-07-21T07:25:20Z</time>
      </trkpt>
      <trkpt lat="42.93719" lon="0.96174">
        <ele>559.6</ele>
        <time>2025-07-21T07:25:25Z</time>
      </trkpt>
      <trkpt lat="42.9372" lon="0.96167">
        <ele>559.6</ele>
        <time>2025-07-21T07:25:26Z</time>
      </trkpt>
      <trkpt lat="42.93721" lon="0.96153">
        <ele>559.8</ele>
        <time>2025-07-21T07:25:28Z</time>
      </trkpt>
      <trkpt lat="42.93721" lon="0.96147">
        <ele>560</ele>
        <time>2025-07-21T07:25:29Z</time>
      </trkpt>
      <trkpt lat="42.93721" lon="0.96127">
        <ele>560.4</ele>
        <time>2025-07-21T07:25:32Z</time>
      </trkpt>
      <trkpt lat="42.9372" lon="0.96081">
        <ele>561</ele>
        <time>2025-07-21T07:25:40Z</time>
      </trkpt>
      <trkpt lat="42.9372" lon="0.96074">
        <ele>561.2</ele>
        <time>2025-07-21T07:25:41Z</time>
      </trkpt>
      <trkpt lat="42.9372" lon="0.96063">
        <ele>561.6</ele>
        <time>2025-07-21T07:25:43Z</time>
      </trkpt>
      <trkpt lat="42.93721" lon="0.96035">
        <ele>561.8</ele>
        <time>2025-07-21T07:25:48Z</time>
      </trkpt>
      <trkpt lat="42.93721" lon="0.96029">
        <ele>562</ele>
        <time>2025-07-21T07:25:49Z</time>
      </trkpt>
      <trkpt lat="42.93722" lon="0.95996">
        <ele>562.6</ele>
        <time>2025-07-21T07:25:55Z</time>
      </trkpt>
      <trkpt lat="42.93722" lon="0.9599">
        <ele>562.6</ele>
        <time>2025-07-21T07:25:56Z</time>
      </trkpt>
      <trkpt lat="42.93721" lon="0.95979">
        <ele>563</ele>
        <time>2025-07-21T07:25:58Z</time>
      </trkpt>
      <trkpt lat="42.93722" lon="0.95963">
        <ele>563.6</ele>
        <time>2025-07-21T07:26:01Z</time>
      </trkpt>
      <trkpt lat="42.93722" lon="0.9594">
        <ele>564.2</ele>
        <time>2025-07-21T07:26:05Z</time>
      </trkpt>
      <trkpt lat="42.93723" lon="0.95929">
        <ele>564</ele>
        <time>2025-07-21T07:26:07Z</time>
      </trkpt>
      <trkpt lat="42.93724" lon="0.95919">
        <ele>564.4</ele>
        <time>2025-07-21T07:26:09Z</time>
      </trkpt>
      <trkpt lat="42.93725" lon="0.95914">
        <ele>564.6</ele>
        <time>2025-07-21T07:26:10Z</time>
      </trkpt>
      <trkpt lat="42.93726" lon="0.95892">
        <ele>565</ele>
        <time>2025-07-21T07:26:14Z</time>
      </trkpt>
      <trkpt lat="42.93727" lon="0.95887">
        <ele>565.2</ele>
        <time>2025-07-21T07:26:15Z</time>
      </trkpt>
      <trkpt lat="42.9373" lon="0.95877">
        <ele>565.4</ele>
        <time>2025-07-21T07:26:17Z</time>
      </trkpt>
      <trkpt lat="42.93731" lon="0.95873">
        <ele>565.6</ele>
        <time>2025-07-21T07:26:18Z</time>
      </trkpt>
      <trkpt lat="42.9373" lon="0.95851">
        <ele>566.4</ele>
        <time>2025-07-21T07:26:22Z</time>
      </trkpt>
      <trkpt lat="42.9373" lon="0.95841">
        <ele>566.6</ele>
        <time>2025-07-21T07:26:24Z</time>
      </trkpt>
      <trkpt lat="42.93731" lon="0.95836">
        <ele>566.8</ele>
        <time>2025-07-21T07:26:25Z</time>
      </trkpt>
      <trkpt lat="42.93731" lon="0.95814">
        <ele>567.4</ele>
        <time>2025-07-21T07:26:29Z</time>
      </trkpt>
      <trkpt lat="42.93729" lon="0.95807">
        <ele>567.4</ele>
        <time>2025-07-21T07:26:30Z</time>
      </trkpt>
      <trkpt lat="42.93726" lon="0.95775">
        <ele>568.2</ele>
        <time>2025-07-21T07:26:35Z</time>
      </trkpt>
      <trkpt lat="42.93725" lon="0.9577">
        <ele>568.4</ele>
        <time>2025-07-21T07:26:36Z</time>
      </trkpt>
      <trkpt lat="42.93723" lon="0.95749">
        <ele>569.2</ele>
        <time>2025-07-21T07:26:40Z</time>
      </trkpt>
      <trkpt lat="42.93723" lon="0.95738">
        <ele>570</ele>
        <time>2025-07-21T07:26:43Z</time>
      </trkpt>
      <trkpt lat="42.93722" lon="0.95725">
        <ele>570.2</ele>
        <time>2025-07-21T07:26:46Z</time>
      </trkpt>
      <trkpt lat="42.93716" lon="0.95701">
        <ele>570.6</ele>
        <time>2025-07-21T07:26:51Z</time>
      </trkpt>
      <trkpt lat="42.93706" lon="0.95685">
        <ele>571</ele>
        <time>2025-07-21T07:26:55Z</time>
      </trkpt>
      <trkpt lat="42.93703" lon="0.95681">
        <ele>571.2</ele>
        <time>2025-07-21T07:26:56Z</time>
      </trkpt>
      <trkpt lat="42.937" lon="0.95676">
        <ele>571.2</ele>
        <time>2025-07-21T07:26:57Z</time>
      </trkpt>
      <trkpt lat="42.93689" lon="0.95655">
        <ele>571.4</ele>
        <time>2025-07-21T07:27:01Z</time>
      </trkpt>
      <trkpt lat="42.93676" lon="0.9563">
        <ele>571.6</ele>
        <time>2025-07-21T07:27:06Z</time>
      </trkpt>
      <trkpt lat="42.93671" lon="0.95612">
        <ele>571.8</ele>
        <time>2025-07-21T07:27:09Z</time>
      </trkpt>
      <trkpt lat="42.93667" lon="0.95589">
        <ele>571.8</ele>
        <time>2025-07-21T07:27:12Z</time>
      </trkpt>
      <trkpt lat="42.93667" lon="0.95583">
        <ele>571.8</ele>
        <time>2025-07-21T07:27:13Z</time>
      </trkpt>
      <trkpt lat="42.93668" lon="0.95571">
        <ele>571.8</ele>
        <time>2025-07-21T07:27:15Z</time>
      </trkpt>
      <trkpt lat="42.93672" lon="0.95545">
        <ele>572.4</ele>
        <time>2025-07-21T07:27:19Z</time>
      </trkpt>
      <trkpt lat="42.9368" lon="0.95518">
        <ele>572.4</ele>
        <time>2025-07-21T07:27:23Z</time>
      </trkpt>
      <trkpt lat="42.93686" lon="0.95507">
        <ele>572.4</ele>
        <time>2025-07-21T07:27:25Z</time>
      </trkpt>
      <trkpt lat="42.93707" lon="0.95464">
        <ele>572.4</ele>
        <time>2025-07-21T07:27:32Z</time>
      </trkpt>
      <trkpt lat="42.93735" lon="0.95407">
        <ele>572.4</ele>
        <time>2025-07-21T07:27:41Z</time>
      </trkpt>
      <trkpt lat="42.9377" lon="0.95354">
        <ele>572.4</ele>
        <time>2025-07-21T07:27:50Z</time>
      </trkpt>
      <trkpt lat="42.9379" lon="0.95318">
        <ele>572.4</ele>
        <time>2025-07-21T07:27:56Z</time>
      </trkpt>
      <trkpt lat="42.93792" lon="0.95311">
        <ele>572.4</ele>
        <time>2025-07-21T07:27:57Z</time>
      </trkpt>
      <trkpt lat="42.93793" lon="0.95304">
        <ele>572.4</ele>
        <time>2025-07-21T07:27:58Z</time>
      </trkpt>
      <trkpt lat="42.93794" lon="0.95283">
        <ele>572.4</ele>
        <time>2025-07-21T07:28:01Z</time>
      </trkpt>
      <trkpt lat="42.93794" lon="0.95262">
        <ele>572.6</ele>
        <time>2025-07-21T07:28:04Z</time>
      </trkpt>
      <trkpt lat="42.93794" lon="0.95255">
        <ele>572.6</ele>
        <time>2025-07-21T07:28:05Z</time>
      </trkpt>
      <trkpt lat="42.93793" lon="0.95241">
        <ele>573.2</ele>
        <time>2025-07-21T07:28:07Z</time>
      </trkpt>
      <trkpt lat="42.9379" lon="0.95216">
        <ele>573.8</ele>
        <time>2025-07-21T07:28:11Z</time>
      </trkpt>
      <trkpt lat="42.93789" lon="0.9521">
        <ele>574</ele>
        <time>2025-07-21T07:28:12Z</time>
      </trkpt>
      <trkpt lat="42.93786" lon="0.95201">
        <ele>574.4</ele>
        <time>2025-07-21T07:28:14Z</time>
      </trkpt>
      <trkpt lat="42.93781" lon="0.95176">
        <ele>575.2</ele>
        <time>2025-07-21T07:28:19Z</time>
      </trkpt>
      <trkpt lat="42.93778" lon="0.95169">
        <ele>575.6</ele>
        <time>2025-07-21T07:28:21Z</time>
      </trkpt>
      <trkpt lat="42.93768" lon="0.95154">
        <ele>575.8</ele>
        <time>2025-07-21T07:28:25Z</time>
      </trkpt>
      <trkpt lat="42.93758" lon="0.95138">
        <ele>576.6</ele>
        <time>2025-07-21T07:28:29Z</time>
      </trkpt>
      <trkpt lat="42.93752" lon="0.95123">
        <ele>577.2</ele>
        <time>2025-07-21T07:28:33Z</time>
      </trkpt>
      <trkpt lat="42.9375" lon="0.95109">
        <ele>577.6</ele>
        <time>2025-07-21T07:28:36Z</time>
      </trkpt>
      <trkpt lat="42.93749" lon="0.95099">
        <ele>578</ele>
        <time>2025-07-21T07:28:38Z</time>
      </trkpt>
      <trkpt lat="42.93749" lon="0.95086">
        <ele>578.8</ele>
        <time>2025-07-21T07:28:41Z</time>
      </trkpt>
      <trkpt lat="42.93749" lon="0.95082">
        <ele>579</ele>
        <time>2025-07-21T07:28:42Z</time>
      </trkpt>
      <trkpt lat="42.93749" lon="0.95061">
        <ele>579.6</ele>
        <time>2025-07-21T07:28:47Z</time>
      </trkpt>
      <trkpt lat="42.93748" lon="0.95056">
        <ele>579.8</ele>
        <time>2025-07-21T07:28:48Z</time>
      </trkpt>
      <trkpt lat="42.93746" lon="0.95034">
        <ele>580.8</ele>
        <time>2025-07-21T07:28:53Z</time>
      </trkpt>
      <trkpt lat="42.93746" lon="0.95025">
        <ele>581.2</ele>
        <time>2025-07-21T07:28:55Z</time>
      </trkpt>
      <trkpt lat="42.93746" lon="0.95013">
        <ele>582</ele>
        <time>2025-07-21T07:28:58Z</time>
      </trkpt>
      <trkpt lat="42.93746" lon="0.94999">
        <ele>582.6</ele>
        <time>2025-07-21T07:29:02Z</time>
      </trkpt>
      <trkpt lat="42.93746" lon="0.94989">
        <ele>583</ele>
        <time>2025-07-21T07:29:05Z</time>
      </trkpt>
      <trkpt lat="42.93744" lon="0.94975">
        <ele>583.8</ele>
        <time>2025-07-21T07:29:09Z</time>
      </trkpt>
      <trkpt lat="42.93743" lon="0.94964">
        <ele>584.2</ele>
        <time>2025-07-21T07:29:12Z</time>
      </trkpt>
      <trkpt lat="42.93742" lon="0.94955">
        <ele>584.8</ele>
        <time>2025-07-21T07:29:15Z</time>
      </trkpt>
      <trkpt lat="42.93742" lon="0.94942">
        <ele>585.4</ele>
        <time>2025-07-21T07:29:19Z</time>
      </trkpt>
      <trkpt lat="42.93741" lon="0.94929">
        <ele>586.2</ele>
        <time>2025-07-21T07:29:23Z</time>
      </trkpt>
      <trkpt lat="42.93741" lon="0.9492">
        <ele>586.6</ele>
        <time>2025-07-21T07:29:26Z</time>
      </trkpt>
      <trkpt lat="42.93739" lon="0.9491">
        <ele>587.4</ele>
        <time>2025-07-21T07:29:29Z</time>
      </trkpt>
      <trkpt lat="42.93738" lon="0.94902">
        <ele>587.8</ele>
        <time>2025-07-21T07:29:31Z</time>
      </trkpt>
      <trkpt lat="42.93734" lon="0.94884">
        <ele>588.6</ele>
        <time>2025-07-21T07:29:36Z</time>
      </trkpt>
      <trkpt lat="42.93732" lon="0.94864">
        <ele>589.6</ele>
        <time>2025-07-21T07:29:42Z</time>
      </trkpt>
      <trkpt lat="42.93731" lon="0.94861">
        <ele>590</ele>
        <time>2025-07-21T07:29:43Z</time>
      </trkpt>
      <trkpt lat="42.93731" lon="0.94857">
        <ele>590</ele>
        <time>2025-07-21T07:29:44Z</time>
      </trkpt>
      <trkpt lat="42.93731" lon="0.94852">
        <ele>590.4</ele>
        <time>2025-07-21T07:29:46Z</time>
      </trkpt>
      <trkpt lat="42.9373" lon="0.94849">
        <ele>590.6</ele>
        <time>2025-07-21T07:29:47Z</time>
      </trkpt>
      <trkpt lat="42.93729" lon="0.94846">
        <ele>591</ele>
        <time>2025-07-21T07:29:48Z</time>
      </trkpt>
      <trkpt lat="42.93725" lon="0.94823">
        <ele>592</ele>
        <time>2025-07-21T07:29:55Z</time>
      </trkpt>
      <trkpt lat="42.93725" lon="0.9482">
        <ele>592.2</ele>
        <time>2025-07-21T07:29:56Z</time>
      </trkpt>
      <trkpt lat="42.93722" lon="0.94813">
        <ele>592.4</ele>
        <time>2025-07-21T07:29:58Z</time>
      </trkpt>
      <trkpt lat="42.93718" lon="0.94803">
        <ele>592.8</ele>
        <time>2025-07-21T07:30:01Z</time>
      </trkpt>
      <trkpt lat="42.93714" lon="0.94798">
        <ele>593.4</ele>
        <time>2025-07-21T07:30:03Z</time>
      </trkpt>
      <trkpt lat="42.93701" lon="0.94788">
        <ele>594</ele>
        <time>2025-07-21T07:30:07Z</time>
      </trkpt>
      <trkpt lat="42.93697" lon="0.94781">
        <ele>594.6</ele>
        <time>2025-07-21T07:30:09Z</time>
      </trkpt>
      <trkpt lat="42.9369" lon="0.94774">
        <ele>595.2</ele>
        <time>2025-07-21T07:30:11Z</time>
      </trkpt>
      <trkpt lat="42.93681" lon="0.94759">
        <ele>596</ele>
        <time>2025-07-21T07:30:16Z</time>
      </trkpt>
      <trkpt lat="42.93679" lon="0.94758">
        <ele>596.2</ele>
        <time>2025-07-21T07:30:17Z</time>
      </trkpt>
      <trkpt lat="42.93669" lon="0.9475">
        <ele>596.8</ele>
        <time>2025-07-21T07:30:21Z</time>
      </trkpt>
      <trkpt lat="42.93661" lon="0.94743">
        <ele>597.2</ele>
        <time>2025-07-21T07:30:24Z</time>
      </trkpt>
      <trkpt lat="42.93643" lon="0.94729">
        <ele>598.2</ele>
        <time>2025-07-21T07:30:31Z</time>
      </trkpt>
      <trkpt lat="42.9364" lon="0.94727">
        <ele>598.2</ele>
        <time>2025-07-21T07:30:32Z</time>
      </trkpt>
      <trkpt lat="42.93627" lon="0.94716">
        <ele>599.4</ele>
        <time>2025-07-21T07:30:38Z</time>
      </trkpt>
      <trkpt lat="42.93622" lon="0.94713">
        <ele>599.8</ele>
        <time>2025-07-21T07:30:40Z</time>
      </trkpt>
      <trkpt lat="42.9361" lon="0.94704">
        <ele>600.4</ele>
        <time>2025-07-21T07:30:45Z</time>
      </trkpt>
      <trkpt lat="42.93595" lon="0.9469">
        <ele>601.4</ele>
        <time>2025-07-21T07:30:51Z</time>
      </trkpt>
      <trkpt lat="42.93593" lon="0.94688">
        <ele>601.6</ele>
        <time>2025-07-21T07:30:52Z</time>
      </trkpt>
      <trkpt lat="42.93577" lon="0.94667">
        <ele>602.6</ele>
        <time>2025-07-21T07:31:00Z</time>
      </trkpt>
      <trkpt lat="42.93574" lon="0.9466">
        <ele>602.8</ele>
        <time>2025-07-21T07:31:02Z</time>
      </trkpt>
      <trkpt lat="42.93563" lon="0.94641">
        <ele>603.8</ele>
        <time>2025-07-21T07:31:08Z</time>
      </trkpt>
      <trkpt lat="42.9356" lon="0.94634">
        <ele>604.2</ele>
        <time>2025-07-21T07:31:10Z</time>
      </trkpt>
      <trkpt lat="42.9355" lon="0.94609">
        <ele>605</ele>
        <time>2025-07-21T07:31:17Z</time>
      </trkpt>
      <trkpt lat="42.93543" lon="0.94582">
        <ele>606.2</ele>
        <time>2025-07-21T07:31:24Z</time>
      </trkpt>
      <trkpt lat="42.93542" lon="0.94578">
        <ele>606.2</ele>
        <time>2025-07-21T07:31:25Z</time>
      </trkpt>
      <trkpt lat="42.93539" lon="0.94554">
        <ele>607.2</ele>
        <time>2025-07-21T07:31:31Z</time>
      </trkpt>
      <trkpt lat="42.93537" lon="0.94537">
        <ele>607.8</ele>
        <time>2025-07-21T07:31:35Z</time>
      </trkpt>
      <trkpt lat="42.93536" lon="0.94521">
        <ele>608.4</ele>
        <time>2025-07-21T07:31:39Z</time>
      </trkpt>
      <trkpt lat="42.93535" lon="0.9451">
        <ele>608.8</ele>
        <time>2025-07-21T07:31:42Z</time>
      </trkpt>
      <trkpt lat="42.93532" lon="0.94488">
        <ele>609.6</ele>
        <time>2025-07-21T07:31:47Z</time>
      </trkpt>
      <trkpt lat="42.93529" lon="0.94466">
        <ele>610.2</ele>
        <time>2025-07-21T07:31:52Z</time>
      </trkpt>
      <trkpt lat="42.93526" lon="0.94449">
        <ele>610.6</ele>
        <time>2025-07-21T07:31:56Z</time>
      </trkpt>
      <trkpt lat="42.93525" lon="0.94432">
        <ele>611.2</ele>
        <time>2025-07-21T07:32:00Z</time>
      </trkpt>
      <trkpt lat="42.93525" lon="0.94415">
        <ele>611.8</ele>
        <time>2025-07-21T07:32:04Z</time>
      </trkpt>
      <trkpt lat="42.93528" lon="0.94399">
        <ele>612.2</ele>
        <time>2025-07-21T07:32:08Z</time>
      </trkpt>
      <trkpt lat="42.93529" lon="0.94396">
        <ele>612.4</ele>
        <time>2025-07-21T07:32:09Z</time>
      </trkpt>
      <trkpt lat="42.93532" lon="0.94389">
        <ele>612.8</ele>
        <time>2025-07-21T07:32:11Z</time>
      </trkpt>
      <trkpt lat="42.93533" lon="0.94386">
        <ele>613</ele>
        <time>2025-07-21T07:32:12Z</time>
      </trkpt>
      <trkpt lat="42.93539" lon="0.94367">
        <ele>613.8</ele>
        <time>2025-07-21T07:32:17Z</time>
      </trkpt>
      <trkpt lat="42.93544" lon="0.94356">
        <ele>614.4</ele>
        <time>2025-07-21T07:32:20Z</time>
      </trkpt>
      <trkpt lat="42.93555" lon="0.94336">
        <ele>615</ele>
        <time>2025-07-21T07:32:26Z</time>
      </trkpt>
      <trkpt lat="42.93567" lon="0.94309">
        <ele>615.8</ele>
        <time>2025-07-21T07:32:32Z</time>
      </trkpt>
      <trkpt lat="42.93575" lon="0.94291">
        <ele>615.8</ele>
        <time>2025-07-21T07:32:36Z</time>
      </trkpt>
      <trkpt lat="42.93587" lon="0.94266">
        <ele>616.4</ele>
        <time>2025-07-21T07:32:42Z</time>
      </trkpt>
      <trkpt lat="42.93592" lon="0.94254">
        <ele>616.8</ele>
        <time>2025-07-21T07:32:45Z</time>
      </trkpt>
      <trkpt lat="42.93601" lon="0.94232">
        <ele>617.4</ele>
        <time>2025-07-21T07:32:50Z</time>
      </trkpt>
      <trkpt lat="42.9361" lon="0.94211">
        <ele>617.8</ele>
        <time>2025-07-21T07:32:55Z</time>
      </trkpt>
      <trkpt lat="42.93618" lon="0.94193">
        <ele>618.2</ele>
        <time>2025-07-21T07:32:59Z</time>
      </trkpt>
      <trkpt lat="42.93622" lon="0.94169">
        <ele>618.8</ele>
        <time>2025-07-21T07:33:04Z</time>
      </trkpt>
      <trkpt lat="42.93622" lon="0.94163">
        <ele>619</ele>
        <time>2025-07-21T07:33:05Z</time>
      </trkpt>
      <trkpt lat="42.93613" lon="0.94139">
        <ele>619.6</ele>
        <time>2025-07-21T07:33:10Z</time>
      </trkpt>
      <trkpt lat="42.93602" lon="0.94133">
        <ele>620</ele>
        <time>2025-07-21T07:33:13Z</time>
      </trkpt>
      <trkpt lat="42.93598" lon="0.94132">
        <ele>620</ele>
        <time>2025-07-21T07:33:14Z</time>
      </trkpt>
      <trkpt lat="42.93566" lon="0.94136">
        <ele>621</ele>
        <time>2025-07-21T07:33:22Z</time>
      </trkpt>
      <trkpt lat="42.93546" lon="0.94132">
        <ele>622</ele>
        <time>2025-07-21T07:33:28Z</time>
      </trkpt>
      <trkpt lat="42.93543" lon="0.94132">
        <ele>622.2</ele>
        <time>2025-07-21T07:33:29Z</time>
      </trkpt>
      <trkpt lat="42.93528" lon="0.94131">
        <ele>623</ele>
        <time>2025-07-21T07:33:34Z</time>
      </trkpt>
      <trkpt lat="42.93519" lon="0.94131">
        <ele>623.6</ele>
        <time>2025-07-21T07:33:37Z</time>
      </trkpt>
      <trkpt lat="42.93507" lon="0.9413">
        <ele>624.4</ele>
        <time>2025-07-21T07:33:41Z</time>
      </trkpt>
      <trkpt lat="42.93496" lon="0.94125">
        <ele>624.8</ele>
        <time>2025-07-21T07:33:45Z</time>
      </trkpt>
      <trkpt lat="42.93488" lon="0.94118">
        <ele>625.6</ele>
        <time>2025-07-21T07:33:48Z</time>
      </trkpt>
      <trkpt lat="42.93482" lon="0.94108">
        <ele>626.4</ele>
        <time>2025-07-21T07:33:51Z</time>
      </trkpt>
      <trkpt lat="42.93478" lon="0.94101">
        <ele>626.8</ele>
        <time>2025-07-21T07:33:53Z</time>
      </trkpt>
      <trkpt lat="42.93468" lon="0.94082">
        <ele>627.6</ele>
        <time>2025-07-21T07:33:58Z</time>
      </trkpt>
      <trkpt lat="42.93465" lon="0.94074">
        <ele>628</ele>
        <time>2025-07-21T07:34:00Z</time>
      </trkpt>
      <trkpt lat="42.93457" lon="0.94053">
        <ele>629</ele>
        <time>2025-07-21T07:34:06Z</time>
      </trkpt>
      <trkpt lat="42.93454" lon="0.94046">
        <ele>629.4</ele>
        <time>2025-07-21T07:34:08Z</time>
      </trkpt>
      <trkpt lat="42.93449" lon="0.94033">
        <ele>630.2</ele>
        <time>2025-07-21T07:34:12Z</time>
      </trkpt>
      <trkpt lat="42.93443" lon="0.94016">
        <ele>631.2</ele>
        <time>2025-07-21T07:34:17Z</time>
      </trkpt>
      <trkpt lat="42.93442" lon="0.94013">
        <ele>631.2</ele>
        <time>2025-07-21T07:34:18Z</time>
      </trkpt>
      <trkpt lat="42.93437" lon="0.93992">
        <ele>632.4</ele>
        <time>2025-07-21T07:34:24Z</time>
      </trkpt>
      <trkpt lat="42.93435" lon="0.93981">
        <ele>632.8</ele>
        <time>2025-07-21T07:34:27Z</time>
      </trkpt>
      <trkpt lat="42.93433" lon="0.9397">
        <ele>633.4</ele>
        <time>2025-07-21T07:34:30Z</time>
      </trkpt>
      <trkpt lat="42.93432" lon="0.93956">
        <ele>634.2</ele>
        <time>2025-07-21T07:34:34Z</time>
      </trkpt>
      <trkpt lat="42.93431" lon="0.93944">
        <ele>634.6</ele>
        <time>2025-07-21T07:34:37Z</time>
      </trkpt>
      <trkpt lat="42.93429" lon="0.93929">
        <ele>635.2</ele>
        <time>2025-07-21T07:34:41Z</time>
      </trkpt>
      <trkpt lat="42.93428" lon="0.93921">
        <ele>635.6</ele>
        <time>2025-07-21T07:34:43Z</time>
      </trkpt>
      <trkpt lat="42.93426" lon="0.93898">
        <ele>636.6</ele>
        <time>2025-07-21T07:34:49Z</time>
      </trkpt>
      <trkpt lat="42.93426" lon="0.9389">
        <ele>636.8</ele>
        <time>2025-07-21T07:34:51Z</time>
      </trkpt>
      <trkpt lat="42.93424" lon="0.93863">
        <ele>637.8</ele>
        <time>2025-07-21T07:34:58Z</time>
      </trkpt>
      <trkpt lat="42.93424" lon="0.9386">
        <ele>637.8</ele>
        <time>2025-07-21T07:34:59Z</time>
      </trkpt>
      <trkpt lat="42.93422" lon="0.93832">
        <ele>639</ele>
        <time>2025-07-21T07:35:06Z</time>
      </trkpt>
      <trkpt lat="42.93422" lon="0.93828">
        <ele>639</ele>
        <time>2025-07-21T07:35:07Z</time>
      </trkpt>
      <trkpt lat="42.9342" lon="0.93805">
        <ele>640</ele>
        <time>2025-07-21T07:35:13Z</time>
      </trkpt>
      <trkpt lat="42.9342" lon="0.93792">
        <ele>640.4</ele>
        <time>2025-07-21T07:35:16Z</time>
      </trkpt>
      <trkpt lat="42.93418" lon="0.9377">
        <ele>641.2</ele>
        <time>2025-07-21T07:35:22Z</time>
      </trkpt>
      <trkpt lat="42.93419" lon="0.93758">
        <ele>641.8</ele>
        <time>2025-07-21T07:35:25Z</time>
      </trkpt>
      <trkpt lat="42.93417" lon="0.93736">
        <ele>642.6</ele>
        <time>2025-07-21T07:35:30Z</time>
      </trkpt>
      <trkpt lat="42.93417" lon="0.93732">
        <ele>642.6</ele>
        <time>2025-07-21T07:35:31Z</time>
      </trkpt>
      <trkpt lat="42.93412" lon="0.93698">
        <ele>643.4</ele>
        <time>2025-07-21T07:35:39Z</time>
      </trkpt>
      <trkpt lat="42.93409" lon="0.93689">
        <ele>643.6</ele>
        <time>2025-07-21T07:35:41Z</time>
      </trkpt>
      <trkpt lat="42.93397" lon="0.93668">
        <ele>644</ele>
        <time>2025-07-21T07:35:46Z</time>
      </trkpt>
      <trkpt lat="42.93378" lon="0.93632">
        <ele>643.8</ele>
        <time>2025-07-21T07:35:53Z</time>
      </trkpt>
      <trkpt lat="42.93359" lon="0.93594">
        <ele>643.2</ele>
        <time>2025-07-21T07:35:59Z</time>
      </trkpt>
      <trkpt lat="42.93334" lon="0.93547">
        <ele>642.6</ele>
        <time>2025-07-21T07:36:06Z</time>
      </trkpt>
      <trkpt lat="42.93318" lon="0.9352">
        <ele>642</ele>
        <time>2025-07-21T07:36:10Z</time>
      </trkpt>
      <trkpt lat="42.93308" lon="0.93501">
        <ele>641.8</ele>
        <time>2025-07-21T07:36:13Z</time>
      </trkpt>
      <trkpt lat="42.93289" lon="0.93465">
        <ele>641.4</ele>
        <time>2025-07-21T07:36:18Z</time>
      </trkpt>
      <trkpt lat="42.93286" lon="0.93458">
        <ele>641.4</ele>
        <time>2025-07-21T07:36:19Z</time>
      </trkpt>
      <trkpt lat="42.93275" lon="0.93436">
        <ele>641.2</ele>
        <time>2025-07-21T07:36:22Z</time>
      </trkpt>
      <trkpt lat="42.93243" lon="0.93377">
        <ele>640.6</ele>
        <time>2025-07-21T07:36:30Z</time>
      </trkpt>
      <trkpt lat="42.93235" lon="0.93362">
        <ele>640.4</ele>
        <time>2025-07-21T07:36:32Z</time>
      </trkpt>
      <trkpt lat="42.93218" lon="0.93332">
        <ele>640</ele>
        <time>2025-07-21T07:36:36Z</time>
      </trkpt>
      <trkpt lat="42.93194" lon="0.93305">
        <ele>639.8</ele>
        <time>2025-07-21T07:36:41Z</time>
      </trkpt>
      <trkpt lat="42.93176" lon="0.93285">
        <ele>639.8</ele>
        <time>2025-07-21T07:36:45Z</time>
      </trkpt>
      <trkpt lat="42.93166" lon="0.93278">
        <ele>639.8</ele>
        <time>2025-07-21T07:36:47Z</time>
      </trkpt>
      <trkpt lat="42.93141" lon="0.93251">
        <ele>640.2</ele>
        <time>2025-07-21T07:36:53Z</time>
      </trkpt>
      <trkpt lat="42.9311" lon="0.93215">
        <ele>641</ele>
        <time>2025-07-21T07:37:01Z</time>
      </trkpt>
      <trkpt lat="42.93092" lon="0.93191">
        <ele>641.4</ele>
        <time>2025-07-21T07:37:06Z</time>
      </trkpt>
      <trkpt lat="42.93082" lon="0.93174">
        <ele>641.6</ele>
        <time>2025-07-21T07:37:09Z</time>
      </trkpt>
      <trkpt lat="42.93057" lon="0.93131">
        <ele>641.8</ele>
        <time>2025-07-21T07:37:16Z</time>
      </trkpt>
      <trkpt lat="42.9303" lon="0.93085">
        <ele>641.4</ele>
        <time>2025-07-21T07:37:23Z</time>
      </trkpt>
      <trkpt lat="42.93026" lon="0.93079">
        <ele>641.4</ele>
        <time>2025-07-21T07:37:24Z</time>
      </trkpt>
      <trkpt lat="42.93012" lon="0.93053">
        <ele>641</ele>
        <time>2025-07-21T07:37:28Z</time>
      </trkpt>
      <trkpt lat="42.92991" lon="0.93018">
        <ele>640.4</ele>
        <time>2025-07-21T07:37:32Z</time>
      </trkpt>
      <trkpt lat="42.92987" lon="0.93008">
        <ele>640.2</ele>
        <time>2025-07-21T07:37:33Z</time>
      </trkpt>
      <trkpt lat="42.92984" lon="0.92998">
        <ele>640</ele>
        <time>2025-07-21T07:37:34Z</time>
      </trkpt>
      <trkpt lat="42.9298" lon="0.92975">
        <ele>639.6</ele>
        <time>2025-07-21T07:37:36Z</time>
      </trkpt>
      <trkpt lat="42.9298" lon="0.92952">
        <ele>639.2</ele>
        <time>2025-07-21T07:37:38Z</time>
      </trkpt>
      <trkpt lat="42.92985" lon="0.92929">
        <ele>638.6</ele>
        <time>2025-07-21T07:37:40Z</time>
      </trkpt>
      <trkpt lat="42.9299" lon="0.92919">
        <ele>638.2</ele>
        <time>2025-07-21T07:37:41Z</time>
      </trkpt>
      <trkpt lat="42.92996" lon="0.92909">
        <ele>637.8</ele>
        <time>2025-07-21T07:37:42Z</time>
      </trkpt>
      <trkpt lat="42.93003" lon="0.92901">
        <ele>637.8</ele>
        <time>2025-07-21T07:37:43Z</time>
      </trkpt>
      <trkpt lat="42.93011" lon="0.92895">
        <ele>637.4</ele>
        <time>2025-07-21T07:37:44Z</time>
      </trkpt>
      <trkpt lat="42.93017" lon="0.9289">
        <ele>637.2</ele>
        <time>2025-07-21T07:37:45Z</time>
      </trkpt>
      <trkpt lat="42.93036" lon="0.92879">
        <ele>636.2</ele>
        <time>2025-07-21T07:37:47Z</time>
      </trkpt>
      <trkpt lat="42.93062" lon="0.92867">
        <ele>635.4</ele>
        <time>2025-07-21T07:37:50Z</time>
      </trkpt>
      <trkpt lat="42.93071" lon="0.92865">
        <ele>634.8</ele>
        <time>2025-07-21T07:37:51Z</time>
      </trkpt>
      <trkpt lat="42.93081" lon="0.92864">
        <ele>634.6</ele>
        <time>2025-07-21T07:37:52Z</time>
      </trkpt>
      <trkpt lat="42.931" lon="0.92862">
        <ele>633.6</ele>
        <time>2025-07-21T07:37:54Z</time>
      </trkpt>
      <trkpt lat="42.9311" lon="0.92859">
        <ele>633.2</ele>
        <time>2025-07-21T07:37:55Z</time>
      </trkpt>
      <trkpt lat="42.93119" lon="0.92854">
        <ele>632.6</ele>
        <time>2025-07-21T07:37:56Z</time>
      </trkpt>
      <trkpt lat="42.93128" lon="0.92847">
        <ele>632.2</ele>
        <time>2025-07-21T07:37:57Z</time>
      </trkpt>
      <trkpt lat="42.93145" lon="0.92832">
        <ele>631.2</ele>
        <time>2025-07-21T07:37:59Z</time>
      </trkpt>
      <trkpt lat="42.93153" lon="0.92824">
        <ele>630.8</ele>
        <time>2025-07-21T07:38:00Z</time>
      </trkpt>
      <trkpt lat="42.9317" lon="0.9281">
        <ele>630</ele>
        <time>2025-07-21T07:38:02Z</time>
      </trkpt>
      <trkpt lat="42.93194" lon="0.92786">
        <ele>628.6</ele>
        <time>2025-07-21T07:38:05Z</time>
      </trkpt>
      <trkpt lat="42.932" lon="0.92776">
        <ele>628.2</ele>
        <time>2025-07-21T07:38:06Z</time>
      </trkpt>
      <trkpt lat="42.93205" lon="0.92764">
        <ele>628</ele>
        <time>2025-07-21T07:38:07Z</time>
      </trkpt>
      <trkpt lat="42.93206" lon="0.9275">
        <ele>627.4</ele>
        <time>2025-07-21T07:38:08Z</time>
      </trkpt>
      <trkpt lat="42.93202" lon="0.92726">
        <ele>626.6</ele>
        <time>2025-07-21T07:38:10Z</time>
      </trkpt>
      <trkpt lat="42.93197" lon="0.92715">
        <ele>625.8</ele>
        <time>2025-07-21T07:38:11Z</time>
      </trkpt>
      <trkpt lat="42.93192" lon="0.92704">
        <ele>625.4</ele>
        <time>2025-07-21T07:38:12Z</time>
      </trkpt>
      <trkpt lat="42.93186" lon="0.92678">
        <ele>624.8</ele>
        <time>2025-07-21T07:38:14Z</time>
      </trkpt>
      <trkpt lat="42.93185" lon="0.92666">
        <ele>624.6</ele>
        <time>2025-07-21T07:38:15Z</time>
      </trkpt>
      <trkpt lat="42.93187" lon="0.92627">
        <ele>623.6</ele>
        <time>2025-07-21T07:38:18Z</time>
      </trkpt>
      <trkpt lat="42.93188" lon="0.92617">
        <ele>623.4</ele>
        <time>2025-07-21T07:38:19Z</time>
      </trkpt>
      <trkpt lat="42.93193" lon="0.92564">
        <ele>622</ele>
        <time>2025-07-21T07:38:23Z</time>
      </trkpt>
      <trkpt lat="42.93195" lon="0.92537">
        <ele>621.4</ele>
        <time>2025-07-21T07:38:25Z</time>
      </trkpt>
      <trkpt lat="42.93197" lon="0.92508">
        <ele>620.6</ele>
        <time>2025-07-21T07:38:27Z</time>
      </trkpt>
      <trkpt lat="42.93212" lon="0.92451">
        <ele>619.6</ele>
        <time>2025-07-21T07:38:32Z</time>
      </trkpt>
      <trkpt lat="42.93214" lon="0.92439">
        <ele>619.6</ele>
        <time>2025-07-21T07:38:33Z</time>
      </trkpt>
      <trkpt lat="42.93226" lon="0.92378">
        <ele>619.2</ele>
        <time>2025-07-21T07:38:39Z</time>
      </trkpt>
      <trkpt lat="42.9324" lon="0.92322">
        <ele>619.2</ele>
        <time>2025-07-21T07:38:45Z</time>
      </trkpt>
      <trkpt lat="42.93255" lon="0.92259">
        <ele>619.4</ele>
        <time>2025-07-21T07:38:52Z</time>
      </trkpt>
      <trkpt lat="42.93266" lon="0.92194">
        <ele>620</ele>
        <time>2025-07-21T07:39:00Z</time>
      </trkpt>
      <trkpt lat="42.93269" lon="0.9217">
        <ele>620.6</ele>
        <time>2025-07-21T07:39:03Z</time>
      </trkpt>
      <trkpt lat="42.9327" lon="0.92129">
        <ele>621.2</ele>
        <time>2025-07-21T07:39:08Z</time>
      </trkpt>
      <trkpt lat="42.93269" lon="0.92089">
        <ele>621.6</ele>
        <time>2025-07-21T07:39:13Z</time>
      </trkpt>
      <trkpt lat="42.93268" lon="0.92068">
        <ele>622</ele>
        <time>2025-07-21T07:39:16Z</time>
      </trkpt>
      <trkpt lat="42.93266" lon="0.9204">
        <ele>622.8</ele>
        <time>2025-07-21T07:39:20Z</time>
      </trkpt>
      <trkpt lat="42.93265" lon="0.92027">
        <ele>623</ele>
        <time>2025-07-21T07:39:22Z</time>
      </trkpt>
      <trkpt lat="42.93264" lon="0.92021">
        <ele>623</ele>
        <time>2025-07-21T07:39:23Z</time>
      </trkpt>
      <trkpt lat="42.93258" lon="0.91995">
        <ele>623.8</ele>
        <time>2025-07-21T07:39:27Z</time>
      </trkpt>
      <trkpt lat="42.93253" lon="0.91979">
        <ele>624</ele>
        <time>2025-07-21T07:39:29Z</time>
      </trkpt>
      <trkpt lat="42.93239" lon="0.91929">
        <ele>623.6</ele>
        <time>2025-07-21T07:39:35Z</time>
      </trkpt>
      <trkpt lat="42.93226" lon="0.91868">
        <ele>623</ele>
        <time>2025-07-21T07:39:42Z</time>
      </trkpt>
      <trkpt lat="42.93216" lon="0.91805">
        <ele>622.8</ele>
        <time>2025-07-21T07:39:49Z</time>
      </trkpt>
      <trkpt lat="42.93213" lon="0.91752">
        <ele>623.2</ele>
        <time>2025-07-21T07:39:55Z</time>
      </trkpt>
      <trkpt lat="42.93217" lon="0.917">
        <ele>623.4</ele>
        <time>2025-07-21T07:40:01Z</time>
      </trkpt>
      <trkpt lat="42.93217" lon="0.91694">
        <ele>623.4</ele>
        <time>2025-07-21T07:40:02Z</time>
      </trkpt>
      <trkpt lat="42.93214" lon="0.91667">
        <ele>623.8</ele>
        <time>2025-07-21T07:40:05Z</time>
      </trkpt>
      <trkpt lat="42.93213" lon="0.9166">
        <ele>623.8</ele>
        <time>2025-07-21T07:40:06Z</time>
      </trkpt>
      <trkpt lat="42.93206" lon="0.91645">
        <ele>623.8</ele>
        <time>2025-07-21T07:40:08Z</time>
      </trkpt>
      <trkpt lat="42.93194" lon="0.91627">
        <ele>624</ele>
        <time>2025-07-21T07:40:11Z</time>
      </trkpt>
      <trkpt lat="42.93184" lon="0.91617">
        <ele>624.2</ele>
        <time>2025-07-21T07:40:13Z</time>
      </trkpt>
      <trkpt lat="42.93173" lon="0.91609">
        <ele>624.2</ele>
        <time>2025-07-21T07:40:15Z</time>
      </trkpt>
      <trkpt lat="42.93156" lon="0.91601">
        <ele>624.4</ele>
        <time>2025-07-21T07:40:18Z</time>
      </trkpt>
      <trkpt lat="42.93113" lon="0.91585">
        <ele>625.2</ele>
        <time>2025-07-21T07:40:26Z</time>
      </trkpt>
      <trkpt lat="42.93103" lon="0.91582">
        <ele>625.4</ele>
        <time>2025-07-21T07:40:28Z</time>
      </trkpt>
      <trkpt lat="42.93071" lon="0.91577">
        <ele>626.2</ele>
        <time>2025-07-21T07:40:34Z</time>
      </trkpt>
      <trkpt lat="42.93051" lon="0.91574">
        <ele>626.6</ele>
        <time>2025-07-21T07:40:38Z</time>
      </trkpt>
      <trkpt lat="42.93025" lon="0.91568">
        <ele>627.2</ele>
        <time>2025-07-21T07:40:43Z</time>
      </trkpt>
      <trkpt lat="42.93007" lon="0.9156">
        <ele>627.6</ele>
        <time>2025-07-21T07:40:47Z</time>
      </trkpt>
      <trkpt lat="42.92991" lon="0.91548">
        <ele>628</ele>
        <time>2025-07-21T07:40:51Z</time>
      </trkpt>
      <trkpt lat="42.92982" lon="0.91538">
        <ele>628.6</ele>
        <time>2025-07-21T07:40:54Z</time>
      </trkpt>
      <trkpt lat="42.92977" lon="0.91532">
        <ele>628.8</ele>
        <time>2025-07-21T07:40:56Z</time>
      </trkpt>
      <trkpt lat="42.92968" lon="0.91519">
        <ele>629.6</ele>
        <time>2025-07-21T07:41:00Z</time>
      </trkpt>
      <trkpt lat="42.92963" lon="0.9151">
        <ele>630.2</ele>
        <time>2025-07-21T07:41:03Z</time>
      </trkpt>
      <trkpt lat="42.92958" lon="0.91503">
        <ele>630.8</ele>
        <time>2025-07-21T07:41:06Z</time>
      </trkpt>
      <trkpt lat="42.92955" lon="0.91499">
        <ele>631.2</ele>
        <time>2025-07-21T07:41:08Z</time>
      </trkpt>
      <trkpt lat="42.92952" lon="0.91495">
        <ele>631.8</ele>
        <time>2025-07-21T07:41:10Z</time>
      </trkpt>
      <trkpt lat="42.9295" lon="0.9149">
        <ele>632.2</ele>
        <time>2025-07-21T07:41:12Z</time>
      </trkpt>
      <trkpt lat="42.92949" lon="0.91488">
        <ele>632.4</ele>
        <time>2025-07-21T07:41:13Z</time>
      </trkpt>
      <trkpt lat="42.92946" lon="0.91484">
        <ele>632.8</ele>
        <time>2025-07-21T07:41:15Z</time>
      </trkpt>
      <trkpt lat="42.92942" lon="0.91478">
        <ele>633.4</ele>
        <time>2025-07-21T07:41:18Z</time>
      </trkpt>
      <trkpt lat="42.9294" lon="0.91471">
        <ele>634</ele>
        <time>2025-07-21T07:41:21Z</time>
      </trkpt>
      <trkpt lat="42.92937" lon="0.91466">
        <ele>634.4</ele>
        <time>2025-07-21T07:41:23Z</time>
      </trkpt>
      <trkpt lat="42.92935" lon="0.91459">
        <ele>635</ele>
        <time>2025-07-21T07:41:26Z</time>
      </trkpt>
      <trkpt lat="42.92933" lon="0.91451">
        <ele>635.8</ele>
        <time>2025-07-21T07:41:29Z</time>
      </trkpt>
      <trkpt lat="42.92932" lon="0.91449">
        <ele>636.2</ele>
        <time>2025-07-21T07:41:30Z</time>
      </trkpt>
      <trkpt lat="42.92932" lon="0.91447">
        <ele>636.2</ele>
        <time>2025-07-21T07:41:31Z</time>
      </trkpt>
      <trkpt lat="42.92932" lon="0.9144">
        <ele>636.8</ele>
        <time>2025-07-21T07:41:34Z</time>
      </trkpt>
      <trkpt lat="42.92931" lon="0.91438">
        <ele>637.2</ele>
        <time>2025-07-21T07:41:35Z</time>
      </trkpt>
      <trkpt lat="42.92928" lon="0.91422">
        <ele>638</ele>
        <time>2025-07-21T07:41:41Z</time>
      </trkpt>
      <trkpt lat="42.92928" lon="0.91419">
        <ele>638.2</ele>
        <time>2025-07-21T07:41:42Z</time>
      </trkpt>
      <trkpt lat="42.92928" lon="0.91409">
        <ele>639.2</ele>
        <time>2025-07-21T07:41:46Z</time>
      </trkpt>
      <trkpt lat="42.92928" lon="0.91406">
        <ele>639.4</ele>
        <time>2025-07-21T07:41:47Z</time>
      </trkpt>
      <trkpt lat="42.92929" lon="0.91404">
        <ele>639.4</ele>
        <time>2025-07-21T07:41:48Z</time>
      </trkpt>
      <trkpt lat="42.92928" lon="0.91392">
        <ele>640.2</ele>
        <time>2025-07-21T07:41:52Z</time>
      </trkpt>
      <trkpt lat="42.92928" lon="0.91389">
        <ele>640.4</ele>
        <time>2025-07-21T07:41:53Z</time>
      </trkpt>
      <trkpt lat="42.92929" lon="0.91377">
        <ele>641.2</ele>
        <time>2025-07-21T07:41:57Z</time>
      </trkpt>
      <trkpt lat="42.9293" lon="0.91371">
        <ele>641.8</ele>
        <time>2025-07-21T07:41:59Z</time>
      </trkpt>
      <trkpt lat="42.9293" lon="0.91365">
        <ele>642.2</ele>
        <time>2025-07-21T07:42:01Z</time>
      </trkpt>
      <trkpt lat="42.92929" lon="0.91344">
        <ele>643.4</ele>
        <time>2025-07-21T07:42:08Z</time>
      </trkpt>
      <trkpt lat="42.92929" lon="0.91341">
        <ele>643.4</ele>
        <time>2025-07-21T07:42:09Z</time>
      </trkpt>
      <trkpt lat="42.92927" lon="0.9132">
        <ele>644.6</ele>
        <time>2025-07-21T07:42:16Z</time>
      </trkpt>
      <trkpt lat="42.92927" lon="0.91315">
        <ele>644.8</ele>
        <time>2025-07-21T07:42:18Z</time>
      </trkpt>
      <trkpt lat="42.92925" lon="0.91304">
        <ele>645.6</ele>
        <time>2025-07-21T07:42:22Z</time>
      </trkpt>
      <trkpt lat="42.92923" lon="0.91294">
        <ele>646.2</ele>
        <time>2025-07-21T07:42:26Z</time>
      </trkpt>
      <trkpt lat="42.92922" lon="0.91289">
        <ele>646.4</ele>
        <time>2025-07-21T07:42:28Z</time>
      </trkpt>
      <trkpt lat="42.92918" lon="0.91275">
        <ele>647.2</ele>
        <time>2025-07-21T07:42:34Z</time>
      </trkpt>
      <trkpt lat="42.92915" lon="0.91269">
        <ele>647.6</ele>
        <time>2025-07-21T07:42:36Z</time>
      </trkpt>
      <trkpt lat="42.9291" lon="0.91254">
        <ele>648.8</ele>
        <time>2025-07-21T07:42:42Z</time>
      </trkpt>
      <trkpt lat="42.92909" lon="0.91249">
        <ele>649</ele>
        <time>2025-07-21T07:42:44Z</time>
      </trkpt>
      <trkpt lat="42.92904" lon="0.91231">
        <ele>649.8</ele>
        <time>2025-07-21T07:42:50Z</time>
      </trkpt>
      <trkpt lat="42.92904" lon="0.91226">
        <ele>650.2</ele>
        <time>2025-07-21T07:42:52Z</time>
      </trkpt>
      <trkpt lat="42.92902" lon="0.91209">
        <ele>650.8</ele>
        <time>2025-07-21T07:42:57Z</time>
      </trkpt>
      <trkpt lat="42.92902" lon="0.91199">
        <ele>651.2</ele>
        <time>2025-07-21T07:43:00Z</time>
      </trkpt>
      <trkpt lat="42.929" lon="0.91179">
        <ele>651.8</ele>
        <time>2025-07-21T07:43:06Z</time>
      </trkpt>
      <trkpt lat="42.92899" lon="0.91172">
        <ele>652.2</ele>
        <time>2025-07-21T07:43:08Z</time>
      </trkpt>
      <trkpt lat="42.92899" lon="0.91168">
        <ele>652.4</ele>
        <time>2025-07-21T07:43:09Z</time>
      </trkpt>
      <trkpt lat="42.92899" lon="0.91158">
        <ele>652.6</ele>
        <time>2025-07-21T07:43:12Z</time>
      </trkpt>
      <trkpt lat="42.92898" lon="0.91151">
        <ele>653</ele>
        <time>2025-07-21T07:43:14Z</time>
      </trkpt>
      <trkpt lat="42.92896" lon="0.91133">
        <ele>653.8</ele>
        <time>2025-07-21T07:43:19Z</time>
      </trkpt>
      <trkpt lat="42.92895" lon="0.91126">
        <ele>654</ele>
        <time>2025-07-21T07:43:21Z</time>
      </trkpt>
      <trkpt lat="42.92893" lon="0.91112">
        <ele>654.4</ele>
        <time>2025-07-21T07:43:25Z</time>
      </trkpt>
      <trkpt lat="42.92889" lon="0.91095">
        <ele>655</ele>
        <time>2025-07-21T07:43:30Z</time>
      </trkpt>
      <trkpt lat="42.92887" lon="0.9109">
        <ele>655.4</ele>
        <time>2025-07-21T07:43:32Z</time>
      </trkpt>
      <trkpt lat="42.92885" lon="0.91069">
        <ele>656.2</ele>
        <time>2025-07-21T07:43:38Z</time>
      </trkpt>
      <trkpt lat="42.92886" lon="0.91059">
        <ele>656.8</ele>
        <time>2025-07-21T07:43:41Z</time>
      </trkpt>
      <trkpt lat="42.92887" lon="0.91045">
        <ele>657.6</ele>
        <time>2025-07-21T07:43:45Z</time>
      </trkpt>
      <trkpt lat="42.9289" lon="0.91031">
        <ele>658.2</ele>
        <time>2025-07-21T07:43:49Z</time>
      </trkpt>
      <trkpt lat="42.92891" lon="0.91027">
        <ele>658.6</ele>
        <time>2025-07-21T07:43:50Z</time>
      </trkpt>
      <trkpt lat="42.92906" lon="0.91">
        <ele>659.4</ele>
        <time>2025-07-21T07:43:57Z</time>
      </trkpt>
      <trkpt lat="42.92909" lon="0.90996">
        <ele>659.4</ele>
        <time>2025-07-21T07:43:58Z</time>
      </trkpt>
      <trkpt lat="42.92923" lon="0.90972">
        <ele>659.4</ele>
        <time>2025-07-21T07:44:03Z</time>
      </trkpt>
      <trkpt lat="42.92942" lon="0.9093">
        <ele>659</ele>
        <time>2025-07-21T07:44:10Z</time>
      </trkpt>
      <trkpt lat="42.92958" lon="0.9089">
        <ele>659</ele>
        <time>2025-07-21T07:44:16Z</time>
      </trkpt>
      <trkpt lat="42.9297" lon="0.90841">
        <ele>659</ele>
        <time>2025-07-21T07:44:23Z</time>
      </trkpt>
      <trkpt lat="42.92976" lon="0.90806">
        <ele>659.2</ele>
        <time>2025-07-21T07:44:28Z</time>
      </trkpt>
      <trkpt lat="42.92975" lon="0.90791">
        <ele>659.2</ele>
        <time>2025-07-21T07:44:30Z</time>
      </trkpt>
      <trkpt lat="42.9297" lon="0.90777">
        <ele>659.4</ele>
        <time>2025-07-21T07:44:32Z</time>
      </trkpt>
      <trkpt lat="42.92962" lon="0.90766">
        <ele>659.4</ele>
        <time>2025-07-21T07:44:34Z</time>
      </trkpt>
      <trkpt lat="42.92955" lon="0.90757">
        <ele>659.6</ele>
        <time>2025-07-21T07:44:36Z</time>
      </trkpt>
      <trkpt lat="42.92946" lon="0.90737">
        <ele>659.6</ele>
        <time>2025-07-21T07:44:39Z</time>
      </trkpt>
      <trkpt lat="42.92944" lon="0.90731">
        <ele>659.8</ele>
        <time>2025-07-21T07:44:40Z</time>
      </trkpt>
      <trkpt lat="42.92938" lon="0.90699">
        <ele>660</ele>
        <time>2025-07-21T07:44:44Z</time>
      </trkpt>
      <trkpt lat="42.92937" lon="0.9069">
        <ele>660</ele>
        <time>2025-07-21T07:44:45Z</time>
      </trkpt>
      <trkpt lat="42.92938" lon="0.90681">
        <ele>660</ele>
        <time>2025-07-21T07:44:46Z</time>
      </trkpt>
      <trkpt lat="42.92945" lon="0.90651">
        <ele>659.4</ele>
        <time>2025-07-21T07:44:49Z</time>
      </trkpt>
      <trkpt lat="42.92958" lon="0.90623">
        <ele>658.8</ele>
        <time>2025-07-21T07:44:52Z</time>
      </trkpt>
      <trkpt lat="42.92965" lon="0.90613">
        <ele>658.2</ele>
        <time>2025-07-21T07:44:53Z</time>
      </trkpt>
      <trkpt lat="42.92977" lon="0.90595">
        <ele>656.8</ele>
        <time>2025-07-21T07:44:55Z</time>
      </trkpt>
      <trkpt lat="42.9299" lon="0.90569">
        <ele>656</ele>
        <time>2025-07-21T07:44:58Z</time>
      </trkpt>
      <trkpt lat="42.92996" lon="0.90559">
        <ele>655.6</ele>
        <time>2025-07-21T07:44:59Z</time>
      </trkpt>
      <trkpt lat="42.93012" lon="0.90533">
        <ele>655.2</ele>
        <time>2025-07-21T07:45:02Z</time>
      </trkpt>
      <trkpt lat="42.93015" lon="0.90513">
        <ele>655</ele>
        <time>2025-07-21T07:45:04Z</time>
      </trkpt>
      <trkpt lat="42.93015" lon="0.90503">
        <ele>654.8</ele>
        <time>2025-07-21T07:45:05Z</time>
      </trkpt>
      <trkpt lat="42.93013" lon="0.90494">
        <ele>654.8</ele>
        <time>2025-07-21T07:45:06Z</time>
      </trkpt>
      <trkpt lat="42.93009" lon="0.90486">
        <ele>654.6</ele>
        <time>2025-07-21T07:45:07Z</time>
      </trkpt>
      <trkpt lat="42.92992" lon="0.90467">
        <ele>654.4</ele>
        <time>2025-07-21T07:45:10Z</time>
      </trkpt>
      <trkpt lat="42.92981" lon="0.90457">
        <ele>654.4</ele>
        <time>2025-07-21T07:45:12Z</time>
      </trkpt>
      <trkpt lat="42.92952" lon="0.90432">
        <ele>654.6</ele>
        <time>2025-07-21T07:45:17Z</time>
      </trkpt>
      <trkpt lat="42.92924" lon="0.90408">
        <ele>655.6</ele>
        <time>2025-07-21T07:45:23Z</time>
      </trkpt>
      <trkpt lat="42.92905" lon="0.90382">
        <ele>656.6</ele>
        <time>2025-07-21T07:45:29Z</time>
      </trkpt>
      <trkpt lat="42.92897" lon="0.90368">
        <ele>657.2</ele>
        <time>2025-07-21T07:45:32Z</time>
      </trkpt>
      <trkpt lat="42.92893" lon="0.90358">
        <ele>657.6</ele>
        <time>2025-07-21T07:45:34Z</time>
      </trkpt>
      <trkpt lat="42.92891" lon="0.90352">
        <ele>657.6</ele>
        <time>2025-07-21T07:45:35Z</time>
      </trkpt>
      <trkpt lat="42.9289" lon="0.90347">
        <ele>657.8</ele>
        <time>2025-07-21T07:45:36Z</time>
      </trkpt>
      <trkpt lat="42.92887" lon="0.90332">
        <ele>658</ele>
        <time>2025-07-21T07:45:39Z</time>
      </trkpt>
      <trkpt lat="42.92886" lon="0.90322">
        <ele>658.4</ele>
        <time>2025-07-21T07:45:41Z</time>
      </trkpt>
      <trkpt lat="42.92886" lon="0.90312">
        <ele>658.8</ele>
        <time>2025-07-21T07:45:43Z</time>
      </trkpt>
      <trkpt lat="42.92887" lon="0.90283">
        <ele>659.8</ele>
        <time>2025-07-21T07:45:49Z</time>
      </trkpt>
      <trkpt lat="42.92892" lon="0.9026">
        <ele>661</ele>
        <time>2025-07-21T07:45:55Z</time>
      </trkpt>
      <trkpt lat="42.92894" lon="0.90253">
        <ele>661.4</ele>
        <time>2025-07-21T07:45:57Z</time>
      </trkpt>
      <trkpt lat="42.92898" lon="0.90241">
        <ele>662.2</ele>
        <time>2025-07-21T07:46:01Z</time>
      </trkpt>
      <trkpt lat="42.92902" lon="0.90233">
        <ele>662.8</ele>
        <time>2025-07-21T07:46:04Z</time>
      </trkpt>
      <trkpt lat="42.92903" lon="0.9023">
        <ele>663.2</ele>
        <time>2025-07-21T07:46:05Z</time>
      </trkpt>
      <trkpt lat="42.92912" lon="0.90212">
        <ele>664.4</ele>
        <time>2025-07-21T07:46:11Z</time>
      </trkpt>
      <trkpt lat="42.92919" lon="0.90198">
        <ele>665.6</ele>
        <time>2025-07-21T07:46:16Z</time>
      </trkpt>
      <trkpt lat="42.9292" lon="0.90196">
        <ele>665.8</ele>
        <time>2025-07-21T07:46:17Z</time>
      </trkpt>
      <trkpt lat="42.92929" lon="0.90181">
        <ele>666.6</ele>
        <time>2025-07-21T07:46:22Z</time>
      </trkpt>
      <trkpt lat="42.92935" lon="0.90168">
        <ele>667.4</ele>
        <time>2025-07-21T07:46:26Z</time>
      </trkpt>
      <trkpt lat="42.92937" lon="0.90161">
        <ele>667.6</ele>
        <time>2025-07-21T07:46:28Z</time>
      </trkpt>
      <trkpt lat="42.9294" lon="0.90142">
        <ele>668.4</ele>
        <time>2025-07-21T07:46:33Z</time>
      </trkpt>
      <trkpt lat="42.92941" lon="0.90134">
        <ele>668.8</ele>
        <time>2025-07-21T07:46:35Z</time>
      </trkpt>
      <trkpt lat="42.92943" lon="0.90108">
        <ele>669.8</ele>
        <time>2025-07-21T07:46:41Z</time>
      </trkpt>
      <trkpt lat="42.92942" lon="0.90086">
        <ele>670.2</ele>
        <time>2025-07-21T07:46:45Z</time>
      </trkpt>
      <trkpt lat="42.92941" lon="0.90079">
        <ele>670.2</ele>
        <time>2025-07-21T07:46:46Z</time>
      </trkpt>
      <trkpt lat="42.9294" lon="0.90072">
        <ele>670.2</ele>
        <time>2025-07-21T07:46:47Z</time>
      </trkpt>
      <trkpt lat="42.92938" lon="0.90041">
        <ele>670.2</ele>
        <time>2025-07-21T07:46:51Z</time>
      </trkpt>
      <trkpt lat="42.92938" lon="0.90033">
        <ele>670.2</ele>
        <time>2025-07-21T07:46:52Z</time>
      </trkpt>
      <trkpt lat="42.92941" lon="0.90003">
        <ele>669.4</ele>
        <time>2025-07-21T07:46:55Z</time>
      </trkpt>
      <trkpt lat="42.92942" lon="0.8997">
        <ele>668.8</ele>
        <time>2025-07-21T07:46:58Z</time>
      </trkpt>
      <trkpt lat="42.92943" lon="0.89934">
        <ele>668</ele>
        <time>2025-07-21T07:47:01Z</time>
      </trkpt>
      <trkpt lat="42.92941" lon="0.89922">
        <ele>667.6</ele>
        <time>2025-07-21T07:47:02Z</time>
      </trkpt>
      <trkpt lat="42.92939" lon="0.89898">
        <ele>666.4</ele>
        <time>2025-07-21T07:47:04Z</time>
      </trkpt>
      <trkpt lat="42.92936" lon="0.89873">
        <ele>665.2</ele>
        <time>2025-07-21T07:47:06Z</time>
      </trkpt>
      <trkpt lat="42.92931" lon="0.89835">
        <ele>664</ele>
        <time>2025-07-21T07:47:09Z</time>
      </trkpt>
      <trkpt lat="42.92928" lon="0.89812">
        <ele>663.2</ele>
        <time>2025-07-21T07:47:11Z</time>
      </trkpt>
      <trkpt lat="42.92925" lon="0.89801">
        <ele>663</ele>
        <time>2025-07-21T07:47:12Z</time>
      </trkpt>
      <trkpt lat="42.92921" lon="0.89791">
        <ele>662.6</ele>
        <time>2025-07-21T07:47:13Z</time>
      </trkpt>
      <trkpt lat="42.92911" lon="0.89773">
        <ele>662.2</ele>
        <time>2025-07-21T07:47:15Z</time>
      </trkpt>
      <trkpt lat="42.9289" lon="0.89743">
        <ele>661.8</ele>
        <time>2025-07-21T07:47:19Z</time>
      </trkpt>
      <trkpt lat="42.92886" lon="0.89736">
        <ele>661.4</ele>
        <time>2025-07-21T07:47:20Z</time>
      </trkpt>
      <trkpt lat="42.92876" lon="0.89714">
        <ele>661.4</ele>
        <time>2025-07-21T07:47:23Z</time>
      </trkpt>
      <trkpt lat="42.92857" lon="0.89656">
        <ele>661.8</ele>
        <time>2025-07-21T07:47:31Z</time>
      </trkpt>
      <trkpt lat="42.92856" lon="0.89649">
        <ele>662</ele>
        <time>2025-07-21T07:47:32Z</time>
      </trkpt>
      <trkpt lat="42.92856" lon="0.89633">
        <ele>662.2</ele>
        <time>2025-07-21T07:47:34Z</time>
      </trkpt>
      <trkpt lat="42.92858" lon="0.89626">
        <ele>662.2</ele>
        <time>2025-07-21T07:47:35Z</time>
      </trkpt>
      <trkpt lat="42.92862" lon="0.89611">
        <ele>662.6</ele>
        <time>2025-07-21T07:47:37Z</time>
      </trkpt>
      <trkpt lat="42.92872" lon="0.89579">
        <ele>663</ele>
        <time>2025-07-21T07:47:42Z</time>
      </trkpt>
      <trkpt lat="42.92877" lon="0.8956">
        <ele>663.4</ele>
        <time>2025-07-21T07:47:45Z</time>
      </trkpt>
      <trkpt lat="42.92884" lon="0.89541">
        <ele>663.8</ele>
        <time>2025-07-21T07:47:48Z</time>
      </trkpt>
      <trkpt lat="42.92886" lon="0.89532">
        <ele>664</ele>
        <time>2025-07-21T07:47:50Z</time>
      </trkpt>
      <trkpt lat="42.92891" lon="0.89521">
        <ele>664.2</ele>
        <time>2025-07-21T07:47:52Z</time>
      </trkpt>
      <trkpt lat="42.92899" lon="0.8951">
        <ele>664.4</ele>
        <time>2025-07-21T07:47:55Z</time>
      </trkpt>
      <trkpt lat="42.92903" lon="0.89503">
        <ele>664.8</ele>
        <time>2025-07-21T07:47:57Z</time>
      </trkpt>
      <trkpt lat="42.92911" lon="0.89496">
        <ele>665.2</ele>
        <time>2025-07-21T07:48:00Z</time>
      </trkpt>
      <trkpt lat="42.92916" lon="0.89486">
        <ele>666.2</ele>
        <time>2025-07-21T07:48:03Z</time>
      </trkpt>
      <trkpt lat="42.92919" lon="0.89484">
        <ele>666.4</ele>
        <time>2025-07-21T07:48:04Z</time>
      </trkpt>
      <trkpt lat="42.92924" lon="0.89483">
        <ele>666.6</ele>
        <time>2025-07-21T07:48:05Z</time>
      </trkpt>
      <trkpt lat="42.92945" lon="0.89474">
        <ele>667.2</ele>
        <time>2025-07-21T07:48:11Z</time>
      </trkpt>
      <trkpt lat="42.92948" lon="0.89472">
        <ele>667.4</ele>
        <time>2025-07-21T07:48:12Z</time>
      </trkpt>
      <trkpt lat="42.92965" lon="0.89462">
        <ele>668</ele>
        <time>2025-07-21T07:48:17Z</time>
      </trkpt>
      <trkpt lat="42.92977" lon="0.89456">
        <ele>668.4</ele>
        <time>2025-07-21T07:48:20Z</time>
      </trkpt>
      <trkpt lat="42.92983" lon="0.89453">
        <ele>669</ele>
        <time>2025-07-21T07:48:22Z</time>
      </trkpt>
      <trkpt lat="42.92995" lon="0.89443">
        <ele>669.6</ele>
        <time>2025-07-21T07:48:26Z</time>
      </trkpt>
      <trkpt lat="42.93003" lon="0.89439">
        <ele>670.4</ele>
        <time>2025-07-21T07:48:29Z</time>
      </trkpt>
      <trkpt lat="42.9301" lon="0.89436">
        <ele>670.8</ele>
        <time>2025-07-21T07:48:31Z</time>
      </trkpt>
      <trkpt lat="42.93024" lon="0.89423">
        <ele>671.6</ele>
        <time>2025-07-21T07:48:37Z</time>
      </trkpt>
      <trkpt lat="42.93026" lon="0.89421">
        <ele>672</ele>
        <time>2025-07-21T07:48:38Z</time>
      </trkpt>
      <trkpt lat="42.93035" lon="0.89408">
        <ele>672.6</ele>
        <time>2025-07-21T07:48:43Z</time>
      </trkpt>
      <trkpt lat="42.93043" lon="0.89398">
        <ele>673.2</ele>
        <time>2025-07-21T07:48:46Z</time>
      </trkpt>
      <trkpt lat="42.93045" lon="0.89394">
        <ele>673.2</ele>
        <time>2025-07-21T07:48:47Z</time>
      </trkpt>
      <trkpt lat="42.93058" lon="0.89369">
        <ele>673.8</ele>
        <time>2025-07-21T07:48:54Z</time>
      </trkpt>
      <trkpt lat="42.93063" lon="0.89361">
        <ele>674.2</ele>
        <time>2025-07-21T07:48:56Z</time>
      </trkpt>
      <trkpt lat="42.93072" lon="0.89341">
        <ele>675</ele>
        <time>2025-07-21T07:49:02Z</time>
      </trkpt>
      <trkpt lat="42.93074" lon="0.89338">
        <ele>675.2</ele>
        <time>2025-07-21T07:49:03Z</time>
      </trkpt>
      <trkpt lat="42.93083" lon="0.89318">
        <ele>676.2</ele>
        <time>2025-07-21T07:49:09Z</time>
      </trkpt>
      <trkpt lat="42.93084" lon="0.89314">
        <ele>676.4</ele>
        <time>2025-07-21T07:49:10Z</time>
      </trkpt>
      <trkpt lat="42.93089" lon="0.89303">
        <ele>676.8</ele>
        <time>2025-07-21T07:49:14Z</time>
      </trkpt>
      <trkpt lat="42.93092" lon="0.89292">
        <ele>677.6</ele>
        <time>2025-07-21T07:49:17Z</time>
      </trkpt>
      <trkpt lat="42.93093" lon="0.89274">
        <ele>678.4</ele>
        <time>2025-07-21T07:49:22Z</time>
      </trkpt>
      <trkpt lat="42.93091" lon="0.89265">
        <ele>678.8</ele>
        <time>2025-07-21T07:49:25Z</time>
      </trkpt>
      <trkpt lat="42.9309" lon="0.89262">
        <ele>679</ele>
        <time>2025-07-21T07:49:26Z</time>
      </trkpt>
      <trkpt lat="42.9309" lon="0.89259">
        <ele>679</ele>
        <time>2025-07-21T07:49:27Z</time>
      </trkpt>
      <trkpt lat="42.93086" lon="0.89249">
        <ele>679.4</ele>
        <time>2025-07-21T07:49:30Z</time>
      </trkpt>
      <trkpt lat="42.93079" lon="0.89228">
        <ele>680.4</ele>
        <time>2025-07-21T07:49:36Z</time>
      </trkpt>
      <trkpt lat="42.93078" lon="0.89224">
        <ele>680.6</ele>
        <time>2025-07-21T07:49:37Z</time>
      </trkpt>
      <trkpt lat="42.93075" lon="0.89211">
        <ele>681.2</ele>
        <time>2025-07-21T07:49:41Z</time>
      </trkpt>
      <trkpt lat="42.93075" lon="0.892">
        <ele>681.4</ele>
        <time>2025-07-21T07:49:44Z</time>
      </trkpt>
      <trkpt lat="42.93078" lon="0.89175">
        <ele>681.8</ele>
        <time>2025-07-21T07:49:50Z</time>
      </trkpt>
      <trkpt lat="42.93081" lon="0.89165">
        <ele>682</ele>
        <time>2025-07-21T07:49:53Z</time>
      </trkpt>
      <trkpt lat="42.93083" lon="0.89155">
        <ele>682.4</ele>
        <time>2025-07-21T07:49:55Z</time>
      </trkpt>
      <trkpt lat="42.93084" lon="0.8915">
        <ele>682.4</ele>
        <time>2025-07-21T07:49:56Z</time>
      </trkpt>
      <trkpt lat="42.93091" lon="0.89136">
        <ele>682.8</ele>
        <time>2025-07-21T07:50:00Z</time>
      </trkpt>
      <trkpt lat="42.93101" lon="0.89123">
        <ele>683.2</ele>
        <time>2025-07-21T07:50:04Z</time>
      </trkpt>
      <trkpt lat="42.93104" lon="0.89121">
        <ele>683.4</ele>
        <time>2025-07-21T07:50:05Z</time>
      </trkpt>
      <trkpt lat="42.93106" lon="0.89118">
        <ele>683.6</ele>
        <time>2025-07-21T07:50:06Z</time>
      </trkpt>
      <trkpt lat="42.93121" lon="0.89108">
        <ele>684.6</ele>
        <time>2025-07-21T07:50:13Z</time>
      </trkpt>
      <trkpt lat="42.93138" lon="0.89101">
        <ele>685.8</ele>
        <time>2025-07-21T07:50:20Z</time>
      </trkpt>
      <trkpt lat="42.93151" lon="0.89094">
        <ele>686.8</ele>
        <time>2025-07-21T07:50:26Z</time>
      </trkpt>
      <trkpt lat="42.93152" lon="0.89093">
        <ele>687</ele>
        <time>2025-07-21T07:50:27Z</time>
      </trkpt>
      <trkpt lat="42.93159" lon="0.89082">
        <ele>687.6</ele>
        <time>2025-07-21T07:50:32Z</time>
      </trkpt>
      <trkpt lat="42.93171" lon="0.89065">
        <ele>688.6</ele>
        <time>2025-07-21T07:50:38Z</time>
      </trkpt>
      <trkpt lat="42.93178" lon="0.89056">
        <ele>688.8</ele>
        <time>2025-07-21T07:50:41Z</time>
      </trkpt>
      <trkpt lat="42.93193" lon="0.89036">
        <ele>689.6</ele>
        <time>2025-07-21T07:50:48Z</time>
      </trkpt>
      <trkpt lat="42.93206" lon="0.89016">
        <ele>690.6</ele>
        <time>2025-07-21T07:50:55Z</time>
      </trkpt>
      <trkpt lat="42.9321" lon="0.89011">
        <ele>691</ele>
        <time>2025-07-21T07:50:57Z</time>
      </trkpt>
      <trkpt lat="42.9322" lon="0.88994">
        <ele>691.6</ele>
        <time>2025-07-21T07:51:03Z</time>
      </trkpt>
      <trkpt lat="42.93222" lon="0.88992">
        <ele>691.6</ele>
        <time>2025-07-21T07:51:04Z</time>
      </trkpt>
      <trkpt lat="42.93229" lon="0.88978">
        <ele>692.2</ele>
        <time>2025-07-21T07:51:09Z</time>
      </trkpt>
      <trkpt lat="42.93232" lon="0.88973">
        <ele>692.6</ele>
        <time>2025-07-21T07:51:11Z</time>
      </trkpt>
      <trkpt lat="42.93237" lon="0.88962">
        <ele>693.2</ele>
        <time>2025-07-21T07:51:15Z</time>
      </trkpt>
      <trkpt lat="42.9325" lon="0.88943">
        <ele>693.6</ele>
        <time>2025-07-21T07:51:22Z</time>
      </trkpt>
      <trkpt lat="42.93256" lon="0.88939">
        <ele>693.8</ele>
        <time>2025-07-21T07:51:24Z</time>
      </trkpt>
      <trkpt lat="42.93272" lon="0.88931">
        <ele>694.8</ele>
        <time>2025-07-21T07:51:30Z</time>
      </trkpt>
      <trkpt lat="42.93277" lon="0.88929">
        <ele>694.8</ele>
        <time>2025-07-21T07:51:32Z</time>
      </trkpt>
      <trkpt lat="42.93291" lon="0.88928">
        <ele>695.6</ele>
        <time>2025-07-21T07:51:37Z</time>
      </trkpt>
      <trkpt lat="42.933" lon="0.88928">
        <ele>696.2</ele>
        <time>2025-07-21T07:51:40Z</time>
      </trkpt>
      <trkpt lat="42.93311" lon="0.88928">
        <ele>696.6</ele>
        <time>2025-07-21T07:51:44Z</time>
      </trkpt>
      <trkpt lat="42.9332" lon="0.88928">
        <ele>697.2</ele>
        <time>2025-07-21T07:51:47Z</time>
      </trkpt>
      <trkpt lat="42.9333" lon="0.88928">
        <ele>697.8</ele>
        <time>2025-07-21T07:51:51Z</time>
      </trkpt>
      <trkpt lat="42.93336" lon="0.88928">
        <ele>698.2</ele>
        <time>2025-07-21T07:51:54Z</time>
      </trkpt>
      <trkpt lat="42.93347" lon="0.88927">
        <ele>698.8</ele>
        <time>2025-07-21T07:51:59Z</time>
      </trkpt>
      <trkpt lat="42.9335" lon="0.88927">
        <ele>698.8</ele>
        <time>2025-07-21T07:52:00Z</time>
      </trkpt>
      <trkpt lat="42.93359" lon="0.88923">
        <ele>699.4</ele>
        <time>2025-07-21T07:52:05Z</time>
      </trkpt>
      <trkpt lat="42.93361" lon="0.88922">
        <ele>699.8</ele>
        <time>2025-07-21T07:52:06Z</time>
      </trkpt>
      <trkpt lat="42.93373" lon="0.88917">
        <ele>700.6</ele>
        <time>2025-07-21T07:52:11Z</time>
      </trkpt>
      <trkpt lat="42.93376" lon="0.88916">
        <ele>700.8</ele>
        <time>2025-07-21T07:52:12Z</time>
      </trkpt>
      <trkpt lat="42.93389" lon="0.88905">
        <ele>702</ele>
        <time>2025-07-21T07:52:17Z</time>
      </trkpt>
      <trkpt lat="42.93395" lon="0.88899">
        <ele>702.4</ele>
        <time>2025-07-21T07:52:19Z</time>
      </trkpt>
      <trkpt lat="42.934" lon="0.88881">
        <ele>702.4</ele>
        <time>2025-07-21T07:52:24Z</time>
      </trkpt>
      <trkpt lat="42.93401" lon="0.88873">
        <ele>702.8</ele>
        <time>2025-07-21T07:52:26Z</time>
      </trkpt>
      <trkpt lat="42.93402" lon="0.88858">
        <ele>703.2</ele>
        <time>2025-07-21T07:52:30Z</time>
      </trkpt>
      <trkpt lat="42.93409" lon="0.88827">
        <ele>704</ele>
        <time>2025-07-21T07:52:38Z</time>
      </trkpt>
      <trkpt lat="42.9341" lon="0.88824">
        <ele>704</ele>
        <time>2025-07-21T07:52:39Z</time>
      </trkpt>
      <trkpt lat="42.93425" lon="0.88809">
        <ele>704.8</ele>
        <time>2025-07-21T07:52:45Z</time>
      </trkpt>
      <trkpt lat="42.93428" lon="0.88807">
        <ele>705</ele>
        <time>2025-07-21T07:52:46Z</time>
      </trkpt>
      <trkpt lat="42.93446" lon="0.88795">
        <ele>705.8</ele>
        <time>2025-07-21T07:52:53Z</time>
      </trkpt>
      <trkpt lat="42.93462" lon="0.88783">
        <ele>706.8</ele>
        <time>2025-07-21T07:53:00Z</time>
      </trkpt>
      <trkpt lat="42.93466" lon="0.88781">
        <ele>707.2</ele>
        <time>2025-07-21T07:53:01Z</time>
      </trkpt>
      <trkpt lat="42.93479" lon="0.88773">
        <ele>708</ele>
        <time>2025-07-21T07:53:06Z</time>
      </trkpt>
      <trkpt lat="42.93492" lon="0.88767">
        <ele>708.4</ele>
        <time>2025-07-21T07:53:10Z</time>
      </trkpt>
      <trkpt lat="42.93498" lon="0.88763">
        <ele>709</ele>
        <time>2025-07-21T07:53:13Z</time>
      </trkpt>
      <trkpt lat="42.93513" lon="0.88753">
        <ele>710.2</ele>
        <time>2025-07-21T07:53:19Z</time>
      </trkpt>
      <trkpt lat="42.93526" lon="0.88738">
        <ele>711</ele>
        <time>2025-07-21T07:53:26Z</time>
      </trkpt>
      <trkpt lat="42.93536" lon="0.88717">
        <ele>712.2</ele>
        <time>2025-07-21T07:53:33Z</time>
      </trkpt>
      <trkpt lat="42.93538" lon="0.8871">
        <ele>712.4</ele>
        <time>2025-07-21T07:53:35Z</time>
      </trkpt>
      <trkpt lat="42.9354" lon="0.88696">
        <ele>713.2</ele>
        <time>2025-07-21T07:53:39Z</time>
      </trkpt>
      <trkpt lat="42.9354" lon="0.88686">
        <ele>713.8</ele>
        <time>2025-07-21T07:53:42Z</time>
      </trkpt>
      <trkpt lat="42.93541" lon="0.88675">
        <ele>714.4</ele>
        <time>2025-07-21T07:53:45Z</time>
      </trkpt>
      <trkpt lat="42.9354" lon="0.8866">
        <ele>714.8</ele>
        <time>2025-07-21T07:53:49Z</time>
      </trkpt>
      <trkpt lat="42.9354" lon="0.88649">
        <ele>715.4</ele>
        <time>2025-07-21T07:53:52Z</time>
      </trkpt>
      <trkpt lat="42.93538" lon="0.8863">
        <ele>715.8</ele>
        <time>2025-07-21T07:53:57Z</time>
      </trkpt>
      <trkpt lat="42.93537" lon="0.88619">
        <ele>716.4</ele>
        <time>2025-07-21T07:54:00Z</time>
      </trkpt>
      <trkpt lat="42.93537" lon="0.88596">
        <ele>717</ele>
        <time>2025-07-21T07:54:06Z</time>
      </trkpt>
      <trkpt lat="42.93537" lon="0.88593">
        <ele>717.2</ele>
        <time>2025-07-21T07:54:07Z</time>
      </trkpt>
      <trkpt lat="42.93545" lon="0.8857">
        <ele>718.2</ele>
        <time>2025-07-21T07:54:14Z</time>
      </trkpt>
      <trkpt lat="42.93547" lon="0.88567">
        <ele>718.4</ele>
        <time>2025-07-21T07:54:15Z</time>
      </trkpt>
      <trkpt lat="42.93559" lon="0.88554">
        <ele>719.6</ele>
        <time>2025-07-21T07:54:21Z</time>
      </trkpt>
      <trkpt lat="42.93577" lon="0.88545">
        <ele>720.6</ele>
        <time>2025-07-21T07:54:28Z</time>
      </trkpt>
      <trkpt lat="42.93593" lon="0.88542">
        <ele>721.4</ele>
        <time>2025-07-21T07:54:34Z</time>
      </trkpt>
      <trkpt lat="42.93596" lon="0.88541">
        <ele>721.4</ele>
        <time>2025-07-21T07:54:35Z</time>
      </trkpt>
      <trkpt lat="42.93607" lon="0.88537">
        <ele>722.4</ele>
        <time>2025-07-21T07:54:40Z</time>
      </trkpt>
      <trkpt lat="42.93609" lon="0.88536">
        <ele>722.6</ele>
        <time>2025-07-21T07:54:41Z</time>
      </trkpt>
      <trkpt lat="42.93619" lon="0.88533">
        <ele>723.8</ele>
        <time>2025-07-21T07:54:46Z</time>
      </trkpt>
      <trkpt lat="42.93634" lon="0.88527">
        <ele>724.8</ele>
        <time>2025-07-21T07:54:52Z</time>
      </trkpt>
      <trkpt lat="42.93636" lon="0.88526">
        <ele>725</ele>
        <time>2025-07-21T07:54:53Z</time>
      </trkpt>
      <trkpt lat="42.9365" lon="0.88519">
        <ele>726</ele>
        <time>2025-07-21T07:54:59Z</time>
      </trkpt>
      <trkpt lat="42.93653" lon="0.88518">
        <ele>726.2</ele>
        <time>2025-07-21T07:55:00Z</time>
      </trkpt>
      <trkpt lat="42.93668" lon="0.88506">
        <ele>727</ele>
        <time>2025-07-21T07:55:06Z</time>
      </trkpt>
      <trkpt lat="42.9367" lon="0.88505">
        <ele>727.4</ele>
        <time>2025-07-21T07:55:07Z</time>
      </trkpt>
      <trkpt lat="42.93678" lon="0.88498">
        <ele>728</ele>
        <time>2025-07-21T07:55:11Z</time>
      </trkpt>
      <trkpt lat="42.93679" lon="0.88497">
        <ele>728.2</ele>
        <time>2025-07-21T07:55:12Z</time>
      </trkpt>
      <trkpt lat="42.93688" lon="0.88488">
        <ele>729</ele>
        <time>2025-07-21T07:55:17Z</time>
      </trkpt>
      <trkpt lat="42.93699" lon="0.88479">
        <ele>730.2</ele>
        <time>2025-07-21T07:55:23Z</time>
      </trkpt>
      <trkpt lat="42.93706" lon="0.88473">
        <ele>731</ele>
        <time>2025-07-21T07:55:27Z</time>
      </trkpt>
      <trkpt lat="42.93709" lon="0.88472">
        <ele>731</ele>
        <time>2025-07-21T07:55:28Z</time>
      </trkpt>
      <trkpt lat="42.9372" lon="0.88471">
        <ele>732</ele>
        <time>2025-07-21T07:55:33Z</time>
      </trkpt>
      <trkpt lat="42.93733" lon="0.88466">
        <ele>733.2</ele>
        <time>2025-07-21T07:55:39Z</time>
      </trkpt>
      <trkpt lat="42.93748" lon="0.88462">
        <ele>734.4</ele>
        <time>2025-07-21T07:55:46Z</time>
      </trkpt>
      <trkpt lat="42.9375" lon="0.88461">
        <ele>734.4</ele>
        <time>2025-07-21T07:55:47Z</time>
      </trkpt>
      <trkpt lat="42.93759" lon="0.88456">
        <ele>735.2</ele>
        <time>2025-07-21T07:55:51Z</time>
      </trkpt>
      <trkpt lat="42.93768" lon="0.88449">
        <ele>735.8</ele>
        <time>2025-07-21T07:55:55Z</time>
      </trkpt>
      <trkpt lat="42.9377" lon="0.88448">
        <ele>736.2</ele>
        <time>2025-07-21T07:55:56Z</time>
      </trkpt>
      <trkpt lat="42.9378" lon="0.88433">
        <ele>737.2</ele>
        <time>2025-07-21T07:56:02Z</time>
      </trkpt>
      <trkpt lat="42.93781" lon="0.88431">
        <ele>737.2</ele>
        <time>2025-07-21T07:56:03Z</time>
      </trkpt>
      <trkpt lat="42.93789" lon="0.88416">
        <ele>738.2</ele>
        <time>2025-07-21T07:56:09Z</time>
      </trkpt>
      <trkpt lat="42.93791" lon="0.88414">
        <ele>738.2</ele>
        <time>2025-07-21T07:56:10Z</time>
      </trkpt>
      <trkpt lat="42.93794" lon="0.88406">
        <ele>739.2</ele>
        <time>2025-07-21T07:56:13Z</time>
      </trkpt>
      <trkpt lat="42.93799" lon="0.88397">
        <ele>740</ele>
        <time>2025-07-21T07:56:17Z</time>
      </trkpt>
      <trkpt lat="42.93802" lon="0.88393">
        <ele>740.4</ele>
        <time>2025-07-21T07:56:19Z</time>
      </trkpt>
      <trkpt lat="42.93802" lon="0.88389">
        <ele>740.4</ele>
        <time>2025-07-21T07:56:21Z</time>
      </trkpt>
      <trkpt lat="42.93807" lon="0.88379">
        <ele>741.4</ele>
        <time>2025-07-21T07:56:25Z</time>
      </trkpt>
      <trkpt lat="42.93809" lon="0.88377">
        <ele>741.4</ele>
        <time>2025-07-21T07:56:26Z</time>
      </trkpt>
      <trkpt lat="42.93813" lon="0.88368">
        <ele>742.4</ele>
        <time>2025-07-21T07:56:30Z</time>
      </trkpt>
      <trkpt lat="42.93815" lon="0.88366">
        <ele>742.4</ele>
        <time>2025-07-21T07:56:31Z</time>
      </trkpt>
      <trkpt lat="42.93816" lon="0.88364">
        <ele>742.8</ele>
        <time>2025-07-21T07:56:32Z</time>
      </trkpt>
      <trkpt lat="42.93823" lon="0.88356">
        <ele>743.4</ele>
        <time>2025-07-21T07:56:36Z</time>
      </trkpt>
      <trkpt lat="42.93824" lon="0.88353">
        <ele>743.8</ele>
        <time>2025-07-21T07:56:37Z</time>
      </trkpt>
      <trkpt lat="42.93825" lon="0.88352">
        <ele>743.8</ele>
        <time>2025-07-21T07:56:38Z</time>
      </trkpt>
      <trkpt lat="42.93829" lon="0.88347">
        <ele>744.4</ele>
        <time>2025-07-21T07:56:41Z</time>
      </trkpt>
      <trkpt lat="42.93831" lon="0.88345">
        <ele>744.8</ele>
        <time>2025-07-21T07:56:42Z</time>
      </trkpt>
      <trkpt lat="42.93839" lon="0.8834">
        <ele>745.6</ele>
        <time>2025-07-21T07:56:46Z</time>
      </trkpt>
      <trkpt lat="42.93842" lon="0.88338">
        <ele>746.2</ele>
        <time>2025-07-21T07:56:48Z</time>
      </trkpt>
      <trkpt lat="42.93848" lon="0.88336">
        <ele>746.8</ele>
        <time>2025-07-21T07:56:52Z</time>
      </trkpt>
      <trkpt lat="42.93859" lon="0.88333">
        <ele>747.6</ele>
        <time>2025-07-21T07:56:56Z</time>
      </trkpt>
      <trkpt lat="42.93861" lon="0.88332">
        <ele>748</ele>
        <time>2025-07-21T07:56:58Z</time>
      </trkpt>
      <trkpt lat="42.9387" lon="0.88329">
        <ele>749</ele>
        <time>2025-07-21T07:57:03Z</time>
      </trkpt>
      <trkpt lat="42.93872" lon="0.88328">
        <ele>749.2</ele>
        <time>2025-07-21T07:57:04Z</time>
      </trkpt>
      <trkpt lat="42.9388" lon="0.88324">
        <ele>750</ele>
        <time>2025-07-21T07:57:08Z</time>
      </trkpt>
      <trkpt lat="42.93887" lon="0.88321">
        <ele>750.6</ele>
        <time>2025-07-21T07:57:12Z</time>
      </trkpt>
      <trkpt lat="42.93892" lon="0.8832">
        <ele>751.2</ele>
        <time>2025-07-21T07:57:14Z</time>
      </trkpt>
      <trkpt lat="42.93896" lon="0.88317">
        <ele>751.8</ele>
        <time>2025-07-21T07:57:17Z</time>
      </trkpt>
      <trkpt lat="42.93898" lon="0.88315">
        <ele>752</ele>
        <time>2025-07-21T07:57:18Z</time>
      </trkpt>
      <trkpt lat="42.939" lon="0.88314">
        <ele>752.2</ele>
        <time>2025-07-21T07:57:19Z</time>
      </trkpt>
      <trkpt lat="42.93907" lon="0.8831">
        <ele>753</ele>
        <time>2025-07-21T07:57:23Z</time>
      </trkpt>
      <trkpt lat="42.93909" lon="0.8831">
        <ele>753.4</ele>
        <time>2025-07-21T07:57:24Z</time>
      </trkpt>
      <trkpt lat="42.93918" lon="0.88305">
        <ele>754.6</ele>
        <time>2025-07-21T07:57:29Z</time>
      </trkpt>
      <trkpt lat="42.93919" lon="0.88303">
        <ele>754.6</ele>
        <time>2025-07-21T07:57:30Z</time>
      </trkpt>
      <trkpt lat="42.93921" lon="0.883">
        <ele>754.8</ele>
        <time>2025-07-21T07:57:32Z</time>
      </trkpt>
      <trkpt lat="42.93926" lon="0.88295">
        <ele>755.6</ele>
        <time>2025-07-21T07:57:35Z</time>
      </trkpt>
      <trkpt lat="42.93929" lon="0.88293">
        <ele>755.8</ele>
        <time>2025-07-21T07:57:36Z</time>
      </trkpt>
      <trkpt lat="42.93938" lon="0.88283">
        <ele>757</ele>
        <time>2025-07-21T07:57:42Z</time>
      </trkpt>
      <trkpt lat="42.93942" lon="0.8828">
        <ele>757.6</ele>
        <time>2025-07-21T07:57:44Z</time>
      </trkpt>
      <trkpt lat="42.93945" lon="0.88277">
        <ele>758</ele>
        <time>2025-07-21T07:57:46Z</time>
      </trkpt>
      <trkpt lat="42.93947" lon="0.88273">
        <ele>758.4</ele>
        <time>2025-07-21T07:57:48Z</time>
      </trkpt>
      <trkpt lat="42.93948" lon="0.88271">
        <ele>758.6</ele>
        <time>2025-07-21T07:57:49Z</time>
      </trkpt>
      <trkpt lat="42.9395" lon="0.88269">
        <ele>758.8</ele>
        <time>2025-07-21T07:57:50Z</time>
      </trkpt>
      <trkpt lat="42.93951" lon="0.88267">
        <ele>759.2</ele>
        <time>2025-07-21T07:57:51Z</time>
      </trkpt>
      <trkpt lat="42.93954" lon="0.88264">
        <ele>759.6</ele>
        <time>2025-07-21T07:57:53Z</time>
      </trkpt>
      <trkpt lat="42.93958" lon="0.88258">
        <ele>760.2</ele>
        <time>2025-07-21T07:57:56Z</time>
      </trkpt>
      <trkpt lat="42.9396" lon="0.88255">
        <ele>760.4</ele>
        <time>2025-07-21T07:57:57Z</time>
      </trkpt>
      <trkpt lat="42.93962" lon="0.8825">
        <ele>760.8</ele>
        <time>2025-07-21T07:57:59Z</time>
      </trkpt>
      <trkpt lat="42.93966" lon="0.88243">
        <ele>761.6</ele>
        <time>2025-07-21T07:58:02Z</time>
      </trkpt>
      <trkpt lat="42.93969" lon="0.88224">
        <ele>762.8</ele>
        <time>2025-07-21T07:58:08Z</time>
      </trkpt>
      <trkpt lat="42.93973" lon="0.88213">
        <ele>764</ele>
        <time>2025-07-21T07:58:12Z</time>
      </trkpt>
      <trkpt lat="42.93974" lon="0.88211">
        <ele>764</ele>
        <time>2025-07-21T07:58:13Z</time>
      </trkpt>
      <trkpt lat="42.93975" lon="0.88209">
        <ele>764.2</ele>
        <time>2025-07-21T07:58:14Z</time>
      </trkpt>
      <trkpt lat="42.93975" lon="0.88203">
        <ele>764.4</ele>
        <time>2025-07-21T07:58:16Z</time>
      </trkpt>
      <trkpt lat="42.93977" lon="0.88198">
        <ele>764.6</ele>
        <time>2025-07-21T07:58:18Z</time>
      </trkpt>
      <trkpt lat="42.93979" lon="0.88193">
        <ele>765.2</ele>
        <time>2025-07-21T07:58:20Z</time>
      </trkpt>
      <trkpt lat="42.93984" lon="0.88183">
        <ele>766.2</ele>
        <time>2025-07-21T07:58:25Z</time>
      </trkpt>
      <trkpt lat="42.93986" lon="0.88181">
        <ele>766.2</ele>
        <time>2025-07-21T07:58:26Z</time>
      </trkpt>
      <trkpt lat="42.9399" lon="0.88171">
        <ele>767.4</ele>
        <time>2025-07-21T07:58:30Z</time>
      </trkpt>
      <trkpt lat="42.93992" lon="0.88169">
        <ele>767.6</ele>
        <time>2025-07-21T07:58:31Z</time>
      </trkpt>
      <trkpt lat="42.93994" lon="0.88166">
        <ele>768</ele>
        <time>2025-07-21T07:58:32Z</time>
      </trkpt>
      <trkpt lat="42.93996" lon="0.88162">
        <ele>768.4</ele>
        <time>2025-07-21T07:58:34Z</time>
      </trkpt>
      <trkpt lat="42.93997" lon="0.8816">
        <ele>768.4</ele>
        <time>2025-07-21T07:58:35Z</time>
      </trkpt>
      <trkpt lat="42.93998" lon="0.88157">
        <ele>768.8</ele>
        <time>2025-07-21T07:58:36Z</time>
      </trkpt>
      <trkpt lat="42.94004" lon="0.88146">
        <ele>769.6</ele>
        <time>2025-07-21T07:58:41Z</time>
      </trkpt>
      <trkpt lat="42.94006" lon="0.88144">
        <ele>770</ele>
        <time>2025-07-21T07:58:42Z</time>
      </trkpt>
      <trkpt lat="42.94007" lon="0.88141">
        <ele>770</ele>
        <time>2025-07-21T07:58:43Z</time>
      </trkpt>
      <trkpt lat="42.94012" lon="0.88131">
        <ele>770.8</ele>
        <time>2025-07-21T07:58:47Z</time>
      </trkpt>
      <trkpt lat="42.94016" lon="0.88123">
        <ele>771.6</ele>
        <time>2025-07-21T07:58:50Z</time>
      </trkpt>
      <trkpt lat="42.94015" lon="0.8812">
        <ele>771.8</ele>
        <time>2025-07-21T07:58:51Z</time>
      </trkpt>
      <trkpt lat="42.94015" lon="0.88114">
        <ele>772.2</ele>
        <time>2025-07-21T07:58:53Z</time>
      </trkpt>
      <trkpt lat="42.94018" lon="0.88107">
        <ele>772.8</ele>
        <time>2025-07-21T07:58:56Z</time>
      </trkpt>
      <trkpt lat="42.9402" lon="0.881">
        <ele>773.8</ele>
        <time>2025-07-21T07:58:59Z</time>
      </trkpt>
      <trkpt lat="42.9402" lon="0.88097">
        <ele>774</ele>
        <time>2025-07-21T07:59:00Z</time>
      </trkpt>
      <trkpt lat="42.9402" lon="0.88093">
        <ele>774.4</ele>
        <time>2025-07-21T07:59:02Z</time>
      </trkpt>
      <trkpt lat="42.94023" lon="0.88088">
        <ele>774.6</ele>
        <time>2025-07-21T07:59:04Z</time>
      </trkpt>
      <trkpt lat="42.94024" lon="0.88084">
        <ele>775.2</ele>
        <time>2025-07-21T07:59:06Z</time>
      </trkpt>
      <trkpt lat="42.94028" lon="0.88074">
        <ele>776.2</ele>
        <time>2025-07-21T07:59:10Z</time>
      </trkpt>
      <trkpt lat="42.94029" lon="0.88073">
        <ele>776.4</ele>
        <time>2025-07-21T07:59:11Z</time>
      </trkpt>
      <trkpt lat="42.94039" lon="0.8806">
        <ele>777.6</ele>
        <time>2025-07-21T07:59:17Z</time>
      </trkpt>
      <trkpt lat="42.94041" lon="0.88057">
        <ele>778</ele>
        <time>2025-07-21T07:59:18Z</time>
      </trkpt>
      <trkpt lat="42.94042" lon="0.88051">
        <ele>778.6</ele>
        <time>2025-07-21T07:59:20Z</time>
      </trkpt>
      <trkpt lat="42.94046" lon="0.88036">
        <ele>779.6</ele>
        <time>2025-07-21T07:59:25Z</time>
      </trkpt>
      <trkpt lat="42.94045" lon="0.88032">
        <ele>779.8</ele>
        <time>2025-07-21T07:59:26Z</time>
      </trkpt>
      <trkpt lat="42.94046" lon="0.8802">
        <ele>780.8</ele>
        <time>2025-07-21T07:59:29Z</time>
      </trkpt>
      <trkpt lat="42.94045" lon="0.87999">
        <ele>781.6</ele>
        <time>2025-07-21T07:59:35Z</time>
      </trkpt>
      <trkpt lat="42.94044" lon="0.87991">
        <ele>782</ele>
        <time>2025-07-21T07:59:37Z</time>
      </trkpt>
      <trkpt lat="42.94042" lon="0.87978">
        <ele>782.4</ele>
        <time>2025-07-21T07:59:41Z</time>
      </trkpt>
      <trkpt lat="42.94044" lon="0.87973">
        <ele>782.8</ele>
        <time>2025-07-21T07:59:43Z</time>
      </trkpt>
      <trkpt lat="42.94043" lon="0.87969">
        <ele>783.2</ele>
        <time>2025-07-21T07:59:45Z</time>
      </trkpt>
      <trkpt lat="42.94042" lon="0.87967">
        <ele>783.4</ele>
        <time>2025-07-21T07:59:46Z</time>
      </trkpt>
      <trkpt lat="42.94041" lon="0.87964">
        <ele>783.6</ele>
        <time>2025-07-21T07:59:47Z</time>
      </trkpt>
      <trkpt lat="42.94042" lon="0.87959">
        <ele>784</ele>
        <time>2025-07-21T07:59:49Z</time>
      </trkpt>
      <trkpt lat="42.94042" lon="0.87954">
        <ele>784.4</ele>
        <time>2025-07-21T07:59:51Z</time>
      </trkpt>
      <trkpt lat="42.94041" lon="0.87945">
        <ele>785</ele>
        <time>2025-07-21T07:59:55Z</time>
      </trkpt>
      <trkpt lat="42.94042" lon="0.8794">
        <ele>785.6</ele>
        <time>2025-07-21T07:59:57Z</time>
      </trkpt>
      <trkpt lat="42.94041" lon="0.87929">
        <ele>786.2</ele>
        <time>2025-07-21T08:00:01Z</time>
      </trkpt>
      <trkpt lat="42.94041" lon="0.87914">
        <ele>787.2</ele>
        <time>2025-07-21T08:00:06Z</time>
      </trkpt>
      <trkpt lat="42.9404" lon="0.87912">
        <ele>787.4</ele>
        <time>2025-07-21T08:00:07Z</time>
      </trkpt>
      <trkpt lat="42.9404" lon="0.87908">
        <ele>787.6</ele>
        <time>2025-07-21T08:00:08Z</time>
      </trkpt>
      <trkpt lat="42.94041" lon="0.87903">
        <ele>787.8</ele>
        <time>2025-07-21T08:00:10Z</time>
      </trkpt>
      <trkpt lat="42.9404" lon="0.87896">
        <ele>788.6</ele>
        <time>2025-07-21T08:00:13Z</time>
      </trkpt>
      <trkpt lat="42.94042" lon="0.87881">
        <ele>789</ele>
        <time>2025-07-21T08:00:17Z</time>
      </trkpt>
      <trkpt lat="42.94039" lon="0.87866">
        <ele>789.4</ele>
        <time>2025-07-21T08:00:20Z</time>
      </trkpt>
      <trkpt lat="42.94039" lon="0.87863">
        <ele>789.6</ele>
        <time>2025-07-21T08:00:21Z</time>
      </trkpt>
      <trkpt lat="42.94034" lon="0.87853">
        <ele>790.2</ele>
        <time>2025-07-21T08:00:24Z</time>
      </trkpt>
      <trkpt lat="42.94031" lon="0.8785">
        <ele>790.4</ele>
        <time>2025-07-21T08:00:25Z</time>
      </trkpt>
      <trkpt lat="42.94033" lon="0.8784">
        <ele>791</ele>
        <time>2025-07-21T08:00:28Z</time>
      </trkpt>
      <trkpt lat="42.94033" lon="0.87839">
        <ele>791.2</ele>
        <time>2025-07-21T08:00:29Z</time>
      </trkpt>
      <trkpt lat="42.94036" lon="0.87836">
        <ele>791.4</ele>
        <time>2025-07-21T08:00:30Z</time>
      </trkpt>
      <trkpt lat="42.94038" lon="0.87827">
        <ele>791.8</ele>
        <time>2025-07-21T08:00:33Z</time>
      </trkpt>
      <trkpt lat="42.94037" lon="0.87823">
        <ele>792</ele>
        <time>2025-07-21T08:00:35Z</time>
      </trkpt>
      <trkpt lat="42.9404" lon="0.87817">
        <ele>792.4</ele>
        <time>2025-07-21T08:00:37Z</time>
      </trkpt>
      <trkpt lat="42.9404" lon="0.87813">
        <ele>792.6</ele>
        <time>2025-07-21T08:00:38Z</time>
      </trkpt>
      <trkpt lat="42.94039" lon="0.87805">
        <ele>793</ele>
        <time>2025-07-21T08:00:40Z</time>
      </trkpt>
      <trkpt lat="42.94038" lon="0.87798">
        <ele>793.4</ele>
        <time>2025-07-21T08:00:42Z</time>
      </trkpt>
      <trkpt lat="42.94036" lon="0.87791">
        <ele>793.6</ele>
        <time>2025-07-21T08:00:44Z</time>
      </trkpt>
      <trkpt lat="42.94032" lon="0.8778">
        <ele>794.2</ele>
        <time>2025-07-21T08:00:47Z</time>
      </trkpt>
      <trkpt lat="42.94031" lon="0.87773">
        <ele>794.6</ele>
        <time>2025-07-21T08:00:49Z</time>
      </trkpt>
      <trkpt lat="42.9403" lon="0.8777">
        <ele>794.8</ele>
        <time>2025-07-21T08:00:50Z</time>
      </trkpt>
      <trkpt lat="42.9403" lon="0.87767">
        <ele>795</ele>
        <time>2025-07-21T08:00:51Z</time>
      </trkpt>
      <trkpt lat="42.94031" lon="0.87764">
        <ele>795.4</ele>
        <time>2025-07-21T08:00:52Z</time>
      </trkpt>
      <trkpt lat="42.9403" lon="0.87761">
        <ele>795.4</ele>
        <time>2025-07-21T08:00:53Z</time>
      </trkpt>
      <trkpt lat="42.9403" lon="0.8776">
        <ele>795.8</ele>
        <time>2025-07-21T08:00:54Z</time>
      </trkpt>
      <trkpt lat="42.94031" lon="0.87742">
        <ele>796.4</ele>
        <time>2025-07-21T08:00:59Z</time>
      </trkpt>
      <trkpt lat="42.9403" lon="0.8774">
        <ele>796.4</ele>
        <time>2025-07-21T08:01:00Z</time>
      </trkpt>
      <trkpt lat="42.94028" lon="0.87719">
        <ele>797.6</ele>
        <time>2025-07-21T08:01:06Z</time>
      </trkpt>
      <trkpt lat="42.94029" lon="0.87716">
        <ele>797.8</ele>
        <time>2025-07-21T08:01:07Z</time>
      </trkpt>
      <trkpt lat="42.94031" lon="0.87714">
        <ele>797.8</ele>
        <time>2025-07-21T08:01:08Z</time>
      </trkpt>
      <trkpt lat="42.94029" lon="0.87701">
        <ele>798</ele>
        <time>2025-07-21T08:01:11Z</time>
      </trkpt>
      <trkpt lat="42.94019" lon="0.87686">
        <ele>798.6</ele>
        <time>2025-07-21T08:01:15Z</time>
      </trkpt>
      <trkpt lat="42.94018" lon="0.87682">
        <ele>798.8</ele>
        <time>2025-07-21T08:01:16Z</time>
      </trkpt>
      <trkpt lat="42.94016" lon="0.87673">
        <ele>799</ele>
        <time>2025-07-21T08:01:18Z</time>
      </trkpt>
      <trkpt lat="42.94013" lon="0.87654">
        <ele>799.6</ele>
        <time>2025-07-21T08:01:23Z</time>
      </trkpt>
      <trkpt lat="42.94013" lon="0.87651">
        <ele>799.8</ele>
        <time>2025-07-21T08:01:24Z</time>
      </trkpt>
      <trkpt lat="42.94012" lon="0.87631">
        <ele>800</ele>
        <time>2025-07-21T08:01:30Z</time>
      </trkpt>
      <trkpt lat="42.94011" lon="0.87627">
        <ele>800</ele>
        <time>2025-07-21T08:01:31Z</time>
      </trkpt>
      <trkpt lat="42.94007" lon="0.87613">
        <ele>800.4</ele>
        <time>2025-07-21T08:01:36Z</time>
      </trkpt>
      <trkpt lat="42.94002" lon="0.87604">
        <ele>800.6</ele>
        <time>2025-07-21T08:01:39Z</time>
      </trkpt>
      <trkpt lat="42.93994" lon="0.87597">
        <ele>801</ele>
        <time>2025-07-21T08:01:42Z</time>
      </trkpt>
      <trkpt lat="42.93983" lon="0.87586">
        <ele>801.4</ele>
        <time>2025-07-21T08:01:47Z</time>
      </trkpt>
      <trkpt lat="42.93981" lon="0.87584">
        <ele>801.6</ele>
        <time>2025-07-21T08:01:48Z</time>
      </trkpt>
      <trkpt lat="42.9398" lon="0.87582">
        <ele>801.8</ele>
        <time>2025-07-21T08:01:49Z</time>
      </trkpt>
      <trkpt lat="42.93978" lon="0.87579">
        <ele>801.8</ele>
        <time>2025-07-21T08:01:50Z</time>
      </trkpt>
      <trkpt lat="42.93976" lon="0.87577">
        <ele>801.8</ele>
        <time>2025-07-21T08:01:51Z</time>
      </trkpt>
      <trkpt lat="42.93969" lon="0.87569">
        <ele>802.4</ele>
        <time>2025-07-21T08:01:56Z</time>
      </trkpt>
      <trkpt lat="42.93967" lon="0.87567">
        <ele>802.6</ele>
        <time>2025-07-21T08:01:57Z</time>
      </trkpt>
      <trkpt lat="42.93964" lon="0.87566">
        <ele>802.8</ele>
        <time>2025-07-21T08:01:58Z</time>
      </trkpt>
      <trkpt lat="42.93943" lon="0.87549">
        <ele>803.2</ele>
        <time>2025-07-21T08:02:04Z</time>
      </trkpt>
      <trkpt lat="42.9393" lon="0.87532">
        <ele>803.8</ele>
        <time>2025-07-21T08:02:10Z</time>
      </trkpt>
      <trkpt lat="42.93914" lon="0.87518">
        <ele>804.4</ele>
        <time>2025-07-21T08:02:16Z</time>
      </trkpt>
      <trkpt lat="42.93912" lon="0.87514">
        <ele>804.6</ele>
        <time>2025-07-21T08:02:18Z</time>
      </trkpt>
      <trkpt lat="42.93908" lon="0.8751">
        <ele>804.8</ele>
        <time>2025-07-21T08:02:21Z</time>
      </trkpt>
      <trkpt lat="42.93908" lon="0.8751">
        <ele>804.6</ele>
        <time>2025-07-21T08:02:22Z</time>
      </trkpt>
      <trkpt lat="42.93908" lon="0.8751">
        <ele>804.8</ele>
        <time>2025-07-21T08:02:23Z</time>
      </trkpt>
      <trkpt lat="42.93904" lon="0.87506">
        <ele>804.8</ele>
        <time>2025-07-21T08:02:54Z</time>
      </trkpt>
      <trkpt lat="42.939" lon="0.87503">
        <ele>804.8</ele>
        <time>2025-07-21T08:02:56Z</time>
      </trkpt>
      <trkpt lat="42.93888" lon="0.87493">
        <ele>804.6</ele>
        <time>2025-07-21T08:03:01Z</time>
      </trkpt>
      <trkpt lat="42.93869" lon="0.87476">
        <ele>804.6</ele>
        <time>2025-07-21T08:03:07Z</time>
      </trkpt>
      <trkpt lat="42.93861" lon="0.87469">
        <ele>804.4</ele>
        <time>2025-07-21T08:03:10Z</time>
      </trkpt>
      <trkpt lat="42.93855" lon="0.87461">
        <ele>804.4</ele>
        <time>2025-07-21T08:03:12Z</time>
      </trkpt>
      <trkpt lat="42.93841" lon="0.87449">
        <ele>804.4</ele>
        <time>2025-07-21T08:03:15Z</time>
      </trkpt>
      <trkpt lat="42.93815" lon="0.87418">
        <ele>804.4</ele>
        <time>2025-07-21T08:03:21Z</time>
      </trkpt>
      <trkpt lat="42.93806" lon="0.87407">
        <ele>804.6</ele>
        <time>2025-07-21T08:03:24Z</time>
      </trkpt>
      <trkpt lat="42.93795" lon="0.87386">
        <ele>804.6</ele>
        <time>2025-07-21T08:03:28Z</time>
      </trkpt>
      <trkpt lat="42.93788" lon="0.87368">
        <ele>804.8</ele>
        <time>2025-07-21T08:03:31Z</time>
      </trkpt>
      <trkpt lat="42.93786" lon="0.87352">
        <ele>804.8</ele>
        <time>2025-07-21T08:03:34Z</time>
      </trkpt>
      <trkpt lat="42.93786" lon="0.8734">
        <ele>804.8</ele>
        <time>2025-07-21T08:03:36Z</time>
      </trkpt>
      <trkpt lat="42.93787" lon="0.87329">
        <ele>805</ele>
        <time>2025-07-21T08:03:38Z</time>
      </trkpt>
      <trkpt lat="42.9379" lon="0.87319">
        <ele>805.2</ele>
        <time>2025-07-21T08:03:40Z</time>
      </trkpt>
      <trkpt lat="42.93793" lon="0.87302">
        <ele>805.6</ele>
        <time>2025-07-21T08:03:43Z</time>
      </trkpt>
      <trkpt lat="42.93796" lon="0.8728">
        <ele>805.8</ele>
        <time>2025-07-21T08:03:47Z</time>
      </trkpt>
      <trkpt lat="42.93797" lon="0.87275">
        <ele>805.8</ele>
        <time>2025-07-21T08:03:48Z</time>
      </trkpt>
      <trkpt lat="42.938" lon="0.87249">
        <ele>806.4</ele>
        <time>2025-07-21T08:03:53Z</time>
      </trkpt>
      <trkpt lat="42.93801" lon="0.87245">
        <ele>806.4</ele>
        <time>2025-07-21T08:03:54Z</time>
      </trkpt>
      <trkpt lat="42.93802" lon="0.87242">
        <ele>806.4</ele>
        <time>2025-07-21T08:03:55Z</time>
      </trkpt>
      <trkpt lat="42.93805" lon="0.87219">
        <ele>807.4</ele>
        <time>2025-07-21T08:04:00Z</time>
      </trkpt>
      <trkpt lat="42.93806" lon="0.87216">
        <ele>807.6</ele>
        <time>2025-07-21T08:04:01Z</time>
      </trkpt>
      <trkpt lat="42.93806" lon="0.87194">
        <ele>808.8</ele>
        <time>2025-07-21T08:04:07Z</time>
      </trkpt>
      <trkpt lat="42.93806" lon="0.87179">
        <ele>809.2</ele>
        <time>2025-07-21T08:04:11Z</time>
      </trkpt>
      <trkpt lat="42.93805" lon="0.87169">
        <ele>809.6</ele>
        <time>2025-07-21T08:04:14Z</time>
      </trkpt>
      <trkpt lat="42.93806" lon="0.87162">
        <ele>810</ele>
        <time>2025-07-21T08:04:16Z</time>
      </trkpt>
      <trkpt lat="42.93808" lon="0.87145">
        <ele>810.8</ele>
        <time>2025-07-21T08:04:20Z</time>
      </trkpt>
      <trkpt lat="42.93809" lon="0.87132">
        <ele>811.4</ele>
        <time>2025-07-21T08:04:23Z</time>
      </trkpt>
      <trkpt lat="42.93811" lon="0.87117">
        <ele>811.8</ele>
        <time>2025-07-21T08:04:27Z</time>
      </trkpt>
      <trkpt lat="42.93813" lon="0.87101">
        <ele>812.8</ele>
        <time>2025-07-21T08:04:32Z</time>
      </trkpt>
      <trkpt lat="42.93813" lon="0.87098">
        <ele>813.2</ele>
        <time>2025-07-21T08:04:33Z</time>
      </trkpt>
      <trkpt lat="42.93814" lon="0.87083">
        <ele>814.2</ele>
        <time>2025-07-21T08:04:38Z</time>
      </trkpt>
      <trkpt lat="42.93817" lon="0.87068">
        <ele>815.4</ele>
        <time>2025-07-21T08:04:43Z</time>
      </trkpt>
      <trkpt lat="42.93821" lon="0.87056">
        <ele>816</ele>
        <time>2025-07-21T08:04:47Z</time>
      </trkpt>
      <trkpt lat="42.93822" lon="0.87053">
        <ele>816.2</ele>
        <time>2025-07-21T08:04:48Z</time>
      </trkpt>
      <trkpt lat="42.93827" lon="0.87039">
        <ele>817</ele>
        <time>2025-07-21T08:04:52Z</time>
      </trkpt>
      <trkpt lat="42.93826" lon="0.87036">
        <ele>817.2</ele>
        <time>2025-07-21T08:04:53Z</time>
      </trkpt>
      <trkpt lat="42.93826" lon="0.87033">
        <ele>817.4</ele>
        <time>2025-07-21T08:04:54Z</time>
      </trkpt>
      <trkpt lat="42.93828" lon="0.87024">
        <ele>818</ele>
        <time>2025-07-21T08:04:58Z</time>
      </trkpt>
      <trkpt lat="42.93828" lon="0.87023">
        <ele>818.4</ele>
        <time>2025-07-21T08:04:59Z</time>
      </trkpt>
      <trkpt lat="42.93828" lon="0.87023">
        <ele>818.6</ele>
        <time>2025-07-21T08:05:00Z</time>
      </trkpt>
      <trkpt lat="42.93828" lon="0.87023">
        <ele>818.6</ele>
        <time>2025-07-21T08:05:01Z</time>
      </trkpt>
      <trkpt lat="42.93832" lon="0.8701">
        <ele>819.4</ele>
        <time>2025-07-21T08:18:12Z</time>
      </trkpt>
      <trkpt lat="42.93833" lon="0.87007">
        <ele>819.6</ele>
        <time>2025-07-21T08:18:13Z</time>
      </trkpt>
      <trkpt lat="42.93837" lon="0.86988">
        <ele>820.2</ele>
        <time>2025-07-21T08:18:20Z</time>
      </trkpt>
      <trkpt lat="42.93837" lon="0.86976">
        <ele>820.6</ele>
        <time>2025-07-21T08:18:23Z</time>
      </trkpt>
      <trkpt lat="42.93839" lon="0.86964">
        <ele>821.2</ele>
        <time>2025-07-21T08:18:27Z</time>
      </trkpt>
      <trkpt lat="42.93841" lon="0.86958">
        <ele>821.6</ele>
        <time>2025-07-21T08:18:29Z</time>
      </trkpt>
      <trkpt lat="42.93842" lon="0.86949">
        <ele>822</ele>
        <time>2025-07-21T08:18:32Z</time>
      </trkpt>
      <trkpt lat="42.93842" lon="0.86944">
        <ele>822.4</ele>
        <time>2025-07-21T08:18:34Z</time>
      </trkpt>
      <trkpt lat="42.93843" lon="0.86941">
        <ele>822.6</ele>
        <time>2025-07-21T08:18:35Z</time>
      </trkpt>
      <trkpt lat="42.93845" lon="0.86934">
        <ele>823</ele>
        <time>2025-07-21T08:18:37Z</time>
      </trkpt>
      <trkpt lat="42.93849" lon="0.86919">
        <ele>823.8</ele>
        <time>2025-07-21T08:18:42Z</time>
      </trkpt>
      <trkpt lat="42.93851" lon="0.86913">
        <ele>824</ele>
        <time>2025-07-21T08:18:44Z</time>
      </trkpt>
      <trkpt lat="42.93861" lon="0.86887">
        <ele>824.6</ele>
        <time>2025-07-21T08:18:52Z</time>
      </trkpt>
      <trkpt lat="42.93867" lon="0.86873">
        <ele>824.8</ele>
        <time>2025-07-21T08:18:56Z</time>
      </trkpt>
      <trkpt lat="42.93874" lon="0.8686">
        <ele>825.2</ele>
        <time>2025-07-21T08:19:00Z</time>
      </trkpt>
      <trkpt lat="42.93891" lon="0.86835">
        <ele>826</ele>
        <time>2025-07-21T08:19:08Z</time>
      </trkpt>
      <trkpt lat="42.93893" lon="0.86831">
        <ele>826</ele>
        <time>2025-07-21T08:19:09Z</time>
      </trkpt>
      <trkpt lat="42.93913" lon="0.86802">
        <ele>827.2</ele>
        <time>2025-07-21T08:19:18Z</time>
      </trkpt>
      <trkpt lat="42.93915" lon="0.86799">
        <ele>827.2</ele>
        <time>2025-07-21T08:19:19Z</time>
      </trkpt>
      <trkpt lat="42.93931" lon="0.86777">
        <ele>828.2</ele>
        <time>2025-07-21T08:19:26Z</time>
      </trkpt>
      <trkpt lat="42.93933" lon="0.86774">
        <ele>828.6</ele>
        <time>2025-07-21T08:19:27Z</time>
      </trkpt>
      <trkpt lat="42.93947" lon="0.86756">
        <ele>829.2</ele>
        <time>2025-07-21T08:19:33Z</time>
      </trkpt>
      <trkpt lat="42.93949" lon="0.86752">
        <ele>829.4</ele>
        <time>2025-07-21T08:19:34Z</time>
      </trkpt>
      <trkpt lat="42.93965" lon="0.86731">
        <ele>830.4</ele>
        <time>2025-07-21T08:19:41Z</time>
      </trkpt>
      <trkpt lat="42.93972" lon="0.86723">
        <ele>830.8</ele>
        <time>2025-07-21T08:19:44Z</time>
      </trkpt>
      <trkpt lat="42.93984" lon="0.86707">
        <ele>831.6</ele>
        <time>2025-07-21T08:19:49Z</time>
      </trkpt>
      <trkpt lat="42.93991" lon="0.86697">
        <ele>832</ele>
        <time>2025-07-21T08:19:52Z</time>
      </trkpt>
      <trkpt lat="42.93997" lon="0.86687">
        <ele>832.8</ele>
        <time>2025-07-21T08:19:55Z</time>
      </trkpt>
      <trkpt lat="42.94005" lon="0.86679">
        <ele>833.4</ele>
        <time>2025-07-21T08:19:58Z</time>
      </trkpt>
      <trkpt lat="42.94008" lon="0.86675">
        <ele>833.8</ele>
        <time>2025-07-21T08:20:00Z</time>
      </trkpt>
      <trkpt lat="42.9401" lon="0.86673">
        <ele>834</ele>
        <time>2025-07-21T08:20:01Z</time>
      </trkpt>
      <trkpt lat="42.9401" lon="0.86672">
        <ele>834.2</ele>
        <time>2025-07-21T08:20:02Z</time>
      </trkpt>
      <trkpt lat="42.9401" lon="0.86672">
        <ele>834.4</ele>
        <time>2025-07-21T08:20:04Z</time>
      </trkpt>
      <trkpt lat="42.94012" lon="0.86668">
        <ele>834.8</ele>
        <time>2025-07-21T08:21:08Z</time>
      </trkpt>
      <trkpt lat="42.94013" lon="0.86665">
        <ele>834.8</ele>
        <time>2025-07-21T08:21:09Z</time>
      </trkpt>
      <trkpt lat="42.94022" lon="0.86641">
        <ele>835.2</ele>
        <time>2025-07-21T08:21:15Z</time>
      </trkpt>
      <trkpt lat="42.94031" lon="0.86617">
        <ele>836.2</ele>
        <time>2025-07-21T08:21:21Z</time>
      </trkpt>
      <trkpt lat="42.94043" lon="0.86595">
        <ele>837.2</ele>
        <time>2025-07-21T08:21:28Z</time>
      </trkpt>
      <trkpt lat="42.94057" lon="0.86585">
        <ele>838.2</ele>
        <time>2025-07-21T08:21:33Z</time>
      </trkpt>
      <trkpt lat="42.94059" lon="0.86585">
        <ele>838.4</ele>
        <time>2025-07-21T08:21:34Z</time>
      </trkpt>
      <trkpt lat="42.94074" lon="0.86576">
        <ele>839.6</ele>
        <time>2025-07-21T08:21:40Z</time>
      </trkpt>
      <trkpt lat="42.94076" lon="0.86574">
        <ele>839.6</ele>
        <time>2025-07-21T08:21:41Z</time>
      </trkpt>
      <trkpt lat="42.94085" lon="0.86566">
        <ele>840.6</ele>
        <time>2025-07-21T08:21:45Z</time>
      </trkpt>
      <trkpt lat="42.94093" lon="0.86558">
        <ele>841.6</ele>
        <time>2025-07-21T08:21:49Z</time>
      </trkpt>
      <trkpt lat="42.94096" lon="0.86556">
        <ele>841.8</ele>
        <time>2025-07-21T08:21:50Z</time>
      </trkpt>
      <trkpt lat="42.94103" lon="0.86548">
        <ele>842.8</ele>
        <time>2025-07-21T08:21:54Z</time>
      </trkpt>
      <trkpt lat="42.94106" lon="0.86542">
        <ele>843.4</ele>
        <time>2025-07-21T08:21:56Z</time>
      </trkpt>
      <trkpt lat="42.94108" lon="0.86533">
        <ele>843.6</ele>
        <time>2025-07-21T08:21:59Z</time>
      </trkpt>
      <trkpt lat="42.9411" lon="0.86526">
        <ele>844</ele>
        <time>2025-07-21T08:22:01Z</time>
      </trkpt>
      <trkpt lat="42.94111" lon="0.8652">
        <ele>844.4</ele>
        <time>2025-07-21T08:22:03Z</time>
      </trkpt>
      <trkpt lat="42.94113" lon="0.86513">
        <ele>844.8</ele>
        <time>2025-07-21T08:22:05Z</time>
      </trkpt>
      <trkpt lat="42.94117" lon="0.86501">
        <ele>846</ele>
        <time>2025-07-21T08:22:09Z</time>
      </trkpt>
      <trkpt lat="42.9412" lon="0.86496">
        <ele>846.4</ele>
        <time>2025-07-21T08:22:11Z</time>
      </trkpt>
      <trkpt lat="42.9413" lon="0.8649">
        <ele>847.4</ele>
        <time>2025-07-21T08:22:16Z</time>
      </trkpt>
      <trkpt lat="42.94142" lon="0.8649">
        <ele>848.6</ele>
        <time>2025-07-21T08:22:21Z</time>
      </trkpt>
      <trkpt lat="42.94145" lon="0.86491">
        <ele>848.6</ele>
        <time>2025-07-21T08:22:22Z</time>
      </trkpt>
      <trkpt lat="42.94147" lon="0.86492">
        <ele>849</ele>
        <time>2025-07-21T08:22:23Z</time>
      </trkpt>
      <trkpt lat="42.94152" lon="0.86494">
        <ele>849.2</ele>
        <time>2025-07-21T08:22:26Z</time>
      </trkpt>
      <trkpt lat="42.94155" lon="0.86495">
        <ele>849.8</ele>
        <time>2025-07-21T08:22:28Z</time>
      </trkpt>
      <trkpt lat="42.94162" lon="0.86495">
        <ele>850.4</ele>
        <time>2025-07-21T08:22:31Z</time>
      </trkpt>
      <trkpt lat="42.94167" lon="0.86495">
        <ele>851</ele>
        <time>2025-07-21T08:22:33Z</time>
      </trkpt>
      <trkpt lat="42.94177" lon="0.86493">
        <ele>852</ele>
        <time>2025-07-21T08:22:38Z</time>
      </trkpt>
      <trkpt lat="42.9419" lon="0.86496">
        <ele>853.2</ele>
        <time>2025-07-21T08:22:44Z</time>
      </trkpt>
      <trkpt lat="42.94192" lon="0.86496">
        <ele>853.6</ele>
        <time>2025-07-21T08:22:45Z</time>
      </trkpt>
      <trkpt lat="42.942" lon="0.86503">
        <ele>854.8</ele>
        <time>2025-07-21T08:22:50Z</time>
      </trkpt>
      <trkpt lat="42.942" lon="0.86506">
        <ele>855</ele>
        <time>2025-07-21T08:22:51Z</time>
      </trkpt>
      <trkpt lat="42.94202" lon="0.86514">
        <ele>855.6</ele>
        <time>2025-07-21T08:22:54Z</time>
      </trkpt>
      <trkpt lat="42.94205" lon="0.86518">
        <ele>856</ele>
        <time>2025-07-21T08:22:56Z</time>
      </trkpt>
      <trkpt lat="42.94208" lon="0.86533">
        <ele>857</ele>
        <time>2025-07-21T08:23:01Z</time>
      </trkpt>
      <trkpt lat="42.94209" lon="0.86536">
        <ele>857.2</ele>
        <time>2025-07-21T08:23:02Z</time>
      </trkpt>
      <trkpt lat="42.94216" lon="0.86542">
        <ele>858.4</ele>
        <time>2025-07-21T08:23:06Z</time>
      </trkpt>
      <trkpt lat="42.94221" lon="0.86546">
        <ele>859.4</ele>
        <time>2025-07-21T08:23:09Z</time>
      </trkpt>
      <trkpt lat="42.94225" lon="0.86546">
        <ele>859.4</ele>
        <time>2025-07-21T08:23:10Z</time>
      </trkpt>
      <trkpt lat="42.94233" lon="0.86547">
        <ele>860</ele>
        <time>2025-07-21T08:23:13Z</time>
      </trkpt>
      <trkpt lat="42.94237" lon="0.86546">
        <ele>860.4</ele>
        <time>2025-07-21T08:23:15Z</time>
      </trkpt>
      <trkpt lat="42.94244" lon="0.86542">
        <ele>861</ele>
        <time>2025-07-21T08:23:18Z</time>
      </trkpt>
      <trkpt lat="42.94248" lon="0.86535">
        <ele>861.6</ele>
        <time>2025-07-21T08:23:21Z</time>
      </trkpt>
      <trkpt lat="42.94252" lon="0.86528">
        <ele>862</ele>
        <time>2025-07-21T08:23:24Z</time>
      </trkpt>
      <trkpt lat="42.94253" lon="0.86522">
        <ele>862.6</ele>
        <time>2025-07-21T08:23:26Z</time>
      </trkpt>
      <trkpt lat="42.94257" lon="0.86508">
        <ele>863.6</ele>
        <time>2025-07-21T08:23:31Z</time>
      </trkpt>
      <trkpt lat="42.94262" lon="0.86492">
        <ele>864.8</ele>
        <time>2025-07-21T08:23:37Z</time>
      </trkpt>
      <trkpt lat="42.94264" lon="0.86484">
        <ele>865.4</ele>
        <time>2025-07-21T08:23:40Z</time>
      </trkpt>
      <trkpt lat="42.94265" lon="0.86478">
        <ele>865.8</ele>
        <time>2025-07-21T08:23:42Z</time>
      </trkpt>
      <trkpt lat="42.9427" lon="0.8646">
        <ele>867</ele>
        <time>2025-07-21T08:23:48Z</time>
      </trkpt>
      <trkpt lat="42.94275" lon="0.86444">
        <ele>868.2</ele>
        <time>2025-07-21T08:23:54Z</time>
      </trkpt>
      <trkpt lat="42.94277" lon="0.86438">
        <ele>868.6</ele>
        <time>2025-07-21T08:23:56Z</time>
      </trkpt>
      <trkpt lat="42.9428" lon="0.8643">
        <ele>869.4</ele>
        <time>2025-07-21T08:23:59Z</time>
      </trkpt>
      <trkpt lat="42.94283" lon="0.86416">
        <ele>870.4</ele>
        <time>2025-07-21T08:24:04Z</time>
      </trkpt>
      <trkpt lat="42.94286" lon="0.86402">
        <ele>871.6</ele>
        <time>2025-07-21T08:24:09Z</time>
      </trkpt>
      <trkpt lat="42.94286" lon="0.86384">
        <ele>872.8</ele>
        <time>2025-07-21T08:24:15Z</time>
      </trkpt>
      <trkpt lat="42.94285" lon="0.86369">
        <ele>873.8</ele>
        <time>2025-07-21T08:24:20Z</time>
      </trkpt>
      <trkpt lat="42.94285" lon="0.86366">
        <ele>874</ele>
        <time>2025-07-21T08:24:21Z</time>
      </trkpt>
      <trkpt lat="42.94289" lon="0.86351">
        <ele>875</ele>
        <time>2025-07-21T08:24:26Z</time>
      </trkpt>
      <trkpt lat="42.94294" lon="0.86348">
        <ele>875.6</ele>
        <time>2025-07-21T08:24:28Z</time>
      </trkpt>
      <trkpt lat="42.94301" lon="0.8635">
        <ele>875.8</ele>
        <time>2025-07-21T08:24:31Z</time>
      </trkpt>
      <trkpt lat="42.94303" lon="0.86353">
        <ele>876</ele>
        <time>2025-07-21T08:24:32Z</time>
      </trkpt>
      <trkpt lat="42.94306" lon="0.86361">
        <ele>876.8</ele>
        <time>2025-07-21T08:24:35Z</time>
      </trkpt>
      <trkpt lat="42.94306" lon="0.86365">
        <ele>877</ele>
        <time>2025-07-21T08:24:36Z</time>
      </trkpt>
      <trkpt lat="42.94307" lon="0.86368">
        <ele>877</ele>
        <time>2025-07-21T08:24:37Z</time>
      </trkpt>
      <trkpt lat="42.94308" lon="0.8638">
        <ele>878</ele>
        <time>2025-07-21T08:24:41Z</time>
      </trkpt>
      <trkpt lat="42.94309" lon="0.86393">
        <ele>878.8</ele>
        <time>2025-07-21T08:24:45Z</time>
      </trkpt>
      <trkpt lat="42.94311" lon="0.864">
        <ele>879</ele>
        <time>2025-07-21T08:24:47Z</time>
      </trkpt>
      <trkpt lat="42.94318" lon="0.8642">
        <ele>880</ele>
        <time>2025-07-21T08:24:54Z</time>
      </trkpt>
      <trkpt lat="42.94319" lon="0.86422">
        <ele>880.2</ele>
        <time>2025-07-21T08:24:55Z</time>
      </trkpt>
      <trkpt lat="42.94326" lon="0.86435">
        <ele>881.4</ele>
        <time>2025-07-21T08:25:01Z</time>
      </trkpt>
      <trkpt lat="42.94326" lon="0.86437">
        <ele>881.4</ele>
        <time>2025-07-21T08:25:02Z</time>
      </trkpt>
      <trkpt lat="42.94331" lon="0.86447">
        <ele>882.6</ele>
        <time>2025-07-21T08:25:07Z</time>
      </trkpt>
      <trkpt lat="42.94335" lon="0.86455">
        <ele>883.6</ele>
        <time>2025-07-21T08:25:11Z</time>
      </trkpt>
      <trkpt lat="42.9434" lon="0.86465">
        <ele>885</ele>
        <time>2025-07-21T08:25:16Z</time>
      </trkpt>
      <trkpt lat="42.94343" lon="0.86471">
        <ele>885.8</ele>
        <time>2025-07-21T08:25:19Z</time>
      </trkpt>
      <trkpt lat="42.94345" lon="0.86475">
        <ele>886.2</ele>
        <time>2025-07-21T08:25:21Z</time>
      </trkpt>
      <trkpt lat="42.94351" lon="0.86488">
        <ele>887.2</ele>
        <time>2025-07-21T08:25:26Z</time>
      </trkpt>
      <trkpt lat="42.94351" lon="0.8649">
        <ele>887.2</ele>
        <time>2025-07-21T08:25:27Z</time>
      </trkpt>
      <trkpt lat="42.94358" lon="0.86501">
        <ele>888.2</ele>
        <time>2025-07-21T08:25:32Z</time>
      </trkpt>
      <trkpt lat="42.94361" lon="0.86506">
        <ele>888.8</ele>
        <time>2025-07-21T08:25:34Z</time>
      </trkpt>
      <trkpt lat="42.94365" lon="0.86512">
        <ele>889.4</ele>
        <time>2025-07-21T08:25:37Z</time>
      </trkpt>
      <trkpt lat="42.94371" lon="0.86524">
        <ele>890.4</ele>
        <time>2025-07-21T08:25:42Z</time>
      </trkpt>
      <trkpt lat="42.94373" lon="0.86526">
        <ele>890.6</ele>
        <time>2025-07-21T08:25:43Z</time>
      </trkpt>
      <trkpt lat="42.94379" lon="0.86535">
        <ele>891.6</ele>
        <time>2025-07-21T08:25:47Z</time>
      </trkpt>
      <trkpt lat="42.94386" lon="0.86544">
        <ele>892.4</ele>
        <time>2025-07-21T08:25:51Z</time>
      </trkpt>
      <trkpt lat="42.94387" lon="0.86546">
        <ele>892.8</ele>
        <time>2025-07-21T08:25:52Z</time>
      </trkpt>
      <trkpt lat="42.94396" lon="0.86557">
        <ele>894</ele>
        <time>2025-07-21T08:25:57Z</time>
      </trkpt>
      <trkpt lat="42.94398" lon="0.86561">
        <ele>894.4</ele>
        <time>2025-07-21T08:25:59Z</time>
      </trkpt>
      <trkpt lat="42.94402" lon="0.86568">
        <ele>895</ele>
        <time>2025-07-21T08:26:02Z</time>
      </trkpt>
      <trkpt lat="42.94408" lon="0.86577">
        <ele>896.2</ele>
        <time>2025-07-21T08:26:06Z</time>
      </trkpt>
      <trkpt lat="42.94419" lon="0.86582">
        <ele>897.2</ele>
        <time>2025-07-21T08:26:11Z</time>
      </trkpt>
      <trkpt lat="42.94421" lon="0.86581">
        <ele>897.2</ele>
        <time>2025-07-21T08:26:12Z</time>
      </trkpt>
      <trkpt lat="42.94431" lon="0.86573">
        <ele>897.6</ele>
        <time>2025-07-21T08:26:16Z</time>
      </trkpt>
      <trkpt lat="42.94433" lon="0.86556">
        <ele>898.4</ele>
        <time>2025-07-21T08:26:21Z</time>
      </trkpt>
      <trkpt lat="42.94426" lon="0.86537">
        <ele>899</ele>
        <time>2025-07-21T08:26:27Z</time>
      </trkpt>
      <trkpt lat="42.94425" lon="0.86534">
        <ele>899.4</ele>
        <time>2025-07-21T08:26:28Z</time>
      </trkpt>
      <trkpt lat="42.94418" lon="0.86515">
        <ele>900.4</ele>
        <time>2025-07-21T08:26:34Z</time>
      </trkpt>
      <trkpt lat="42.94418" lon="0.86512">
        <ele>900.6</ele>
        <time>2025-07-21T08:26:35Z</time>
      </trkpt>
      <trkpt lat="42.94418" lon="0.86497">
        <ele>901.6</ele>
        <time>2025-07-21T08:26:40Z</time>
      </trkpt>
      <trkpt lat="42.94418" lon="0.86494">
        <ele>901.6</ele>
        <time>2025-07-21T08:26:41Z</time>
      </trkpt>
      <trkpt lat="42.9442" lon="0.86481">
        <ele>902.6</ele>
        <time>2025-07-21T08:26:46Z</time>
      </trkpt>
      <trkpt lat="42.9442" lon="0.86477">
        <ele>903.2</ele>
        <time>2025-07-21T08:26:47Z</time>
      </trkpt>
      <trkpt lat="42.9442" lon="0.86477">
        <ele>903.2</ele>
        <time>2025-07-21T08:26:48Z</time>
      </trkpt>
      <trkpt lat="42.94422" lon="0.86469">
        <ele>904</ele>
        <time>2025-07-21T08:26:50Z</time>
      </trkpt>
      <trkpt lat="42.94423" lon="0.86458">
        <ele>904.8</ele>
        <time>2025-07-21T08:26:54Z</time>
      </trkpt>
      <trkpt lat="42.94424" lon="0.86453">
        <ele>905.2</ele>
        <time>2025-07-21T08:26:56Z</time>
      </trkpt>
      <trkpt lat="42.94426" lon="0.86445">
        <ele>906.2</ele>
        <time>2025-07-21T08:26:59Z</time>
      </trkpt>
      <trkpt lat="42.94427" lon="0.86443">
        <ele>906.4</ele>
        <time>2025-07-21T08:27:00Z</time>
      </trkpt>
      <trkpt lat="42.94429" lon="0.86431">
        <ele>907.4</ele>
        <time>2025-07-21T08:27:04Z</time>
      </trkpt>
      <trkpt lat="42.94429" lon="0.86425">
        <ele>907.8</ele>
        <time>2025-07-21T08:27:06Z</time>
      </trkpt>
      <trkpt lat="42.9443" lon="0.86416">
        <ele>908.6</ele>
        <time>2025-07-21T08:27:09Z</time>
      </trkpt>
      <trkpt lat="42.94431" lon="0.86405">
        <ele>909.6</ele>
        <time>2025-07-21T08:27:13Z</time>
      </trkpt>
      <trkpt lat="42.94432" lon="0.86402">
        <ele>909.8</ele>
        <time>2025-07-21T08:27:14Z</time>
      </trkpt>
      <trkpt lat="42.94433" lon="0.86391">
        <ele>911</ele>
        <time>2025-07-21T08:27:18Z</time>
      </trkpt>
      <trkpt lat="42.94434" lon="0.86379">
        <ele>911.8</ele>
        <time>2025-07-21T08:27:22Z</time>
      </trkpt>
      <trkpt lat="42.94435" lon="0.86375">
        <ele>912.2</ele>
        <time>2025-07-21T08:27:23Z</time>
      </trkpt>
      <trkpt lat="42.94437" lon="0.86361">
        <ele>913.4</ele>
        <time>2025-07-21T08:27:28Z</time>
      </trkpt>
      <trkpt lat="42.9444" lon="0.86351">
        <ele>914.2</ele>
        <time>2025-07-21T08:27:32Z</time>
      </trkpt>
      <trkpt lat="42.9444" lon="0.86348">
        <ele>914.4</ele>
        <time>2025-07-21T08:27:33Z</time>
      </trkpt>
      <trkpt lat="42.94442" lon="0.86337">
        <ele>915.4</ele>
        <time>2025-07-21T08:27:37Z</time>
      </trkpt>
      <trkpt lat="42.94445" lon="0.86321">
        <ele>916.6</ele>
        <time>2025-07-21T08:27:43Z</time>
      </trkpt>
      <trkpt lat="42.94447" lon="0.8631">
        <ele>917.8</ele>
        <time>2025-07-21T08:27:47Z</time>
      </trkpt>
      <trkpt lat="42.94449" lon="0.86298">
        <ele>918.8</ele>
        <time>2025-07-21T08:27:51Z</time>
      </trkpt>
      <trkpt lat="42.94449" lon="0.86296">
        <ele>918.8</ele>
        <time>2025-07-21T08:27:52Z</time>
      </trkpt>
      <trkpt lat="42.94452" lon="0.86284">
        <ele>919.8</ele>
        <time>2025-07-21T08:27:56Z</time>
      </trkpt>
      <trkpt lat="42.94453" lon="0.86276">
        <ele>920.8</ele>
        <time>2025-07-21T08:27:59Z</time>
      </trkpt>
      <trkpt lat="42.94454" lon="0.86273">
        <ele>921</ele>
        <time>2025-07-21T08:28:00Z</time>
      </trkpt>
      <trkpt lat="42.94456" lon="0.86261">
        <ele>922</ele>
        <time>2025-07-21T08:28:05Z</time>
      </trkpt>
      <trkpt lat="42.94458" lon="0.86257">
        <ele>922.6</ele>
        <time>2025-07-21T08:28:07Z</time>
      </trkpt>
      <trkpt lat="42.9446" lon="0.86253">
        <ele>923</ele>
        <time>2025-07-21T08:28:09Z</time>
      </trkpt>
      <trkpt lat="42.94464" lon="0.86241">
        <ele>924.2</ele>
        <time>2025-07-21T08:28:14Z</time>
      </trkpt>
      <trkpt lat="42.94465" lon="0.86238">
        <ele>924.2</ele>
        <time>2025-07-21T08:28:15Z</time>
      </trkpt>
      <trkpt lat="42.94468" lon="0.86225">
        <ele>925.2</ele>
        <time>2025-07-21T08:28:20Z</time>
      </trkpt>
      <trkpt lat="42.94473" lon="0.86213">
        <ele>926.4</ele>
        <time>2025-07-21T08:28:25Z</time>
      </trkpt>
      <trkpt lat="42.94477" lon="0.86202">
        <ele>927.6</ele>
        <time>2025-07-21T08:28:30Z</time>
      </trkpt>
      <trkpt lat="42.94482" lon="0.86192">
        <ele>928.2</ele>
        <time>2025-07-21T08:28:34Z</time>
      </trkpt>
      <trkpt lat="42.94485" lon="0.86188">
        <ele>928.8</ele>
        <time>2025-07-21T08:28:36Z</time>
      </trkpt>
      <trkpt lat="42.94489" lon="0.86179">
        <ele>929.8</ele>
        <time>2025-07-21T08:28:40Z</time>
      </trkpt>
      <trkpt lat="42.94494" lon="0.86169">
        <ele>930.8</ele>
        <time>2025-07-21T08:28:44Z</time>
      </trkpt>
      <trkpt lat="42.94495" lon="0.86167">
        <ele>931</ele>
        <time>2025-07-21T08:28:45Z</time>
      </trkpt>
      <trkpt lat="42.94503" lon="0.86151">
        <ele>932.2</ele>
        <time>2025-07-21T08:28:51Z</time>
      </trkpt>
      <trkpt lat="42.94504" lon="0.86148">
        <ele>932.6</ele>
        <time>2025-07-21T08:28:52Z</time>
      </trkpt>
      <trkpt lat="42.94507" lon="0.86139">
        <ele>933.2</ele>
        <time>2025-07-21T08:28:55Z</time>
      </trkpt>
      <trkpt lat="42.94511" lon="0.86124">
        <ele>934.2</ele>
        <time>2025-07-21T08:29:00Z</time>
      </trkpt>
      <trkpt lat="42.94513" lon="0.86118">
        <ele>934.8</ele>
        <time>2025-07-21T08:29:02Z</time>
      </trkpt>
      <trkpt lat="42.94514" lon="0.8611">
        <ele>935.4</ele>
        <time>2025-07-21T08:29:05Z</time>
      </trkpt>
      <trkpt lat="42.94512" lon="0.86099">
        <ele>936.4</ele>
        <time>2025-07-21T08:29:09Z</time>
      </trkpt>
      <trkpt lat="42.94509" lon="0.86085">
        <ele>937.6</ele>
        <time>2025-07-21T08:29:14Z</time>
      </trkpt>
      <trkpt lat="42.94507" lon="0.86078">
        <ele>938.2</ele>
        <time>2025-07-21T08:29:17Z</time>
      </trkpt>
      <trkpt lat="42.94506" lon="0.86073">
        <ele>938.8</ele>
        <time>2025-07-21T08:29:19Z</time>
      </trkpt>
      <trkpt lat="42.94504" lon="0.86063">
        <ele>939.8</ele>
        <time>2025-07-21T08:29:23Z</time>
      </trkpt>
      <trkpt lat="42.94504" lon="0.8606">
        <ele>940</ele>
        <time>2025-07-21T08:29:24Z</time>
      </trkpt>
      <trkpt lat="42.94502" lon="0.86051">
        <ele>941.2</ele>
        <time>2025-07-21T08:29:27Z</time>
      </trkpt>
      <trkpt lat="42.945" lon="0.86038">
        <ele>942.2</ele>
        <time>2025-07-21T08:29:31Z</time>
      </trkpt>
      <trkpt lat="42.94497" lon="0.86019">
        <ele>943.4</ele>
        <time>2025-07-21T08:29:37Z</time>
      </trkpt>
      <trkpt lat="42.94497" lon="0.86016">
        <ele>943.6</ele>
        <time>2025-07-21T08:29:38Z</time>
      </trkpt>
      <trkpt lat="42.94496" lon="0.86001">
        <ele>944.6</ele>
        <time>2025-07-21T08:29:43Z</time>
      </trkpt>
      <trkpt lat="42.94495" lon="0.85992">
        <ele>945.6</ele>
        <time>2025-07-21T08:29:46Z</time>
      </trkpt>
      <trkpt lat="42.94495" lon="0.85986">
        <ele>946.2</ele>
        <time>2025-07-21T08:29:48Z</time>
      </trkpt>
      <trkpt lat="42.94494" lon="0.85981">
        <ele>946.6</ele>
        <time>2025-07-21T08:29:50Z</time>
      </trkpt>
      <trkpt lat="42.94493" lon="0.85966">
        <ele>948</ele>
        <time>2025-07-21T08:29:55Z</time>
      </trkpt>
      <trkpt lat="42.94492" lon="0.85959">
        <ele>948.4</ele>
        <time>2025-07-21T08:29:57Z</time>
      </trkpt>
      <trkpt lat="42.9449" lon="0.85949">
        <ele>949</ele>
        <time>2025-07-21T08:30:01Z</time>
      </trkpt>
      <trkpt lat="42.94487" lon="0.85941">
        <ele>949.8</ele>
        <time>2025-07-21T08:30:04Z</time>
      </trkpt>
      <trkpt lat="42.94484" lon="0.85936">
        <ele>950.2</ele>
        <time>2025-07-21T08:30:06Z</time>
      </trkpt>
      <trkpt lat="42.9448" lon="0.8593">
        <ele>951.2</ele>
        <time>2025-07-21T08:30:09Z</time>
      </trkpt>
      <trkpt lat="42.94474" lon="0.85921">
        <ele>952</ele>
        <time>2025-07-21T08:30:13Z</time>
      </trkpt>
      <trkpt lat="42.94473" lon="0.85919">
        <ele>952.4</ele>
        <time>2025-07-21T08:30:14Z</time>
      </trkpt>
      <trkpt lat="42.94466" lon="0.85909">
        <ele>953.2</ele>
        <time>2025-07-21T08:30:19Z</time>
      </trkpt>
      <trkpt lat="42.94464" lon="0.85906">
        <ele>953.2</ele>
        <time>2025-07-21T08:30:20Z</time>
      </trkpt>
      <trkpt lat="42.94459" lon="0.85894">
        <ele>954.2</ele>
        <time>2025-07-21T08:30:25Z</time>
      </trkpt>
      <trkpt lat="42.94456" lon="0.85886">
        <ele>955</ele>
        <time>2025-07-21T08:30:28Z</time>
      </trkpt>
      <trkpt lat="42.94456" lon="0.85881">
        <ele>955.4</ele>
        <time>2025-07-21T08:30:30Z</time>
      </trkpt>
      <trkpt lat="42.94457" lon="0.85869">
        <ele>956.8</ele>
        <time>2025-07-21T08:30:35Z</time>
      </trkpt>
      <trkpt lat="42.94457" lon="0.85867">
        <ele>957</ele>
        <time>2025-07-21T08:30:36Z</time>
      </trkpt>
      <trkpt lat="42.94457" lon="0.85857">
        <ele>957.8</ele>
        <time>2025-07-21T08:30:39Z</time>
      </trkpt>
      <trkpt lat="42.94458" lon="0.85844">
        <ele>959</ele>
        <time>2025-07-21T08:30:43Z</time>
      </trkpt>
      <trkpt lat="42.94457" lon="0.85838">
        <ele>959.4</ele>
        <time>2025-07-21T08:30:45Z</time>
      </trkpt>
      <trkpt lat="42.94456" lon="0.85824">
        <ele>960.2</ele>
        <time>2025-07-21T08:30:49Z</time>
      </trkpt>
      <trkpt lat="42.94456" lon="0.85816">
        <ele>960.8</ele>
        <time>2025-07-21T08:30:51Z</time>
      </trkpt>
      <trkpt lat="42.94455" lon="0.85806">
        <ele>961.4</ele>
        <time>2025-07-21T08:30:54Z</time>
      </trkpt>
      <trkpt lat="42.94455" lon="0.85792">
        <ele>962.2</ele>
        <time>2025-07-21T08:30:58Z</time>
      </trkpt>
      <trkpt lat="42.94455" lon="0.8579">
        <ele>962.6</ele>
        <time>2025-07-21T08:30:59Z</time>
      </trkpt>
      <trkpt lat="42.94455" lon="0.8578">
        <ele>963.6</ele>
        <time>2025-07-21T08:31:02Z</time>
      </trkpt>
      <trkpt lat="42.94454" lon="0.85768">
        <ele>964.6</ele>
        <time>2025-07-21T08:31:06Z</time>
      </trkpt>
      <trkpt lat="42.94454" lon="0.85765">
        <ele>964.8</ele>
        <time>2025-07-21T08:31:07Z</time>
      </trkpt>
      <trkpt lat="42.94454" lon="0.85746">
        <ele>966.2</ele>
        <time>2025-07-21T08:31:13Z</time>
      </trkpt>
      <trkpt lat="42.94454" lon="0.8574">
        <ele>966.6</ele>
        <time>2025-07-21T08:31:15Z</time>
      </trkpt>
      <trkpt lat="42.94454" lon="0.8573">
        <ele>967.2</ele>
        <time>2025-07-21T08:31:18Z</time>
      </trkpt>
      <trkpt lat="42.94454" lon="0.85718">
        <ele>968.4</ele>
        <time>2025-07-21T08:31:22Z</time>
      </trkpt>
      <trkpt lat="42.94457" lon="0.85711">
        <ele>969.4</ele>
        <time>2025-07-21T08:31:25Z</time>
      </trkpt>
      <trkpt lat="42.94462" lon="0.85706">
        <ele>970.2</ele>
        <time>2025-07-21T08:31:28Z</time>
      </trkpt>
      <trkpt lat="42.94464" lon="0.85705">
        <ele>970.4</ele>
        <time>2025-07-21T08:31:29Z</time>
      </trkpt>
      <trkpt lat="42.94473" lon="0.85707">
        <ele>971.4</ele>
        <time>2025-07-21T08:31:33Z</time>
      </trkpt>
      <trkpt lat="42.94474" lon="0.85709">
        <ele>971.6</ele>
        <time>2025-07-21T08:31:34Z</time>
      </trkpt>
      <trkpt lat="42.94477" lon="0.8572">
        <ele>972.6</ele>
        <time>2025-07-21T08:31:38Z</time>
      </trkpt>
      <trkpt lat="42.94478" lon="0.85723">
        <ele>972.6</ele>
        <time>2025-07-21T08:31:39Z</time>
      </trkpt>
      <trkpt lat="42.94481" lon="0.85735">
        <ele>973.6</ele>
        <time>2025-07-21T08:31:43Z</time>
      </trkpt>
      <trkpt lat="42.94483" lon="0.85746">
        <ele>974.6</ele>
        <time>2025-07-21T08:31:47Z</time>
      </trkpt>
      <trkpt lat="42.94485" lon="0.85751">
        <ele>974.6</ele>
        <time>2025-07-21T08:31:49Z</time>
      </trkpt>
      <trkpt lat="42.94491" lon="0.85764">
        <ele>975.8</ele>
        <time>2025-07-21T08:31:54Z</time>
      </trkpt>
      <trkpt lat="42.945" lon="0.85776">
        <ele>977</ele>
        <time>2025-07-21T08:32:00Z</time>
      </trkpt>
      <trkpt lat="42.94504" lon="0.85781">
        <ele>977.6</ele>
        <time>2025-07-21T08:32:03Z</time>
      </trkpt>
      <trkpt lat="42.94507" lon="0.85787">
        <ele>978</ele>
        <time>2025-07-21T08:32:05Z</time>
      </trkpt>
      <trkpt lat="42.94514" lon="0.85796">
        <ele>979.2</ele>
        <time>2025-07-21T08:32:09Z</time>
      </trkpt>
      <trkpt lat="42.94519" lon="0.85803">
        <ele>979.8</ele>
        <time>2025-07-21T08:32:12Z</time>
      </trkpt>
      <trkpt lat="42.94522" lon="0.85808">
        <ele>980.4</ele>
        <time>2025-07-21T08:32:14Z</time>
      </trkpt>
      <trkpt lat="42.94529" lon="0.85822">
        <ele>981.4</ele>
        <time>2025-07-21T08:32:20Z</time>
      </trkpt>
      <trkpt lat="42.9453" lon="0.85824">
        <ele>981.8</ele>
        <time>2025-07-21T08:32:21Z</time>
      </trkpt>
      <trkpt lat="42.94534" lon="0.85831">
        <ele>982.4</ele>
        <time>2025-07-21T08:32:24Z</time>
      </trkpt>
      <trkpt lat="42.9454" lon="0.85843">
        <ele>983.6</ele>
        <time>2025-07-21T08:32:29Z</time>
      </trkpt>
      <trkpt lat="42.94541" lon="0.85846">
        <ele>983.8</ele>
        <time>2025-07-21T08:32:30Z</time>
      </trkpt>
      <trkpt lat="42.94548" lon="0.85859">
        <ele>984.8</ele>
        <time>2025-07-21T08:32:35Z</time>
      </trkpt>
      <trkpt lat="42.94554" lon="0.85868">
        <ele>985.4</ele>
        <time>2025-07-21T08:32:39Z</time>
      </trkpt>
      <trkpt lat="42.94557" lon="0.85875">
        <ele>986</ele>
        <time>2025-07-21T08:32:42Z</time>
      </trkpt>
      <trkpt lat="42.94564" lon="0.85888">
        <ele>987.2</ele>
        <time>2025-07-21T08:32:47Z</time>
      </trkpt>
      <trkpt lat="42.94566" lon="0.85892">
        <ele>987.6</ele>
        <time>2025-07-21T08:32:49Z</time>
      </trkpt>
      <trkpt lat="42.9457" lon="0.85901">
        <ele>988.2</ele>
        <time>2025-07-21T08:32:52Z</time>
      </trkpt>
      <trkpt lat="42.94576" lon="0.85915">
        <ele>989.4</ele>
        <time>2025-07-21T08:32:57Z</time>
      </trkpt>
      <trkpt lat="42.94578" lon="0.85921">
        <ele>989.8</ele>
        <time>2025-07-21T08:32:59Z</time>
      </trkpt>
      <trkpt lat="42.9458" lon="0.8593">
        <ele>990.6</ele>
        <time>2025-07-21T08:33:02Z</time>
      </trkpt>
      <trkpt lat="42.94585" lon="0.85944">
        <ele>992</ele>
        <time>2025-07-21T08:33:07Z</time>
      </trkpt>
      <trkpt lat="42.94589" lon="0.85957">
        <ele>993.6</ele>
        <time>2025-07-21T08:33:12Z</time>
      </trkpt>
      <trkpt lat="42.9459" lon="0.85962">
        <ele>994</ele>
        <time>2025-07-21T08:33:14Z</time>
      </trkpt>
      <trkpt lat="42.94593" lon="0.85967">
        <ele>994.6</ele>
        <time>2025-07-21T08:33:16Z</time>
      </trkpt>
      <trkpt lat="42.94595" lon="0.85982">
        <ele>995.8</ele>
        <time>2025-07-21T08:33:21Z</time>
      </trkpt>
      <trkpt lat="42.94599" lon="0.85998">
        <ele>996.8</ele>
        <time>2025-07-21T08:33:26Z</time>
      </trkpt>
      <trkpt lat="42.94603" lon="0.86003">
        <ele>997.6</ele>
        <time>2025-07-21T08:33:28Z</time>
      </trkpt>
      <trkpt lat="42.94607" lon="0.86006">
        <ele>998.2</ele>
        <time>2025-07-21T08:33:30Z</time>
      </trkpt>
      <trkpt lat="42.94616" lon="0.86007">
        <ele>999</ele>
        <time>2025-07-21T08:33:33Z</time>
      </trkpt>
      <trkpt lat="42.9462" lon="0.86003">
        <ele>999.2</ele>
        <time>2025-07-21T08:33:35Z</time>
      </trkpt>
      <trkpt lat="42.94623" lon="0.85997">
        <ele>999.4</ele>
        <time>2025-07-21T08:33:37Z</time>
      </trkpt>
      <trkpt lat="42.94623" lon="0.85979">
        <ele>1000.2</ele>
        <time>2025-07-21T08:33:42Z</time>
      </trkpt>
      <trkpt lat="42.94616" lon="0.85958">
        <ele>1001.4</ele>
        <time>2025-07-21T08:33:49Z</time>
      </trkpt>
      <trkpt lat="42.94615" lon="0.85955">
        <ele>1001.6</ele>
        <time>2025-07-21T08:33:50Z</time>
      </trkpt>
      <trkpt lat="42.94613" lon="0.85939">
        <ele>1002.4</ele>
        <time>2025-07-21T08:33:55Z</time>
      </trkpt>
      <trkpt lat="42.94612" lon="0.8593">
        <ele>1002.8</ele>
        <time>2025-07-21T08:33:58Z</time>
      </trkpt>
      <trkpt lat="42.94612" lon="0.85924">
        <ele>1003.6</ele>
        <time>2025-07-21T08:34:00Z</time>
      </trkpt>
      <trkpt lat="42.94611" lon="0.85907">
        <ele>1004.8</ele>
        <time>2025-07-21T08:34:06Z</time>
      </trkpt>
      <trkpt lat="42.94611" lon="0.85893">
        <ele>1006.2</ele>
        <time>2025-07-21T08:34:11Z</time>
      </trkpt>
      <trkpt lat="42.94612" lon="0.85881">
        <ele>1007</ele>
        <time>2025-07-21T08:34:15Z</time>
      </trkpt>
      <trkpt lat="42.94613" lon="0.85878">
        <ele>1007.2</ele>
        <time>2025-07-21T08:34:16Z</time>
      </trkpt>
      <trkpt lat="42.94614" lon="0.85864">
        <ele>1008.2</ele>
        <time>2025-07-21T08:34:20Z</time>
      </trkpt>
      <trkpt lat="42.94615" lon="0.85854">
        <ele>1009</ele>
        <time>2025-07-21T08:34:23Z</time>
      </trkpt>
      <trkpt lat="42.94615" lon="0.85851">
        <ele>1009.4</ele>
        <time>2025-07-21T08:34:24Z</time>
      </trkpt>
      <trkpt lat="42.94617" lon="0.85839">
        <ele>1010.4</ele>
        <time>2025-07-21T08:34:28Z</time>
      </trkpt>
      <trkpt lat="42.94618" lon="0.85832">
        <ele>1011</ele>
        <time>2025-07-21T08:34:30Z</time>
      </trkpt>
      <trkpt lat="42.9462" lon="0.85823">
        <ele>1011.6</ele>
        <time>2025-07-21T08:34:33Z</time>
      </trkpt>
      <trkpt lat="42.94624" lon="0.85808">
        <ele>1013</ele>
        <time>2025-07-21T08:34:38Z</time>
      </trkpt>
      <trkpt lat="42.94625" lon="0.85802">
        <ele>1013.4</ele>
        <time>2025-07-21T08:34:40Z</time>
      </trkpt>
      <trkpt lat="42.94627" lon="0.85793">
        <ele>1014.4</ele>
        <time>2025-07-21T08:34:43Z</time>
      </trkpt>
      <trkpt lat="42.94629" lon="0.85778">
        <ele>1015.4</ele>
        <time>2025-07-21T08:34:48Z</time>
      </trkpt>
      <trkpt lat="42.94629" lon="0.85772">
        <ele>1015.6</ele>
        <time>2025-07-21T08:34:50Z</time>
      </trkpt>
      <trkpt lat="42.9463" lon="0.8576">
        <ele>1016.6</ele>
        <time>2025-07-21T08:34:54Z</time>
      </trkpt>
      <trkpt lat="42.9463" lon="0.85747">
        <ele>1017.4</ele>
        <time>2025-07-21T08:34:58Z</time>
      </trkpt>
      <trkpt lat="42.9463" lon="0.85742">
        <ele>1018</ele>
        <time>2025-07-21T08:35:00Z</time>
      </trkpt>
      <trkpt lat="42.9463" lon="0.85722">
        <ele>1019</ele>
        <time>2025-07-21T08:35:06Z</time>
      </trkpt>
      <trkpt lat="42.9463" lon="0.8571">
        <ele>1019.8</ele>
        <time>2025-07-21T08:35:10Z</time>
      </trkpt>
      <trkpt lat="42.9463" lon="0.85706">
        <ele>1020.2</ele>
        <time>2025-07-21T08:35:11Z</time>
      </trkpt>
      <trkpt lat="42.94633" lon="0.8569">
        <ele>1021.6</ele>
        <time>2025-07-21T08:35:16Z</time>
      </trkpt>
      <trkpt lat="42.94634" lon="0.85684">
        <ele>1022</ele>
        <time>2025-07-21T08:35:18Z</time>
      </trkpt>
      <trkpt lat="42.94635" lon="0.85674">
        <ele>1022.6</ele>
        <time>2025-07-21T08:35:21Z</time>
      </trkpt>
      <trkpt lat="42.94635" lon="0.85661">
        <ele>1023.6</ele>
        <time>2025-07-21T08:35:25Z</time>
      </trkpt>
      <trkpt lat="42.94629" lon="0.85646">
        <ele>1024.8</ele>
        <time>2025-07-21T08:35:30Z</time>
      </trkpt>
      <trkpt lat="42.94626" lon="0.85638">
        <ele>1025.6</ele>
        <time>2025-07-21T08:35:33Z</time>
      </trkpt>
      <trkpt lat="42.94623" lon="0.85633">
        <ele>1026</ele>
        <time>2025-07-21T08:35:35Z</time>
      </trkpt>
      <trkpt lat="42.94617" lon="0.8562">
        <ele>1027</ele>
        <time>2025-07-21T08:35:40Z</time>
      </trkpt>
      <trkpt lat="42.94612" lon="0.85608">
        <ele>1027.8</ele>
        <time>2025-07-21T08:35:44Z</time>
      </trkpt>
      <trkpt lat="42.9461" lon="0.85602">
        <ele>1028.2</ele>
        <time>2025-07-21T08:35:46Z</time>
      </trkpt>
      <trkpt lat="42.94607" lon="0.8559">
        <ele>1029</ele>
        <time>2025-07-21T08:35:50Z</time>
      </trkpt>
      <trkpt lat="42.94605" lon="0.85581">
        <ele>1029.6</ele>
        <time>2025-07-21T08:35:53Z</time>
      </trkpt>
      <trkpt lat="42.94604" lon="0.85575">
        <ele>1030</ele>
        <time>2025-07-21T08:35:55Z</time>
      </trkpt>
      <trkpt lat="42.94603" lon="0.85558">
        <ele>1031.2</ele>
        <time>2025-07-21T08:36:01Z</time>
      </trkpt>
      <trkpt lat="42.94602" lon="0.85543">
        <ele>1032.4</ele>
        <time>2025-07-21T08:36:06Z</time>
      </trkpt>
      <trkpt lat="42.94602" lon="0.85533">
        <ele>1033.2</ele>
        <time>2025-07-21T08:36:09Z</time>
      </trkpt>
      <trkpt lat="42.94602" lon="0.85527">
        <ele>1033.6</ele>
        <time>2025-07-21T08:36:11Z</time>
      </trkpt>
      <trkpt lat="42.94601" lon="0.8551">
        <ele>1035</ele>
        <time>2025-07-21T08:36:16Z</time>
      </trkpt>
      <trkpt lat="42.94595" lon="0.85493">
        <ele>1036.2</ele>
        <time>2025-07-21T08:36:21Z</time>
      </trkpt>
      <trkpt lat="42.94592" lon="0.85488">
        <ele>1036.8</ele>
        <time>2025-07-21T08:36:23Z</time>
      </trkpt>
      <trkpt lat="42.9459" lon="0.85486">
        <ele>1037.2</ele>
        <time>2025-07-21T08:36:24Z</time>
      </trkpt>
      <trkpt lat="42.94578" lon="0.85481">
        <ele>1038.4</ele>
        <time>2025-07-21T08:36:29Z</time>
      </trkpt>
      <trkpt lat="42.94576" lon="0.85479">
        <ele>1038.6</ele>
        <time>2025-07-21T08:36:30Z</time>
      </trkpt>
      <trkpt lat="42.94565" lon="0.85473">
        <ele>1039.8</ele>
        <time>2025-07-21T08:36:35Z</time>
      </trkpt>
      <trkpt lat="42.94556" lon="0.85469">
        <ele>1040.2</ele>
        <time>2025-07-21T08:36:39Z</time>
      </trkpt>
      <trkpt lat="42.94553" lon="0.85467">
        <ele>1040.6</ele>
        <time>2025-07-21T08:36:40Z</time>
      </trkpt>
      <trkpt lat="42.94542" lon="0.85461">
        <ele>1042</ele>
        <time>2025-07-21T08:36:45Z</time>
      </trkpt>
      <trkpt lat="42.94536" lon="0.85457">
        <ele>1042.8</ele>
        <time>2025-07-21T08:36:48Z</time>
      </trkpt>
      <trkpt lat="42.94532" lon="0.85454">
        <ele>1043.2</ele>
        <time>2025-07-21T08:36:50Z</time>
      </trkpt>
      <trkpt lat="42.94517" lon="0.85443">
        <ele>1044.4</ele>
        <time>2025-07-21T08:36:57Z</time>
      </trkpt>
      <trkpt lat="42.9451" lon="0.85433">
        <ele>1045.6</ele>
        <time>2025-07-21T08:37:01Z</time>
      </trkpt>
      <trkpt lat="42.94503" lon="0.85424">
        <ele>1046.6</ele>
        <time>2025-07-21T08:37:05Z</time>
      </trkpt>
      <trkpt lat="42.945" lon="0.85418">
        <ele>1046.8</ele>
        <time>2025-07-21T08:37:07Z</time>
      </trkpt>
      <trkpt lat="42.94495" lon="0.85407">
        <ele>1047.8</ele>
        <time>2025-07-21T08:37:11Z</time>
      </trkpt>
      <trkpt lat="42.94491" lon="0.85397">
        <ele>1049</ele>
        <time>2025-07-21T08:37:15Z</time>
      </trkpt>
      <trkpt lat="42.94485" lon="0.85383">
        <ele>1050</ele>
        <time>2025-07-21T08:37:21Z</time>
      </trkpt>
      <trkpt lat="42.94483" lon="0.8538">
        <ele>1050.4</ele>
        <time>2025-07-21T08:37:23Z</time>
      </trkpt>
      <trkpt lat="42.94482" lon="0.85378">
        <ele>1050.6</ele>
        <time>2025-07-21T08:37:25Z</time>
      </trkpt>
      <trkpt lat="42.94482" lon="0.85376">
        <ele>1050.8</ele>
        <time>2025-07-21T08:37:28Z</time>
      </trkpt>
      <trkpt lat="42.94482" lon="0.85375">
        <ele>1050.8</ele>
        <time>2025-07-21T08:37:32Z</time>
      </trkpt>
      <trkpt lat="42.94476" lon="0.85373">
        <ele>1050.6</ele>
        <time>2025-07-21T08:46:42Z</time>
      </trkpt>
      <trkpt lat="42.94475" lon="0.85371">
        <ele>1050.6</ele>
        <time>2025-07-21T08:46:43Z</time>
      </trkpt>
      <trkpt lat="42.94469" lon="0.85358">
        <ele>1050.6</ele>
        <time>2025-07-21T08:46:49Z</time>
      </trkpt>
      <trkpt lat="42.94458" lon="0.85338">
        <ele>1050.2</ele>
        <time>2025-07-21T08:46:54Z</time>
      </trkpt>
      <trkpt lat="42.9444" lon="0.85312">
        <ele>1049.2</ele>
        <time>2025-07-21T08:46:59Z</time>
      </trkpt>
      <trkpt lat="42.94437" lon="0.85307">
        <ele>1048.6</ele>
        <time>2025-07-21T08:47:00Z</time>
      </trkpt>
      <trkpt lat="42.94428" lon="0.85293">
        <ele>1047.6</ele>
        <time>2025-07-21T08:47:02Z</time>
      </trkpt>
      <trkpt lat="42.9442" lon="0.85279">
        <ele>1046.4</ele>
        <time>2025-07-21T08:47:04Z</time>
      </trkpt>
      <trkpt lat="42.94416" lon="0.85271">
        <ele>1045.8</ele>
        <time>2025-07-21T08:47:05Z</time>
      </trkpt>
      <trkpt lat="42.94411" lon="0.85263">
        <ele>1045.4</ele>
        <time>2025-07-21T08:47:06Z</time>
      </trkpt>
      <trkpt lat="42.94402" lon="0.85247">
        <ele>1044</ele>
        <time>2025-07-21T08:47:08Z</time>
      </trkpt>
      <trkpt lat="42.94397" lon="0.85239">
        <ele>1043.2</ele>
        <time>2025-07-21T08:47:09Z</time>
      </trkpt>
      <trkpt lat="42.9439" lon="0.85231">
        <ele>1042.2</ele>
        <time>2025-07-21T08:47:10Z</time>
      </trkpt>
      <trkpt lat="42.94383" lon="0.85225">
        <ele>1041.6</ele>
        <time>2025-07-21T08:47:11Z</time>
      </trkpt>
      <trkpt lat="42.94375" lon="0.85219">
        <ele>1040.8</ele>
        <time>2025-07-21T08:47:12Z</time>
      </trkpt>
      <trkpt lat="42.94367" lon="0.85215">
        <ele>1040.2</ele>
        <time>2025-07-21T08:47:13Z</time>
      </trkpt>
      <trkpt lat="42.94358" lon="0.85211">
        <ele>1039.6</ele>
        <time>2025-07-21T08:47:14Z</time>
      </trkpt>
      <trkpt lat="42.9435" lon="0.85206">
        <ele>1038.6</ele>
        <time>2025-07-21T08:47:15Z</time>
      </trkpt>
      <trkpt lat="42.94343" lon="0.85198">
        <ele>1038.2</ele>
        <time>2025-07-21T08:47:16Z</time>
      </trkpt>
      <trkpt lat="42.94336" lon="0.85188">
        <ele>1037</ele>
        <time>2025-07-21T08:47:17Z</time>
      </trkpt>
      <trkpt lat="42.94322" lon="0.85166">
        <ele>1034.8</ele>
        <time>2025-07-21T08:47:19Z</time>
      </trkpt>
      <trkpt lat="42.94309" lon="0.85141">
        <ele>1033.2</ele>
        <time>2025-07-21T08:47:21Z</time>
      </trkpt>
      <trkpt lat="42.94303" lon="0.85128">
        <ele>1031.8</ele>
        <time>2025-07-21T08:47:22Z</time>
      </trkpt>
      <trkpt lat="42.94291" lon="0.851">
        <ele>1029.6</ele>
        <time>2025-07-21T08:47:24Z</time>
      </trkpt>
      <trkpt lat="42.94279" lon="0.85074">
        <ele>1027.2</ele>
        <time>2025-07-21T08:47:26Z</time>
      </trkpt>
      <trkpt lat="42.94274" lon="0.85061">
        <ele>1025.8</ele>
        <time>2025-07-21T08:47:27Z</time>
      </trkpt>
      <trkpt lat="42.94269" lon="0.85049">
        <ele>1025.2</ele>
        <time>2025-07-21T08:47:28Z</time>
      </trkpt>
      <trkpt lat="42.94264" lon="0.85037">
        <ele>1023.4</ele>
        <time>2025-07-21T08:47:29Z</time>
      </trkpt>
      <trkpt lat="42.9426" lon="0.85026">
        <ele>1022.6</ele>
        <time>2025-07-21T08:47:30Z</time>
      </trkpt>
      <trkpt lat="42.94259" lon="0.85015">
        <ele>1021.2</ele>
        <time>2025-07-21T08:47:31Z</time>
      </trkpt>
      <trkpt lat="42.94259" lon="0.85004">
        <ele>1020.6</ele>
        <time>2025-07-21T08:47:32Z</time>
      </trkpt>
      <trkpt lat="42.94262" lon="0.84994">
        <ele>1018.8</ele>
        <time>2025-07-21T08:47:33Z</time>
      </trkpt>
      <trkpt lat="42.94268" lon="0.84987">
        <ele>1017.4</ele>
        <time>2025-07-21T08:47:34Z</time>
      </trkpt>
      <trkpt lat="42.94274" lon="0.84983">
        <ele>1016.8</ele>
        <time>2025-07-21T08:47:35Z</time>
      </trkpt>
      <trkpt lat="42.94283" lon="0.84984">
        <ele>1015.6</ele>
        <time>2025-07-21T08:47:36Z</time>
      </trkpt>
      <trkpt lat="42.94292" lon="0.84986">
        <ele>1015</ele>
        <time>2025-07-21T08:47:37Z</time>
      </trkpt>
      <trkpt lat="42.94302" lon="0.84988">
        <ele>1013.8</ele>
        <time>2025-07-21T08:47:38Z</time>
      </trkpt>
      <trkpt lat="42.94312" lon="0.8499">
        <ele>1012.6</ele>
        <time>2025-07-21T08:47:39Z</time>
      </trkpt>
      <trkpt lat="42.94332" lon="0.84993">
        <ele>1011.2</ele>
        <time>2025-07-21T08:47:41Z</time>
      </trkpt>
      <trkpt lat="42.94342" lon="0.84995">
        <ele>1011</ele>
        <time>2025-07-21T08:47:42Z</time>
      </trkpt>
      <trkpt lat="42.94352" lon="0.84997">
        <ele>1009.8</ele>
        <time>2025-07-21T08:47:43Z</time>
      </trkpt>
      <trkpt lat="42.94362" lon="0.84999">
        <ele>1008.6</ele>
        <time>2025-07-21T08:47:44Z</time>
      </trkpt>
      <trkpt lat="42.9438" lon="0.85001">
        <ele>1007</ele>
        <time>2025-07-21T08:47:46Z</time>
      </trkpt>
      <trkpt lat="42.94389" lon="0.85">
        <ele>1006.4</ele>
        <time>2025-07-21T08:47:47Z</time>
      </trkpt>
      <trkpt lat="42.94398" lon="0.84997">
        <ele>1005.4</ele>
        <time>2025-07-21T08:47:48Z</time>
      </trkpt>
      <trkpt lat="42.94414" lon="0.8499">
        <ele>1003.6</ele>
        <time>2025-07-21T08:47:50Z</time>
      </trkpt>
      <trkpt lat="42.94422" lon="0.84984">
        <ele>1002</ele>
        <time>2025-07-21T08:47:51Z</time>
      </trkpt>
      <trkpt lat="42.94434" lon="0.84967">
        <ele>1000.4</ele>
        <time>2025-07-21T08:47:53Z</time>
      </trkpt>
      <trkpt lat="42.94438" lon="0.84955">
        <ele>1000</ele>
        <time>2025-07-21T08:47:54Z</time>
      </trkpt>
      <trkpt lat="42.94441" lon="0.84943">
        <ele>998.6</ele>
        <time>2025-07-21T08:47:55Z</time>
      </trkpt>
      <trkpt lat="42.94444" lon="0.8493">
        <ele>997.6</ele>
        <time>2025-07-21T08:47:56Z</time>
      </trkpt>
      <trkpt lat="42.94449" lon="0.84904">
        <ele>995.8</ele>
        <time>2025-07-21T08:47:58Z</time>
      </trkpt>
      <trkpt lat="42.94451" lon="0.84889">
        <ele>995</ele>
        <time>2025-07-21T08:47:59Z</time>
      </trkpt>
      <trkpt lat="42.94452" lon="0.84874">
        <ele>993.6</ele>
        <time>2025-07-21T08:48:00Z</time>
      </trkpt>
      <trkpt lat="42.94453" lon="0.84845">
        <ele>991.4</ele>
        <time>2025-07-21T08:48:02Z</time>
      </trkpt>
      <trkpt lat="42.94453" lon="0.8483">
        <ele>990</ele>
        <time>2025-07-21T08:48:03Z</time>
      </trkpt>
      <trkpt lat="42.94454" lon="0.84816">
        <ele>989.6</ele>
        <time>2025-07-21T08:48:04Z</time>
      </trkpt>
      <trkpt lat="42.94455" lon="0.84801">
        <ele>988</ele>
        <time>2025-07-21T08:48:05Z</time>
      </trkpt>
      <trkpt lat="42.94458" lon="0.84772">
        <ele>986</ele>
        <time>2025-07-21T08:48:07Z</time>
      </trkpt>
      <trkpt lat="42.94458" lon="0.84758">
        <ele>985</ele>
        <time>2025-07-21T08:48:08Z</time>
      </trkpt>
      <trkpt lat="42.94459" lon="0.84743">
        <ele>984.2</ele>
        <time>2025-07-21T08:48:09Z</time>
      </trkpt>
      <trkpt lat="42.94458" lon="0.8473">
        <ele>982.8</ele>
        <time>2025-07-21T08:48:10Z</time>
      </trkpt>
      <trkpt lat="42.94457" lon="0.84716">
        <ele>982</ele>
        <time>2025-07-21T08:48:11Z</time>
      </trkpt>
      <trkpt lat="42.94456" lon="0.84703">
        <ele>980.8</ele>
        <time>2025-07-21T08:48:12Z</time>
      </trkpt>
      <trkpt lat="42.94454" lon="0.84685">
        <ele>980.4</ele>
        <time>2025-07-21T08:48:13Z</time>
      </trkpt>
      <trkpt lat="42.94454" lon="0.84673">
        <ele>979.2</ele>
        <time>2025-07-21T08:48:14Z</time>
      </trkpt>
      <trkpt lat="42.94455" lon="0.84658">
        <ele>977.2</ele>
        <time>2025-07-21T08:48:15Z</time>
      </trkpt>
      <trkpt lat="42.9446" lon="0.84628">
        <ele>974.8</ele>
        <time>2025-07-21T08:48:17Z</time>
      </trkpt>
      <trkpt lat="42.94464" lon="0.84614">
        <ele>974.2</ele>
        <time>2025-07-21T08:48:18Z</time>
      </trkpt>
      <trkpt lat="42.94469" lon="0.84601">
        <ele>972.4</ele>
        <time>2025-07-21T08:48:19Z</time>
      </trkpt>
      <trkpt lat="42.94475" lon="0.84588">
        <ele>971.2</ele>
        <time>2025-07-21T08:48:20Z</time>
      </trkpt>
      <trkpt lat="42.9448" lon="0.84576">
        <ele>970.8</ele>
        <time>2025-07-21T08:48:21Z</time>
      </trkpt>
      <trkpt lat="42.94484" lon="0.84563">
        <ele>969.4</ele>
        <time>2025-07-21T08:48:22Z</time>
      </trkpt>
      <trkpt lat="42.94487" lon="0.8455">
        <ele>968.6</ele>
        <time>2025-07-21T08:48:23Z</time>
      </trkpt>
      <trkpt lat="42.94489" lon="0.84536">
        <ele>967.2</ele>
        <time>2025-07-21T08:48:24Z</time>
      </trkpt>
      <trkpt lat="42.94491" lon="0.84523">
        <ele>966.6</ele>
        <time>2025-07-21T08:48:25Z</time>
      </trkpt>
      <trkpt lat="42.94493" lon="0.8451">
        <ele>965</ele>
        <time>2025-07-21T08:48:26Z</time>
      </trkpt>
      <trkpt lat="42.94496" lon="0.84498">
        <ele>963.8</ele>
        <time>2025-07-21T08:48:27Z</time>
      </trkpt>
      <trkpt lat="42.945" lon="0.84475">
        <ele>961.8</ele>
        <time>2025-07-21T08:48:29Z</time>
      </trkpt>
      <trkpt lat="42.94498" lon="0.84466">
        <ele>960.6</ele>
        <time>2025-07-21T08:48:30Z</time>
      </trkpt>
      <trkpt lat="42.94494" lon="0.84457">
        <ele>959</ele>
        <time>2025-07-21T08:48:31Z</time>
      </trkpt>
      <trkpt lat="42.94487" lon="0.84448">
        <ele>957.6</ele>
        <time>2025-07-21T08:48:32Z</time>
      </trkpt>
      <trkpt lat="42.94483" lon="0.84438">
        <ele>957</ele>
        <time>2025-07-21T08:48:33Z</time>
      </trkpt>
      <trkpt lat="42.9448" lon="0.84428">
        <ele>955.6</ele>
        <time>2025-07-21T08:48:34Z</time>
      </trkpt>
      <trkpt lat="42.94477" lon="0.84416">
        <ele>955.2</ele>
        <time>2025-07-21T08:48:35Z</time>
      </trkpt>
      <trkpt lat="42.94475" lon="0.84403">
        <ele>954</ele>
        <time>2025-07-21T08:48:36Z</time>
      </trkpt>
      <trkpt lat="42.94473" lon="0.8439">
        <ele>953.2</ele>
        <time>2025-07-21T08:48:37Z</time>
      </trkpt>
      <trkpt lat="42.94471" lon="0.84377">
        <ele>952</ele>
        <time>2025-07-21T08:48:38Z</time>
      </trkpt>
      <trkpt lat="42.94468" lon="0.84364">
        <ele>950.8</ele>
        <time>2025-07-21T08:48:39Z</time>
      </trkpt>
      <trkpt lat="42.94455" lon="0.84336">
        <ele>949</ele>
        <time>2025-07-21T08:48:41Z</time>
      </trkpt>
      <trkpt lat="42.94433" lon="0.8431">
        <ele>947</ele>
        <time>2025-07-21T08:48:43Z</time>
      </trkpt>
      <trkpt lat="42.94425" lon="0.84299">
        <ele>946</ele>
        <time>2025-07-21T08:48:44Z</time>
      </trkpt>
      <trkpt lat="42.94415" lon="0.84283">
        <ele>945.2</ele>
        <time>2025-07-21T08:48:45Z</time>
      </trkpt>
      <trkpt lat="42.94406" lon="0.84275">
        <ele>943.6</ele>
        <time>2025-07-21T08:48:46Z</time>
      </trkpt>
      <trkpt lat="42.94397" lon="0.84269">
        <ele>942.8</ele>
        <time>2025-07-21T08:48:47Z</time>
      </trkpt>
      <trkpt lat="42.94391" lon="0.84265">
        <ele>941.6</ele>
        <time>2025-07-21T08:48:48Z</time>
      </trkpt>
      <trkpt lat="42.94386" lon="0.8426">
        <ele>939.8</ele>
        <time>2025-07-21T08:48:49Z</time>
      </trkpt>
      <trkpt lat="42.94384" lon="0.84254">
        <ele>938.8</ele>
        <time>2025-07-21T08:48:50Z</time>
      </trkpt>
      <trkpt lat="42.94385" lon="0.84247">
        <ele>937.4</ele>
        <time>2025-07-21T08:48:51Z</time>
      </trkpt>
      <trkpt lat="42.94392" lon="0.84238">
        <ele>936.8</ele>
        <time>2025-07-21T08:48:52Z</time>
      </trkpt>
      <trkpt lat="42.94396" lon="0.84229">
        <ele>935.6</ele>
        <time>2025-07-21T08:48:53Z</time>
      </trkpt>
      <trkpt lat="42.944" lon="0.84219">
        <ele>935</ele>
        <time>2025-07-21T08:48:54Z</time>
      </trkpt>
      <trkpt lat="42.94402" lon="0.84207">
        <ele>933.8</ele>
        <time>2025-07-21T08:48:55Z</time>
      </trkpt>
      <trkpt lat="42.94404" lon="0.84181">
        <ele>932.4</ele>
        <time>2025-07-21T08:48:57Z</time>
      </trkpt>
      <trkpt lat="42.94398" lon="0.84154">
        <ele>930.6</ele>
        <time>2025-07-21T08:48:59Z</time>
      </trkpt>
      <trkpt lat="42.94392" lon="0.84139">
        <ele>929.6</ele>
        <time>2025-07-21T08:49:00Z</time>
      </trkpt>
      <trkpt lat="42.94385" lon="0.84125">
        <ele>928.4</ele>
        <time>2025-07-21T08:49:01Z</time>
      </trkpt>
      <trkpt lat="42.94369" lon="0.84098">
        <ele>926.4</ele>
        <time>2025-07-21T08:49:03Z</time>
      </trkpt>
      <trkpt lat="42.94359" lon="0.84085">
        <ele>925.8</ele>
        <time>2025-07-21T08:49:04Z</time>
      </trkpt>
      <trkpt lat="42.94351" lon="0.84073">
        <ele>924.2</ele>
        <time>2025-07-21T08:49:05Z</time>
      </trkpt>
      <trkpt lat="42.94334" lon="0.84048">
        <ele>922.2</ele>
        <time>2025-07-21T08:49:07Z</time>
      </trkpt>
      <trkpt lat="42.94328" lon="0.84035">
        <ele>920.6</ele>
        <time>2025-07-21T08:49:08Z</time>
      </trkpt>
      <trkpt lat="42.94323" lon="0.84021">
        <ele>919.6</ele>
        <time>2025-07-21T08:49:09Z</time>
      </trkpt>
      <trkpt lat="42.94319" lon="0.84008">
        <ele>918</ele>
        <time>2025-07-21T08:49:10Z</time>
      </trkpt>
      <trkpt lat="42.94313" lon="0.8398">
        <ele>916.2</ele>
        <time>2025-07-21T08:49:12Z</time>
      </trkpt>
      <trkpt lat="42.94309" lon="0.83968">
        <ele>914.4</ele>
        <time>2025-07-21T08:49:13Z</time>
      </trkpt>
      <trkpt lat="42.94295" lon="0.83949">
        <ele>912.2</ele>
        <time>2025-07-21T08:49:15Z</time>
      </trkpt>
      <trkpt lat="42.94284" lon="0.8394">
        <ele>911.6</ele>
        <time>2025-07-21T08:49:16Z</time>
      </trkpt>
      <trkpt lat="42.94274" lon="0.83928">
        <ele>910</ele>
        <time>2025-07-21T08:49:17Z</time>
      </trkpt>
      <trkpt lat="42.94258" lon="0.8392">
        <ele>908.4</ele>
        <time>2025-07-21T08:49:19Z</time>
      </trkpt>
      <trkpt lat="42.94252" lon="0.83917">
        <ele>907</ele>
        <time>2025-07-21T08:49:20Z</time>
      </trkpt>
      <trkpt lat="42.94248" lon="0.83913">
        <ele>906.2</ele>
        <time>2025-07-21T08:49:21Z</time>
      </trkpt>
      <trkpt lat="42.94246" lon="0.83906">
        <ele>904.8</ele>
        <time>2025-07-21T08:49:22Z</time>
      </trkpt>
      <trkpt lat="42.9425" lon="0.83899">
        <ele>903.8</ele>
        <time>2025-07-21T08:49:23Z</time>
      </trkpt>
      <trkpt lat="42.94253" lon="0.8389">
        <ele>902.6</ele>
        <time>2025-07-21T08:49:24Z</time>
      </trkpt>
      <trkpt lat="42.9426" lon="0.83883">
        <ele>901</ele>
        <time>2025-07-21T08:49:25Z</time>
      </trkpt>
      <trkpt lat="42.94277" lon="0.83873">
        <ele>899.6</ele>
        <time>2025-07-21T08:49:27Z</time>
      </trkpt>
      <trkpt lat="42.94297" lon="0.83866">
        <ele>898</ele>
        <time>2025-07-21T08:49:29Z</time>
      </trkpt>
      <trkpt lat="42.94307" lon="0.83861">
        <ele>896.8</ele>
        <time>2025-07-21T08:49:30Z</time>
      </trkpt>
      <trkpt lat="42.94326" lon="0.83852">
        <ele>895</ele>
        <time>2025-07-21T08:49:32Z</time>
      </trkpt>
      <trkpt lat="42.94333" lon="0.83845">
        <ele>894.4</ele>
        <time>2025-07-21T08:49:33Z</time>
      </trkpt>
      <trkpt lat="42.94338" lon="0.83837">
        <ele>893.2</ele>
        <time>2025-07-21T08:49:34Z</time>
      </trkpt>
      <trkpt lat="42.94339" lon="0.83826">
        <ele>892.6</ele>
        <time>2025-07-21T08:49:35Z</time>
      </trkpt>
      <trkpt lat="42.9434" lon="0.83815">
        <ele>891.4</ele>
        <time>2025-07-21T08:49:36Z</time>
      </trkpt>
      <trkpt lat="42.9434" lon="0.83805">
        <ele>890.2</ele>
        <time>2025-07-21T08:49:37Z</time>
      </trkpt>
      <trkpt lat="42.94333" lon="0.83783">
        <ele>889.2</ele>
        <time>2025-07-21T08:49:39Z</time>
      </trkpt>
      <trkpt lat="42.94329" lon="0.83771">
        <ele>888.8</ele>
        <time>2025-07-21T08:49:40Z</time>
      </trkpt>
      <trkpt lat="42.94324" lon="0.8376">
        <ele>887.8</ele>
        <time>2025-07-21T08:49:41Z</time>
      </trkpt>
      <trkpt lat="42.94313" lon="0.83735">
        <ele>886.4</ele>
        <time>2025-07-21T08:49:43Z</time>
      </trkpt>
      <trkpt lat="42.94308" lon="0.83723">
        <ele>885.2</ele>
        <time>2025-07-21T08:49:44Z</time>
      </trkpt>
      <trkpt lat="42.94304" lon="0.8371">
        <ele>884.8</ele>
        <time>2025-07-21T08:49:45Z</time>
      </trkpt>
      <trkpt lat="42.94301" lon="0.83697">
        <ele>883.4</ele>
        <time>2025-07-21T08:49:46Z</time>
      </trkpt>
      <trkpt lat="42.94299" lon="0.83685">
        <ele>882.6</ele>
        <time>2025-07-21T08:49:47Z</time>
      </trkpt>
      <trkpt lat="42.94298" lon="0.83672">
        <ele>881.4</ele>
        <time>2025-07-21T08:49:48Z</time>
      </trkpt>
      <trkpt lat="42.94297" lon="0.83658">
        <ele>880</ele>
        <time>2025-07-21T08:49:49Z</time>
      </trkpt>
      <trkpt lat="42.94293" lon="0.8363">
        <ele>878.2</ele>
        <time>2025-07-21T08:49:51Z</time>
      </trkpt>
      <trkpt lat="42.94292" lon="0.83618">
        <ele>877.4</ele>
        <time>2025-07-21T08:49:52Z</time>
      </trkpt>
      <trkpt lat="42.94291" lon="0.83608">
        <ele>876.2</ele>
        <time>2025-07-21T08:49:53Z</time>
      </trkpt>
      <trkpt lat="42.9429" lon="0.83599">
        <ele>874.8</ele>
        <time>2025-07-21T08:49:54Z</time>
      </trkpt>
      <trkpt lat="42.94285" lon="0.83589">
        <ele>874</ele>
        <time>2025-07-21T08:49:55Z</time>
      </trkpt>
      <trkpt lat="42.94279" lon="0.83581">
        <ele>872.8</ele>
        <time>2025-07-21T08:49:56Z</time>
      </trkpt>
      <trkpt lat="42.94274" lon="0.83578">
        <ele>872.2</ele>
        <time>2025-07-21T08:49:57Z</time>
      </trkpt>
      <trkpt lat="42.94268" lon="0.83578">
        <ele>871</ele>
        <time>2025-07-21T08:49:58Z</time>
      </trkpt>
      <trkpt lat="42.94252" lon="0.83578">
        <ele>869.6</ele>
        <time>2025-07-21T08:50:00Z</time>
      </trkpt>
      <trkpt lat="42.94228" lon="0.83574">
        <ele>868.4</ele>
        <time>2025-07-21T08:50:02Z</time>
      </trkpt>
      <trkpt lat="42.94217" lon="0.83569">
        <ele>867.2</ele>
        <time>2025-07-21T08:50:03Z</time>
      </trkpt>
      <trkpt lat="42.94206" lon="0.83563">
        <ele>866.6</ele>
        <time>2025-07-21T08:50:04Z</time>
      </trkpt>
      <trkpt lat="42.94195" lon="0.83557">
        <ele>865.8</ele>
        <time>2025-07-21T08:50:05Z</time>
      </trkpt>
      <trkpt lat="42.94173" lon="0.83542">
        <ele>864.4</ele>
        <time>2025-07-21T08:50:07Z</time>
      </trkpt>
      <trkpt lat="42.94165" lon="0.83536">
        <ele>863.4</ele>
        <time>2025-07-21T08:50:08Z</time>
      </trkpt>
      <trkpt lat="42.94157" lon="0.83529">
        <ele>862.8</ele>
        <time>2025-07-21T08:50:09Z</time>
      </trkpt>
      <trkpt lat="42.94151" lon="0.83522">
        <ele>861.6</ele>
        <time>2025-07-21T08:50:10Z</time>
      </trkpt>
      <trkpt lat="42.94146" lon="0.83516">
        <ele>860.4</ele>
        <time>2025-07-21T08:50:11Z</time>
      </trkpt>
      <trkpt lat="42.94142" lon="0.83511">
        <ele>860</ele>
        <time>2025-07-21T08:50:12Z</time>
      </trkpt>
      <trkpt lat="42.94141" lon="0.83506">
        <ele>858.6</ele>
        <time>2025-07-21T08:50:13Z</time>
      </trkpt>
      <trkpt lat="42.94148" lon="0.83504">
        <ele>857</ele>
        <time>2025-07-21T08:50:15Z</time>
      </trkpt>
      <trkpt lat="42.94153" lon="0.83507">
        <ele>856.2</ele>
        <time>2025-07-21T08:50:16Z</time>
      </trkpt>
      <trkpt lat="42.94157" lon="0.83509">
        <ele>855</ele>
        <time>2025-07-21T08:50:17Z</time>
      </trkpt>
      <trkpt lat="42.94168" lon="0.83515">
        <ele>854.2</ele>
        <time>2025-07-21T08:50:19Z</time>
      </trkpt>
      <trkpt lat="42.94175" lon="0.83518">
        <ele>853.4</ele>
        <time>2025-07-21T08:50:20Z</time>
      </trkpt>
      <trkpt lat="42.94182" lon="0.8352">
        <ele>853.2</ele>
        <time>2025-07-21T08:50:21Z</time>
      </trkpt>
      <trkpt lat="42.94197" lon="0.83521">
        <ele>852</ele>
        <time>2025-07-21T08:50:23Z</time>
      </trkpt>
      <trkpt lat="42.94205" lon="0.83521">
        <ele>851.6</ele>
        <time>2025-07-21T08:50:24Z</time>
      </trkpt>
      <trkpt lat="42.94213" lon="0.83518">
        <ele>850.8</ele>
        <time>2025-07-21T08:50:25Z</time>
      </trkpt>
      <trkpt lat="42.94222" lon="0.83512">
        <ele>850.2</ele>
        <time>2025-07-21T08:50:26Z</time>
      </trkpt>
      <trkpt lat="42.94231" lon="0.83509">
        <ele>849.2</ele>
        <time>2025-07-21T08:50:27Z</time>
      </trkpt>
      <trkpt lat="42.94241" lon="0.83506">
        <ele>848.6</ele>
        <time>2025-07-21T08:50:28Z</time>
      </trkpt>
      <trkpt lat="42.94252" lon="0.83502">
        <ele>847.4</ele>
        <time>2025-07-21T08:50:29Z</time>
      </trkpt>
      <trkpt lat="42.94262" lon="0.83496">
        <ele>846.2</ele>
        <time>2025-07-21T08:50:30Z</time>
      </trkpt>
      <trkpt lat="42.94273" lon="0.83491">
        <ele>845.2</ele>
        <time>2025-07-21T08:50:31Z</time>
      </trkpt>
      <trkpt lat="42.94283" lon="0.83486">
        <ele>843.2</ele>
        <time>2025-07-21T08:50:32Z</time>
      </trkpt>
      <trkpt lat="42.94304" lon="0.83474">
        <ele>840.8</ele>
        <time>2025-07-21T08:50:34Z</time>
      </trkpt>
      <trkpt lat="42.94313" lon="0.83468">
        <ele>838.8</ele>
        <time>2025-07-21T08:50:35Z</time>
      </trkpt>
      <trkpt lat="42.94323" lon="0.8346">
        <ele>837.8</ele>
        <time>2025-07-21T08:50:36Z</time>
      </trkpt>
      <trkpt lat="42.94333" lon="0.83453">
        <ele>836</ele>
        <time>2025-07-21T08:50:37Z</time>
      </trkpt>
      <trkpt lat="42.9434" lon="0.83443">
        <ele>834.8</ele>
        <time>2025-07-21T08:50:38Z</time>
      </trkpt>
      <trkpt lat="42.94349" lon="0.83427">
        <ele>832.6</ele>
        <time>2025-07-21T08:50:39Z</time>
      </trkpt>
      <trkpt lat="42.94354" lon="0.83412">
        <ele>831.4</ele>
        <time>2025-07-21T08:50:40Z</time>
      </trkpt>
      <trkpt lat="42.94365" lon="0.83383">
        <ele>828.8</ele>
        <time>2025-07-21T08:50:42Z</time>
      </trkpt>
      <trkpt lat="42.94372" lon="0.83371">
        <ele>827.8</ele>
        <time>2025-07-21T08:50:43Z</time>
      </trkpt>
      <trkpt lat="42.94378" lon="0.83357">
        <ele>826</ele>
        <time>2025-07-21T08:50:44Z</time>
      </trkpt>
      <trkpt lat="42.94391" lon="0.83331">
        <ele>823.4</ele>
        <time>2025-07-21T08:50:46Z</time>
      </trkpt>
      <trkpt lat="42.94398" lon="0.83319">
        <ele>821.8</ele>
        <time>2025-07-21T08:50:47Z</time>
      </trkpt>
      <trkpt lat="42.94404" lon="0.83307">
        <ele>821</ele>
        <time>2025-07-21T08:50:48Z</time>
      </trkpt>
      <trkpt lat="42.94411" lon="0.83294">
        <ele>819.8</ele>
        <time>2025-07-21T08:50:49Z</time>
      </trkpt>
      <trkpt lat="42.94423" lon="0.8327">
        <ele>817.4</ele>
        <time>2025-07-21T08:50:51Z</time>
      </trkpt>
      <trkpt lat="42.94427" lon="0.83257">
        <ele>816</ele>
        <time>2025-07-21T08:50:52Z</time>
      </trkpt>
      <trkpt lat="42.94432" lon="0.83246">
        <ele>815.4</ele>
        <time>2025-07-21T08:50:53Z</time>
      </trkpt>
      <trkpt lat="42.94439" lon="0.83236">
        <ele>813.8</ele>
        <time>2025-07-21T08:50:54Z</time>
      </trkpt>
      <trkpt lat="42.94454" lon="0.83217">
        <ele>811.4</ele>
        <time>2025-07-21T08:50:56Z</time>
      </trkpt>
      <trkpt lat="42.9447" lon="0.83202">
        <ele>809.4</ele>
        <time>2025-07-21T08:50:58Z</time>
      </trkpt>
      <trkpt lat="42.94479" lon="0.83194">
        <ele>808</ele>
        <time>2025-07-21T08:50:59Z</time>
      </trkpt>
      <trkpt lat="42.94489" lon="0.83183">
        <ele>807</ele>
        <time>2025-07-21T08:51:00Z</time>
      </trkpt>
      <trkpt lat="42.94495" lon="0.83172">
        <ele>805.8</ele>
        <time>2025-07-21T08:51:01Z</time>
      </trkpt>
      <trkpt lat="42.94507" lon="0.83151">
        <ele>803.4</ele>
        <time>2025-07-21T08:51:03Z</time>
      </trkpt>
      <trkpt lat="42.94514" lon="0.8314">
        <ele>801.4</ele>
        <time>2025-07-21T08:51:04Z</time>
      </trkpt>
      <trkpt lat="42.94523" lon="0.8313">
        <ele>800.4</ele>
        <time>2025-07-21T08:51:05Z</time>
      </trkpt>
      <trkpt lat="42.9453" lon="0.83122">
        <ele>798.2</ele>
        <time>2025-07-21T08:51:06Z</time>
      </trkpt>
      <trkpt lat="42.94536" lon="0.83113">
        <ele>796.8</ele>
        <time>2025-07-21T08:51:07Z</time>
      </trkpt>
      <trkpt lat="42.9454" lon="0.83102">
        <ele>794.6</ele>
        <time>2025-07-21T08:51:08Z</time>
      </trkpt>
      <trkpt lat="42.94543" lon="0.8309">
        <ele>792.4</ele>
        <time>2025-07-21T08:51:09Z</time>
      </trkpt>
      <trkpt lat="42.94543" lon="0.8308">
        <ele>791.2</ele>
        <time>2025-07-21T08:51:10Z</time>
      </trkpt>
      <trkpt lat="42.94544" lon="0.83065">
        <ele>789.4</ele>
        <time>2025-07-21T08:51:11Z</time>
      </trkpt>
      <trkpt lat="42.94547" lon="0.83037">
        <ele>786.6</ele>
        <time>2025-07-21T08:51:13Z</time>
      </trkpt>
      <trkpt lat="42.94553" lon="0.83004">
        <ele>784.2</ele>
        <time>2025-07-21T08:51:15Z</time>
      </trkpt>
      <trkpt lat="42.94557" lon="0.8299">
        <ele>782.4</ele>
        <time>2025-07-21T08:51:16Z</time>
      </trkpt>
      <trkpt lat="42.94564" lon="0.82963">
        <ele>780</ele>
        <time>2025-07-21T08:51:18Z</time>
      </trkpt>
      <trkpt lat="42.94569" lon="0.82946">
        <ele>778.8</ele>
        <time>2025-07-21T08:51:19Z</time>
      </trkpt>
      <trkpt lat="42.94571" lon="0.82932">
        <ele>777</ele>
        <time>2025-07-21T08:51:20Z</time>
      </trkpt>
      <trkpt lat="42.94571" lon="0.82917">
        <ele>775.4</ele>
        <time>2025-07-21T08:51:21Z</time>
      </trkpt>
      <trkpt lat="42.94571" lon="0.82888">
        <ele>773.4</ele>
        <time>2025-07-21T08:51:23Z</time>
      </trkpt>
      <trkpt lat="42.94571" lon="0.82873">
        <ele>772.8</ele>
        <time>2025-07-21T08:51:24Z</time>
      </trkpt>
      <trkpt lat="42.94572" lon="0.82859">
        <ele>771.6</ele>
        <time>2025-07-21T08:51:25Z</time>
      </trkpt>
      <trkpt lat="42.94571" lon="0.82847">
        <ele>770.2</ele>
        <time>2025-07-21T08:51:26Z</time>
      </trkpt>
      <trkpt lat="42.94573" lon="0.82831">
        <ele>769.6</ele>
        <time>2025-07-21T08:51:27Z</time>
      </trkpt>
      <trkpt lat="42.94578" lon="0.82816">
        <ele>768.2</ele>
        <time>2025-07-21T08:51:28Z</time>
      </trkpt>
      <trkpt lat="42.94586" lon="0.82805">
        <ele>767.4</ele>
        <time>2025-07-21T08:51:29Z</time>
      </trkpt>
      <trkpt lat="42.94592" lon="0.82792">
        <ele>766.4</ele>
        <time>2025-07-21T08:51:30Z</time>
      </trkpt>
      <trkpt lat="42.94595" lon="0.82778">
        <ele>766</ele>
        <time>2025-07-21T08:51:31Z</time>
      </trkpt>
      <trkpt lat="42.94596" lon="0.82764">
        <ele>764.8</ele>
        <time>2025-07-21T08:51:32Z</time>
      </trkpt>
      <trkpt lat="42.94595" lon="0.82749">
        <ele>763.6</ele>
        <time>2025-07-21T08:51:33Z</time>
      </trkpt>
      <trkpt lat="42.94593" lon="0.82722">
        <ele>762</ele>
        <time>2025-07-21T08:51:35Z</time>
      </trkpt>
      <trkpt lat="42.94598" lon="0.82711">
        <ele>761.4</ele>
        <time>2025-07-21T08:51:36Z</time>
      </trkpt>
      <trkpt lat="42.94603" lon="0.82704">
        <ele>759.6</ele>
        <time>2025-07-21T08:51:37Z</time>
      </trkpt>
      <trkpt lat="42.94612" lon="0.82699">
        <ele>758</ele>
        <time>2025-07-21T08:51:38Z</time>
      </trkpt>
      <trkpt lat="42.94622" lon="0.82695">
        <ele>757.4</ele>
        <time>2025-07-21T08:51:39Z</time>
      </trkpt>
      <trkpt lat="42.94631" lon="0.82688">
        <ele>756.2</ele>
        <time>2025-07-21T08:51:40Z</time>
      </trkpt>
      <trkpt lat="42.94639" lon="0.82678">
        <ele>755.4</ele>
        <time>2025-07-21T08:51:41Z</time>
      </trkpt>
      <trkpt lat="42.94646" lon="0.82669">
        <ele>754.4</ele>
        <time>2025-07-21T08:51:42Z</time>
      </trkpt>
      <trkpt lat="42.94653" lon="0.82656">
        <ele>753</ele>
        <time>2025-07-21T08:51:43Z</time>
      </trkpt>
      <trkpt lat="42.94672" lon="0.82629">
        <ele>750.8</ele>
        <time>2025-07-21T08:51:45Z</time>
      </trkpt>
      <trkpt lat="42.9468" lon="0.82612">
        <ele>750.4</ele>
        <time>2025-07-21T08:51:46Z</time>
      </trkpt>
      <trkpt lat="42.9469" lon="0.82597">
        <ele>749.6</ele>
        <time>2025-07-21T08:51:47Z</time>
      </trkpt>
      <trkpt lat="42.9471" lon="0.82569">
        <ele>747.4</ele>
        <time>2025-07-21T08:51:49Z</time>
      </trkpt>
      <trkpt lat="42.94715" lon="0.82553">
        <ele>746</ele>
        <time>2025-07-21T08:51:50Z</time>
      </trkpt>
      <trkpt lat="42.94727" lon="0.82525">
        <ele>744.2</ele>
        <time>2025-07-21T08:51:52Z</time>
      </trkpt>
      <trkpt lat="42.94737" lon="0.82508">
        <ele>743.8</ele>
        <time>2025-07-21T08:51:53Z</time>
      </trkpt>
      <trkpt lat="42.94745" lon="0.82494">
        <ele>742.6</ele>
        <time>2025-07-21T08:51:54Z</time>
      </trkpt>
      <trkpt lat="42.94754" lon="0.82482">
        <ele>741</ele>
        <time>2025-07-21T08:51:55Z</time>
      </trkpt>
      <trkpt lat="42.94768" lon="0.82459">
        <ele>739.4</ele>
        <time>2025-07-21T08:51:57Z</time>
      </trkpt>
      <trkpt lat="42.94779" lon="0.82448">
        <ele>738.8</ele>
        <time>2025-07-21T08:51:58Z</time>
      </trkpt>
      <trkpt lat="42.94789" lon="0.8244">
        <ele>737.6</ele>
        <time>2025-07-21T08:51:59Z</time>
      </trkpt>
      <trkpt lat="42.94801" lon="0.82428">
        <ele>736</ele>
        <time>2025-07-21T08:52:00Z</time>
      </trkpt>
      <trkpt lat="42.94818" lon="0.82414">
        <ele>733.6</ele>
        <time>2025-07-21T08:52:02Z</time>
      </trkpt>
      <trkpt lat="42.94831" lon="0.82395">
        <ele>730.6</ele>
        <time>2025-07-21T08:52:04Z</time>
      </trkpt>
      <trkpt lat="42.94843" lon="0.82368">
        <ele>727.8</ele>
        <time>2025-07-21T08:52:06Z</time>
      </trkpt>
      <trkpt lat="42.94848" lon="0.82354">
        <ele>726.2</ele>
        <time>2025-07-21T08:52:07Z</time>
      </trkpt>
      <trkpt lat="42.94858" lon="0.82328">
        <ele>723.6</ele>
        <time>2025-07-21T08:52:09Z</time>
      </trkpt>
      <trkpt lat="42.94864" lon="0.82318">
        <ele>722.6</ele>
        <time>2025-07-21T08:52:10Z</time>
      </trkpt>
      <trkpt lat="42.94871" lon="0.82309">
        <ele>721</ele>
        <time>2025-07-21T08:52:11Z</time>
      </trkpt>
      <trkpt lat="42.94878" lon="0.82302">
        <ele>719.8</ele>
        <time>2025-07-21T08:52:12Z</time>
      </trkpt>
      <trkpt lat="42.9489" lon="0.82289">
        <ele>717.2</ele>
        <time>2025-07-21T08:52:14Z</time>
      </trkpt>
      <trkpt lat="42.94893" lon="0.82271">
        <ele>715.4</ele>
        <time>2025-07-21T08:52:16Z</time>
      </trkpt>
      <trkpt lat="42.94891" lon="0.82254">
        <ele>713.6</ele>
        <time>2025-07-21T08:52:18Z</time>
      </trkpt>
      <trkpt lat="42.9489" lon="0.82242">
        <ele>712.4</ele>
        <time>2025-07-21T08:52:19Z</time>
      </trkpt>
      <trkpt lat="42.94887" lon="0.82219">
        <ele>710.8</ele>
        <time>2025-07-21T08:52:21Z</time>
      </trkpt>
      <trkpt lat="42.94883" lon="0.82191">
        <ele>709.4</ele>
        <time>2025-07-21T08:52:23Z</time>
      </trkpt>
      <trkpt lat="42.94878" lon="0.82158">
        <ele>708</ele>
        <time>2025-07-21T08:52:25Z</time>
      </trkpt>
      <trkpt lat="42.94876" lon="0.82147">
        <ele>707</ele>
        <time>2025-07-21T08:52:26Z</time>
      </trkpt>
      <trkpt lat="42.94874" lon="0.82132">
        <ele>706.4</ele>
        <time>2025-07-21T08:52:27Z</time>
      </trkpt>
      <trkpt lat="42.94871" lon="0.82116">
        <ele>705.4</ele>
        <time>2025-07-21T08:52:28Z</time>
      </trkpt>
      <trkpt lat="42.94867" lon="0.82099">
        <ele>704.6</ele>
        <time>2025-07-21T08:52:29Z</time>
      </trkpt>
      <trkpt lat="42.9487" lon="0.8208">
        <ele>703.8</ele>
        <time>2025-07-21T08:52:30Z</time>
      </trkpt>
      <trkpt lat="42.94892" lon="0.82062">
        <ele>702.4</ele>
        <time>2025-07-21T08:52:31Z</time>
      </trkpt>
      <trkpt lat="42.949" lon="0.82025">
        <ele>700.8</ele>
        <time>2025-07-21T08:52:33Z</time>
      </trkpt>
      <trkpt lat="42.94901" lon="0.81991">
        <ele>698.6</ele>
        <time>2025-07-21T08:52:35Z</time>
      </trkpt>
      <trkpt lat="42.94901" lon="0.81975">
        <ele>697.2</ele>
        <time>2025-07-21T08:52:36Z</time>
      </trkpt>
      <trkpt lat="42.94901" lon="0.8196">
        <ele>696.6</ele>
        <time>2025-07-21T08:52:37Z</time>
      </trkpt>
      <trkpt lat="42.94902" lon="0.81946">
        <ele>695.4</ele>
        <time>2025-07-21T08:52:38Z</time>
      </trkpt>
      <trkpt lat="42.94912" lon="0.8193">
        <ele>694.8</ele>
        <time>2025-07-21T08:52:39Z</time>
      </trkpt>
      <trkpt lat="42.94919" lon="0.81917">
        <ele>692.6</ele>
        <time>2025-07-21T08:52:40Z</time>
      </trkpt>
      <trkpt lat="42.94929" lon="0.81904">
        <ele>691</ele>
        <time>2025-07-21T08:52:41Z</time>
      </trkpt>
      <trkpt lat="42.94943" lon="0.81888">
        <ele>688.4</ele>
        <time>2025-07-21T08:52:43Z</time>
      </trkpt>
      <trkpt lat="42.94957" lon="0.81872">
        <ele>686.2</ele>
        <time>2025-07-21T08:52:45Z</time>
      </trkpt>
      <trkpt lat="42.94963" lon="0.81866">
        <ele>685</ele>
        <time>2025-07-21T08:52:46Z</time>
      </trkpt>
      <trkpt lat="42.94973" lon="0.81862">
        <ele>684.4</ele>
        <time>2025-07-21T08:52:47Z</time>
      </trkpt>
      <trkpt lat="42.94984" lon="0.81861">
        <ele>682.6</ele>
        <time>2025-07-21T08:52:48Z</time>
      </trkpt>
      <trkpt lat="42.95003" lon="0.81859">
        <ele>680.2</ele>
        <time>2025-07-21T08:52:50Z</time>
      </trkpt>
      <trkpt lat="42.95021" lon="0.81854">
        <ele>678</ele>
        <time>2025-07-21T08:52:52Z</time>
      </trkpt>
      <trkpt lat="42.9503" lon="0.8185">
        <ele>676.4</ele>
        <time>2025-07-21T08:52:53Z</time>
      </trkpt>
      <trkpt lat="42.9504" lon="0.81844">
        <ele>675.4</ele>
        <time>2025-07-21T08:52:54Z</time>
      </trkpt>
      <trkpt lat="42.9505" lon="0.81837">
        <ele>673.8</ele>
        <time>2025-07-21T08:52:55Z</time>
      </trkpt>
      <trkpt lat="42.95068" lon="0.81826">
        <ele>671.6</ele>
        <time>2025-07-21T08:52:57Z</time>
      </trkpt>
      <trkpt lat="42.95075" lon="0.8182">
        <ele>669.8</ele>
        <time>2025-07-21T08:52:58Z</time>
      </trkpt>
      <trkpt lat="42.9508" lon="0.81813">
        <ele>669</ele>
        <time>2025-07-21T08:52:59Z</time>
      </trkpt>
      <trkpt lat="42.95084" lon="0.81804">
        <ele>667.6</ele>
        <time>2025-07-21T08:53:00Z</time>
      </trkpt>
      <trkpt lat="42.95085" lon="0.81792">
        <ele>667.2</ele>
        <time>2025-07-21T08:53:01Z</time>
      </trkpt>
      <trkpt lat="42.95084" lon="0.81781">
        <ele>665.6</ele>
        <time>2025-07-21T08:53:02Z</time>
      </trkpt>
      <trkpt lat="42.9508" lon="0.81769">
        <ele>664.4</ele>
        <time>2025-07-21T08:53:03Z</time>
      </trkpt>
      <trkpt lat="42.95062" lon="0.8174">
        <ele>662.6</ele>
        <time>2025-07-21T08:53:05Z</time>
      </trkpt>
      <trkpt lat="42.95049" lon="0.81709">
        <ele>660.2</ele>
        <time>2025-07-21T08:53:07Z</time>
      </trkpt>
      <trkpt lat="42.95039" lon="0.8168">
        <ele>657.4</ele>
        <time>2025-07-21T08:53:09Z</time>
      </trkpt>
      <trkpt lat="42.95033" lon="0.81666">
        <ele>655.8</ele>
        <time>2025-07-21T08:53:10Z</time>
      </trkpt>
      <trkpt lat="42.95027" lon="0.81653">
        <ele>654.6</ele>
        <time>2025-07-21T08:53:11Z</time>
      </trkpt>
      <trkpt lat="42.95021" lon="0.81641">
        <ele>652</ele>
        <time>2025-07-21T08:53:12Z</time>
      </trkpt>
      <trkpt lat="42.95014" lon="0.81631">
        <ele>651.2</ele>
        <time>2025-07-21T08:53:13Z</time>
      </trkpt>
      <trkpt lat="42.95006" lon="0.81622">
        <ele>649</ele>
        <time>2025-07-21T08:53:14Z</time>
      </trkpt>
      <trkpt lat="42.94996" lon="0.81615">
        <ele>647</ele>
        <time>2025-07-21T08:53:15Z</time>
      </trkpt>
      <trkpt lat="42.94984" lon="0.8161">
        <ele>646.2</ele>
        <time>2025-07-21T08:53:16Z</time>
      </trkpt>
      <trkpt lat="42.94972" lon="0.81607">
        <ele>644.4</ele>
        <time>2025-07-21T08:53:17Z</time>
      </trkpt>
      <trkpt lat="42.9496" lon="0.81606">
        <ele>643.8</ele>
        <time>2025-07-21T08:53:18Z</time>
      </trkpt>
      <trkpt lat="42.94949" lon="0.81607">
        <ele>642</ele>
        <time>2025-07-21T08:53:19Z</time>
      </trkpt>
      <trkpt lat="42.94937" lon="0.81609">
        <ele>641.2</ele>
        <time>2025-07-21T08:53:20Z</time>
      </trkpt>
      <trkpt lat="42.94927" lon="0.81614">
        <ele>639.6</ele>
        <time>2025-07-21T08:53:21Z</time>
      </trkpt>
      <trkpt lat="42.94918" lon="0.81621">
        <ele>638</ele>
        <time>2025-07-21T08:53:22Z</time>
      </trkpt>
      <trkpt lat="42.94901" lon="0.81632">
        <ele>635</ele>
        <time>2025-07-21T08:53:24Z</time>
      </trkpt>
      <trkpt lat="42.94885" lon="0.81635">
        <ele>632.6</ele>
        <time>2025-07-21T08:53:26Z</time>
      </trkpt>
      <trkpt lat="42.94877" lon="0.81633">
        <ele>630.6</ele>
        <time>2025-07-21T08:53:27Z</time>
      </trkpt>
      <trkpt lat="42.94859" lon="0.81626">
        <ele>628.6</ele>
        <time>2025-07-21T08:53:29Z</time>
      </trkpt>
      <trkpt lat="42.94853" lon="0.81623">
        <ele>627.4</ele>
        <time>2025-07-21T08:53:30Z</time>
      </trkpt>
      <trkpt lat="42.94844" lon="0.81615">
        <ele>626</ele>
        <time>2025-07-21T08:53:31Z</time>
      </trkpt>
      <trkpt lat="42.94839" lon="0.81608">
        <ele>625.4</ele>
        <time>2025-07-21T08:53:32Z</time>
      </trkpt>
      <trkpt lat="42.94833" lon="0.81591">
        <ele>625</ele>
        <time>2025-07-21T08:53:34Z</time>
      </trkpt>
      <trkpt lat="42.94831" lon="0.81584">
        <ele>625</ele>
        <time>2025-07-21T08:53:35Z</time>
      </trkpt>
      <trkpt lat="42.94824" lon="0.81557">
        <ele>625.4</ele>
        <time>2025-07-21T08:53:40Z</time>
      </trkpt>
      <trkpt lat="42.9482" lon="0.81546">
        <ele>626</ele>
        <time>2025-07-21T08:53:42Z</time>
      </trkpt>
      <trkpt lat="42.94819" lon="0.81537">
        <ele>626.8</ele>
        <time>2025-07-21T08:53:45Z</time>
      </trkpt>
      <trkpt lat="42.94819" lon="0.81537">
        <ele>627</ele>
        <time>2025-07-21T08:53:46Z</time>
      </trkpt>
      <trkpt lat="42.94811" lon="0.81513">
        <ele>628.2</ele>
        <time>2025-07-21T08:53:53Z</time>
      </trkpt>
      <trkpt lat="42.94797" lon="0.81491">
        <ele>629.2</ele>
        <time>2025-07-21T08:54:01Z</time>
      </trkpt>
      <trkpt lat="42.94782" lon="0.81471">
        <ele>630</ele>
        <time>2025-07-21T08:54:07Z</time>
      </trkpt>
      <trkpt lat="42.9478" lon="0.8147">
        <ele>630.2</ele>
        <time>2025-07-21T08:54:08Z</time>
      </trkpt>
      <trkpt lat="42.94759" lon="0.81452">
        <ele>631.4</ele>
        <time>2025-07-21T08:54:16Z</time>
      </trkpt>
      <trkpt lat="42.94758" lon="0.81451">
        <ele>631.6</ele>
        <time>2025-07-21T08:54:17Z</time>
      </trkpt>
      <trkpt lat="42.94757" lon="0.8145">
        <ele>632</ele>
        <time>2025-07-21T08:54:20Z</time>
      </trkpt>
      <trkpt lat="42.94753" lon="0.81447">
        <ele>632.8</ele>
        <time>2025-07-21T08:59:06Z</time>
      </trkpt>
      <trkpt lat="42.94738" lon="0.81437">
        <ele>633</ele>
        <time>2025-07-21T08:59:13Z</time>
      </trkpt>
      <trkpt lat="42.94725" lon="0.81428">
        <ele>633.6</ele>
        <time>2025-07-21T08:59:18Z</time>
      </trkpt>
      <trkpt lat="42.94715" lon="0.81422">
        <ele>634</ele>
        <time>2025-07-21T08:59:22Z</time>
      </trkpt>
      <trkpt lat="42.94705" lon="0.81419">
        <ele>634.4</ele>
        <time>2025-07-21T08:59:26Z</time>
      </trkpt>
      <trkpt lat="42.94697" lon="0.81418">
        <ele>635</ele>
        <time>2025-07-21T08:59:29Z</time>
      </trkpt>
      <trkpt lat="42.94686" lon="0.81419">
        <ele>635.6</ele>
        <time>2025-07-21T08:59:33Z</time>
      </trkpt>
      <trkpt lat="42.94677" lon="0.81422">
        <ele>636</ele>
        <time>2025-07-21T08:59:36Z</time>
      </trkpt>
      <trkpt lat="42.94668" lon="0.81422">
        <ele>636.4</ele>
        <time>2025-07-21T08:59:39Z</time>
      </trkpt>
      <trkpt lat="42.94657" lon="0.81414">
        <ele>636.6</ele>
        <time>2025-07-21T08:59:44Z</time>
      </trkpt>
      <trkpt lat="42.94653" lon="0.81404">
        <ele>636.8</ele>
        <time>2025-07-21T08:59:47Z</time>
      </trkpt>
      <trkpt lat="42.9465" lon="0.81397">
        <ele>637.2</ele>
        <time>2025-07-21T08:59:49Z</time>
      </trkpt>
      <trkpt lat="42.94646" lon="0.81386">
        <ele>638</ele>
        <time>2025-07-21T08:59:52Z</time>
      </trkpt>
      <trkpt lat="42.9464" lon="0.81372">
        <ele>638.4</ele>
        <time>2025-07-21T08:59:56Z</time>
      </trkpt>
      <trkpt lat="42.94635" lon="0.81358">
        <ele>639.2</ele>
        <time>2025-07-21T09:00:00Z</time>
      </trkpt>
      <trkpt lat="42.94625" lon="0.81342">
        <ele>640</ele>
        <time>2025-07-21T09:00:05Z</time>
      </trkpt>
      <trkpt lat="42.9462" lon="0.81339">
        <ele>640.2</ele>
        <time>2025-07-21T09:00:07Z</time>
      </trkpt>
      <trkpt lat="42.9461" lon="0.81338">
        <ele>640.4</ele>
        <time>2025-07-21T09:00:10Z</time>
      </trkpt>
      <trkpt lat="42.94587" lon="0.81344">
        <ele>641.2</ele>
        <time>2025-07-21T09:00:17Z</time>
      </trkpt>
      <trkpt lat="42.94584" lon="0.81345">
        <ele>641.4</ele>
        <time>2025-07-21T09:00:18Z</time>
      </trkpt>
      <trkpt lat="42.94565" lon="0.81349">
        <ele>642.2</ele>
        <time>2025-07-21T09:00:24Z</time>
      </trkpt>
      <trkpt lat="42.94556" lon="0.81351">
        <ele>642.6</ele>
        <time>2025-07-21T09:00:27Z</time>
      </trkpt>
      <trkpt lat="42.94538" lon="0.81354">
        <ele>643.4</ele>
        <time>2025-07-21T09:00:33Z</time>
      </trkpt>
      <trkpt lat="42.94532" lon="0.81355">
        <ele>643.8</ele>
        <time>2025-07-21T09:00:35Z</time>
      </trkpt>
      <trkpt lat="42.94521" lon="0.81357">
        <ele>644.4</ele>
        <time>2025-07-21T09:00:39Z</time>
      </trkpt>
      <trkpt lat="42.94513" lon="0.81358">
        <ele>644.8</ele>
        <time>2025-07-21T09:00:42Z</time>
      </trkpt>
      <trkpt lat="42.94496" lon="0.81361">
        <ele>645.4</ele>
        <time>2025-07-21T09:00:48Z</time>
      </trkpt>
      <trkpt lat="42.94485" lon="0.8136">
        <ele>646</ele>
        <time>2025-07-21T09:00:52Z</time>
      </trkpt>
      <trkpt lat="42.94479" lon="0.81358">
        <ele>646.4</ele>
        <time>2025-07-21T09:00:54Z</time>
      </trkpt>
      <trkpt lat="42.94468" lon="0.81351">
        <ele>647.2</ele>
        <time>2025-07-21T09:00:59Z</time>
      </trkpt>
      <trkpt lat="42.94463" lon="0.81348">
        <ele>647.6</ele>
        <time>2025-07-21T09:01:01Z</time>
      </trkpt>
      <trkpt lat="42.94452" lon="0.81336">
        <ele>648.6</ele>
        <time>2025-07-21T09:01:06Z</time>
      </trkpt>
      <trkpt lat="42.94439" lon="0.81319">
        <ele>649.6</ele>
        <time>2025-07-21T09:01:12Z</time>
      </trkpt>
      <trkpt lat="42.94424" lon="0.813">
        <ele>650.4</ele>
        <time>2025-07-21T09:01:19Z</time>
      </trkpt>
      <trkpt lat="42.94421" lon="0.81292">
        <ele>650.6</ele>
        <time>2025-07-21T09:01:21Z</time>
      </trkpt>
      <trkpt lat="42.9442" lon="0.81282">
        <ele>651</ele>
        <time>2025-07-21T09:01:24Z</time>
      </trkpt>
      <trkpt lat="42.94419" lon="0.81265">
        <ele>651.6</ele>
        <time>2025-07-21T09:01:29Z</time>
      </trkpt>
      <trkpt lat="42.94416" lon="0.8125">
        <ele>652.8</ele>
        <time>2025-07-21T09:01:33Z</time>
      </trkpt>
      <trkpt lat="42.94405" lon="0.81229">
        <ele>653.4</ele>
        <time>2025-07-21T09:01:39Z</time>
      </trkpt>
      <trkpt lat="42.94396" lon="0.81216">
        <ele>653.8</ele>
        <time>2025-07-21T09:01:43Z</time>
      </trkpt>
      <trkpt lat="42.94385" lon="0.81206">
        <ele>654.4</ele>
        <time>2025-07-21T09:01:47Z</time>
      </trkpt>
      <trkpt lat="42.94376" lon="0.81201">
        <ele>655</ele>
        <time>2025-07-21T09:01:50Z</time>
      </trkpt>
      <trkpt lat="42.94362" lon="0.81195">
        <ele>655.8</ele>
        <time>2025-07-21T09:01:55Z</time>
      </trkpt>
      <trkpt lat="42.94356" lon="0.81193">
        <ele>656</ele>
        <time>2025-07-21T09:01:57Z</time>
      </trkpt>
      <trkpt lat="42.94337" lon="0.81187">
        <ele>657</ele>
        <time>2025-07-21T09:02:03Z</time>
      </trkpt>
      <trkpt lat="42.94334" lon="0.81186">
        <ele>657.2</ele>
        <time>2025-07-21T09:02:04Z</time>
      </trkpt>
      <trkpt lat="42.94308" lon="0.81174">
        <ele>658</ele>
        <time>2025-07-21T09:02:12Z</time>
      </trkpt>
      <trkpt lat="42.94299" lon="0.81169">
        <ele>658.4</ele>
        <time>2025-07-21T09:02:15Z</time>
      </trkpt>
      <trkpt lat="42.94286" lon="0.81163">
        <ele>658.8</ele>
        <time>2025-07-21T09:02:19Z</time>
      </trkpt>
      <trkpt lat="42.94258" lon="0.8115">
        <ele>659.4</ele>
        <time>2025-07-21T09:02:28Z</time>
      </trkpt>
      <trkpt lat="42.94236" lon="0.81139">
        <ele>659.8</ele>
        <time>2025-07-21T09:02:35Z</time>
      </trkpt>
      <trkpt lat="42.9422" lon="0.81123">
        <ele>660.2</ele>
        <time>2025-07-21T09:02:41Z</time>
      </trkpt>
      <trkpt lat="42.94203" lon="0.81103">
        <ele>660.4</ele>
        <time>2025-07-21T09:02:47Z</time>
      </trkpt>
      <trkpt lat="42.94198" lon="0.81101">
        <ele>660.4</ele>
        <time>2025-07-21T09:02:48Z</time>
      </trkpt>
      <trkpt lat="42.94189" lon="0.81098">
        <ele>660.4</ele>
        <time>2025-07-21T09:02:50Z</time>
      </trkpt>
      <trkpt lat="42.9418" lon="0.81098">
        <ele>660.4</ele>
        <time>2025-07-21T09:02:52Z</time>
      </trkpt>
      <trkpt lat="42.94155" lon="0.8111">
        <ele>660.2</ele>
        <time>2025-07-21T09:02:57Z</time>
      </trkpt>
      <trkpt lat="42.94149" lon="0.81113">
        <ele>660.2</ele>
        <time>2025-07-21T09:02:58Z</time>
      </trkpt>
      <trkpt lat="42.94139" lon="0.81114">
        <ele>660</ele>
        <time>2025-07-21T09:03:00Z</time>
      </trkpt>
      <trkpt lat="42.9413" lon="0.81113">
        <ele>659.8</ele>
        <time>2025-07-21T09:03:02Z</time>
      </trkpt>
      <trkpt lat="42.9412" lon="0.81109">
        <ele>659.6</ele>
        <time>2025-07-21T09:03:04Z</time>
      </trkpt>
      <trkpt lat="42.94105" lon="0.81101">
        <ele>659.6</ele>
        <time>2025-07-21T09:03:07Z</time>
      </trkpt>
      <trkpt lat="42.9407" lon="0.81088">
        <ele>659.8</ele>
        <time>2025-07-21T09:03:14Z</time>
      </trkpt>
      <trkpt lat="42.9406" lon="0.81087">
        <ele>659.8</ele>
        <time>2025-07-21T09:03:16Z</time>
      </trkpt>
      <trkpt lat="42.9405" lon="0.81088">
        <ele>659.8</ele>
        <time>2025-07-21T09:03:18Z</time>
      </trkpt>
      <trkpt lat="42.94043" lon="0.81087">
        <ele>659.8</ele>
        <time>2025-07-21T09:03:19Z</time>
      </trkpt>
      <trkpt lat="42.94021" lon="0.81083">
        <ele>659.8</ele>
        <time>2025-07-21T09:03:23Z</time>
      </trkpt>
      <trkpt lat="42.94013" lon="0.81082">
        <ele>659.8</ele>
        <time>2025-07-21T09:03:24Z</time>
      </trkpt>
      <trkpt lat="42.93996" lon="0.81079">
        <ele>659.4</ele>
        <time>2025-07-21T09:03:27Z</time>
      </trkpt>
      <trkpt lat="42.93972" lon="0.81072">
        <ele>659</ele>
        <time>2025-07-21T09:03:31Z</time>
      </trkpt>
      <trkpt lat="42.93961" lon="0.81066">
        <ele>658.6</ele>
        <time>2025-07-21T09:03:33Z</time>
      </trkpt>
      <trkpt lat="42.93951" lon="0.81056">
        <ele>658.4</ele>
        <time>2025-07-21T09:03:35Z</time>
      </trkpt>
      <trkpt lat="42.93948" lon="0.81051">
        <ele>658.4</ele>
        <time>2025-07-21T09:03:36Z</time>
      </trkpt>
      <trkpt lat="42.9394" lon="0.81035">
        <ele>658.4</ele>
        <time>2025-07-21T09:03:39Z</time>
      </trkpt>
      <trkpt lat="42.93935" lon="0.81017">
        <ele>658.2</ele>
        <time>2025-07-21T09:03:42Z</time>
      </trkpt>
      <trkpt lat="42.93934" lon="0.81005">
        <ele>658.4</ele>
        <time>2025-07-21T09:03:44Z</time>
      </trkpt>
      <trkpt lat="42.93934" lon="0.80988">
        <ele>659</ele>
        <time>2025-07-21T09:03:48Z</time>
      </trkpt>
      <trkpt lat="42.93935" lon="0.8097">
        <ele>660.4</ele>
        <time>2025-07-21T09:03:53Z</time>
      </trkpt>
      <trkpt lat="42.93936" lon="0.80966">
        <ele>660.6</ele>
        <time>2025-07-21T09:03:54Z</time>
      </trkpt>
      <trkpt lat="42.93938" lon="0.80953">
        <ele>661.8</ele>
        <time>2025-07-21T09:03:58Z</time>
      </trkpt>
      <trkpt lat="42.93938" lon="0.80943">
        <ele>662.2</ele>
        <time>2025-07-21T09:04:01Z</time>
      </trkpt>
      <trkpt lat="42.93937" lon="0.80941">
        <ele>662.6</ele>
        <time>2025-07-21T09:04:02Z</time>
      </trkpt>
      <trkpt lat="42.93928" lon="0.80928">
        <ele>663.6</ele>
        <time>2025-07-21T09:04:07Z</time>
      </trkpt>
      <trkpt lat="42.93926" lon="0.80927">
        <ele>663.6</ele>
        <time>2025-07-21T09:04:08Z</time>
      </trkpt>
      <trkpt lat="42.93911" lon="0.80924">
        <ele>664.6</ele>
        <time>2025-07-21T09:04:13Z</time>
      </trkpt>
      <trkpt lat="42.93905" lon="0.80924">
        <ele>664.8</ele>
        <time>2025-07-21T09:04:15Z</time>
      </trkpt>
      <trkpt lat="42.93897" lon="0.8092">
        <ele>665.2</ele>
        <time>2025-07-21T09:04:18Z</time>
      </trkpt>
      <trkpt lat="42.9388" lon="0.80904">
        <ele>665</ele>
        <time>2025-07-21T09:04:23Z</time>
      </trkpt>
      <trkpt lat="42.93861" lon="0.8088">
        <ele>664.8</ele>
        <time>2025-07-21T09:04:29Z</time>
      </trkpt>
      <trkpt lat="42.93857" lon="0.80871">
        <ele>664.8</ele>
        <time>2025-07-21T09:04:31Z</time>
      </trkpt>
      <trkpt lat="42.93849" lon="0.80848">
        <ele>664.8</ele>
        <time>2025-07-21T09:04:35Z</time>
      </trkpt>
      <trkpt lat="42.93848" lon="0.80842">
        <ele>665</ele>
        <time>2025-07-21T09:04:36Z</time>
      </trkpt>
      <trkpt lat="42.93843" lon="0.8082">
        <ele>665</ele>
        <time>2025-07-21T09:04:40Z</time>
      </trkpt>
      <trkpt lat="42.9384" lon="0.80805">
        <ele>665.2</ele>
        <time>2025-07-21T09:04:43Z</time>
      </trkpt>
      <trkpt lat="42.93839" lon="0.80797">
        <ele>665.4</ele>
        <time>2025-07-21T09:04:45Z</time>
      </trkpt>
      <trkpt lat="42.93839" lon="0.80783">
        <ele>665.6</ele>
        <time>2025-07-21T09:04:48Z</time>
      </trkpt>
      <trkpt lat="42.93837" lon="0.80767">
        <ele>666.4</ele>
        <time>2025-07-21T09:04:52Z</time>
      </trkpt>
      <trkpt lat="42.93836" lon="0.80763">
        <ele>666.6</ele>
        <time>2025-07-21T09:04:53Z</time>
      </trkpt>
      <trkpt lat="42.93829" lon="0.80742">
        <ele>667.8</ele>
        <time>2025-07-21T09:04:58Z</time>
      </trkpt>
      <trkpt lat="42.93814" lon="0.80729">
        <ele>668.4</ele>
        <time>2025-07-21T09:05:03Z</time>
      </trkpt>
      <trkpt lat="42.93807" lon="0.80729">
        <ele>668.8</ele>
        <time>2025-07-21T09:05:05Z</time>
      </trkpt>
      <trkpt lat="42.9379" lon="0.80733">
        <ele>669.6</ele>
        <time>2025-07-21T09:05:10Z</time>
      </trkpt>
      <trkpt lat="42.93787" lon="0.80734">
        <ele>669.8</ele>
        <time>2025-07-21T09:05:11Z</time>
      </trkpt>
      <trkpt lat="42.93769" lon="0.80741">
        <ele>670.8</ele>
        <time>2025-07-21T09:05:16Z</time>
      </trkpt>
      <trkpt lat="42.93747" lon="0.80743">
        <ele>671.2</ele>
        <time>2025-07-21T09:05:22Z</time>
      </trkpt>
      <trkpt lat="42.9374" lon="0.80742">
        <ele>671.4</ele>
        <time>2025-07-21T09:05:24Z</time>
      </trkpt>
      <trkpt lat="42.93715" lon="0.80736">
        <ele>672</ele>
        <time>2025-07-21T09:05:31Z</time>
      </trkpt>
      <trkpt lat="42.93709" lon="0.80733">
        <ele>672.6</ele>
        <time>2025-07-21T09:05:33Z</time>
      </trkpt>
      <trkpt lat="42.93696" lon="0.80725">
        <ele>673.2</ele>
        <time>2025-07-21T09:05:38Z</time>
      </trkpt>
      <trkpt lat="42.93693" lon="0.80723">
        <ele>673.4</ele>
        <time>2025-07-21T09:05:39Z</time>
      </trkpt>
      <trkpt lat="42.93682" lon="0.80705">
        <ele>674.2</ele>
        <time>2025-07-21T09:05:44Z</time>
      </trkpt>
      <trkpt lat="42.9368" lon="0.80701">
        <ele>674.2</ele>
        <time>2025-07-21T09:05:45Z</time>
      </trkpt>
      <trkpt lat="42.93667" lon="0.80668">
        <ele>675</ele>
        <time>2025-07-21T09:05:53Z</time>
      </trkpt>
      <trkpt lat="42.93662" lon="0.80648">
        <ele>676.2</ele>
        <time>2025-07-21T09:05:58Z</time>
      </trkpt>
      <trkpt lat="42.93661" lon="0.80644">
        <ele>676.4</ele>
        <time>2025-07-21T09:05:59Z</time>
      </trkpt>
      <trkpt lat="42.93648" lon="0.80622">
        <ele>677</ele>
        <time>2025-07-21T09:06:04Z</time>
      </trkpt>
      <trkpt lat="42.93638" lon="0.80615">
        <ele>677.2</ele>
        <time>2025-07-21T09:06:06Z</time>
      </trkpt>
      <trkpt lat="42.93627" lon="0.80612">
        <ele>677.2</ele>
        <time>2025-07-21T09:06:08Z</time>
      </trkpt>
      <trkpt lat="42.93593" lon="0.80607">
        <ele>676.6</ele>
        <time>2025-07-21T09:06:14Z</time>
      </trkpt>
      <trkpt lat="42.93587" lon="0.80607">
        <ele>676.4</ele>
        <time>2025-07-21T09:06:15Z</time>
      </trkpt>
      <trkpt lat="42.93575" lon="0.80611">
        <ele>676.2</ele>
        <time>2025-07-21T09:06:17Z</time>
      </trkpt>
      <trkpt lat="42.9357" lon="0.80614">
        <ele>676</ele>
        <time>2025-07-21T09:06:18Z</time>
      </trkpt>
      <trkpt lat="42.93565" lon="0.80618">
        <ele>675.8</ele>
        <time>2025-07-21T09:06:19Z</time>
      </trkpt>
      <trkpt lat="42.93549" lon="0.80632">
        <ele>675</ele>
        <time>2025-07-21T09:06:22Z</time>
      </trkpt>
      <trkpt lat="42.93544" lon="0.80636">
        <ele>675</ele>
        <time>2025-07-21T09:06:23Z</time>
      </trkpt>
      <trkpt lat="42.93526" lon="0.80646">
        <ele>674.6</ele>
        <time>2025-07-21T09:06:26Z</time>
      </trkpt>
      <trkpt lat="42.93514" lon="0.80649">
        <ele>674.4</ele>
        <time>2025-07-21T09:06:28Z</time>
      </trkpt>
      <trkpt lat="42.93495" lon="0.8065">
        <ele>674</ele>
        <time>2025-07-21T09:06:31Z</time>
      </trkpt>
      <trkpt lat="42.93488" lon="0.80648">
        <ele>673.8</ele>
        <time>2025-07-21T09:06:32Z</time>
      </trkpt>
      <trkpt lat="42.93482" lon="0.80646">
        <ele>673.8</ele>
        <time>2025-07-21T09:06:33Z</time>
      </trkpt>
      <trkpt lat="42.93476" lon="0.80643">
        <ele>673.6</ele>
        <time>2025-07-21T09:06:34Z</time>
      </trkpt>
      <trkpt lat="42.93468" lon="0.80636">
        <ele>673.4</ele>
        <time>2025-07-21T09:06:36Z</time>
      </trkpt>
      <trkpt lat="42.93464" lon="0.80632">
        <ele>673.2</ele>
        <time>2025-07-21T09:06:37Z</time>
      </trkpt>
      <trkpt lat="42.93432" lon="0.80605">
        <ele>673.2</ele>
        <time>2025-07-21T09:06:44Z</time>
      </trkpt>
      <trkpt lat="42.93412" lon="0.80588">
        <ele>674.2</ele>
        <time>2025-07-21T09:06:50Z</time>
      </trkpt>
      <trkpt lat="42.934" lon="0.80582">
        <ele>675</ele>
        <time>2025-07-21T09:06:54Z</time>
      </trkpt>
      <trkpt lat="42.93395" lon="0.80581">
        <ele>675.2</ele>
        <time>2025-07-21T09:06:55Z</time>
      </trkpt>
      <trkpt lat="42.9338" lon="0.80588">
        <ele>676</ele>
        <time>2025-07-21T09:06:59Z</time>
      </trkpt>
      <trkpt lat="42.93377" lon="0.80591">
        <ele>676.2</ele>
        <time>2025-07-21T09:07:00Z</time>
      </trkpt>
      <trkpt lat="42.93369" lon="0.80611">
        <ele>677</ele>
        <time>2025-07-21T09:07:04Z</time>
      </trkpt>
      <trkpt lat="42.93365" lon="0.80633">
        <ele>677.4</ele>
        <time>2025-07-21T09:07:08Z</time>
      </trkpt>
      <trkpt lat="42.93362" lon="0.8065">
        <ele>677.6</ele>
        <time>2025-07-21T09:07:11Z</time>
      </trkpt>
      <trkpt lat="42.93357" lon="0.80676">
        <ele>678.4</ele>
        <time>2025-07-21T09:07:16Z</time>
      </trkpt>
      <trkpt lat="42.93356" lon="0.80681">
        <ele>678.4</ele>
        <time>2025-07-21T09:07:17Z</time>
      </trkpt>
      <trkpt lat="42.93349" lon="0.80699">
        <ele>679</ele>
        <time>2025-07-21T09:07:22Z</time>
      </trkpt>
      <trkpt lat="42.93345" lon="0.80704">
        <ele>679.2</ele>
        <time>2025-07-21T09:07:24Z</time>
      </trkpt>
      <trkpt lat="42.93339" lon="0.80714">
        <ele>680.4</ele>
        <time>2025-07-21T09:07:28Z</time>
      </trkpt>
      <trkpt lat="42.93337" lon="0.80716">
        <ele>680.6</ele>
        <time>2025-07-21T09:07:29Z</time>
      </trkpt>
      <trkpt lat="42.93329" lon="0.80723">
        <ele>681.4</ele>
        <time>2025-07-21T09:07:33Z</time>
      </trkpt>
      <trkpt lat="42.93325" lon="0.80725">
        <ele>682</ele>
        <time>2025-07-21T09:07:35Z</time>
      </trkpt>
      <trkpt lat="42.9332" lon="0.80727">
        <ele>682.6</ele>
        <time>2025-07-21T09:07:37Z</time>
      </trkpt>
      <trkpt lat="42.93318" lon="0.80728">
        <ele>682.6</ele>
        <time>2025-07-21T09:07:38Z</time>
      </trkpt>
      <trkpt lat="42.93312" lon="0.80729">
        <ele>683</ele>
        <time>2025-07-21T09:07:40Z</time>
      </trkpt>
      <trkpt lat="42.93307" lon="0.80728">
        <ele>683.6</ele>
        <time>2025-07-21T09:07:42Z</time>
      </trkpt>
      <trkpt lat="42.93292" lon="0.80722">
        <ele>684.6</ele>
        <time>2025-07-21T09:07:48Z</time>
      </trkpt>
      <trkpt lat="42.93278" lon="0.80711">
        <ele>685.8</ele>
        <time>2025-07-21T09:07:54Z</time>
      </trkpt>
      <trkpt lat="42.93275" lon="0.80709">
        <ele>686</ele>
        <time>2025-07-21T09:07:55Z</time>
      </trkpt>
      <trkpt lat="42.93262" lon="0.80701">
        <ele>686.8</ele>
        <time>2025-07-21T09:08:01Z</time>
      </trkpt>
      <trkpt lat="42.93256" lon="0.80698">
        <ele>687.2</ele>
        <time>2025-07-21T09:08:04Z</time>
      </trkpt>
      <trkpt lat="42.93248" lon="0.80695">
        <ele>688</ele>
        <time>2025-07-21T09:08:08Z</time>
      </trkpt>
      <trkpt lat="42.93241" lon="0.80696">
        <ele>688.4</ele>
        <time>2025-07-21T09:08:11Z</time>
      </trkpt>
      <trkpt lat="42.93234" lon="0.80703">
        <ele>689</ele>
        <time>2025-07-21T09:08:15Z</time>
      </trkpt>
      <trkpt lat="42.93233" lon="0.80706">
        <ele>689.4</ele>
        <time>2025-07-21T09:08:16Z</time>
      </trkpt>
      <trkpt lat="42.93231" lon="0.80718">
        <ele>690.2</ele>
        <time>2025-07-21T09:08:20Z</time>
      </trkpt>
      <trkpt lat="42.93231" lon="0.80723">
        <ele>690.4</ele>
        <time>2025-07-21T09:08:22Z</time>
      </trkpt>
      <trkpt lat="42.93232" lon="0.80734">
        <ele>691.2</ele>
        <time>2025-07-21T09:08:26Z</time>
      </trkpt>
      <trkpt lat="42.93232" lon="0.80739">
        <ele>692</ele>
        <time>2025-07-21T09:08:28Z</time>
      </trkpt>
      <trkpt lat="42.93232" lon="0.80741">
        <ele>692.2</ele>
        <time>2025-07-21T09:08:29Z</time>
      </trkpt>
      <trkpt lat="42.93232" lon="0.80744">
        <ele>692.4</ele>
        <time>2025-07-21T09:08:30Z</time>
      </trkpt>
      <trkpt lat="42.93232" lon="0.80751">
        <ele>693</ele>
        <time>2025-07-21T09:08:33Z</time>
      </trkpt>
      <trkpt lat="42.93232" lon="0.80757">
        <ele>693.4</ele>
        <time>2025-07-21T09:08:35Z</time>
      </trkpt>
      <trkpt lat="42.9323" lon="0.80773">
        <ele>694.4</ele>
        <time>2025-07-21T09:08:41Z</time>
      </trkpt>
      <trkpt lat="42.93229" lon="0.80778">
        <ele>694.8</ele>
        <time>2025-07-21T09:08:43Z</time>
      </trkpt>
      <trkpt lat="42.93229" lon="0.80783">
        <ele>695.6</ele>
        <time>2025-07-21T09:08:45Z</time>
      </trkpt>
      <trkpt lat="42.93229" lon="0.80798">
        <ele>696.6</ele>
        <time>2025-07-21T09:08:51Z</time>
      </trkpt>
      <trkpt lat="42.93229" lon="0.80813">
        <ele>698</ele>
        <time>2025-07-21T09:08:57Z</time>
      </trkpt>
      <trkpt lat="42.9323" lon="0.80818">
        <ele>698.4</ele>
        <time>2025-07-21T09:08:59Z</time>
      </trkpt>
      <trkpt lat="42.9323" lon="0.80832">
        <ele>699.2</ele>
        <time>2025-07-21T09:09:04Z</time>
      </trkpt>
      <trkpt lat="42.9323" lon="0.80834">
        <ele>699.4</ele>
        <time>2025-07-21T09:09:05Z</time>
      </trkpt>
      <trkpt lat="42.9323" lon="0.80848">
        <ele>700.4</ele>
        <time>2025-07-21T09:09:10Z</time>
      </trkpt>
      <trkpt lat="42.93231" lon="0.80854">
        <ele>700.6</ele>
        <time>2025-07-21T09:09:12Z</time>
      </trkpt>
      <trkpt lat="42.93232" lon="0.80862">
        <ele>701.6</ele>
        <time>2025-07-21T09:09:15Z</time>
      </trkpt>
      <trkpt lat="42.93233" lon="0.8087">
        <ele>702.6</ele>
        <time>2025-07-21T09:09:18Z</time>
      </trkpt>
      <trkpt lat="42.93233" lon="0.80872">
        <ele>702.6</ele>
        <time>2025-07-21T09:09:19Z</time>
      </trkpt>
      <trkpt lat="42.93232" lon="0.80876">
        <ele>703.6</ele>
        <time>2025-07-21T09:09:21Z</time>
      </trkpt>
      <trkpt lat="42.93228" lon="0.80879">
        <ele>703.8</ele>
        <time>2025-07-21T09:09:23Z</time>
      </trkpt>
      <trkpt lat="42.93223" lon="0.80879">
        <ele>704</ele>
        <time>2025-07-21T09:09:25Z</time>
      </trkpt>
      <trkpt lat="42.93219" lon="0.80875">
        <ele>704.8</ele>
        <time>2025-07-21T09:09:28Z</time>
      </trkpt>
      <trkpt lat="42.93215" lon="0.80868">
        <ele>706</ele>
        <time>2025-07-21T09:09:33Z</time>
      </trkpt>
      <trkpt lat="42.93212" lon="0.80859">
        <ele>707.2</ele>
        <time>2025-07-21T09:09:37Z</time>
      </trkpt>
      <trkpt lat="42.9321" lon="0.8085">
        <ele>708.2</ele>
        <time>2025-07-21T09:09:40Z</time>
      </trkpt>
      <trkpt lat="42.93209" lon="0.80834">
        <ele>709.4</ele>
        <time>2025-07-21T09:09:45Z</time>
      </trkpt>
      <trkpt lat="42.93209" lon="0.80832">
        <ele>709.4</ele>
        <time>2025-07-21T09:09:46Z</time>
      </trkpt>
      <trkpt lat="42.93206" lon="0.80819">
        <ele>710.6</ele>
        <time>2025-07-21T09:09:51Z</time>
      </trkpt>
      <trkpt lat="42.93205" lon="0.80817">
        <ele>710.6</ele>
        <time>2025-07-21T09:09:52Z</time>
      </trkpt>
      <trkpt lat="42.93198" lon="0.80808">
        <ele>711.6</ele>
        <time>2025-07-21T09:09:56Z</time>
      </trkpt>
      <trkpt lat="42.93189" lon="0.80798">
        <ele>712.8</ele>
        <time>2025-07-21T09:10:01Z</time>
      </trkpt>
      <trkpt lat="42.93187" lon="0.80796">
        <ele>713</ele>
        <time>2025-07-21T09:10:02Z</time>
      </trkpt>
      <trkpt lat="42.9318" lon="0.8079">
        <ele>713.8</ele>
        <time>2025-07-21T09:10:06Z</time>
      </trkpt>
      <trkpt lat="42.93172" lon="0.80787">
        <ele>714.6</ele>
        <time>2025-07-21T09:10:10Z</time>
      </trkpt>
      <trkpt lat="42.9317" lon="0.80785">
        <ele>714.8</ele>
        <time>2025-07-21T09:10:11Z</time>
      </trkpt>
      <trkpt lat="42.93161" lon="0.80783">
        <ele>716</ele>
        <time>2025-07-21T09:10:16Z</time>
      </trkpt>
      <trkpt lat="42.93157" lon="0.80782">
        <ele>716.4</ele>
        <time>2025-07-21T09:10:18Z</time>
      </trkpt>
      <trkpt lat="42.93151" lon="0.80777">
        <ele>717</ele>
        <time>2025-07-21T09:10:21Z</time>
      </trkpt>
      <trkpt lat="42.93146" lon="0.80769">
        <ele>717.6</ele>
        <time>2025-07-21T09:10:24Z</time>
      </trkpt>
      <trkpt lat="42.93144" lon="0.80764">
        <ele>718.2</ele>
        <time>2025-07-21T09:10:26Z</time>
      </trkpt>
      <trkpt lat="42.93138" lon="0.80753">
        <ele>719.2</ele>
        <time>2025-07-21T09:10:31Z</time>
      </trkpt>
      <trkpt lat="42.93137" lon="0.80751">
        <ele>719.4</ele>
        <time>2025-07-21T09:10:32Z</time>
      </trkpt>
      <trkpt lat="42.93136" lon="0.80749">
        <ele>719.6</ele>
        <time>2025-07-21T09:10:33Z</time>
      </trkpt>
      <trkpt lat="42.93132" lon="0.80743">
        <ele>720.2</ele>
        <time>2025-07-21T09:10:36Z</time>
      </trkpt>
      <trkpt lat="42.9313" lon="0.80741">
        <ele>720.8</ele>
        <time>2025-07-21T09:10:37Z</time>
      </trkpt>
      <trkpt lat="42.93122" lon="0.80734">
        <ele>722</ele>
        <time>2025-07-21T09:10:42Z</time>
      </trkpt>
      <trkpt lat="42.93117" lon="0.80729">
        <ele>722.6</ele>
        <time>2025-07-21T09:10:45Z</time>
      </trkpt>
      <trkpt lat="42.9311" lon="0.80726">
        <ele>723</ele>
        <time>2025-07-21T09:10:49Z</time>
      </trkpt>
      <trkpt lat="42.93106" lon="0.80724">
        <ele>723.4</ele>
        <time>2025-07-21T09:10:51Z</time>
      </trkpt>
      <trkpt lat="42.93098" lon="0.80723">
        <ele>724.2</ele>
        <time>2025-07-21T09:10:55Z</time>
      </trkpt>
      <trkpt lat="42.9309" lon="0.80722">
        <ele>725</ele>
        <time>2025-07-21T09:10:59Z</time>
      </trkpt>
      <trkpt lat="42.93089" lon="0.80723">
        <ele>725.4</ele>
        <time>2025-07-21T09:11:00Z</time>
      </trkpt>
      <trkpt lat="42.93082" lon="0.80725">
        <ele>726.4</ele>
        <time>2025-07-21T09:11:04Z</time>
      </trkpt>
      <trkpt lat="42.9308" lon="0.80725">
        <ele>726.6</ele>
        <time>2025-07-21T09:11:05Z</time>
      </trkpt>
      <trkpt lat="42.93076" lon="0.80726">
        <ele>727.2</ele>
        <time>2025-07-21T09:11:07Z</time>
      </trkpt>
      <trkpt lat="42.93068" lon="0.80724">
        <ele>727.8</ele>
        <time>2025-07-21T09:11:11Z</time>
      </trkpt>
      <trkpt lat="42.93058" lon="0.8072">
        <ele>728.8</ele>
        <time>2025-07-21T09:11:16Z</time>
      </trkpt>
      <trkpt lat="42.93054" lon="0.80716">
        <ele>729</ele>
        <time>2025-07-21T09:11:18Z</time>
      </trkpt>
      <trkpt lat="42.93046" lon="0.80707">
        <ele>730</ele>
        <time>2025-07-21T09:11:23Z</time>
      </trkpt>
      <trkpt lat="42.93039" lon="0.80701">
        <ele>730.6</ele>
        <time>2025-07-21T09:11:27Z</time>
      </trkpt>
      <trkpt lat="42.93037" lon="0.80698">
        <ele>731</ele>
        <time>2025-07-21T09:11:29Z</time>
      </trkpt>
      <trkpt lat="42.93027" lon="0.8069">
        <ele>732.2</ele>
        <time>2025-07-21T09:11:35Z</time>
      </trkpt>
      <trkpt lat="42.93016" lon="0.80683">
        <ele>733.2</ele>
        <time>2025-07-21T09:11:41Z</time>
      </trkpt>
      <trkpt lat="42.9301" lon="0.80682">
        <ele>733.6</ele>
        <time>2025-07-21T09:11:44Z</time>
      </trkpt>
      <trkpt lat="42.93001" lon="0.80682">
        <ele>734.4</ele>
        <time>2025-07-21T09:11:48Z</time>
      </trkpt>
      <trkpt lat="42.92993" lon="0.80684">
        <ele>735.2</ele>
        <time>2025-07-21T09:11:52Z</time>
      </trkpt>
      <trkpt lat="42.9299" lon="0.80687">
        <ele>735.4</ele>
        <time>2025-07-21T09:11:54Z</time>
      </trkpt>
      <trkpt lat="42.92988" lon="0.80687">
        <ele>735.8</ele>
        <time>2025-07-21T09:11:55Z</time>
      </trkpt>
      <trkpt lat="42.92985" lon="0.80688">
        <ele>736</ele>
        <time>2025-07-21T09:11:57Z</time>
      </trkpt>
      <trkpt lat="42.92974" lon="0.80691">
        <ele>736.8</ele>
        <time>2025-07-21T09:12:02Z</time>
      </trkpt>
      <trkpt lat="42.92972" lon="0.80692">
        <ele>737</ele>
        <time>2025-07-21T09:12:03Z</time>
      </trkpt>
      <trkpt lat="42.92962" lon="0.80691">
        <ele>738</ele>
        <time>2025-07-21T09:12:07Z</time>
      </trkpt>
      <trkpt lat="42.92959" lon="0.80692">
        <ele>738.2</ele>
        <time>2025-07-21T09:12:08Z</time>
      </trkpt>
      <trkpt lat="42.92955" lon="0.80693">
        <ele>738.6</ele>
        <time>2025-07-21T09:12:10Z</time>
      </trkpt>
      <trkpt lat="42.9295" lon="0.80693">
        <ele>739.2</ele>
        <time>2025-07-21T09:12:12Z</time>
      </trkpt>
      <trkpt lat="42.92948" lon="0.80692">
        <ele>739.4</ele>
        <time>2025-07-21T09:12:13Z</time>
      </trkpt>
      <trkpt lat="42.92935" lon="0.80688">
        <ele>740.6</ele>
        <time>2025-07-21T09:12:19Z</time>
      </trkpt>
      <trkpt lat="42.92933" lon="0.80688">
        <ele>740.8</ele>
        <time>2025-07-21T09:12:20Z</time>
      </trkpt>
      <trkpt lat="42.92926" lon="0.80686">
        <ele>741.6</ele>
        <time>2025-07-21T09:12:24Z</time>
      </trkpt>
      <trkpt lat="42.9292" lon="0.80681">
        <ele>742.6</ele>
        <time>2025-07-21T09:12:28Z</time>
      </trkpt>
      <trkpt lat="42.92918" lon="0.80679">
        <ele>742.6</ele>
        <time>2025-07-21T09:12:29Z</time>
      </trkpt>
      <trkpt lat="42.92912" lon="0.80674">
        <ele>743.8</ele>
        <time>2025-07-21T09:12:33Z</time>
      </trkpt>
      <trkpt lat="42.9291" lon="0.80672">
        <ele>744</ele>
        <time>2025-07-21T09:12:35Z</time>
      </trkpt>
      <trkpt lat="42.92904" lon="0.80665">
        <ele>745</ele>
        <time>2025-07-21T09:12:40Z</time>
      </trkpt>
      <trkpt lat="42.92901" lon="0.80661">
        <ele>745.4</ele>
        <time>2025-07-21T09:12:42Z</time>
      </trkpt>
      <trkpt lat="42.929" lon="0.8066">
        <ele>745.6</ele>
        <time>2025-07-21T09:12:43Z</time>
      </trkpt>
      <trkpt lat="42.92895" lon="0.80655">
        <ele>746.2</ele>
        <time>2025-07-21T09:12:46Z</time>
      </trkpt>
      <trkpt lat="42.92887" lon="0.8065">
        <ele>747</ele>
        <time>2025-07-21T09:12:50Z</time>
      </trkpt>
      <trkpt lat="42.92884" lon="0.80649">
        <ele>747.4</ele>
        <time>2025-07-21T09:12:52Z</time>
      </trkpt>
      <trkpt lat="42.92873" lon="0.80647">
        <ele>748.4</ele>
        <time>2025-07-21T09:12:57Z</time>
      </trkpt>
      <trkpt lat="42.92871" lon="0.80648">
        <ele>748.4</ele>
        <time>2025-07-21T09:12:58Z</time>
      </trkpt>
      <trkpt lat="42.92864" lon="0.80654">
        <ele>749.8</ele>
        <time>2025-07-21T09:13:02Z</time>
      </trkpt>
      <trkpt lat="42.92861" lon="0.80657">
        <ele>750</ele>
        <time>2025-07-21T09:13:04Z</time>
      </trkpt>
      <trkpt lat="42.92856" lon="0.80662">
        <ele>750.8</ele>
        <time>2025-07-21T09:13:07Z</time>
      </trkpt>
      <trkpt lat="42.92851" lon="0.80669">
        <ele>751.4</ele>
        <time>2025-07-21T09:13:11Z</time>
      </trkpt>
      <trkpt lat="42.92848" lon="0.80675">
        <ele>752</ele>
        <time>2025-07-21T09:13:14Z</time>
      </trkpt>
      <trkpt lat="42.92843" lon="0.80685">
        <ele>753</ele>
        <time>2025-07-21T09:13:19Z</time>
      </trkpt>
      <trkpt lat="42.92841" lon="0.80687">
        <ele>753.2</ele>
        <time>2025-07-21T09:13:20Z</time>
      </trkpt>
      <trkpt lat="42.92836" lon="0.80697">
        <ele>754</ele>
        <time>2025-07-21T09:13:26Z</time>
      </trkpt>
      <trkpt lat="42.92835" lon="0.80699">
        <ele>754.2</ele>
        <time>2025-07-21T09:13:27Z</time>
      </trkpt>
      <trkpt lat="42.92829" lon="0.80707">
        <ele>755.2</ele>
        <time>2025-07-21T09:13:32Z</time>
      </trkpt>
      <trkpt lat="42.92828" lon="0.80709">
        <ele>755.6</ele>
        <time>2025-07-21T09:13:33Z</time>
      </trkpt>
      <trkpt lat="42.9282" lon="0.80716">
        <ele>756.4</ele>
        <time>2025-07-21T09:13:37Z</time>
      </trkpt>
      <trkpt lat="42.92816" lon="0.80719">
        <ele>756.8</ele>
        <time>2025-07-21T09:13:39Z</time>
      </trkpt>
      <trkpt lat="42.92811" lon="0.80723">
        <ele>757.4</ele>
        <time>2025-07-21T09:13:42Z</time>
      </trkpt>
      <trkpt lat="42.92807" lon="0.80727">
        <ele>757.8</ele>
        <time>2025-07-21T09:13:44Z</time>
      </trkpt>
      <trkpt lat="42.92802" lon="0.80732">
        <ele>758.8</ele>
        <time>2025-07-21T09:13:47Z</time>
      </trkpt>
      <trkpt lat="42.92799" lon="0.80734">
        <ele>759</ele>
        <time>2025-07-21T09:13:49Z</time>
      </trkpt>
      <trkpt lat="42.92797" lon="0.80735">
        <ele>759.2</ele>
        <time>2025-07-21T09:13:50Z</time>
      </trkpt>
      <trkpt lat="42.92793" lon="0.80744">
        <ele>759.8</ele>
        <time>2025-07-21T09:13:53Z</time>
      </trkpt>
      <trkpt lat="42.92784" lon="0.80759">
        <ele>760.8</ele>
        <time>2025-07-21T09:13:58Z</time>
      </trkpt>
      <trkpt lat="42.92784" lon="0.80763">
        <ele>761</ele>
        <time>2025-07-21T09:13:59Z</time>
      </trkpt>
      <trkpt lat="42.92782" lon="0.80782">
        <ele>762</ele>
        <time>2025-07-21T09:14:04Z</time>
      </trkpt>
      <trkpt lat="42.92779" lon="0.80793">
        <ele>762.4</ele>
        <time>2025-07-21T09:14:08Z</time>
      </trkpt>
      <trkpt lat="42.92775" lon="0.80795">
        <ele>763</ele>
        <time>2025-07-21T09:14:10Z</time>
      </trkpt>
      <trkpt lat="42.92768" lon="0.80797">
        <ele>764</ele>
        <time>2025-07-21T09:14:14Z</time>
      </trkpt>
      <trkpt lat="42.92766" lon="0.80797">
        <ele>764</ele>
        <time>2025-07-21T09:14:15Z</time>
      </trkpt>
      <trkpt lat="42.92758" lon="0.80793">
        <ele>765.2</ele>
        <time>2025-07-21T09:14:19Z</time>
      </trkpt>
      <trkpt lat="42.92756" lon="0.80792">
        <ele>765.2</ele>
        <time>2025-07-21T09:14:20Z</time>
      </trkpt>
      <trkpt lat="42.92753" lon="0.80789">
        <ele>766.2</ele>
        <time>2025-07-21T09:14:22Z</time>
      </trkpt>
      <trkpt lat="42.92746" lon="0.80779">
        <ele>767.4</ele>
        <time>2025-07-21T09:14:27Z</time>
      </trkpt>
      <trkpt lat="42.92745" lon="0.80776">
        <ele>767.6</ele>
        <time>2025-07-21T09:14:28Z</time>
      </trkpt>
      <trkpt lat="42.92741" lon="0.8077">
        <ele>768.6</ele>
        <time>2025-07-21T09:14:31Z</time>
      </trkpt>
      <trkpt lat="42.92738" lon="0.80765">
        <ele>769.2</ele>
        <time>2025-07-21T09:14:34Z</time>
      </trkpt>
      <trkpt lat="42.92735" lon="0.80762">
        <ele>769.6</ele>
        <time>2025-07-21T09:14:36Z</time>
      </trkpt>
      <trkpt lat="42.92724" lon="0.80754">
        <ele>770.6</ele>
        <time>2025-07-21T09:14:42Z</time>
      </trkpt>
      <trkpt lat="42.92722" lon="0.80753">
        <ele>771</ele>
        <time>2025-07-21T09:14:43Z</time>
      </trkpt>
      <trkpt lat="42.92714" lon="0.80749">
        <ele>771.8</ele>
        <time>2025-07-21T09:14:47Z</time>
      </trkpt>
      <trkpt lat="42.9271" lon="0.80749">
        <ele>772.2</ele>
        <time>2025-07-21T09:14:49Z</time>
      </trkpt>
      <trkpt lat="42.92708" lon="0.8075">
        <ele>772.4</ele>
        <time>2025-07-21T09:14:50Z</time>
      </trkpt>
      <trkpt lat="42.92704" lon="0.8075">
        <ele>772.8</ele>
        <time>2025-07-21T09:14:52Z</time>
      </trkpt>
      <trkpt lat="42.92698" lon="0.8075">
        <ele>773.8</ele>
        <time>2025-07-21T09:14:56Z</time>
      </trkpt>
      <trkpt lat="42.92696" lon="0.8075">
        <ele>774</ele>
        <time>2025-07-21T09:14:57Z</time>
      </trkpt>
      <trkpt lat="42.92695" lon="0.8075">
        <ele>774.4</ele>
        <time>2025-07-21T09:14:58Z</time>
      </trkpt>
      <trkpt lat="42.92692" lon="0.80749">
        <ele>774.8</ele>
        <time>2025-07-21T09:15:00Z</time>
      </trkpt>
      <trkpt lat="42.92688" lon="0.80746">
        <ele>775.4</ele>
        <time>2025-07-21T09:15:02Z</time>
      </trkpt>
      <trkpt lat="42.9268" lon="0.80739">
        <ele>776.4</ele>
        <time>2025-07-21T09:15:06Z</time>
      </trkpt>
      <trkpt lat="42.92678" lon="0.80737">
        <ele>776.6</ele>
        <time>2025-07-21T09:15:07Z</time>
      </trkpt>
      <trkpt lat="42.92673" lon="0.80727">
        <ele>777.6</ele>
        <time>2025-07-21T09:15:11Z</time>
      </trkpt>
      <trkpt lat="42.9267" lon="0.80723">
        <ele>778</ele>
        <time>2025-07-21T09:15:13Z</time>
      </trkpt>
      <trkpt lat="42.92665" lon="0.80712">
        <ele>778.8</ele>
        <time>2025-07-21T09:15:17Z</time>
      </trkpt>
      <trkpt lat="42.92662" lon="0.80706">
        <ele>779.4</ele>
        <time>2025-07-21T09:15:20Z</time>
      </trkpt>
      <trkpt lat="42.9266" lon="0.80701">
        <ele>780</ele>
        <time>2025-07-21T09:15:22Z</time>
      </trkpt>
      <trkpt lat="42.92655" lon="0.80688">
        <ele>781</ele>
        <time>2025-07-21T09:15:27Z</time>
      </trkpt>
      <trkpt lat="42.92653" lon="0.80684">
        <ele>781.4</ele>
        <time>2025-07-21T09:15:29Z</time>
      </trkpt>
      <trkpt lat="42.92649" lon="0.80674">
        <ele>782</ele>
        <time>2025-07-21T09:15:33Z</time>
      </trkpt>
      <trkpt lat="42.92642" lon="0.80664">
        <ele>783.4</ele>
        <time>2025-07-21T09:15:38Z</time>
      </trkpt>
      <trkpt lat="42.92636" lon="0.80653">
        <ele>784.4</ele>
        <time>2025-07-21T09:15:43Z</time>
      </trkpt>
      <trkpt lat="42.92629" lon="0.80643">
        <ele>785.2</ele>
        <time>2025-07-21T09:15:48Z</time>
      </trkpt>
      <trkpt lat="42.92627" lon="0.80639">
        <ele>785.6</ele>
        <time>2025-07-21T09:15:50Z</time>
      </trkpt>
      <trkpt lat="42.92619" lon="0.80629">
        <ele>786.8</ele>
        <time>2025-07-21T09:15:56Z</time>
      </trkpt>
      <trkpt lat="42.92611" lon="0.80618">
        <ele>787.8</ele>
        <time>2025-07-21T09:16:01Z</time>
      </trkpt>
      <trkpt lat="42.92607" lon="0.80614">
        <ele>788.8</ele>
        <time>2025-07-21T09:16:04Z</time>
      </trkpt>
      <trkpt lat="42.92606" lon="0.80612">
        <ele>789</ele>
        <time>2025-07-21T09:16:05Z</time>
      </trkpt>
      <trkpt lat="42.92601" lon="0.80605">
        <ele>790</ele>
        <time>2025-07-21T09:16:09Z</time>
      </trkpt>
      <trkpt lat="42.92599" lon="0.80601">
        <ele>790.4</ele>
        <time>2025-07-21T09:16:11Z</time>
      </trkpt>
      <trkpt lat="42.92595" lon="0.80595">
        <ele>791.2</ele>
        <time>2025-07-21T09:16:14Z</time>
      </trkpt>
      <trkpt lat="42.92588" lon="0.80586">
        <ele>791.8</ele>
        <time>2025-07-21T09:16:19Z</time>
      </trkpt>
      <trkpt lat="42.92584" lon="0.80581">
        <ele>792.4</ele>
        <time>2025-07-21T09:16:21Z</time>
      </trkpt>
      <trkpt lat="42.92576" lon="0.80571">
        <ele>793.4</ele>
        <time>2025-07-21T09:16:25Z</time>
      </trkpt>
      <trkpt lat="42.92574" lon="0.80568">
        <ele>793.6</ele>
        <time>2025-07-21T09:16:26Z</time>
      </trkpt>
      <trkpt lat="42.92569" lon="0.80563">
        <ele>794.4</ele>
        <time>2025-07-21T09:16:29Z</time>
      </trkpt>
      <trkpt lat="42.92561" lon="0.80553">
        <ele>795.2</ele>
        <time>2025-07-21T09:16:34Z</time>
      </trkpt>
      <trkpt lat="42.92558" lon="0.80549">
        <ele>795.6</ele>
        <time>2025-07-21T09:16:36Z</time>
      </trkpt>
      <trkpt lat="42.92549" lon="0.8054">
        <ele>796.6</ele>
        <time>2025-07-21T09:16:41Z</time>
      </trkpt>
      <trkpt lat="42.92546" lon="0.80536">
        <ele>797</ele>
        <time>2025-07-21T09:16:43Z</time>
      </trkpt>
      <trkpt lat="42.92538" lon="0.80526">
        <ele>797.8</ele>
        <time>2025-07-21T09:16:48Z</time>
      </trkpt>
      <trkpt lat="42.92529" lon="0.80516">
        <ele>799.2</ele>
        <time>2025-07-21T09:16:54Z</time>
      </trkpt>
      <trkpt lat="42.9252" lon="0.80506">
        <ele>799.8</ele>
        <time>2025-07-21T09:17:00Z</time>
      </trkpt>
      <trkpt lat="42.92511" lon="0.80502">
        <ele>800.2</ele>
        <time>2025-07-21T09:17:05Z</time>
      </trkpt>
      <trkpt lat="42.9251" lon="0.80502">
        <ele>800.2</ele>
        <time>2025-07-21T09:17:06Z</time>
      </trkpt>
      <trkpt lat="42.92501" lon="0.80505">
        <ele>800.4</ele>
        <time>2025-07-21T09:17:12Z</time>
      </trkpt>
      <trkpt lat="42.92489" lon="0.80505">
        <ele>800.2</ele>
        <time>2025-07-21T09:17:20Z</time>
      </trkpt>
      <trkpt lat="42.92468" lon="0.80508">
        <ele>799.4</ele>
        <time>2025-07-21T09:17:31Z</time>
      </trkpt>
      <trkpt lat="42.92466" lon="0.80508">
        <ele>799.2</ele>
        <time>2025-07-21T09:17:32Z</time>
      </trkpt>
      <trkpt lat="42.92453" lon="0.80507">
        <ele>798.6</ele>
        <time>2025-07-21T09:17:38Z</time>
      </trkpt>
      <trkpt lat="42.92445" lon="0.80505">
        <ele>798.4</ele>
        <time>2025-07-21T09:17:41Z</time>
      </trkpt>
      <trkpt lat="42.92439" lon="0.80504">
        <ele>798</ele>
        <time>2025-07-21T09:17:43Z</time>
      </trkpt>
      <trkpt lat="42.92426" lon="0.80507">
        <ele>797.4</ele>
        <time>2025-07-21T09:17:46Z</time>
      </trkpt>
      <trkpt lat="42.92421" lon="0.8051">
        <ele>797.2</ele>
        <time>2025-07-21T09:17:47Z</time>
      </trkpt>
      <trkpt lat="42.92416" lon="0.80513">
        <ele>796.8</ele>
        <time>2025-07-21T09:17:48Z</time>
      </trkpt>
      <trkpt lat="42.92407" lon="0.80525">
        <ele>796.2</ele>
        <time>2025-07-21T09:17:50Z</time>
      </trkpt>
      <trkpt lat="42.92404" lon="0.80533">
        <ele>795.8</ele>
        <time>2025-07-21T09:17:51Z</time>
      </trkpt>
      <trkpt lat="42.92394" lon="0.80559">
        <ele>795.2</ele>
        <time>2025-07-21T09:17:54Z</time>
      </trkpt>
      <trkpt lat="42.92391" lon="0.80568">
        <ele>794.4</ele>
        <time>2025-07-21T09:17:55Z</time>
      </trkpt>
      <trkpt lat="42.92383" lon="0.80584">
        <ele>793.6</ele>
        <time>2025-07-21T09:17:57Z</time>
      </trkpt>
      <trkpt lat="42.92377" lon="0.8059">
        <ele>792.8</ele>
        <time>2025-07-21T09:17:58Z</time>
      </trkpt>
      <trkpt lat="42.9237" lon="0.80594">
        <ele>792.4</ele>
        <time>2025-07-21T09:17:59Z</time>
      </trkpt>
      <trkpt lat="42.92362" lon="0.80597">
        <ele>791.4</ele>
        <time>2025-07-21T09:18:00Z</time>
      </trkpt>
      <trkpt lat="42.92354" lon="0.80598">
        <ele>791</ele>
        <time>2025-07-21T09:18:01Z</time>
      </trkpt>
      <trkpt lat="42.92346" lon="0.806">
        <ele>790</ele>
        <time>2025-07-21T09:18:02Z</time>
      </trkpt>
      <trkpt lat="42.9233" lon="0.80604">
        <ele>788.6</ele>
        <time>2025-07-21T09:18:04Z</time>
      </trkpt>
      <trkpt lat="42.92322" lon="0.80607">
        <ele>787.6</ele>
        <time>2025-07-21T09:18:05Z</time>
      </trkpt>
      <trkpt lat="42.92305" lon="0.80613">
        <ele>786</ele>
        <time>2025-07-21T09:18:07Z</time>
      </trkpt>
      <trkpt lat="42.92297" lon="0.80617">
        <ele>784.8</ele>
        <time>2025-07-21T09:18:08Z</time>
      </trkpt>
      <trkpt lat="42.92281" lon="0.80624">
        <ele>783.2</ele>
        <time>2025-07-21T09:18:10Z</time>
      </trkpt>
      <trkpt lat="42.92265" lon="0.80625">
        <ele>781.2</ele>
        <time>2025-07-21T09:18:12Z</time>
      </trkpt>
      <trkpt lat="42.92251" lon="0.80621">
        <ele>779.8</ele>
        <time>2025-07-21T09:18:14Z</time>
      </trkpt>
      <trkpt lat="42.92244" lon="0.80619">
        <ele>778.4</ele>
        <time>2025-07-21T09:18:15Z</time>
      </trkpt>
      <trkpt lat="42.92237" lon="0.80617">
        <ele>777.8</ele>
        <time>2025-07-21T09:18:16Z</time>
      </trkpt>
      <trkpt lat="42.92229" lon="0.80614">
        <ele>776.8</ele>
        <time>2025-07-21T09:18:17Z</time>
      </trkpt>
      <trkpt lat="42.92214" lon="0.80608">
        <ele>775.6</ele>
        <time>2025-07-21T09:18:19Z</time>
      </trkpt>
      <trkpt lat="42.92206" lon="0.80603">
        <ele>774.2</ele>
        <time>2025-07-21T09:18:20Z</time>
      </trkpt>
      <trkpt lat="42.9219" lon="0.80591">
        <ele>772.6</ele>
        <time>2025-07-21T09:18:22Z</time>
      </trkpt>
      <trkpt lat="42.92182" lon="0.80584">
        <ele>772.2</ele>
        <time>2025-07-21T09:18:23Z</time>
      </trkpt>
      <trkpt lat="42.92174" lon="0.80576">
        <ele>771.2</ele>
        <time>2025-07-21T09:18:24Z</time>
      </trkpt>
      <trkpt lat="42.92167" lon="0.80568">
        <ele>770</ele>
        <time>2025-07-21T09:18:25Z</time>
      </trkpt>
      <trkpt lat="42.92152" lon="0.80552">
        <ele>767.6</ele>
        <time>2025-07-21T09:18:27Z</time>
      </trkpt>
      <trkpt lat="42.92137" lon="0.80538">
        <ele>766</ele>
        <time>2025-07-21T09:18:29Z</time>
      </trkpt>
      <trkpt lat="42.92131" lon="0.8053">
        <ele>765.8</ele>
        <time>2025-07-21T09:18:30Z</time>
      </trkpt>
      <trkpt lat="42.92127" lon="0.80522">
        <ele>765.2</ele>
        <time>2025-07-21T09:18:31Z</time>
      </trkpt>
      <trkpt lat="42.92125" lon="0.80514">
        <ele>764.6</ele>
        <time>2025-07-21T09:18:32Z</time>
      </trkpt>
      <trkpt lat="42.92123" lon="0.80507">
        <ele>764.6</ele>
        <time>2025-07-21T09:18:33Z</time>
      </trkpt>
      <trkpt lat="42.92114" lon="0.80486">
        <ele>764.4</ele>
        <time>2025-07-21T09:18:37Z</time>
      </trkpt>
      <trkpt lat="42.92104" lon="0.80463">
        <ele>765.8</ele>
        <time>2025-07-21T09:18:43Z</time>
      </trkpt>
      <trkpt lat="42.92102" lon="0.8046">
        <ele>766</ele>
        <time>2025-07-21T09:18:44Z</time>
      </trkpt>
      <trkpt lat="42.92095" lon="0.80442">
        <ele>766.4</ele>
        <time>2025-07-21T09:18:49Z</time>
      </trkpt>
      <trkpt lat="42.92093" lon="0.80421">
        <ele>766.8</ele>
        <time>2025-07-21T09:18:54Z</time>
      </trkpt>
      <trkpt lat="42.921" lon="0.80412">
        <ele>767.2</ele>
        <time>2025-07-21T09:18:57Z</time>
      </trkpt>
      <trkpt lat="42.92103" lon="0.80407">
        <ele>767.4</ele>
        <time>2025-07-21T09:18:59Z</time>
      </trkpt>
      <trkpt lat="42.92104" lon="0.80406">
        <ele>767.6</ele>
        <time>2025-07-21T09:19:00Z</time>
      </trkpt>
      <trkpt lat="42.9211" lon="0.80402">
        <ele>768.2</ele>
        <time>2025-07-21T09:19:03Z</time>
      </trkpt>
      <trkpt lat="42.92112" lon="0.804">
        <ele>768.2</ele>
        <time>2025-07-21T09:19:04Z</time>
      </trkpt>
      <trkpt lat="42.92118" lon="0.80396">
        <ele>769.4</ele>
        <time>2025-07-21T09:19:07Z</time>
      </trkpt>
      <trkpt lat="42.92122" lon="0.80395">
        <ele>769.8</ele>
        <time>2025-07-21T09:19:09Z</time>
      </trkpt>
      <trkpt lat="42.92128" lon="0.80392">
        <ele>770.4</ele>
        <time>2025-07-21T09:19:12Z</time>
      </trkpt>
      <trkpt lat="42.92135" lon="0.80393">
        <ele>771.4</ele>
        <time>2025-07-21T09:19:16Z</time>
      </trkpt>
      <trkpt lat="42.92137" lon="0.80393">
        <ele>771.8</ele>
        <time>2025-07-21T09:19:17Z</time>
      </trkpt>
      <trkpt lat="42.92145" lon="0.80399">
        <ele>772.8</ele>
        <time>2025-07-21T09:19:22Z</time>
      </trkpt>
      <trkpt lat="42.92153" lon="0.80405">
        <ele>774</ele>
        <time>2025-07-21T09:19:27Z</time>
      </trkpt>
      <trkpt lat="42.92162" lon="0.8041">
        <ele>775</ele>
        <time>2025-07-21T09:19:32Z</time>
      </trkpt>
      <trkpt lat="42.92175" lon="0.80402">
        <ele>776.2</ele>
        <time>2025-07-21T09:19:39Z</time>
      </trkpt>
      <trkpt lat="42.9218" lon="0.80389">
        <ele>777.2</ele>
        <time>2025-07-21T09:19:44Z</time>
      </trkpt>
      <trkpt lat="42.9218" lon="0.80386">
        <ele>777.2</ele>
        <time>2025-07-21T09:19:45Z</time>
      </trkpt>
      <trkpt lat="42.92176" lon="0.80369">
        <ele>778.4</ele>
        <time>2025-07-21T09:19:51Z</time>
      </trkpt>
      <trkpt lat="42.92175" lon="0.80367">
        <ele>778.2</ele>
        <time>2025-07-21T09:19:52Z</time>
      </trkpt>
      <trkpt lat="42.92168" lon="0.8035">
        <ele>779</ele>
        <time>2025-07-21T09:19:59Z</time>
      </trkpt>
      <trkpt lat="42.92164" lon="0.8033">
        <ele>779.4</ele>
        <time>2025-07-21T09:20:05Z</time>
      </trkpt>
      <trkpt lat="42.92165" lon="0.80317">
        <ele>779.4</ele>
        <time>2025-07-21T09:20:09Z</time>
      </trkpt>
      <trkpt lat="42.92167" lon="0.80314">
        <ele>779.6</ele>
        <time>2025-07-21T09:20:10Z</time>
      </trkpt>
      <trkpt lat="42.92177" lon="0.80309">
        <ele>779.8</ele>
        <time>2025-07-21T09:20:14Z</time>
      </trkpt>
      <trkpt lat="42.92181" lon="0.8031">
        <ele>780</ele>
        <time>2025-07-21T09:20:16Z</time>
      </trkpt>
      <trkpt lat="42.92185" lon="0.80313">
        <ele>780.4</ele>
        <time>2025-07-21T09:20:19Z</time>
      </trkpt>
      <trkpt lat="42.92187" lon="0.80314">
        <ele>780.4</ele>
        <time>2025-07-21T09:20:20Z</time>
      </trkpt>
      <trkpt lat="42.92197" lon="0.80322">
        <ele>781.4</ele>
        <time>2025-07-21T09:20:26Z</time>
      </trkpt>
      <trkpt lat="42.92205" lon="0.80325">
        <ele>782.4</ele>
        <time>2025-07-21T09:20:30Z</time>
      </trkpt>
      <trkpt lat="42.9221" lon="0.80331">
        <ele>783.4</ele>
        <time>2025-07-21T09:20:34Z</time>
      </trkpt>
      <trkpt lat="42.92211" lon="0.80332">
        <ele>783.4</ele>
        <time>2025-07-21T09:20:35Z</time>
      </trkpt>
      <trkpt lat="42.92217" lon="0.80339">
        <ele>784.4</ele>
        <time>2025-07-21T09:20:39Z</time>
      </trkpt>
      <trkpt lat="42.92218" lon="0.80341">
        <ele>784.6</ele>
        <time>2025-07-21T09:20:40Z</time>
      </trkpt>
      <trkpt lat="42.92224" lon="0.80352">
        <ele>785.8</ele>
        <time>2025-07-21T09:20:45Z</time>
      </trkpt>
      <trkpt lat="42.92231" lon="0.80362">
        <ele>787</ele>
        <time>2025-07-21T09:20:51Z</time>
      </trkpt>
      <trkpt lat="42.92235" lon="0.80364">
        <ele>787.6</ele>
        <time>2025-07-21T09:20:53Z</time>
      </trkpt>
      <trkpt lat="42.92236" lon="0.80366">
        <ele>788</ele>
        <time>2025-07-21T09:20:54Z</time>
      </trkpt>
      <trkpt lat="42.92243" lon="0.80375">
        <ele>789</ele>
        <time>2025-07-21T09:20:59Z</time>
      </trkpt>
      <trkpt lat="42.92253" lon="0.80383">
        <ele>790.2</ele>
        <time>2025-07-21T09:21:05Z</time>
      </trkpt>
      <trkpt lat="42.92255" lon="0.80386">
        <ele>790.4</ele>
        <time>2025-07-21T09:21:06Z</time>
      </trkpt>
      <trkpt lat="42.92263" lon="0.80395">
        <ele>791.2</ele>
        <time>2025-07-21T09:21:11Z</time>
      </trkpt>
      <trkpt lat="42.9227" lon="0.80402">
        <ele>792</ele>
        <time>2025-07-21T09:21:15Z</time>
      </trkpt>
      <trkpt lat="42.92274" lon="0.80405">
        <ele>792.4</ele>
        <time>2025-07-21T09:21:17Z</time>
      </trkpt>
      <trkpt lat="42.92283" lon="0.80403">
        <ele>793.4</ele>
        <time>2025-07-21T09:21:21Z</time>
      </trkpt>
      <trkpt lat="42.92285" lon="0.80401">
        <ele>793.4</ele>
        <time>2025-07-21T09:21:22Z</time>
      </trkpt>
      <trkpt lat="42.92285" lon="0.80398">
        <ele>793.6</ele>
        <time>2025-07-21T09:21:23Z</time>
      </trkpt>
      <trkpt lat="42.92285" lon="0.80393">
        <ele>793.8</ele>
        <time>2025-07-21T09:21:25Z</time>
      </trkpt>
      <trkpt lat="42.92284" lon="0.80391">
        <ele>794</ele>
        <time>2025-07-21T09:21:26Z</time>
      </trkpt>
      <trkpt lat="42.92277" lon="0.80385">
        <ele>794.6</ele>
        <time>2025-07-21T09:21:29Z</time>
      </trkpt>
      <trkpt lat="42.92275" lon="0.80383">
        <ele>794.6</ele>
        <time>2025-07-21T09:21:30Z</time>
      </trkpt>
      <trkpt lat="42.92264" lon="0.80371">
        <ele>795.2</ele>
        <time>2025-07-21T09:21:36Z</time>
      </trkpt>
      <trkpt lat="42.92254" lon="0.80358">
        <ele>796</ele>
        <time>2025-07-21T09:21:42Z</time>
      </trkpt>
      <trkpt lat="42.92253" lon="0.80355">
        <ele>796</ele>
        <time>2025-07-21T09:21:43Z</time>
      </trkpt>
      <trkpt lat="42.92247" lon="0.80345">
        <ele>797</ele>
        <time>2025-07-21T09:21:48Z</time>
      </trkpt>
      <trkpt lat="42.92243" lon="0.80338">
        <ele>797.6</ele>
        <time>2025-07-21T09:21:51Z</time>
      </trkpt>
      <trkpt lat="42.92241" lon="0.80334">
        <ele>798</ele>
        <time>2025-07-21T09:21:53Z</time>
      </trkpt>
      <trkpt lat="42.9224" lon="0.80328">
        <ele>798.4</ele>
        <time>2025-07-21T09:21:55Z</time>
      </trkpt>
      <trkpt lat="42.92239" lon="0.8032">
        <ele>799</ele>
        <time>2025-07-21T09:21:58Z</time>
      </trkpt>
      <trkpt lat="42.92238" lon="0.80317">
        <ele>799.2</ele>
        <time>2025-07-21T09:21:59Z</time>
      </trkpt>
      <trkpt lat="42.92232" lon="0.80308">
        <ele>800.2</ele>
        <time>2025-07-21T09:22:04Z</time>
      </trkpt>
      <trkpt lat="42.92226" lon="0.80301">
        <ele>801.2</ele>
        <time>2025-07-21T09:22:08Z</time>
      </trkpt>
      <trkpt lat="42.92219" lon="0.80291">
        <ele>801.8</ele>
        <time>2025-07-21T09:22:13Z</time>
      </trkpt>
      <trkpt lat="42.92215" lon="0.80284">
        <ele>802.2</ele>
        <time>2025-07-21T09:22:16Z</time>
      </trkpt>
      <trkpt lat="42.92212" lon="0.80276">
        <ele>803.2</ele>
        <time>2025-07-21T09:22:19Z</time>
      </trkpt>
      <trkpt lat="42.92211" lon="0.80274">
        <ele>803.4</ele>
        <time>2025-07-21T09:22:20Z</time>
      </trkpt>
      <trkpt lat="42.92207" lon="0.8026">
        <ele>804.6</ele>
        <time>2025-07-21T09:22:25Z</time>
      </trkpt>
      <trkpt lat="42.92206" lon="0.80255">
        <ele>804.8</ele>
        <time>2025-07-21T09:22:27Z</time>
      </trkpt>
      <trkpt lat="42.92203" lon="0.80245">
        <ele>805.6</ele>
        <time>2025-07-21T09:22:31Z</time>
      </trkpt>
      <trkpt lat="42.92198" lon="0.80238">
        <ele>806.4</ele>
        <time>2025-07-21T09:22:35Z</time>
      </trkpt>
      <trkpt lat="42.92197" lon="0.80236">
        <ele>806.6</ele>
        <time>2025-07-21T09:22:36Z</time>
      </trkpt>
      <trkpt lat="42.92195" lon="0.80235">
        <ele>807</ele>
        <time>2025-07-21T09:22:37Z</time>
      </trkpt>
      <trkpt lat="42.92185" lon="0.80228">
        <ele>807.8</ele>
        <time>2025-07-21T09:22:42Z</time>
      </trkpt>
      <trkpt lat="42.92183" lon="0.80222">
        <ele>808.4</ele>
        <time>2025-07-21T09:22:45Z</time>
      </trkpt>
      <trkpt lat="42.92185" lon="0.80217">
        <ele>808.8</ele>
        <time>2025-07-21T09:22:47Z</time>
      </trkpt>
      <trkpt lat="42.92186" lon="0.80216">
        <ele>809</ele>
        <time>2025-07-21T09:22:48Z</time>
      </trkpt>
      <trkpt lat="42.92188" lon="0.80215">
        <ele>809.2</ele>
        <time>2025-07-21T09:22:49Z</time>
      </trkpt>
      <trkpt lat="42.92192" lon="0.80217">
        <ele>809.6</ele>
        <time>2025-07-21T09:22:51Z</time>
      </trkpt>
      <trkpt lat="42.92196" lon="0.8022">
        <ele>810.4</ele>
        <time>2025-07-21T09:22:53Z</time>
      </trkpt>
      <trkpt lat="42.92209" lon="0.8023">
        <ele>811.8</ele>
        <time>2025-07-21T09:23:00Z</time>
      </trkpt>
      <trkpt lat="42.9222" lon="0.8024">
        <ele>813.2</ele>
        <time>2025-07-21T09:23:06Z</time>
      </trkpt>
      <trkpt lat="42.92231" lon="0.80252">
        <ele>814.2</ele>
        <time>2025-07-21T09:23:13Z</time>
      </trkpt>
      <trkpt lat="42.92233" lon="0.80256">
        <ele>814.6</ele>
        <time>2025-07-21T09:23:15Z</time>
      </trkpt>
      <trkpt lat="42.92239" lon="0.80266">
        <ele>815.6</ele>
        <time>2025-07-21T09:23:20Z</time>
      </trkpt>
      <trkpt lat="42.9224" lon="0.80268">
        <ele>815.6</ele>
        <time>2025-07-21T09:23:21Z</time>
      </trkpt>
      <trkpt lat="42.92243" lon="0.80277">
        <ele>816.6</ele>
        <time>2025-07-21T09:23:25Z</time>
      </trkpt>
      <trkpt lat="42.92246" lon="0.80284">
        <ele>816.8</ele>
        <time>2025-07-21T09:23:28Z</time>
      </trkpt>
      <trkpt lat="42.9225" lon="0.80292">
        <ele>817.8</ele>
        <time>2025-07-21T09:23:32Z</time>
      </trkpt>
      <trkpt lat="42.92254" lon="0.803">
        <ele>818.6</ele>
        <time>2025-07-21T09:23:35Z</time>
      </trkpt>
      <trkpt lat="42.92255" lon="0.80302">
        <ele>818.8</ele>
        <time>2025-07-21T09:23:36Z</time>
      </trkpt>
      <trkpt lat="42.92263" lon="0.80311">
        <ele>820.2</ele>
        <time>2025-07-21T09:23:41Z</time>
      </trkpt>
      <trkpt lat="42.92264" lon="0.80312">
        <ele>820.6</ele>
        <time>2025-07-21T09:23:42Z</time>
      </trkpt>
      <trkpt lat="42.92271" lon="0.80313">
        <ele>821.6</ele>
        <time>2025-07-21T09:23:45Z</time>
      </trkpt>
      <trkpt lat="42.92277" lon="0.8031">
        <ele>822.4</ele>
        <time>2025-07-21T09:23:48Z</time>
      </trkpt>
      <trkpt lat="42.92281" lon="0.80308">
        <ele>822.6</ele>
        <time>2025-07-21T09:23:50Z</time>
      </trkpt>
      <trkpt lat="42.92286" lon="0.80305">
        <ele>823.2</ele>
        <time>2025-07-21T09:23:53Z</time>
      </trkpt>
      <trkpt lat="42.92292" lon="0.803">
        <ele>823.6</ele>
        <time>2025-07-21T09:23:56Z</time>
      </trkpt>
      <trkpt lat="42.92297" lon="0.80296">
        <ele>824.6</ele>
        <time>2025-07-21T09:23:59Z</time>
      </trkpt>
      <trkpt lat="42.92299" lon="0.80295">
        <ele>825.2</ele>
        <time>2025-07-21T09:24:00Z</time>
      </trkpt>
      <trkpt lat="42.92305" lon="0.80293">
        <ele>825.8</ele>
        <time>2025-07-21T09:24:04Z</time>
      </trkpt>
      <trkpt lat="42.92307" lon="0.80293">
        <ele>826.4</ele>
        <time>2025-07-21T09:24:05Z</time>
      </trkpt>
      <trkpt lat="42.92313" lon="0.80292">
        <ele>827.4</ele>
        <time>2025-07-21T09:24:09Z</time>
      </trkpt>
      <trkpt lat="42.92315" lon="0.80291">
        <ele>827.8</ele>
        <time>2025-07-21T09:24:10Z</time>
      </trkpt>
      <trkpt lat="42.9232" lon="0.80288">
        <ele>828.6</ele>
        <time>2025-07-21T09:24:13Z</time>
      </trkpt>
      <trkpt lat="42.92327" lon="0.80285">
        <ele>829.4</ele>
        <time>2025-07-21T09:24:17Z</time>
      </trkpt>
      <trkpt lat="42.92331" lon="0.80285">
        <ele>829.6</ele>
        <time>2025-07-21T09:24:19Z</time>
      </trkpt>
      <trkpt lat="42.92341" lon="0.80284">
        <ele>830.8</ele>
        <time>2025-07-21T09:24:23Z</time>
      </trkpt>
      <trkpt lat="42.92343" lon="0.80285">
        <ele>831.2</ele>
        <time>2025-07-21T09:24:24Z</time>
      </trkpt>
      <trkpt lat="42.92349" lon="0.80283">
        <ele>832</ele>
        <time>2025-07-21T09:24:27Z</time>
      </trkpt>
      <trkpt lat="42.9236" lon="0.80282">
        <ele>832.6</ele>
        <time>2025-07-21T09:24:32Z</time>
      </trkpt>
      <trkpt lat="42.92364" lon="0.80282">
        <ele>833</ele>
        <time>2025-07-21T09:24:34Z</time>
      </trkpt>
      <trkpt lat="42.92376" lon="0.80283">
        <ele>834</ele>
        <time>2025-07-21T09:24:40Z</time>
      </trkpt>
      <trkpt lat="42.9238" lon="0.80284">
        <ele>834.2</ele>
        <time>2025-07-21T09:24:42Z</time>
      </trkpt>
      <trkpt lat="42.92389" lon="0.80283">
        <ele>835.6</ele>
        <time>2025-07-21T09:24:46Z</time>
      </trkpt>
      <trkpt lat="42.92401" lon="0.80283">
        <ele>836.6</ele>
        <time>2025-07-21T09:24:52Z</time>
      </trkpt>
      <trkpt lat="42.92403" lon="0.80283">
        <ele>836.8</ele>
        <time>2025-07-21T09:24:53Z</time>
      </trkpt>
      <trkpt lat="42.92412" lon="0.80282">
        <ele>837.8</ele>
        <time>2025-07-21T09:24:57Z</time>
      </trkpt>
      <trkpt lat="42.92417" lon="0.80276">
        <ele>838.2</ele>
        <time>2025-07-21T09:25:00Z</time>
      </trkpt>
      <trkpt lat="42.92418" lon="0.80271">
        <ele>838.4</ele>
        <time>2025-07-21T09:25:02Z</time>
      </trkpt>
      <trkpt lat="42.92415" lon="0.80266">
        <ele>838.8</ele>
        <time>2025-07-21T09:25:04Z</time>
      </trkpt>
      <trkpt lat="42.92414" lon="0.80264">
        <ele>839</ele>
        <time>2025-07-21T09:25:05Z</time>
      </trkpt>
      <trkpt lat="42.92403" lon="0.80262">
        <ele>840</ele>
        <time>2025-07-21T09:25:10Z</time>
      </trkpt>
      <trkpt lat="42.92396" lon="0.80262">
        <ele>840.2</ele>
        <time>2025-07-21T09:25:13Z</time>
      </trkpt>
      <trkpt lat="42.92388" lon="0.80258">
        <ele>840.8</ele>
        <time>2025-07-21T09:25:17Z</time>
      </trkpt>
      <trkpt lat="42.92378" lon="0.80257">
        <ele>841.2</ele>
        <time>2025-07-21T09:25:22Z</time>
      </trkpt>
      <trkpt lat="42.92374" lon="0.80256">
        <ele>841.6</ele>
        <time>2025-07-21T09:25:24Z</time>
      </trkpt>
      <trkpt lat="42.92362" lon="0.80251">
        <ele>842.4</ele>
        <time>2025-07-21T09:25:30Z</time>
      </trkpt>
      <trkpt lat="42.92347" lon="0.80248">
        <ele>843.4</ele>
        <time>2025-07-21T09:25:37Z</time>
      </trkpt>
      <trkpt lat="42.92343" lon="0.80248">
        <ele>843.8</ele>
        <time>2025-07-21T09:25:39Z</time>
      </trkpt>
      <trkpt lat="42.92335" lon="0.80245">
        <ele>844.4</ele>
        <time>2025-07-21T09:25:43Z</time>
      </trkpt>
      <trkpt lat="42.9233" lon="0.80241">
        <ele>845</ele>
        <time>2025-07-21T09:25:46Z</time>
      </trkpt>
      <trkpt lat="42.92327" lon="0.80237">
        <ele>845.6</ele>
        <time>2025-07-21T09:25:48Z</time>
      </trkpt>
      <trkpt lat="42.92321" lon="0.80226">
        <ele>846.8</ele>
        <time>2025-07-21T09:25:53Z</time>
      </trkpt>
      <trkpt lat="42.92318" lon="0.8022">
        <ele>847.6</ele>
        <time>2025-07-21T09:25:56Z</time>
      </trkpt>
      <trkpt lat="42.92317" lon="0.80215">
        <ele>848.4</ele>
        <time>2025-07-21T09:25:58Z</time>
      </trkpt>
      <trkpt lat="42.92316" lon="0.80207">
        <ele>848.8</ele>
        <time>2025-07-21T09:26:01Z</time>
      </trkpt>
      <trkpt lat="42.92315" lon="0.80203">
        <ele>849.4</ele>
        <time>2025-07-21T09:26:03Z</time>
      </trkpt>
      <trkpt lat="42.92314" lon="0.80192">
        <ele>850.4</ele>
        <time>2025-07-21T09:26:07Z</time>
      </trkpt>
      <trkpt lat="42.92314" lon="0.8019">
        <ele>850.6</ele>
        <time>2025-07-21T09:26:08Z</time>
      </trkpt>
      <trkpt lat="42.92313" lon="0.80186">
        <ele>850.8</ele>
        <time>2025-07-21T09:26:09Z</time>
      </trkpt>
      <trkpt lat="42.92311" lon="0.80174">
        <ele>851.8</ele>
        <time>2025-07-21T09:26:14Z</time>
      </trkpt>
      <trkpt lat="42.92311" lon="0.80165">
        <ele>852.6</ele>
        <time>2025-07-21T09:26:17Z</time>
      </trkpt>
      <trkpt lat="42.9231" lon="0.8016">
        <ele>853.2</ele>
        <time>2025-07-21T09:26:19Z</time>
      </trkpt>
      <trkpt lat="42.92307" lon="0.80146">
        <ele>854.6</ele>
        <time>2025-07-21T09:26:24Z</time>
      </trkpt>
      <trkpt lat="42.92304" lon="0.80133">
        <ele>855.8</ele>
        <time>2025-07-21T09:26:29Z</time>
      </trkpt>
      <trkpt lat="42.92301" lon="0.80122">
        <ele>856.4</ele>
        <time>2025-07-21T09:26:33Z</time>
      </trkpt>
      <trkpt lat="42.92298" lon="0.80116">
        <ele>856.8</ele>
        <time>2025-07-21T09:26:35Z</time>
      </trkpt>
      <trkpt lat="42.92293" lon="0.80104">
        <ele>858</ele>
        <time>2025-07-21T09:26:40Z</time>
      </trkpt>
      <trkpt lat="42.92292" lon="0.80101">
        <ele>858.2</ele>
        <time>2025-07-21T09:26:41Z</time>
      </trkpt>
      <trkpt lat="42.92286" lon="0.80087">
        <ele>859</ele>
        <time>2025-07-21T09:26:48Z</time>
      </trkpt>
      <trkpt lat="42.92283" lon="0.80079">
        <ele>859.4</ele>
        <time>2025-07-21T09:26:50Z</time>
      </trkpt>
      <trkpt lat="42.92278" lon="0.80067">
        <ele>860.2</ele>
        <time>2025-07-21T09:26:55Z</time>
      </trkpt>
      <trkpt lat="42.92273" lon="0.80052">
        <ele>861.2</ele>
        <time>2025-07-21T09:27:01Z</time>
      </trkpt>
      <trkpt lat="42.92262" lon="0.80025">
        <ele>862.4</ele>
        <time>2025-07-21T09:27:11Z</time>
      </trkpt>
      <trkpt lat="42.92261" lon="0.80023">
        <ele>862.6</ele>
        <time>2025-07-21T09:27:12Z</time>
      </trkpt>
      <trkpt lat="42.92255" lon="0.80006">
        <ele>863.2</ele>
        <time>2025-07-21T09:27:18Z</time>
      </trkpt>
      <trkpt lat="42.92251" lon="0.79998">
        <ele>863.4</ele>
        <time>2025-07-21T09:27:21Z</time>
      </trkpt>
      <trkpt lat="42.92241" lon="0.79973">
        <ele>864.6</ele>
        <time>2025-07-21T09:27:30Z</time>
      </trkpt>
      <trkpt lat="42.92231" lon="0.79948">
        <ele>865.6</ele>
        <time>2025-07-21T09:27:39Z</time>
      </trkpt>
      <trkpt lat="42.92229" lon="0.79934">
        <ele>866.4</ele>
        <time>2025-07-21T09:27:44Z</time>
      </trkpt>
      <trkpt lat="42.9223" lon="0.79932">
        <ele>866.8</ele>
        <time>2025-07-21T09:27:45Z</time>
      </trkpt>
      <trkpt lat="42.92232" lon="0.7993">
        <ele>867</ele>
        <time>2025-07-21T09:27:46Z</time>
      </trkpt>
      <trkpt lat="42.92236" lon="0.7993">
        <ele>867.6</ele>
        <time>2025-07-21T09:27:48Z</time>
      </trkpt>
      <trkpt lat="42.9224" lon="0.79934">
        <ele>868</ele>
        <time>2025-07-21T09:27:50Z</time>
      </trkpt>
      <trkpt lat="42.92245" lon="0.79945">
        <ele>868.8</ele>
        <time>2025-07-21T09:27:54Z</time>
      </trkpt>
      <trkpt lat="42.92247" lon="0.7995">
        <ele>869.2</ele>
        <time>2025-07-21T09:27:56Z</time>
      </trkpt>
      <trkpt lat="42.92251" lon="0.79961">
        <ele>870</ele>
        <time>2025-07-21T09:28:00Z</time>
      </trkpt>
      <trkpt lat="42.92253" lon="0.79966">
        <ele>870.4</ele>
        <time>2025-07-21T09:28:02Z</time>
      </trkpt>
      <trkpt lat="42.92262" lon="0.79976">
        <ele>871.2</ele>
        <time>2025-07-21T09:28:07Z</time>
      </trkpt>
      <trkpt lat="42.92266" lon="0.79979">
        <ele>871.4</ele>
        <time>2025-07-21T09:28:09Z</time>
      </trkpt>
      <trkpt lat="42.92271" lon="0.79985">
        <ele>871.8</ele>
        <time>2025-07-21T09:28:12Z</time>
      </trkpt>
      <trkpt lat="42.92276" lon="0.79989">
        <ele>872.4</ele>
        <time>2025-07-21T09:28:15Z</time>
      </trkpt>
      <trkpt lat="42.92278" lon="0.7999">
        <ele>872.6</ele>
        <time>2025-07-21T09:28:16Z</time>
      </trkpt>
      <trkpt lat="42.92284" lon="0.79996">
        <ele>873.6</ele>
        <time>2025-07-21T09:28:20Z</time>
      </trkpt>
      <trkpt lat="42.92291" lon="0.8">
        <ele>874.6</ele>
        <time>2025-07-21T09:28:24Z</time>
      </trkpt>
      <trkpt lat="42.92293" lon="0.80001">
        <ele>875</ele>
        <time>2025-07-21T09:28:25Z</time>
      </trkpt>
      <trkpt lat="42.92301" lon="0.80005">
        <ele>875.8</ele>
        <time>2025-07-21T09:28:29Z</time>
      </trkpt>
      <trkpt lat="42.92308" lon="0.80011">
        <ele>876.4</ele>
        <time>2025-07-21T09:28:33Z</time>
      </trkpt>
      <trkpt lat="42.92312" lon="0.80016">
        <ele>877</ele>
        <time>2025-07-21T09:28:36Z</time>
      </trkpt>
      <trkpt lat="42.9232" lon="0.80025">
        <ele>878</ele>
        <time>2025-07-21T09:28:41Z</time>
      </trkpt>
      <trkpt lat="42.92323" lon="0.80032">
        <ele>879.2</ele>
        <time>2025-07-21T09:28:44Z</time>
      </trkpt>
      <trkpt lat="42.92325" lon="0.80034">
        <ele>879.2</ele>
        <time>2025-07-21T09:28:45Z</time>
      </trkpt>
      <trkpt lat="42.92329" lon="0.80041">
        <ele>880.2</ele>
        <time>2025-07-21T09:28:48Z</time>
      </trkpt>
      <trkpt lat="42.9233" lon="0.80043">
        <ele>880.4</ele>
        <time>2025-07-21T09:28:49Z</time>
      </trkpt>
      <trkpt lat="42.92339" lon="0.80052">
        <ele>881.4</ele>
        <time>2025-07-21T09:28:54Z</time>
      </trkpt>
      <trkpt lat="42.92343" lon="0.80058">
        <ele>882</ele>
        <time>2025-07-21T09:28:57Z</time>
      </trkpt>
      <trkpt lat="42.92349" lon="0.80063">
        <ele>882.6</ele>
        <time>2025-07-21T09:29:00Z</time>
      </trkpt>
      <trkpt lat="42.92354" lon="0.80068">
        <ele>883.2</ele>
        <time>2025-07-21T09:29:03Z</time>
      </trkpt>
      <trkpt lat="42.92359" lon="0.80072">
        <ele>883.6</ele>
        <time>2025-07-21T09:29:06Z</time>
      </trkpt>
      <trkpt lat="42.92364" lon="0.80077">
        <ele>884.8</ele>
        <time>2025-07-21T09:29:10Z</time>
      </trkpt>
      <trkpt lat="42.92371" lon="0.80085">
        <ele>886</ele>
        <time>2025-07-21T09:29:15Z</time>
      </trkpt>
      <trkpt lat="42.92377" lon="0.80091">
        <ele>886.8</ele>
        <time>2025-07-21T09:29:19Z</time>
      </trkpt>
      <trkpt lat="42.92378" lon="0.80093">
        <ele>887</ele>
        <time>2025-07-21T09:29:20Z</time>
      </trkpt>
      <trkpt lat="42.92386" lon="0.801">
        <ele>888.2</ele>
        <time>2025-07-21T09:29:24Z</time>
      </trkpt>
      <trkpt lat="42.92395" lon="0.80108">
        <ele>888.8</ele>
        <time>2025-07-21T09:29:29Z</time>
      </trkpt>
      <trkpt lat="42.92399" lon="0.80112">
        <ele>889.2</ele>
        <time>2025-07-21T09:29:31Z</time>
      </trkpt>
      <trkpt lat="42.92403" lon="0.80118">
        <ele>890</ele>
        <time>2025-07-21T09:29:34Z</time>
      </trkpt>
      <trkpt lat="42.92406" lon="0.80121">
        <ele>890.4</ele>
        <time>2025-07-21T09:29:36Z</time>
      </trkpt>
      <trkpt lat="42.92409" lon="0.80123">
        <ele>890.8</ele>
        <time>2025-07-21T09:29:38Z</time>
      </trkpt>
      <trkpt lat="42.92416" lon="0.8013">
        <ele>891.6</ele>
        <time>2025-07-21T09:29:42Z</time>
      </trkpt>
      <trkpt lat="42.9242" lon="0.80137">
        <ele>892.4</ele>
        <time>2025-07-21T09:29:45Z</time>
      </trkpt>
      <trkpt lat="42.92421" lon="0.80139">
        <ele>892.8</ele>
        <time>2025-07-21T09:29:46Z</time>
      </trkpt>
      <trkpt lat="42.92429" lon="0.80146">
        <ele>893.8</ele>
        <time>2025-07-21T09:29:51Z</time>
      </trkpt>
      <trkpt lat="42.92437" lon="0.80138">
        <ele>894.8</ele>
        <time>2025-07-21T09:29:56Z</time>
      </trkpt>
      <trkpt lat="42.92438" lon="0.80135">
        <ele>895</ele>
        <time>2025-07-21T09:29:57Z</time>
      </trkpt>
      <trkpt lat="42.92437" lon="0.80131">
        <ele>895</ele>
        <time>2025-07-21T09:29:58Z</time>
      </trkpt>
      <trkpt lat="42.92435" lon="0.80125">
        <ele>895.6</ele>
        <time>2025-07-21T09:30:00Z</time>
      </trkpt>
      <trkpt lat="42.92429" lon="0.80116">
        <ele>896</ele>
        <time>2025-07-21T09:30:04Z</time>
      </trkpt>
      <trkpt lat="42.92428" lon="0.80114">
        <ele>896</ele>
        <time>2025-07-21T09:30:05Z</time>
      </trkpt>
      <trkpt lat="42.92412" lon="0.80098">
        <ele>897.2</ele>
        <time>2025-07-21T09:30:13Z</time>
      </trkpt>
      <trkpt lat="42.9241" lon="0.80096">
        <ele>897.2</ele>
        <time>2025-07-21T09:30:14Z</time>
      </trkpt>
      <trkpt lat="42.924" lon="0.80077">
        <ele>898</ele>
        <time>2025-07-21T09:30:22Z</time>
      </trkpt>
      <trkpt lat="42.92398" lon="0.80073">
        <ele>898.2</ele>
        <time>2025-07-21T09:30:24Z</time>
      </trkpt>
      <trkpt lat="42.92394" lon="0.8006">
        <ele>899.2</ele>
        <time>2025-07-21T09:30:29Z</time>
      </trkpt>
      <trkpt lat="42.92392" lon="0.80049">
        <ele>900.4</ele>
        <time>2025-07-21T09:30:33Z</time>
      </trkpt>
      <trkpt lat="42.92391" lon="0.80044">
        <ele>900.8</ele>
        <time>2025-07-21T09:30:35Z</time>
      </trkpt>
      <trkpt lat="42.92389" lon="0.8004">
        <ele>901.4</ele>
        <time>2025-07-21T09:30:37Z</time>
      </trkpt>
      <trkpt lat="42.92386" lon="0.80033">
        <ele>902.6</ele>
        <time>2025-07-21T09:30:40Z</time>
      </trkpt>
      <trkpt lat="42.92384" lon="0.80029">
        <ele>903</ele>
        <time>2025-07-21T09:30:42Z</time>
      </trkpt>
      <trkpt lat="42.92381" lon="0.80022">
        <ele>903.8</ele>
        <time>2025-07-21T09:30:45Z</time>
      </trkpt>
      <trkpt lat="42.92379" lon="0.80017">
        <ele>904.2</ele>
        <time>2025-07-21T09:30:47Z</time>
      </trkpt>
      <trkpt lat="42.92377" lon="0.80012">
        <ele>904.8</ele>
        <time>2025-07-21T09:30:49Z</time>
      </trkpt>
      <trkpt lat="42.92373" lon="0.80004">
        <ele>905.8</ele>
        <time>2025-07-21T09:30:52Z</time>
      </trkpt>
      <trkpt lat="42.92371" lon="0.79999">
        <ele>906.2</ele>
        <time>2025-07-21T09:30:54Z</time>
      </trkpt>
      <trkpt lat="42.92365" lon="0.79987">
        <ele>907.2</ele>
        <time>2025-07-21T09:30:59Z</time>
      </trkpt>
      <trkpt lat="42.9236" lon="0.79978">
        <ele>907.6</ele>
        <time>2025-07-21T09:31:03Z</time>
      </trkpt>
      <trkpt lat="42.92358" lon="0.79971">
        <ele>908.2</ele>
        <time>2025-07-21T09:31:06Z</time>
      </trkpt>
      <trkpt lat="42.92353" lon="0.79963">
        <ele>908.8</ele>
        <time>2025-07-21T09:31:10Z</time>
      </trkpt>
      <trkpt lat="42.9235" lon="0.79956">
        <ele>909.6</ele>
        <time>2025-07-21T09:31:13Z</time>
      </trkpt>
      <trkpt lat="42.92342" lon="0.79943">
        <ele>910.6</ele>
        <time>2025-07-21T09:31:19Z</time>
      </trkpt>
      <trkpt lat="42.92339" lon="0.79939">
        <ele>910.8</ele>
        <time>2025-07-21T09:31:21Z</time>
      </trkpt>
      <trkpt lat="42.92335" lon="0.7993">
        <ele>911.8</ele>
        <time>2025-07-21T09:31:25Z</time>
      </trkpt>
      <trkpt lat="42.92332" lon="0.79927">
        <ele>912</ele>
        <time>2025-07-21T09:31:27Z</time>
      </trkpt>
      <trkpt lat="42.9233" lon="0.79922">
        <ele>912.4</ele>
        <time>2025-07-21T09:31:29Z</time>
      </trkpt>
      <trkpt lat="42.92326" lon="0.79916">
        <ele>912.8</ele>
        <time>2025-07-21T09:31:32Z</time>
      </trkpt>
      <trkpt lat="42.92322" lon="0.79909">
        <ele>913.4</ele>
        <time>2025-07-21T09:31:35Z</time>
      </trkpt>
      <trkpt lat="42.92321" lon="0.79906">
        <ele>914</ele>
        <time>2025-07-21T09:31:36Z</time>
      </trkpt>
      <trkpt lat="42.92314" lon="0.79892">
        <ele>914.6</ele>
        <time>2025-07-21T09:31:42Z</time>
      </trkpt>
      <trkpt lat="42.92313" lon="0.79889">
        <ele>914.8</ele>
        <time>2025-07-21T09:31:43Z</time>
      </trkpt>
      <trkpt lat="42.92308" lon="0.79878">
        <ele>916</ele>
        <time>2025-07-21T09:31:48Z</time>
      </trkpt>
      <trkpt lat="42.92305" lon="0.7987">
        <ele>916.6</ele>
        <time>2025-07-21T09:31:51Z</time>
      </trkpt>
      <trkpt lat="42.923" lon="0.7986">
        <ele>917.2</ele>
        <time>2025-07-21T09:31:55Z</time>
      </trkpt>
      <trkpt lat="42.92298" lon="0.79855">
        <ele>917.6</ele>
        <time>2025-07-21T09:31:57Z</time>
      </trkpt>
      <trkpt lat="42.92296" lon="0.79848">
        <ele>918.4</ele>
        <time>2025-07-21T09:32:00Z</time>
      </trkpt>
      <trkpt lat="42.92292" lon="0.79836">
        <ele>919.4</ele>
        <time>2025-07-21T09:32:05Z</time>
      </trkpt>
      <trkpt lat="42.92288" lon="0.79825">
        <ele>920.6</ele>
        <time>2025-07-21T09:32:10Z</time>
      </trkpt>
      <trkpt lat="42.92284" lon="0.79818">
        <ele>921.4</ele>
        <time>2025-07-21T09:32:13Z</time>
      </trkpt>
      <trkpt lat="42.92282" lon="0.79816">
        <ele>921.6</ele>
        <time>2025-07-21T09:32:14Z</time>
      </trkpt>
      <trkpt lat="42.92276" lon="0.79808">
        <ele>923</ele>
        <time>2025-07-21T09:32:18Z</time>
      </trkpt>
      <trkpt lat="42.92273" lon="0.79803">
        <ele>923.6</ele>
        <time>2025-07-21T09:32:20Z</time>
      </trkpt>
      <trkpt lat="42.92272" lon="0.798">
        <ele>924</ele>
        <time>2025-07-21T09:32:21Z</time>
      </trkpt>
      <trkpt lat="42.92268" lon="0.79787">
        <ele>925</ele>
        <time>2025-07-21T09:32:26Z</time>
      </trkpt>
      <trkpt lat="42.92265" lon="0.79774">
        <ele>926.4</ele>
        <time>2025-07-21T09:32:31Z</time>
      </trkpt>
      <trkpt lat="42.92262" lon="0.79766">
        <ele>927</ele>
        <time>2025-07-21T09:32:34Z</time>
      </trkpt>
      <trkpt lat="42.9226" lon="0.79761">
        <ele>927.4</ele>
        <time>2025-07-21T09:32:36Z</time>
      </trkpt>
      <trkpt lat="42.92256" lon="0.79751">
        <ele>928.4</ele>
        <time>2025-07-21T09:32:40Z</time>
      </trkpt>
      <trkpt lat="42.92251" lon="0.79744">
        <ele>929</ele>
        <time>2025-07-21T09:32:43Z</time>
      </trkpt>
      <trkpt lat="42.92249" lon="0.79738">
        <ele>929.6</ele>
        <time>2025-07-21T09:32:45Z</time>
      </trkpt>
      <trkpt lat="42.92243" lon="0.79725">
        <ele>930.6</ele>
        <time>2025-07-21T09:32:50Z</time>
      </trkpt>
      <trkpt lat="42.92242" lon="0.7972">
        <ele>931.2</ele>
        <time>2025-07-21T09:32:52Z</time>
      </trkpt>
      <trkpt lat="42.9224" lon="0.79711">
        <ele>931.8</ele>
        <time>2025-07-21T09:32:55Z</time>
      </trkpt>
      <trkpt lat="42.92237" lon="0.79697">
        <ele>932.8</ele>
        <time>2025-07-21T09:33:00Z</time>
      </trkpt>
      <trkpt lat="42.92236" lon="0.79694">
        <ele>933</ele>
        <time>2025-07-21T09:33:01Z</time>
      </trkpt>
      <trkpt lat="42.92233" lon="0.79681">
        <ele>934.2</ele>
        <time>2025-07-21T09:33:06Z</time>
      </trkpt>
      <trkpt lat="42.92232" lon="0.7967">
        <ele>935</ele>
        <time>2025-07-21T09:33:10Z</time>
      </trkpt>
      <trkpt lat="42.92231" lon="0.79664">
        <ele>935.4</ele>
        <time>2025-07-21T09:33:12Z</time>
      </trkpt>
      <trkpt lat="42.9223" lon="0.7965">
        <ele>936.4</ele>
        <time>2025-07-21T09:33:17Z</time>
      </trkpt>
      <trkpt lat="42.9223" lon="0.79636">
        <ele>937.4</ele>
        <time>2025-07-21T09:33:22Z</time>
      </trkpt>
      <trkpt lat="42.92229" lon="0.79621">
        <ele>938.4</ele>
        <time>2025-07-21T09:33:27Z</time>
      </trkpt>
      <trkpt lat="42.92229" lon="0.79607">
        <ele>939.6</ele>
        <time>2025-07-21T09:33:32Z</time>
      </trkpt>
      <trkpt lat="42.92228" lon="0.79592">
        <ele>940.4</ele>
        <time>2025-07-21T09:33:37Z</time>
      </trkpt>
      <trkpt lat="42.92228" lon="0.79589">
        <ele>940.8</ele>
        <time>2025-07-21T09:33:38Z</time>
      </trkpt>
      <trkpt lat="42.92227" lon="0.79574">
        <ele>941.8</ele>
        <time>2025-07-21T09:33:43Z</time>
      </trkpt>
      <trkpt lat="42.92226" lon="0.79567">
        <ele>942.2</ele>
        <time>2025-07-21T09:33:45Z</time>
      </trkpt>
      <trkpt lat="42.92224" lon="0.79552">
        <ele>943</ele>
        <time>2025-07-21T09:33:50Z</time>
      </trkpt>
      <trkpt lat="42.92221" lon="0.79536">
        <ele>943.8</ele>
        <time>2025-07-21T09:33:55Z</time>
      </trkpt>
      <trkpt lat="42.92221" lon="0.79534">
        <ele>944</ele>
        <time>2025-07-21T09:33:56Z</time>
      </trkpt>
      <trkpt lat="42.92217" lon="0.79518">
        <ele>945</ele>
        <time>2025-07-21T09:34:01Z</time>
      </trkpt>
      <trkpt lat="42.92215" lon="0.79506">
        <ele>945.6</ele>
        <time>2025-07-21T09:34:05Z</time>
      </trkpt>
      <trkpt lat="42.92213" lon="0.79499">
        <ele>946.2</ele>
        <time>2025-07-21T09:34:07Z</time>
      </trkpt>
      <trkpt lat="42.92209" lon="0.79482">
        <ele>947</ele>
        <time>2025-07-21T09:34:12Z</time>
      </trkpt>
      <trkpt lat="42.92208" lon="0.79479">
        <ele>947.2</ele>
        <time>2025-07-21T09:34:13Z</time>
      </trkpt>
      <trkpt lat="42.92196" lon="0.79455">
        <ele>948</ele>
        <time>2025-07-21T09:34:20Z</time>
      </trkpt>
      <trkpt lat="42.92194" lon="0.79452">
        <ele>948.2</ele>
        <time>2025-07-21T09:34:21Z</time>
      </trkpt>
      <trkpt lat="42.92177" lon="0.79426">
        <ele>948.8</ele>
        <time>2025-07-21T09:34:29Z</time>
      </trkpt>
      <trkpt lat="42.92172" lon="0.79412">
        <ele>949.2</ele>
        <time>2025-07-21T09:34:33Z</time>
      </trkpt>
      <trkpt lat="42.9217" lon="0.79403">
        <ele>949.4</ele>
        <time>2025-07-21T09:34:36Z</time>
      </trkpt>
      <trkpt lat="42.92166" lon="0.79383">
        <ele>950.2</ele>
        <time>2025-07-21T09:34:42Z</time>
      </trkpt>
      <trkpt lat="42.92165" lon="0.79377">
        <ele>950.4</ele>
        <time>2025-07-21T09:34:44Z</time>
      </trkpt>
      <trkpt lat="42.92162" lon="0.79364">
        <ele>951.4</ele>
        <time>2025-07-21T09:34:49Z</time>
      </trkpt>
      <trkpt lat="42.9216" lon="0.79355">
        <ele>952.2</ele>
        <time>2025-07-21T09:34:52Z</time>
      </trkpt>
      <trkpt lat="42.92159" lon="0.79349">
        <ele>952.6</ele>
        <time>2025-07-21T09:34:54Z</time>
      </trkpt>
      <trkpt lat="42.92157" lon="0.79336">
        <ele>953.8</ele>
        <time>2025-07-21T09:34:59Z</time>
      </trkpt>
      <trkpt lat="42.92156" lon="0.79333">
        <ele>954</ele>
        <time>2025-07-21T09:35:00Z</time>
      </trkpt>
      <trkpt lat="42.92151" lon="0.79316">
        <ele>955.2</ele>
        <time>2025-07-21T09:35:06Z</time>
      </trkpt>
      <trkpt lat="42.9215" lon="0.79313">
        <ele>955.2</ele>
        <time>2025-07-21T09:35:07Z</time>
      </trkpt>
      <trkpt lat="42.92145" lon="0.79299">
        <ele>956.2</ele>
        <time>2025-07-21T09:35:12Z</time>
      </trkpt>
      <trkpt lat="42.92142" lon="0.79291">
        <ele>956.8</ele>
        <time>2025-07-21T09:35:15Z</time>
      </trkpt>
      <trkpt lat="42.9214" lon="0.79286">
        <ele>957.2</ele>
        <time>2025-07-21T09:35:17Z</time>
      </trkpt>
      <trkpt lat="42.92135" lon="0.79276">
        <ele>958.2</ele>
        <time>2025-07-21T09:35:21Z</time>
      </trkpt>
      <trkpt lat="42.92133" lon="0.79272">
        <ele>958.6</ele>
        <time>2025-07-21T09:35:23Z</time>
      </trkpt>
      <trkpt lat="42.9213" lon="0.79265">
        <ele>959.2</ele>
        <time>2025-07-21T09:35:26Z</time>
      </trkpt>
      <trkpt lat="42.92128" lon="0.79258">
        <ele>959.8</ele>
        <time>2025-07-21T09:35:29Z</time>
      </trkpt>
      <trkpt lat="42.92127" lon="0.79253">
        <ele>960.4</ele>
        <time>2025-07-21T09:35:31Z</time>
      </trkpt>
      <trkpt lat="42.92124" lon="0.79236">
        <ele>961.4</ele>
        <time>2025-07-21T09:35:37Z</time>
      </trkpt>
      <trkpt lat="42.92121" lon="0.79223">
        <ele>962.6</ele>
        <time>2025-07-21T09:35:41Z</time>
      </trkpt>
      <trkpt lat="42.92119" lon="0.79205">
        <ele>963.6</ele>
        <time>2025-07-21T09:35:47Z</time>
      </trkpt>
      <trkpt lat="42.92119" lon="0.79203">
        <ele>963.6</ele>
        <time>2025-07-21T09:35:48Z</time>
      </trkpt>
      <trkpt lat="42.92118" lon="0.79189">
        <ele>965</ele>
        <time>2025-07-21T09:35:53Z</time>
      </trkpt>
      <trkpt lat="42.92117" lon="0.7918">
        <ele>965.6</ele>
        <time>2025-07-21T09:35:56Z</time>
      </trkpt>
      <trkpt lat="42.92116" lon="0.79175">
        <ele>966</ele>
        <time>2025-07-21T09:35:58Z</time>
      </trkpt>
      <trkpt lat="42.92116" lon="0.79164">
        <ele>967.2</ele>
        <time>2025-07-21T09:36:02Z</time>
      </trkpt>
      <trkpt lat="42.92115" lon="0.79161">
        <ele>967.2</ele>
        <time>2025-07-21T09:36:03Z</time>
      </trkpt>
      <trkpt lat="42.92114" lon="0.79152">
        <ele>968.2</ele>
        <time>2025-07-21T09:36:06Z</time>
      </trkpt>
      <trkpt lat="42.92113" lon="0.79141">
        <ele>968.8</ele>
        <time>2025-07-21T09:36:10Z</time>
      </trkpt>
      <trkpt lat="42.92112" lon="0.79132">
        <ele>969.4</ele>
        <time>2025-07-21T09:36:13Z</time>
      </trkpt>
      <trkpt lat="42.9211" lon="0.79118">
        <ele>970.6</ele>
        <time>2025-07-21T09:36:18Z</time>
      </trkpt>
      <trkpt lat="42.92109" lon="0.79115">
        <ele>970.6</ele>
        <time>2025-07-21T09:36:19Z</time>
      </trkpt>
      <trkpt lat="42.92107" lon="0.79103">
        <ele>971.8</ele>
        <time>2025-07-21T09:36:23Z</time>
      </trkpt>
      <trkpt lat="42.92102" lon="0.79088">
        <ele>972.8</ele>
        <time>2025-07-21T09:36:29Z</time>
      </trkpt>
      <trkpt lat="42.92101" lon="0.79085">
        <ele>972.8</ele>
        <time>2025-07-21T09:36:30Z</time>
      </trkpt>
      <trkpt lat="42.92095" lon="0.79067">
        <ele>974</ele>
        <time>2025-07-21T09:36:37Z</time>
      </trkpt>
      <trkpt lat="42.92094" lon="0.79064">
        <ele>974</ele>
        <time>2025-07-21T09:36:38Z</time>
      </trkpt>
      <trkpt lat="42.9209" lon="0.79051">
        <ele>975</ele>
        <time>2025-07-21T09:36:43Z</time>
      </trkpt>
      <trkpt lat="42.92087" lon="0.79043">
        <ele>975.6</ele>
        <time>2025-07-21T09:36:46Z</time>
      </trkpt>
      <trkpt lat="42.92084" lon="0.79035">
        <ele>976</ele>
        <time>2025-07-21T09:36:49Z</time>
      </trkpt>
      <trkpt lat="42.92078" lon="0.79017">
        <ele>977.2</ele>
        <time>2025-07-21T09:36:56Z</time>
      </trkpt>
      <trkpt lat="42.92076" lon="0.79013">
        <ele>977.2</ele>
        <time>2025-07-21T09:36:57Z</time>
      </trkpt>
      <trkpt lat="42.92073" lon="0.79002">
        <ele>978.4</ele>
        <time>2025-07-21T09:37:01Z</time>
      </trkpt>
      <trkpt lat="42.92068" lon="0.78989">
        <ele>979.4</ele>
        <time>2025-07-21T09:37:06Z</time>
      </trkpt>
      <trkpt lat="42.92065" lon="0.78981">
        <ele>980.4</ele>
        <time>2025-07-21T09:37:09Z</time>
      </trkpt>
      <trkpt lat="42.92064" lon="0.78978">
        <ele>980.6</ele>
        <time>2025-07-21T09:37:10Z</time>
      </trkpt>
      <trkpt lat="42.9206" lon="0.78965">
        <ele>981.8</ele>
        <time>2025-07-21T09:37:15Z</time>
      </trkpt>
      <trkpt lat="42.92058" lon="0.7896">
        <ele>982.2</ele>
        <time>2025-07-21T09:37:17Z</time>
      </trkpt>
      <trkpt lat="42.92054" lon="0.78947">
        <ele>983</ele>
        <time>2025-07-21T09:37:22Z</time>
      </trkpt>
      <trkpt lat="42.9205" lon="0.78933">
        <ele>984</ele>
        <time>2025-07-21T09:37:27Z</time>
      </trkpt>
      <trkpt lat="42.92049" lon="0.7893">
        <ele>984.2</ele>
        <time>2025-07-21T09:37:28Z</time>
      </trkpt>
      <trkpt lat="42.92045" lon="0.78919">
        <ele>985</ele>
        <time>2025-07-21T09:37:32Z</time>
      </trkpt>
      <trkpt lat="42.92044" lon="0.78911">
        <ele>985.6</ele>
        <time>2025-07-21T09:37:35Z</time>
      </trkpt>
      <trkpt lat="42.92041" lon="0.78903">
        <ele>986.2</ele>
        <time>2025-07-21T09:37:38Z</time>
      </trkpt>
      <trkpt lat="42.92042" lon="0.78888">
        <ele>987.2</ele>
        <time>2025-07-21T09:37:43Z</time>
      </trkpt>
      <trkpt lat="42.92045" lon="0.78872">
        <ele>988.2</ele>
        <time>2025-07-21T09:37:49Z</time>
      </trkpt>
      <trkpt lat="42.92046" lon="0.78869">
        <ele>988.6</ele>
        <time>2025-07-21T09:37:50Z</time>
      </trkpt>
      <trkpt lat="42.9205" lon="0.78854">
        <ele>989.8</ele>
        <time>2025-07-21T09:37:55Z</time>
      </trkpt>
      <trkpt lat="42.92054" lon="0.78843">
        <ele>990.8</ele>
        <time>2025-07-21T09:37:59Z</time>
      </trkpt>
      <trkpt lat="42.92059" lon="0.7884">
        <ele>991.4</ele>
        <time>2025-07-21T09:38:01Z</time>
      </trkpt>
      <trkpt lat="42.92062" lon="0.78842">
        <ele>991.6</ele>
        <time>2025-07-21T09:38:03Z</time>
      </trkpt>
      <trkpt lat="42.92064" lon="0.78845">
        <ele>992</ele>
        <time>2025-07-21T09:38:04Z</time>
      </trkpt>
      <trkpt lat="42.92064" lon="0.78849">
        <ele>992</ele>
        <time>2025-07-21T09:38:05Z</time>
      </trkpt>
      <trkpt lat="42.92064" lon="0.78855">
        <ele>992.8</ele>
        <time>2025-07-21T09:38:07Z</time>
      </trkpt>
      <trkpt lat="42.92066" lon="0.78874">
        <ele>993.8</ele>
        <time>2025-07-21T09:38:13Z</time>
      </trkpt>
      <trkpt lat="42.92066" lon="0.78877">
        <ele>994.2</ele>
        <time>2025-07-21T09:38:14Z</time>
      </trkpt>
      <trkpt lat="42.92071" lon="0.78887">
        <ele>995</ele>
        <time>2025-07-21T09:38:18Z</time>
      </trkpt>
      <trkpt lat="42.92075" lon="0.78891">
        <ele>995.4</ele>
        <time>2025-07-21T09:38:20Z</time>
      </trkpt>
      <trkpt lat="42.92082" lon="0.78899">
        <ele>996</ele>
        <time>2025-07-21T09:38:24Z</time>
      </trkpt>
      <trkpt lat="42.92095" lon="0.78908">
        <ele>997</ele>
        <time>2025-07-21T09:38:30Z</time>
      </trkpt>
      <trkpt lat="42.92105" lon="0.78923">
        <ele>998.2</ele>
        <time>2025-07-21T09:38:37Z</time>
      </trkpt>
      <trkpt lat="42.92106" lon="0.78925">
        <ele>998.4</ele>
        <time>2025-07-21T09:38:38Z</time>
      </trkpt>
      <trkpt lat="42.92108" lon="0.78938">
        <ele>999.4</ele>
        <time>2025-07-21T09:38:42Z</time>
      </trkpt>
      <trkpt lat="42.92108" lon="0.7894">
        <ele>999.4</ele>
        <time>2025-07-21T09:38:43Z</time>
      </trkpt>
      <trkpt lat="42.9211" lon="0.78954">
        <ele>1000.6</ele>
        <time>2025-07-21T09:38:47Z</time>
      </trkpt>
      <trkpt lat="42.92112" lon="0.78961">
        <ele>1001</ele>
        <time>2025-07-21T09:38:49Z</time>
      </trkpt>
      <trkpt lat="42.92111" lon="0.78967">
        <ele>1001.4</ele>
        <time>2025-07-21T09:38:51Z</time>
      </trkpt>
      <trkpt lat="42.92111" lon="0.78971">
        <ele>1001.6</ele>
        <time>2025-07-21T09:38:52Z</time>
      </trkpt>
      <trkpt lat="42.92114" lon="0.78985">
        <ele>1002.4</ele>
        <time>2025-07-21T09:38:57Z</time>
      </trkpt>
      <trkpt lat="42.92121" lon="0.79007">
        <ele>1003.6</ele>
        <time>2025-07-21T09:39:05Z</time>
      </trkpt>
      <trkpt lat="42.92126" lon="0.79021">
        <ele>1004.6</ele>
        <time>2025-07-21T09:39:10Z</time>
      </trkpt>
      <trkpt lat="42.9213" lon="0.79033">
        <ele>1005.2</ele>
        <time>2025-07-21T09:39:14Z</time>
      </trkpt>
      <trkpt lat="42.92133" lon="0.7904">
        <ele>1005.8</ele>
        <time>2025-07-21T09:39:17Z</time>
      </trkpt>
      <trkpt lat="42.92139" lon="0.79052">
        <ele>1006.8</ele>
        <time>2025-07-21T09:39:22Z</time>
      </trkpt>
      <trkpt lat="42.9214" lon="0.79055">
        <ele>1006.8</ele>
        <time>2025-07-21T09:39:23Z</time>
      </trkpt>
      <trkpt lat="42.92146" lon="0.7907">
        <ele>1007.6</ele>
        <time>2025-07-21T09:39:29Z</time>
      </trkpt>
      <trkpt lat="42.92148" lon="0.79075">
        <ele>1008</ele>
        <time>2025-07-21T09:39:31Z</time>
      </trkpt>
      <trkpt lat="42.92151" lon="0.79087">
        <ele>1008.6</ele>
        <time>2025-07-21T09:39:35Z</time>
      </trkpt>
      <trkpt lat="42.92156" lon="0.79093">
        <ele>1009.2</ele>
        <time>2025-07-21T09:39:38Z</time>
      </trkpt>
      <trkpt lat="42.92158" lon="0.79093">
        <ele>1009.2</ele>
        <time>2025-07-21T09:39:39Z</time>
      </trkpt>
      <trkpt lat="42.92166" lon="0.79086">
        <ele>1010.2</ele>
        <time>2025-07-21T09:39:43Z</time>
      </trkpt>
      <trkpt lat="42.92167" lon="0.79083">
        <ele>1010.2</ele>
        <time>2025-07-21T09:39:44Z</time>
      </trkpt>
      <trkpt lat="42.92164" lon="0.7907">
        <ele>1011.2</ele>
        <time>2025-07-21T09:39:48Z</time>
      </trkpt>
      <trkpt lat="42.92162" lon="0.79067">
        <ele>1011.2</ele>
        <time>2025-07-21T09:39:49Z</time>
      </trkpt>
      <trkpt lat="42.92153" lon="0.79043">
        <ele>1012.2</ele>
        <time>2025-07-21T09:39:57Z</time>
      </trkpt>
      <trkpt lat="42.92151" lon="0.7902">
        <ele>1013.4</ele>
        <time>2025-07-21T09:40:04Z</time>
      </trkpt>
      <trkpt lat="42.92151" lon="0.79013">
        <ele>1013.8</ele>
        <time>2025-07-21T09:40:06Z</time>
      </trkpt>
      <trkpt lat="42.92149" lon="0.79003">
        <ele>1014.4</ele>
        <time>2025-07-21T09:40:09Z</time>
      </trkpt>
      <trkpt lat="42.92147" lon="0.78985">
        <ele>1015.6</ele>
        <time>2025-07-21T09:40:15Z</time>
      </trkpt>
      <trkpt lat="42.92147" lon="0.7897">
        <ele>1016.8</ele>
        <time>2025-07-21T09:40:20Z</time>
      </trkpt>
      <trkpt lat="42.92147" lon="0.7895">
        <ele>1017.8</ele>
        <time>2025-07-21T09:40:26Z</time>
      </trkpt>
      <trkpt lat="42.92147" lon="0.78944">
        <ele>1018.2</ele>
        <time>2025-07-21T09:40:28Z</time>
      </trkpt>
      <trkpt lat="42.92146" lon="0.78935">
        <ele>1019</ele>
        <time>2025-07-21T09:40:31Z</time>
      </trkpt>
      <trkpt lat="42.92146" lon="0.78919">
        <ele>1020</ele>
        <time>2025-07-21T09:40:36Z</time>
      </trkpt>
      <trkpt lat="42.92144" lon="0.789">
        <ele>1021</ele>
        <time>2025-07-21T09:40:42Z</time>
      </trkpt>
      <trkpt lat="42.92144" lon="0.78894">
        <ele>1021.2</ele>
        <time>2025-07-21T09:40:44Z</time>
      </trkpt>
      <trkpt lat="42.92142" lon="0.78877">
        <ele>1022.2</ele>
        <time>2025-07-21T09:40:50Z</time>
      </trkpt>
      <trkpt lat="42.92141" lon="0.78868">
        <ele>1022.6</ele>
        <time>2025-07-21T09:40:53Z</time>
      </trkpt>
      <trkpt lat="42.9214" lon="0.78861">
        <ele>1023.2</ele>
        <time>2025-07-21T09:40:55Z</time>
      </trkpt>
      <trkpt lat="42.92137" lon="0.78842">
        <ele>1024.4</ele>
        <time>2025-07-21T09:41:01Z</time>
      </trkpt>
      <trkpt lat="42.92137" lon="0.78838">
        <ele>1024.8</ele>
        <time>2025-07-21T09:41:03Z</time>
      </trkpt>
      <trkpt lat="42.92136" lon="0.78825">
        <ele>1025.4</ele>
        <time>2025-07-21T09:41:07Z</time>
      </trkpt>
      <trkpt lat="42.92136" lon="0.7882">
        <ele>1025.8</ele>
        <time>2025-07-21T09:41:09Z</time>
      </trkpt>
      <trkpt lat="42.92133" lon="0.78812">
        <ele>1026.6</ele>
        <time>2025-07-21T09:41:12Z</time>
      </trkpt>
      <trkpt lat="42.92131" lon="0.78807">
        <ele>1027.2</ele>
        <time>2025-07-21T09:41:14Z</time>
      </trkpt>
      <trkpt lat="42.92131" lon="0.78804">
        <ele>1027.4</ele>
        <time>2025-07-21T09:41:15Z</time>
      </trkpt>
      <trkpt lat="42.9213" lon="0.78802">
        <ele>1027.6</ele>
        <time>2025-07-21T09:41:16Z</time>
      </trkpt>
      <trkpt lat="42.92128" lon="0.7879">
        <ele>1029</ele>
        <time>2025-07-21T09:41:20Z</time>
      </trkpt>
      <trkpt lat="42.92126" lon="0.78784">
        <ele>1029.8</ele>
        <time>2025-07-21T09:41:22Z</time>
      </trkpt>
      <trkpt lat="42.92125" lon="0.78778">
        <ele>1030.2</ele>
        <time>2025-07-21T09:41:24Z</time>
      </trkpt>
      <trkpt lat="42.92122" lon="0.78765">
        <ele>1031</ele>
        <time>2025-07-21T09:41:29Z</time>
      </trkpt>
      <trkpt lat="42.9212" lon="0.78756">
        <ele>1031.6</ele>
        <time>2025-07-21T09:41:32Z</time>
      </trkpt>
      <trkpt lat="42.92119" lon="0.78749">
        <ele>1032.2</ele>
        <time>2025-07-21T09:41:34Z</time>
      </trkpt>
      <trkpt lat="42.92118" lon="0.78736">
        <ele>1033.2</ele>
        <time>2025-07-21T09:41:39Z</time>
      </trkpt>
      <trkpt lat="42.92117" lon="0.78732">
        <ele>1033.6</ele>
        <time>2025-07-21T09:41:40Z</time>
      </trkpt>
      <trkpt lat="42.92116" lon="0.78723">
        <ele>1034.6</ele>
        <time>2025-07-21T09:41:43Z</time>
      </trkpt>
      <trkpt lat="42.92115" lon="0.78712">
        <ele>1035</ele>
        <time>2025-07-21T09:41:47Z</time>
      </trkpt>
      <trkpt lat="42.92115" lon="0.78704">
        <ele>1035.8</ele>
        <time>2025-07-21T09:41:50Z</time>
      </trkpt>
      <trkpt lat="42.92114" lon="0.78691">
        <ele>1036</ele>
        <time>2025-07-21T09:41:55Z</time>
      </trkpt>
      <trkpt lat="42.92113" lon="0.78674">
        <ele>1036.6</ele>
        <time>2025-07-21T09:42:01Z</time>
      </trkpt>
      <trkpt lat="42.92111" lon="0.78659">
        <ele>1037.4</ele>
        <time>2025-07-21T09:42:06Z</time>
      </trkpt>
      <trkpt lat="42.92111" lon="0.78656">
        <ele>1037.6</ele>
        <time>2025-07-21T09:42:07Z</time>
      </trkpt>
      <trkpt lat="42.92108" lon="0.78643">
        <ele>1038.6</ele>
        <time>2025-07-21T09:42:12Z</time>
      </trkpt>
      <trkpt lat="42.92106" lon="0.78635">
        <ele>1039.8</ele>
        <time>2025-07-21T09:42:15Z</time>
      </trkpt>
      <trkpt lat="42.92103" lon="0.78625">
        <ele>1040.8</ele>
        <time>2025-07-21T09:42:19Z</time>
      </trkpt>
      <trkpt lat="42.92101" lon="0.7862">
        <ele>1041.2</ele>
        <time>2025-07-21T09:42:21Z</time>
      </trkpt>
      <trkpt lat="42.92098" lon="0.78616">
        <ele>1042</ele>
        <time>2025-07-21T09:42:23Z</time>
      </trkpt>
      <trkpt lat="42.92094" lon="0.78608">
        <ele>1042.6</ele>
        <time>2025-07-21T09:42:26Z</time>
      </trkpt>
      <trkpt lat="42.92092" lon="0.78602">
        <ele>1042.8</ele>
        <time>2025-07-21T09:42:28Z</time>
      </trkpt>
      <trkpt lat="42.92083" lon="0.78588">
        <ele>1043.8</ele>
        <time>2025-07-21T09:42:34Z</time>
      </trkpt>
      <trkpt lat="42.92082" lon="0.78585">
        <ele>1044</ele>
        <time>2025-07-21T09:42:35Z</time>
      </trkpt>
      <trkpt lat="42.92081" lon="0.78583">
        <ele>1044</ele>
        <time>2025-07-21T09:42:36Z</time>
      </trkpt>
      <trkpt lat="42.92078" lon="0.78575">
        <ele>1044.6</ele>
        <time>2025-07-21T09:42:39Z</time>
      </trkpt>
      <trkpt lat="42.92075" lon="0.78571">
        <ele>1045</ele>
        <time>2025-07-21T09:42:41Z</time>
      </trkpt>
      <trkpt lat="42.92069" lon="0.78561">
        <ele>1046</ele>
        <time>2025-07-21T09:42:45Z</time>
      </trkpt>
      <trkpt lat="42.92064" lon="0.78551">
        <ele>1047</ele>
        <time>2025-07-21T09:42:49Z</time>
      </trkpt>
      <trkpt lat="42.92062" lon="0.78546">
        <ele>1047.2</ele>
        <time>2025-07-21T09:42:51Z</time>
      </trkpt>
      <trkpt lat="42.92057" lon="0.78536">
        <ele>1048.4</ele>
        <time>2025-07-21T09:42:55Z</time>
      </trkpt>
      <trkpt lat="42.92056" lon="0.78528">
        <ele>1049</ele>
        <time>2025-07-21T09:42:58Z</time>
      </trkpt>
      <trkpt lat="42.92058" lon="0.78526">
        <ele>1049.4</ele>
        <time>2025-07-21T09:42:59Z</time>
      </trkpt>
      <trkpt lat="42.9206" lon="0.78525">
        <ele>1049.8</ele>
        <time>2025-07-21T09:43:00Z</time>
      </trkpt>
      <trkpt lat="42.92062" lon="0.78526">
        <ele>1050</ele>
        <time>2025-07-21T09:43:01Z</time>
      </trkpt>
      <trkpt lat="42.92063" lon="0.78528">
        <ele>1050.2</ele>
        <time>2025-07-21T09:43:02Z</time>
      </trkpt>
      <trkpt lat="42.92064" lon="0.78531">
        <ele>1050.8</ele>
        <time>2025-07-21T09:43:03Z</time>
      </trkpt>
      <trkpt lat="42.92066" lon="0.78537">
        <ele>1051.2</ele>
        <time>2025-07-21T09:43:05Z</time>
      </trkpt>
      <trkpt lat="42.92066" lon="0.78541">
        <ele>1051.4</ele>
        <time>2025-07-21T09:43:06Z</time>
      </trkpt>
      <trkpt lat="42.92069" lon="0.78546">
        <ele>1051.8</ele>
        <time>2025-07-21T09:43:08Z</time>
      </trkpt>
      <trkpt lat="42.92074" lon="0.78558">
        <ele>1053</ele>
        <time>2025-07-21T09:43:12Z</time>
      </trkpt>
      <trkpt lat="42.92076" lon="0.78561">
        <ele>1053</ele>
        <time>2025-07-21T09:43:13Z</time>
      </trkpt>
      <trkpt lat="42.9209" lon="0.78581">
        <ele>1053.8</ele>
        <time>2025-07-21T09:43:22Z</time>
      </trkpt>
      <trkpt lat="42.92092" lon="0.78582">
        <ele>1053.8</ele>
        <time>2025-07-21T09:43:23Z</time>
      </trkpt>
      <trkpt lat="42.92104" lon="0.78592">
        <ele>1054.8</ele>
        <time>2025-07-21T09:43:29Z</time>
      </trkpt>
      <trkpt lat="42.92108" lon="0.78596">
        <ele>1055.2</ele>
        <time>2025-07-21T09:43:31Z</time>
      </trkpt>
      <trkpt lat="42.92112" lon="0.78604">
        <ele>1055.8</ele>
        <time>2025-07-21T09:43:34Z</time>
      </trkpt>
      <trkpt lat="42.92119" lon="0.78619">
        <ele>1056.8</ele>
        <time>2025-07-21T09:43:40Z</time>
      </trkpt>
      <trkpt lat="42.92125" lon="0.78636">
        <ele>1057.8</ele>
        <time>2025-07-21T09:43:47Z</time>
      </trkpt>
      <trkpt lat="42.92129" lon="0.78646">
        <ele>1058.4</ele>
        <time>2025-07-21T09:43:50Z</time>
      </trkpt>
      <trkpt lat="42.92132" lon="0.78658">
        <ele>1059</ele>
        <time>2025-07-21T09:43:54Z</time>
      </trkpt>
      <trkpt lat="42.92135" lon="0.78666">
        <ele>1059.6</ele>
        <time>2025-07-21T09:43:57Z</time>
      </trkpt>
      <trkpt lat="42.92138" lon="0.78672">
        <ele>1060</ele>
        <time>2025-07-21T09:43:59Z</time>
      </trkpt>
      <trkpt lat="42.9214" lon="0.78687">
        <ele>1061.2</ele>
        <time>2025-07-21T09:44:04Z</time>
      </trkpt>
      <trkpt lat="42.92143" lon="0.78703">
        <ele>1062.4</ele>
        <time>2025-07-21T09:44:09Z</time>
      </trkpt>
      <trkpt lat="42.92144" lon="0.78705">
        <ele>1062.4</ele>
        <time>2025-07-21T09:44:10Z</time>
      </trkpt>
      <trkpt lat="42.92152" lon="0.78709">
        <ele>1063</ele>
        <time>2025-07-21T09:44:13Z</time>
      </trkpt>
      <trkpt lat="42.92154" lon="0.78708">
        <ele>1063.4</ele>
        <time>2025-07-21T09:44:14Z</time>
      </trkpt>
      <trkpt lat="42.92156" lon="0.78705">
        <ele>1063.4</ele>
        <time>2025-07-21T09:44:15Z</time>
      </trkpt>
      <trkpt lat="42.92157" lon="0.78694">
        <ele>1063.8</ele>
        <time>2025-07-21T09:44:18Z</time>
      </trkpt>
      <trkpt lat="42.92153" lon="0.78678">
        <ele>1064.6</ele>
        <time>2025-07-21T09:44:23Z</time>
      </trkpt>
      <trkpt lat="42.92151" lon="0.7867">
        <ele>1064.8</ele>
        <time>2025-07-21T09:44:25Z</time>
      </trkpt>
      <trkpt lat="42.92146" lon="0.78654">
        <ele>1065.6</ele>
        <time>2025-07-21T09:44:30Z</time>
      </trkpt>
      <trkpt lat="42.92144" lon="0.78644">
        <ele>1065.8</ele>
        <time>2025-07-21T09:44:33Z</time>
      </trkpt>
      <trkpt lat="42.92141" lon="0.7863">
        <ele>1066.4</ele>
        <time>2025-07-21T09:44:37Z</time>
      </trkpt>
      <trkpt lat="42.9214" lon="0.78617">
        <ele>1067</ele>
        <time>2025-07-21T09:44:41Z</time>
      </trkpt>
      <trkpt lat="42.92137" lon="0.786">
        <ele>1067.6</ele>
        <time>2025-07-21T09:44:46Z</time>
      </trkpt>
      <trkpt lat="42.92135" lon="0.78594">
        <ele>1067.6</ele>
        <time>2025-07-21T09:44:48Z</time>
      </trkpt>
      <trkpt lat="42.92129" lon="0.78573">
        <ele>1068.8</ele>
        <time>2025-07-21T09:44:55Z</time>
      </trkpt>
      <trkpt lat="42.92123" lon="0.78556">
        <ele>1069.6</ele>
        <time>2025-07-21T09:45:01Z</time>
      </trkpt>
      <trkpt lat="42.92122" lon="0.78554">
        <ele>1069.8</ele>
        <time>2025-07-21T09:45:02Z</time>
      </trkpt>
      <trkpt lat="42.92118" lon="0.78541">
        <ele>1070.6</ele>
        <time>2025-07-21T09:45:07Z</time>
      </trkpt>
      <trkpt lat="42.92116" lon="0.78536">
        <ele>1071</ele>
        <time>2025-07-21T09:45:09Z</time>
      </trkpt>
      <trkpt lat="42.92113" lon="0.78528">
        <ele>1071.6</ele>
        <time>2025-07-21T09:45:12Z</time>
      </trkpt>
      <trkpt lat="42.92112" lon="0.78523">
        <ele>1072</ele>
        <time>2025-07-21T09:45:14Z</time>
      </trkpt>
      <trkpt lat="42.92111" lon="0.78518">
        <ele>1072.4</ele>
        <time>2025-07-21T09:45:16Z</time>
      </trkpt>
      <trkpt lat="42.92111" lon="0.78515">
        <ele>1072.6</ele>
        <time>2025-07-21T09:45:17Z</time>
      </trkpt>
      <trkpt lat="42.92109" lon="0.78499">
        <ele>1073.8</ele>
        <time>2025-07-21T09:45:22Z</time>
      </trkpt>
      <trkpt lat="42.92109" lon="0.78492">
        <ele>1074.2</ele>
        <time>2025-07-21T09:45:24Z</time>
      </trkpt>
      <trkpt lat="42.92107" lon="0.7848">
        <ele>1075</ele>
        <time>2025-07-21T09:45:28Z</time>
      </trkpt>
      <trkpt lat="42.92105" lon="0.78466">
        <ele>1076</ele>
        <time>2025-07-21T09:45:33Z</time>
      </trkpt>
      <trkpt lat="42.92104" lon="0.78463">
        <ele>1076.2</ele>
        <time>2025-07-21T09:45:34Z</time>
      </trkpt>
      <trkpt lat="42.92098" lon="0.78449">
        <ele>1077</ele>
        <time>2025-07-21T09:45:39Z</time>
      </trkpt>
      <trkpt lat="42.92094" lon="0.78442">
        <ele>1078</ele>
        <time>2025-07-21T09:45:42Z</time>
      </trkpt>
      <trkpt lat="42.92093" lon="0.7844">
        <ele>1078.2</ele>
        <time>2025-07-21T09:45:43Z</time>
      </trkpt>
      <trkpt lat="42.92083" lon="0.78426">
        <ele>1079.4</ele>
        <time>2025-07-21T09:45:49Z</time>
      </trkpt>
      <trkpt lat="42.92082" lon="0.78424">
        <ele>1079.8</ele>
        <time>2025-07-21T09:45:50Z</time>
      </trkpt>
      <trkpt lat="42.92077" lon="0.78418">
        <ele>1080.4</ele>
        <time>2025-07-21T09:45:53Z</time>
      </trkpt>
      <trkpt lat="42.92068" lon="0.78403">
        <ele>1081.4</ele>
        <time>2025-07-21T09:45:59Z</time>
      </trkpt>
      <trkpt lat="42.92063" lon="0.7839">
        <ele>1082.6</ele>
        <time>2025-07-21T09:46:04Z</time>
      </trkpt>
      <trkpt lat="42.9206" lon="0.78376">
        <ele>1083.6</ele>
        <time>2025-07-21T09:46:09Z</time>
      </trkpt>
      <trkpt lat="42.92059" lon="0.78373">
        <ele>1083.8</ele>
        <time>2025-07-21T09:46:10Z</time>
      </trkpt>
      <trkpt lat="42.92058" lon="0.78364">
        <ele>1084.6</ele>
        <time>2025-07-21T09:46:13Z</time>
      </trkpt>
      <trkpt lat="42.92057" lon="0.78355">
        <ele>1085.8</ele>
        <time>2025-07-21T09:46:16Z</time>
      </trkpt>
      <trkpt lat="42.92056" lon="0.78349">
        <ele>1086.2</ele>
        <time>2025-07-21T09:46:18Z</time>
      </trkpt>
      <trkpt lat="42.92052" lon="0.78338">
        <ele>1087.2</ele>
        <time>2025-07-21T09:46:22Z</time>
      </trkpt>
      <trkpt lat="42.92047" lon="0.78327">
        <ele>1087.8</ele>
        <time>2025-07-21T09:46:26Z</time>
      </trkpt>
      <trkpt lat="42.92046" lon="0.78325">
        <ele>1088</ele>
        <time>2025-07-21T09:46:27Z</time>
      </trkpt>
      <trkpt lat="42.92039" lon="0.78311">
        <ele>1089</ele>
        <time>2025-07-21T09:46:33Z</time>
      </trkpt>
      <trkpt lat="42.92036" lon="0.78306">
        <ele>1089.8</ele>
        <time>2025-07-21T09:46:35Z</time>
      </trkpt>
      <trkpt lat="42.92034" lon="0.78301">
        <ele>1090.2</ele>
        <time>2025-07-21T09:46:37Z</time>
      </trkpt>
      <trkpt lat="42.92027" lon="0.78289">
        <ele>1091.2</ele>
        <time>2025-07-21T09:46:42Z</time>
      </trkpt>
      <trkpt lat="42.92026" lon="0.78286">
        <ele>1091.2</ele>
        <time>2025-07-21T09:46:43Z</time>
      </trkpt>
      <trkpt lat="42.92018" lon="0.78275">
        <ele>1092</ele>
        <time>2025-07-21T09:46:48Z</time>
      </trkpt>
      <trkpt lat="42.92012" lon="0.78264">
        <ele>1092.4</ele>
        <time>2025-07-21T09:46:52Z</time>
      </trkpt>
      <trkpt lat="42.92007" lon="0.78253">
        <ele>1093.2</ele>
        <time>2025-07-21T09:46:56Z</time>
      </trkpt>
      <trkpt lat="42.91999" lon="0.78238">
        <ele>1094.4</ele>
        <time>2025-07-21T09:47:02Z</time>
      </trkpt>
      <trkpt lat="42.91989" lon="0.78227">
        <ele>1095.4</ele>
        <time>2025-07-21T09:47:07Z</time>
      </trkpt>
      <trkpt lat="42.91981" lon="0.78217">
        <ele>1096.4</ele>
        <time>2025-07-21T09:47:12Z</time>
      </trkpt>
      <trkpt lat="42.9198" lon="0.78214">
        <ele>1096.6</ele>
        <time>2025-07-21T09:47:13Z</time>
      </trkpt>
      <trkpt lat="42.91974" lon="0.78204">
        <ele>1097.4</ele>
        <time>2025-07-21T09:47:17Z</time>
      </trkpt>
      <trkpt lat="42.9197" lon="0.78192">
        <ele>1098</ele>
        <time>2025-07-21T09:47:21Z</time>
      </trkpt>
      <trkpt lat="42.91969" lon="0.78189">
        <ele>1098.4</ele>
        <time>2025-07-21T09:47:22Z</time>
      </trkpt>
      <trkpt lat="42.91959" lon="0.78176">
        <ele>1099.6</ele>
        <time>2025-07-21T09:47:28Z</time>
      </trkpt>
      <trkpt lat="42.9195" lon="0.78167">
        <ele>1100.6</ele>
        <time>2025-07-21T09:47:33Z</time>
      </trkpt>
      <trkpt lat="42.91941" lon="0.78161">
        <ele>1101.4</ele>
        <time>2025-07-21T09:47:37Z</time>
      </trkpt>
      <trkpt lat="42.91939" lon="0.78159">
        <ele>1101.6</ele>
        <time>2025-07-21T09:47:38Z</time>
      </trkpt>
      <trkpt lat="42.91932" lon="0.7815">
        <ele>1102.2</ele>
        <time>2025-07-21T09:47:42Z</time>
      </trkpt>
      <trkpt lat="42.91932" lon="0.78147">
        <ele>1102.4</ele>
        <time>2025-07-21T09:47:43Z</time>
      </trkpt>
      <trkpt lat="42.91933" lon="0.78145">
        <ele>1102.4</ele>
        <time>2025-07-21T09:47:44Z</time>
      </trkpt>
      <trkpt lat="42.91935" lon="0.78143">
        <ele>1102.8</ele>
        <time>2025-07-21T09:47:45Z</time>
      </trkpt>
      <trkpt lat="42.91937" lon="0.78142">
        <ele>1102.8</ele>
        <time>2025-07-21T09:47:46Z</time>
      </trkpt>
      <trkpt lat="42.91947" lon="0.78148">
        <ele>1104</ele>
        <time>2025-07-21T09:47:50Z</time>
      </trkpt>
      <trkpt lat="42.91951" lon="0.78152">
        <ele>1104.6</ele>
        <time>2025-07-21T09:47:52Z</time>
      </trkpt>
      <trkpt lat="42.91957" lon="0.78157">
        <ele>1105.2</ele>
        <time>2025-07-21T09:47:55Z</time>
      </trkpt>
      <trkpt lat="42.91967" lon="0.78168">
        <ele>1106</ele>
        <time>2025-07-21T09:48:00Z</time>
      </trkpt>
      <trkpt lat="42.91971" lon="0.78174">
        <ele>1106.4</ele>
        <time>2025-07-21T09:48:02Z</time>
      </trkpt>
      <trkpt lat="42.9198" lon="0.78185">
        <ele>1107.2</ele>
        <time>2025-07-21T09:48:07Z</time>
      </trkpt>
      <trkpt lat="42.91986" lon="0.78193">
        <ele>1107.6</ele>
        <time>2025-07-21T09:48:10Z</time>
      </trkpt>
      <trkpt lat="42.91992" lon="0.78198">
        <ele>1108.2</ele>
        <time>2025-07-21T09:48:13Z</time>
      </trkpt>
      <trkpt lat="42.91997" lon="0.78206">
        <ele>1109</ele>
        <time>2025-07-21T09:48:17Z</time>
      </trkpt>
      <trkpt lat="42.92002" lon="0.7821">
        <ele>1109.2</ele>
        <time>2025-07-21T09:48:19Z</time>
      </trkpt>
      <trkpt lat="42.92004" lon="0.78211">
        <ele>1109.4</ele>
        <time>2025-07-21T09:48:20Z</time>
      </trkpt>
      <trkpt lat="42.92011" lon="0.78217">
        <ele>1110.2</ele>
        <time>2025-07-21T09:48:24Z</time>
      </trkpt>
      <trkpt lat="42.9202" lon="0.78227">
        <ele>1111.4</ele>
        <time>2025-07-21T09:48:29Z</time>
      </trkpt>
      <trkpt lat="42.92023" lon="0.78231">
        <ele>1111.8</ele>
        <time>2025-07-21T09:48:31Z</time>
      </trkpt>
      <trkpt lat="42.92027" lon="0.78237">
        <ele>1112.4</ele>
        <time>2025-07-21T09:48:33Z</time>
      </trkpt>
      <trkpt lat="42.92034" lon="0.78246">
        <ele>1113.4</ele>
        <time>2025-07-21T09:48:37Z</time>
      </trkpt>
      <trkpt lat="42.9204" lon="0.78252">
        <ele>1114</ele>
        <time>2025-07-21T09:48:40Z</time>
      </trkpt>
      <trkpt lat="42.92045" lon="0.78252">
        <ele>1114.4</ele>
        <time>2025-07-21T09:48:42Z</time>
      </trkpt>
      <trkpt lat="42.92048" lon="0.78251">
        <ele>1114.4</ele>
        <time>2025-07-21T09:48:43Z</time>
      </trkpt>
      <trkpt lat="42.9205" lon="0.78248">
        <ele>1114.6</ele>
        <time>2025-07-21T09:48:44Z</time>
      </trkpt>
      <trkpt lat="42.92051" lon="0.78245">
        <ele>1114.8</ele>
        <time>2025-07-21T09:48:45Z</time>
      </trkpt>
      <trkpt lat="42.9205" lon="0.78239">
        <ele>1115.2</ele>
        <time>2025-07-21T09:48:47Z</time>
      </trkpt>
      <trkpt lat="42.92049" lon="0.78236">
        <ele>1115.4</ele>
        <time>2025-07-21T09:48:48Z</time>
      </trkpt>
      <trkpt lat="42.92038" lon="0.78224">
        <ele>1116.4</ele>
        <time>2025-07-21T09:48:53Z</time>
      </trkpt>
      <trkpt lat="42.92035" lon="0.78222">
        <ele>1116.4</ele>
        <time>2025-07-21T09:48:54Z</time>
      </trkpt>
      <trkpt lat="42.92019" lon="0.78203">
        <ele>1117</ele>
        <time>2025-07-21T09:49:02Z</time>
      </trkpt>
      <trkpt lat="42.92016" lon="0.78196">
        <ele>1117.4</ele>
        <time>2025-07-21T09:49:05Z</time>
      </trkpt>
      <trkpt lat="42.92011" lon="0.78184">
        <ele>1118</ele>
        <time>2025-07-21T09:49:09Z</time>
      </trkpt>
      <trkpt lat="42.92007" lon="0.78176">
        <ele>1118.4</ele>
        <time>2025-07-21T09:49:12Z</time>
      </trkpt>
      <trkpt lat="42.92003" lon="0.78169">
        <ele>1119.2</ele>
        <time>2025-07-21T09:49:15Z</time>
      </trkpt>
      <trkpt lat="42.92" lon="0.78163">
        <ele>1119.8</ele>
        <time>2025-07-21T09:49:17Z</time>
      </trkpt>
      <trkpt lat="42.91995" lon="0.78155">
        <ele>1120.6</ele>
        <time>2025-07-21T09:49:21Z</time>
      </trkpt>
      <trkpt lat="42.91993" lon="0.78152">
        <ele>1121</ele>
        <time>2025-07-21T09:49:22Z</time>
      </trkpt>
      <trkpt lat="42.91988" lon="0.78141">
        <ele>1122</ele>
        <time>2025-07-21T09:49:27Z</time>
      </trkpt>
      <trkpt lat="42.91981" lon="0.78128">
        <ele>1122.8</ele>
        <time>2025-07-21T09:49:32Z</time>
      </trkpt>
      <trkpt lat="42.91976" lon="0.78117">
        <ele>1123.8</ele>
        <time>2025-07-21T09:49:36Z</time>
      </trkpt>
      <trkpt lat="42.91974" lon="0.78114">
        <ele>1124</ele>
        <time>2025-07-21T09:49:37Z</time>
      </trkpt>
      <trkpt lat="42.9197" lon="0.78108">
        <ele>1125</ele>
        <time>2025-07-21T09:49:40Z</time>
      </trkpt>
      <trkpt lat="42.91968" lon="0.78103">
        <ele>1125.6</ele>
        <time>2025-07-21T09:49:42Z</time>
      </trkpt>
      <trkpt lat="42.91967" lon="0.78102">
        <ele>1126</ele>
        <time>2025-07-21T09:49:43Z</time>
      </trkpt>
      <trkpt lat="42.91966" lon="0.781">
        <ele>1126.2</ele>
        <time>2025-07-21T09:49:44Z</time>
      </trkpt>
      <trkpt lat="42.91964" lon="0.78098">
        <ele>1126.4</ele>
        <time>2025-07-21T09:49:45Z</time>
      </trkpt>
      <trkpt lat="42.91961" lon="0.78095">
        <ele>1126.4</ele>
        <time>2025-07-21T09:49:47Z</time>
      </trkpt>
      <trkpt lat="42.91956" lon="0.78089">
        <ele>1127.2</ele>
        <time>2025-07-21T09:49:50Z</time>
      </trkpt>
      <trkpt lat="42.91949" lon="0.78082">
        <ele>1128.2</ele>
        <time>2025-07-21T09:49:54Z</time>
      </trkpt>
      <trkpt lat="42.91941" lon="0.78074">
        <ele>1129.6</ele>
        <time>2025-07-21T09:49:59Z</time>
      </trkpt>
      <trkpt lat="42.91937" lon="0.78068">
        <ele>1130.2</ele>
        <time>2025-07-21T09:50:02Z</time>
      </trkpt>
      <trkpt lat="42.91934" lon="0.78063">
        <ele>1130.8</ele>
        <time>2025-07-21T09:50:04Z</time>
      </trkpt>
      <trkpt lat="42.9193" lon="0.7805">
        <ele>1131.8</ele>
        <time>2025-07-21T09:50:09Z</time>
      </trkpt>
      <trkpt lat="42.91929" lon="0.78047">
        <ele>1132</ele>
        <time>2025-07-21T09:50:10Z</time>
      </trkpt>
      <trkpt lat="42.91927" lon="0.78036">
        <ele>1133</ele>
        <time>2025-07-21T09:50:14Z</time>
      </trkpt>
      <trkpt lat="42.91925" lon="0.78025">
        <ele>1133.8</ele>
        <time>2025-07-21T09:50:18Z</time>
      </trkpt>
      <trkpt lat="42.91924" lon="0.78022">
        <ele>1133.8</ele>
        <time>2025-07-21T09:50:19Z</time>
      </trkpt>
      <trkpt lat="42.91919" lon="0.78007">
        <ele>1135</ele>
        <time>2025-07-21T09:50:24Z</time>
      </trkpt>
      <trkpt lat="42.91918" lon="0.78002">
        <ele>1135.4</ele>
        <time>2025-07-21T09:50:26Z</time>
      </trkpt>
      <trkpt lat="42.91913" lon="0.77988">
        <ele>1136</ele>
        <time>2025-07-21T09:50:31Z</time>
      </trkpt>
      <trkpt lat="42.9191" lon="0.7798">
        <ele>1136.8</ele>
        <time>2025-07-21T09:50:34Z</time>
      </trkpt>
      <trkpt lat="42.91908" lon="0.77978">
        <ele>1137</ele>
        <time>2025-07-21T09:50:35Z</time>
      </trkpt>
      <trkpt lat="42.91903" lon="0.77958">
        <ele>1138</ele>
        <time>2025-07-21T09:50:41Z</time>
      </trkpt>
      <trkpt lat="42.91902" lon="0.77955">
        <ele>1138.2</ele>
        <time>2025-07-21T09:50:42Z</time>
      </trkpt>
      <trkpt lat="42.91897" lon="0.77941">
        <ele>1139.2</ele>
        <time>2025-07-21T09:50:47Z</time>
      </trkpt>
      <trkpt lat="42.91893" lon="0.7793">
        <ele>1140</ele>
        <time>2025-07-21T09:50:51Z</time>
      </trkpt>
      <trkpt lat="42.91892" lon="0.77928">
        <ele>1140.2</ele>
        <time>2025-07-21T09:50:52Z</time>
      </trkpt>
      <trkpt lat="42.91882" lon="0.77913">
        <ele>1141.6</ele>
        <time>2025-07-21T09:50:58Z</time>
      </trkpt>
      <trkpt lat="42.9188" lon="0.77911">
        <ele>1142</ele>
        <time>2025-07-21T09:50:59Z</time>
      </trkpt>
      <trkpt lat="42.91873" lon="0.77907">
        <ele>1142.8</ele>
        <time>2025-07-21T09:51:03Z</time>
      </trkpt>
      <trkpt lat="42.91866" lon="0.77902">
        <ele>1143.8</ele>
        <time>2025-07-21T09:51:06Z</time>
      </trkpt>
      <trkpt lat="42.91858" lon="0.77897">
        <ele>1144.6</ele>
        <time>2025-07-21T09:51:10Z</time>
      </trkpt>
      <trkpt lat="42.91847" lon="0.77894">
        <ele>1146</ele>
        <time>2025-07-21T09:51:15Z</time>
      </trkpt>
      <trkpt lat="42.91835" lon="0.77892">
        <ele>1147.2</ele>
        <time>2025-07-21T09:51:20Z</time>
      </trkpt>
      <trkpt lat="42.9183" lon="0.77886">
        <ele>1147.8</ele>
        <time>2025-07-21T09:51:23Z</time>
      </trkpt>
      <trkpt lat="42.9183" lon="0.77882">
        <ele>1148</ele>
        <time>2025-07-21T09:51:24Z</time>
      </trkpt>
      <trkpt lat="42.91831" lon="0.77879">
        <ele>1148.4</ele>
        <time>2025-07-21T09:51:25Z</time>
      </trkpt>
      <trkpt lat="42.91835" lon="0.77877">
        <ele>1149</ele>
        <time>2025-07-21T09:51:27Z</time>
      </trkpt>
      <trkpt lat="42.9184" lon="0.77877">
        <ele>1149.6</ele>
        <time>2025-07-21T09:51:29Z</time>
      </trkpt>
      <trkpt lat="42.9185" lon="0.77879">
        <ele>1150.4</ele>
        <time>2025-07-21T09:51:33Z</time>
      </trkpt>
      <trkpt lat="42.91852" lon="0.77879">
        <ele>1150.6</ele>
        <time>2025-07-21T09:51:34Z</time>
      </trkpt>
      <trkpt lat="42.91864" lon="0.77878">
        <ele>1151.8</ele>
        <time>2025-07-21T09:51:39Z</time>
      </trkpt>
      <trkpt lat="42.91867" lon="0.77878">
        <ele>1152</ele>
        <time>2025-07-21T09:51:40Z</time>
      </trkpt>
      <trkpt lat="42.91879" lon="0.77881">
        <ele>1152.8</ele>
        <time>2025-07-21T09:51:45Z</time>
      </trkpt>
      <trkpt lat="42.91882" lon="0.77884">
        <ele>1153.2</ele>
        <time>2025-07-21T09:51:47Z</time>
      </trkpt>
      <trkpt lat="42.91888" lon="0.7789">
        <ele>1153.8</ele>
        <time>2025-07-21T09:51:50Z</time>
      </trkpt>
      <trkpt lat="42.919" lon="0.779">
        <ele>1154.8</ele>
        <time>2025-07-21T09:51:56Z</time>
      </trkpt>
      <trkpt lat="42.91908" lon="0.77896">
        <ele>1155.8</ele>
        <time>2025-07-21T09:52:00Z</time>
      </trkpt>
      <trkpt lat="42.9191" lon="0.77891">
        <ele>1156.2</ele>
        <time>2025-07-21T09:52:02Z</time>
      </trkpt>
      <trkpt lat="42.91909" lon="0.77884">
        <ele>1156.6</ele>
        <time>2025-07-21T09:52:04Z</time>
      </trkpt>
      <trkpt lat="42.91904" lon="0.77875">
        <ele>1156.8</ele>
        <time>2025-07-21T09:52:07Z</time>
      </trkpt>
      <trkpt lat="42.91897" lon="0.77868">
        <ele>1157.2</ele>
        <time>2025-07-21T09:52:10Z</time>
      </trkpt>
      <trkpt lat="42.91882" lon="0.77852">
        <ele>1158</ele>
        <time>2025-07-21T09:52:17Z</time>
      </trkpt>
      <trkpt lat="42.91874" lon="0.77844">
        <ele>1158.6</ele>
        <time>2025-07-21T09:52:21Z</time>
      </trkpt>
      <trkpt lat="42.91869" lon="0.77837">
        <ele>1159</ele>
        <time>2025-07-21T09:52:24Z</time>
      </trkpt>
      <trkpt lat="42.9186" lon="0.77829">
        <ele>1159.8</ele>
        <time>2025-07-21T09:52:29Z</time>
      </trkpt>
      <trkpt lat="42.9185" lon="0.77817">
        <ele>1161</ele>
        <time>2025-07-21T09:52:35Z</time>
      </trkpt>
      <trkpt lat="42.91848" lon="0.77815">
        <ele>1161.4</ele>
        <time>2025-07-21T09:52:36Z</time>
      </trkpt>
      <trkpt lat="42.91841" lon="0.77807">
        <ele>1162.4</ele>
        <time>2025-07-21T09:52:40Z</time>
      </trkpt>
      <trkpt lat="42.91831" lon="0.778">
        <ele>1163.4</ele>
        <time>2025-07-21T09:52:44Z</time>
      </trkpt>
      <trkpt lat="42.91829" lon="0.77799">
        <ele>1163.6</ele>
        <time>2025-07-21T09:52:45Z</time>
      </trkpt>
      <trkpt lat="42.91818" lon="0.77788">
        <ele>1164.6</ele>
        <time>2025-07-21T09:52:51Z</time>
      </trkpt>
      <trkpt lat="42.91822" lon="0.7778">
        <ele>1165.2</ele>
        <time>2025-07-21T09:52:54Z</time>
      </trkpt>
      <trkpt lat="42.91829" lon="0.77783">
        <ele>1166</ele>
        <time>2025-07-21T09:52:57Z</time>
      </trkpt>
      <trkpt lat="42.91837" lon="0.77785">
        <ele>1166.8</ele>
        <time>2025-07-21T09:53:00Z</time>
      </trkpt>
      <trkpt lat="42.9184" lon="0.77786">
        <ele>1167</ele>
        <time>2025-07-21T09:53:01Z</time>
      </trkpt>
      <trkpt lat="42.91856" lon="0.77789">
        <ele>1168</ele>
        <time>2025-07-21T09:53:07Z</time>
      </trkpt>
      <trkpt lat="42.91861" lon="0.77789">
        <ele>1168.2</ele>
        <time>2025-07-21T09:53:09Z</time>
      </trkpt>
      <trkpt lat="42.91873" lon="0.77788">
        <ele>1169</ele>
        <time>2025-07-21T09:53:14Z</time>
      </trkpt>
      <trkpt lat="42.91885" lon="0.77791">
        <ele>1169.8</ele>
        <time>2025-07-21T09:53:19Z</time>
      </trkpt>
      <trkpt lat="42.91888" lon="0.77792">
        <ele>1170.2</ele>
        <time>2025-07-21T09:53:20Z</time>
      </trkpt>
      <trkpt lat="42.91897" lon="0.778">
        <ele>1171.2</ele>
        <time>2025-07-21T09:53:25Z</time>
      </trkpt>
      <trkpt lat="42.919" lon="0.77803">
        <ele>1171.4</ele>
        <time>2025-07-21T09:53:26Z</time>
      </trkpt>
      <trkpt lat="42.91907" lon="0.77811">
        <ele>1172.4</ele>
        <time>2025-07-21T09:53:30Z</time>
      </trkpt>
      <trkpt lat="42.91914" lon="0.77822">
        <ele>1173.4</ele>
        <time>2025-07-21T09:53:35Z</time>
      </trkpt>
      <trkpt lat="42.91917" lon="0.77827">
        <ele>1173.8</ele>
        <time>2025-07-21T09:53:37Z</time>
      </trkpt>
      <trkpt lat="42.91922" lon="0.77837">
        <ele>1174.4</ele>
        <time>2025-07-21T09:53:41Z</time>
      </trkpt>
      <trkpt lat="42.91929" lon="0.77849">
        <ele>1175.6</ele>
        <time>2025-07-21T09:53:46Z</time>
      </trkpt>
      <trkpt lat="42.91932" lon="0.77854">
        <ele>1176</ele>
        <time>2025-07-21T09:53:48Z</time>
      </trkpt>
      <trkpt lat="42.91937" lon="0.77862">
        <ele>1176.6</ele>
        <time>2025-07-21T09:53:51Z</time>
      </trkpt>
      <trkpt lat="42.9194" lon="0.77867">
        <ele>1177.2</ele>
        <time>2025-07-21T09:53:53Z</time>
      </trkpt>
      <trkpt lat="42.91944" lon="0.77875">
        <ele>1177.8</ele>
        <time>2025-07-21T09:53:56Z</time>
      </trkpt>
      <trkpt lat="42.9195" lon="0.77888">
        <ele>1178.8</ele>
        <time>2025-07-21T09:54:01Z</time>
      </trkpt>
      <trkpt lat="42.91955" lon="0.77896">
        <ele>1179.2</ele>
        <time>2025-07-21T09:54:04Z</time>
      </trkpt>
      <trkpt lat="42.91958" lon="0.77904">
        <ele>1179.8</ele>
        <time>2025-07-21T09:54:07Z</time>
      </trkpt>
      <trkpt lat="42.91965" lon="0.77921">
        <ele>1180.8</ele>
        <time>2025-07-21T09:54:13Z</time>
      </trkpt>
      <trkpt lat="42.91967" lon="0.77928">
        <ele>1181</ele>
        <time>2025-07-21T09:54:15Z</time>
      </trkpt>
      <trkpt lat="42.91974" lon="0.77942">
        <ele>1181.8</ele>
        <time>2025-07-21T09:54:20Z</time>
      </trkpt>
      <trkpt lat="42.91979" lon="0.77947">
        <ele>1182.2</ele>
        <time>2025-07-21T09:54:23Z</time>
      </trkpt>
      <trkpt lat="42.91985" lon="0.77946">
        <ele>1182.4</ele>
        <time>2025-07-21T09:54:25Z</time>
      </trkpt>
      <trkpt lat="42.91988" lon="0.77941">
        <ele>1182.8</ele>
        <time>2025-07-21T09:54:27Z</time>
      </trkpt>
      <trkpt lat="42.91984" lon="0.77922">
        <ele>1183.6</ele>
        <time>2025-07-21T09:54:32Z</time>
      </trkpt>
      <trkpt lat="42.91981" lon="0.77916">
        <ele>1183.8</ele>
        <time>2025-07-21T09:54:34Z</time>
      </trkpt>
      <trkpt lat="42.91973" lon="0.77897">
        <ele>1184.4</ele>
        <time>2025-07-21T09:54:40Z</time>
      </trkpt>
      <trkpt lat="42.91969" lon="0.77888">
        <ele>1184.8</ele>
        <time>2025-07-21T09:54:43Z</time>
      </trkpt>
      <trkpt lat="42.91965" lon="0.77879">
        <ele>1185.4</ele>
        <time>2025-07-21T09:54:46Z</time>
      </trkpt>
      <trkpt lat="42.91962" lon="0.77874">
        <ele>1185.2</ele>
        <time>2025-07-21T09:54:48Z</time>
      </trkpt>
      <trkpt lat="42.91959" lon="0.77865">
        <ele>1185.8</ele>
        <time>2025-07-21T09:54:51Z</time>
      </trkpt>
      <trkpt lat="42.91956" lon="0.77856">
        <ele>1186.6</ele>
        <time>2025-07-21T09:54:55Z</time>
      </trkpt>
      <trkpt lat="42.91954" lon="0.7785">
        <ele>1187</ele>
        <time>2025-07-21T09:54:57Z</time>
      </trkpt>
      <trkpt lat="42.91953" lon="0.77842">
        <ele>1187.8</ele>
        <time>2025-07-21T09:55:00Z</time>
      </trkpt>
      <trkpt lat="42.91953" lon="0.7784">
        <ele>1188</ele>
        <time>2025-07-21T09:55:01Z</time>
      </trkpt>
      <trkpt lat="42.91953" lon="0.77837">
        <ele>1188.2</ele>
        <time>2025-07-21T09:55:02Z</time>
      </trkpt>
      <trkpt lat="42.91952" lon="0.77831">
        <ele>1188.8</ele>
        <time>2025-07-21T09:55:04Z</time>
      </trkpt>
      <trkpt lat="42.91952" lon="0.77829">
        <ele>1189.2</ele>
        <time>2025-07-21T09:55:05Z</time>
      </trkpt>
      <trkpt lat="42.91951" lon="0.77825">
        <ele>1189.2</ele>
        <time>2025-07-21T09:55:06Z</time>
      </trkpt>
      <trkpt lat="42.91947" lon="0.77813">
        <ele>1190.4</ele>
        <time>2025-07-21T09:55:10Z</time>
      </trkpt>
      <trkpt lat="42.91941" lon="0.77798">
        <ele>1191.4</ele>
        <time>2025-07-21T09:55:15Z</time>
      </trkpt>
      <trkpt lat="42.9194" lon="0.77795">
        <ele>1191.6</ele>
        <time>2025-07-21T09:55:16Z</time>
      </trkpt>
      <trkpt lat="42.91936" lon="0.77782">
        <ele>1192.6</ele>
        <time>2025-07-21T09:55:21Z</time>
      </trkpt>
      <trkpt lat="42.91932" lon="0.7777">
        <ele>1193.4</ele>
        <time>2025-07-21T09:55:25Z</time>
      </trkpt>
      <trkpt lat="42.91931" lon="0.77767">
        <ele>1193.8</ele>
        <time>2025-07-21T09:55:26Z</time>
      </trkpt>
      <trkpt lat="42.91925" lon="0.77753">
        <ele>1195.2</ele>
        <time>2025-07-21T09:55:31Z</time>
      </trkpt>
      <trkpt lat="42.91923" lon="0.77748">
        <ele>1195.6</ele>
        <time>2025-07-21T09:55:33Z</time>
      </trkpt>
      <trkpt lat="42.91922" lon="0.77745">
        <ele>1195.8</ele>
        <time>2025-07-21T09:55:34Z</time>
      </trkpt>
      <trkpt lat="42.91921" lon="0.77739">
        <ele>1196.2</ele>
        <time>2025-07-21T09:55:36Z</time>
      </trkpt>
      <trkpt lat="42.91916" lon="0.77724">
        <ele>1197.4</ele>
        <time>2025-07-21T09:55:41Z</time>
      </trkpt>
      <trkpt lat="42.91915" lon="0.77719">
        <ele>1197.8</ele>
        <time>2025-07-21T09:55:43Z</time>
      </trkpt>
      <trkpt lat="42.91914" lon="0.77716">
        <ele>1198</ele>
        <time>2025-07-21T09:55:44Z</time>
      </trkpt>
      <trkpt lat="42.91911" lon="0.77711">
        <ele>1198.4</ele>
        <time>2025-07-21T09:55:46Z</time>
      </trkpt>
      <trkpt lat="42.91905" lon="0.77701">
        <ele>1199.2</ele>
        <time>2025-07-21T09:55:50Z</time>
      </trkpt>
      <trkpt lat="42.91902" lon="0.77696">
        <ele>1199.6</ele>
        <time>2025-07-21T09:55:52Z</time>
      </trkpt>
      <trkpt lat="42.91895" lon="0.77688">
        <ele>1200.8</ele>
        <time>2025-07-21T09:55:56Z</time>
      </trkpt>
      <trkpt lat="42.91888" lon="0.77676">
        <ele>1201.8</ele>
        <time>2025-07-21T09:56:01Z</time>
      </trkpt>
      <trkpt lat="42.91885" lon="0.77664">
        <ele>1203</ele>
        <time>2025-07-21T09:56:05Z</time>
      </trkpt>
      <trkpt lat="42.9188" lon="0.77648">
        <ele>1204</ele>
        <time>2025-07-21T09:56:11Z</time>
      </trkpt>
      <trkpt lat="42.91877" lon="0.77639">
        <ele>1204.6</ele>
        <time>2025-07-21T09:56:14Z</time>
      </trkpt>
      <trkpt lat="42.91875" lon="0.77634">
        <ele>1205</ele>
        <time>2025-07-21T09:56:16Z</time>
      </trkpt>
      <trkpt lat="42.91864" lon="0.77617">
        <ele>1206</ele>
        <time>2025-07-21T09:56:23Z</time>
      </trkpt>
      <trkpt lat="42.91852" lon="0.77612">
        <ele>1207</ele>
        <time>2025-07-21T09:56:29Z</time>
      </trkpt>
      <trkpt lat="42.91847" lon="0.77611">
        <ele>1207.4</ele>
        <time>2025-07-21T09:56:31Z</time>
      </trkpt>
      <trkpt lat="42.91834" lon="0.77609">
        <ele>1208.2</ele>
        <time>2025-07-21T09:56:37Z</time>
      </trkpt>
      <trkpt lat="42.91824" lon="0.77604">
        <ele>1209.2</ele>
        <time>2025-07-21T09:56:42Z</time>
      </trkpt>
      <trkpt lat="42.91821" lon="0.77597">
        <ele>1209.6</ele>
        <time>2025-07-21T09:56:45Z</time>
      </trkpt>
      <trkpt lat="42.91821" lon="0.77594">
        <ele>1209.6</ele>
        <time>2025-07-21T09:56:46Z</time>
      </trkpt>
      <trkpt lat="42.91823" lon="0.77591">
        <ele>1209.8</ele>
        <time>2025-07-21T09:56:47Z</time>
      </trkpt>
      <trkpt lat="42.91824" lon="0.77589">
        <ele>1210.2</ele>
        <time>2025-07-21T09:56:48Z</time>
      </trkpt>
      <trkpt lat="42.91829" lon="0.77586">
        <ele>1210.6</ele>
        <time>2025-07-21T09:56:50Z</time>
      </trkpt>
      <trkpt lat="42.91834" lon="0.77585">
        <ele>1211.2</ele>
        <time>2025-07-21T09:56:52Z</time>
      </trkpt>
      <trkpt lat="42.9185" lon="0.77586">
        <ele>1212.2</ele>
        <time>2025-07-21T09:56:59Z</time>
      </trkpt>
      <trkpt lat="42.91852" lon="0.77586">
        <ele>1212.4</ele>
        <time>2025-07-21T09:57:00Z</time>
      </trkpt>
      <trkpt lat="42.91865" lon="0.77589">
        <ele>1213.2</ele>
        <time>2025-07-21T09:57:05Z</time>
      </trkpt>
      <trkpt lat="42.91869" lon="0.7759">
        <ele>1214</ele>
        <time>2025-07-21T09:57:07Z</time>
      </trkpt>
      <trkpt lat="42.91873" lon="0.77592">
        <ele>1214.4</ele>
        <time>2025-07-21T09:57:09Z</time>
      </trkpt>
      <trkpt lat="42.91887" lon="0.77598">
        <ele>1215.4</ele>
        <time>2025-07-21T09:57:15Z</time>
      </trkpt>
      <trkpt lat="42.91899" lon="0.77605">
        <ele>1216.6</ele>
        <time>2025-07-21T09:57:20Z</time>
      </trkpt>
      <trkpt lat="42.91909" lon="0.77605">
        <ele>1217.8</ele>
        <time>2025-07-21T09:57:25Z</time>
      </trkpt>
      <trkpt lat="42.91918" lon="0.77601">
        <ele>1218.4</ele>
        <time>2025-07-21T09:57:29Z</time>
      </trkpt>
      <trkpt lat="42.91921" lon="0.77596">
        <ele>1218.8</ele>
        <time>2025-07-21T09:57:31Z</time>
      </trkpt>
      <trkpt lat="42.9192" lon="0.77583">
        <ele>1220</ele>
        <time>2025-07-21T09:57:35Z</time>
      </trkpt>
      <trkpt lat="42.91919" lon="0.77579">
        <ele>1220.4</ele>
        <time>2025-07-21T09:57:36Z</time>
      </trkpt>
      <trkpt lat="42.91915" lon="0.77566">
        <ele>1221.2</ele>
        <time>2025-07-21T09:57:40Z</time>
      </trkpt>
      <trkpt lat="42.91912" lon="0.77557">
        <ele>1221.2</ele>
        <time>2025-07-21T09:57:43Z</time>
      </trkpt>
      <trkpt lat="42.91909" lon="0.77543">
        <ele>1222</ele>
        <time>2025-07-21T09:57:47Z</time>
      </trkpt>
      <trkpt lat="42.91905" lon="0.77532">
        <ele>1223</ele>
        <time>2025-07-21T09:57:51Z</time>
      </trkpt>
      <trkpt lat="42.91904" lon="0.77529">
        <ele>1223</ele>
        <time>2025-07-21T09:57:52Z</time>
      </trkpt>
      <trkpt lat="42.91899" lon="0.7751">
        <ele>1224.2</ele>
        <time>2025-07-21T09:57:58Z</time>
      </trkpt>
      <trkpt lat="42.91897" lon="0.77499">
        <ele>1225</ele>
        <time>2025-07-21T09:58:02Z</time>
      </trkpt>
      <trkpt lat="42.91896" lon="0.77496">
        <ele>1225.2</ele>
        <time>2025-07-21T09:58:03Z</time>
      </trkpt>
      <trkpt lat="42.91891" lon="0.77481">
        <ele>1226.4</ele>
        <time>2025-07-21T09:58:08Z</time>
      </trkpt>
      <trkpt lat="42.91888" lon="0.7747">
        <ele>1226.8</ele>
        <time>2025-07-21T09:58:11Z</time>
      </trkpt>
      <trkpt lat="42.91888" lon="0.77457">
        <ele>1227.4</ele>
        <time>2025-07-21T09:58:15Z</time>
      </trkpt>
      <trkpt lat="42.91889" lon="0.7745">
        <ele>1227.8</ele>
        <time>2025-07-21T09:58:17Z</time>
      </trkpt>
      <trkpt lat="42.91892" lon="0.77438">
        <ele>1228.6</ele>
        <time>2025-07-21T09:58:21Z</time>
      </trkpt>
      <trkpt lat="42.91894" lon="0.7743">
        <ele>1229.6</ele>
        <time>2025-07-21T09:58:24Z</time>
      </trkpt>
      <trkpt lat="42.91896" lon="0.77422">
        <ele>1230.4</ele>
        <time>2025-07-21T09:58:27Z</time>
      </trkpt>
      <trkpt lat="42.91897" lon="0.77419">
        <ele>1230.6</ele>
        <time>2025-07-21T09:58:28Z</time>
      </trkpt>
      <trkpt lat="42.919" lon="0.77403">
        <ele>1231.8</ele>
        <time>2025-07-21T09:58:34Z</time>
      </trkpt>
      <trkpt lat="42.91901" lon="0.77398">
        <ele>1232.2</ele>
        <time>2025-07-21T09:58:36Z</time>
      </trkpt>
      <trkpt lat="42.91901" lon="0.77392">
        <ele>1232.8</ele>
        <time>2025-07-21T09:58:38Z</time>
      </trkpt>
      <trkpt lat="42.91905" lon="0.77382">
        <ele>1234.2</ele>
        <time>2025-07-21T09:58:42Z</time>
      </trkpt>
      <trkpt lat="42.91907" lon="0.77367">
        <ele>1235.6</ele>
        <time>2025-07-21T09:58:48Z</time>
      </trkpt>
      <trkpt lat="42.91908" lon="0.77364">
        <ele>1235.8</ele>
        <time>2025-07-21T09:58:49Z</time>
      </trkpt>
      <trkpt lat="42.91908" lon="0.7735">
        <ele>1236.6</ele>
        <time>2025-07-21T09:58:53Z</time>
      </trkpt>
      <trkpt lat="42.91908" lon="0.77346">
        <ele>1236.8</ele>
        <time>2025-07-21T09:58:54Z</time>
      </trkpt>
      <trkpt lat="42.91908" lon="0.77332">
        <ele>1237.8</ele>
        <time>2025-07-21T09:58:58Z</time>
      </trkpt>
      <trkpt lat="42.91907" lon="0.77322">
        <ele>1238.4</ele>
        <time>2025-07-21T09:59:01Z</time>
      </trkpt>
      <trkpt lat="42.91906" lon="0.77317">
        <ele>1238.8</ele>
        <time>2025-07-21T09:59:03Z</time>
      </trkpt>
      <trkpt lat="42.91902" lon="0.77299">
        <ele>1239.2</ele>
        <time>2025-07-21T09:59:09Z</time>
      </trkpt>
      <trkpt lat="42.91899" lon="0.77292">
        <ele>1240</ele>
        <time>2025-07-21T09:59:12Z</time>
      </trkpt>
      <trkpt lat="42.91894" lon="0.77282">
        <ele>1240.8</ele>
        <time>2025-07-21T09:59:16Z</time>
      </trkpt>
      <trkpt lat="42.91893" lon="0.77279">
        <ele>1241.2</ele>
        <time>2025-07-21T09:59:17Z</time>
      </trkpt>
      <trkpt lat="42.91887" lon="0.77266">
        <ele>1242.2</ele>
        <time>2025-07-21T09:59:22Z</time>
      </trkpt>
      <trkpt lat="42.91881" lon="0.7726">
        <ele>1242.6</ele>
        <time>2025-07-21T09:59:25Z</time>
      </trkpt>
      <trkpt lat="42.91876" lon="0.77253">
        <ele>1243.4</ele>
        <time>2025-07-21T09:59:28Z</time>
      </trkpt>
      <trkpt lat="42.91873" lon="0.77246">
        <ele>1244.2</ele>
        <time>2025-07-21T09:59:31Z</time>
      </trkpt>
      <trkpt lat="42.9187" lon="0.77242">
        <ele>1244.4</ele>
        <time>2025-07-21T09:59:33Z</time>
      </trkpt>
      <trkpt lat="42.91862" lon="0.77231">
        <ele>1245.2</ele>
        <time>2025-07-21T09:59:38Z</time>
      </trkpt>
      <trkpt lat="42.9186" lon="0.77228">
        <ele>1245.4</ele>
        <time>2025-07-21T09:59:39Z</time>
      </trkpt>
      <trkpt lat="42.91848" lon="0.7721">
        <ele>1246.4</ele>
        <time>2025-07-21T09:59:47Z</time>
      </trkpt>
      <trkpt lat="42.91846" lon="0.77208">
        <ele>1246.6</ele>
        <time>2025-07-21T09:59:48Z</time>
      </trkpt>
      <trkpt lat="42.91843" lon="0.77202">
        <ele>1247.2</ele>
        <time>2025-07-21T09:59:51Z</time>
      </trkpt>
      <trkpt lat="42.91842" lon="0.772">
        <ele>1247.6</ele>
        <time>2025-07-21T09:59:52Z</time>
      </trkpt>
      <trkpt lat="42.91839" lon="0.77194">
        <ele>1248.6</ele>
        <time>2025-07-21T09:59:55Z</time>
      </trkpt>
      <trkpt lat="42.91836" lon="0.77186">
        <ele>1249.4</ele>
        <time>2025-07-21T09:59:58Z</time>
      </trkpt>
      <trkpt lat="42.91836" lon="0.77183">
        <ele>1249.6</ele>
        <time>2025-07-21T09:59:59Z</time>
      </trkpt>
      <trkpt lat="42.91832" lon="0.77176">
        <ele>1250.6</ele>
        <time>2025-07-21T10:00:02Z</time>
      </trkpt>
      <trkpt lat="42.91829" lon="0.77168">
        <ele>1251.4</ele>
        <time>2025-07-21T10:00:05Z</time>
      </trkpt>
      <trkpt lat="42.91828" lon="0.77164">
        <ele>1251.6</ele>
        <time>2025-07-21T10:00:06Z</time>
      </trkpt>
      <trkpt lat="42.91828" lon="0.7716">
        <ele>1252</ele>
        <time>2025-07-21T10:00:07Z</time>
      </trkpt>
      <trkpt lat="42.91828" lon="0.77143">
        <ele>1253</ele>
        <time>2025-07-21T10:00:12Z</time>
      </trkpt>
      <trkpt lat="42.91828" lon="0.77136">
        <ele>1253.8</ele>
        <time>2025-07-21T10:00:14Z</time>
      </trkpt>
      <trkpt lat="42.91829" lon="0.7713">
        <ele>1254.2</ele>
        <time>2025-07-21T10:00:16Z</time>
      </trkpt>
      <trkpt lat="42.91831" lon="0.77116">
        <ele>1255.2</ele>
        <time>2025-07-21T10:00:21Z</time>
      </trkpt>
      <trkpt lat="42.9183" lon="0.77113">
        <ele>1255.4</ele>
        <time>2025-07-21T10:00:22Z</time>
      </trkpt>
      <trkpt lat="42.91831" lon="0.77101">
        <ele>1256.4</ele>
        <time>2025-07-21T10:00:26Z</time>
      </trkpt>
      <trkpt lat="42.9183" lon="0.77093">
        <ele>1257.2</ele>
        <time>2025-07-21T10:00:29Z</time>
      </trkpt>
      <trkpt lat="42.91829" lon="0.77087">
        <ele>1257.6</ele>
        <time>2025-07-21T10:00:31Z</time>
      </trkpt>
      <trkpt lat="42.91829" lon="0.77072">
        <ele>1258.4</ele>
        <time>2025-07-21T10:00:36Z</time>
      </trkpt>
      <trkpt lat="42.91829" lon="0.77051">
        <ele>1259.6</ele>
        <time>2025-07-21T10:00:43Z</time>
      </trkpt>
      <trkpt lat="42.91829" lon="0.77048">
        <ele>1259.8</ele>
        <time>2025-07-21T10:00:44Z</time>
      </trkpt>
      <trkpt lat="42.91828" lon="0.77033">
        <ele>1260.8</ele>
        <time>2025-07-21T10:00:49Z</time>
      </trkpt>
      <trkpt lat="42.91826" lon="0.77022">
        <ele>1261.2</ele>
        <time>2025-07-21T10:00:52Z</time>
      </trkpt>
      <trkpt lat="42.91825" lon="0.77013">
        <ele>1262</ele>
        <time>2025-07-21T10:00:55Z</time>
      </trkpt>
      <trkpt lat="42.9182" lon="0.76995">
        <ele>1262.8</ele>
        <time>2025-07-21T10:01:01Z</time>
      </trkpt>
      <trkpt lat="42.91819" lon="0.76988">
        <ele>1263</ele>
        <time>2025-07-21T10:01:03Z</time>
      </trkpt>
      <trkpt lat="42.91816" lon="0.76976">
        <ele>1264</ele>
        <time>2025-07-21T10:01:07Z</time>
      </trkpt>
      <trkpt lat="42.91816" lon="0.76973">
        <ele>1264.2</ele>
        <time>2025-07-21T10:01:08Z</time>
      </trkpt>
      <trkpt lat="42.91816" lon="0.76967">
        <ele>1264.4</ele>
        <time>2025-07-21T10:01:10Z</time>
      </trkpt>
      <trkpt lat="42.91818" lon="0.76958">
        <ele>1265</ele>
        <time>2025-07-21T10:01:13Z</time>
      </trkpt>
      <trkpt lat="42.91823" lon="0.76951">
        <ele>1265.6</ele>
        <time>2025-07-21T10:01:16Z</time>
      </trkpt>
      <trkpt lat="42.91827" lon="0.76946">
        <ele>1266</ele>
        <time>2025-07-21T10:01:18Z</time>
      </trkpt>
      <trkpt lat="42.91834" lon="0.76937">
        <ele>1267.2</ele>
        <time>2025-07-21T10:01:22Z</time>
      </trkpt>
      <trkpt lat="42.91838" lon="0.76934">
        <ele>1267.8</ele>
        <time>2025-07-21T10:01:24Z</time>
      </trkpt>
      <trkpt lat="42.91842" lon="0.7693">
        <ele>1268.4</ele>
        <time>2025-07-21T10:01:26Z</time>
      </trkpt>
      <trkpt lat="42.91854" lon="0.76918">
        <ele>1269.6</ele>
        <time>2025-07-21T10:01:34Z</time>
      </trkpt>
      <trkpt lat="42.91868" lon="0.7691">
        <ele>1270.8</ele>
        <time>2025-07-21T10:01:41Z</time>
      </trkpt>
      <trkpt lat="42.91872" lon="0.76908">
        <ele>1271</ele>
        <time>2025-07-21T10:01:43Z</time>
      </trkpt>
      <trkpt lat="42.91879" lon="0.76904">
        <ele>1271.6</ele>
        <time>2025-07-21T10:01:46Z</time>
      </trkpt>
      <trkpt lat="42.91886" lon="0.76898">
        <ele>1272.2</ele>
        <time>2025-07-21T10:01:49Z</time>
      </trkpt>
      <trkpt lat="42.9189" lon="0.76895">
        <ele>1272.6</ele>
        <time>2025-07-21T10:01:51Z</time>
      </trkpt>
      <trkpt lat="42.919" lon="0.76882">
        <ele>1274</ele>
        <time>2025-07-21T10:01:57Z</time>
      </trkpt>
      <trkpt lat="42.91903" lon="0.76875">
        <ele>1274.4</ele>
        <time>2025-07-21T10:01:59Z</time>
      </trkpt>
      <trkpt lat="42.91906" lon="0.76867">
        <ele>1275</ele>
        <time>2025-07-21T10:02:02Z</time>
      </trkpt>
      <trkpt lat="42.9191" lon="0.76851">
        <ele>1276.2</ele>
        <time>2025-07-21T10:02:07Z</time>
      </trkpt>
      <trkpt lat="42.91914" lon="0.76832">
        <ele>1277.2</ele>
        <time>2025-07-21T10:02:13Z</time>
      </trkpt>
      <trkpt lat="42.91914" lon="0.76829">
        <ele>1277.4</ele>
        <time>2025-07-21T10:02:14Z</time>
      </trkpt>
      <trkpt lat="42.91914" lon="0.76823">
        <ele>1277.6</ele>
        <time>2025-07-21T10:02:16Z</time>
      </trkpt>
      <trkpt lat="42.91914" lon="0.76817">
        <ele>1278</ele>
        <time>2025-07-21T10:02:18Z</time>
      </trkpt>
      <trkpt lat="42.91915" lon="0.76806">
        <ele>1278.4</ele>
        <time>2025-07-21T10:02:21Z</time>
      </trkpt>
      <trkpt lat="42.91914" lon="0.76795">
        <ele>1279</ele>
        <time>2025-07-21T10:02:25Z</time>
      </trkpt>
      <trkpt lat="42.91913" lon="0.76786">
        <ele>1279.8</ele>
        <time>2025-07-21T10:02:28Z</time>
      </trkpt>
      <trkpt lat="42.91913" lon="0.76778">
        <ele>1280.2</ele>
        <time>2025-07-21T10:02:31Z</time>
      </trkpt>
      <trkpt lat="42.91913" lon="0.76775">
        <ele>1280.4</ele>
        <time>2025-07-21T10:02:32Z</time>
      </trkpt>
      <trkpt lat="42.91912" lon="0.76773">
        <ele>1280.8</ele>
        <time>2025-07-21T10:02:33Z</time>
      </trkpt>
      <trkpt lat="42.91912" lon="0.76762">
        <ele>1281.6</ele>
        <time>2025-07-21T10:02:37Z</time>
      </trkpt>
      <trkpt lat="42.91912" lon="0.76758">
        <ele>1281.8</ele>
        <time>2025-07-21T10:02:38Z</time>
      </trkpt>
      <trkpt lat="42.9191" lon="0.76745">
        <ele>1282.8</ele>
        <time>2025-07-21T10:02:42Z</time>
      </trkpt>
      <trkpt lat="42.91911" lon="0.76737">
        <ele>1283</ele>
        <time>2025-07-21T10:02:44Z</time>
      </trkpt>
      <trkpt lat="42.91912" lon="0.76722">
        <ele>1283.8</ele>
        <time>2025-07-21T10:02:48Z</time>
      </trkpt>
      <trkpt lat="42.91909" lon="0.76713">
        <ele>1284.2</ele>
        <time>2025-07-21T10:02:51Z</time>
      </trkpt>
      <trkpt lat="42.91909" lon="0.76701">
        <ele>1285</ele>
        <time>2025-07-21T10:02:55Z</time>
      </trkpt>
      <trkpt lat="42.91907" lon="0.76676">
        <ele>1286</ele>
        <time>2025-07-21T10:03:03Z</time>
      </trkpt>
      <trkpt lat="42.91907" lon="0.76673">
        <ele>1286.2</ele>
        <time>2025-07-21T10:03:04Z</time>
      </trkpt>
      <trkpt lat="42.91904" lon="0.76651">
        <ele>1287.2</ele>
        <time>2025-07-21T10:03:11Z</time>
      </trkpt>
      <trkpt lat="42.91905" lon="0.76638">
        <ele>1288.2</ele>
        <time>2025-07-21T10:03:15Z</time>
      </trkpt>
      <trkpt lat="42.91905" lon="0.76629">
        <ele>1289</ele>
        <time>2025-07-21T10:03:18Z</time>
      </trkpt>
      <trkpt lat="42.91905" lon="0.76627">
        <ele>1289.6</ele>
        <time>2025-07-21T10:03:19Z</time>
      </trkpt>
      <trkpt lat="42.91905" lon="0.76617">
        <ele>1290.6</ele>
        <time>2025-07-21T10:03:23Z</time>
      </trkpt>
      <trkpt lat="42.91906" lon="0.76602">
        <ele>1292</ele>
        <time>2025-07-21T10:03:28Z</time>
      </trkpt>
      <trkpt lat="42.91906" lon="0.76597">
        <ele>1292</ele>
        <time>2025-07-21T10:03:29Z</time>
      </trkpt>
      <trkpt lat="42.91908" lon="0.76581">
        <ele>1293</ele>
        <time>2025-07-21T10:03:34Z</time>
      </trkpt>
      <trkpt lat="42.9191" lon="0.7657">
        <ele>1294</ele>
        <time>2025-07-21T10:03:37Z</time>
      </trkpt>
      <trkpt lat="42.9191" lon="0.76568">
        <ele>1294.2</ele>
        <time>2025-07-21T10:03:38Z</time>
      </trkpt>
      <trkpt lat="42.91912" lon="0.76554">
        <ele>1295.2</ele>
        <time>2025-07-21T10:03:43Z</time>
      </trkpt>
      <trkpt lat="42.91912" lon="0.76551">
        <ele>1295.4</ele>
        <time>2025-07-21T10:03:44Z</time>
      </trkpt>
      <trkpt lat="42.91913" lon="0.7654">
        <ele>1296.2</ele>
        <time>2025-07-21T10:03:48Z</time>
      </trkpt>
      <trkpt lat="42.91913" lon="0.76536">
        <ele>1296.4</ele>
        <time>2025-07-21T10:03:49Z</time>
      </trkpt>
      <trkpt lat="42.91914" lon="0.7652">
        <ele>1297.6</ele>
        <time>2025-07-21T10:03:54Z</time>
      </trkpt>
      <trkpt lat="42.91914" lon="0.7651">
        <ele>1298.2</ele>
        <time>2025-07-21T10:03:57Z</time>
      </trkpt>
      <trkpt lat="42.91915" lon="0.76505">
        <ele>1298.6</ele>
        <time>2025-07-21T10:03:59Z</time>
      </trkpt>
      <trkpt lat="42.91916" lon="0.76482">
        <ele>1299.8</ele>
        <time>2025-07-21T10:04:06Z</time>
      </trkpt>
      <trkpt lat="42.91916" lon="0.76479">
        <ele>1300</ele>
        <time>2025-07-21T10:04:07Z</time>
      </trkpt>
      <trkpt lat="42.9192" lon="0.76451">
        <ele>1301.2</ele>
        <time>2025-07-21T10:04:16Z</time>
      </trkpt>
      <trkpt lat="42.91921" lon="0.76436">
        <ele>1302.2</ele>
        <time>2025-07-21T10:04:21Z</time>
      </trkpt>
      <trkpt lat="42.91922" lon="0.76426">
        <ele>1302.6</ele>
        <time>2025-07-21T10:04:24Z</time>
      </trkpt>
      <trkpt lat="42.91923" lon="0.76417">
        <ele>1303.4</ele>
        <time>2025-07-21T10:04:27Z</time>
      </trkpt>
      <trkpt lat="42.91925" lon="0.76404">
        <ele>1304.4</ele>
        <time>2025-07-21T10:04:31Z</time>
      </trkpt>
      <trkpt lat="42.91925" lon="0.76398">
        <ele>1304.8</ele>
        <time>2025-07-21T10:04:33Z</time>
      </trkpt>
      <trkpt lat="42.91927" lon="0.76386">
        <ele>1305.4</ele>
        <time>2025-07-21T10:04:37Z</time>
      </trkpt>
      <trkpt lat="42.91929" lon="0.76363">
        <ele>1306.2</ele>
        <time>2025-07-21T10:04:44Z</time>
      </trkpt>
      <trkpt lat="42.91929" lon="0.7636">
        <ele>1306.4</ele>
        <time>2025-07-21T10:04:45Z</time>
      </trkpt>
      <trkpt lat="42.9193" lon="0.76343">
        <ele>1307.6</ele>
        <time>2025-07-21T10:04:50Z</time>
      </trkpt>
      <trkpt lat="42.91931" lon="0.7633">
        <ele>1308.2</ele>
        <time>2025-07-21T10:04:54Z</time>
      </trkpt>
      <trkpt lat="42.91931" lon="0.76324">
        <ele>1308.6</ele>
        <time>2025-07-21T10:04:56Z</time>
      </trkpt>
      <trkpt lat="42.91933" lon="0.76305">
        <ele>1309.8</ele>
        <time>2025-07-21T10:05:02Z</time>
      </trkpt>
      <trkpt lat="42.91936" lon="0.76285">
        <ele>1310.8</ele>
        <time>2025-07-21T10:05:08Z</time>
      </trkpt>
      <trkpt lat="42.91937" lon="0.76276">
        <ele>1311.8</ele>
        <time>2025-07-21T10:05:11Z</time>
      </trkpt>
      <trkpt lat="42.91937" lon="0.76273">
        <ele>1312</ele>
        <time>2025-07-21T10:05:12Z</time>
      </trkpt>
      <trkpt lat="42.9194" lon="0.76259">
        <ele>1313</ele>
        <time>2025-07-21T10:05:16Z</time>
      </trkpt>
      <trkpt lat="42.91941" lon="0.76246">
        <ele>1314</ele>
        <time>2025-07-21T10:05:20Z</time>
      </trkpt>
      <trkpt lat="42.91941" lon="0.76243">
        <ele>1314.4</ele>
        <time>2025-07-21T10:05:21Z</time>
      </trkpt>
      <trkpt lat="42.91942" lon="0.76231">
        <ele>1315.2</ele>
        <time>2025-07-21T10:05:25Z</time>
      </trkpt>
      <trkpt lat="42.91943" lon="0.76219">
        <ele>1316.4</ele>
        <time>2025-07-21T10:05:29Z</time>
      </trkpt>
      <trkpt lat="42.91944" lon="0.76205">
        <ele>1317.6</ele>
        <time>2025-07-21T10:05:33Z</time>
      </trkpt>
      <trkpt lat="42.91944" lon="0.76195">
        <ele>1318.4</ele>
        <time>2025-07-21T10:05:36Z</time>
      </trkpt>
      <trkpt lat="42.91944" lon="0.76189">
        <ele>1318.8</ele>
        <time>2025-07-21T10:05:38Z</time>
      </trkpt>
      <trkpt lat="42.9194" lon="0.76177">
        <ele>1319.4</ele>
        <time>2025-07-21T10:05:42Z</time>
      </trkpt>
      <trkpt lat="42.91926" lon="0.7615">
        <ele>1319.6</ele>
        <time>2025-07-21T10:05:51Z</time>
      </trkpt>
      <trkpt lat="42.9193" lon="0.76146">
        <ele>1319.6</ele>
        <time>2025-07-21T10:05:54Z</time>
      </trkpt>
      <trkpt lat="42.91931" lon="0.76147">
        <ele>1319.6</ele>
        <time>2025-07-21T10:05:55Z</time>
      </trkpt>
      <trkpt lat="42.91933" lon="0.76152">
        <ele>1319.4</ele>
        <time>2025-07-21T10:05:57Z</time>
      </trkpt>
      <trkpt lat="42.91938" lon="0.76158">
        <ele>1319.2</ele>
        <time>2025-07-21T10:06:03Z</time>
      </trkpt>
      <trkpt lat="42.91938" lon="0.76158">
        <ele>1319.2</ele>
        <time>2025-07-21T10:06:05Z</time>
      </trkpt>
      <trkpt lat="42.91934" lon="0.76159">
        <ele>1319</ele>
        <time>2025-07-21T10:13:27Z</time>
      </trkpt>
      <trkpt lat="42.91931" lon="0.76153">
        <ele>1319</ele>
        <time>2025-07-21T10:13:29Z</time>
      </trkpt>
      <trkpt lat="42.91922" lon="0.76129">
        <ele>1318.8</ele>
        <time>2025-07-21T10:13:34Z</time>
      </trkpt>
      <trkpt lat="42.91911" lon="0.7609">
        <ele>1318.4</ele>
        <time>2025-07-21T10:13:39Z</time>
      </trkpt>
      <trkpt lat="42.91907" lon="0.76071">
        <ele>1318</ele>
        <time>2025-07-21T10:13:41Z</time>
      </trkpt>
      <trkpt lat="42.91903" lon="0.76048">
        <ele>1317</ele>
        <time>2025-07-21T10:13:43Z</time>
      </trkpt>
      <trkpt lat="42.91902" lon="0.76036">
        <ele>1316.6</ele>
        <time>2025-07-21T10:13:44Z</time>
      </trkpt>
      <trkpt lat="42.919" lon="0.76009">
        <ele>1315.4</ele>
        <time>2025-07-21T10:13:46Z</time>
      </trkpt>
      <trkpt lat="42.91901" lon="0.75995">
        <ele>1314.4</ele>
        <time>2025-07-21T10:13:47Z</time>
      </trkpt>
      <trkpt lat="42.91902" lon="0.75981">
        <ele>1313.8</ele>
        <time>2025-07-21T10:13:48Z</time>
      </trkpt>
      <trkpt lat="42.91907" lon="0.75953">
        <ele>1312.2</ele>
        <time>2025-07-21T10:13:50Z</time>
      </trkpt>
      <trkpt lat="42.9191" lon="0.7594">
        <ele>1311.2</ele>
        <time>2025-07-21T10:13:51Z</time>
      </trkpt>
      <trkpt lat="42.91911" lon="0.75928">
        <ele>1310.8</ele>
        <time>2025-07-21T10:13:52Z</time>
      </trkpt>
      <trkpt lat="42.91909" lon="0.75902">
        <ele>1309.2</ele>
        <time>2025-07-21T10:13:54Z</time>
      </trkpt>
      <trkpt lat="42.91898" lon="0.75879">
        <ele>1307.2</ele>
        <time>2025-07-21T10:13:56Z</time>
      </trkpt>
      <trkpt lat="42.9189" lon="0.75869">
        <ele>1306.4</ele>
        <time>2025-07-21T10:13:57Z</time>
      </trkpt>
      <trkpt lat="42.91882" lon="0.75858">
        <ele>1305.6</ele>
        <time>2025-07-21T10:13:58Z</time>
      </trkpt>
      <trkpt lat="42.91876" lon="0.75847">
        <ele>1304.8</ele>
        <time>2025-07-21T10:13:59Z</time>
      </trkpt>
      <trkpt lat="42.9187" lon="0.75834">
        <ele>1303.4</ele>
        <time>2025-07-21T10:14:00Z</time>
      </trkpt>
      <trkpt lat="42.91866" lon="0.75821">
        <ele>1302</ele>
        <time>2025-07-21T10:14:01Z</time>
      </trkpt>
      <trkpt lat="42.91857" lon="0.75794">
        <ele>1300</ele>
        <time>2025-07-21T10:14:03Z</time>
      </trkpt>
      <trkpt lat="42.91845" lon="0.75771">
        <ele>1298</ele>
        <time>2025-07-21T10:14:05Z</time>
      </trkpt>
      <trkpt lat="42.91829" lon="0.75749">
        <ele>1295.8</ele>
        <time>2025-07-21T10:14:07Z</time>
      </trkpt>
      <trkpt lat="42.91821" lon="0.7574">
        <ele>1294.6</ele>
        <time>2025-07-21T10:14:08Z</time>
      </trkpt>
      <trkpt lat="42.91813" lon="0.7573">
        <ele>1294.2</ele>
        <time>2025-07-21T10:14:09Z</time>
      </trkpt>
      <trkpt lat="42.91806" lon="0.7572">
        <ele>1292.8</ele>
        <time>2025-07-21T10:14:10Z</time>
      </trkpt>
      <trkpt lat="42.91794" lon="0.75699">
        <ele>1290.4</ele>
        <time>2025-07-21T10:14:12Z</time>
      </trkpt>
      <trkpt lat="42.9179" lon="0.75688">
        <ele>1290</ele>
        <time>2025-07-21T10:14:13Z</time>
      </trkpt>
      <trkpt lat="42.91787" lon="0.75679">
        <ele>1288.4</ele>
        <time>2025-07-21T10:14:14Z</time>
      </trkpt>
      <trkpt lat="42.91783" lon="0.75671">
        <ele>1286.8</ele>
        <time>2025-07-21T10:14:15Z</time>
      </trkpt>
      <trkpt lat="42.9178" lon="0.75667">
        <ele>1286.2</ele>
        <time>2025-07-21T10:14:16Z</time>
      </trkpt>
      <trkpt lat="42.91777" lon="0.75666">
        <ele>1284.2</ele>
        <time>2025-07-21T10:14:17Z</time>
      </trkpt>
      <trkpt lat="42.91774" lon="0.7567">
        <ele>1283.4</ele>
        <time>2025-07-21T10:14:18Z</time>
      </trkpt>
      <trkpt lat="42.91772" lon="0.75676">
        <ele>1282.4</ele>
        <time>2025-07-21T10:14:19Z</time>
      </trkpt>
      <trkpt lat="42.91772" lon="0.75684">
        <ele>1281.8</ele>
        <time>2025-07-21T10:14:20Z</time>
      </trkpt>
      <trkpt lat="42.91773" lon="0.75693">
        <ele>1280.8</ele>
        <time>2025-07-21T10:14:21Z</time>
      </trkpt>
      <trkpt lat="42.91777" lon="0.75701">
        <ele>1279.8</ele>
        <time>2025-07-21T10:14:22Z</time>
      </trkpt>
      <trkpt lat="42.91781" lon="0.75711">
        <ele>1279.2</ele>
        <time>2025-07-21T10:14:23Z</time>
      </trkpt>
      <trkpt lat="42.91787" lon="0.75721">
        <ele>1278.6</ele>
        <time>2025-07-21T10:14:24Z</time>
      </trkpt>
      <trkpt lat="42.91798" lon="0.75743">
        <ele>1277.6</ele>
        <time>2025-07-21T10:14:26Z</time>
      </trkpt>
      <trkpt lat="42.91803" lon="0.75756">
        <ele>1277.4</ele>
        <time>2025-07-21T10:14:27Z</time>
      </trkpt>
      <trkpt lat="42.91807" lon="0.75769">
        <ele>1276.2</ele>
        <time>2025-07-21T10:14:28Z</time>
      </trkpt>
      <trkpt lat="42.91813" lon="0.75797">
        <ele>1275</ele>
        <time>2025-07-21T10:14:30Z</time>
      </trkpt>
      <trkpt lat="42.91814" lon="0.75812">
        <ele>1273.8</ele>
        <time>2025-07-21T10:14:31Z</time>
      </trkpt>
      <trkpt lat="42.91815" lon="0.75842">
        <ele>1272</ele>
        <time>2025-07-21T10:14:33Z</time>
      </trkpt>
      <trkpt lat="42.91816" lon="0.75855">
        <ele>1271.6</ele>
        <time>2025-07-21T10:14:34Z</time>
      </trkpt>
      <trkpt lat="42.91818" lon="0.75867">
        <ele>1270.2</ele>
        <time>2025-07-21T10:14:35Z</time>
      </trkpt>
      <trkpt lat="42.91824" lon="0.75888">
        <ele>1268.4</ele>
        <time>2025-07-21T10:14:37Z</time>
      </trkpt>
      <trkpt lat="42.91825" lon="0.75898">
        <ele>1267</ele>
        <time>2025-07-21T10:14:38Z</time>
      </trkpt>
      <trkpt lat="42.91826" lon="0.75906">
        <ele>1266.6</ele>
        <time>2025-07-21T10:14:39Z</time>
      </trkpt>
      <trkpt lat="42.91826" lon="0.75913">
        <ele>1265.2</ele>
        <time>2025-07-21T10:14:40Z</time>
      </trkpt>
      <trkpt lat="42.91824" lon="0.75916">
        <ele>1264.8</ele>
        <time>2025-07-21T10:14:41Z</time>
      </trkpt>
      <trkpt lat="42.9182" lon="0.75914">
        <ele>1263.8</ele>
        <time>2025-07-21T10:14:42Z</time>
      </trkpt>
      <trkpt lat="42.91815" lon="0.75909">
        <ele>1263.2</ele>
        <time>2025-07-21T10:14:43Z</time>
      </trkpt>
      <trkpt lat="42.91814" lon="0.75901">
        <ele>1262.2</ele>
        <time>2025-07-21T10:14:44Z</time>
      </trkpt>
      <trkpt lat="42.91813" lon="0.75891">
        <ele>1261.6</ele>
        <time>2025-07-21T10:14:45Z</time>
      </trkpt>
      <trkpt lat="42.9181" lon="0.75868">
        <ele>1260.8</ele>
        <time>2025-07-21T10:14:47Z</time>
      </trkpt>
      <trkpt lat="42.91803" lon="0.75844">
        <ele>1259.8</ele>
        <time>2025-07-21T10:14:49Z</time>
      </trkpt>
      <trkpt lat="42.91799" lon="0.75831">
        <ele>1259.4</ele>
        <time>2025-07-21T10:14:50Z</time>
      </trkpt>
      <trkpt lat="42.91791" lon="0.75806">
        <ele>1257.6</ele>
        <time>2025-07-21T10:14:52Z</time>
      </trkpt>
      <trkpt lat="42.91783" lon="0.75781">
        <ele>1256.4</ele>
        <time>2025-07-21T10:14:54Z</time>
      </trkpt>
      <trkpt lat="42.91777" lon="0.7576">
        <ele>1255</ele>
        <time>2025-07-21T10:14:56Z</time>
      </trkpt>
      <trkpt lat="42.91773" lon="0.75752">
        <ele>1254.6</ele>
        <time>2025-07-21T10:14:57Z</time>
      </trkpt>
      <trkpt lat="42.91762" lon="0.75746">
        <ele>1252.8</ele>
        <time>2025-07-21T10:14:59Z</time>
      </trkpt>
      <trkpt lat="42.91756" lon="0.75756">
        <ele>1251.4</ele>
        <time>2025-07-21T10:15:01Z</time>
      </trkpt>
      <trkpt lat="42.91755" lon="0.75766">
        <ele>1251</ele>
        <time>2025-07-21T10:15:02Z</time>
      </trkpt>
      <trkpt lat="42.91757" lon="0.75773">
        <ele>1250.2</ele>
        <time>2025-07-21T10:15:03Z</time>
      </trkpt>
      <trkpt lat="42.91761" lon="0.75781">
        <ele>1249.8</ele>
        <time>2025-07-21T10:15:04Z</time>
      </trkpt>
      <trkpt lat="42.91765" lon="0.75791">
        <ele>1248.8</ele>
        <time>2025-07-21T10:15:05Z</time>
      </trkpt>
      <trkpt lat="42.91768" lon="0.75802">
        <ele>1248</ele>
        <time>2025-07-21T10:15:06Z</time>
      </trkpt>
      <trkpt lat="42.91771" lon="0.75814">
        <ele>1247.6</ele>
        <time>2025-07-21T10:15:07Z</time>
      </trkpt>
      <trkpt lat="42.91772" lon="0.75825">
        <ele>1246.8</ele>
        <time>2025-07-21T10:15:08Z</time>
      </trkpt>
      <trkpt lat="42.91773" lon="0.75835">
        <ele>1246.6</ele>
        <time>2025-07-21T10:15:09Z</time>
      </trkpt>
      <trkpt lat="42.91773" lon="0.75844">
        <ele>1245.4</ele>
        <time>2025-07-21T10:15:10Z</time>
      </trkpt>
      <trkpt lat="42.91765" lon="0.75849">
        <ele>1244</ele>
        <time>2025-07-21T10:15:12Z</time>
      </trkpt>
      <trkpt lat="42.91757" lon="0.75836">
        <ele>1242.8</ele>
        <time>2025-07-21T10:15:14Z</time>
      </trkpt>
      <trkpt lat="42.91755" lon="0.75827">
        <ele>1242.2</ele>
        <time>2025-07-21T10:15:15Z</time>
      </trkpt>
      <trkpt lat="42.91755" lon="0.75817">
        <ele>1241.8</ele>
        <time>2025-07-21T10:15:16Z</time>
      </trkpt>
      <trkpt lat="42.91753" lon="0.75805">
        <ele>1241</ele>
        <time>2025-07-21T10:15:17Z</time>
      </trkpt>
      <trkpt lat="42.91747" lon="0.75783">
        <ele>1240.4</ele>
        <time>2025-07-21T10:15:19Z</time>
      </trkpt>
      <trkpt lat="42.91742" lon="0.75772">
        <ele>1239.6</ele>
        <time>2025-07-21T10:15:20Z</time>
      </trkpt>
      <trkpt lat="42.91736" lon="0.75761">
        <ele>1239.4</ele>
        <time>2025-07-21T10:15:21Z</time>
      </trkpt>
      <trkpt lat="42.9173" lon="0.7575">
        <ele>1238.4</ele>
        <time>2025-07-21T10:15:22Z</time>
      </trkpt>
      <trkpt lat="42.91718" lon="0.75727">
        <ele>1237</ele>
        <time>2025-07-21T10:15:24Z</time>
      </trkpt>
      <trkpt lat="42.91712" lon="0.75715">
        <ele>1236.6</ele>
        <time>2025-07-21T10:15:25Z</time>
      </trkpt>
      <trkpt lat="42.91706" lon="0.75703">
        <ele>1235.6</ele>
        <time>2025-07-21T10:15:26Z</time>
      </trkpt>
      <trkpt lat="42.91702" lon="0.75691">
        <ele>1234.4</ele>
        <time>2025-07-21T10:15:27Z</time>
      </trkpt>
      <trkpt lat="42.91699" lon="0.75667">
        <ele>1232.6</ele>
        <time>2025-07-21T10:15:29Z</time>
      </trkpt>
      <trkpt lat="42.91701" lon="0.75645">
        <ele>1230.6</ele>
        <time>2025-07-21T10:15:31Z</time>
      </trkpt>
      <trkpt lat="42.91702" lon="0.75635">
        <ele>1229.6</ele>
        <time>2025-07-21T10:15:32Z</time>
      </trkpt>
      <trkpt lat="42.91702" lon="0.75626">
        <ele>1228</ele>
        <time>2025-07-21T10:15:33Z</time>
      </trkpt>
      <trkpt lat="42.91696" lon="0.75613">
        <ele>1226.4</ele>
        <time>2025-07-21T10:15:35Z</time>
      </trkpt>
      <trkpt lat="42.9169" lon="0.75611">
        <ele>1225.4</ele>
        <time>2025-07-21T10:15:36Z</time>
      </trkpt>
      <trkpt lat="42.91684" lon="0.75614">
        <ele>1224.6</ele>
        <time>2025-07-21T10:15:37Z</time>
      </trkpt>
      <trkpt lat="42.91681" lon="0.7562">
        <ele>1223.6</ele>
        <time>2025-07-21T10:15:38Z</time>
      </trkpt>
      <trkpt lat="42.91679" lon="0.75629">
        <ele>1223</ele>
        <time>2025-07-21T10:15:39Z</time>
      </trkpt>
      <trkpt lat="42.91679" lon="0.75639">
        <ele>1222.4</ele>
        <time>2025-07-21T10:15:40Z</time>
      </trkpt>
      <trkpt lat="42.91681" lon="0.75673">
        <ele>1221</ele>
        <time>2025-07-21T10:15:43Z</time>
      </trkpt>
      <trkpt lat="42.91682" lon="0.75709">
        <ele>1219.6</ele>
        <time>2025-07-21T10:15:46Z</time>
      </trkpt>
      <trkpt lat="42.91684" lon="0.7572">
        <ele>1218.8</ele>
        <time>2025-07-21T10:15:47Z</time>
      </trkpt>
      <trkpt lat="42.91685" lon="0.75731">
        <ele>1218.2</ele>
        <time>2025-07-21T10:15:48Z</time>
      </trkpt>
      <trkpt lat="42.91683" lon="0.75751">
        <ele>1217.4</ele>
        <time>2025-07-21T10:15:50Z</time>
      </trkpt>
      <trkpt lat="42.9168" lon="0.7576">
        <ele>1217</ele>
        <time>2025-07-21T10:15:51Z</time>
      </trkpt>
      <trkpt lat="42.91673" lon="0.75765">
        <ele>1216.4</ele>
        <time>2025-07-21T10:15:52Z</time>
      </trkpt>
      <trkpt lat="42.91664" lon="0.75768">
        <ele>1215.8</ele>
        <time>2025-07-21T10:15:53Z</time>
      </trkpt>
      <trkpt lat="42.91655" lon="0.75769">
        <ele>1215.2</ele>
        <time>2025-07-21T10:15:54Z</time>
      </trkpt>
      <trkpt lat="42.91646" lon="0.75769">
        <ele>1214.2</ele>
        <time>2025-07-21T10:15:55Z</time>
      </trkpt>
      <trkpt lat="42.91637" lon="0.75767">
        <ele>1213.6</ele>
        <time>2025-07-21T10:15:56Z</time>
      </trkpt>
      <trkpt lat="42.91627" lon="0.75762">
        <ele>1213</ele>
        <time>2025-07-21T10:15:57Z</time>
      </trkpt>
      <trkpt lat="42.91617" lon="0.75755">
        <ele>1212.6</ele>
        <time>2025-07-21T10:15:58Z</time>
      </trkpt>
      <trkpt lat="42.91608" lon="0.75746">
        <ele>1211.8</ele>
        <time>2025-07-21T10:15:59Z</time>
      </trkpt>
      <trkpt lat="42.916" lon="0.75735">
        <ele>1211.4</ele>
        <time>2025-07-21T10:16:00Z</time>
      </trkpt>
      <trkpt lat="42.91592" lon="0.75722">
        <ele>1210.4</ele>
        <time>2025-07-21T10:16:01Z</time>
      </trkpt>
      <trkpt lat="42.91568" lon="0.75686">
        <ele>1208.6</ele>
        <time>2025-07-21T10:16:04Z</time>
      </trkpt>
      <trkpt lat="42.91561" lon="0.75676">
        <ele>1207.8</ele>
        <time>2025-07-21T10:16:05Z</time>
      </trkpt>
      <trkpt lat="42.91553" lon="0.75668">
        <ele>1206.2</ele>
        <time>2025-07-21T10:16:06Z</time>
      </trkpt>
      <trkpt lat="42.91544" lon="0.75662">
        <ele>1205.6</ele>
        <time>2025-07-21T10:16:07Z</time>
      </trkpt>
      <trkpt lat="42.91535" lon="0.75661">
        <ele>1204.2</ele>
        <time>2025-07-21T10:16:08Z</time>
      </trkpt>
      <trkpt lat="42.91526" lon="0.75663">
        <ele>1202.4</ele>
        <time>2025-07-21T10:16:09Z</time>
      </trkpt>
      <trkpt lat="42.91518" lon="0.75669">
        <ele>1201.8</ele>
        <time>2025-07-21T10:16:10Z</time>
      </trkpt>
      <trkpt lat="42.91511" lon="0.75679">
        <ele>1200.8</ele>
        <time>2025-07-21T10:16:11Z</time>
      </trkpt>
      <trkpt lat="42.915" lon="0.757">
        <ele>1199</ele>
        <time>2025-07-21T10:16:13Z</time>
      </trkpt>
      <trkpt lat="42.9149" lon="0.75719">
        <ele>1197.6</ele>
        <time>2025-07-21T10:16:15Z</time>
      </trkpt>
      <trkpt lat="42.91484" lon="0.75724">
        <ele>1196.6</ele>
        <time>2025-07-21T10:16:16Z</time>
      </trkpt>
      <trkpt lat="42.91478" lon="0.75726">
        <ele>1196</ele>
        <time>2025-07-21T10:16:17Z</time>
      </trkpt>
      <trkpt lat="42.91473" lon="0.75725">
        <ele>1194.8</ele>
        <time>2025-07-21T10:16:18Z</time>
      </trkpt>
      <trkpt lat="42.9147" lon="0.7572">
        <ele>1194.2</ele>
        <time>2025-07-21T10:16:19Z</time>
      </trkpt>
      <trkpt lat="42.91471" lon="0.75713">
        <ele>1193.4</ele>
        <time>2025-07-21T10:16:20Z</time>
      </trkpt>
      <trkpt lat="42.91474" lon="0.75704">
        <ele>1193</ele>
        <time>2025-07-21T10:16:21Z</time>
      </trkpt>
      <trkpt lat="42.91481" lon="0.75684">
        <ele>1191.8</ele>
        <time>2025-07-21T10:16:23Z</time>
      </trkpt>
      <trkpt lat="42.91485" lon="0.7566">
        <ele>1190.6</ele>
        <time>2025-07-21T10:16:25Z</time>
      </trkpt>
      <trkpt lat="42.9149" lon="0.75625">
        <ele>1189.2</ele>
        <time>2025-07-21T10:16:28Z</time>
      </trkpt>
      <trkpt lat="42.91495" lon="0.75606">
        <ele>1187.6</ele>
        <time>2025-07-21T10:16:30Z</time>
      </trkpt>
      <trkpt lat="42.91493" lon="0.75592">
        <ele>1186.2</ele>
        <time>2025-07-21T10:16:32Z</time>
      </trkpt>
      <trkpt lat="42.91481" lon="0.75592">
        <ele>1185</ele>
        <time>2025-07-21T10:16:34Z</time>
      </trkpt>
      <trkpt lat="42.91472" lon="0.75607">
        <ele>1184</ele>
        <time>2025-07-21T10:16:36Z</time>
      </trkpt>
      <trkpt lat="42.91467" lon="0.75617">
        <ele>1183.4</ele>
        <time>2025-07-21T10:16:37Z</time>
      </trkpt>
      <trkpt lat="42.91456" lon="0.75636">
        <ele>1182.4</ele>
        <time>2025-07-21T10:16:39Z</time>
      </trkpt>
      <trkpt lat="42.91443" lon="0.75654">
        <ele>1181.4</ele>
        <time>2025-07-21T10:16:41Z</time>
      </trkpt>
      <trkpt lat="42.91436" lon="0.75662">
        <ele>1180.2</ele>
        <time>2025-07-21T10:16:42Z</time>
      </trkpt>
      <trkpt lat="42.91424" lon="0.75677">
        <ele>1179</ele>
        <time>2025-07-21T10:16:44Z</time>
      </trkpt>
      <trkpt lat="42.91418" lon="0.75681">
        <ele>1178.4</ele>
        <time>2025-07-21T10:16:45Z</time>
      </trkpt>
      <trkpt lat="42.91412" lon="0.75682">
        <ele>1176.8</ele>
        <time>2025-07-21T10:16:46Z</time>
      </trkpt>
      <trkpt lat="42.91406" lon="0.75679">
        <ele>1176.2</ele>
        <time>2025-07-21T10:16:47Z</time>
      </trkpt>
      <trkpt lat="42.91402" lon="0.75674">
        <ele>1175.4</ele>
        <time>2025-07-21T10:16:48Z</time>
      </trkpt>
      <trkpt lat="42.91402" lon="0.75666">
        <ele>1174.8</ele>
        <time>2025-07-21T10:16:49Z</time>
      </trkpt>
      <trkpt lat="42.91404" lon="0.75657">
        <ele>1174.2</ele>
        <time>2025-07-21T10:16:50Z</time>
      </trkpt>
      <trkpt lat="42.91412" lon="0.75639">
        <ele>1173</ele>
        <time>2025-07-21T10:16:52Z</time>
      </trkpt>
      <trkpt lat="42.91417" lon="0.75626">
        <ele>1172.6</ele>
        <time>2025-07-21T10:16:53Z</time>
      </trkpt>
      <trkpt lat="42.91421" lon="0.75613">
        <ele>1172</ele>
        <time>2025-07-21T10:16:54Z</time>
      </trkpt>
      <trkpt lat="42.91424" lon="0.75601">
        <ele>1170.8</ele>
        <time>2025-07-21T10:16:55Z</time>
      </trkpt>
      <trkpt lat="42.91427" lon="0.75588">
        <ele>1170</ele>
        <time>2025-07-21T10:16:56Z</time>
      </trkpt>
      <trkpt lat="42.9143" lon="0.75574">
        <ele>1169.8</ele>
        <time>2025-07-21T10:16:57Z</time>
      </trkpt>
      <trkpt lat="42.91438" lon="0.75532">
        <ele>1168.2</ele>
        <time>2025-07-21T10:17:00Z</time>
      </trkpt>
      <trkpt lat="42.91443" lon="0.75504">
        <ele>1166.6</ele>
        <time>2025-07-21T10:17:02Z</time>
      </trkpt>
      <trkpt lat="42.91447" lon="0.75493">
        <ele>1165.6</ele>
        <time>2025-07-21T10:17:03Z</time>
      </trkpt>
      <trkpt lat="42.91452" lon="0.75483">
        <ele>1165</ele>
        <time>2025-07-21T10:17:04Z</time>
      </trkpt>
      <trkpt lat="42.91458" lon="0.75475">
        <ele>1164</ele>
        <time>2025-07-21T10:17:05Z</time>
      </trkpt>
      <trkpt lat="42.91463" lon="0.75468">
        <ele>1163.4</ele>
        <time>2025-07-21T10:17:06Z</time>
      </trkpt>
      <trkpt lat="42.91466" lon="0.75461">
        <ele>1162</ele>
        <time>2025-07-21T10:17:07Z</time>
      </trkpt>
      <trkpt lat="42.91466" lon="0.75452">
        <ele>1161.4</ele>
        <time>2025-07-21T10:17:08Z</time>
      </trkpt>
      <trkpt lat="42.91462" lon="0.75446">
        <ele>1160.2</ele>
        <time>2025-07-21T10:17:09Z</time>
      </trkpt>
      <trkpt lat="42.91456" lon="0.75443">
        <ele>1159</ele>
        <time>2025-07-21T10:17:10Z</time>
      </trkpt>
      <trkpt lat="42.91451" lon="0.75447">
        <ele>1158.8</ele>
        <time>2025-07-21T10:17:11Z</time>
      </trkpt>
      <trkpt lat="42.9144" lon="0.75461">
        <ele>1157.8</ele>
        <time>2025-07-21T10:17:13Z</time>
      </trkpt>
      <trkpt lat="42.91433" lon="0.75468">
        <ele>1157.4</ele>
        <time>2025-07-21T10:17:14Z</time>
      </trkpt>
      <trkpt lat="42.91426" lon="0.75474">
        <ele>1156.8</ele>
        <time>2025-07-21T10:17:15Z</time>
      </trkpt>
      <trkpt lat="42.9141" lon="0.75488">
        <ele>1155.6</ele>
        <time>2025-07-21T10:17:17Z</time>
      </trkpt>
      <trkpt lat="42.91403" lon="0.75496">
        <ele>1155.2</ele>
        <time>2025-07-21T10:17:18Z</time>
      </trkpt>
      <trkpt lat="42.91397" lon="0.75504">
        <ele>1154.4</ele>
        <time>2025-07-21T10:17:19Z</time>
      </trkpt>
      <trkpt lat="42.91385" lon="0.75518">
        <ele>1153.4</ele>
        <time>2025-07-21T10:17:21Z</time>
      </trkpt>
      <trkpt lat="42.91379" lon="0.75519">
        <ele>1152.8</ele>
        <time>2025-07-21T10:17:22Z</time>
      </trkpt>
      <trkpt lat="42.91373" lon="0.75518">
        <ele>1152.2</ele>
        <time>2025-07-21T10:17:23Z</time>
      </trkpt>
      <trkpt lat="42.91369" lon="0.75513">
        <ele>1150.8</ele>
        <time>2025-07-21T10:17:24Z</time>
      </trkpt>
      <trkpt lat="42.91369" lon="0.75505">
        <ele>1150.2</ele>
        <time>2025-07-21T10:17:25Z</time>
      </trkpt>
      <trkpt lat="42.91372" lon="0.75498">
        <ele>1149.4</ele>
        <time>2025-07-21T10:17:26Z</time>
      </trkpt>
      <trkpt lat="42.91377" lon="0.7549">
        <ele>1149.2</ele>
        <time>2025-07-21T10:17:27Z</time>
      </trkpt>
      <trkpt lat="42.91383" lon="0.75482">
        <ele>1148.2</ele>
        <time>2025-07-21T10:17:28Z</time>
      </trkpt>
      <trkpt lat="42.91389" lon="0.75473">
        <ele>1147.4</ele>
        <time>2025-07-21T10:17:29Z</time>
      </trkpt>
      <trkpt lat="42.91393" lon="0.75465">
        <ele>1147.2</ele>
        <time>2025-07-21T10:17:30Z</time>
      </trkpt>
      <trkpt lat="42.91398" lon="0.75451">
        <ele>1146.6</ele>
        <time>2025-07-21T10:17:31Z</time>
      </trkpt>
      <trkpt lat="42.91401" lon="0.75438">
        <ele>1146.2</ele>
        <time>2025-07-21T10:17:32Z</time>
      </trkpt>
      <trkpt lat="42.91402" lon="0.75425">
        <ele>1145.4</ele>
        <time>2025-07-21T10:17:33Z</time>
      </trkpt>
      <trkpt lat="42.91403" lon="0.75397">
        <ele>1144.2</ele>
        <time>2025-07-21T10:17:35Z</time>
      </trkpt>
      <trkpt lat="42.91404" lon="0.75372">
        <ele>1143</ele>
        <time>2025-07-21T10:17:37Z</time>
      </trkpt>
      <trkpt lat="42.91408" lon="0.75348">
        <ele>1141.8</ele>
        <time>2025-07-21T10:17:39Z</time>
      </trkpt>
      <trkpt lat="42.91412" lon="0.75337">
        <ele>1140.8</ele>
        <time>2025-07-21T10:17:40Z</time>
      </trkpt>
      <trkpt lat="42.91416" lon="0.75328">
        <ele>1140.4</ele>
        <time>2025-07-21T10:17:41Z</time>
      </trkpt>
      <trkpt lat="42.9142" lon="0.7532">
        <ele>1139.2</ele>
        <time>2025-07-21T10:17:42Z</time>
      </trkpt>
      <trkpt lat="42.91422" lon="0.75314">
        <ele>1138.2</ele>
        <time>2025-07-21T10:17:43Z</time>
      </trkpt>
      <trkpt lat="42.91419" lon="0.75308">
        <ele>1137.2</ele>
        <time>2025-07-21T10:17:44Z</time>
      </trkpt>
      <trkpt lat="42.91414" lon="0.75306">
        <ele>1136</ele>
        <time>2025-07-21T10:17:45Z</time>
      </trkpt>
      <trkpt lat="42.91407" lon="0.75308">
        <ele>1135.6</ele>
        <time>2025-07-21T10:17:46Z</time>
      </trkpt>
      <trkpt lat="42.91401" lon="0.75313">
        <ele>1134.8</ele>
        <time>2025-07-21T10:17:47Z</time>
      </trkpt>
      <trkpt lat="42.91395" lon="0.7532">
        <ele>1134.2</ele>
        <time>2025-07-21T10:17:48Z</time>
      </trkpt>
      <trkpt lat="42.9139" lon="0.75328">
        <ele>1133.8</ele>
        <time>2025-07-21T10:17:49Z</time>
      </trkpt>
      <trkpt lat="42.91384" lon="0.75337">
        <ele>1133.2</ele>
        <time>2025-07-21T10:17:50Z</time>
      </trkpt>
      <trkpt lat="42.91372" lon="0.75354">
        <ele>1131.8</ele>
        <time>2025-07-21T10:17:52Z</time>
      </trkpt>
      <trkpt lat="42.91358" lon="0.75374">
        <ele>1130.6</ele>
        <time>2025-07-21T10:17:54Z</time>
      </trkpt>
      <trkpt lat="42.91342" lon="0.75402">
        <ele>1128.2</ele>
        <time>2025-07-21T10:17:57Z</time>
      </trkpt>
      <trkpt lat="42.91337" lon="0.7541">
        <ele>1127.6</ele>
        <time>2025-07-21T10:17:58Z</time>
      </trkpt>
      <trkpt lat="42.91333" lon="0.75413">
        <ele>1126.6</ele>
        <time>2025-07-21T10:17:59Z</time>
      </trkpt>
      <trkpt lat="42.91328" lon="0.75412">
        <ele>1126</ele>
        <time>2025-07-21T10:18:00Z</time>
      </trkpt>
      <trkpt lat="42.91326" lon="0.75407">
        <ele>1124.8</ele>
        <time>2025-07-21T10:18:01Z</time>
      </trkpt>
      <trkpt lat="42.91325" lon="0.754">
        <ele>1124.4</ele>
        <time>2025-07-21T10:18:02Z</time>
      </trkpt>
      <trkpt lat="42.91327" lon="0.75389">
        <ele>1124.2</ele>
        <time>2025-07-21T10:18:03Z</time>
      </trkpt>
      <trkpt lat="42.91331" lon="0.75379">
        <ele>1123.8</ele>
        <time>2025-07-21T10:18:04Z</time>
      </trkpt>
      <trkpt lat="42.91341" lon="0.75357">
        <ele>1122.8</ele>
        <time>2025-07-21T10:18:06Z</time>
      </trkpt>
      <trkpt lat="42.91349" lon="0.75334">
        <ele>1121.8</ele>
        <time>2025-07-21T10:18:08Z</time>
      </trkpt>
      <trkpt lat="42.91353" lon="0.75317">
        <ele>1120.4</ele>
        <time>2025-07-21T10:18:09Z</time>
      </trkpt>
      <trkpt lat="42.91359" lon="0.7529">
        <ele>1118.8</ele>
        <time>2025-07-21T10:18:11Z</time>
      </trkpt>
      <trkpt lat="42.91367" lon="0.75263">
        <ele>1117.2</ele>
        <time>2025-07-21T10:18:13Z</time>
      </trkpt>
      <trkpt lat="42.91372" lon="0.7525">
        <ele>1116</ele>
        <time>2025-07-21T10:18:14Z</time>
      </trkpt>
      <trkpt lat="42.91379" lon="0.75239">
        <ele>1115.2</ele>
        <time>2025-07-21T10:18:15Z</time>
      </trkpt>
      <trkpt lat="42.91389" lon="0.75231">
        <ele>1114</ele>
        <time>2025-07-21T10:18:16Z</time>
      </trkpt>
      <trkpt lat="42.91407" lon="0.75218">
        <ele>1112.2</ele>
        <time>2025-07-21T10:18:18Z</time>
      </trkpt>
      <trkpt lat="42.91432" lon="0.75207">
        <ele>1110.2</ele>
        <time>2025-07-21T10:18:20Z</time>
      </trkpt>
      <trkpt lat="42.91443" lon="0.75203">
        <ele>1108.6</ele>
        <time>2025-07-21T10:18:21Z</time>
      </trkpt>
      <trkpt lat="42.91454" lon="0.75198">
        <ele>1107.6</ele>
        <time>2025-07-21T10:18:22Z</time>
      </trkpt>
      <trkpt lat="42.91464" lon="0.75193">
        <ele>1105.8</ele>
        <time>2025-07-21T10:18:23Z</time>
      </trkpt>
      <trkpt lat="42.91483" lon="0.75186">
        <ele>1103.6</ele>
        <time>2025-07-21T10:18:25Z</time>
      </trkpt>
      <trkpt lat="42.91495" lon="0.75183">
        <ele>1103</ele>
        <time>2025-07-21T10:18:26Z</time>
      </trkpt>
      <trkpt lat="42.91506" lon="0.75182">
        <ele>1101.4</ele>
        <time>2025-07-21T10:18:27Z</time>
      </trkpt>
      <trkpt lat="42.91516" lon="0.75181">
        <ele>1100</ele>
        <time>2025-07-21T10:18:28Z</time>
      </trkpt>
      <trkpt lat="42.91525" lon="0.7518">
        <ele>1099.2</ele>
        <time>2025-07-21T10:18:29Z</time>
      </trkpt>
      <trkpt lat="42.91531" lon="0.75176">
        <ele>1098.2</ele>
        <time>2025-07-21T10:18:30Z</time>
      </trkpt>
      <trkpt lat="42.91539" lon="0.75168">
        <ele>1097.8</ele>
        <time>2025-07-21T10:18:31Z</time>
      </trkpt>
      <trkpt lat="42.91542" lon="0.7516">
        <ele>1096.2</ele>
        <time>2025-07-21T10:18:32Z</time>
      </trkpt>
      <trkpt lat="42.91547" lon="0.75146">
        <ele>1095.4</ele>
        <time>2025-07-21T10:18:33Z</time>
      </trkpt>
      <trkpt lat="42.91549" lon="0.75133">
        <ele>1094</ele>
        <time>2025-07-21T10:18:34Z</time>
      </trkpt>
      <trkpt lat="42.9155" lon="0.75119">
        <ele>1093</ele>
        <time>2025-07-21T10:18:35Z</time>
      </trkpt>
      <trkpt lat="42.91549" lon="0.75092">
        <ele>1091.8</ele>
        <time>2025-07-21T10:18:37Z</time>
      </trkpt>
      <trkpt lat="42.91546" lon="0.75077">
        <ele>1091</ele>
        <time>2025-07-21T10:18:38Z</time>
      </trkpt>
      <trkpt lat="42.91543" lon="0.75063">
        <ele>1090</ele>
        <time>2025-07-21T10:18:39Z</time>
      </trkpt>
      <trkpt lat="42.9154" lon="0.75052">
        <ele>1088.6</ele>
        <time>2025-07-21T10:18:40Z</time>
      </trkpt>
      <trkpt lat="42.91537" lon="0.75035">
        <ele>1088.2</ele>
        <time>2025-07-21T10:18:41Z</time>
      </trkpt>
      <trkpt lat="42.91535" lon="0.75021">
        <ele>1086.8</ele>
        <time>2025-07-21T10:18:42Z</time>
      </trkpt>
      <trkpt lat="42.91534" lon="0.75006">
        <ele>1086.2</ele>
        <time>2025-07-21T10:18:43Z</time>
      </trkpt>
      <trkpt lat="42.91534" lon="0.74991">
        <ele>1085.2</ele>
        <time>2025-07-21T10:18:44Z</time>
      </trkpt>
      <trkpt lat="42.91533" lon="0.7496">
        <ele>1083</ele>
        <time>2025-07-21T10:18:46Z</time>
      </trkpt>
      <trkpt lat="42.91531" lon="0.74944">
        <ele>1081.6</ele>
        <time>2025-07-21T10:18:47Z</time>
      </trkpt>
      <trkpt lat="42.91528" lon="0.74911">
        <ele>1079.6</ele>
        <time>2025-07-21T10:18:49Z</time>
      </trkpt>
      <trkpt lat="42.91529" lon="0.74881">
        <ele>1077.6</ele>
        <time>2025-07-21T10:18:51Z</time>
      </trkpt>
      <trkpt lat="42.91532" lon="0.74845">
        <ele>1075.8</ele>
        <time>2025-07-21T10:18:53Z</time>
      </trkpt>
      <trkpt lat="42.91535" lon="0.74829">
        <ele>1074</ele>
        <time>2025-07-21T10:18:54Z</time>
      </trkpt>
      <trkpt lat="42.91537" lon="0.74797">
        <ele>1071.4</ele>
        <time>2025-07-21T10:18:56Z</time>
      </trkpt>
      <trkpt lat="42.91538" lon="0.74781">
        <ele>1070.2</ele>
        <time>2025-07-21T10:18:57Z</time>
      </trkpt>
      <trkpt lat="42.91539" lon="0.74764">
        <ele>1068.6</ele>
        <time>2025-07-21T10:18:58Z</time>
      </trkpt>
      <trkpt lat="42.91541" lon="0.74747">
        <ele>1067.2</ele>
        <time>2025-07-21T10:18:59Z</time>
      </trkpt>
      <trkpt lat="42.91545" lon="0.74716">
        <ele>1065.2</ele>
        <time>2025-07-21T10:19:01Z</time>
      </trkpt>
      <trkpt lat="42.91547" lon="0.74701">
        <ele>1064.2</ele>
        <time>2025-07-21T10:19:02Z</time>
      </trkpt>
      <trkpt lat="42.91548" lon="0.74686">
        <ele>1062.8</ele>
        <time>2025-07-21T10:19:03Z</time>
      </trkpt>
      <trkpt lat="42.91552" lon="0.74658">
        <ele>1060.4</ele>
        <time>2025-07-21T10:19:05Z</time>
      </trkpt>
      <trkpt lat="42.91556" lon="0.74645">
        <ele>1058.4</ele>
        <time>2025-07-21T10:19:06Z</time>
      </trkpt>
      <trkpt lat="42.9156" lon="0.74631">
        <ele>1057.4</ele>
        <time>2025-07-21T10:19:07Z</time>
      </trkpt>
      <trkpt lat="42.91563" lon="0.74617">
        <ele>1056.2</ele>
        <time>2025-07-21T10:19:08Z</time>
      </trkpt>
      <trkpt lat="42.91564" lon="0.74588">
        <ele>1054.4</ele>
        <time>2025-07-21T10:19:10Z</time>
      </trkpt>
      <trkpt lat="42.91562" lon="0.74574">
        <ele>1053.4</ele>
        <time>2025-07-21T10:19:11Z</time>
      </trkpt>
      <trkpt lat="42.91559" lon="0.7456">
        <ele>1051.8</ele>
        <time>2025-07-21T10:19:12Z</time>
      </trkpt>
      <trkpt lat="42.91558" lon="0.74545">
        <ele>1050.4</ele>
        <time>2025-07-21T10:19:13Z</time>
      </trkpt>
      <trkpt lat="42.91557" lon="0.7453">
        <ele>1049.2</ele>
        <time>2025-07-21T10:19:14Z</time>
      </trkpt>
      <trkpt lat="42.91558" lon="0.74515">
        <ele>1047.6</ele>
        <time>2025-07-21T10:19:15Z</time>
      </trkpt>
      <trkpt lat="42.91559" lon="0.74502">
        <ele>1046.8</ele>
        <time>2025-07-21T10:19:16Z</time>
      </trkpt>
      <trkpt lat="42.9156" lon="0.74488">
        <ele>1045.8</ele>
        <time>2025-07-21T10:19:17Z</time>
      </trkpt>
      <trkpt lat="42.91561" lon="0.74474">
        <ele>1044</ele>
        <time>2025-07-21T10:19:18Z</time>
      </trkpt>
      <trkpt lat="42.9156" lon="0.7446">
        <ele>1043</ele>
        <time>2025-07-21T10:19:19Z</time>
      </trkpt>
      <trkpt lat="42.9156" lon="0.74447">
        <ele>1041.6</ele>
        <time>2025-07-21T10:19:20Z</time>
      </trkpt>
      <trkpt lat="42.9156" lon="0.74422">
        <ele>1039.6</ele>
        <time>2025-07-21T10:19:22Z</time>
      </trkpt>
      <trkpt lat="42.91562" lon="0.74411">
        <ele>1039.2</ele>
        <time>2025-07-21T10:19:23Z</time>
      </trkpt>
      <trkpt lat="42.91564" lon="0.74402">
        <ele>1038</ele>
        <time>2025-07-21T10:19:24Z</time>
      </trkpt>
      <trkpt lat="42.91565" lon="0.74393">
        <ele>1037</ele>
        <time>2025-07-21T10:19:25Z</time>
      </trkpt>
      <trkpt lat="42.91564" lon="0.74385">
        <ele>1036.6</ele>
        <time>2025-07-21T10:19:26Z</time>
      </trkpt>
      <trkpt lat="42.91562" lon="0.7438">
        <ele>1035.2</ele>
        <time>2025-07-21T10:19:27Z</time>
      </trkpt>
      <trkpt lat="42.91557" lon="0.74377">
        <ele>1034.6</ele>
        <time>2025-07-21T10:19:28Z</time>
      </trkpt>
      <trkpt lat="42.91553" lon="0.74379">
        <ele>1033.4</ele>
        <time>2025-07-21T10:19:29Z</time>
      </trkpt>
      <trkpt lat="42.9155" lon="0.74385">
        <ele>1033</ele>
        <time>2025-07-21T10:19:30Z</time>
      </trkpt>
      <trkpt lat="42.91549" lon="0.74393">
        <ele>1031.8</ele>
        <time>2025-07-21T10:19:31Z</time>
      </trkpt>
      <trkpt lat="42.91546" lon="0.74413">
        <ele>1031</ele>
        <time>2025-07-21T10:19:33Z</time>
      </trkpt>
      <trkpt lat="42.91543" lon="0.74423">
        <ele>1030.6</ele>
        <time>2025-07-21T10:19:34Z</time>
      </trkpt>
      <trkpt lat="42.91537" lon="0.74444">
        <ele>1029.4</ele>
        <time>2025-07-21T10:19:36Z</time>
      </trkpt>
      <trkpt lat="42.91533" lon="0.74455">
        <ele>1029</ele>
        <time>2025-07-21T10:19:37Z</time>
      </trkpt>
      <trkpt lat="42.91528" lon="0.74467">
        <ele>1028.8</ele>
        <time>2025-07-21T10:19:38Z</time>
      </trkpt>
      <trkpt lat="42.91522" lon="0.74479">
        <ele>1028.4</ele>
        <time>2025-07-21T10:19:39Z</time>
      </trkpt>
      <trkpt lat="42.91516" lon="0.74491">
        <ele>1027.8</ele>
        <time>2025-07-21T10:19:40Z</time>
      </trkpt>
      <trkpt lat="42.91512" lon="0.74504">
        <ele>1027</ele>
        <time>2025-07-21T10:19:41Z</time>
      </trkpt>
      <trkpt lat="42.91509" lon="0.74517">
        <ele>1026.6</ele>
        <time>2025-07-21T10:19:42Z</time>
      </trkpt>
      <trkpt lat="42.91507" lon="0.7453">
        <ele>1025.6</ele>
        <time>2025-07-21T10:19:43Z</time>
      </trkpt>
      <trkpt lat="42.91508" lon="0.74541">
        <ele>1024.6</ele>
        <time>2025-07-21T10:19:44Z</time>
      </trkpt>
      <trkpt lat="42.91508" lon="0.74552">
        <ele>1023.6</ele>
        <time>2025-07-21T10:19:45Z</time>
      </trkpt>
      <trkpt lat="42.91507" lon="0.7456">
        <ele>1022.6</ele>
        <time>2025-07-21T10:19:46Z</time>
      </trkpt>
      <trkpt lat="42.91504" lon="0.74565">
        <ele>1021.8</ele>
        <time>2025-07-21T10:19:47Z</time>
      </trkpt>
      <trkpt lat="42.91499" lon="0.74565">
        <ele>1020.6</ele>
        <time>2025-07-21T10:19:48Z</time>
      </trkpt>
      <trkpt lat="42.91495" lon="0.74562">
        <ele>1020.2</ele>
        <time>2025-07-21T10:19:49Z</time>
      </trkpt>
      <trkpt lat="42.9149" lon="0.74556">
        <ele>1019.2</ele>
        <time>2025-07-21T10:19:50Z</time>
      </trkpt>
      <trkpt lat="42.91489" lon="0.74547">
        <ele>1018.4</ele>
        <time>2025-07-21T10:19:51Z</time>
      </trkpt>
      <trkpt lat="42.91489" lon="0.74538">
        <ele>1017.8</ele>
        <time>2025-07-21T10:19:52Z</time>
      </trkpt>
      <trkpt lat="42.91489" lon="0.74505">
        <ele>1016.6</ele>
        <time>2025-07-21T10:19:55Z</time>
      </trkpt>
      <trkpt lat="42.91489" lon="0.74493">
        <ele>1016</ele>
        <time>2025-07-21T10:19:56Z</time>
      </trkpt>
      <trkpt lat="42.91492" lon="0.74468">
        <ele>1014.8</ele>
        <time>2025-07-21T10:19:58Z</time>
      </trkpt>
      <trkpt lat="42.91499" lon="0.74442">
        <ele>1013.4</ele>
        <time>2025-07-21T10:20:00Z</time>
      </trkpt>
      <trkpt lat="42.91501" lon="0.74428">
        <ele>1012.8</ele>
        <time>2025-07-21T10:20:01Z</time>
      </trkpt>
      <trkpt lat="42.91503" lon="0.74413">
        <ele>1011.6</ele>
        <time>2025-07-21T10:20:02Z</time>
      </trkpt>
      <trkpt lat="42.91504" lon="0.74398">
        <ele>1010.4</ele>
        <time>2025-07-21T10:20:03Z</time>
      </trkpt>
      <trkpt lat="42.91506" lon="0.74368">
        <ele>1009</ele>
        <time>2025-07-21T10:20:05Z</time>
      </trkpt>
      <trkpt lat="42.91508" lon="0.74339">
        <ele>1006.8</ele>
        <time>2025-07-21T10:20:07Z</time>
      </trkpt>
      <trkpt lat="42.9151" lon="0.74323">
        <ele>1006.4</ele>
        <time>2025-07-21T10:20:08Z</time>
      </trkpt>
      <trkpt lat="42.91513" lon="0.74309">
        <ele>1004.6</ele>
        <time>2025-07-21T10:20:09Z</time>
      </trkpt>
      <trkpt lat="42.91515" lon="0.74294">
        <ele>1003.4</ele>
        <time>2025-07-21T10:20:10Z</time>
      </trkpt>
      <trkpt lat="42.9152" lon="0.74265">
        <ele>1001.6</ele>
        <time>2025-07-21T10:20:12Z</time>
      </trkpt>
      <trkpt lat="42.91523" lon="0.74251">
        <ele>1001</ele>
        <time>2025-07-21T10:20:13Z</time>
      </trkpt>
      <trkpt lat="42.91527" lon="0.74237">
        <ele>999.6</ele>
        <time>2025-07-21T10:20:14Z</time>
      </trkpt>
      <trkpt lat="42.91531" lon="0.74223">
        <ele>998.4</ele>
        <time>2025-07-21T10:20:15Z</time>
      </trkpt>
      <trkpt lat="42.91539" lon="0.74198">
        <ele>996.4</ele>
        <time>2025-07-21T10:20:17Z</time>
      </trkpt>
      <trkpt lat="42.91549" lon="0.74177">
        <ele>994</ele>
        <time>2025-07-21T10:20:19Z</time>
      </trkpt>
      <trkpt lat="42.91563" lon="0.74165">
        <ele>992</ele>
        <time>2025-07-21T10:20:21Z</time>
      </trkpt>
      <trkpt lat="42.91571" lon="0.74161">
        <ele>990.4</ele>
        <time>2025-07-21T10:20:22Z</time>
      </trkpt>
      <trkpt lat="42.91579" lon="0.74155">
        <ele>989.6</ele>
        <time>2025-07-21T10:20:23Z</time>
      </trkpt>
      <trkpt lat="42.91585" lon="0.74148">
        <ele>988.2</ele>
        <time>2025-07-21T10:20:24Z</time>
      </trkpt>
      <trkpt lat="42.9159" lon="0.74138">
        <ele>987.8</ele>
        <time>2025-07-21T10:20:25Z</time>
      </trkpt>
      <trkpt lat="42.91593" lon="0.74126">
        <ele>986.4</ele>
        <time>2025-07-21T10:20:26Z</time>
      </trkpt>
      <trkpt lat="42.91594" lon="0.74113">
        <ele>985.6</ele>
        <time>2025-07-21T10:20:27Z</time>
      </trkpt>
      <trkpt lat="42.91595" lon="0.74099">
        <ele>984.8</ele>
        <time>2025-07-21T10:20:28Z</time>
      </trkpt>
      <trkpt lat="42.91593" lon="0.74084">
        <ele>983.4</ele>
        <time>2025-07-21T10:20:29Z</time>
      </trkpt>
      <trkpt lat="42.91586" lon="0.74054">
        <ele>981.6</ele>
        <time>2025-07-21T10:20:31Z</time>
      </trkpt>
      <trkpt lat="42.9158" lon="0.74026">
        <ele>979.8</ele>
        <time>2025-07-21T10:20:33Z</time>
      </trkpt>
      <trkpt lat="42.91577" lon="0.74013">
        <ele>978.2</ele>
        <time>2025-07-21T10:20:34Z</time>
      </trkpt>
      <trkpt lat="42.91575" lon="0.74">
        <ele>977.4</ele>
        <time>2025-07-21T10:20:35Z</time>
      </trkpt>
      <trkpt lat="42.91575" lon="0.73987">
        <ele>976</ele>
        <time>2025-07-21T10:20:36Z</time>
      </trkpt>
      <trkpt lat="42.91581" lon="0.73959">
        <ele>973.8</ele>
        <time>2025-07-21T10:20:38Z</time>
      </trkpt>
      <trkpt lat="42.9159" lon="0.73932">
        <ele>971.4</ele>
        <time>2025-07-21T10:20:40Z</time>
      </trkpt>
      <trkpt lat="42.91595" lon="0.73918">
        <ele>970</ele>
        <time>2025-07-21T10:20:41Z</time>
      </trkpt>
      <trkpt lat="42.91606" lon="0.73896">
        <ele>968.2</ele>
        <time>2025-07-21T10:20:43Z</time>
      </trkpt>
      <trkpt lat="42.9162" lon="0.7388">
        <ele>966</ele>
        <time>2025-07-21T10:20:45Z</time>
      </trkpt>
      <trkpt lat="42.91629" lon="0.73876">
        <ele>965</ele>
        <time>2025-07-21T10:20:46Z</time>
      </trkpt>
      <trkpt lat="42.91639" lon="0.73875">
        <ele>964.2</ele>
        <time>2025-07-21T10:20:47Z</time>
      </trkpt>
      <trkpt lat="42.91649" lon="0.73877">
        <ele>962.4</ele>
        <time>2025-07-21T10:20:48Z</time>
      </trkpt>
      <trkpt lat="42.91659" lon="0.7388">
        <ele>961.6</ele>
        <time>2025-07-21T10:20:49Z</time>
      </trkpt>
      <trkpt lat="42.91668" lon="0.73884">
        <ele>960</ele>
        <time>2025-07-21T10:20:50Z</time>
      </trkpt>
      <trkpt lat="42.91677" lon="0.73886">
        <ele>959.4</ele>
        <time>2025-07-21T10:20:51Z</time>
      </trkpt>
      <trkpt lat="42.91687" lon="0.73887">
        <ele>958</ele>
        <time>2025-07-21T10:20:52Z</time>
      </trkpt>
      <trkpt lat="42.91696" lon="0.73887">
        <ele>957</ele>
        <time>2025-07-21T10:20:53Z</time>
      </trkpt>
      <trkpt lat="42.91714" lon="0.73879">
        <ele>955.2</ele>
        <time>2025-07-21T10:20:55Z</time>
      </trkpt>
      <trkpt lat="42.9172" lon="0.73872">
        <ele>954.4</ele>
        <time>2025-07-21T10:20:56Z</time>
      </trkpt>
      <trkpt lat="42.91724" lon="0.73861">
        <ele>953.2</ele>
        <time>2025-07-21T10:20:57Z</time>
      </trkpt>
      <trkpt lat="42.91725" lon="0.7385">
        <ele>952.4</ele>
        <time>2025-07-21T10:20:58Z</time>
      </trkpt>
      <trkpt lat="42.91722" lon="0.73838">
        <ele>951</ele>
        <time>2025-07-21T10:20:59Z</time>
      </trkpt>
      <trkpt lat="42.91719" lon="0.73826">
        <ele>950</ele>
        <time>2025-07-21T10:21:00Z</time>
      </trkpt>
      <trkpt lat="42.91711" lon="0.73801">
        <ele>948</ele>
        <time>2025-07-21T10:21:02Z</time>
      </trkpt>
      <trkpt lat="42.91699" lon="0.73776">
        <ele>946</ele>
        <time>2025-07-21T10:21:04Z</time>
      </trkpt>
      <trkpt lat="42.91691" lon="0.73764">
        <ele>944.6</ele>
        <time>2025-07-21T10:21:05Z</time>
      </trkpt>
      <trkpt lat="42.91677" lon="0.73742">
        <ele>943.4</ele>
        <time>2025-07-21T10:21:07Z</time>
      </trkpt>
      <trkpt lat="42.91669" lon="0.7372">
        <ele>941.4</ele>
        <time>2025-07-21T10:21:09Z</time>
      </trkpt>
      <trkpt lat="42.91669" lon="0.73698">
        <ele>939.6</ele>
        <time>2025-07-21T10:21:11Z</time>
      </trkpt>
      <trkpt lat="42.91673" lon="0.73688">
        <ele>937.8</ele>
        <time>2025-07-21T10:21:12Z</time>
      </trkpt>
      <trkpt lat="42.91679" lon="0.73679">
        <ele>937.2</ele>
        <time>2025-07-21T10:21:13Z</time>
      </trkpt>
      <trkpt lat="42.91687" lon="0.73671">
        <ele>935.2</ele>
        <time>2025-07-21T10:21:14Z</time>
      </trkpt>
      <trkpt lat="42.91694" lon="0.73661">
        <ele>934</ele>
        <time>2025-07-21T10:21:15Z</time>
      </trkpt>
      <trkpt lat="42.917" lon="0.73649">
        <ele>932.8</ele>
        <time>2025-07-21T10:21:16Z</time>
      </trkpt>
      <trkpt lat="42.91705" lon="0.73635">
        <ele>931.8</ele>
        <time>2025-07-21T10:21:17Z</time>
      </trkpt>
      <trkpt lat="42.91708" lon="0.73619">
        <ele>931.2</ele>
        <time>2025-07-21T10:21:18Z</time>
      </trkpt>
      <trkpt lat="42.9171" lon="0.73603">
        <ele>929.8</ele>
        <time>2025-07-21T10:21:19Z</time>
      </trkpt>
      <trkpt lat="42.91716" lon="0.73571">
        <ele>927.8</ele>
        <time>2025-07-21T10:21:21Z</time>
      </trkpt>
      <trkpt lat="42.91723" lon="0.73537">
        <ele>925.6</ele>
        <time>2025-07-21T10:21:23Z</time>
      </trkpt>
      <trkpt lat="42.91726" lon="0.7352">
        <ele>924.8</ele>
        <time>2025-07-21T10:21:24Z</time>
      </trkpt>
      <trkpt lat="42.9173" lon="0.73503">
        <ele>924.2</ele>
        <time>2025-07-21T10:21:25Z</time>
      </trkpt>
      <trkpt lat="42.91734" lon="0.73486">
        <ele>922.4</ele>
        <time>2025-07-21T10:21:26Z</time>
      </trkpt>
      <trkpt lat="42.91742" lon="0.73452">
        <ele>920</ele>
        <time>2025-07-21T10:21:28Z</time>
      </trkpt>
      <trkpt lat="42.91747" lon="0.73435">
        <ele>918.6</ele>
        <time>2025-07-21T10:21:29Z</time>
      </trkpt>
      <trkpt lat="42.91755" lon="0.73401">
        <ele>916</ele>
        <time>2025-07-21T10:21:31Z</time>
      </trkpt>
      <trkpt lat="42.91758" lon="0.73386">
        <ele>915</ele>
        <time>2025-07-21T10:21:32Z</time>
      </trkpt>
      <trkpt lat="42.9176" lon="0.7337">
        <ele>913.2</ele>
        <time>2025-07-21T10:21:33Z</time>
      </trkpt>
      <trkpt lat="42.91763" lon="0.73339">
        <ele>911.4</ele>
        <time>2025-07-21T10:21:35Z</time>
      </trkpt>
      <trkpt lat="42.91765" lon="0.73324">
        <ele>909.6</ele>
        <time>2025-07-21T10:21:36Z</time>
      </trkpt>
      <trkpt lat="42.91774" lon="0.73296">
        <ele>907.6</ele>
        <time>2025-07-21T10:21:38Z</time>
      </trkpt>
      <trkpt lat="42.91786" lon="0.73269">
        <ele>905.8</ele>
        <time>2025-07-21T10:21:40Z</time>
      </trkpt>
      <trkpt lat="42.91796" lon="0.73239">
        <ele>902.6</ele>
        <time>2025-07-21T10:21:42Z</time>
      </trkpt>
      <trkpt lat="42.918" lon="0.73223">
        <ele>901.2</ele>
        <time>2025-07-21T10:21:43Z</time>
      </trkpt>
      <trkpt lat="42.91805" lon="0.73191">
        <ele>899</ele>
        <time>2025-07-21T10:21:45Z</time>
      </trkpt>
      <trkpt lat="42.9181" lon="0.7316">
        <ele>897</ele>
        <time>2025-07-21T10:21:47Z</time>
      </trkpt>
      <trkpt lat="42.91813" lon="0.73144">
        <ele>895.2</ele>
        <time>2025-07-21T10:21:48Z</time>
      </trkpt>
      <trkpt lat="42.91818" lon="0.73113">
        <ele>893.2</ele>
        <time>2025-07-21T10:21:50Z</time>
      </trkpt>
      <trkpt lat="42.91823" lon="0.73082">
        <ele>890.6</ele>
        <time>2025-07-21T10:21:52Z</time>
      </trkpt>
      <trkpt lat="42.91829" lon="0.73051">
        <ele>888.4</ele>
        <time>2025-07-21T10:21:54Z</time>
      </trkpt>
      <trkpt lat="42.91833" lon="0.73035">
        <ele>887.2</ele>
        <time>2025-07-21T10:21:55Z</time>
      </trkpt>
      <trkpt lat="42.91841" lon="0.73004">
        <ele>885</ele>
        <time>2025-07-21T10:21:57Z</time>
      </trkpt>
      <trkpt lat="42.91845" lon="0.72973">
        <ele>882.4</ele>
        <time>2025-07-21T10:21:59Z</time>
      </trkpt>
      <trkpt lat="42.91847" lon="0.72957">
        <ele>881</ele>
        <time>2025-07-21T10:22:00Z</time>
      </trkpt>
      <trkpt lat="42.91851" lon="0.72942">
        <ele>879.6</ele>
        <time>2025-07-21T10:22:01Z</time>
      </trkpt>
      <trkpt lat="42.91856" lon="0.72927">
        <ele>878</ele>
        <time>2025-07-21T10:22:02Z</time>
      </trkpt>
      <trkpt lat="42.91867" lon="0.72898">
        <ele>875.6</ele>
        <time>2025-07-21T10:22:04Z</time>
      </trkpt>
      <trkpt lat="42.91878" lon="0.72868">
        <ele>873.4</ele>
        <time>2025-07-21T10:22:06Z</time>
      </trkpt>
      <trkpt lat="42.91883" lon="0.72853">
        <ele>871.8</ele>
        <time>2025-07-21T10:22:07Z</time>
      </trkpt>
      <trkpt lat="42.91894" lon="0.72821">
        <ele>869.4</ele>
        <time>2025-07-21T10:22:09Z</time>
      </trkpt>
      <trkpt lat="42.91905" lon="0.7279">
        <ele>866.4</ele>
        <time>2025-07-21T10:22:11Z</time>
      </trkpt>
      <trkpt lat="42.91909" lon="0.72774">
        <ele>865.6</ele>
        <time>2025-07-21T10:22:12Z</time>
      </trkpt>
      <trkpt lat="42.91912" lon="0.72759">
        <ele>863.8</ele>
        <time>2025-07-21T10:22:13Z</time>
      </trkpt>
      <trkpt lat="42.91914" lon="0.72744">
        <ele>862.4</ele>
        <time>2025-07-21T10:22:14Z</time>
      </trkpt>
      <trkpt lat="42.91915" lon="0.72729">
        <ele>861.6</ele>
        <time>2025-07-21T10:22:15Z</time>
      </trkpt>
      <trkpt lat="42.91915" lon="0.72714">
        <ele>860.8</ele>
        <time>2025-07-21T10:22:16Z</time>
      </trkpt>
      <trkpt lat="42.91913" lon="0.72682">
        <ele>858.8</ele>
        <time>2025-07-21T10:22:18Z</time>
      </trkpt>
      <trkpt lat="42.91913" lon="0.72667">
        <ele>857.8</ele>
        <time>2025-07-21T10:22:19Z</time>
      </trkpt>
      <trkpt lat="42.91916" lon="0.72635">
        <ele>855.4</ele>
        <time>2025-07-21T10:22:21Z</time>
      </trkpt>
      <trkpt lat="42.91919" lon="0.7262">
        <ele>854.8</ele>
        <time>2025-07-21T10:22:22Z</time>
      </trkpt>
      <trkpt lat="42.91924" lon="0.72605">
        <ele>853.8</ele>
        <time>2025-07-21T10:22:23Z</time>
      </trkpt>
      <trkpt lat="42.91936" lon="0.72575">
        <ele>851.4</ele>
        <time>2025-07-21T10:22:25Z</time>
      </trkpt>
      <trkpt lat="42.91943" lon="0.7256">
        <ele>850.2</ele>
        <time>2025-07-21T10:22:26Z</time>
      </trkpt>
      <trkpt lat="42.91957" lon="0.72531">
        <ele>847.8</ele>
        <time>2025-07-21T10:22:28Z</time>
      </trkpt>
      <trkpt lat="42.91965" lon="0.72518">
        <ele>846.6</ele>
        <time>2025-07-21T10:22:29Z</time>
      </trkpt>
      <trkpt lat="42.91972" lon="0.72509">
        <ele>844.8</ele>
        <time>2025-07-21T10:22:30Z</time>
      </trkpt>
      <trkpt lat="42.91984" lon="0.72497">
        <ele>843.6</ele>
        <time>2025-07-21T10:22:31Z</time>
      </trkpt>
      <trkpt lat="42.92004" lon="0.72478">
        <ele>841.8</ele>
        <time>2025-07-21T10:22:33Z</time>
      </trkpt>
      <trkpt lat="42.92012" lon="0.72471">
        <ele>841.2</ele>
        <time>2025-07-21T10:22:34Z</time>
      </trkpt>
      <trkpt lat="42.92022" lon="0.72461">
        <ele>839.8</ele>
        <time>2025-07-21T10:22:35Z</time>
      </trkpt>
      <trkpt lat="42.92044" lon="0.72442">
        <ele>837.2</ele>
        <time>2025-07-21T10:22:37Z</time>
      </trkpt>
      <trkpt lat="42.92052" lon="0.72436">
        <ele>835.2</ele>
        <time>2025-07-21T10:22:38Z</time>
      </trkpt>
      <trkpt lat="42.9207" lon="0.7242">
        <ele>832.6</ele>
        <time>2025-07-21T10:22:40Z</time>
      </trkpt>
      <trkpt lat="42.9209" lon="0.72406">
        <ele>830.2</ele>
        <time>2025-07-21T10:22:42Z</time>
      </trkpt>
      <trkpt lat="42.92099" lon="0.72399">
        <ele>828.4</ele>
        <time>2025-07-21T10:22:43Z</time>
      </trkpt>
      <trkpt lat="42.92107" lon="0.72391">
        <ele>827.8</ele>
        <time>2025-07-21T10:22:44Z</time>
      </trkpt>
      <trkpt lat="42.92115" lon="0.72381">
        <ele>826.2</ele>
        <time>2025-07-21T10:22:45Z</time>
      </trkpt>
      <trkpt lat="42.92126" lon="0.72356">
        <ele>823.8</ele>
        <time>2025-07-21T10:22:47Z</time>
      </trkpt>
      <trkpt lat="42.92136" lon="0.72335">
        <ele>821.6</ele>
        <time>2025-07-21T10:22:49Z</time>
      </trkpt>
      <trkpt lat="42.92145" lon="0.72323">
        <ele>820.4</ele>
        <time>2025-07-21T10:22:50Z</time>
      </trkpt>
      <trkpt lat="42.92159" lon="0.72305">
        <ele>818.4</ele>
        <time>2025-07-21T10:22:52Z</time>
      </trkpt>
      <trkpt lat="42.92164" lon="0.72295">
        <ele>817.8</ele>
        <time>2025-07-21T10:22:53Z</time>
      </trkpt>
      <trkpt lat="42.92168" lon="0.72285">
        <ele>817</ele>
        <time>2025-07-21T10:22:54Z</time>
      </trkpt>
      <trkpt lat="42.92172" lon="0.72274">
        <ele>816</ele>
        <time>2025-07-21T10:22:55Z</time>
      </trkpt>
      <trkpt lat="42.92175" lon="0.72263">
        <ele>814.6</ele>
        <time>2025-07-21T10:22:56Z</time>
      </trkpt>
      <trkpt lat="42.92179" lon="0.72252">
        <ele>812.8</ele>
        <time>2025-07-21T10:22:57Z</time>
      </trkpt>
      <trkpt lat="42.92191" lon="0.72235">
        <ele>811.2</ele>
        <time>2025-07-21T10:22:59Z</time>
      </trkpt>
      <trkpt lat="42.92201" lon="0.72225">
        <ele>810.4</ele>
        <time>2025-07-21T10:23:00Z</time>
      </trkpt>
      <trkpt lat="42.9221" lon="0.72217">
        <ele>809.2</ele>
        <time>2025-07-21T10:23:01Z</time>
      </trkpt>
      <trkpt lat="42.92219" lon="0.72209">
        <ele>807.8</ele>
        <time>2025-07-21T10:23:02Z</time>
      </trkpt>
      <trkpt lat="42.92235" lon="0.7219">
        <ele>805.8</ele>
        <time>2025-07-21T10:23:04Z</time>
      </trkpt>
      <trkpt lat="42.92249" lon="0.7217">
        <ele>804.4</ele>
        <time>2025-07-21T10:23:06Z</time>
      </trkpt>
      <trkpt lat="42.92262" lon="0.72153">
        <ele>802.2</ele>
        <time>2025-07-21T10:23:08Z</time>
      </trkpt>
      <trkpt lat="42.92269" lon="0.72144">
        <ele>801.2</ele>
        <time>2025-07-21T10:23:09Z</time>
      </trkpt>
      <trkpt lat="42.92276" lon="0.72133">
        <ele>800.8</ele>
        <time>2025-07-21T10:23:10Z</time>
      </trkpt>
      <trkpt lat="42.9228" lon="0.72123">
        <ele>799.4</ele>
        <time>2025-07-21T10:23:11Z</time>
      </trkpt>
      <trkpt lat="42.92284" lon="0.72111">
        <ele>798.8</ele>
        <time>2025-07-21T10:23:12Z</time>
      </trkpt>
      <trkpt lat="42.92285" lon="0.72099">
        <ele>797.4</ele>
        <time>2025-07-21T10:23:13Z</time>
      </trkpt>
      <trkpt lat="42.92284" lon="0.72089">
        <ele>795.8</ele>
        <time>2025-07-21T10:23:14Z</time>
      </trkpt>
      <trkpt lat="42.92283" lon="0.72075">
        <ele>795.2</ele>
        <time>2025-07-21T10:23:15Z</time>
      </trkpt>
      <trkpt lat="42.92281" lon="0.72059">
        <ele>794.2</ele>
        <time>2025-07-21T10:23:16Z</time>
      </trkpt>
      <trkpt lat="42.92278" lon="0.72034">
        <ele>792.6</ele>
        <time>2025-07-21T10:23:18Z</time>
      </trkpt>
      <trkpt lat="42.92276" lon="0.72011">
        <ele>790.4</ele>
        <time>2025-07-21T10:23:20Z</time>
      </trkpt>
      <trkpt lat="42.92272" lon="0.72002">
        <ele>788.6</ele>
        <time>2025-07-21T10:23:21Z</time>
      </trkpt>
      <trkpt lat="42.92266" lon="0.71995">
        <ele>788.2</ele>
        <time>2025-07-21T10:23:22Z</time>
      </trkpt>
      <trkpt lat="42.92261" lon="0.71992">
        <ele>786.4</ele>
        <time>2025-07-21T10:23:23Z</time>
      </trkpt>
      <trkpt lat="42.92253" lon="0.71992">
        <ele>785.6</ele>
        <time>2025-07-21T10:23:24Z</time>
      </trkpt>
      <trkpt lat="42.92244" lon="0.71997">
        <ele>784</ele>
        <time>2025-07-21T10:23:25Z</time>
      </trkpt>
      <trkpt lat="42.92237" lon="0.72005">
        <ele>782.6</ele>
        <time>2025-07-21T10:23:26Z</time>
      </trkpt>
      <trkpt lat="42.92229" lon="0.72022">
        <ele>780.8</ele>
        <time>2025-07-21T10:23:28Z</time>
      </trkpt>
      <trkpt lat="42.92226" lon="0.72033">
        <ele>780.4</ele>
        <time>2025-07-21T10:23:29Z</time>
      </trkpt>
      <trkpt lat="42.92226" lon="0.72045">
        <ele>779.2</ele>
        <time>2025-07-21T10:23:30Z</time>
      </trkpt>
      <trkpt lat="42.92224" lon="0.72071">
        <ele>778</ele>
        <time>2025-07-21T10:23:32Z</time>
      </trkpt>
      <trkpt lat="42.92222" lon="0.72081">
        <ele>777</ele>
        <time>2025-07-21T10:23:33Z</time>
      </trkpt>
      <trkpt lat="42.92219" lon="0.72093">
        <ele>776.6</ele>
        <time>2025-07-21T10:23:34Z</time>
      </trkpt>
      <trkpt lat="42.92212" lon="0.72106">
        <ele>776</ele>
        <time>2025-07-21T10:23:35Z</time>
      </trkpt>
      <trkpt lat="42.92205" lon="0.72115">
        <ele>775.8</ele>
        <time>2025-07-21T10:23:36Z</time>
      </trkpt>
      <trkpt lat="42.92197" lon="0.72124">
        <ele>775.2</ele>
        <time>2025-07-21T10:23:37Z</time>
      </trkpt>
      <trkpt lat="42.92188" lon="0.72134">
        <ele>774.6</ele>
        <time>2025-07-21T10:23:38Z</time>
      </trkpt>
      <trkpt lat="42.92178" lon="0.72141">
        <ele>773.4</ele>
        <time>2025-07-21T10:23:39Z</time>
      </trkpt>
      <trkpt lat="42.92169" lon="0.72148">
        <ele>772.2</ele>
        <time>2025-07-21T10:23:40Z</time>
      </trkpt>
      <trkpt lat="42.92151" lon="0.72162">
        <ele>770.8</ele>
        <time>2025-07-21T10:23:42Z</time>
      </trkpt>
      <trkpt lat="42.92141" lon="0.72168">
        <ele>770.2</ele>
        <time>2025-07-21T10:23:43Z</time>
      </trkpt>
      <trkpt lat="42.9213" lon="0.72172">
        <ele>768.6</ele>
        <time>2025-07-21T10:23:44Z</time>
      </trkpt>
      <trkpt lat="42.9212" lon="0.72176">
        <ele>767.8</ele>
        <time>2025-07-21T10:23:45Z</time>
      </trkpt>
      <trkpt lat="42.92109" lon="0.7218">
        <ele>767.4</ele>
        <time>2025-07-21T10:23:46Z</time>
      </trkpt>
      <trkpt lat="42.92099" lon="0.72183">
        <ele>766</ele>
        <time>2025-07-21T10:23:47Z</time>
      </trkpt>
      <trkpt lat="42.92081" lon="0.72188">
        <ele>763.4</ele>
        <time>2025-07-21T10:23:49Z</time>
      </trkpt>
      <trkpt lat="42.92072" lon="0.72189">
        <ele>762.8</ele>
        <time>2025-07-21T10:23:50Z</time>
      </trkpt>
      <trkpt lat="42.92063" lon="0.72191">
        <ele>761.2</ele>
        <time>2025-07-21T10:23:51Z</time>
      </trkpt>
      <trkpt lat="42.92055" lon="0.72192">
        <ele>760.2</ele>
        <time>2025-07-21T10:23:52Z</time>
      </trkpt>
      <trkpt lat="42.92044" lon="0.72192">
        <ele>757.4</ele>
        <time>2025-07-21T10:23:54Z</time>
      </trkpt>
      <trkpt lat="42.92036" lon="0.72189">
        <ele>756.8</ele>
        <time>2025-07-21T10:23:55Z</time>
      </trkpt>
      <trkpt lat="42.92031" lon="0.72185">
        <ele>755.8</ele>
        <time>2025-07-21T10:23:56Z</time>
      </trkpt>
      <trkpt lat="42.92027" lon="0.72178">
        <ele>754.6</ele>
        <time>2025-07-21T10:23:57Z</time>
      </trkpt>
      <trkpt lat="42.9203" lon="0.72163">
        <ele>753</ele>
        <time>2025-07-21T10:23:59Z</time>
      </trkpt>
      <trkpt lat="42.92043" lon="0.72145">
        <ele>751.6</ele>
        <time>2025-07-21T10:24:01Z</time>
      </trkpt>
      <trkpt lat="42.92049" lon="0.72137">
        <ele>751.2</ele>
        <time>2025-07-21T10:24:02Z</time>
      </trkpt>
      <trkpt lat="42.92056" lon="0.7213">
        <ele>750.2</ele>
        <time>2025-07-21T10:24:03Z</time>
      </trkpt>
      <trkpt lat="42.92068" lon="0.72114">
        <ele>749.2</ele>
        <time>2025-07-21T10:24:05Z</time>
      </trkpt>
      <trkpt lat="42.92074" lon="0.72105">
        <ele>748.4</ele>
        <time>2025-07-21T10:24:06Z</time>
      </trkpt>
      <trkpt lat="42.92079" lon="0.72094">
        <ele>747.8</ele>
        <time>2025-07-21T10:24:07Z</time>
      </trkpt>
      <trkpt lat="42.92081" lon="0.72085">
        <ele>747</ele>
        <time>2025-07-21T10:24:08Z</time>
      </trkpt>
      <trkpt lat="42.92084" lon="0.7207">
        <ele>746.8</ele>
        <time>2025-07-21T10:24:09Z</time>
      </trkpt>
      <trkpt lat="42.92085" lon="0.72058">
        <ele>745.6</ele>
        <time>2025-07-21T10:24:10Z</time>
      </trkpt>
      <trkpt lat="42.92086" lon="0.72045">
        <ele>744.6</ele>
        <time>2025-07-21T10:24:11Z</time>
      </trkpt>
      <trkpt lat="42.92086" lon="0.72033">
        <ele>744</ele>
        <time>2025-07-21T10:24:12Z</time>
      </trkpt>
      <trkpt lat="42.92081" lon="0.72009">
        <ele>742.6</ele>
        <time>2025-07-21T10:24:14Z</time>
      </trkpt>
      <trkpt lat="42.92078" lon="0.71998">
        <ele>741.6</ele>
        <time>2025-07-21T10:24:15Z</time>
      </trkpt>
      <trkpt lat="42.92074" lon="0.71988">
        <ele>740.2</ele>
        <time>2025-07-21T10:24:16Z</time>
      </trkpt>
      <trkpt lat="42.92065" lon="0.71967">
        <ele>738.6</ele>
        <time>2025-07-21T10:24:18Z</time>
      </trkpt>
      <trkpt lat="42.92054" lon="0.71946">
        <ele>737</ele>
        <time>2025-07-21T10:24:20Z</time>
      </trkpt>
      <trkpt lat="42.92045" lon="0.71928">
        <ele>735.2</ele>
        <time>2025-07-21T10:24:22Z</time>
      </trkpt>
      <trkpt lat="42.92041" lon="0.7192">
        <ele>733.8</ele>
        <time>2025-07-21T10:24:23Z</time>
      </trkpt>
      <trkpt lat="42.92033" lon="0.71902">
        <ele>732.2</ele>
        <time>2025-07-21T10:24:25Z</time>
      </trkpt>
      <trkpt lat="42.92024" lon="0.71885">
        <ele>730.4</ele>
        <time>2025-07-21T10:24:27Z</time>
      </trkpt>
      <trkpt lat="42.92019" lon="0.71877">
        <ele>729</ele>
        <time>2025-07-21T10:24:28Z</time>
      </trkpt>
      <trkpt lat="42.92015" lon="0.7187">
        <ele>728.4</ele>
        <time>2025-07-21T10:24:29Z</time>
      </trkpt>
      <trkpt lat="42.92011" lon="0.71863">
        <ele>727.6</ele>
        <time>2025-07-21T10:24:30Z</time>
      </trkpt>
      <trkpt lat="42.92002" lon="0.71851">
        <ele>726.2</ele>
        <time>2025-07-21T10:24:32Z</time>
      </trkpt>
      <trkpt lat="42.91997" lon="0.71846">
        <ele>725.8</ele>
        <time>2025-07-21T10:24:33Z</time>
      </trkpt>
      <trkpt lat="42.91991" lon="0.71841">
        <ele>724.4</ele>
        <time>2025-07-21T10:24:34Z</time>
      </trkpt>
      <trkpt lat="42.91986" lon="0.71836">
        <ele>723.4</ele>
        <time>2025-07-21T10:24:35Z</time>
      </trkpt>
      <trkpt lat="42.9198" lon="0.71832">
        <ele>722.2</ele>
        <time>2025-07-21T10:24:36Z</time>
      </trkpt>
      <trkpt lat="42.91974" lon="0.71828">
        <ele>721</ele>
        <time>2025-07-21T10:24:37Z</time>
      </trkpt>
      <trkpt lat="42.91961" lon="0.71821">
        <ele>719.2</ele>
        <time>2025-07-21T10:24:39Z</time>
      </trkpt>
      <trkpt lat="42.91954" lon="0.71817">
        <ele>718.2</ele>
        <time>2025-07-21T10:24:40Z</time>
      </trkpt>
      <trkpt lat="42.91948" lon="0.71813">
        <ele>717.8</ele>
        <time>2025-07-21T10:24:41Z</time>
      </trkpt>
      <trkpt lat="42.91941" lon="0.7181">
        <ele>717</ele>
        <time>2025-07-21T10:24:42Z</time>
      </trkpt>
      <trkpt lat="42.91934" lon="0.71806">
        <ele>716.4</ele>
        <time>2025-07-21T10:24:43Z</time>
      </trkpt>
      <trkpt lat="42.91928" lon="0.71803">
        <ele>715.2</ele>
        <time>2025-07-21T10:24:44Z</time>
      </trkpt>
      <trkpt lat="42.91921" lon="0.718">
        <ele>714.8</ele>
        <time>2025-07-21T10:24:45Z</time>
      </trkpt>
      <trkpt lat="42.91913" lon="0.71797">
        <ele>714.2</ele>
        <time>2025-07-21T10:24:46Z</time>
      </trkpt>
      <trkpt lat="42.91906" lon="0.71796">
        <ele>713.2</ele>
        <time>2025-07-21T10:24:47Z</time>
      </trkpt>
      <trkpt lat="42.91893" lon="0.71793">
        <ele>711.4</ele>
        <time>2025-07-21T10:24:49Z</time>
      </trkpt>
      <trkpt lat="42.9188" lon="0.7179">
        <ele>710.4</ele>
        <time>2025-07-21T10:24:51Z</time>
      </trkpt>
      <trkpt lat="42.91874" lon="0.71789">
        <ele>710</ele>
        <time>2025-07-21T10:24:52Z</time>
      </trkpt>
      <trkpt lat="42.91868" lon="0.71789">
        <ele>709.2</ele>
        <time>2025-07-21T10:24:53Z</time>
      </trkpt>
      <trkpt lat="42.91861" lon="0.71791">
        <ele>708</ele>
        <time>2025-07-21T10:24:54Z</time>
      </trkpt>
      <trkpt lat="42.91855" lon="0.71793">
        <ele>707.4</ele>
        <time>2025-07-21T10:24:55Z</time>
      </trkpt>
      <trkpt lat="42.91849" lon="0.71796">
        <ele>706.8</ele>
        <time>2025-07-21T10:24:56Z</time>
      </trkpt>
      <trkpt lat="42.91832" lon="0.71804">
        <ele>705.4</ele>
        <time>2025-07-21T10:24:59Z</time>
      </trkpt>
      <trkpt lat="42.91827" lon="0.71806">
        <ele>705.2</ele>
        <time>2025-07-21T10:25:00Z</time>
      </trkpt>
      <trkpt lat="42.91816" lon="0.71807">
        <ele>704.8</ele>
        <time>2025-07-21T10:25:02Z</time>
      </trkpt>
      <trkpt lat="42.91811" lon="0.71807">
        <ele>704.2</ele>
        <time>2025-07-21T10:25:03Z</time>
      </trkpt>
      <trkpt lat="42.91799" lon="0.71804">
        <ele>704</ele>
        <time>2025-07-21T10:25:05Z</time>
      </trkpt>
      <trkpt lat="42.91772" lon="0.71798">
        <ele>703.4</ele>
        <time>2025-07-21T10:25:09Z</time>
      </trkpt>
      <trkpt lat="42.91765" lon="0.71796">
        <ele>703.2</ele>
        <time>2025-07-21T10:25:10Z</time>
      </trkpt>
      <trkpt lat="42.91757" lon="0.71794">
        <ele>703</ele>
        <time>2025-07-21T10:25:11Z</time>
      </trkpt>
      <trkpt lat="42.91744" lon="0.71787">
        <ele>702</ele>
        <time>2025-07-21T10:25:13Z</time>
      </trkpt>
      <trkpt lat="42.91733" lon="0.71779">
        <ele>701</ele>
        <time>2025-07-21T10:25:15Z</time>
      </trkpt>
      <trkpt lat="42.91727" lon="0.71773">
        <ele>700.8</ele>
        <time>2025-07-21T10:25:16Z</time>
      </trkpt>
      <trkpt lat="42.91722" lon="0.71766">
        <ele>700.2</ele>
        <time>2025-07-21T10:25:17Z</time>
      </trkpt>
      <trkpt lat="42.91718" lon="0.71758">
        <ele>699.4</ele>
        <time>2025-07-21T10:25:18Z</time>
      </trkpt>
      <trkpt lat="42.91714" lon="0.7175">
        <ele>699.2</ele>
        <time>2025-07-21T10:25:19Z</time>
      </trkpt>
      <trkpt lat="42.9171" lon="0.7174">
        <ele>698.4</ele>
        <time>2025-07-21T10:25:20Z</time>
      </trkpt>
      <trkpt lat="42.91702" lon="0.71722">
        <ele>697.2</ele>
        <time>2025-07-21T10:25:22Z</time>
      </trkpt>
      <trkpt lat="42.91694" lon="0.71703">
        <ele>696</ele>
        <time>2025-07-21T10:25:24Z</time>
      </trkpt>
      <trkpt lat="42.9169" lon="0.71693">
        <ele>694.4</ele>
        <time>2025-07-21T10:25:25Z</time>
      </trkpt>
      <trkpt lat="42.91683" lon="0.71673">
        <ele>692.8</ele>
        <time>2025-07-21T10:25:27Z</time>
      </trkpt>
      <trkpt lat="42.91676" lon="0.71653">
        <ele>691.2</ele>
        <time>2025-07-21T10:25:29Z</time>
      </trkpt>
      <trkpt lat="42.91665" lon="0.71625">
        <ele>689.8</ele>
        <time>2025-07-21T10:25:32Z</time>
      </trkpt>
      <trkpt lat="42.91656" lon="0.71605">
        <ele>688.8</ele>
        <time>2025-07-21T10:25:34Z</time>
      </trkpt>
      <trkpt lat="42.91652" lon="0.71595">
        <ele>688.4</ele>
        <time>2025-07-21T10:25:35Z</time>
      </trkpt>
      <trkpt lat="42.91648" lon="0.71585">
        <ele>687.8</ele>
        <time>2025-07-21T10:25:36Z</time>
      </trkpt>
      <trkpt lat="42.91636" lon="0.71552">
        <ele>686.2</ele>
        <time>2025-07-21T10:25:39Z</time>
      </trkpt>
      <trkpt lat="42.91634" lon="0.71541">
        <ele>686</ele>
        <time>2025-07-21T10:25:40Z</time>
      </trkpt>
      <trkpt lat="42.91631" lon="0.71529">
        <ele>685.4</ele>
        <time>2025-07-21T10:25:41Z</time>
      </trkpt>
      <trkpt lat="42.91629" lon="0.71517">
        <ele>685.2</ele>
        <time>2025-07-21T10:25:42Z</time>
      </trkpt>
      <trkpt lat="42.91625" lon="0.71493">
        <ele>683.6</ele>
        <time>2025-07-21T10:25:44Z</time>
      </trkpt>
      <trkpt lat="42.91619" lon="0.71471">
        <ele>682.4</ele>
        <time>2025-07-21T10:25:46Z</time>
      </trkpt>
      <trkpt lat="42.91615" lon="0.7146">
        <ele>681.6</ele>
        <time>2025-07-21T10:25:47Z</time>
      </trkpt>
      <trkpt lat="42.91609" lon="0.71451">
        <ele>680</ele>
        <time>2025-07-21T10:25:48Z</time>
      </trkpt>
      <trkpt lat="42.91594" lon="0.71435">
        <ele>678.6</ele>
        <time>2025-07-21T10:25:50Z</time>
      </trkpt>
      <trkpt lat="42.91569" lon="0.71413">
        <ele>677.2</ele>
        <time>2025-07-21T10:25:53Z</time>
      </trkpt>
      <trkpt lat="42.91552" lon="0.71397">
        <ele>675.4</ele>
        <time>2025-07-21T10:25:55Z</time>
      </trkpt>
      <trkpt lat="42.91543" lon="0.7139">
        <ele>674.4</ele>
        <time>2025-07-21T10:25:56Z</time>
      </trkpt>
      <trkpt lat="42.91524" lon="0.71379">
        <ele>672.8</ele>
        <time>2025-07-21T10:25:58Z</time>
      </trkpt>
      <trkpt lat="42.91514" lon="0.71374">
        <ele>672</ele>
        <time>2025-07-21T10:25:59Z</time>
      </trkpt>
      <trkpt lat="42.91503" lon="0.71369">
        <ele>670.8</ele>
        <time>2025-07-21T10:26:00Z</time>
      </trkpt>
      <trkpt lat="42.91483" lon="0.7136">
        <ele>669.2</ele>
        <time>2025-07-21T10:26:02Z</time>
      </trkpt>
      <trkpt lat="42.91473" lon="0.71355">
        <ele>668</ele>
        <time>2025-07-21T10:26:03Z</time>
      </trkpt>
      <trkpt lat="42.91453" lon="0.71343">
        <ele>666.4</ele>
        <time>2025-07-21T10:26:05Z</time>
      </trkpt>
      <trkpt lat="42.91434" lon="0.71332">
        <ele>663.8</ele>
        <time>2025-07-21T10:26:07Z</time>
      </trkpt>
      <trkpt lat="42.91424" lon="0.71325">
        <ele>662.6</ele>
        <time>2025-07-21T10:26:08Z</time>
      </trkpt>
      <trkpt lat="42.91409" lon="0.71311">
        <ele>660.2</ele>
        <time>2025-07-21T10:26:10Z</time>
      </trkpt>
      <trkpt lat="42.91402" lon="0.71303">
        <ele>659.6</ele>
        <time>2025-07-21T10:26:11Z</time>
      </trkpt>
      <trkpt lat="42.91396" lon="0.71293">
        <ele>658.4</ele>
        <time>2025-07-21T10:26:12Z</time>
      </trkpt>
      <trkpt lat="42.91385" lon="0.71272">
        <ele>656.8</ele>
        <time>2025-07-21T10:26:14Z</time>
      </trkpt>
      <trkpt lat="42.91378" lon="0.71258">
        <ele>655.8</ele>
        <time>2025-07-21T10:26:15Z</time>
      </trkpt>
      <trkpt lat="42.91368" lon="0.7124">
        <ele>653.8</ele>
        <time>2025-07-21T10:26:17Z</time>
      </trkpt>
      <trkpt lat="42.91355" lon="0.7122">
        <ele>651.8</ele>
        <time>2025-07-21T10:26:19Z</time>
      </trkpt>
      <trkpt lat="42.91348" lon="0.71212">
        <ele>651.4</ele>
        <time>2025-07-21T10:26:20Z</time>
      </trkpt>
      <trkpt lat="42.9134" lon="0.71203">
        <ele>650</ele>
        <time>2025-07-21T10:26:21Z</time>
      </trkpt>
      <trkpt lat="42.91333" lon="0.71194">
        <ele>648.8</ele>
        <time>2025-07-21T10:26:22Z</time>
      </trkpt>
      <trkpt lat="42.91319" lon="0.71178">
        <ele>647</ele>
        <time>2025-07-21T10:26:24Z</time>
      </trkpt>
      <trkpt lat="42.91304" lon="0.71162">
        <ele>645.2</ele>
        <time>2025-07-21T10:26:26Z</time>
      </trkpt>
      <trkpt lat="42.91291" lon="0.71146">
        <ele>643.6</ele>
        <time>2025-07-21T10:26:28Z</time>
      </trkpt>
      <trkpt lat="42.91284" lon="0.71138">
        <ele>642.6</ele>
        <time>2025-07-21T10:26:29Z</time>
      </trkpt>
      <trkpt lat="42.91278" lon="0.7113">
        <ele>642.6</ele>
        <time>2025-07-21T10:26:30Z</time>
      </trkpt>
      <trkpt lat="42.91273" lon="0.71122">
        <ele>642.4</ele>
        <time>2025-07-21T10:26:31Z</time>
      </trkpt>
      <trkpt lat="42.91265" lon="0.71101">
        <ele>641.4</ele>
        <time>2025-07-21T10:26:33Z</time>
      </trkpt>
      <trkpt lat="42.91262" lon="0.71089">
        <ele>640.2</ele>
        <time>2025-07-21T10:26:34Z</time>
      </trkpt>
      <trkpt lat="42.91261" lon="0.71077">
        <ele>639.6</ele>
        <time>2025-07-21T10:26:35Z</time>
      </trkpt>
      <trkpt lat="42.91259" lon="0.71065">
        <ele>638</ele>
        <time>2025-07-21T10:26:36Z</time>
      </trkpt>
      <trkpt lat="42.91256" lon="0.7104">
        <ele>636</ele>
        <time>2025-07-21T10:26:38Z</time>
      </trkpt>
      <trkpt lat="42.91252" lon="0.71015">
        <ele>634</ele>
        <time>2025-07-21T10:26:40Z</time>
      </trkpt>
      <trkpt lat="42.91251" lon="0.71003">
        <ele>632.6</ele>
        <time>2025-07-21T10:26:41Z</time>
      </trkpt>
      <trkpt lat="42.91247" lon="0.70977">
        <ele>630.4</ele>
        <time>2025-07-21T10:26:43Z</time>
      </trkpt>
      <trkpt lat="42.91246" lon="0.70965">
        <ele>629.8</ele>
        <time>2025-07-21T10:26:44Z</time>
      </trkpt>
      <trkpt lat="42.91247" lon="0.70952">
        <ele>628</ele>
        <time>2025-07-21T10:26:45Z</time>
      </trkpt>
      <trkpt lat="42.91252" lon="0.70927">
        <ele>626.6</ele>
        <time>2025-07-21T10:26:47Z</time>
      </trkpt>
      <trkpt lat="42.91254" lon="0.70915">
        <ele>625.6</ele>
        <time>2025-07-21T10:26:48Z</time>
      </trkpt>
      <trkpt lat="42.91259" lon="0.70894">
        <ele>624</ele>
        <time>2025-07-21T10:26:50Z</time>
      </trkpt>
      <trkpt lat="42.91264" lon="0.70876">
        <ele>622.2</ele>
        <time>2025-07-21T10:26:52Z</time>
      </trkpt>
      <trkpt lat="42.91266" lon="0.70868">
        <ele>621.6</ele>
        <time>2025-07-21T10:26:53Z</time>
      </trkpt>
      <trkpt lat="42.91266" lon="0.70859">
        <ele>619.6</ele>
        <time>2025-07-21T10:26:54Z</time>
      </trkpt>
      <trkpt lat="42.91263" lon="0.70851">
        <ele>618</ele>
        <time>2025-07-21T10:26:55Z</time>
      </trkpt>
      <trkpt lat="42.91254" lon="0.70839">
        <ele>616.4</ele>
        <time>2025-07-21T10:26:57Z</time>
      </trkpt>
      <trkpt lat="42.91246" lon="0.70833">
        <ele>615.8</ele>
        <time>2025-07-21T10:26:58Z</time>
      </trkpt>
      <trkpt lat="42.91238" lon="0.70829">
        <ele>614.6</ele>
        <time>2025-07-21T10:26:59Z</time>
      </trkpt>
      <trkpt lat="42.91221" lon="0.70821">
        <ele>613.6</ele>
        <time>2025-07-21T10:27:01Z</time>
      </trkpt>
      <trkpt lat="42.91213" lon="0.70815">
        <ele>613.2</ele>
        <time>2025-07-21T10:27:02Z</time>
      </trkpt>
      <trkpt lat="42.91201" lon="0.70798">
        <ele>611</ele>
        <time>2025-07-21T10:27:04Z</time>
      </trkpt>
      <trkpt lat="42.91192" lon="0.70775">
        <ele>609.6</ele>
        <time>2025-07-21T10:27:06Z</time>
      </trkpt>
      <trkpt lat="42.91189" lon="0.70762">
        <ele>608.4</ele>
        <time>2025-07-21T10:27:07Z</time>
      </trkpt>
      <trkpt lat="42.91184" lon="0.70738">
        <ele>606.6</ele>
        <time>2025-07-21T10:27:09Z</time>
      </trkpt>
      <trkpt lat="42.91178" lon="0.70713">
        <ele>604.6</ele>
        <time>2025-07-21T10:27:11Z</time>
      </trkpt>
      <trkpt lat="42.91175" lon="0.70702">
        <ele>604.2</ele>
        <time>2025-07-21T10:27:12Z</time>
      </trkpt>
      <trkpt lat="42.91171" lon="0.7069">
        <ele>602.4</ele>
        <time>2025-07-21T10:27:13Z</time>
      </trkpt>
      <trkpt lat="42.91166" lon="0.7068">
        <ele>601</ele>
        <time>2025-07-21T10:27:14Z</time>
      </trkpt>
      <trkpt lat="42.91155" lon="0.70659">
        <ele>599</ele>
        <time>2025-07-21T10:27:16Z</time>
      </trkpt>
      <trkpt lat="42.91144" lon="0.70636">
        <ele>596.6</ele>
        <time>2025-07-21T10:27:18Z</time>
      </trkpt>
      <trkpt lat="42.91134" lon="0.70614">
        <ele>594.8</ele>
        <time>2025-07-21T10:27:20Z</time>
      </trkpt>
      <trkpt lat="42.91129" lon="0.70603">
        <ele>593.4</ele>
        <time>2025-07-21T10:27:21Z</time>
      </trkpt>
      <trkpt lat="42.91126" lon="0.70591">
        <ele>592.6</ele>
        <time>2025-07-21T10:27:22Z</time>
      </trkpt>
      <trkpt lat="42.91123" lon="0.7058">
        <ele>591.6</ele>
        <time>2025-07-21T10:27:23Z</time>
      </trkpt>
      <trkpt lat="42.91118" lon="0.70556">
        <ele>589.2</ele>
        <time>2025-07-21T10:27:25Z</time>
      </trkpt>
      <trkpt lat="42.91116" lon="0.70543">
        <ele>587.4</ele>
        <time>2025-07-21T10:27:26Z</time>
      </trkpt>
      <trkpt lat="42.91114" lon="0.70531">
        <ele>586.8</ele>
        <time>2025-07-21T10:27:27Z</time>
      </trkpt>
      <trkpt lat="42.91113" lon="0.70518">
        <ele>585.6</ele>
        <time>2025-07-21T10:27:28Z</time>
      </trkpt>
      <trkpt lat="42.9111" lon="0.70493">
        <ele>583.8</ele>
        <time>2025-07-21T10:27:30Z</time>
      </trkpt>
      <trkpt lat="42.91107" lon="0.70467">
        <ele>581.8</ele>
        <time>2025-07-21T10:27:32Z</time>
      </trkpt>
      <trkpt lat="42.91105" lon="0.70454">
        <ele>580.4</ele>
        <time>2025-07-21T10:27:33Z</time>
      </trkpt>
      <trkpt lat="42.91104" lon="0.70441">
        <ele>579.8</ele>
        <time>2025-07-21T10:27:34Z</time>
      </trkpt>
      <trkpt lat="42.91103" lon="0.70428">
        <ele>579.4</ele>
        <time>2025-07-21T10:27:35Z</time>
      </trkpt>
      <trkpt lat="42.911" lon="0.70404">
        <ele>576.8</ele>
        <time>2025-07-21T10:27:37Z</time>
      </trkpt>
      <trkpt lat="42.91099" lon="0.70382">
        <ele>574.8</ele>
        <time>2025-07-21T10:27:39Z</time>
      </trkpt>
      <trkpt lat="42.91097" lon="0.70372">
        <ele>574.2</ele>
        <time>2025-07-21T10:27:40Z</time>
      </trkpt>
      <trkpt lat="42.91091" lon="0.70354">
        <ele>572.4</ele>
        <time>2025-07-21T10:27:42Z</time>
      </trkpt>
      <trkpt lat="42.91087" lon="0.70345">
        <ele>571.4</ele>
        <time>2025-07-21T10:27:43Z</time>
      </trkpt>
      <trkpt lat="42.91081" lon="0.70337">
        <ele>570.2</ele>
        <time>2025-07-21T10:27:44Z</time>
      </trkpt>
      <trkpt lat="42.91071" lon="0.70318">
        <ele>568.2</ele>
        <time>2025-07-21T10:27:46Z</time>
      </trkpt>
      <trkpt lat="42.91067" lon="0.70307">
        <ele>567</ele>
        <time>2025-07-21T10:27:47Z</time>
      </trkpt>
      <trkpt lat="42.91064" lon="0.70296">
        <ele>566.6</ele>
        <time>2025-07-21T10:27:48Z</time>
      </trkpt>
      <trkpt lat="42.91062" lon="0.70284">
        <ele>565.8</ele>
        <time>2025-07-21T10:27:49Z</time>
      </trkpt>
      <trkpt lat="42.91058" lon="0.7026">
        <ele>564</ele>
        <time>2025-07-21T10:27:51Z</time>
      </trkpt>
      <trkpt lat="42.91056" lon="0.70248">
        <ele>562.8</ele>
        <time>2025-07-21T10:27:52Z</time>
      </trkpt>
      <trkpt lat="42.91053" lon="0.70236">
        <ele>562.2</ele>
        <time>2025-07-21T10:27:53Z</time>
      </trkpt>
      <trkpt lat="42.9105" lon="0.70224">
        <ele>561</ele>
        <time>2025-07-21T10:27:54Z</time>
      </trkpt>
      <trkpt lat="42.91044" lon="0.70202">
        <ele>559</ele>
        <time>2025-07-21T10:27:56Z</time>
      </trkpt>
      <trkpt lat="42.91043" lon="0.70191">
        <ele>558.4</ele>
        <time>2025-07-21T10:27:57Z</time>
      </trkpt>
      <trkpt lat="42.91042" lon="0.70179">
        <ele>557.2</ele>
        <time>2025-07-21T10:27:58Z</time>
      </trkpt>
      <trkpt lat="42.91042" lon="0.70167">
        <ele>556</ele>
        <time>2025-07-21T10:27:59Z</time>
      </trkpt>
      <trkpt lat="42.91043" lon="0.70145">
        <ele>554.6</ele>
        <time>2025-07-21T10:28:01Z</time>
      </trkpt>
      <trkpt lat="42.91051" lon="0.70124">
        <ele>552.4</ele>
        <time>2025-07-21T10:28:03Z</time>
      </trkpt>
      <trkpt lat="42.91056" lon="0.70114">
        <ele>551.8</ele>
        <time>2025-07-21T10:28:04Z</time>
      </trkpt>
      <trkpt lat="42.91061" lon="0.70106">
        <ele>550</ele>
        <time>2025-07-21T10:28:05Z</time>
      </trkpt>
      <trkpt lat="42.91065" lon="0.70096">
        <ele>548.8</ele>
        <time>2025-07-21T10:28:06Z</time>
      </trkpt>
      <trkpt lat="42.91074" lon="0.70072">
        <ele>547.2</ele>
        <time>2025-07-21T10:28:08Z</time>
      </trkpt>
      <trkpt lat="42.91078" lon="0.70061">
        <ele>546.8</ele>
        <time>2025-07-21T10:28:09Z</time>
      </trkpt>
      <trkpt lat="42.91082" lon="0.7005">
        <ele>546.2</ele>
        <time>2025-07-21T10:28:10Z</time>
      </trkpt>
      <trkpt lat="42.91089" lon="0.70027">
        <ele>544.6</ele>
        <time>2025-07-21T10:28:12Z</time>
      </trkpt>
      <trkpt lat="42.91091" lon="0.70015">
        <ele>542.8</ele>
        <time>2025-07-21T10:28:13Z</time>
      </trkpt>
      <trkpt lat="42.91093" lon="0.70004">
        <ele>542.2</ele>
        <time>2025-07-21T10:28:14Z</time>
      </trkpt>
      <trkpt lat="42.91094" lon="0.69992">
        <ele>541.6</ele>
        <time>2025-07-21T10:28:15Z</time>
      </trkpt>
      <trkpt lat="42.91093" lon="0.6998">
        <ele>541.4</ele>
        <time>2025-07-21T10:28:16Z</time>
      </trkpt>
      <trkpt lat="42.91092" lon="0.69969">
        <ele>540</ele>
        <time>2025-07-21T10:28:17Z</time>
      </trkpt>
      <trkpt lat="42.91092" lon="0.69947">
        <ele>538.2</ele>
        <time>2025-07-21T10:28:19Z</time>
      </trkpt>
      <trkpt lat="42.91096" lon="0.69928">
        <ele>537</ele>
        <time>2025-07-21T10:28:21Z</time>
      </trkpt>
      <trkpt lat="42.91099" lon="0.69918">
        <ele>535.8</ele>
        <time>2025-07-21T10:28:22Z</time>
      </trkpt>
      <trkpt lat="42.91106" lon="0.69898">
        <ele>534.2</ele>
        <time>2025-07-21T10:28:24Z</time>
      </trkpt>
      <trkpt lat="42.91108" lon="0.69888">
        <ele>533.6</ele>
        <time>2025-07-21T10:28:25Z</time>
      </trkpt>
      <trkpt lat="42.9111" lon="0.69879">
        <ele>533</ele>
        <time>2025-07-21T10:28:26Z</time>
      </trkpt>
      <trkpt lat="42.91112" lon="0.69869">
        <ele>531.2</ele>
        <time>2025-07-21T10:28:27Z</time>
      </trkpt>
      <trkpt lat="42.91113" lon="0.69849">
        <ele>529.6</ele>
        <time>2025-07-21T10:28:29Z</time>
      </trkpt>
      <trkpt lat="42.91115" lon="0.69827">
        <ele>528.2</ele>
        <time>2025-07-21T10:28:31Z</time>
      </trkpt>
      <trkpt lat="42.91117" lon="0.69816">
        <ele>527.2</ele>
        <time>2025-07-21T10:28:32Z</time>
      </trkpt>
      <trkpt lat="42.91121" lon="0.69805">
        <ele>526.8</ele>
        <time>2025-07-21T10:28:33Z</time>
      </trkpt>
      <trkpt lat="42.91128" lon="0.69786">
        <ele>525.8</ele>
        <time>2025-07-21T10:28:35Z</time>
      </trkpt>
      <trkpt lat="42.91133" lon="0.69776">
        <ele>524.6</ele>
        <time>2025-07-21T10:28:36Z</time>
      </trkpt>
      <trkpt lat="42.91142" lon="0.69753">
        <ele>522.6</ele>
        <time>2025-07-21T10:28:38Z</time>
      </trkpt>
      <trkpt lat="42.91149" lon="0.69732">
        <ele>521.4</ele>
        <time>2025-07-21T10:28:40Z</time>
      </trkpt>
      <trkpt lat="42.91152" lon="0.69721">
        <ele>519.8</ele>
        <time>2025-07-21T10:28:41Z</time>
      </trkpt>
      <trkpt lat="42.91155" lon="0.6971">
        <ele>519.2</ele>
        <time>2025-07-21T10:28:42Z</time>
      </trkpt>
      <trkpt lat="42.91156" lon="0.69698">
        <ele>518.2</ele>
        <time>2025-07-21T10:28:43Z</time>
      </trkpt>
      <trkpt lat="42.91155" lon="0.69684">
        <ele>517.2</ele>
        <time>2025-07-21T10:28:44Z</time>
      </trkpt>
      <trkpt lat="42.91154" lon="0.69675">
        <ele>516</ele>
        <time>2025-07-21T10:28:45Z</time>
      </trkpt>
      <trkpt lat="42.91152" lon="0.69664">
        <ele>515</ele>
        <time>2025-07-21T10:28:46Z</time>
      </trkpt>
      <trkpt lat="42.91146" lon="0.69643">
        <ele>513.2</ele>
        <time>2025-07-21T10:28:48Z</time>
      </trkpt>
      <trkpt lat="42.91144" lon="0.69634">
        <ele>512.4</ele>
        <time>2025-07-21T10:28:49Z</time>
      </trkpt>
      <trkpt lat="42.91142" lon="0.69624">
        <ele>511.6</ele>
        <time>2025-07-21T10:28:50Z</time>
      </trkpt>
      <trkpt lat="42.91137" lon="0.69605">
        <ele>510.2</ele>
        <time>2025-07-21T10:28:52Z</time>
      </trkpt>
      <trkpt lat="42.91136" lon="0.69596">
        <ele>508.6</ele>
        <time>2025-07-21T10:28:53Z</time>
      </trkpt>
      <trkpt lat="42.91135" lon="0.69586">
        <ele>508</ele>
        <time>2025-07-21T10:28:54Z</time>
      </trkpt>
      <trkpt lat="42.91136" lon="0.69577">
        <ele>506.4</ele>
        <time>2025-07-21T10:28:55Z</time>
      </trkpt>
      <trkpt lat="42.91139" lon="0.69561">
        <ele>504.2</ele>
        <time>2025-07-21T10:28:57Z</time>
      </trkpt>
      <trkpt lat="42.91144" lon="0.69543">
        <ele>503</ele>
        <time>2025-07-21T10:28:59Z</time>
      </trkpt>
      <trkpt lat="42.91149" lon="0.69526">
        <ele>501.6</ele>
        <time>2025-07-21T10:29:01Z</time>
      </trkpt>
      <trkpt lat="42.91152" lon="0.69517">
        <ele>500.6</ele>
        <time>2025-07-21T10:29:02Z</time>
      </trkpt>
      <trkpt lat="42.91155" lon="0.69508">
        <ele>500.4</ele>
        <time>2025-07-21T10:29:03Z</time>
      </trkpt>
      <trkpt lat="42.9116" lon="0.69489">
        <ele>499.4</ele>
        <time>2025-07-21T10:29:05Z</time>
      </trkpt>
      <trkpt lat="42.91165" lon="0.69471">
        <ele>498.2</ele>
        <time>2025-07-21T10:29:07Z</time>
      </trkpt>
      <trkpt lat="42.91174" lon="0.69445">
        <ele>497</ele>
        <time>2025-07-21T10:29:10Z</time>
      </trkpt>
      <trkpt lat="42.91186" lon="0.69406">
        <ele>496</ele>
        <time>2025-07-21T10:29:15Z</time>
      </trkpt>
      <trkpt lat="42.91188" lon="0.69399">
        <ele>495.8</ele>
        <time>2025-07-21T10:29:16Z</time>
      </trkpt>
      <trkpt lat="42.91204" lon="0.69349">
        <ele>495.6</ele>
        <time>2025-07-21T10:29:23Z</time>
      </trkpt>
      <trkpt lat="42.9121" lon="0.6933">
        <ele>495.2</ele>
        <time>2025-07-21T10:29:26Z</time>
      </trkpt>
      <trkpt lat="42.91221" lon="0.69298">
        <ele>495</ele>
        <time>2025-07-21T10:29:31Z</time>
      </trkpt>
      <trkpt lat="42.91236" lon="0.69249">
        <ele>494.6</ele>
        <time>2025-07-21T10:29:39Z</time>
      </trkpt>
      <trkpt lat="42.91246" lon="0.69221">
        <ele>494.6</ele>
        <time>2025-07-21T10:29:45Z</time>
      </trkpt>
      <trkpt lat="42.91253" lon="0.69199">
        <ele>496</ele>
        <time>2025-07-21T10:29:50Z</time>
      </trkpt>
      <trkpt lat="42.91259" lon="0.69199">
        <ele>496.2</ele>
        <time>2025-07-21T10:29:52Z</time>
      </trkpt>
      <trkpt lat="42.91262" lon="0.69202">
        <ele>496.2</ele>
        <time>2025-07-21T10:29:53Z</time>
      </trkpt>
      <trkpt lat="42.91295" lon="0.69233">
        <ele>495.6</ele>
        <time>2025-07-21T10:30:02Z</time>
      </trkpt>
      <trkpt lat="42.91313" lon="0.69252">
        <ele>494.6</ele>
        <time>2025-07-21T10:30:07Z</time>
      </trkpt>
      <trkpt lat="42.91328" lon="0.69269">
        <ele>494.2</ele>
        <time>2025-07-21T10:30:11Z</time>
      </trkpt>
      <trkpt lat="42.9134" lon="0.6928">
        <ele>493.8</ele>
        <time>2025-07-21T10:30:14Z</time>
      </trkpt>
      <trkpt lat="42.91344" lon="0.69283">
        <ele>493.6</ele>
        <time>2025-07-21T10:30:15Z</time>
      </trkpt>
      <trkpt lat="42.91353" lon="0.69289">
        <ele>493.6</ele>
        <time>2025-07-21T10:30:17Z</time>
      </trkpt>
      <trkpt lat="42.91358" lon="0.69292">
        <ele>493.4</ele>
        <time>2025-07-21T10:30:18Z</time>
      </trkpt>
      <trkpt lat="42.91377" lon="0.69301">
        <ele>493.2</ele>
        <time>2025-07-21T10:30:22Z</time>
      </trkpt>
      <trkpt lat="42.91385" lon="0.69305">
        <ele>493</ele>
        <time>2025-07-21T10:30:24Z</time>
      </trkpt>
      <trkpt lat="42.91394" lon="0.69307">
        <ele>492.8</ele>
        <time>2025-07-21T10:30:26Z</time>
      </trkpt>
      <trkpt lat="42.91406" lon="0.69309">
        <ele>492.6</ele>
        <time>2025-07-21T10:30:29Z</time>
      </trkpt>
      <trkpt lat="42.9141" lon="0.69309">
        <ele>492.6</ele>
        <time>2025-07-21T10:30:30Z</time>
      </trkpt>
      <trkpt lat="42.91424" lon="0.6931">
        <ele>492.4</ele>
        <time>2025-07-21T10:30:35Z</time>
      </trkpt>
      <trkpt lat="42.91427" lon="0.69311">
        <ele>492.2</ele>
        <time>2025-07-21T10:30:37Z</time>
      </trkpt>
      <trkpt lat="42.91428" lon="0.69311">
        <ele>492.2</ele>
        <time>2025-07-21T10:30:39Z</time>
      </trkpt>
      <trkpt lat="42.91431" lon="0.69312">
        <ele>492</ele>
        <time>2025-07-21T10:30:41Z</time>
      </trkpt>
      <trkpt lat="42.91432" lon="0.69312">
        <ele>492</ele>
        <time>2025-07-21T10:30:43Z</time>
      </trkpt>
      <trkpt lat="42.91432" lon="0.69312">
        <ele>492</ele>
        <time>2025-07-21T10:30:44Z</time>
      </trkpt>
      <trkpt lat="42.91432" lon="0.69307">
        <ele>492</ele>
        <time>2025-07-21T10:34:01Z</time>
      </trkpt>
      <trkpt lat="42.91433" lon="0.69303">
        <ele>491.8</ele>
        <time>2025-07-21T10:34:03Z</time>
      </trkpt>
      <trkpt lat="42.91435" lon="0.69293">
        <ele>492</ele>
        <time>2025-07-21T10:34:09Z</time>
      </trkpt>
      <trkpt lat="42.91435" lon="0.69293">
        <ele>492</ele>
        <time>2025-07-21T10:34:11Z</time>
      </trkpt>
      <trkpt lat="42.91422" lon="0.69288">
        <ele>491.4</ele>
        <time>2025-07-21T11:39:43Z</time>
      </trkpt>
      <trkpt lat="42.91432" lon="0.69306">
        <ele>491.2</ele>
        <time>2025-07-21T11:39:44Z</time>
      </trkpt>
      <trkpt lat="42.91429" lon="0.69306">
        <ele>491.4</ele>
        <time>2025-07-21T11:40:24Z</time>
      </trkpt>
      <trkpt lat="42.91429" lon="0.69307">
        <ele>491.4</ele>
        <time>2025-07-21T11:40:25Z</time>
      </trkpt>
      <trkpt lat="42.91433" lon="0.6931">
        <ele>491.4</ele>
        <time>2025-07-21T11:40:29Z</time>
      </trkpt>
      <trkpt lat="42.91435" lon="0.69309">
        <ele>491.4</ele>
        <time>2025-07-21T11:40:31Z</time>
      </trkpt>
      <trkpt lat="42.91435" lon="0.69308">
        <ele>491.4</ele>
        <time>2025-07-21T11:40:34Z</time>
      </trkpt>
      <trkpt lat="42.91439" lon="0.69296">
        <ele>491.2</ele>
        <time>2025-07-21T11:40:45Z</time>
      </trkpt>
      <trkpt lat="42.91442" lon="0.69296">
        <ele>491.2</ele>
        <time>2025-07-21T11:40:46Z</time>
      </trkpt>
      <trkpt lat="42.91456" lon="0.69288">
        <ele>491</ele>
        <time>2025-07-21T11:40:50Z</time>
      </trkpt>
      <trkpt lat="42.91464" lon="0.69283">
        <ele>491</ele>
        <time>2025-07-21T11:40:52Z</time>
      </trkpt>
      <trkpt lat="42.91475" lon="0.69273">
        <ele>491.2</ele>
        <time>2025-07-21T11:40:55Z</time>
      </trkpt>
      <trkpt lat="42.91482" lon="0.69266">
        <ele>491.2</ele>
        <time>2025-07-21T11:40:57Z</time>
      </trkpt>
      <trkpt lat="42.91488" lon="0.69257">
        <ele>491.2</ele>
        <time>2025-07-21T11:40:59Z</time>
      </trkpt>
      <trkpt lat="42.9149" lon="0.69252">
        <ele>491.2</ele>
        <time>2025-07-21T11:41:00Z</time>
      </trkpt>
      <trkpt lat="42.91507" lon="0.69234">
        <ele>491.4</ele>
        <time>2025-07-21T11:41:05Z</time>
      </trkpt>
      <trkpt lat="42.91514" lon="0.69225">
        <ele>491.4</ele>
        <time>2025-07-21T11:41:07Z</time>
      </trkpt>
      <trkpt lat="42.9153" lon="0.69203">
        <ele>492</ele>
        <time>2025-07-21T11:41:12Z</time>
      </trkpt>
      <trkpt lat="42.91535" lon="0.69198">
        <ele>492.2</ele>
        <time>2025-07-21T11:41:14Z</time>
      </trkpt>
      <trkpt lat="42.91538" lon="0.69192">
        <ele>492.6</ele>
        <time>2025-07-21T11:41:16Z</time>
      </trkpt>
      <trkpt lat="42.9154" lon="0.69184">
        <ele>493</ele>
        <time>2025-07-21T11:41:18Z</time>
      </trkpt>
      <trkpt lat="42.91552" lon="0.69149">
        <ele>493.4</ele>
        <time>2025-07-21T11:41:24Z</time>
      </trkpt>
      <trkpt lat="42.91554" lon="0.69142">
        <ele>493.4</ele>
        <time>2025-07-21T11:41:25Z</time>
      </trkpt>
      <trkpt lat="42.91557" lon="0.69135">
        <ele>493.4</ele>
        <time>2025-07-21T11:41:26Z</time>
      </trkpt>
      <trkpt lat="42.91565" lon="0.69116">
        <ele>493.4</ele>
        <time>2025-07-21T11:41:29Z</time>
      </trkpt>
      <trkpt lat="42.91592" lon="0.69066">
        <ele>493</ele>
        <time>2025-07-21T11:41:37Z</time>
      </trkpt>
      <trkpt lat="42.91621" lon="0.69009">
        <ele>493</ele>
        <time>2025-07-21T11:41:46Z</time>
      </trkpt>
      <trkpt lat="42.91646" lon="0.68954">
        <ele>493</ele>
        <time>2025-07-21T11:41:55Z</time>
      </trkpt>
      <trkpt lat="42.91651" lon="0.68942">
        <ele>493</ele>
        <time>2025-07-21T11:41:56Z</time>
      </trkpt>
      <trkpt lat="42.91666" lon="0.6891">
        <ele>493.4</ele>
        <time>2025-07-21T11:42:01Z</time>
      </trkpt>
      <trkpt lat="42.91674" lon="0.68876">
        <ele>493.6</ele>
        <time>2025-07-21T11:42:06Z</time>
      </trkpt>
      <trkpt lat="42.91676" lon="0.68839">
        <ele>493.6</ele>
        <time>2025-07-21T11:42:11Z</time>
      </trkpt>
      <trkpt lat="42.91675" lon="0.68832">
        <ele>493.6</ele>
        <time>2025-07-21T11:42:12Z</time>
      </trkpt>
      <trkpt lat="42.91671" lon="0.68753">
        <ele>493</ele>
        <time>2025-07-21T11:42:22Z</time>
      </trkpt>
      <trkpt lat="42.91679" lon="0.68687">
        <ele>492.8</ele>
        <time>2025-07-21T11:42:30Z</time>
      </trkpt>
      <trkpt lat="42.91692" lon="0.68639">
        <ele>492.4</ele>
        <time>2025-07-21T11:42:36Z</time>
      </trkpt>
      <trkpt lat="42.91712" lon="0.68595">
        <ele>492.6</ele>
        <time>2025-07-21T11:42:43Z</time>
      </trkpt>
      <trkpt lat="42.91722" lon="0.68574">
        <ele>493.4</ele>
        <time>2025-07-21T11:42:48Z</time>
      </trkpt>
      <trkpt lat="42.91723" lon="0.68571">
        <ele>493.6</ele>
        <time>2025-07-21T11:42:50Z</time>
      </trkpt>
      <trkpt lat="42.91723" lon="0.6857">
        <ele>493.8</ele>
        <time>2025-07-21T11:42:52Z</time>
      </trkpt>
      <trkpt lat="42.91724" lon="0.68568">
        <ele>494</ele>
        <time>2025-07-21T11:43:53Z</time>
      </trkpt>
      <trkpt lat="42.91726" lon="0.6856">
        <ele>494</ele>
        <time>2025-07-21T11:43:56Z</time>
      </trkpt>
      <trkpt lat="42.9173" lon="0.68538">
        <ele>493.8</ele>
        <time>2025-07-21T11:44:02Z</time>
      </trkpt>
      <trkpt lat="42.91735" lon="0.68513">
        <ele>494</ele>
        <time>2025-07-21T11:44:10Z</time>
      </trkpt>
      <trkpt lat="42.91736" lon="0.68491">
        <ele>494.2</ele>
        <time>2025-07-21T11:44:17Z</time>
      </trkpt>
      <trkpt lat="42.91739" lon="0.6846">
        <ele>494</ele>
        <time>2025-07-21T11:44:26Z</time>
      </trkpt>
      <trkpt lat="42.9174" lon="0.68434">
        <ele>493.6</ele>
        <time>2025-07-21T11:44:34Z</time>
      </trkpt>
      <trkpt lat="42.91743" lon="0.68405">
        <ele>493.2</ele>
        <time>2025-07-21T11:44:41Z</time>
      </trkpt>
      <trkpt lat="42.91747" lon="0.68358">
        <ele>493</ele>
        <time>2025-07-21T11:44:49Z</time>
      </trkpt>
      <trkpt lat="42.91752" lon="0.68312">
        <ele>493</ele>
        <time>2025-07-21T11:44:56Z</time>
      </trkpt>
      <trkpt lat="42.91755" lon="0.68269">
        <ele>492.8</ele>
        <time>2025-07-21T11:45:02Z</time>
      </trkpt>
      <trkpt lat="42.91755" lon="0.68261">
        <ele>492.8</ele>
        <time>2025-07-21T11:45:03Z</time>
      </trkpt>
      <trkpt lat="42.91756" lon="0.68254">
        <ele>492.6</ele>
        <time>2025-07-21T11:45:04Z</time>
      </trkpt>
      <trkpt lat="42.91755" lon="0.68191">
        <ele>491.8</ele>
        <time>2025-07-21T11:45:12Z</time>
      </trkpt>
      <trkpt lat="42.91754" lon="0.68183">
        <ele>491.6</ele>
        <time>2025-07-21T11:45:13Z</time>
      </trkpt>
      <trkpt lat="42.91751" lon="0.6814">
        <ele>491</ele>
        <time>2025-07-21T11:45:18Z</time>
      </trkpt>
      <trkpt lat="42.91748" lon="0.68107">
        <ele>490.6</ele>
        <time>2025-07-21T11:45:22Z</time>
      </trkpt>
      <trkpt lat="42.91747" lon="0.68089">
        <ele>490.4</ele>
        <time>2025-07-21T11:45:24Z</time>
      </trkpt>
      <trkpt lat="42.91741" lon="0.68024">
        <ele>489.8</ele>
        <time>2025-07-21T11:45:32Z</time>
      </trkpt>
      <trkpt lat="42.91741" lon="0.68009">
        <ele>489.8</ele>
        <time>2025-07-21T11:45:34Z</time>
      </trkpt>
      <trkpt lat="42.9174" lon="0.67994">
        <ele>489.6</ele>
        <time>2025-07-21T11:45:36Z</time>
      </trkpt>
      <trkpt lat="42.91738" lon="0.67976">
        <ele>489.6</ele>
        <time>2025-07-21T11:45:38Z</time>
      </trkpt>
      <trkpt lat="42.91735" lon="0.67952">
        <ele>489.4</ele>
        <time>2025-07-21T11:45:41Z</time>
      </trkpt>
      <trkpt lat="42.91725" lon="0.6788">
        <ele>488.8</ele>
        <time>2025-07-21T11:45:49Z</time>
      </trkpt>
      <trkpt lat="42.91722" lon="0.67862">
        <ele>488.6</ele>
        <time>2025-07-21T11:45:51Z</time>
      </trkpt>
      <trkpt lat="42.91721" lon="0.67853">
        <ele>488.4</ele>
        <time>2025-07-21T11:45:52Z</time>
      </trkpt>
      <trkpt lat="42.91718" lon="0.67827">
        <ele>488.2</ele>
        <time>2025-07-21T11:45:55Z</time>
      </trkpt>
      <trkpt lat="42.91709" lon="0.67767">
        <ele>488.2</ele>
        <time>2025-07-21T11:46:02Z</time>
      </trkpt>
      <trkpt lat="42.91708" lon="0.67756">
        <ele>488.2</ele>
        <time>2025-07-21T11:46:03Z</time>
      </trkpt>
      <trkpt lat="42.917" lon="0.67678">
        <ele>488.2</ele>
        <time>2025-07-21T11:46:12Z</time>
      </trkpt>
      <trkpt lat="42.91698" lon="0.67616">
        <ele>488</ele>
        <time>2025-07-21T11:46:19Z</time>
      </trkpt>
      <trkpt lat="42.91703" lon="0.67557">
        <ele>488</ele>
        <time>2025-07-21T11:46:26Z</time>
      </trkpt>
      <trkpt lat="42.91701" lon="0.67527">
        <ele>488.4</ele>
        <time>2025-07-21T11:46:30Z</time>
      </trkpt>
      <trkpt lat="42.91698" lon="0.67517">
        <ele>488.6</ele>
        <time>2025-07-21T11:46:31Z</time>
      </trkpt>
      <trkpt lat="42.91697" lon="0.6751">
        <ele>488.8</ele>
        <time>2025-07-21T11:46:32Z</time>
      </trkpt>
      <trkpt lat="42.91694" lon="0.67497">
        <ele>489.2</ele>
        <time>2025-07-21T11:46:34Z</time>
      </trkpt>
      <trkpt lat="42.91693" lon="0.6749">
        <ele>489.4</ele>
        <time>2025-07-21T11:46:35Z</time>
      </trkpt>
      <trkpt lat="42.91688" lon="0.67478">
        <ele>489.6</ele>
        <time>2025-07-21T11:46:37Z</time>
      </trkpt>
      <trkpt lat="42.91685" lon="0.6747">
        <ele>489.6</ele>
        <time>2025-07-21T11:46:38Z</time>
      </trkpt>
      <trkpt lat="42.91684" lon="0.67464">
        <ele>490</ele>
        <time>2025-07-21T11:46:39Z</time>
      </trkpt>
      <trkpt lat="42.91682" lon="0.67457">
        <ele>490.2</ele>
        <time>2025-07-21T11:46:40Z</time>
      </trkpt>
      <trkpt lat="42.91676" lon="0.67442">
        <ele>490.4</ele>
        <time>2025-07-21T11:46:42Z</time>
      </trkpt>
      <trkpt lat="42.91672" lon="0.67426">
        <ele>490.4</ele>
        <time>2025-07-21T11:46:44Z</time>
      </trkpt>
      <trkpt lat="42.91671" lon="0.67419">
        <ele>490.4</ele>
        <time>2025-07-21T11:46:45Z</time>
      </trkpt>
      <trkpt lat="42.9167" lon="0.67399">
        <ele>490.4</ele>
        <time>2025-07-21T11:46:47Z</time>
      </trkpt>
      <trkpt lat="42.91671" lon="0.67379">
        <ele>490.2</ele>
        <time>2025-07-21T11:46:49Z</time>
      </trkpt>
      <trkpt lat="42.91677" lon="0.67332">
        <ele>489</ele>
        <time>2025-07-21T11:46:54Z</time>
      </trkpt>
      <trkpt lat="42.91677" lon="0.67324">
        <ele>488.6</ele>
        <time>2025-07-21T11:46:55Z</time>
      </trkpt>
      <trkpt lat="42.91676" lon="0.67256">
        <ele>488.2</ele>
        <time>2025-07-21T11:47:02Z</time>
      </trkpt>
      <trkpt lat="42.91675" lon="0.67247">
        <ele>488</ele>
        <time>2025-07-21T11:47:03Z</time>
      </trkpt>
      <trkpt lat="42.9167" lon="0.67221">
        <ele>488</ele>
        <time>2025-07-21T11:47:06Z</time>
      </trkpt>
      <trkpt lat="42.91665" lon="0.67201">
        <ele>488</ele>
        <time>2025-07-21T11:47:08Z</time>
      </trkpt>
      <trkpt lat="42.91656" lon="0.67175">
        <ele>488</ele>
        <time>2025-07-21T11:47:11Z</time>
      </trkpt>
      <trkpt lat="42.9164" lon="0.67127">
        <ele>488</ele>
        <time>2025-07-21T11:47:17Z</time>
      </trkpt>
      <trkpt lat="42.91628" lon="0.67086">
        <ele>488</ele>
        <time>2025-07-21T11:47:22Z</time>
      </trkpt>
      <trkpt lat="42.91627" lon="0.67079">
        <ele>488</ele>
        <time>2025-07-21T11:47:23Z</time>
      </trkpt>
      <trkpt lat="42.91624" lon="0.67061">
        <ele>488</ele>
        <time>2025-07-21T11:47:25Z</time>
      </trkpt>
      <trkpt lat="42.91622" lon="0.67053">
        <ele>487.6</ele>
        <time>2025-07-21T11:47:26Z</time>
      </trkpt>
      <trkpt lat="42.9161" lon="0.67005">
        <ele>487.6</ele>
        <time>2025-07-21T11:47:32Z</time>
      </trkpt>
      <trkpt lat="42.91595" lon="0.66963">
        <ele>487.6</ele>
        <time>2025-07-21T11:47:37Z</time>
      </trkpt>
      <trkpt lat="42.91588" lon="0.66945">
        <ele>487.6</ele>
        <time>2025-07-21T11:47:39Z</time>
      </trkpt>
      <trkpt lat="42.91581" lon="0.6693">
        <ele>487.6</ele>
        <time>2025-07-21T11:47:41Z</time>
      </trkpt>
      <trkpt lat="42.91558" lon="0.66891">
        <ele>487.8</ele>
        <time>2025-07-21T11:47:47Z</time>
      </trkpt>
      <trkpt lat="42.91541" lon="0.66865">
        <ele>488.6</ele>
        <time>2025-07-21T11:47:52Z</time>
      </trkpt>
      <trkpt lat="42.91535" lon="0.66857">
        <ele>488.6</ele>
        <time>2025-07-21T11:47:54Z</time>
      </trkpt>
      <trkpt lat="42.9153" lon="0.66848">
        <ele>489</ele>
        <time>2025-07-21T11:47:56Z</time>
      </trkpt>
      <trkpt lat="42.91528" lon="0.66842">
        <ele>489.2</ele>
        <time>2025-07-21T11:47:57Z</time>
      </trkpt>
      <trkpt lat="42.91523" lon="0.66828">
        <ele>489.8</ele>
        <time>2025-07-21T11:48:00Z</time>
      </trkpt>
      <trkpt lat="42.9152" lon="0.66822">
        <ele>490</ele>
        <time>2025-07-21T11:48:01Z</time>
      </trkpt>
      <trkpt lat="42.91518" lon="0.66804">
        <ele>490.4</ele>
        <time>2025-07-21T11:48:04Z</time>
      </trkpt>
      <trkpt lat="42.91516" lon="0.66782">
        <ele>491.2</ele>
        <time>2025-07-21T11:48:08Z</time>
      </trkpt>
      <trkpt lat="42.91517" lon="0.66771">
        <ele>491.6</ele>
        <time>2025-07-21T11:48:10Z</time>
      </trkpt>
      <trkpt lat="42.91522" lon="0.66754">
        <ele>492.2</ele>
        <time>2025-07-21T11:48:13Z</time>
      </trkpt>
      <trkpt lat="42.91524" lon="0.66742">
        <ele>492.6</ele>
        <time>2025-07-21T11:48:15Z</time>
      </trkpt>
      <trkpt lat="42.91526" lon="0.6672">
        <ele>493</ele>
        <time>2025-07-21T11:48:18Z</time>
      </trkpt>
      <trkpt lat="42.91526" lon="0.66712">
        <ele>493</ele>
        <time>2025-07-21T11:48:19Z</time>
      </trkpt>
      <trkpt lat="42.91523" lon="0.66688">
        <ele>493.2</ele>
        <time>2025-07-21T11:48:22Z</time>
      </trkpt>
      <trkpt lat="42.91519" lon="0.66669">
        <ele>493.4</ele>
        <time>2025-07-21T11:48:24Z</time>
      </trkpt>
      <trkpt lat="42.91505" lon="0.66601">
        <ele>492</ele>
        <time>2025-07-21T11:48:31Z</time>
      </trkpt>
      <trkpt lat="42.91499" lon="0.66578">
        <ele>491.4</ele>
        <time>2025-07-21T11:48:33Z</time>
      </trkpt>
      <trkpt lat="42.91487" lon="0.66526">
        <ele>490.4</ele>
        <time>2025-07-21T11:48:38Z</time>
      </trkpt>
      <trkpt lat="42.91484" lon="0.66495">
        <ele>489.8</ele>
        <time>2025-07-21T11:48:41Z</time>
      </trkpt>
      <trkpt lat="42.91485" lon="0.66484">
        <ele>489.8</ele>
        <time>2025-07-21T11:48:42Z</time>
      </trkpt>
      <trkpt lat="42.91482" lon="0.66412">
        <ele>489.6</ele>
        <time>2025-07-21T11:48:49Z</time>
      </trkpt>
      <trkpt lat="42.91471" lon="0.66349">
        <ele>490.2</ele>
        <time>2025-07-21T11:48:56Z</time>
      </trkpt>
      <trkpt lat="42.91462" lon="0.6631">
        <ele>491</ele>
        <time>2025-07-21T11:49:01Z</time>
      </trkpt>
      <trkpt lat="42.91459" lon="0.66295">
        <ele>491</ele>
        <time>2025-07-21T11:49:03Z</time>
      </trkpt>
      <trkpt lat="42.91454" lon="0.66274">
        <ele>491.4</ele>
        <time>2025-07-21T11:49:06Z</time>
      </trkpt>
      <trkpt lat="42.91448" lon="0.66247">
        <ele>492.2</ele>
        <time>2025-07-21T11:49:10Z</time>
      </trkpt>
      <trkpt lat="42.91445" lon="0.66234">
        <ele>492.4</ele>
        <time>2025-07-21T11:49:12Z</time>
      </trkpt>
      <trkpt lat="42.91437" lon="0.66202">
        <ele>493</ele>
        <time>2025-07-21T11:49:17Z</time>
      </trkpt>
      <trkpt lat="42.91432" lon="0.66178">
        <ele>493.8</ele>
        <time>2025-07-21T11:49:21Z</time>
      </trkpt>
      <trkpt lat="42.91428" lon="0.66154">
        <ele>494.2</ele>
        <time>2025-07-21T11:49:25Z</time>
      </trkpt>
      <trkpt lat="42.91425" lon="0.66138">
        <ele>494.8</ele>
        <time>2025-07-21T11:49:28Z</time>
      </trkpt>
      <trkpt lat="42.91422" lon="0.66126">
        <ele>495.6</ele>
        <time>2025-07-21T11:49:30Z</time>
      </trkpt>
      <trkpt lat="42.9142" lon="0.66115">
        <ele>496</ele>
        <time>2025-07-21T11:49:32Z</time>
      </trkpt>
      <trkpt lat="42.91419" lon="0.6611">
        <ele>496</ele>
        <time>2025-07-21T11:49:33Z</time>
      </trkpt>
      <trkpt lat="42.91409" lon="0.66073">
        <ele>497.2</ele>
        <time>2025-07-21T11:49:40Z</time>
      </trkpt>
      <trkpt lat="42.91398" lon="0.66029">
        <ele>498.4</ele>
        <time>2025-07-21T11:49:49Z</time>
      </trkpt>
      <trkpt lat="42.91391" lon="0.65998">
        <ele>499.4</ele>
        <time>2025-07-21T11:49:55Z</time>
      </trkpt>
      <trkpt lat="42.91388" lon="0.65988">
        <ele>499.8</ele>
        <time>2025-07-21T11:49:57Z</time>
      </trkpt>
      <trkpt lat="42.91382" lon="0.65958">
        <ele>500.6</ele>
        <time>2025-07-21T11:50:03Z</time>
      </trkpt>
      <trkpt lat="42.91378" lon="0.65943">
        <ele>501.2</ele>
        <time>2025-07-21T11:50:06Z</time>
      </trkpt>
      <trkpt lat="42.91376" lon="0.65933">
        <ele>501.6</ele>
        <time>2025-07-21T11:50:08Z</time>
      </trkpt>
      <trkpt lat="42.91367" lon="0.6591">
        <ele>502.2</ele>
        <time>2025-07-21T11:50:13Z</time>
      </trkpt>
      <trkpt lat="42.91361" lon="0.65895">
        <ele>502.6</ele>
        <time>2025-07-21T11:50:16Z</time>
      </trkpt>
      <trkpt lat="42.91352" lon="0.65875">
        <ele>503.2</ele>
        <time>2025-07-21T11:50:20Z</time>
      </trkpt>
      <trkpt lat="42.9134" lon="0.65835">
        <ele>503.6</ele>
        <time>2025-07-21T11:50:27Z</time>
      </trkpt>
      <trkpt lat="42.91336" lon="0.65811">
        <ele>504</ele>
        <time>2025-07-21T11:50:31Z</time>
      </trkpt>
      <trkpt lat="42.91334" lon="0.65792">
        <ele>504.2</ele>
        <time>2025-07-21T11:50:34Z</time>
      </trkpt>
      <trkpt lat="42.91334" lon="0.65778">
        <ele>504.2</ele>
        <time>2025-07-21T11:50:36Z</time>
      </trkpt>
      <trkpt lat="42.91335" lon="0.65757">
        <ele>504</ele>
        <time>2025-07-21T11:50:39Z</time>
      </trkpt>
      <trkpt lat="42.91336" lon="0.65749">
        <ele>504</ele>
        <time>2025-07-21T11:50:40Z</time>
      </trkpt>
      <trkpt lat="42.91338" lon="0.65709">
        <ele>503.6</ele>
        <time>2025-07-21T11:50:45Z</time>
      </trkpt>
      <trkpt lat="42.91338" lon="0.65674">
        <ele>503</ele>
        <time>2025-07-21T11:50:49Z</time>
      </trkpt>
      <trkpt lat="42.91338" lon="0.65657">
        <ele>502.4</ele>
        <time>2025-07-21T11:50:51Z</time>
      </trkpt>
      <trkpt lat="42.91334" lon="0.65604">
        <ele>501.8</ele>
        <time>2025-07-21T11:50:57Z</time>
      </trkpt>
      <trkpt lat="42.91333" lon="0.65585">
        <ele>501.8</ele>
        <time>2025-07-21T11:50:59Z</time>
      </trkpt>
      <trkpt lat="42.91331" lon="0.65545">
        <ele>500.8</ele>
        <time>2025-07-21T11:51:03Z</time>
      </trkpt>
      <trkpt lat="42.9133" lon="0.65514">
        <ele>499.8</ele>
        <time>2025-07-21T11:51:06Z</time>
      </trkpt>
      <trkpt lat="42.91331" lon="0.65503">
        <ele>499.4</ele>
        <time>2025-07-21T11:51:07Z</time>
      </trkpt>
      <trkpt lat="42.91334" lon="0.65459">
        <ele>498.4</ele>
        <time>2025-07-21T11:51:11Z</time>
      </trkpt>
      <trkpt lat="42.91336" lon="0.65447">
        <ele>497.8</ele>
        <time>2025-07-21T11:51:12Z</time>
      </trkpt>
      <trkpt lat="42.91339" lon="0.65423">
        <ele>496.8</ele>
        <time>2025-07-21T11:51:14Z</time>
      </trkpt>
      <trkpt lat="42.91347" lon="0.65374">
        <ele>495.4</ele>
        <time>2025-07-21T11:51:18Z</time>
      </trkpt>
      <trkpt lat="42.91349" lon="0.65362">
        <ele>495</ele>
        <time>2025-07-21T11:51:19Z</time>
      </trkpt>
      <trkpt lat="42.91352" lon="0.65339">
        <ele>494.2</ele>
        <time>2025-07-21T11:51:21Z</time>
      </trkpt>
      <trkpt lat="42.9136" lon="0.65291">
        <ele>492.6</ele>
        <time>2025-07-21T11:51:25Z</time>
      </trkpt>
      <trkpt lat="42.91367" lon="0.65256">
        <ele>491.4</ele>
        <time>2025-07-21T11:51:28Z</time>
      </trkpt>
      <trkpt lat="42.91372" lon="0.6522">
        <ele>490.4</ele>
        <time>2025-07-21T11:51:31Z</time>
      </trkpt>
      <trkpt lat="42.9138" lon="0.65172">
        <ele>489.2</ele>
        <time>2025-07-21T11:51:35Z</time>
      </trkpt>
      <trkpt lat="42.91386" lon="0.65126">
        <ele>488.4</ele>
        <time>2025-07-21T11:51:39Z</time>
      </trkpt>
      <trkpt lat="42.91388" lon="0.65115">
        <ele>487.8</ele>
        <time>2025-07-21T11:51:40Z</time>
      </trkpt>
      <trkpt lat="42.91394" lon="0.65074">
        <ele>486.8</ele>
        <time>2025-07-21T11:51:44Z</time>
      </trkpt>
      <trkpt lat="42.91396" lon="0.65064">
        <ele>486.4</ele>
        <time>2025-07-21T11:51:45Z</time>
      </trkpt>
      <trkpt lat="42.91402" lon="0.65021">
        <ele>485.6</ele>
        <time>2025-07-21T11:51:49Z</time>
      </trkpt>
      <trkpt lat="42.91404" lon="0.65002">
        <ele>485.2</ele>
        <time>2025-07-21T11:51:51Z</time>
      </trkpt>
      <trkpt lat="42.91408" lon="0.64978">
        <ele>484.4</ele>
        <time>2025-07-21T11:51:53Z</time>
      </trkpt>
      <trkpt lat="42.91411" lon="0.64956">
        <ele>483.2</ele>
        <time>2025-07-21T11:51:55Z</time>
      </trkpt>
      <trkpt lat="42.91417" lon="0.64913">
        <ele>481.8</ele>
        <time>2025-07-21T11:51:59Z</time>
      </trkpt>
      <trkpt lat="42.91418" lon="0.64894">
        <ele>481.2</ele>
        <time>2025-07-21T11:52:01Z</time>
      </trkpt>
      <trkpt lat="42.91421" lon="0.64863">
        <ele>480.6</ele>
        <time>2025-07-21T11:52:04Z</time>
      </trkpt>
      <trkpt lat="42.91423" lon="0.64847">
        <ele>480.2</ele>
        <time>2025-07-21T11:52:06Z</time>
      </trkpt>
      <trkpt lat="42.91425" lon="0.64832">
        <ele>479.4</ele>
        <time>2025-07-21T11:52:08Z</time>
      </trkpt>
      <trkpt lat="42.91425" lon="0.64826">
        <ele>479.2</ele>
        <time>2025-07-21T11:52:09Z</time>
      </trkpt>
      <trkpt lat="42.91423" lon="0.64821">
        <ele>478.8</ele>
        <time>2025-07-21T11:52:10Z</time>
      </trkpt>
      <trkpt lat="42.91421" lon="0.64817">
        <ele>478.8</ele>
        <time>2025-07-21T11:52:11Z</time>
      </trkpt>
      <trkpt lat="42.91411" lon="0.64811">
        <ele>478.4</ele>
        <time>2025-07-21T11:52:13Z</time>
      </trkpt>
      <trkpt lat="42.91402" lon="0.64808">
        <ele>478.4</ele>
        <time>2025-07-21T11:52:15Z</time>
      </trkpt>
      <trkpt lat="42.91378" lon="0.64804">
        <ele>477.6</ele>
        <time>2025-07-21T11:52:21Z</time>
      </trkpt>
      <trkpt lat="42.91368" lon="0.64804">
        <ele>477.4</ele>
        <time>2025-07-21T11:52:24Z</time>
      </trkpt>
      <trkpt lat="42.91362" lon="0.64802">
        <ele>477.4</ele>
        <time>2025-07-21T11:52:26Z</time>
      </trkpt>
      <trkpt lat="42.91337" lon="0.64797">
        <ele>477.2</ele>
        <time>2025-07-21T11:52:32Z</time>
      </trkpt>
      <trkpt lat="42.91324" lon="0.64793">
        <ele>477.2</ele>
        <time>2025-07-21T11:52:35Z</time>
      </trkpt>
      <trkpt lat="42.91315" lon="0.64786">
        <ele>477.2</ele>
        <time>2025-07-21T11:52:37Z</time>
      </trkpt>
      <trkpt lat="42.91301" lon="0.64773">
        <ele>477</ele>
        <time>2025-07-21T11:52:41Z</time>
      </trkpt>
      <trkpt lat="42.91297" lon="0.64771">
        <ele>477</ele>
        <time>2025-07-21T11:52:42Z</time>
      </trkpt>
      <trkpt lat="42.91279" lon="0.64766">
        <ele>477</ele>
        <time>2025-07-21T11:52:47Z</time>
      </trkpt>
      <trkpt lat="42.91264" lon="0.64761">
        <ele>477</ele>
        <time>2025-07-21T11:52:52Z</time>
      </trkpt>
      <trkpt lat="42.91266" lon="0.64764">
        <ele>477</ele>
        <time>2025-07-21T11:52:54Z</time>
      </trkpt>
      <trkpt lat="42.91266" lon="0.64764">
        <ele>477</ele>
        <time>2025-07-21T11:52:56Z</time>
      </trkpt>
      <trkpt lat="42.91275" lon="0.64753">
        <ele>477.2</ele>
        <time>2025-07-21T12:20:43Z</time>
      </trkpt>
      <trkpt lat="42.91275" lon="0.64758">
        <ele>477.4</ele>
        <time>2025-07-21T12:20:44Z</time>
      </trkpt>
      <trkpt lat="42.91274" lon="0.64768">
        <ele>476</ele>
        <time>2025-07-21T12:24:24Z</time>
      </trkpt>
      <trkpt lat="42.91278" lon="0.64771">
        <ele>476.2</ele>
        <time>2025-07-21T12:24:27Z</time>
      </trkpt>
      <trkpt lat="42.91288" lon="0.64771">
        <ele>476.4</ele>
        <time>2025-07-21T12:24:32Z</time>
      </trkpt>
      <trkpt lat="42.91298" lon="0.64773">
        <ele>477</ele>
        <time>2025-07-21T12:24:38Z</time>
      </trkpt>
      <trkpt lat="42.91299" lon="0.64774">
        <ele>476.8</ele>
        <time>2025-07-21T12:24:39Z</time>
      </trkpt>
      <trkpt lat="42.913" lon="0.64777">
        <ele>477</ele>
        <time>2025-07-21T12:24:41Z</time>
      </trkpt>
      <trkpt lat="42.91302" lon="0.64782">
        <ele>477</ele>
        <time>2025-07-21T12:24:43Z</time>
      </trkpt>
      <trkpt lat="42.91316" lon="0.64799">
        <ele>477.4</ele>
        <time>2025-07-21T12:24:51Z</time>
      </trkpt>
      <trkpt lat="42.91331" lon="0.64802">
        <ele>477.8</ele>
        <time>2025-07-21T12:24:57Z</time>
      </trkpt>
      <trkpt lat="42.91345" lon="0.64808">
        <ele>478.4</ele>
        <time>2025-07-21T12:25:02Z</time>
      </trkpt>
      <trkpt lat="42.91348" lon="0.64809">
        <ele>478.4</ele>
        <time>2025-07-21T12:25:03Z</time>
      </trkpt>
      <trkpt lat="42.9135" lon="0.64809">
        <ele>478.6</ele>
        <time>2025-07-21T12:25:04Z</time>
      </trkpt>
      <trkpt lat="42.91359" lon="0.64812">
        <ele>478.8</ele>
        <time>2025-07-21T12:25:09Z</time>
      </trkpt>
      <trkpt lat="42.91365" lon="0.64821">
        <ele>479</ele>
        <time>2025-07-21T12:25:14Z</time>
      </trkpt>
      <trkpt lat="42.91364" lon="0.64825">
        <ele>479</ele>
        <time>2025-07-21T12:25:15Z</time>
      </trkpt>
      <trkpt lat="42.91359" lon="0.64853">
        <ele>478.6</ele>
        <time>2025-07-21T12:25:21Z</time>
      </trkpt>
      <trkpt lat="42.91349" lon="0.6489">
        <ele>478</ele>
        <time>2025-07-21T12:25:28Z</time>
      </trkpt>
      <trkpt lat="42.91348" lon="0.64902">
        <ele>478</ele>
        <time>2025-07-21T12:25:30Z</time>
      </trkpt>
      <trkpt lat="42.9135" lon="0.64912">
        <ele>478</ele>
        <time>2025-07-21T12:25:32Z</time>
      </trkpt>
      <trkpt lat="42.91352" lon="0.64917">
        <ele>478</ele>
        <time>2025-07-21T12:25:33Z</time>
      </trkpt>
      <trkpt lat="42.91355" lon="0.6492">
        <ele>478</ele>
        <time>2025-07-21T12:25:34Z</time>
      </trkpt>
      <trkpt lat="42.91373" lon="0.64938">
        <ele>478</ele>
        <time>2025-07-21T12:25:39Z</time>
      </trkpt>
      <trkpt lat="42.91393" lon="0.64958">
        <ele>478.8</ele>
        <time>2025-07-21T12:25:46Z</time>
      </trkpt>
      <trkpt lat="42.91395" lon="0.64959">
        <ele>478.8</ele>
        <time>2025-07-21T12:25:47Z</time>
      </trkpt>
      <trkpt lat="42.91402" lon="0.64961">
        <ele>479.4</ele>
        <time>2025-07-21T12:25:50Z</time>
      </trkpt>
      <trkpt lat="42.91405" lon="0.6496">
        <ele>479.8</ele>
        <time>2025-07-21T12:25:51Z</time>
      </trkpt>
      <trkpt lat="42.91411" lon="0.64953">
        <ele>480.2</ele>
        <time>2025-07-21T12:25:53Z</time>
      </trkpt>
      <trkpt lat="42.91413" lon="0.64947">
        <ele>480.4</ele>
        <time>2025-07-21T12:25:54Z</time>
      </trkpt>
      <trkpt lat="42.91415" lon="0.64936">
        <ele>480.4</ele>
        <time>2025-07-21T12:25:56Z</time>
      </trkpt>
      <trkpt lat="42.91416" lon="0.64924">
        <ele>480.4</ele>
        <time>2025-07-21T12:25:58Z</time>
      </trkpt>
      <trkpt lat="42.91423" lon="0.64876">
        <ele>480</ele>
        <time>2025-07-21T12:26:04Z</time>
      </trkpt>
      <trkpt lat="42.91432" lon="0.64812">
        <ele>479.6</ele>
        <time>2025-07-21T12:26:12Z</time>
      </trkpt>
      <trkpt lat="42.9144" lon="0.64771">
        <ele>479.4</ele>
        <time>2025-07-21T12:26:17Z</time>
      </trkpt>
      <trkpt lat="42.91443" lon="0.64764">
        <ele>479.4</ele>
        <time>2025-07-21T12:26:18Z</time>
      </trkpt>
      <trkpt lat="42.91445" lon="0.64756">
        <ele>479.4</ele>
        <time>2025-07-21T12:26:19Z</time>
      </trkpt>
      <trkpt lat="42.91446" lon="0.64743">
        <ele>479.6</ele>
        <time>2025-07-21T12:26:21Z</time>
      </trkpt>
      <trkpt lat="42.91438" lon="0.64733">
        <ele>479.6</ele>
        <time>2025-07-21T12:26:23Z</time>
      </trkpt>
      <trkpt lat="42.91432" lon="0.64731">
        <ele>479.6</ele>
        <time>2025-07-21T12:26:24Z</time>
      </trkpt>
      <trkpt lat="42.91412" lon="0.64727">
        <ele>479.6</ele>
        <time>2025-07-21T12:26:27Z</time>
      </trkpt>
      <trkpt lat="42.91406" lon="0.64724">
        <ele>479.6</ele>
        <time>2025-07-21T12:26:28Z</time>
      </trkpt>
      <trkpt lat="42.91367" lon="0.64702">
        <ele>479.4</ele>
        <time>2025-07-21T12:26:35Z</time>
      </trkpt>
      <trkpt lat="42.91334" lon="0.64673">
        <ele>479.4</ele>
        <time>2025-07-21T12:26:42Z</time>
      </trkpt>
      <trkpt lat="42.91326" lon="0.64664">
        <ele>479.4</ele>
        <time>2025-07-21T12:26:44Z</time>
      </trkpt>
      <trkpt lat="42.91307" lon="0.64641">
        <ele>479.2</ele>
        <time>2025-07-21T12:26:49Z</time>
      </trkpt>
      <trkpt lat="42.91284" lon="0.64597">
        <ele>479.4</ele>
        <time>2025-07-21T12:26:57Z</time>
      </trkpt>
      <trkpt lat="42.91265" lon="0.64544">
        <ele>480</ele>
        <time>2025-07-21T12:27:06Z</time>
      </trkpt>
      <trkpt lat="42.9126" lon="0.64518">
        <ele>480.4</ele>
        <time>2025-07-21T12:27:10Z</time>
      </trkpt>
      <trkpt lat="42.91255" lon="0.64489">
        <ele>480.8</ele>
        <time>2025-07-21T12:27:14Z</time>
      </trkpt>
      <trkpt lat="42.91247" lon="0.64441">
        <ele>481.4</ele>
        <time>2025-07-21T12:27:21Z</time>
      </trkpt>
      <trkpt lat="42.91245" lon="0.64427">
        <ele>481.6</ele>
        <time>2025-07-21T12:27:23Z</time>
      </trkpt>
      <trkpt lat="42.91228" lon="0.64352">
        <ele>482</ele>
        <time>2025-07-21T12:27:33Z</time>
      </trkpt>
      <trkpt lat="42.91226" lon="0.64344">
        <ele>482</ele>
        <time>2025-07-21T12:27:34Z</time>
      </trkpt>
      <trkpt lat="42.91211" lon="0.64293">
        <ele>481.8</ele>
        <time>2025-07-21T12:27:40Z</time>
      </trkpt>
      <trkpt lat="42.91201" lon="0.64257">
        <ele>481.6</ele>
        <time>2025-07-21T12:27:44Z</time>
      </trkpt>
      <trkpt lat="42.91195" lon="0.64239">
        <ele>481.4</ele>
        <time>2025-07-21T12:27:46Z</time>
      </trkpt>
      <trkpt lat="42.91174" lon="0.64167">
        <ele>481.4</ele>
        <time>2025-07-21T12:27:54Z</time>
      </trkpt>
      <trkpt lat="42.91172" lon="0.64159">
        <ele>481.4</ele>
        <time>2025-07-21T12:27:55Z</time>
      </trkpt>
      <trkpt lat="42.91157" lon="0.64114">
        <ele>481.8</ele>
        <time>2025-07-21T12:28:01Z</time>
      </trkpt>
      <trkpt lat="42.91151" lon="0.64093">
        <ele>482.8</ele>
        <time>2025-07-21T12:28:04Z</time>
      </trkpt>
      <trkpt lat="42.91141" lon="0.64068">
        <ele>483.4</ele>
        <time>2025-07-21T12:28:08Z</time>
      </trkpt>
      <trkpt lat="42.91134" lon="0.6405">
        <ele>484</ele>
        <time>2025-07-21T12:28:11Z</time>
      </trkpt>
      <trkpt lat="42.91126" lon="0.64032">
        <ele>484.6</ele>
        <time>2025-07-21T12:28:14Z</time>
      </trkpt>
      <trkpt lat="42.91123" lon="0.64027">
        <ele>484.8</ele>
        <time>2025-07-21T12:28:15Z</time>
      </trkpt>
      <trkpt lat="42.91117" lon="0.64014">
        <ele>485.2</ele>
        <time>2025-07-21T12:28:17Z</time>
      </trkpt>
      <trkpt lat="42.91102" lon="0.6398">
        <ele>486.4</ele>
        <time>2025-07-21T12:28:23Z</time>
      </trkpt>
      <trkpt lat="42.91089" lon="0.63954">
        <ele>487.4</ele>
        <time>2025-07-21T12:28:28Z</time>
      </trkpt>
      <trkpt lat="42.91079" lon="0.63933">
        <ele>488</ele>
        <time>2025-07-21T12:28:32Z</time>
      </trkpt>
      <trkpt lat="42.91072" lon="0.63922">
        <ele>488.2</ele>
        <time>2025-07-21T12:28:34Z</time>
      </trkpt>
      <trkpt lat="42.91047" lon="0.63882">
        <ele>489.2</ele>
        <time>2025-07-21T12:28:42Z</time>
      </trkpt>
      <trkpt lat="42.91043" lon="0.63877">
        <ele>489.2</ele>
        <time>2025-07-21T12:28:43Z</time>
      </trkpt>
      <trkpt lat="42.91015" lon="0.63841">
        <ele>490.4</ele>
        <time>2025-07-21T12:28:50Z</time>
      </trkpt>
      <trkpt lat="42.91012" lon="0.63837">
        <ele>490.6</ele>
        <time>2025-07-21T12:28:51Z</time>
      </trkpt>
      <trkpt lat="42.90979" lon="0.63798">
        <ele>491.2</ele>
        <time>2025-07-21T12:28:59Z</time>
      </trkpt>
      <trkpt lat="42.90941" lon="0.63759">
        <ele>491.4</ele>
        <time>2025-07-21T12:29:07Z</time>
      </trkpt>
      <trkpt lat="42.909" lon="0.63723">
        <ele>491.4</ele>
        <time>2025-07-21T12:29:15Z</time>
      </trkpt>
      <trkpt lat="42.90848" lon="0.63687">
        <ele>491.2</ele>
        <time>2025-07-21T12:29:24Z</time>
      </trkpt>
      <trkpt lat="42.90793" lon="0.63655">
        <ele>491</ele>
        <time>2025-07-21T12:29:33Z</time>
      </trkpt>
      <trkpt lat="42.90787" lon="0.63652">
        <ele>491</ele>
        <time>2025-07-21T12:29:34Z</time>
      </trkpt>
      <trkpt lat="42.90734" lon="0.63624">
        <ele>491</ele>
        <time>2025-07-21T12:29:43Z</time>
      </trkpt>
      <trkpt lat="42.90706" lon="0.63608">
        <ele>491.2</ele>
        <time>2025-07-21T12:29:48Z</time>
      </trkpt>
      <trkpt lat="42.90689" lon="0.63599">
        <ele>491.2</ele>
        <time>2025-07-21T12:29:51Z</time>
      </trkpt>
      <trkpt lat="42.90662" lon="0.63584">
        <ele>491.6</ele>
        <time>2025-07-21T12:29:56Z</time>
      </trkpt>
      <trkpt lat="42.90658" lon="0.63581">
        <ele>491.8</ele>
        <time>2025-07-21T12:29:57Z</time>
      </trkpt>
      <trkpt lat="42.90637" lon="0.63567">
        <ele>492.4</ele>
        <time>2025-07-21T12:30:01Z</time>
      </trkpt>
      <trkpt lat="42.90612" lon="0.63548">
        <ele>492.6</ele>
        <time>2025-07-21T12:30:06Z</time>
      </trkpt>
      <trkpt lat="42.90581" lon="0.63523">
        <ele>493.2</ele>
        <time>2025-07-21T12:30:12Z</time>
      </trkpt>
      <trkpt lat="42.90566" lon="0.63512">
        <ele>493.6</ele>
        <time>2025-07-21T12:30:15Z</time>
      </trkpt>
      <trkpt lat="42.90545" lon="0.63491">
        <ele>494.2</ele>
        <time>2025-07-21T12:30:20Z</time>
      </trkpt>
      <trkpt lat="42.90541" lon="0.63488">
        <ele>494.4</ele>
        <time>2025-07-21T12:30:21Z</time>
      </trkpt>
      <trkpt lat="42.90534" lon="0.63479">
        <ele>494.8</ele>
        <time>2025-07-21T12:30:23Z</time>
      </trkpt>
      <trkpt lat="42.9052" lon="0.6346">
        <ele>495.4</ele>
        <time>2025-07-21T12:30:27Z</time>
      </trkpt>
      <trkpt lat="42.90517" lon="0.63455">
        <ele>495.4</ele>
        <time>2025-07-21T12:30:28Z</time>
      </trkpt>
      <trkpt lat="42.90511" lon="0.63446">
        <ele>495.8</ele>
        <time>2025-07-21T12:30:30Z</time>
      </trkpt>
      <trkpt lat="42.90508" lon="0.63441">
        <ele>495.8</ele>
        <time>2025-07-21T12:30:31Z</time>
      </trkpt>
      <trkpt lat="42.905" lon="0.63428">
        <ele>496.4</ele>
        <time>2025-07-21T12:30:34Z</time>
      </trkpt>
      <trkpt lat="42.90495" lon="0.63419">
        <ele>496.8</ele>
        <time>2025-07-21T12:30:36Z</time>
      </trkpt>
      <trkpt lat="42.90488" lon="0.63405">
        <ele>497.6</ele>
        <time>2025-07-21T12:30:39Z</time>
      </trkpt>
      <trkpt lat="42.90481" lon="0.6339">
        <ele>498</ele>
        <time>2025-07-21T12:30:42Z</time>
      </trkpt>
      <trkpt lat="42.90476" lon="0.63381">
        <ele>498.6</ele>
        <time>2025-07-21T12:30:44Z</time>
      </trkpt>
      <trkpt lat="42.90463" lon="0.63353">
        <ele>499.6</ele>
        <time>2025-07-21T12:30:50Z</time>
      </trkpt>
      <trkpt lat="42.90453" lon="0.63335">
        <ele>500.4</ele>
        <time>2025-07-21T12:30:54Z</time>
      </trkpt>
      <trkpt lat="42.90451" lon="0.63332">
        <ele>500.6</ele>
        <time>2025-07-21T12:30:55Z</time>
      </trkpt>
      <trkpt lat="42.90449" lon="0.63327">
        <ele>500.6</ele>
        <time>2025-07-21T12:30:56Z</time>
      </trkpt>
      <trkpt lat="42.90433" lon="0.63308">
        <ele>501.6</ele>
        <time>2025-07-21T12:31:01Z</time>
      </trkpt>
      <trkpt lat="42.90429" lon="0.63304">
        <ele>501.8</ele>
        <time>2025-07-21T12:31:02Z</time>
      </trkpt>
      <trkpt lat="42.90424" lon="0.633">
        <ele>501.8</ele>
        <time>2025-07-21T12:31:03Z</time>
      </trkpt>
      <trkpt lat="42.90404" lon="0.63286">
        <ele>502.2</ele>
        <time>2025-07-21T12:31:08Z</time>
      </trkpt>
      <trkpt lat="42.90386" lon="0.63279">
        <ele>502.6</ele>
        <time>2025-07-21T12:31:12Z</time>
      </trkpt>
      <trkpt lat="42.90371" lon="0.63276">
        <ele>503</ele>
        <time>2025-07-21T12:31:15Z</time>
      </trkpt>
      <trkpt lat="42.90352" lon="0.63277">
        <ele>503.2</ele>
        <time>2025-07-21T12:31:19Z</time>
      </trkpt>
      <trkpt lat="42.90339" lon="0.63281">
        <ele>503.4</ele>
        <time>2025-07-21T12:31:22Z</time>
      </trkpt>
      <trkpt lat="42.90326" lon="0.63286">
        <ele>503.8</ele>
        <time>2025-07-21T12:31:25Z</time>
      </trkpt>
      <trkpt lat="42.90321" lon="0.63288">
        <ele>504</ele>
        <time>2025-07-21T12:31:26Z</time>
      </trkpt>
      <trkpt lat="42.9031" lon="0.63295">
        <ele>504.4</ele>
        <time>2025-07-21T12:31:29Z</time>
      </trkpt>
      <trkpt lat="42.90299" lon="0.63304">
        <ele>504.8</ele>
        <time>2025-07-21T12:31:32Z</time>
      </trkpt>
      <trkpt lat="42.90295" lon="0.63308">
        <ele>504.8</ele>
        <time>2025-07-21T12:31:33Z</time>
      </trkpt>
      <trkpt lat="42.90286" lon="0.6332">
        <ele>505.2</ele>
        <time>2025-07-21T12:31:36Z</time>
      </trkpt>
      <trkpt lat="42.90274" lon="0.63337">
        <ele>505.8</ele>
        <time>2025-07-21T12:31:40Z</time>
      </trkpt>
      <trkpt lat="42.90264" lon="0.63348">
        <ele>506.2</ele>
        <time>2025-07-21T12:31:43Z</time>
      </trkpt>
      <trkpt lat="42.90252" lon="0.63361">
        <ele>506.8</ele>
        <time>2025-07-21T12:31:47Z</time>
      </trkpt>
      <trkpt lat="42.9024" lon="0.63373">
        <ele>507.6</ele>
        <time>2025-07-21T12:31:51Z</time>
      </trkpt>
      <trkpt lat="42.90234" lon="0.63379">
        <ele>508</ele>
        <time>2025-07-21T12:31:53Z</time>
      </trkpt>
      <trkpt lat="42.90211" lon="0.63393">
        <ele>509</ele>
        <time>2025-07-21T12:32:00Z</time>
      </trkpt>
      <trkpt lat="42.9019" lon="0.63394">
        <ele>510</ele>
        <time>2025-07-21T12:32:06Z</time>
      </trkpt>
      <trkpt lat="42.90186" lon="0.63393">
        <ele>510</ele>
        <time>2025-07-21T12:32:07Z</time>
      </trkpt>
      <trkpt lat="42.90159" lon="0.63384">
        <ele>511</ele>
        <time>2025-07-21T12:32:15Z</time>
      </trkpt>
      <trkpt lat="42.90134" lon="0.63366">
        <ele>512.2</ele>
        <time>2025-07-21T12:32:23Z</time>
      </trkpt>
      <trkpt lat="42.90111" lon="0.63353">
        <ele>513.2</ele>
        <time>2025-07-21T12:32:30Z</time>
      </trkpt>
      <trkpt lat="42.90088" lon="0.63342">
        <ele>514.4</ele>
        <time>2025-07-21T12:32:37Z</time>
      </trkpt>
      <trkpt lat="42.90084" lon="0.63341">
        <ele>514.4</ele>
        <time>2025-07-21T12:32:38Z</time>
      </trkpt>
      <trkpt lat="42.90063" lon="0.63333">
        <ele>515.2</ele>
        <time>2025-07-21T12:32:44Z</time>
      </trkpt>
      <trkpt lat="42.90054" lon="0.63329">
        <ele>515.4</ele>
        <time>2025-07-21T12:32:47Z</time>
      </trkpt>
      <trkpt lat="42.90042" lon="0.63325">
        <ele>516.2</ele>
        <time>2025-07-21T12:32:50Z</time>
      </trkpt>
      <trkpt lat="42.90028" lon="0.63322">
        <ele>517</ele>
        <time>2025-07-21T12:32:54Z</time>
      </trkpt>
      <trkpt lat="42.90016" lon="0.6332">
        <ele>517.2</ele>
        <time>2025-07-21T12:32:57Z</time>
      </trkpt>
      <trkpt lat="42.90001" lon="0.63316">
        <ele>517.6</ele>
        <time>2025-07-21T12:33:01Z</time>
      </trkpt>
      <trkpt lat="42.89983" lon="0.63306">
        <ele>518.4</ele>
        <time>2025-07-21T12:33:06Z</time>
      </trkpt>
      <trkpt lat="42.89973" lon="0.63299">
        <ele>519</ele>
        <time>2025-07-21T12:33:09Z</time>
      </trkpt>
      <trkpt lat="42.89962" lon="0.6329">
        <ele>519.4</ele>
        <time>2025-07-21T12:33:12Z</time>
      </trkpt>
      <trkpt lat="42.89951" lon="0.63278">
        <ele>519.4</ele>
        <time>2025-07-21T12:33:15Z</time>
      </trkpt>
      <trkpt lat="42.89935" lon="0.63246">
        <ele>519.4</ele>
        <time>2025-07-21T12:33:20Z</time>
      </trkpt>
      <trkpt lat="42.8993" lon="0.6323">
        <ele>519.4</ele>
        <time>2025-07-21T12:33:22Z</time>
      </trkpt>
      <trkpt lat="42.89926" lon="0.63203">
        <ele>519.2</ele>
        <time>2025-07-21T12:33:25Z</time>
      </trkpt>
      <trkpt lat="42.89925" lon="0.63192">
        <ele>519</ele>
        <time>2025-07-21T12:33:26Z</time>
      </trkpt>
      <trkpt lat="42.89923" lon="0.63172">
        <ele>518.6</ele>
        <time>2025-07-21T12:33:28Z</time>
      </trkpt>
      <trkpt lat="42.89922" lon="0.63161">
        <ele>518.4</ele>
        <time>2025-07-21T12:33:29Z</time>
      </trkpt>
      <trkpt lat="42.89922" lon="0.63153">
        <ele>518.2</ele>
        <time>2025-07-21T12:33:30Z</time>
      </trkpt>
      <trkpt lat="42.89921" lon="0.631">
        <ele>516.8</ele>
        <time>2025-07-21T12:33:35Z</time>
      </trkpt>
      <trkpt lat="42.89921" lon="0.63089">
        <ele>516.8</ele>
        <time>2025-07-21T12:33:36Z</time>
      </trkpt>
      <trkpt lat="42.89922" lon="0.63066">
        <ele>516.4</ele>
        <time>2025-07-21T12:33:38Z</time>
      </trkpt>
      <trkpt lat="42.89932" lon="0.63046">
        <ele>515.6</ele>
        <time>2025-07-21T12:33:40Z</time>
      </trkpt>
      <trkpt lat="42.89944" lon="0.63028">
        <ele>515</ele>
        <time>2025-07-21T12:33:42Z</time>
      </trkpt>
      <trkpt lat="42.8995" lon="0.63008">
        <ele>514.8</ele>
        <time>2025-07-21T12:33:44Z</time>
      </trkpt>
      <trkpt lat="42.89948" lon="0.62987">
        <ele>514.6</ele>
        <time>2025-07-21T12:33:46Z</time>
      </trkpt>
      <trkpt lat="42.89946" lon="0.62977">
        <ele>514.4</ele>
        <time>2025-07-21T12:33:47Z</time>
      </trkpt>
      <trkpt lat="42.89923" lon="0.62907">
        <ele>514.4</ele>
        <time>2025-07-21T12:33:54Z</time>
      </trkpt>
      <trkpt lat="42.89912" lon="0.62866">
        <ele>514.8</ele>
        <time>2025-07-21T12:33:59Z</time>
      </trkpt>
      <trkpt lat="42.899" lon="0.62824">
        <ele>515.8</ele>
        <time>2025-07-21T12:34:05Z</time>
      </trkpt>
      <trkpt lat="42.89896" lon="0.6281">
        <ele>516</ele>
        <time>2025-07-21T12:34:07Z</time>
      </trkpt>
      <trkpt lat="42.8989" lon="0.62788">
        <ele>516.8</ele>
        <time>2025-07-21T12:34:11Z</time>
      </trkpt>
      <trkpt lat="42.89883" lon="0.6276">
        <ele>518</ele>
        <time>2025-07-21T12:34:16Z</time>
      </trkpt>
      <trkpt lat="42.89875" lon="0.62726">
        <ele>518.8</ele>
        <time>2025-07-21T12:34:22Z</time>
      </trkpt>
      <trkpt lat="42.8987" lon="0.62711">
        <ele>519.4</ele>
        <time>2025-07-21T12:34:25Z</time>
      </trkpt>
      <trkpt lat="42.89867" lon="0.62699">
        <ele>519.8</ele>
        <time>2025-07-21T12:34:27Z</time>
      </trkpt>
      <trkpt lat="42.89865" lon="0.62694">
        <ele>520</ele>
        <time>2025-07-21T12:34:28Z</time>
      </trkpt>
      <trkpt lat="42.89857" lon="0.62674">
        <ele>520.6</ele>
        <time>2025-07-21T12:34:32Z</time>
      </trkpt>
      <trkpt lat="42.89855" lon="0.62669">
        <ele>520.6</ele>
        <time>2025-07-21T12:34:33Z</time>
      </trkpt>
      <trkpt lat="42.89851" lon="0.6266">
        <ele>521</ele>
        <time>2025-07-21T12:34:35Z</time>
      </trkpt>
      <trkpt lat="42.89842" lon="0.62641">
        <ele>521.4</ele>
        <time>2025-07-21T12:34:39Z</time>
      </trkpt>
      <trkpt lat="42.8983" lon="0.62619">
        <ele>522.2</ele>
        <time>2025-07-21T12:34:44Z</time>
      </trkpt>
      <trkpt lat="42.89824" lon="0.62611">
        <ele>522.4</ele>
        <time>2025-07-21T12:34:46Z</time>
      </trkpt>
      <trkpt lat="42.89806" lon="0.62585">
        <ele>523.2</ele>
        <time>2025-07-21T12:34:52Z</time>
      </trkpt>
      <trkpt lat="42.89803" lon="0.6258">
        <ele>523.2</ele>
        <time>2025-07-21T12:34:53Z</time>
      </trkpt>
      <trkpt lat="42.89799" lon="0.62571">
        <ele>523.4</ele>
        <time>2025-07-21T12:34:55Z</time>
      </trkpt>
      <trkpt lat="42.89797" lon="0.62566">
        <ele>523.4</ele>
        <time>2025-07-21T12:34:56Z</time>
      </trkpt>
      <trkpt lat="42.89795" lon="0.62559">
        <ele>523.6</ele>
        <time>2025-07-21T12:34:57Z</time>
      </trkpt>
      <trkpt lat="42.89792" lon="0.6254">
        <ele>524.2</ele>
        <time>2025-07-21T12:35:01Z</time>
      </trkpt>
      <trkpt lat="42.89784" lon="0.62509">
        <ele>525.4</ele>
        <time>2025-07-21T12:35:07Z</time>
      </trkpt>
      <trkpt lat="42.8976" lon="0.62482">
        <ele>526</ele>
        <time>2025-07-21T12:35:14Z</time>
      </trkpt>
      <trkpt lat="42.89749" lon="0.6247">
        <ele>526.4</ele>
        <time>2025-07-21T12:35:17Z</time>
      </trkpt>
      <trkpt lat="42.89726" lon="0.62448">
        <ele>527</ele>
        <time>2025-07-21T12:35:23Z</time>
      </trkpt>
      <trkpt lat="42.89718" lon="0.62441">
        <ele>527.4</ele>
        <time>2025-07-21T12:35:25Z</time>
      </trkpt>
      <trkpt lat="42.89681" lon="0.62407">
        <ele>528.2</ele>
        <time>2025-07-21T12:35:34Z</time>
      </trkpt>
      <trkpt lat="42.89677" lon="0.62403">
        <ele>528.4</ele>
        <time>2025-07-21T12:35:35Z</time>
      </trkpt>
      <trkpt lat="42.89645" lon="0.62374">
        <ele>529.8</ele>
        <time>2025-07-21T12:35:43Z</time>
      </trkpt>
      <trkpt lat="42.89641" lon="0.6237">
        <ele>529.8</ele>
        <time>2025-07-21T12:35:44Z</time>
      </trkpt>
      <trkpt lat="42.89617" lon="0.62348">
        <ele>530.8</ele>
        <time>2025-07-21T12:35:50Z</time>
      </trkpt>
      <trkpt lat="42.89605" lon="0.62337">
        <ele>531</ele>
        <time>2025-07-21T12:35:53Z</time>
      </trkpt>
      <trkpt lat="42.89585" lon="0.62319">
        <ele>531.8</ele>
        <time>2025-07-21T12:35:58Z</time>
      </trkpt>
      <trkpt lat="42.89561" lon="0.62297">
        <ele>532.6</ele>
        <time>2025-07-21T12:36:04Z</time>
      </trkpt>
      <trkpt lat="42.89553" lon="0.62289">
        <ele>532.8</ele>
        <time>2025-07-21T12:36:06Z</time>
      </trkpt>
      <trkpt lat="42.89528" lon="0.62255">
        <ele>533.6</ele>
        <time>2025-07-21T12:36:13Z</time>
      </trkpt>
      <trkpt lat="42.89515" lon="0.62236">
        <ele>534</ele>
        <time>2025-07-21T12:36:17Z</time>
      </trkpt>
      <trkpt lat="42.89501" lon="0.62218">
        <ele>534.4</ele>
        <time>2025-07-21T12:36:21Z</time>
      </trkpt>
      <trkpt lat="42.89489" lon="0.62206">
        <ele>535</ele>
        <time>2025-07-21T12:36:24Z</time>
      </trkpt>
      <trkpt lat="42.89461" lon="0.62181">
        <ele>535.4</ele>
        <time>2025-07-21T12:36:30Z</time>
      </trkpt>
      <trkpt lat="42.8944" lon="0.62165">
        <ele>535.4</ele>
        <time>2025-07-21T12:36:34Z</time>
      </trkpt>
      <trkpt lat="42.89419" lon="0.62151">
        <ele>535.2</ele>
        <time>2025-07-21T12:36:38Z</time>
      </trkpt>
      <trkpt lat="42.89385" lon="0.6213">
        <ele>535.4</ele>
        <time>2025-07-21T12:36:44Z</time>
      </trkpt>
      <trkpt lat="42.89373" lon="0.62121">
        <ele>535.4</ele>
        <time>2025-07-21T12:36:46Z</time>
      </trkpt>
      <trkpt lat="42.89368" lon="0.62117">
        <ele>535.4</ele>
        <time>2025-07-21T12:36:47Z</time>
      </trkpt>
      <trkpt lat="42.89351" lon="0.62105">
        <ele>535.6</ele>
        <time>2025-07-21T12:36:50Z</time>
      </trkpt>
      <trkpt lat="42.8933" lon="0.6209">
        <ele>535.6</ele>
        <time>2025-07-21T12:36:54Z</time>
      </trkpt>
      <trkpt lat="42.89319" lon="0.62085">
        <ele>535.6</ele>
        <time>2025-07-21T12:36:56Z</time>
      </trkpt>
      <trkpt lat="42.89308" lon="0.62084">
        <ele>535.8</ele>
        <time>2025-07-21T12:36:58Z</time>
      </trkpt>
      <trkpt lat="42.89303" lon="0.62084">
        <ele>535.8</ele>
        <time>2025-07-21T12:36:59Z</time>
      </trkpt>
      <trkpt lat="42.89298" lon="0.62083">
        <ele>536</ele>
        <time>2025-07-21T12:37:00Z</time>
      </trkpt>
      <trkpt lat="42.89286" lon="0.62087">
        <ele>536.4</ele>
        <time>2025-07-21T12:37:02Z</time>
      </trkpt>
      <trkpt lat="42.89268" lon="0.62099">
        <ele>536.8</ele>
        <time>2025-07-21T12:37:05Z</time>
      </trkpt>
      <trkpt lat="42.89263" lon="0.62102">
        <ele>536.8</ele>
        <time>2025-07-21T12:37:06Z</time>
      </trkpt>
      <trkpt lat="42.89232" lon="0.62119">
        <ele>536.8</ele>
        <time>2025-07-21T12:37:11Z</time>
      </trkpt>
      <trkpt lat="42.8919" lon="0.62146">
        <ele>536.4</ele>
        <time>2025-07-21T12:37:17Z</time>
      </trkpt>
      <trkpt lat="42.89183" lon="0.62149">
        <ele>536</ele>
        <time>2025-07-21T12:37:18Z</time>
      </trkpt>
      <trkpt lat="42.89167" lon="0.62154">
        <ele>535.4</ele>
        <time>2025-07-21T12:37:20Z</time>
      </trkpt>
      <trkpt lat="42.89159" lon="0.62154">
        <ele>535.2</ele>
        <time>2025-07-21T12:37:21Z</time>
      </trkpt>
      <trkpt lat="42.89152" lon="0.62154">
        <ele>535</ele>
        <time>2025-07-21T12:37:22Z</time>
      </trkpt>
      <trkpt lat="42.89136" lon="0.62147">
        <ele>534.8</ele>
        <time>2025-07-21T12:37:24Z</time>
      </trkpt>
      <trkpt lat="42.89126" lon="0.62136">
        <ele>534.8</ele>
        <time>2025-07-21T12:37:26Z</time>
      </trkpt>
      <trkpt lat="42.89122" lon="0.62128">
        <ele>534.8</ele>
        <time>2025-07-21T12:37:27Z</time>
      </trkpt>
      <trkpt lat="42.89105" lon="0.62086">
        <ele>535.2</ele>
        <time>2025-07-21T12:37:32Z</time>
      </trkpt>
      <trkpt lat="42.89084" lon="0.62033">
        <ele>535.8</ele>
        <time>2025-07-21T12:37:39Z</time>
      </trkpt>
      <trkpt lat="42.89068" lon="0.62001">
        <ele>536.4</ele>
        <time>2025-07-21T12:37:44Z</time>
      </trkpt>
      <trkpt lat="42.89064" lon="0.61996">
        <ele>536.6</ele>
        <time>2025-07-21T12:37:45Z</time>
      </trkpt>
      <trkpt lat="42.8906" lon="0.61992">
        <ele>536.8</ele>
        <time>2025-07-21T12:37:46Z</time>
      </trkpt>
      <trkpt lat="42.8905" lon="0.61987">
        <ele>537.2</ele>
        <time>2025-07-21T12:37:48Z</time>
      </trkpt>
      <trkpt lat="42.8904" lon="0.61988">
        <ele>537.6</ele>
        <time>2025-07-21T12:37:50Z</time>
      </trkpt>
      <trkpt lat="42.89035" lon="0.6199">
        <ele>537.8</ele>
        <time>2025-07-21T12:37:51Z</time>
      </trkpt>
      <trkpt lat="42.8903" lon="0.61994">
        <ele>537.8</ele>
        <time>2025-07-21T12:37:52Z</time>
      </trkpt>
      <trkpt lat="42.8902" lon="0.62002">
        <ele>538.2</ele>
        <time>2025-07-21T12:37:54Z</time>
      </trkpt>
      <trkpt lat="42.89014" lon="0.62006">
        <ele>538</ele>
        <time>2025-07-21T12:37:55Z</time>
      </trkpt>
      <trkpt lat="42.89002" lon="0.6201">
        <ele>538.2</ele>
        <time>2025-07-21T12:37:57Z</time>
      </trkpt>
      <trkpt lat="42.88995" lon="0.6201">
        <ele>538.2</ele>
        <time>2025-07-21T12:37:58Z</time>
      </trkpt>
      <trkpt lat="42.88957" lon="0.62005">
        <ele>538.2</ele>
        <time>2025-07-21T12:38:04Z</time>
      </trkpt>
      <trkpt lat="42.88903" lon="0.61994">
        <ele>538.4</ele>
        <time>2025-07-21T12:38:13Z</time>
      </trkpt>
      <trkpt lat="42.88857" lon="0.61983">
        <ele>538.6</ele>
        <time>2025-07-21T12:38:21Z</time>
      </trkpt>
      <trkpt lat="42.88851" lon="0.61981">
        <ele>538.6</ele>
        <time>2025-07-21T12:38:22Z</time>
      </trkpt>
      <trkpt lat="42.888" lon="0.61968">
        <ele>539.6</ele>
        <time>2025-07-21T12:38:31Z</time>
      </trkpt>
      <trkpt lat="42.88794" lon="0.61966">
        <ele>540</ele>
        <time>2025-07-21T12:38:32Z</time>
      </trkpt>
      <trkpt lat="42.88769" lon="0.61958">
        <ele>540.8</ele>
        <time>2025-07-21T12:38:37Z</time>
      </trkpt>
      <trkpt lat="42.8876" lon="0.61955">
        <ele>541.2</ele>
        <time>2025-07-21T12:38:39Z</time>
      </trkpt>
      <trkpt lat="42.88745" lon="0.61949">
        <ele>541.4</ele>
        <time>2025-07-21T12:38:42Z</time>
      </trkpt>
      <trkpt lat="42.88736" lon="0.61943">
        <ele>541.8</ele>
        <time>2025-07-21T12:38:44Z</time>
      </trkpt>
      <trkpt lat="42.8872" lon="0.61927">
        <ele>542.4</ele>
        <time>2025-07-21T12:38:48Z</time>
      </trkpt>
      <trkpt lat="42.88712" lon="0.61918">
        <ele>542.8</ele>
        <time>2025-07-21T12:38:50Z</time>
      </trkpt>
      <trkpt lat="42.88703" lon="0.61909">
        <ele>543</ele>
        <time>2025-07-21T12:38:52Z</time>
      </trkpt>
      <trkpt lat="42.88669" lon="0.61873">
        <ele>544</ele>
        <time>2025-07-21T12:39:00Z</time>
      </trkpt>
      <trkpt lat="42.8866" lon="0.61865">
        <ele>544.2</ele>
        <time>2025-07-21T12:39:02Z</time>
      </trkpt>
      <trkpt lat="42.88631" lon="0.61845">
        <ele>544.4</ele>
        <time>2025-07-21T12:39:08Z</time>
      </trkpt>
      <trkpt lat="42.88622" lon="0.61837">
        <ele>544.6</ele>
        <time>2025-07-21T12:39:10Z</time>
      </trkpt>
      <trkpt lat="42.88594" lon="0.61813">
        <ele>544.8</ele>
        <time>2025-07-21T12:39:16Z</time>
      </trkpt>
      <trkpt lat="42.88575" lon="0.61791">
        <ele>545.2</ele>
        <time>2025-07-21T12:39:21Z</time>
      </trkpt>
      <trkpt lat="42.88568" lon="0.61781">
        <ele>545.8</ele>
        <time>2025-07-21T12:39:23Z</time>
      </trkpt>
      <trkpt lat="42.88558" lon="0.61765">
        <ele>546.4</ele>
        <time>2025-07-21T12:39:26Z</time>
      </trkpt>
      <trkpt lat="42.88544" lon="0.6174">
        <ele>547.6</ele>
        <time>2025-07-21T12:39:31Z</time>
      </trkpt>
      <trkpt lat="42.88534" lon="0.6172">
        <ele>548.6</ele>
        <time>2025-07-21T12:39:35Z</time>
      </trkpt>
      <trkpt lat="42.88532" lon="0.61716">
        <ele>548.8</ele>
        <time>2025-07-21T12:39:36Z</time>
      </trkpt>
      <trkpt lat="42.88527" lon="0.61707">
        <ele>549</ele>
        <time>2025-07-21T12:39:38Z</time>
      </trkpt>
      <trkpt lat="42.88512" lon="0.61687">
        <ele>550</ele>
        <time>2025-07-21T12:39:43Z</time>
      </trkpt>
      <trkpt lat="42.88505" lon="0.6168">
        <ele>550.4</ele>
        <time>2025-07-21T12:39:45Z</time>
      </trkpt>
      <trkpt lat="42.88498" lon="0.61674">
        <ele>550.6</ele>
        <time>2025-07-21T12:39:47Z</time>
      </trkpt>
      <trkpt lat="42.88491" lon="0.61668">
        <ele>550.8</ele>
        <time>2025-07-21T12:39:49Z</time>
      </trkpt>
      <trkpt lat="42.88465" lon="0.61652">
        <ele>552</ele>
        <time>2025-07-21T12:39:56Z</time>
      </trkpt>
      <trkpt lat="42.88461" lon="0.6165">
        <ele>552.2</ele>
        <time>2025-07-21T12:39:57Z</time>
      </trkpt>
      <trkpt lat="42.88457" lon="0.61648">
        <ele>552.2</ele>
        <time>2025-07-21T12:39:58Z</time>
      </trkpt>
      <trkpt lat="42.88436" lon="0.61637">
        <ele>552.8</ele>
        <time>2025-07-21T12:40:03Z</time>
      </trkpt>
      <trkpt lat="42.88433" lon="0.61634">
        <ele>553</ele>
        <time>2025-07-21T12:40:04Z</time>
      </trkpt>
      <trkpt lat="42.88429" lon="0.61631">
        <ele>553</ele>
        <time>2025-07-21T12:40:05Z</time>
      </trkpt>
      <trkpt lat="42.8841" lon="0.61609">
        <ele>554</ele>
        <time>2025-07-21T12:40:11Z</time>
      </trkpt>
      <trkpt lat="42.88389" lon="0.61581">
        <ele>555</ele>
        <time>2025-07-21T12:40:18Z</time>
      </trkpt>
      <trkpt lat="42.88386" lon="0.61577">
        <ele>555.2</ele>
        <time>2025-07-21T12:40:19Z</time>
      </trkpt>
      <trkpt lat="42.88371" lon="0.61549">
        <ele>556</ele>
        <time>2025-07-21T12:40:25Z</time>
      </trkpt>
      <trkpt lat="42.88364" lon="0.61534">
        <ele>556.4</ele>
        <time>2025-07-21T12:40:28Z</time>
      </trkpt>
      <trkpt lat="42.88353" lon="0.61508">
        <ele>557</ele>
        <time>2025-07-21T12:40:33Z</time>
      </trkpt>
      <trkpt lat="42.8834" lon="0.61482">
        <ele>557.6</ele>
        <time>2025-07-21T12:40:38Z</time>
      </trkpt>
      <trkpt lat="42.8833" lon="0.61459">
        <ele>558.2</ele>
        <time>2025-07-21T12:40:42Z</time>
      </trkpt>
      <trkpt lat="42.88315" lon="0.61434">
        <ele>558.6</ele>
        <time>2025-07-21T12:40:47Z</time>
      </trkpt>
      <trkpt lat="42.88304" lon="0.6142">
        <ele>558.6</ele>
        <time>2025-07-21T12:40:50Z</time>
      </trkpt>
      <trkpt lat="42.88291" lon="0.61407">
        <ele>558.6</ele>
        <time>2025-07-21T12:40:53Z</time>
      </trkpt>
      <trkpt lat="42.88273" lon="0.61392">
        <ele>559</ele>
        <time>2025-07-21T12:40:57Z</time>
      </trkpt>
      <trkpt lat="42.88262" lon="0.61387">
        <ele>559</ele>
        <time>2025-07-21T12:40:59Z</time>
      </trkpt>
      <trkpt lat="42.88257" lon="0.61385">
        <ele>559</ele>
        <time>2025-07-21T12:41:00Z</time>
      </trkpt>
      <trkpt lat="42.88218" lon="0.61376">
        <ele>559.6</ele>
        <time>2025-07-21T12:41:07Z</time>
      </trkpt>
      <trkpt lat="42.88164" lon="0.61367">
        <ele>559.8</ele>
        <time>2025-07-21T12:41:17Z</time>
      </trkpt>
      <trkpt lat="42.88143" lon="0.61363">
        <ele>560.2</ele>
        <time>2025-07-21T12:41:21Z</time>
      </trkpt>
      <trkpt lat="42.8811" lon="0.61358">
        <ele>560.4</ele>
        <time>2025-07-21T12:41:27Z</time>
      </trkpt>
      <trkpt lat="42.88099" lon="0.61356">
        <ele>560.8</ele>
        <time>2025-07-21T12:41:29Z</time>
      </trkpt>
      <trkpt lat="42.88078" lon="0.61353">
        <ele>561.2</ele>
        <time>2025-07-21T12:41:33Z</time>
      </trkpt>
      <trkpt lat="42.88046" lon="0.61348">
        <ele>561.8</ele>
        <time>2025-07-21T12:41:39Z</time>
      </trkpt>
      <trkpt lat="42.88019" lon="0.61345">
        <ele>562.4</ele>
        <time>2025-07-21T12:41:44Z</time>
      </trkpt>
      <trkpt lat="42.87986" lon="0.61346">
        <ele>563.2</ele>
        <time>2025-07-21T12:41:50Z</time>
      </trkpt>
      <trkpt lat="42.87964" lon="0.61352">
        <ele>563.6</ele>
        <time>2025-07-21T12:41:54Z</time>
      </trkpt>
      <trkpt lat="42.87937" lon="0.61363">
        <ele>563.8</ele>
        <time>2025-07-21T12:41:59Z</time>
      </trkpt>
      <trkpt lat="42.87881" lon="0.61385">
        <ele>563.8</ele>
        <time>2025-07-21T12:42:09Z</time>
      </trkpt>
      <trkpt lat="42.87869" lon="0.61389">
        <ele>564</ele>
        <time>2025-07-21T12:42:11Z</time>
      </trkpt>
      <trkpt lat="42.87811" lon="0.61407">
        <ele>564.2</ele>
        <time>2025-07-21T12:42:21Z</time>
      </trkpt>
      <trkpt lat="42.87769" lon="0.61406">
        <ele>564.4</ele>
        <time>2025-07-21T12:42:28Z</time>
      </trkpt>
      <trkpt lat="42.87734" lon="0.61393">
        <ele>564.4</ele>
        <time>2025-07-21T12:42:34Z</time>
      </trkpt>
      <trkpt lat="42.8773" lon="0.6139">
        <ele>564.4</ele>
        <time>2025-07-21T12:42:35Z</time>
      </trkpt>
      <trkpt lat="42.87677" lon="0.61365">
        <ele>565.4</ele>
        <time>2025-07-21T12:42:44Z</time>
      </trkpt>
      <trkpt lat="42.87665" lon="0.6136">
        <ele>565.6</ele>
        <time>2025-07-21T12:42:46Z</time>
      </trkpt>
      <trkpt lat="42.87655" lon="0.61355">
        <ele>565.8</ele>
        <time>2025-07-21T12:42:48Z</time>
      </trkpt>
      <trkpt lat="42.87613" lon="0.61335">
        <ele>566</ele>
        <time>2025-07-21T12:42:55Z</time>
      </trkpt>
      <trkpt lat="42.87602" lon="0.61331">
        <ele>566.2</ele>
        <time>2025-07-21T12:42:57Z</time>
      </trkpt>
      <trkpt lat="42.87584" lon="0.61322">
        <ele>566.4</ele>
        <time>2025-07-21T12:43:00Z</time>
      </trkpt>
      <trkpt lat="42.87548" lon="0.61305">
        <ele>567</ele>
        <time>2025-07-21T12:43:06Z</time>
      </trkpt>
      <trkpt lat="42.87508" lon="0.61286">
        <ele>567.6</ele>
        <time>2025-07-21T12:43:13Z</time>
      </trkpt>
      <trkpt lat="42.87478" lon="0.61274">
        <ele>567.6</ele>
        <time>2025-07-21T12:43:18Z</time>
      </trkpt>
      <trkpt lat="42.87427" lon="0.61253">
        <ele>568.2</ele>
        <time>2025-07-21T12:43:27Z</time>
      </trkpt>
      <trkpt lat="42.87415" lon="0.61248">
        <ele>568.4</ele>
        <time>2025-07-21T12:43:29Z</time>
      </trkpt>
      <trkpt lat="42.87364" lon="0.61222">
        <ele>568.8</ele>
        <time>2025-07-21T12:43:38Z</time>
      </trkpt>
      <trkpt lat="42.87337" lon="0.61203">
        <ele>569.2</ele>
        <time>2025-07-21T12:43:43Z</time>
      </trkpt>
      <trkpt lat="42.8731" lon="0.61183">
        <ele>569.6</ele>
        <time>2025-07-21T12:43:48Z</time>
      </trkpt>
      <trkpt lat="42.87261" lon="0.61148">
        <ele>570.2</ele>
        <time>2025-07-21T12:43:57Z</time>
      </trkpt>
      <trkpt lat="42.87255" lon="0.61144">
        <ele>570.2</ele>
        <time>2025-07-21T12:43:58Z</time>
      </trkpt>
      <trkpt lat="42.87206" lon="0.61116">
        <ele>569.6</ele>
        <time>2025-07-21T12:44:06Z</time>
      </trkpt>
      <trkpt lat="42.87155" lon="0.61097">
        <ele>569.6</ele>
        <time>2025-07-21T12:44:14Z</time>
      </trkpt>
      <trkpt lat="42.87101" lon="0.61077">
        <ele>569.8</ele>
        <time>2025-07-21T12:44:23Z</time>
      </trkpt>
      <trkpt lat="42.87096" lon="0.61073">
        <ele>569.8</ele>
        <time>2025-07-21T12:44:24Z</time>
      </trkpt>
      <trkpt lat="42.87086" lon="0.61067">
        <ele>570.2</ele>
        <time>2025-07-21T12:44:26Z</time>
      </trkpt>
      <trkpt lat="42.8707" lon="0.61055">
        <ele>571</ele>
        <time>2025-07-21T12:44:30Z</time>
      </trkpt>
      <trkpt lat="42.87063" lon="0.61049">
        <ele>571.6</ele>
        <time>2025-07-21T12:44:32Z</time>
      </trkpt>
      <trkpt lat="42.8705" lon="0.6104">
        <ele>572.4</ele>
        <time>2025-07-21T12:44:36Z</time>
      </trkpt>
      <trkpt lat="42.87039" lon="0.61031">
        <ele>573.8</ele>
        <time>2025-07-21T12:44:40Z</time>
      </trkpt>
      <trkpt lat="42.87033" lon="0.61026">
        <ele>574.4</ele>
        <time>2025-07-21T12:44:42Z</time>
      </trkpt>
      <trkpt lat="42.87027" lon="0.61022">
        <ele>575</ele>
        <time>2025-07-21T12:44:44Z</time>
      </trkpt>
      <trkpt lat="42.87017" lon="0.61013">
        <ele>576.2</ele>
        <time>2025-07-21T12:44:48Z</time>
      </trkpt>
      <trkpt lat="42.87007" lon="0.61005">
        <ele>577</ele>
        <time>2025-07-21T12:44:52Z</time>
      </trkpt>
      <trkpt lat="42.87001" lon="0.61002">
        <ele>577.4</ele>
        <time>2025-07-21T12:44:54Z</time>
      </trkpt>
      <trkpt lat="42.86984" lon="0.60994">
        <ele>578.6</ele>
        <time>2025-07-21T12:45:00Z</time>
      </trkpt>
      <trkpt lat="42.86967" lon="0.60987">
        <ele>580</ele>
        <time>2025-07-21T12:45:05Z</time>
      </trkpt>
      <trkpt lat="42.86952" lon="0.6098">
        <ele>581</ele>
        <time>2025-07-21T12:45:10Z</time>
      </trkpt>
      <trkpt lat="42.86936" lon="0.60975">
        <ele>582.2</ele>
        <time>2025-07-21T12:45:15Z</time>
      </trkpt>
      <trkpt lat="42.86923" lon="0.60971">
        <ele>582.8</ele>
        <time>2025-07-21T12:45:19Z</time>
      </trkpt>
      <trkpt lat="42.8691" lon="0.60967">
        <ele>583.6</ele>
        <time>2025-07-21T12:45:23Z</time>
      </trkpt>
      <trkpt lat="42.86882" lon="0.6096">
        <ele>584.6</ele>
        <time>2025-07-21T12:45:31Z</time>
      </trkpt>
      <trkpt lat="42.86853" lon="0.60948">
        <ele>585.4</ele>
        <time>2025-07-21T12:45:39Z</time>
      </trkpt>
      <trkpt lat="42.86845" lon="0.60945">
        <ele>585.6</ele>
        <time>2025-07-21T12:45:41Z</time>
      </trkpt>
      <trkpt lat="42.86822" lon="0.60932">
        <ele>586.2</ele>
        <time>2025-07-21T12:45:47Z</time>
      </trkpt>
      <trkpt lat="42.8679" lon="0.60903">
        <ele>586.8</ele>
        <time>2025-07-21T12:45:55Z</time>
      </trkpt>
      <trkpt lat="42.86759" lon="0.60859">
        <ele>587.2</ele>
        <time>2025-07-21T12:46:03Z</time>
      </trkpt>
      <trkpt lat="42.86728" lon="0.60818">
        <ele>586.4</ele>
        <time>2025-07-21T12:46:10Z</time>
      </trkpt>
      <trkpt lat="42.8671" lon="0.60796">
        <ele>586.2</ele>
        <time>2025-07-21T12:46:14Z</time>
      </trkpt>
      <trkpt lat="42.86696" lon="0.60781">
        <ele>586.2</ele>
        <time>2025-07-21T12:46:17Z</time>
      </trkpt>
      <trkpt lat="42.86652" lon="0.60738">
        <ele>586.4</ele>
        <time>2025-07-21T12:46:26Z</time>
      </trkpt>
      <trkpt lat="42.86606" lon="0.60696">
        <ele>586.8</ele>
        <time>2025-07-21T12:46:35Z</time>
      </trkpt>
      <trkpt lat="42.86558" lon="0.60654">
        <ele>587.8</ele>
        <time>2025-07-21T12:46:44Z</time>
      </trkpt>
      <trkpt lat="42.86549" lon="0.60643">
        <ele>587.8</ele>
        <time>2025-07-21T12:46:46Z</time>
      </trkpt>
      <trkpt lat="42.86501" lon="0.60599">
        <ele>588.4</ele>
        <time>2025-07-21T12:46:55Z</time>
      </trkpt>
      <trkpt lat="42.86479" lon="0.60578">
        <ele>588.4</ele>
        <time>2025-07-21T12:46:59Z</time>
      </trkpt>
      <trkpt lat="42.86435" lon="0.60542">
        <ele>587.6</ele>
        <time>2025-07-21T12:47:06Z</time>
      </trkpt>
      <trkpt lat="42.86396" lon="0.60521">
        <ele>586.4</ele>
        <time>2025-07-21T12:47:11Z</time>
      </trkpt>
      <trkpt lat="42.86388" lon="0.60518">
        <ele>586.2</ele>
        <time>2025-07-21T12:47:12Z</time>
      </trkpt>
      <trkpt lat="42.86353" lon="0.6051">
        <ele>585.2</ele>
        <time>2025-07-21T12:47:16Z</time>
      </trkpt>
      <trkpt lat="42.86334" lon="0.60508">
        <ele>584.8</ele>
        <time>2025-07-21T12:47:18Z</time>
      </trkpt>
      <trkpt lat="42.86315" lon="0.60507">
        <ele>584</ele>
        <time>2025-07-21T12:47:20Z</time>
      </trkpt>
      <trkpt lat="42.86287" lon="0.60508">
        <ele>583</ele>
        <time>2025-07-21T12:47:23Z</time>
      </trkpt>
      <trkpt lat="42.86278" lon="0.6051">
        <ele>582.8</ele>
        <time>2025-07-21T12:47:24Z</time>
      </trkpt>
      <trkpt lat="42.8624" lon="0.60521">
        <ele>581.6</ele>
        <time>2025-07-21T12:47:28Z</time>
      </trkpt>
      <trkpt lat="42.86231" lon="0.60524">
        <ele>581.4</ele>
        <time>2025-07-21T12:47:29Z</time>
      </trkpt>
      <trkpt lat="42.86171" lon="0.60545">
        <ele>580.8</ele>
        <time>2025-07-21T12:47:36Z</time>
      </trkpt>
      <trkpt lat="42.86115" lon="0.6056">
        <ele>580.8</ele>
        <time>2025-07-21T12:47:43Z</time>
      </trkpt>
      <trkpt lat="42.86108" lon="0.60561">
        <ele>581</ele>
        <time>2025-07-21T12:47:44Z</time>
      </trkpt>
      <trkpt lat="42.86057" lon="0.60575">
        <ele>581.2</ele>
        <time>2025-07-21T12:47:51Z</time>
      </trkpt>
      <trkpt lat="42.86043" lon="0.6058">
        <ele>581.4</ele>
        <time>2025-07-21T12:47:53Z</time>
      </trkpt>
      <trkpt lat="42.86022" lon="0.60581">
        <ele>581.4</ele>
        <time>2025-07-21T12:47:56Z</time>
      </trkpt>
      <trkpt lat="42.85968" lon="0.60571">
        <ele>581.6</ele>
        <time>2025-07-21T12:48:04Z</time>
      </trkpt>
      <trkpt lat="42.85942" lon="0.60562">
        <ele>581.8</ele>
        <time>2025-07-21T12:48:08Z</time>
      </trkpt>
      <trkpt lat="42.85915" lon="0.60557">
        <ele>582</ele>
        <time>2025-07-21T12:48:12Z</time>
      </trkpt>
      <trkpt lat="42.85874" lon="0.60555">
        <ele>582.4</ele>
        <time>2025-07-21T12:48:18Z</time>
      </trkpt>
      <trkpt lat="42.85854" lon="0.60555">
        <ele>582.6</ele>
        <time>2025-07-21T12:48:21Z</time>
      </trkpt>
      <trkpt lat="42.8582" lon="0.60558">
        <ele>582.8</ele>
        <time>2025-07-21T12:48:26Z</time>
      </trkpt>
      <trkpt lat="42.85813" lon="0.60559">
        <ele>582.8</ele>
        <time>2025-07-21T12:48:27Z</time>
      </trkpt>
      <trkpt lat="42.85779" lon="0.60571">
        <ele>583</ele>
        <time>2025-07-21T12:48:32Z</time>
      </trkpt>
      <trkpt lat="42.85732" lon="0.60588">
        <ele>582.4</ele>
        <time>2025-07-21T12:48:39Z</time>
      </trkpt>
      <trkpt lat="42.85685" lon="0.60599">
        <ele>582.4</ele>
        <time>2025-07-21T12:48:46Z</time>
      </trkpt>
      <trkpt lat="42.85644" lon="0.60599">
        <ele>582.6</ele>
        <time>2025-07-21T12:48:52Z</time>
      </trkpt>
      <trkpt lat="42.85631" lon="0.60598">
        <ele>582.6</ele>
        <time>2025-07-21T12:48:54Z</time>
      </trkpt>
      <trkpt lat="42.85618" lon="0.60595">
        <ele>582.6</ele>
        <time>2025-07-21T12:48:56Z</time>
      </trkpt>
      <trkpt lat="42.85574" lon="0.60571">
        <ele>582.4</ele>
        <time>2025-07-21T12:49:03Z</time>
      </trkpt>
      <trkpt lat="42.85561" lon="0.60563">
        <ele>582.4</ele>
        <time>2025-07-21T12:49:05Z</time>
      </trkpt>
      <trkpt lat="42.85505" lon="0.60532">
        <ele>582.4</ele>
        <time>2025-07-21T12:49:14Z</time>
      </trkpt>
      <trkpt lat="42.8545" lon="0.60496">
        <ele>582.4</ele>
        <time>2025-07-21T12:49:23Z</time>
      </trkpt>
      <trkpt lat="42.85403" lon="0.60454">
        <ele>582.2</ele>
        <time>2025-07-21T12:49:31Z</time>
      </trkpt>
      <trkpt lat="42.85364" lon="0.60402">
        <ele>582.2</ele>
        <time>2025-07-21T12:49:39Z</time>
      </trkpt>
      <trkpt lat="42.85354" lon="0.60388">
        <ele>582</ele>
        <time>2025-07-21T12:49:41Z</time>
      </trkpt>
      <trkpt lat="42.85322" lon="0.60345">
        <ele>582.4</ele>
        <time>2025-07-21T12:49:48Z</time>
      </trkpt>
      <trkpt lat="42.85295" lon="0.60311">
        <ele>583</ele>
        <time>2025-07-21T12:49:54Z</time>
      </trkpt>
      <trkpt lat="42.85289" lon="0.60307">
        <ele>583</ele>
        <time>2025-07-21T12:49:55Z</time>
      </trkpt>
      <trkpt lat="42.85269" lon="0.60289">
        <ele>583.4</ele>
        <time>2025-07-21T12:49:59Z</time>
      </trkpt>
      <trkpt lat="42.85248" lon="0.60275">
        <ele>584</ele>
        <time>2025-07-21T12:50:03Z</time>
      </trkpt>
      <trkpt lat="42.85232" lon="0.60267">
        <ele>584.2</ele>
        <time>2025-07-21T12:50:06Z</time>
      </trkpt>
      <trkpt lat="42.85185" lon="0.60251">
        <ele>584.6</ele>
        <time>2025-07-21T12:50:14Z</time>
      </trkpt>
      <trkpt lat="42.85138" lon="0.60247">
        <ele>584.4</ele>
        <time>2025-07-21T12:50:21Z</time>
      </trkpt>
      <trkpt lat="42.85079" lon="0.60247">
        <ele>584.4</ele>
        <time>2025-07-21T12:50:29Z</time>
      </trkpt>
      <trkpt lat="42.85018" lon="0.60249">
        <ele>583.4</ele>
        <time>2025-07-21T12:50:37Z</time>
      </trkpt>
      <trkpt lat="42.8501" lon="0.60249">
        <ele>583.4</ele>
        <time>2025-07-21T12:50:38Z</time>
      </trkpt>
      <trkpt lat="42.85003" lon="0.60249">
        <ele>583.4</ele>
        <time>2025-07-21T12:50:39Z</time>
      </trkpt>
      <trkpt lat="42.84943" lon="0.60258">
        <ele>583.2</ele>
        <time>2025-07-21T12:50:47Z</time>
      </trkpt>
      <trkpt lat="42.84906" lon="0.60267">
        <ele>583</ele>
        <time>2025-07-21T12:50:52Z</time>
      </trkpt>
      <trkpt lat="42.84876" lon="0.60274">
        <ele>583</ele>
        <time>2025-07-21T12:50:56Z</time>
      </trkpt>
      <trkpt lat="42.84821" lon="0.60287">
        <ele>583.2</ele>
        <time>2025-07-21T12:51:04Z</time>
      </trkpt>
      <trkpt lat="42.84808" lon="0.60291">
        <ele>583.2</ele>
        <time>2025-07-21T12:51:06Z</time>
      </trkpt>
      <trkpt lat="42.84754" lon="0.60304">
        <ele>583.8</ele>
        <time>2025-07-21T12:51:14Z</time>
      </trkpt>
      <trkpt lat="42.84748" lon="0.60306">
        <ele>584</ele>
        <time>2025-07-21T12:51:15Z</time>
      </trkpt>
      <trkpt lat="42.84715" lon="0.60313">
        <ele>584.2</ele>
        <time>2025-07-21T12:51:20Z</time>
      </trkpt>
      <trkpt lat="42.84671" lon="0.60325">
        <ele>584.8</ele>
        <time>2025-07-21T12:51:27Z</time>
      </trkpt>
      <trkpt lat="42.84647" lon="0.6033">
        <ele>585.2</ele>
        <time>2025-07-21T12:51:31Z</time>
      </trkpt>
      <trkpt lat="42.84624" lon="0.60336">
        <ele>586</ele>
        <time>2025-07-21T12:51:35Z</time>
      </trkpt>
      <trkpt lat="42.84607" lon="0.6034">
        <ele>586.4</ele>
        <time>2025-07-21T12:51:38Z</time>
      </trkpt>
      <trkpt lat="42.84574" lon="0.60348">
        <ele>587.2</ele>
        <time>2025-07-21T12:51:44Z</time>
      </trkpt>
      <trkpt lat="42.84561" lon="0.6035">
        <ele>587.4</ele>
        <time>2025-07-21T12:51:46Z</time>
      </trkpt>
      <trkpt lat="42.84527" lon="0.60359">
        <ele>588</ele>
        <time>2025-07-21T12:51:52Z</time>
      </trkpt>
      <trkpt lat="42.84482" lon="0.60368">
        <ele>588.4</ele>
        <time>2025-07-21T12:52:00Z</time>
      </trkpt>
      <trkpt lat="42.84465" lon="0.60372">
        <ele>588.6</ele>
        <time>2025-07-21T12:52:03Z</time>
      </trkpt>
      <trkpt lat="42.8441" lon="0.60383">
        <ele>589.2</ele>
        <time>2025-07-21T12:52:12Z</time>
      </trkpt>
      <trkpt lat="42.84404" lon="0.60384">
        <ele>589.2</ele>
        <time>2025-07-21T12:52:13Z</time>
      </trkpt>
      <trkpt lat="42.84349" lon="0.60394">
        <ele>588.6</ele>
        <time>2025-07-21T12:52:21Z</time>
      </trkpt>
      <trkpt lat="42.84294" lon="0.60404">
        <ele>588.2</ele>
        <time>2025-07-21T12:52:28Z</time>
      </trkpt>
      <trkpt lat="42.84238" lon="0.60418">
        <ele>587.6</ele>
        <time>2025-07-21T12:52:35Z</time>
      </trkpt>
      <trkpt lat="42.8423" lon="0.60421">
        <ele>587.4</ele>
        <time>2025-07-21T12:52:36Z</time>
      </trkpt>
      <trkpt lat="42.84176" lon="0.60443">
        <ele>586.6</ele>
        <time>2025-07-21T12:52:43Z</time>
      </trkpt>
      <trkpt lat="42.84122" lon="0.60457">
        <ele>586</ele>
        <time>2025-07-21T12:52:50Z</time>
      </trkpt>
      <trkpt lat="42.8408" lon="0.60458">
        <ele>586</ele>
        <time>2025-07-21T12:52:56Z</time>
      </trkpt>
      <trkpt lat="42.84042" lon="0.60452">
        <ele>587.4</ele>
        <time>2025-07-21T12:53:03Z</time>
      </trkpt>
      <trkpt lat="42.84037" lon="0.60451">
        <ele>587.8</ele>
        <time>2025-07-21T12:53:04Z</time>
      </trkpt>
      <trkpt lat="42.84018" lon="0.60445">
        <ele>588.4</ele>
        <time>2025-07-21T12:53:08Z</time>
      </trkpt>
      <trkpt lat="42.84014" lon="0.60444">
        <ele>588.8</ele>
        <time>2025-07-21T12:53:09Z</time>
      </trkpt>
      <trkpt lat="42.84001" lon="0.60441">
        <ele>590</ele>
        <time>2025-07-21T12:53:12Z</time>
      </trkpt>
      <trkpt lat="42.83982" lon="0.60435">
        <ele>591.2</ele>
        <time>2025-07-21T12:53:16Z</time>
      </trkpt>
      <trkpt lat="42.83956" lon="0.60427">
        <ele>592.2</ele>
        <time>2025-07-21T12:53:22Z</time>
      </trkpt>
      <trkpt lat="42.83946" lon="0.60424">
        <ele>592.6</ele>
        <time>2025-07-21T12:53:24Z</time>
      </trkpt>
      <trkpt lat="42.83929" lon="0.60418">
        <ele>593.4</ele>
        <time>2025-07-21T12:53:28Z</time>
      </trkpt>
      <trkpt lat="42.83892" lon="0.60407">
        <ele>594.4</ele>
        <time>2025-07-21T12:53:36Z</time>
      </trkpt>
      <trkpt lat="42.83862" lon="0.60398">
        <ele>594.8</ele>
        <time>2025-07-21T12:53:42Z</time>
      </trkpt>
      <trkpt lat="42.83837" lon="0.60391">
        <ele>594.8</ele>
        <time>2025-07-21T12:53:46Z</time>
      </trkpt>
      <trkpt lat="42.83793" lon="0.60378">
        <ele>594.8</ele>
        <time>2025-07-21T12:53:53Z</time>
      </trkpt>
      <trkpt lat="42.83755" lon="0.60368">
        <ele>594.6</ele>
        <time>2025-07-21T12:53:58Z</time>
      </trkpt>
      <trkpt lat="42.83712" lon="0.60355">
        <ele>593.4</ele>
        <time>2025-07-21T12:54:03Z</time>
      </trkpt>
      <trkpt lat="42.83702" lon="0.60352">
        <ele>593</ele>
        <time>2025-07-21T12:54:04Z</time>
      </trkpt>
      <trkpt lat="42.83674" lon="0.60345">
        <ele>592.4</ele>
        <time>2025-07-21T12:54:07Z</time>
      </trkpt>
      <trkpt lat="42.83656" lon="0.6034">
        <ele>591.6</ele>
        <time>2025-07-21T12:54:09Z</time>
      </trkpt>
      <trkpt lat="42.83645" lon="0.60337">
        <ele>591.2</ele>
        <time>2025-07-21T12:54:10Z</time>
      </trkpt>
      <trkpt lat="42.83607" lon="0.60327">
        <ele>590.2</ele>
        <time>2025-07-21T12:54:14Z</time>
      </trkpt>
      <trkpt lat="42.83598" lon="0.60324">
        <ele>590</ele>
        <time>2025-07-21T12:54:15Z</time>
      </trkpt>
      <trkpt lat="42.83547" lon="0.60311">
        <ele>589.2</ele>
        <time>2025-07-21T12:54:21Z</time>
      </trkpt>
      <trkpt lat="42.83516" lon="0.60301">
        <ele>589.2</ele>
        <time>2025-07-21T12:54:25Z</time>
      </trkpt>
      <trkpt lat="42.83483" lon="0.60292">
        <ele>589</ele>
        <time>2025-07-21T12:54:29Z</time>
      </trkpt>
      <trkpt lat="42.8343" lon="0.60277">
        <ele>588.6</ele>
        <time>2025-07-21T12:54:36Z</time>
      </trkpt>
      <trkpt lat="42.83406" lon="0.60271">
        <ele>588.8</ele>
        <time>2025-07-21T12:54:39Z</time>
      </trkpt>
      <trkpt lat="42.83349" lon="0.60256">
        <ele>589.6</ele>
        <time>2025-07-21T12:54:47Z</time>
      </trkpt>
      <trkpt lat="42.83342" lon="0.60254">
        <ele>589.6</ele>
        <time>2025-07-21T12:54:48Z</time>
      </trkpt>
      <trkpt lat="42.83323" lon="0.60249">
        <ele>590.2</ele>
        <time>2025-07-21T12:54:51Z</time>
      </trkpt>
      <trkpt lat="42.83292" lon="0.60241">
        <ele>591.2</ele>
        <time>2025-07-21T12:54:56Z</time>
      </trkpt>
      <trkpt lat="42.83266" lon="0.60234">
        <ele>591.4</ele>
        <time>2025-07-21T12:55:00Z</time>
      </trkpt>
      <trkpt lat="42.83221" lon="0.6022">
        <ele>592.4</ele>
        <time>2025-07-21T12:55:07Z</time>
      </trkpt>
      <trkpt lat="42.83214" lon="0.60219">
        <ele>592.6</ele>
        <time>2025-07-21T12:55:08Z</time>
      </trkpt>
      <trkpt lat="42.8316" lon="0.60203">
        <ele>593.4</ele>
        <time>2025-07-21T12:55:16Z</time>
      </trkpt>
      <trkpt lat="42.83153" lon="0.60201">
        <ele>593.4</ele>
        <time>2025-07-21T12:55:17Z</time>
      </trkpt>
      <trkpt lat="42.83124" lon="0.60193">
        <ele>593.6</ele>
        <time>2025-07-21T12:55:21Z</time>
      </trkpt>
      <trkpt lat="42.83064" lon="0.60175">
        <ele>593.4</ele>
        <time>2025-07-21T12:55:29Z</time>
      </trkpt>
      <trkpt lat="42.83042" lon="0.60168">
        <ele>593</ele>
        <time>2025-07-21T12:55:32Z</time>
      </trkpt>
      <trkpt lat="42.82983" lon="0.60155">
        <ele>592.8</ele>
        <time>2025-07-21T12:55:40Z</time>
      </trkpt>
      <trkpt lat="42.82935" lon="0.60156">
        <ele>593</ele>
        <time>2025-07-21T12:55:47Z</time>
      </trkpt>
      <trkpt lat="42.82919" lon="0.60154">
        <ele>593.2</ele>
        <time>2025-07-21T12:55:50Z</time>
      </trkpt>
      <trkpt lat="42.82908" lon="0.60149">
        <ele>593.4</ele>
        <time>2025-07-21T12:55:52Z</time>
      </trkpt>
      <trkpt lat="42.82887" lon="0.60128">
        <ele>593.6</ele>
        <time>2025-07-21T12:55:56Z</time>
      </trkpt>
      <trkpt lat="42.8288" lon="0.60124">
        <ele>593.6</ele>
        <time>2025-07-21T12:55:57Z</time>
      </trkpt>
      <trkpt lat="42.82867" lon="0.60118">
        <ele>593.6</ele>
        <time>2025-07-21T12:55:59Z</time>
      </trkpt>
      <trkpt lat="42.8286" lon="0.60115">
        <ele>593.4</ele>
        <time>2025-07-21T12:56:00Z</time>
      </trkpt>
      <trkpt lat="42.82816" lon="0.60104">
        <ele>592.4</ele>
        <time>2025-07-21T12:56:06Z</time>
      </trkpt>
      <trkpt lat="42.82809" lon="0.60102">
        <ele>592.2</ele>
        <time>2025-07-21T12:56:07Z</time>
      </trkpt>
      <trkpt lat="42.82765" lon="0.60087">
        <ele>592.4</ele>
        <time>2025-07-21T12:56:14Z</time>
      </trkpt>
      <trkpt lat="42.82755" lon="0.60083">
        <ele>592.6</ele>
        <time>2025-07-21T12:56:16Z</time>
      </trkpt>
      <trkpt lat="42.82748" lon="0.60079">
        <ele>592.6</ele>
        <time>2025-07-21T12:56:18Z</time>
      </trkpt>
      <trkpt lat="42.8274" lon="0.60077">
        <ele>592.4</ele>
        <time>2025-07-21T12:56:20Z</time>
      </trkpt>
      <trkpt lat="42.82725" lon="0.60071">
        <ele>592.2</ele>
        <time>2025-07-21T12:56:23Z</time>
      </trkpt>
      <trkpt lat="42.82696" lon="0.60057">
        <ele>592</ele>
        <time>2025-07-21T12:56:28Z</time>
      </trkpt>
      <trkpt lat="42.82661" lon="0.6004">
        <ele>592.2</ele>
        <time>2025-07-21T12:56:34Z</time>
      </trkpt>
      <trkpt lat="42.82646" lon="0.60031">
        <ele>592.2</ele>
        <time>2025-07-21T12:56:38Z</time>
      </trkpt>
      <trkpt lat="42.82636" lon="0.60025">
        <ele>592.4</ele>
        <time>2025-07-21T12:56:43Z</time>
      </trkpt>
      <trkpt lat="42.82628" lon="0.6002">
        <ele>592.4</ele>
        <time>2025-07-21T12:56:49Z</time>
      </trkpt>
      <trkpt lat="42.82628" lon="0.60019">
        <ele>592.4</ele>
        <time>2025-07-21T12:56:53Z</time>
      </trkpt>
      <trkpt lat="42.82624" lon="0.60016">
        <ele>592.6</ele>
        <time>2025-07-21T12:57:01Z</time>
      </trkpt>
      <trkpt lat="42.82617" lon="0.60014">
        <ele>592.6</ele>
        <time>2025-07-21T12:57:05Z</time>
      </trkpt>
      <trkpt lat="42.82615" lon="0.60013">
        <ele>592.6</ele>
        <time>2025-07-21T12:57:06Z</time>
      </trkpt>
      <trkpt lat="42.82603" lon="0.60006">
        <ele>592.6</ele>
        <time>2025-07-21T12:57:10Z</time>
      </trkpt>
      <trkpt lat="42.82587" lon="0.59999">
        <ele>592.6</ele>
        <time>2025-07-21T12:57:15Z</time>
      </trkpt>
      <trkpt lat="42.82578" lon="0.59997">
        <ele>592.6</ele>
        <time>2025-07-21T12:57:20Z</time>
      </trkpt>
      <trkpt lat="42.82578" lon="0.59996">
        <ele>592.8</ele>
        <time>2025-07-21T12:57:24Z</time>
      </trkpt>
      <trkpt lat="42.82578" lon="0.59996">
        <ele>592.8</ele>
        <time>2025-07-21T12:57:26Z</time>
      </trkpt>
      <trkpt lat="42.82576" lon="0.60003">
        <ele>593.2</ele>
        <time>2025-07-21T13:06:47Z</time>
      </trkpt>
      <trkpt lat="42.82574" lon="0.60006">
        <ele>593.2</ele>
        <time>2025-07-21T13:06:48Z</time>
      </trkpt>
      <trkpt lat="42.82558" lon="0.60021">
        <ele>593</ele>
        <time>2025-07-21T13:06:53Z</time>
      </trkpt>
      <trkpt lat="42.82542" lon="0.60034">
        <ele>592.8</ele>
        <time>2025-07-21T13:06:57Z</time>
      </trkpt>
      <trkpt lat="42.82537" lon="0.60036">
        <ele>592.6</ele>
        <time>2025-07-21T13:06:58Z</time>
      </trkpt>
      <trkpt lat="42.82533" lon="0.60037">
        <ele>592.6</ele>
        <time>2025-07-21T13:06:59Z</time>
      </trkpt>
      <trkpt lat="42.82516" lon="0.60038">
        <ele>592.8</ele>
        <time>2025-07-21T13:07:03Z</time>
      </trkpt>
      <trkpt lat="42.82513" lon="0.60037">
        <ele>592.8</ele>
        <time>2025-07-21T13:07:04Z</time>
      </trkpt>
      <trkpt lat="42.82481" lon="0.60032">
        <ele>594.4</ele>
        <time>2025-07-21T13:07:12Z</time>
      </trkpt>
      <trkpt lat="42.82478" lon="0.60032">
        <ele>594.6</ele>
        <time>2025-07-21T13:07:13Z</time>
      </trkpt>
      <trkpt lat="42.82462" lon="0.60029">
        <ele>595.6</ele>
        <time>2025-07-21T13:07:17Z</time>
      </trkpt>
      <trkpt lat="42.82447" lon="0.60025">
        <ele>596.2</ele>
        <time>2025-07-21T13:07:21Z</time>
      </trkpt>
      <trkpt lat="42.8244" lon="0.60022">
        <ele>596.6</ele>
        <time>2025-07-21T13:07:23Z</time>
      </trkpt>
      <trkpt lat="42.82422" lon="0.60015">
        <ele>597.8</ele>
        <time>2025-07-21T13:07:28Z</time>
      </trkpt>
      <trkpt lat="42.824" lon="0.60009">
        <ele>598.8</ele>
        <time>2025-07-21T13:07:34Z</time>
      </trkpt>
      <trkpt lat="42.82396" lon="0.60007">
        <ele>599</ele>
        <time>2025-07-21T13:07:35Z</time>
      </trkpt>
      <trkpt lat="42.82377" lon="0.60001">
        <ele>600</ele>
        <time>2025-07-21T13:07:40Z</time>
      </trkpt>
      <trkpt lat="42.82358" lon="0.59996">
        <ele>601</ele>
        <time>2025-07-21T13:07:45Z</time>
      </trkpt>
      <trkpt lat="42.82355" lon="0.59995">
        <ele>601.2</ele>
        <time>2025-07-21T13:07:46Z</time>
      </trkpt>
      <trkpt lat="42.82332" lon="0.59989">
        <ele>602.2</ele>
        <time>2025-07-21T13:07:52Z</time>
      </trkpt>
      <trkpt lat="42.82317" lon="0.59985">
        <ele>602.6</ele>
        <time>2025-07-21T13:07:56Z</time>
      </trkpt>
      <trkpt lat="42.82285" lon="0.59976">
        <ele>603</ele>
        <time>2025-07-21T13:08:04Z</time>
      </trkpt>
      <trkpt lat="42.82263" lon="0.5997">
        <ele>603</ele>
        <time>2025-07-21T13:08:09Z</time>
      </trkpt>
      <trkpt lat="42.82242" lon="0.59964">
        <ele>602.4</ele>
        <time>2025-07-21T13:08:13Z</time>
      </trkpt>
      <trkpt lat="42.82213" lon="0.59956">
        <ele>601.8</ele>
        <time>2025-07-21T13:08:18Z</time>
      </trkpt>
      <trkpt lat="42.82184" lon="0.59947">
        <ele>601</ele>
        <time>2025-07-21T13:08:22Z</time>
      </trkpt>
      <trkpt lat="42.82169" lon="0.59942">
        <ele>600.6</ele>
        <time>2025-07-21T13:08:24Z</time>
      </trkpt>
      <trkpt lat="42.82152" lon="0.59937">
        <ele>600</ele>
        <time>2025-07-21T13:08:26Z</time>
      </trkpt>
      <trkpt lat="42.82126" lon="0.59929">
        <ele>599</ele>
        <time>2025-07-21T13:08:29Z</time>
      </trkpt>
      <trkpt lat="42.82109" lon="0.59924">
        <ele>598.4</ele>
        <time>2025-07-21T13:08:31Z</time>
      </trkpt>
      <trkpt lat="42.82091" lon="0.59919">
        <ele>597.8</ele>
        <time>2025-07-21T13:08:33Z</time>
      </trkpt>
      <trkpt lat="42.82057" lon="0.59913">
        <ele>597.4</ele>
        <time>2025-07-21T13:08:37Z</time>
      </trkpt>
      <trkpt lat="42.82" lon="0.59904">
        <ele>597.4</ele>
        <time>2025-07-21T13:08:44Z</time>
      </trkpt>
      <trkpt lat="42.81945" lon="0.59884">
        <ele>598.2</ele>
        <time>2025-07-21T13:08:51Z</time>
      </trkpt>
      <trkpt lat="42.81937" lon="0.5988">
        <ele>598.2</ele>
        <time>2025-07-21T13:08:52Z</time>
      </trkpt>
      <trkpt lat="42.8188" lon="0.59865">
        <ele>598</ele>
        <time>2025-07-21T13:08:59Z</time>
      </trkpt>
      <trkpt lat="42.8183" lon="0.59858">
        <ele>598</ele>
        <time>2025-07-21T13:09:05Z</time>
      </trkpt>
      <trkpt lat="42.818" lon="0.59849">
        <ele>598.2</ele>
        <time>2025-07-21T13:09:09Z</time>
      </trkpt>
      <trkpt lat="42.81773" lon="0.59834">
        <ele>598.6</ele>
        <time>2025-07-21T13:09:13Z</time>
      </trkpt>
      <trkpt lat="42.81767" lon="0.59829">
        <ele>598.8</ele>
        <time>2025-07-21T13:09:14Z</time>
      </trkpt>
      <trkpt lat="42.81761" lon="0.59825">
        <ele>599</ele>
        <time>2025-07-21T13:09:15Z</time>
      </trkpt>
      <trkpt lat="42.8173" lon="0.59806">
        <ele>599.2</ele>
        <time>2025-07-21T13:09:20Z</time>
      </trkpt>
      <trkpt lat="42.81724" lon="0.59804">
        <ele>599.2</ele>
        <time>2025-07-21T13:09:21Z</time>
      </trkpt>
      <trkpt lat="42.81679" lon="0.59798">
        <ele>598.8</ele>
        <time>2025-07-21T13:09:28Z</time>
      </trkpt>
      <trkpt lat="42.81629" lon="0.59785">
        <ele>598.2</ele>
        <time>2025-07-21T13:09:36Z</time>
      </trkpt>
      <trkpt lat="42.81606" lon="0.59775">
        <ele>598.2</ele>
        <time>2025-07-21T13:09:40Z</time>
      </trkpt>
      <trkpt lat="42.81596" lon="0.59768">
        <ele>598.4</ele>
        <time>2025-07-21T13:09:42Z</time>
      </trkpt>
      <trkpt lat="42.81557" lon="0.5974">
        <ele>598.8</ele>
        <time>2025-07-21T13:09:50Z</time>
      </trkpt>
      <trkpt lat="42.81552" lon="0.59737">
        <ele>599</ele>
        <time>2025-07-21T13:09:51Z</time>
      </trkpt>
      <trkpt lat="42.8153" lon="0.59733">
        <ele>599.4</ele>
        <time>2025-07-21T13:09:55Z</time>
      </trkpt>
      <trkpt lat="42.81524" lon="0.59732">
        <ele>599.4</ele>
        <time>2025-07-21T13:09:56Z</time>
      </trkpt>
      <trkpt lat="42.81513" lon="0.59735">
        <ele>599.4</ele>
        <time>2025-07-21T13:09:58Z</time>
      </trkpt>
      <trkpt lat="42.81508" lon="0.5974">
        <ele>599.4</ele>
        <time>2025-07-21T13:09:59Z</time>
      </trkpt>
      <trkpt lat="42.81476" lon="0.59768">
        <ele>599.2</ele>
        <time>2025-07-21T13:10:05Z</time>
      </trkpt>
      <trkpt lat="42.8147" lon="0.59771">
        <ele>599.2</ele>
        <time>2025-07-21T13:10:06Z</time>
      </trkpt>
      <trkpt lat="42.81458" lon="0.59777">
        <ele>599.2</ele>
        <time>2025-07-21T13:10:08Z</time>
      </trkpt>
      <trkpt lat="42.81447" lon="0.59778">
        <ele>599.2</ele>
        <time>2025-07-21T13:10:10Z</time>
      </trkpt>
      <trkpt lat="42.81436" lon="0.59775">
        <ele>599.4</ele>
        <time>2025-07-21T13:10:12Z</time>
      </trkpt>
      <trkpt lat="42.81425" lon="0.59771">
        <ele>599.6</ele>
        <time>2025-07-21T13:10:14Z</time>
      </trkpt>
      <trkpt lat="42.81415" lon="0.59767">
        <ele>600</ele>
        <time>2025-07-21T13:10:16Z</time>
      </trkpt>
      <trkpt lat="42.81401" lon="0.59763">
        <ele>600.6</ele>
        <time>2025-07-21T13:10:19Z</time>
      </trkpt>
      <trkpt lat="42.81393" lon="0.5976">
        <ele>601</ele>
        <time>2025-07-21T13:10:21Z</time>
      </trkpt>
      <trkpt lat="42.8138" lon="0.59757">
        <ele>601.6</ele>
        <time>2025-07-21T13:10:25Z</time>
      </trkpt>
      <trkpt lat="42.81371" lon="0.59755">
        <ele>602</ele>
        <time>2025-07-21T13:10:27Z</time>
      </trkpt>
      <trkpt lat="42.81346" lon="0.59745">
        <ele>602.8</ele>
        <time>2025-07-21T13:10:33Z</time>
      </trkpt>
      <trkpt lat="42.81341" lon="0.59744">
        <ele>603</ele>
        <time>2025-07-21T13:10:34Z</time>
      </trkpt>
      <trkpt lat="42.81333" lon="0.59741">
        <ele>603.2</ele>
        <time>2025-07-21T13:10:36Z</time>
      </trkpt>
      <trkpt lat="42.81323" lon="0.59738">
        <ele>603.6</ele>
        <time>2025-07-21T13:10:38Z</time>
      </trkpt>
      <trkpt lat="42.81315" lon="0.59735">
        <ele>603.8</ele>
        <time>2025-07-21T13:10:40Z</time>
      </trkpt>
      <trkpt lat="42.8131" lon="0.59734">
        <ele>604</ele>
        <time>2025-07-21T13:10:41Z</time>
      </trkpt>
      <trkpt lat="42.81281" lon="0.59724">
        <ele>605</ele>
        <time>2025-07-21T13:10:47Z</time>
      </trkpt>
      <trkpt lat="42.81276" lon="0.59722">
        <ele>605</ele>
        <time>2025-07-21T13:10:48Z</time>
      </trkpt>
      <trkpt lat="42.81236" lon="0.59709">
        <ele>605.6</ele>
        <time>2025-07-21T13:10:56Z</time>
      </trkpt>
      <trkpt lat="42.81207" lon="0.59692">
        <ele>605.6</ele>
        <time>2025-07-21T13:11:01Z</time>
      </trkpt>
      <trkpt lat="42.81163" lon="0.59663">
        <ele>604.8</ele>
        <time>2025-07-21T13:11:07Z</time>
      </trkpt>
      <trkpt lat="42.81139" lon="0.59649">
        <ele>603.8</ele>
        <time>2025-07-21T13:11:10Z</time>
      </trkpt>
      <trkpt lat="42.81101" lon="0.59625">
        <ele>602.6</ele>
        <time>2025-07-21T13:11:15Z</time>
      </trkpt>
      <trkpt lat="42.81086" lon="0.59616">
        <ele>602.2</ele>
        <time>2025-07-21T13:11:17Z</time>
      </trkpt>
      <trkpt lat="42.81071" lon="0.59609">
        <ele>602</ele>
        <time>2025-07-21T13:11:19Z</time>
      </trkpt>
      <trkpt lat="42.81057" lon="0.59606">
        <ele>601.8</ele>
        <time>2025-07-21T13:11:21Z</time>
      </trkpt>
      <trkpt lat="42.81013" lon="0.59608">
        <ele>602.4</ele>
        <time>2025-07-21T13:11:27Z</time>
      </trkpt>
      <trkpt lat="42.80978" lon="0.5961">
        <ele>602.8</ele>
        <time>2025-07-21T13:11:32Z</time>
      </trkpt>
      <trkpt lat="42.80964" lon="0.59611">
        <ele>603.4</ele>
        <time>2025-07-21T13:11:34Z</time>
      </trkpt>
      <trkpt lat="42.80951" lon="0.59613">
        <ele>603.6</ele>
        <time>2025-07-21T13:11:36Z</time>
      </trkpt>
      <trkpt lat="42.80924" lon="0.59618">
        <ele>604.6</ele>
        <time>2025-07-21T13:11:40Z</time>
      </trkpt>
      <trkpt lat="42.80916" lon="0.59619">
        <ele>604.8</ele>
        <time>2025-07-21T13:11:41Z</time>
      </trkpt>
      <trkpt lat="42.80893" lon="0.59622">
        <ele>605</ele>
        <time>2025-07-21T13:11:44Z</time>
      </trkpt>
      <trkpt lat="42.80878" lon="0.59624">
        <ele>605</ele>
        <time>2025-07-21T13:11:46Z</time>
      </trkpt>
      <trkpt lat="42.80849" lon="0.5963">
        <ele>605.2</ele>
        <time>2025-07-21T13:11:50Z</time>
      </trkpt>
      <trkpt lat="42.80825" lon="0.59637">
        <ele>605.2</ele>
        <time>2025-07-21T13:11:53Z</time>
      </trkpt>
      <trkpt lat="42.8077" lon="0.59656">
        <ele>604.8</ele>
        <time>2025-07-21T13:12:00Z</time>
      </trkpt>
      <trkpt lat="42.80762" lon="0.59658">
        <ele>604.6</ele>
        <time>2025-07-21T13:12:01Z</time>
      </trkpt>
      <trkpt lat="42.80711" lon="0.59673">
        <ele>603.8</ele>
        <time>2025-07-21T13:12:08Z</time>
      </trkpt>
      <trkpt lat="42.80654" lon="0.597">
        <ele>603.6</ele>
        <time>2025-07-21T13:12:16Z</time>
      </trkpt>
      <trkpt lat="42.80635" lon="0.59715">
        <ele>603.4</ele>
        <time>2025-07-21T13:12:19Z</time>
      </trkpt>
      <trkpt lat="42.80623" lon="0.59725">
        <ele>603.2</ele>
        <time>2025-07-21T13:12:21Z</time>
      </trkpt>
      <trkpt lat="42.80619" lon="0.59729">
        <ele>603.4</ele>
        <time>2025-07-21T13:12:22Z</time>
      </trkpt>
      <trkpt lat="42.80577" lon="0.59772">
        <ele>603.8</ele>
        <time>2025-07-21T13:12:30Z</time>
      </trkpt>
      <trkpt lat="42.80538" lon="0.59806">
        <ele>604.2</ele>
        <time>2025-07-21T13:12:37Z</time>
      </trkpt>
      <trkpt lat="42.80532" lon="0.59809">
        <ele>604.4</ele>
        <time>2025-07-21T13:12:38Z</time>
      </trkpt>
      <trkpt lat="42.8052" lon="0.59815">
        <ele>604.4</ele>
        <time>2025-07-21T13:12:40Z</time>
      </trkpt>
      <trkpt lat="42.80507" lon="0.59818">
        <ele>604.4</ele>
        <time>2025-07-21T13:12:42Z</time>
      </trkpt>
      <trkpt lat="42.80475" lon="0.59818">
        <ele>604.8</ele>
        <time>2025-07-21T13:12:47Z</time>
      </trkpt>
      <trkpt lat="42.80462" lon="0.59813">
        <ele>605</ele>
        <time>2025-07-21T13:12:49Z</time>
      </trkpt>
      <trkpt lat="42.80443" lon="0.59802">
        <ele>605</ele>
        <time>2025-07-21T13:12:52Z</time>
      </trkpt>
      <trkpt lat="42.80405" lon="0.59769">
        <ele>605.4</ele>
        <time>2025-07-21T13:12:59Z</time>
      </trkpt>
      <trkpt lat="42.80399" lon="0.59765">
        <ele>605.4</ele>
        <time>2025-07-21T13:13:00Z</time>
      </trkpt>
      <trkpt lat="42.80367" lon="0.59737">
        <ele>606.4</ele>
        <time>2025-07-21T13:13:06Z</time>
      </trkpt>
      <trkpt lat="42.8035" lon="0.59723">
        <ele>606.6</ele>
        <time>2025-07-21T13:13:09Z</time>
      </trkpt>
      <trkpt lat="42.80329" lon="0.59705">
        <ele>607.4</ele>
        <time>2025-07-21T13:13:13Z</time>
      </trkpt>
      <trkpt lat="42.80302" lon="0.59683">
        <ele>608</ele>
        <time>2025-07-21T13:13:18Z</time>
      </trkpt>
      <trkpt lat="42.80296" lon="0.59679">
        <ele>608</ele>
        <time>2025-07-21T13:13:19Z</time>
      </trkpt>
      <trkpt lat="42.80265" lon="0.59665">
        <ele>608</ele>
        <time>2025-07-21T13:13:24Z</time>
      </trkpt>
      <trkpt lat="42.80211" lon="0.59656">
        <ele>607.8</ele>
        <time>2025-07-21T13:13:32Z</time>
      </trkpt>
      <trkpt lat="42.80154" lon="0.59648">
        <ele>607.4</ele>
        <time>2025-07-21T13:13:40Z</time>
      </trkpt>
      <trkpt lat="42.80147" lon="0.59647">
        <ele>607.4</ele>
        <time>2025-07-21T13:13:41Z</time>
      </trkpt>
      <trkpt lat="42.80089" lon="0.59639">
        <ele>607.2</ele>
        <time>2025-07-21T13:13:49Z</time>
      </trkpt>
      <trkpt lat="42.80082" lon="0.59637">
        <ele>607.4</ele>
        <time>2025-07-21T13:13:50Z</time>
      </trkpt>
      <trkpt lat="42.80054" lon="0.59633">
        <ele>607.6</ele>
        <time>2025-07-21T13:13:54Z</time>
      </trkpt>
      <trkpt lat="42.80011" lon="0.59627">
        <ele>608</ele>
        <time>2025-07-21T13:14:00Z</time>
      </trkpt>
      <trkpt lat="42.79968" lon="0.59622">
        <ele>608.4</ele>
        <time>2025-07-21T13:14:06Z</time>
      </trkpt>
      <trkpt lat="42.79954" lon="0.5962">
        <ele>608.6</ele>
        <time>2025-07-21T13:14:08Z</time>
      </trkpt>
      <trkpt lat="42.799" lon="0.59612">
        <ele>609</ele>
        <time>2025-07-21T13:14:16Z</time>
      </trkpt>
      <trkpt lat="42.79886" lon="0.5961">
        <ele>609.2</ele>
        <time>2025-07-21T13:14:18Z</time>
      </trkpt>
      <trkpt lat="42.79826" lon="0.596">
        <ele>609.4</ele>
        <time>2025-07-21T13:14:27Z</time>
      </trkpt>
      <trkpt lat="42.79813" lon="0.59598">
        <ele>609.4</ele>
        <time>2025-07-21T13:14:29Z</time>
      </trkpt>
      <trkpt lat="42.798" lon="0.59596">
        <ele>609.6</ele>
        <time>2025-07-21T13:14:31Z</time>
      </trkpt>
      <trkpt lat="42.79762" lon="0.59591">
        <ele>609.8</ele>
        <time>2025-07-21T13:14:37Z</time>
      </trkpt>
      <trkpt lat="42.79749" lon="0.59591">
        <ele>610</ele>
        <time>2025-07-21T13:14:39Z</time>
      </trkpt>
      <trkpt lat="42.79724" lon="0.59587">
        <ele>610.6</ele>
        <time>2025-07-21T13:14:43Z</time>
      </trkpt>
      <trkpt lat="42.79695" lon="0.59582">
        <ele>611.2</ele>
        <time>2025-07-21T13:14:48Z</time>
      </trkpt>
      <trkpt lat="42.79672" lon="0.59579">
        <ele>611.4</ele>
        <time>2025-07-21T13:14:52Z</time>
      </trkpt>
      <trkpt lat="42.79661" lon="0.59575">
        <ele>611.6</ele>
        <time>2025-07-21T13:14:54Z</time>
      </trkpt>
      <trkpt lat="42.79646" lon="0.59563">
        <ele>611.6</ele>
        <time>2025-07-21T13:14:57Z</time>
      </trkpt>
      <trkpt lat="42.79632" lon="0.5955">
        <ele>612</ele>
        <time>2025-07-21T13:15:00Z</time>
      </trkpt>
      <trkpt lat="42.79619" lon="0.59537">
        <ele>613</ele>
        <time>2025-07-21T13:15:03Z</time>
      </trkpt>
      <trkpt lat="42.796" lon="0.5952">
        <ele>613.8</ele>
        <time>2025-07-21T13:15:07Z</time>
      </trkpt>
      <trkpt lat="42.79592" lon="0.59511">
        <ele>614</ele>
        <time>2025-07-21T13:15:09Z</time>
      </trkpt>
      <trkpt lat="42.79565" lon="0.59486">
        <ele>614.8</ele>
        <time>2025-07-21T13:15:15Z</time>
      </trkpt>
      <trkpt lat="42.79556" lon="0.59478">
        <ele>615</ele>
        <time>2025-07-21T13:15:17Z</time>
      </trkpt>
      <trkpt lat="42.79552" lon="0.59473">
        <ele>615.2</ele>
        <time>2025-07-21T13:15:18Z</time>
      </trkpt>
      <trkpt lat="42.79539" lon="0.59459">
        <ele>615.4</ele>
        <time>2025-07-21T13:15:21Z</time>
      </trkpt>
      <trkpt lat="42.79522" lon="0.59445">
        <ele>616</ele>
        <time>2025-07-21T13:15:25Z</time>
      </trkpt>
      <trkpt lat="42.79516" lon="0.59435">
        <ele>616.4</ele>
        <time>2025-07-21T13:15:27Z</time>
      </trkpt>
      <trkpt lat="42.79508" lon="0.59418">
        <ele>616.6</ele>
        <time>2025-07-21T13:15:30Z</time>
      </trkpt>
      <trkpt lat="42.79505" lon="0.59405">
        <ele>616.8</ele>
        <time>2025-07-21T13:15:32Z</time>
      </trkpt>
      <trkpt lat="42.79503" lon="0.59399">
        <ele>616.8</ele>
        <time>2025-07-21T13:15:33Z</time>
      </trkpt>
      <trkpt lat="42.79501" lon="0.59393">
        <ele>617</ele>
        <time>2025-07-21T13:15:34Z</time>
      </trkpt>
      <trkpt lat="42.79498" lon="0.59388">
        <ele>617.2</ele>
        <time>2025-07-21T13:15:35Z</time>
      </trkpt>
      <trkpt lat="42.79496" lon="0.59382">
        <ele>617.4</ele>
        <time>2025-07-21T13:15:36Z</time>
      </trkpt>
      <trkpt lat="42.79466" lon="0.59314">
        <ele>618</ele>
        <time>2025-07-21T13:15:47Z</time>
      </trkpt>
      <trkpt lat="42.79456" lon="0.59297">
        <ele>618.2</ele>
        <time>2025-07-21T13:15:50Z</time>
      </trkpt>
      <trkpt lat="42.79435" lon="0.59262">
        <ele>619.2</ele>
        <time>2025-07-21T13:15:57Z</time>
      </trkpt>
      <trkpt lat="42.79432" lon="0.59257">
        <ele>619.2</ele>
        <time>2025-07-21T13:15:58Z</time>
      </trkpt>
      <trkpt lat="42.7941" lon="0.59216">
        <ele>620.2</ele>
        <time>2025-07-21T13:16:05Z</time>
      </trkpt>
      <trkpt lat="42.79397" lon="0.59191">
        <ele>620.4</ele>
        <time>2025-07-21T13:16:09Z</time>
      </trkpt>
      <trkpt lat="42.79386" lon="0.59165">
        <ele>620.6</ele>
        <time>2025-07-21T13:16:13Z</time>
      </trkpt>
      <trkpt lat="42.7938" lon="0.59144">
        <ele>620.8</ele>
        <time>2025-07-21T13:16:16Z</time>
      </trkpt>
      <trkpt lat="42.79379" lon="0.5913">
        <ele>621.2</ele>
        <time>2025-07-21T13:16:18Z</time>
      </trkpt>
      <trkpt lat="42.79379" lon="0.59115">
        <ele>621.8</ele>
        <time>2025-07-21T13:16:20Z</time>
      </trkpt>
      <trkpt lat="42.7938" lon="0.59108">
        <ele>622</ele>
        <time>2025-07-21T13:16:21Z</time>
      </trkpt>
      <trkpt lat="42.79383" lon="0.59094">
        <ele>622.2</ele>
        <time>2025-07-21T13:16:23Z</time>
      </trkpt>
      <trkpt lat="42.79385" lon="0.59065">
        <ele>622.8</ele>
        <time>2025-07-21T13:16:27Z</time>
      </trkpt>
      <trkpt lat="42.79385" lon="0.59051">
        <ele>622.8</ele>
        <time>2025-07-21T13:16:29Z</time>
      </trkpt>
      <trkpt lat="42.79379" lon="0.58991">
        <ele>623.2</ele>
        <time>2025-07-21T13:16:37Z</time>
      </trkpt>
      <trkpt lat="42.79378" lon="0.58983">
        <ele>623.4</ele>
        <time>2025-07-21T13:16:38Z</time>
      </trkpt>
      <trkpt lat="42.79368" lon="0.58925">
        <ele>624.2</ele>
        <time>2025-07-21T13:16:46Z</time>
      </trkpt>
      <trkpt lat="42.79364" lon="0.58896">
        <ele>624.6</ele>
        <time>2025-07-21T13:16:50Z</time>
      </trkpt>
      <trkpt lat="42.79358" lon="0.58847">
        <ele>625.6</ele>
        <time>2025-07-21T13:16:57Z</time>
      </trkpt>
      <trkpt lat="42.79357" lon="0.5884">
        <ele>625.6</ele>
        <time>2025-07-21T13:16:58Z</time>
      </trkpt>
      <trkpt lat="42.79352" lon="0.58783">
        <ele>626.8</ele>
        <time>2025-07-21T13:17:06Z</time>
      </trkpt>
      <trkpt lat="42.79352" lon="0.58776">
        <ele>626.8</ele>
        <time>2025-07-21T13:17:07Z</time>
      </trkpt>
      <trkpt lat="42.79346" lon="0.5871">
        <ele>627.8</ele>
        <time>2025-07-21T13:17:16Z</time>
      </trkpt>
      <trkpt lat="42.79345" lon="0.58703">
        <ele>628</ele>
        <time>2025-07-21T13:17:17Z</time>
      </trkpt>
      <trkpt lat="42.79342" lon="0.58646">
        <ele>628.4</ele>
        <time>2025-07-21T13:17:25Z</time>
      </trkpt>
      <trkpt lat="42.79342" lon="0.58639">
        <ele>628.6</ele>
        <time>2025-07-21T13:17:26Z</time>
      </trkpt>
      <trkpt lat="42.79345" lon="0.58621">
        <ele>629</ele>
        <time>2025-07-21T13:17:29Z</time>
      </trkpt>
      <trkpt lat="42.79347" lon="0.58616">
        <ele>629.2</ele>
        <time>2025-07-21T13:17:30Z</time>
      </trkpt>
      <trkpt lat="42.79351" lon="0.58602">
        <ele>629.8</ele>
        <time>2025-07-21T13:17:33Z</time>
      </trkpt>
      <trkpt lat="42.79356" lon="0.58589">
        <ele>630.6</ele>
        <time>2025-07-21T13:17:36Z</time>
      </trkpt>
      <trkpt lat="42.79359" lon="0.58581">
        <ele>631</ele>
        <time>2025-07-21T13:17:38Z</time>
      </trkpt>
      <trkpt lat="42.79368" lon="0.58559">
        <ele>631.8</ele>
        <time>2025-07-21T13:17:44Z</time>
      </trkpt>
      <trkpt lat="42.79369" lon="0.58556">
        <ele>632</ele>
        <time>2025-07-21T13:17:45Z</time>
      </trkpt>
      <trkpt lat="42.79376" lon="0.58538">
        <ele>633.2</ele>
        <time>2025-07-21T13:17:50Z</time>
      </trkpt>
      <trkpt lat="42.79378" lon="0.58525">
        <ele>634.2</ele>
        <time>2025-07-21T13:17:54Z</time>
      </trkpt>
      <trkpt lat="42.79379" lon="0.58522">
        <ele>634.4</ele>
        <time>2025-07-21T13:17:55Z</time>
      </trkpt>
      <trkpt lat="42.79382" lon="0.5851">
        <ele>635.4</ele>
        <time>2025-07-21T13:17:59Z</time>
      </trkpt>
      <trkpt lat="42.79383" lon="0.58507">
        <ele>635.6</ele>
        <time>2025-07-21T13:18:00Z</time>
      </trkpt>
      <trkpt lat="42.79389" lon="0.5849">
        <ele>636.4</ele>
        <time>2025-07-21T13:18:06Z</time>
      </trkpt>
      <trkpt lat="42.7939" lon="0.58486">
        <ele>636.4</ele>
        <time>2025-07-21T13:18:07Z</time>
      </trkpt>
      <trkpt lat="42.79394" lon="0.58469">
        <ele>637.6</ele>
        <time>2025-07-21T13:18:12Z</time>
      </trkpt>
      <trkpt lat="42.79396" lon="0.58459">
        <ele>638.2</ele>
        <time>2025-07-21T13:18:15Z</time>
      </trkpt>
      <trkpt lat="42.79397" lon="0.58452">
        <ele>638.6</ele>
        <time>2025-07-21T13:18:17Z</time>
      </trkpt>
      <trkpt lat="42.794" lon="0.58435">
        <ele>639.6</ele>
        <time>2025-07-21T13:18:22Z</time>
      </trkpt>
      <trkpt lat="42.79403" lon="0.58416">
        <ele>641</ele>
        <time>2025-07-21T13:18:28Z</time>
      </trkpt>
      <trkpt lat="42.79403" lon="0.58413">
        <ele>641.2</ele>
        <time>2025-07-21T13:18:29Z</time>
      </trkpt>
      <trkpt lat="42.79404" lon="0.5841">
        <ele>641.2</ele>
        <time>2025-07-21T13:18:30Z</time>
      </trkpt>
      <trkpt lat="42.79404" lon="0.58401">
        <ele>642.2</ele>
        <time>2025-07-21T13:18:33Z</time>
      </trkpt>
      <trkpt lat="42.79406" lon="0.58382">
        <ele>643</ele>
        <time>2025-07-21T13:18:39Z</time>
      </trkpt>
      <trkpt lat="42.79407" lon="0.58369">
        <ele>644.2</ele>
        <time>2025-07-21T13:18:43Z</time>
      </trkpt>
      <trkpt lat="42.79409" lon="0.58356">
        <ele>645.4</ele>
        <time>2025-07-21T13:18:47Z</time>
      </trkpt>
      <trkpt lat="42.79409" lon="0.58353">
        <ele>645.4</ele>
        <time>2025-07-21T13:18:48Z</time>
      </trkpt>
      <trkpt lat="42.79412" lon="0.5834">
        <ele>646.4</ele>
        <time>2025-07-21T13:18:52Z</time>
      </trkpt>
      <trkpt lat="42.79417" lon="0.58324">
        <ele>647</ele>
        <time>2025-07-21T13:18:57Z</time>
      </trkpt>
      <trkpt lat="42.79418" lon="0.58321">
        <ele>647.4</ele>
        <time>2025-07-21T13:18:58Z</time>
      </trkpt>
      <trkpt lat="42.79422" lon="0.58306">
        <ele>648.6</ele>
        <time>2025-07-21T13:19:03Z</time>
      </trkpt>
      <trkpt lat="42.79424" lon="0.583">
        <ele>649</ele>
        <time>2025-07-21T13:19:05Z</time>
      </trkpt>
      <trkpt lat="42.79425" lon="0.5829">
        <ele>649.6</ele>
        <time>2025-07-21T13:19:08Z</time>
      </trkpt>
      <trkpt lat="42.79428" lon="0.58271">
        <ele>650.8</ele>
        <time>2025-07-21T13:19:14Z</time>
      </trkpt>
      <trkpt lat="42.79428" lon="0.58262">
        <ele>652</ele>
        <time>2025-07-21T13:19:17Z</time>
      </trkpt>
      <trkpt lat="42.79428" lon="0.58247">
        <ele>652.8</ele>
        <time>2025-07-21T13:19:22Z</time>
      </trkpt>
      <trkpt lat="42.79428" lon="0.58244">
        <ele>653</ele>
        <time>2025-07-21T13:19:23Z</time>
      </trkpt>
      <trkpt lat="42.79429" lon="0.58224">
        <ele>654</ele>
        <time>2025-07-21T13:19:29Z</time>
      </trkpt>
      <trkpt lat="42.79428" lon="0.58218">
        <ele>654.2</ele>
        <time>2025-07-21T13:19:31Z</time>
      </trkpt>
      <trkpt lat="42.79428" lon="0.58211">
        <ele>654.8</ele>
        <time>2025-07-21T13:19:33Z</time>
      </trkpt>
      <trkpt lat="42.79427" lon="0.58194">
        <ele>656.2</ele>
        <time>2025-07-21T13:19:38Z</time>
      </trkpt>
      <trkpt lat="42.79427" lon="0.58187">
        <ele>656.8</ele>
        <time>2025-07-21T13:19:40Z</time>
      </trkpt>
      <trkpt lat="42.79427" lon="0.58176">
        <ele>657</ele>
        <time>2025-07-21T13:19:43Z</time>
      </trkpt>
      <trkpt lat="42.79426" lon="0.58156">
        <ele>658.4</ele>
        <time>2025-07-21T13:19:49Z</time>
      </trkpt>
      <trkpt lat="42.79426" lon="0.58145">
        <ele>659.2</ele>
        <time>2025-07-21T13:19:52Z</time>
      </trkpt>
      <trkpt lat="42.79426" lon="0.58142">
        <ele>659.4</ele>
        <time>2025-07-21T13:19:53Z</time>
      </trkpt>
      <trkpt lat="42.79426" lon="0.58129">
        <ele>660.6</ele>
        <time>2025-07-21T13:19:57Z</time>
      </trkpt>
      <trkpt lat="42.79426" lon="0.58115">
        <ele>661.4</ele>
        <time>2025-07-21T13:20:01Z</time>
      </trkpt>
      <trkpt lat="42.79426" lon="0.58111">
        <ele>661.6</ele>
        <time>2025-07-21T13:20:02Z</time>
      </trkpt>
      <trkpt lat="42.79427" lon="0.58094">
        <ele>663</ele>
        <time>2025-07-21T13:20:07Z</time>
      </trkpt>
      <trkpt lat="42.79428" lon="0.58084">
        <ele>663.4</ele>
        <time>2025-07-21T13:20:10Z</time>
      </trkpt>
      <trkpt lat="42.79429" lon="0.58075">
        <ele>663.8</ele>
        <time>2025-07-21T13:20:13Z</time>
      </trkpt>
      <trkpt lat="42.79431" lon="0.58059">
        <ele>665</ele>
        <time>2025-07-21T13:20:18Z</time>
      </trkpt>
      <trkpt lat="42.79433" lon="0.5805">
        <ele>665.8</ele>
        <time>2025-07-21T13:20:21Z</time>
      </trkpt>
      <trkpt lat="42.79434" lon="0.58043">
        <ele>666.2</ele>
        <time>2025-07-21T13:20:23Z</time>
      </trkpt>
      <trkpt lat="42.79436" lon="0.58028">
        <ele>667.2</ele>
        <time>2025-07-21T13:20:28Z</time>
      </trkpt>
      <trkpt lat="42.79439" lon="0.58012">
        <ele>668.2</ele>
        <time>2025-07-21T13:20:33Z</time>
      </trkpt>
      <trkpt lat="42.7944" lon="0.5801">
        <ele>668.4</ele>
        <time>2025-07-21T13:20:34Z</time>
      </trkpt>
      <trkpt lat="42.79442" lon="0.57998">
        <ele>669.4</ele>
        <time>2025-07-21T13:20:38Z</time>
      </trkpt>
      <trkpt lat="42.79444" lon="0.57992">
        <ele>669.8</ele>
        <time>2025-07-21T13:20:40Z</time>
      </trkpt>
      <trkpt lat="42.79448" lon="0.57973">
        <ele>670.6</ele>
        <time>2025-07-21T13:20:46Z</time>
      </trkpt>
      <trkpt lat="42.79449" lon="0.5797">
        <ele>671</ele>
        <time>2025-07-21T13:20:47Z</time>
      </trkpt>
      <trkpt lat="42.79453" lon="0.57954">
        <ele>671.8</ele>
        <time>2025-07-21T13:20:53Z</time>
      </trkpt>
      <trkpt lat="42.79457" lon="0.57938">
        <ele>672.8</ele>
        <time>2025-07-21T13:20:58Z</time>
      </trkpt>
      <trkpt lat="42.7946" lon="0.57933">
        <ele>673.2</ele>
        <time>2025-07-21T13:21:00Z</time>
      </trkpt>
      <trkpt lat="42.79465" lon="0.57927">
        <ele>674</ele>
        <time>2025-07-21T13:21:03Z</time>
      </trkpt>
      <trkpt lat="42.79474" lon="0.57916">
        <ele>674.8</ele>
        <time>2025-07-21T13:21:08Z</time>
      </trkpt>
      <trkpt lat="42.79476" lon="0.57914">
        <ele>675.2</ele>
        <time>2025-07-21T13:21:09Z</time>
      </trkpt>
      <trkpt lat="42.79486" lon="0.579">
        <ele>676.4</ele>
        <time>2025-07-21T13:21:15Z</time>
      </trkpt>
      <trkpt lat="42.79488" lon="0.57897">
        <ele>676.6</ele>
        <time>2025-07-21T13:21:16Z</time>
      </trkpt>
      <trkpt lat="42.79495" lon="0.5789">
        <ele>677.4</ele>
        <time>2025-07-21T13:21:20Z</time>
      </trkpt>
      <trkpt lat="42.795" lon="0.57883">
        <ele>678</ele>
        <time>2025-07-21T13:21:23Z</time>
      </trkpt>
      <trkpt lat="42.79504" lon="0.57876">
        <ele>678.6</ele>
        <time>2025-07-21T13:21:26Z</time>
      </trkpt>
      <trkpt lat="42.7951" lon="0.57863">
        <ele>679.6</ele>
        <time>2025-07-21T13:21:31Z</time>
      </trkpt>
      <trkpt lat="42.79512" lon="0.5786">
        <ele>679.8</ele>
        <time>2025-07-21T13:21:32Z</time>
      </trkpt>
      <trkpt lat="42.79519" lon="0.57847">
        <ele>680.8</ele>
        <time>2025-07-21T13:21:37Z</time>
      </trkpt>
      <trkpt lat="42.79525" lon="0.57833">
        <ele>682</ele>
        <time>2025-07-21T13:21:42Z</time>
      </trkpt>
      <trkpt lat="42.79533" lon="0.57818">
        <ele>683.2</ele>
        <time>2025-07-21T13:21:48Z</time>
      </trkpt>
      <trkpt lat="42.79537" lon="0.57811">
        <ele>684</ele>
        <time>2025-07-21T13:21:51Z</time>
      </trkpt>
      <trkpt lat="42.79539" lon="0.57806">
        <ele>684.4</ele>
        <time>2025-07-21T13:21:53Z</time>
      </trkpt>
      <trkpt lat="42.79548" lon="0.57792">
        <ele>685.6</ele>
        <time>2025-07-21T13:21:59Z</time>
      </trkpt>
      <trkpt lat="42.79551" lon="0.57786">
        <ele>686</ele>
        <time>2025-07-21T13:22:01Z</time>
      </trkpt>
      <trkpt lat="42.79555" lon="0.57778">
        <ele>686.6</ele>
        <time>2025-07-21T13:22:04Z</time>
      </trkpt>
      <trkpt lat="42.79562" lon="0.57766">
        <ele>687.6</ele>
        <time>2025-07-21T13:22:09Z</time>
      </trkpt>
      <trkpt lat="42.79565" lon="0.57761">
        <ele>687.6</ele>
        <time>2025-07-21T13:22:11Z</time>
      </trkpt>
      <trkpt lat="42.79567" lon="0.57758">
        <ele>688</ele>
        <time>2025-07-21T13:22:12Z</time>
      </trkpt>
      <trkpt lat="42.79573" lon="0.57744">
        <ele>688.6</ele>
        <time>2025-07-21T13:22:17Z</time>
      </trkpt>
      <trkpt lat="42.79576" lon="0.57735">
        <ele>689.6</ele>
        <time>2025-07-21T13:22:20Z</time>
      </trkpt>
      <trkpt lat="42.79577" lon="0.57732">
        <ele>690</ele>
        <time>2025-07-21T13:22:21Z</time>
      </trkpt>
      <trkpt lat="42.79581" lon="0.5772">
        <ele>691</ele>
        <time>2025-07-21T13:22:25Z</time>
      </trkpt>
      <trkpt lat="42.79584" lon="0.57705">
        <ele>692</ele>
        <time>2025-07-21T13:22:30Z</time>
      </trkpt>
      <trkpt lat="42.79585" lon="0.57702">
        <ele>692</ele>
        <time>2025-07-21T13:22:31Z</time>
      </trkpt>
      <trkpt lat="42.79586" lon="0.5769">
        <ele>693.2</ele>
        <time>2025-07-21T13:22:35Z</time>
      </trkpt>
      <trkpt lat="42.79587" lon="0.57684">
        <ele>693.4</ele>
        <time>2025-07-21T13:22:37Z</time>
      </trkpt>
      <trkpt lat="42.79588" lon="0.57673">
        <ele>694</ele>
        <time>2025-07-21T13:22:41Z</time>
      </trkpt>
      <trkpt lat="42.79588" lon="0.57667">
        <ele>694.6</ele>
        <time>2025-07-21T13:22:43Z</time>
      </trkpt>
      <trkpt lat="42.79588" lon="0.57658">
        <ele>695.2</ele>
        <time>2025-07-21T13:22:46Z</time>
      </trkpt>
      <trkpt lat="42.79588" lon="0.57655">
        <ele>695.4</ele>
        <time>2025-07-21T13:22:47Z</time>
      </trkpt>
      <trkpt lat="42.79588" lon="0.5765">
        <ele>695.8</ele>
        <time>2025-07-21T13:22:48Z</time>
      </trkpt>
      <trkpt lat="42.7959" lon="0.5764">
        <ele>696.4</ele>
        <time>2025-07-21T13:22:51Z</time>
      </trkpt>
      <trkpt lat="42.79591" lon="0.57626">
        <ele>697.2</ele>
        <time>2025-07-21T13:22:55Z</time>
      </trkpt>
      <trkpt lat="42.79591" lon="0.57624">
        <ele>697.4</ele>
        <time>2025-07-21T13:22:56Z</time>
      </trkpt>
      <trkpt lat="42.7959" lon="0.57608">
        <ele>699</ele>
        <time>2025-07-21T13:23:00Z</time>
      </trkpt>
      <trkpt lat="42.79588" lon="0.576">
        <ele>699.6</ele>
        <time>2025-07-21T13:23:02Z</time>
      </trkpt>
      <trkpt lat="42.79584" lon="0.57593">
        <ele>700</ele>
        <time>2025-07-21T13:23:04Z</time>
      </trkpt>
      <trkpt lat="42.79582" lon="0.57577">
        <ele>701</ele>
        <time>2025-07-21T13:23:09Z</time>
      </trkpt>
      <trkpt lat="42.79585" lon="0.57569">
        <ele>701.2</ele>
        <time>2025-07-21T13:23:11Z</time>
      </trkpt>
      <trkpt lat="42.7959" lon="0.57553">
        <ele>702.2</ele>
        <time>2025-07-21T13:23:16Z</time>
      </trkpt>
      <trkpt lat="42.79591" lon="0.5755">
        <ele>702.2</ele>
        <time>2025-07-21T13:23:17Z</time>
      </trkpt>
      <trkpt lat="42.79595" lon="0.57539">
        <ele>703.4</ele>
        <time>2025-07-21T13:23:21Z</time>
      </trkpt>
      <trkpt lat="42.79597" lon="0.57526">
        <ele>704.2</ele>
        <time>2025-07-21T13:23:25Z</time>
      </trkpt>
      <trkpt lat="42.79598" lon="0.57523">
        <ele>704.2</ele>
        <time>2025-07-21T13:23:26Z</time>
      </trkpt>
      <trkpt lat="42.79598" lon="0.5752">
        <ele>704.4</ele>
        <time>2025-07-21T13:23:27Z</time>
      </trkpt>
      <trkpt lat="42.79602" lon="0.57505">
        <ele>705</ele>
        <time>2025-07-21T13:23:32Z</time>
      </trkpt>
      <trkpt lat="42.79604" lon="0.57498">
        <ele>705.4</ele>
        <time>2025-07-21T13:23:34Z</time>
      </trkpt>
      <trkpt lat="42.79608" lon="0.5748">
        <ele>706.4</ele>
        <time>2025-07-21T13:23:40Z</time>
      </trkpt>
      <trkpt lat="42.79608" lon="0.57477">
        <ele>706.8</ele>
        <time>2025-07-21T13:23:41Z</time>
      </trkpt>
      <trkpt lat="42.79613" lon="0.57463">
        <ele>708</ele>
        <time>2025-07-21T13:23:46Z</time>
      </trkpt>
      <trkpt lat="42.79613" lon="0.57459">
        <ele>708.2</ele>
        <time>2025-07-21T13:23:47Z</time>
      </trkpt>
      <trkpt lat="42.79616" lon="0.57445">
        <ele>709.2</ele>
        <time>2025-07-21T13:23:51Z</time>
      </trkpt>
      <trkpt lat="42.79621" lon="0.57428">
        <ele>710.2</ele>
        <time>2025-07-21T13:23:57Z</time>
      </trkpt>
      <trkpt lat="42.79621" lon="0.57425">
        <ele>710.4</ele>
        <time>2025-07-21T13:23:58Z</time>
      </trkpt>
      <trkpt lat="42.79626" lon="0.57412">
        <ele>711.4</ele>
        <time>2025-07-21T13:24:03Z</time>
      </trkpt>
      <trkpt lat="42.79627" lon="0.5741">
        <ele>711.6</ele>
        <time>2025-07-21T13:24:04Z</time>
      </trkpt>
      <trkpt lat="42.79632" lon="0.57396">
        <ele>712.6</ele>
        <time>2025-07-21T13:24:09Z</time>
      </trkpt>
      <trkpt lat="42.79633" lon="0.57389">
        <ele>713</ele>
        <time>2025-07-21T13:24:11Z</time>
      </trkpt>
      <trkpt lat="42.79637" lon="0.57374">
        <ele>714</ele>
        <time>2025-07-21T13:24:16Z</time>
      </trkpt>
      <trkpt lat="42.79639" lon="0.57361">
        <ele>714.6</ele>
        <time>2025-07-21T13:24:20Z</time>
      </trkpt>
      <trkpt lat="42.79641" lon="0.57354">
        <ele>714.8</ele>
        <time>2025-07-21T13:24:22Z</time>
      </trkpt>
      <trkpt lat="42.79641" lon="0.57351">
        <ele>715.2</ele>
        <time>2025-07-21T13:24:23Z</time>
      </trkpt>
      <trkpt lat="42.79642" lon="0.5734">
        <ele>716</ele>
        <time>2025-07-21T13:24:27Z</time>
      </trkpt>
      <trkpt lat="42.79643" lon="0.57338">
        <ele>716.6</ele>
        <time>2025-07-21T13:24:28Z</time>
      </trkpt>
      <trkpt lat="42.79642" lon="0.57323">
        <ele>717.6</ele>
        <time>2025-07-21T13:24:33Z</time>
      </trkpt>
      <trkpt lat="42.79642" lon="0.57319">
        <ele>718</ele>
        <time>2025-07-21T13:24:34Z</time>
      </trkpt>
      <trkpt lat="42.79645" lon="0.57304">
        <ele>718.8</ele>
        <time>2025-07-21T13:24:39Z</time>
      </trkpt>
      <trkpt lat="42.79648" lon="0.5729">
        <ele>720</ele>
        <time>2025-07-21T13:24:44Z</time>
      </trkpt>
      <trkpt lat="42.79651" lon="0.57279">
        <ele>720.8</ele>
        <time>2025-07-21T13:24:48Z</time>
      </trkpt>
      <trkpt lat="42.79652" lon="0.57276">
        <ele>720.8</ele>
        <time>2025-07-21T13:24:49Z</time>
      </trkpt>
      <trkpt lat="42.79654" lon="0.57264">
        <ele>721.8</ele>
        <time>2025-07-21T13:24:53Z</time>
      </trkpt>
      <trkpt lat="42.79657" lon="0.57246">
        <ele>722.6</ele>
        <time>2025-07-21T13:24:59Z</time>
      </trkpt>
      <trkpt lat="42.79658" lon="0.57243">
        <ele>723</ele>
        <time>2025-07-21T13:25:00Z</time>
      </trkpt>
      <trkpt lat="42.79659" lon="0.57225">
        <ele>724</ele>
        <time>2025-07-21T13:25:06Z</time>
      </trkpt>
      <trkpt lat="42.7966" lon="0.57207">
        <ele>724.8</ele>
        <time>2025-07-21T13:25:12Z</time>
      </trkpt>
      <trkpt lat="42.7966" lon="0.57196">
        <ele>725.6</ele>
        <time>2025-07-21T13:25:16Z</time>
      </trkpt>
      <trkpt lat="42.7966" lon="0.57193">
        <ele>725.8</ele>
        <time>2025-07-21T13:25:17Z</time>
      </trkpt>
      <trkpt lat="42.7966" lon="0.5719">
        <ele>726</ele>
        <time>2025-07-21T13:25:18Z</time>
      </trkpt>
      <trkpt lat="42.79656" lon="0.5717">
        <ele>727.2</ele>
        <time>2025-07-21T13:25:25Z</time>
      </trkpt>
      <trkpt lat="42.79656" lon="0.57167">
        <ele>727.4</ele>
        <time>2025-07-21T13:25:26Z</time>
      </trkpt>
      <trkpt lat="42.79655" lon="0.57164">
        <ele>727.4</ele>
        <time>2025-07-21T13:25:27Z</time>
      </trkpt>
      <trkpt lat="42.79654" lon="0.57154">
        <ele>728</ele>
        <time>2025-07-21T13:25:30Z</time>
      </trkpt>
      <trkpt lat="42.79653" lon="0.57151">
        <ele>728.2</ele>
        <time>2025-07-21T13:25:31Z</time>
      </trkpt>
      <trkpt lat="42.79653" lon="0.57146">
        <ele>728.8</ele>
        <time>2025-07-21T13:25:33Z</time>
      </trkpt>
      <trkpt lat="42.79651" lon="0.5714">
        <ele>729</ele>
        <time>2025-07-21T13:25:35Z</time>
      </trkpt>
      <trkpt lat="42.79648" lon="0.57134">
        <ele>729.2</ele>
        <time>2025-07-21T13:25:37Z</time>
      </trkpt>
      <trkpt lat="42.79642" lon="0.57115">
        <ele>730</ele>
        <time>2025-07-21T13:25:43Z</time>
      </trkpt>
      <trkpt lat="42.7964" lon="0.57112">
        <ele>730.4</ele>
        <time>2025-07-21T13:25:44Z</time>
      </trkpt>
      <trkpt lat="42.79635" lon="0.57093">
        <ele>731.4</ele>
        <time>2025-07-21T13:25:50Z</time>
      </trkpt>
      <trkpt lat="42.79632" lon="0.57072">
        <ele>732.2</ele>
        <time>2025-07-21T13:25:56Z</time>
      </trkpt>
      <trkpt lat="42.79631" lon="0.57066">
        <ele>732.6</ele>
        <time>2025-07-21T13:25:58Z</time>
      </trkpt>
      <trkpt lat="42.79625" lon="0.57051">
        <ele>733.2</ele>
        <time>2025-07-21T13:26:03Z</time>
      </trkpt>
      <trkpt lat="42.79625" lon="0.57039">
        <ele>733.8</ele>
        <time>2025-07-21T13:26:07Z</time>
      </trkpt>
      <trkpt lat="42.79628" lon="0.57024">
        <ele>734.2</ele>
        <time>2025-07-21T13:26:11Z</time>
      </trkpt>
      <trkpt lat="42.79632" lon="0.57009">
        <ele>734.6</ele>
        <time>2025-07-21T13:26:15Z</time>
      </trkpt>
      <trkpt lat="42.79635" lon="0.56999">
        <ele>734.8</ele>
        <time>2025-07-21T13:26:18Z</time>
      </trkpt>
      <trkpt lat="42.79637" lon="0.56991">
        <ele>735</ele>
        <time>2025-07-21T13:26:20Z</time>
      </trkpt>
      <trkpt lat="42.79646" lon="0.56959">
        <ele>735.2</ele>
        <time>2025-07-21T13:26:28Z</time>
      </trkpt>
      <trkpt lat="42.79657" lon="0.56925">
        <ele>735.8</ele>
        <time>2025-07-21T13:26:35Z</time>
      </trkpt>
      <trkpt lat="42.7966" lon="0.56914">
        <ele>735.8</ele>
        <time>2025-07-21T13:26:37Z</time>
      </trkpt>
      <trkpt lat="42.79665" lon="0.56893">
        <ele>736</ele>
        <time>2025-07-21T13:26:41Z</time>
      </trkpt>
      <trkpt lat="42.79677" lon="0.56851">
        <ele>736.8</ele>
        <time>2025-07-21T13:26:49Z</time>
      </trkpt>
      <trkpt lat="42.79681" lon="0.56842">
        <ele>737</ele>
        <time>2025-07-21T13:26:51Z</time>
      </trkpt>
      <trkpt lat="42.79687" lon="0.5683">
        <ele>737.2</ele>
        <time>2025-07-21T13:26:54Z</time>
      </trkpt>
      <trkpt lat="42.79692" lon="0.56821">
        <ele>737.4</ele>
        <time>2025-07-21T13:26:56Z</time>
      </trkpt>
      <trkpt lat="42.79696" lon="0.56813">
        <ele>737.8</ele>
        <time>2025-07-21T13:26:58Z</time>
      </trkpt>
      <trkpt lat="42.7971" lon="0.56789">
        <ele>738.6</ele>
        <time>2025-07-21T13:27:04Z</time>
      </trkpt>
      <trkpt lat="42.79713" lon="0.56785">
        <ele>738.8</ele>
        <time>2025-07-21T13:27:05Z</time>
      </trkpt>
      <trkpt lat="42.79715" lon="0.56782">
        <ele>739</ele>
        <time>2025-07-21T13:27:06Z</time>
      </trkpt>
      <trkpt lat="42.79725" lon="0.56766">
        <ele>739.6</ele>
        <time>2025-07-21T13:27:10Z</time>
      </trkpt>
      <trkpt lat="42.79734" lon="0.56747">
        <ele>739.8</ele>
        <time>2025-07-21T13:27:14Z</time>
      </trkpt>
      <trkpt lat="42.79735" lon="0.56734">
        <ele>740</ele>
        <time>2025-07-21T13:27:16Z</time>
      </trkpt>
      <trkpt lat="42.79737" lon="0.56728">
        <ele>740.2</ele>
        <time>2025-07-21T13:27:17Z</time>
      </trkpt>
      <trkpt lat="42.7974" lon="0.56718">
        <ele>740.4</ele>
        <time>2025-07-21T13:27:19Z</time>
      </trkpt>
      <trkpt lat="42.79745" lon="0.56703">
        <ele>740.6</ele>
        <time>2025-07-21T13:27:22Z</time>
      </trkpt>
      <trkpt lat="42.79747" lon="0.56699">
        <ele>740.6</ele>
        <time>2025-07-21T13:27:23Z</time>
      </trkpt>
      <trkpt lat="42.79749" lon="0.56694">
        <ele>740.6</ele>
        <time>2025-07-21T13:27:24Z</time>
      </trkpt>
      <trkpt lat="42.79753" lon="0.56686">
        <ele>740.8</ele>
        <time>2025-07-21T13:27:26Z</time>
      </trkpt>
      <trkpt lat="42.79759" lon="0.56677">
        <ele>741</ele>
        <time>2025-07-21T13:27:28Z</time>
      </trkpt>
      <trkpt lat="42.79762" lon="0.56673">
        <ele>741</ele>
        <time>2025-07-21T13:27:29Z</time>
      </trkpt>
      <trkpt lat="42.79765" lon="0.56672">
        <ele>741.2</ele>
        <time>2025-07-21T13:27:30Z</time>
      </trkpt>
      <trkpt lat="42.79784" lon="0.56661">
        <ele>742</ele>
        <time>2025-07-21T13:27:35Z</time>
      </trkpt>
      <trkpt lat="42.79787" lon="0.5666">
        <ele>742</ele>
        <time>2025-07-21T13:27:36Z</time>
      </trkpt>
      <trkpt lat="42.79795" lon="0.56657">
        <ele>742.2</ele>
        <time>2025-07-21T13:27:38Z</time>
      </trkpt>
      <trkpt lat="42.79804" lon="0.56656">
        <ele>742.6</ele>
        <time>2025-07-21T13:27:40Z</time>
      </trkpt>
      <trkpt lat="42.79807" lon="0.56656">
        <ele>742.8</ele>
        <time>2025-07-21T13:27:41Z</time>
      </trkpt>
      <trkpt lat="42.7982" lon="0.56658">
        <ele>743.6</ele>
        <time>2025-07-21T13:27:44Z</time>
      </trkpt>
      <trkpt lat="42.79827" lon="0.56658">
        <ele>743.8</ele>
        <time>2025-07-21T13:27:46Z</time>
      </trkpt>
      <trkpt lat="42.79857" lon="0.5665">
        <ele>743.8</ele>
        <time>2025-07-21T13:27:52Z</time>
      </trkpt>
      <trkpt lat="42.79862" lon="0.56648">
        <ele>743.8</ele>
        <time>2025-07-21T13:27:53Z</time>
      </trkpt>
      <trkpt lat="42.79889" lon="0.56638">
        <ele>743.8</ele>
        <time>2025-07-21T13:27:58Z</time>
      </trkpt>
      <trkpt lat="42.7992" lon="0.56629">
        <ele>743.8</ele>
        <time>2025-07-21T13:28:03Z</time>
      </trkpt>
      <trkpt lat="42.79926" lon="0.56625">
        <ele>743.8</ele>
        <time>2025-07-21T13:28:04Z</time>
      </trkpt>
      <trkpt lat="42.79937" lon="0.56614">
        <ele>743.6</ele>
        <time>2025-07-21T13:28:06Z</time>
      </trkpt>
      <trkpt lat="42.79943" lon="0.56608">
        <ele>743.4</ele>
        <time>2025-07-21T13:28:07Z</time>
      </trkpt>
      <trkpt lat="42.79977" lon="0.56571">
        <ele>742.6</ele>
        <time>2025-07-21T13:28:13Z</time>
      </trkpt>
      <trkpt lat="42.79983" lon="0.56569">
        <ele>742.2</ele>
        <time>2025-07-21T13:28:14Z</time>
      </trkpt>
      <trkpt lat="42.79998" lon="0.56561">
        <ele>742</ele>
        <time>2025-07-21T13:28:16Z</time>
      </trkpt>
      <trkpt lat="42.80005" lon="0.56555">
        <ele>741.6</ele>
        <time>2025-07-21T13:28:17Z</time>
      </trkpt>
      <trkpt lat="42.80009" lon="0.56551">
        <ele>741.4</ele>
        <time>2025-07-21T13:28:18Z</time>
      </trkpt>
      <trkpt lat="42.80016" lon="0.56545">
        <ele>741.2</ele>
        <time>2025-07-21T13:28:19Z</time>
      </trkpt>
      <trkpt lat="42.80024" lon="0.56539">
        <ele>741</ele>
        <time>2025-07-21T13:28:20Z</time>
      </trkpt>
      <trkpt lat="42.8004" lon="0.56532">
        <ele>740.8</ele>
        <time>2025-07-21T13:28:22Z</time>
      </trkpt>
      <trkpt lat="42.80096" lon="0.56509">
        <ele>740.2</ele>
        <time>2025-07-21T13:28:30Z</time>
      </trkpt>
      <trkpt lat="42.80122" lon="0.5649">
        <ele>740</ele>
        <time>2025-07-21T13:28:35Z</time>
      </trkpt>
      <trkpt lat="42.8013" lon="0.56482">
        <ele>740.2</ele>
        <time>2025-07-21T13:28:37Z</time>
      </trkpt>
      <trkpt lat="42.8014" lon="0.5647">
        <ele>740.8</ele>
        <time>2025-07-21T13:28:40Z</time>
      </trkpt>
      <trkpt lat="42.80151" lon="0.56457">
        <ele>742</ele>
        <time>2025-07-21T13:28:44Z</time>
      </trkpt>
      <trkpt lat="42.80156" lon="0.5645">
        <ele>742.6</ele>
        <time>2025-07-21T13:28:46Z</time>
      </trkpt>
      <trkpt lat="42.8016" lon="0.56444">
        <ele>743.2</ele>
        <time>2025-07-21T13:28:48Z</time>
      </trkpt>
      <trkpt lat="42.80169" lon="0.56432">
        <ele>744.2</ele>
        <time>2025-07-21T13:28:52Z</time>
      </trkpt>
      <trkpt lat="42.80174" lon="0.56426">
        <ele>744.6</ele>
        <time>2025-07-21T13:28:54Z</time>
      </trkpt>
      <trkpt lat="42.80182" lon="0.56417">
        <ele>745.2</ele>
        <time>2025-07-21T13:28:58Z</time>
      </trkpt>
      <trkpt lat="42.80193" lon="0.56404">
        <ele>746</ele>
        <time>2025-07-21T13:29:03Z</time>
      </trkpt>
      <trkpt lat="42.80195" lon="0.56401">
        <ele>746</ele>
        <time>2025-07-21T13:29:04Z</time>
      </trkpt>
      <trkpt lat="42.80206" lon="0.56387">
        <ele>747.2</ele>
        <time>2025-07-21T13:29:10Z</time>
      </trkpt>
      <trkpt lat="42.80211" lon="0.56379">
        <ele>747.6</ele>
        <time>2025-07-21T13:29:13Z</time>
      </trkpt>
      <trkpt lat="42.80215" lon="0.56374">
        <ele>748.2</ele>
        <time>2025-07-21T13:29:15Z</time>
      </trkpt>
      <trkpt lat="42.80225" lon="0.56363">
        <ele>749</ele>
        <time>2025-07-21T13:29:20Z</time>
      </trkpt>
      <trkpt lat="42.80229" lon="0.56358">
        <ele>749.2</ele>
        <time>2025-07-21T13:29:22Z</time>
      </trkpt>
      <trkpt lat="42.80231" lon="0.56355">
        <ele>749.4</ele>
        <time>2025-07-21T13:29:23Z</time>
      </trkpt>
      <trkpt lat="42.80245" lon="0.56337">
        <ele>750.2</ele>
        <time>2025-07-21T13:29:30Z</time>
      </trkpt>
      <trkpt lat="42.80247" lon="0.56335">
        <ele>750.2</ele>
        <time>2025-07-21T13:29:31Z</time>
      </trkpt>
      <trkpt lat="42.80267" lon="0.5631">
        <ele>751</ele>
        <time>2025-07-21T13:29:40Z</time>
      </trkpt>
      <trkpt lat="42.80269" lon="0.56307">
        <ele>751.2</ele>
        <time>2025-07-21T13:29:41Z</time>
      </trkpt>
      <trkpt lat="42.80284" lon="0.56289">
        <ele>752.4</ele>
        <time>2025-07-21T13:29:48Z</time>
      </trkpt>
      <trkpt lat="42.80292" lon="0.56279">
        <ele>753.2</ele>
        <time>2025-07-21T13:29:52Z</time>
      </trkpt>
      <trkpt lat="42.80295" lon="0.56272">
        <ele>753.4</ele>
        <time>2025-07-21T13:29:54Z</time>
      </trkpt>
      <trkpt lat="42.80302" lon="0.56255">
        <ele>754.4</ele>
        <time>2025-07-21T13:29:59Z</time>
      </trkpt>
      <trkpt lat="42.80304" lon="0.56252">
        <ele>754.4</ele>
        <time>2025-07-21T13:30:00Z</time>
      </trkpt>
      <trkpt lat="42.80308" lon="0.56246">
        <ele>754.8</ele>
        <time>2025-07-21T13:30:02Z</time>
      </trkpt>
      <trkpt lat="42.80314" lon="0.56233">
        <ele>755.2</ele>
        <time>2025-07-21T13:30:06Z</time>
      </trkpt>
      <trkpt lat="42.80315" lon="0.56231">
        <ele>755.4</ele>
        <time>2025-07-21T13:30:07Z</time>
      </trkpt>
      <trkpt lat="42.80327" lon="0.56214">
        <ele>756.4</ele>
        <time>2025-07-21T13:30:13Z</time>
      </trkpt>
      <trkpt lat="42.80329" lon="0.56213">
        <ele>756.4</ele>
        <time>2025-07-21T13:30:14Z</time>
      </trkpt>
      <trkpt lat="42.80343" lon="0.56203">
        <ele>757.4</ele>
        <time>2025-07-21T13:30:20Z</time>
      </trkpt>
      <trkpt lat="42.80345" lon="0.56201">
        <ele>757.8</ele>
        <time>2025-07-21T13:30:21Z</time>
      </trkpt>
      <trkpt lat="42.80352" lon="0.56199">
        <ele>758.6</ele>
        <time>2025-07-21T13:30:25Z</time>
      </trkpt>
      <trkpt lat="42.80354" lon="0.56198">
        <ele>758.8</ele>
        <time>2025-07-21T13:30:26Z</time>
      </trkpt>
      <trkpt lat="42.80364" lon="0.56198">
        <ele>759.6</ele>
        <time>2025-07-21T13:30:30Z</time>
      </trkpt>
      <trkpt lat="42.8037" lon="0.56197">
        <ele>760.2</ele>
        <time>2025-07-21T13:30:32Z</time>
      </trkpt>
      <trkpt lat="42.80382" lon="0.56198">
        <ele>760.8</ele>
        <time>2025-07-21T13:30:37Z</time>
      </trkpt>
      <trkpt lat="42.80384" lon="0.56197">
        <ele>761</ele>
        <time>2025-07-21T13:30:38Z</time>
      </trkpt>
      <trkpt lat="42.80395" lon="0.56194">
        <ele>761.8</ele>
        <time>2025-07-21T13:30:42Z</time>
      </trkpt>
      <trkpt lat="42.80405" lon="0.56192">
        <ele>762.8</ele>
        <time>2025-07-21T13:30:46Z</time>
      </trkpt>
      <trkpt lat="42.8041" lon="0.56189">
        <ele>763</ele>
        <time>2025-07-21T13:30:48Z</time>
      </trkpt>
      <trkpt lat="42.80421" lon="0.56181">
        <ele>763.8</ele>
        <time>2025-07-21T13:30:53Z</time>
      </trkpt>
      <trkpt lat="42.80425" lon="0.5618">
        <ele>764.2</ele>
        <time>2025-07-21T13:30:55Z</time>
      </trkpt>
      <trkpt lat="42.8043" lon="0.5618">
        <ele>764.6</ele>
        <time>2025-07-21T13:30:57Z</time>
      </trkpt>
      <trkpt lat="42.80433" lon="0.56179">
        <ele>764.8</ele>
        <time>2025-07-21T13:30:58Z</time>
      </trkpt>
      <trkpt lat="42.80441" lon="0.56175">
        <ele>765.2</ele>
        <time>2025-07-21T13:31:01Z</time>
      </trkpt>
      <trkpt lat="42.80451" lon="0.56173">
        <ele>766</ele>
        <time>2025-07-21T13:31:05Z</time>
      </trkpt>
      <trkpt lat="42.80456" lon="0.56169">
        <ele>766.4</ele>
        <time>2025-07-21T13:31:07Z</time>
      </trkpt>
      <trkpt lat="42.8046" lon="0.56169">
        <ele>767</ele>
        <time>2025-07-21T13:31:09Z</time>
      </trkpt>
      <trkpt lat="42.80466" lon="0.56168">
        <ele>767.4</ele>
        <time>2025-07-21T13:31:12Z</time>
      </trkpt>
      <trkpt lat="42.80468" lon="0.56166">
        <ele>767.6</ele>
        <time>2025-07-21T13:31:13Z</time>
      </trkpt>
      <trkpt lat="42.8048" lon="0.56159">
        <ele>768.6</ele>
        <time>2025-07-21T13:31:19Z</time>
      </trkpt>
      <trkpt lat="42.80491" lon="0.5615">
        <ele>769.8</ele>
        <time>2025-07-21T13:31:25Z</time>
      </trkpt>
      <trkpt lat="42.80498" lon="0.56144">
        <ele>770.6</ele>
        <time>2025-07-21T13:31:29Z</time>
      </trkpt>
      <trkpt lat="42.805" lon="0.56142">
        <ele>770.8</ele>
        <time>2025-07-21T13:31:30Z</time>
      </trkpt>
      <trkpt lat="42.80506" lon="0.56137">
        <ele>771.6</ele>
        <time>2025-07-21T13:31:34Z</time>
      </trkpt>
      <trkpt lat="42.80508" lon="0.56134">
        <ele>771.8</ele>
        <time>2025-07-21T13:31:35Z</time>
      </trkpt>
      <trkpt lat="42.80509" lon="0.56133">
        <ele>772</ele>
        <time>2025-07-21T13:31:36Z</time>
      </trkpt>
      <trkpt lat="42.80517" lon="0.56128">
        <ele>772.8</ele>
        <time>2025-07-21T13:31:40Z</time>
      </trkpt>
      <trkpt lat="42.80521" lon="0.56125">
        <ele>773.4</ele>
        <time>2025-07-21T13:31:42Z</time>
      </trkpt>
      <trkpt lat="42.80527" lon="0.56122">
        <ele>774</ele>
        <time>2025-07-21T13:31:45Z</time>
      </trkpt>
      <trkpt lat="42.80537" lon="0.56117">
        <ele>775</ele>
        <time>2025-07-21T13:31:50Z</time>
      </trkpt>
      <trkpt lat="42.80538" lon="0.56116">
        <ele>775.2</ele>
        <time>2025-07-21T13:31:51Z</time>
      </trkpt>
      <trkpt lat="42.80543" lon="0.56114">
        <ele>776</ele>
        <time>2025-07-21T13:31:54Z</time>
      </trkpt>
      <trkpt lat="42.80552" lon="0.56111">
        <ele>776.6</ele>
        <time>2025-07-21T13:31:58Z</time>
      </trkpt>
      <trkpt lat="42.80553" lon="0.56109">
        <ele>776.6</ele>
        <time>2025-07-21T13:31:59Z</time>
      </trkpt>
      <trkpt lat="42.80557" lon="0.56109">
        <ele>777.2</ele>
        <time>2025-07-21T13:32:01Z</time>
      </trkpt>
      <trkpt lat="42.80565" lon="0.56106">
        <ele>778</ele>
        <time>2025-07-21T13:32:05Z</time>
      </trkpt>
      <trkpt lat="42.80567" lon="0.56105">
        <ele>778.4</ele>
        <time>2025-07-21T13:32:06Z</time>
      </trkpt>
      <trkpt lat="42.80577" lon="0.56105">
        <ele>779.6</ele>
        <time>2025-07-21T13:32:11Z</time>
      </trkpt>
      <trkpt lat="42.80579" lon="0.56105">
        <ele>779.6</ele>
        <time>2025-07-21T13:32:12Z</time>
      </trkpt>
      <trkpt lat="42.80588" lon="0.56105">
        <ele>780.6</ele>
        <time>2025-07-21T13:32:17Z</time>
      </trkpt>
      <trkpt lat="42.80596" lon="0.56104">
        <ele>781.6</ele>
        <time>2025-07-21T13:32:21Z</time>
      </trkpt>
      <trkpt lat="42.80603" lon="0.56104">
        <ele>782.6</ele>
        <time>2025-07-21T13:32:24Z</time>
      </trkpt>
      <trkpt lat="42.80612" lon="0.56103">
        <ele>783.4</ele>
        <time>2025-07-21T13:32:28Z</time>
      </trkpt>
      <trkpt lat="42.80617" lon="0.56102">
        <ele>783.8</ele>
        <time>2025-07-21T13:32:30Z</time>
      </trkpt>
      <trkpt lat="42.80625" lon="0.56097">
        <ele>784.8</ele>
        <time>2025-07-21T13:32:34Z</time>
      </trkpt>
      <trkpt lat="42.8063" lon="0.56092">
        <ele>785.2</ele>
        <time>2025-07-21T13:32:36Z</time>
      </trkpt>
      <trkpt lat="42.80636" lon="0.56076">
        <ele>786</ele>
        <time>2025-07-21T13:32:41Z</time>
      </trkpt>
      <trkpt lat="42.80635" lon="0.56054">
        <ele>786.4</ele>
        <time>2025-07-21T13:32:46Z</time>
      </trkpt>
      <trkpt lat="42.80627" lon="0.56039">
        <ele>786.8</ele>
        <time>2025-07-21T13:32:51Z</time>
      </trkpt>
      <trkpt lat="42.80619" lon="0.56031">
        <ele>787</ele>
        <time>2025-07-21T13:32:54Z</time>
      </trkpt>
      <trkpt lat="42.80611" lon="0.56024">
        <ele>787.2</ele>
        <time>2025-07-21T13:32:57Z</time>
      </trkpt>
      <trkpt lat="42.80595" lon="0.56015">
        <ele>787.6</ele>
        <time>2025-07-21T13:33:03Z</time>
      </trkpt>
      <trkpt lat="42.8059" lon="0.56013">
        <ele>787.8</ele>
        <time>2025-07-21T13:33:05Z</time>
      </trkpt>
      <trkpt lat="42.80578" lon="0.5601">
        <ele>788.4</ele>
        <time>2025-07-21T13:33:09Z</time>
      </trkpt>
      <trkpt lat="42.80565" lon="0.56016">
        <ele>788.8</ele>
        <time>2025-07-21T13:33:12Z</time>
      </trkpt>
      <trkpt lat="42.80559" lon="0.56017">
        <ele>789.2</ele>
        <time>2025-07-21T13:33:14Z</time>
      </trkpt>
      <trkpt lat="42.80547" lon="0.5602">
        <ele>789.8</ele>
        <time>2025-07-21T13:33:18Z</time>
      </trkpt>
      <trkpt lat="42.80545" lon="0.56018">
        <ele>790</ele>
        <time>2025-07-21T13:33:19Z</time>
      </trkpt>
      <trkpt lat="42.80543" lon="0.56015">
        <ele>790.2</ele>
        <time>2025-07-21T13:33:20Z</time>
      </trkpt>
      <trkpt lat="42.80534" lon="0.56011">
        <ele>790.6</ele>
        <time>2025-07-21T13:33:23Z</time>
      </trkpt>
      <trkpt lat="42.80529" lon="0.5601">
        <ele>791</ele>
        <time>2025-07-21T13:33:25Z</time>
      </trkpt>
      <trkpt lat="42.80522" lon="0.56009">
        <ele>791.6</ele>
        <time>2025-07-21T13:33:28Z</time>
      </trkpt>
      <trkpt lat="42.80511" lon="0.56014">
        <ele>792.2</ele>
        <time>2025-07-21T13:33:32Z</time>
      </trkpt>
      <trkpt lat="42.80506" lon="0.56014">
        <ele>792.2</ele>
        <time>2025-07-21T13:33:34Z</time>
      </trkpt>
      <trkpt lat="42.80494" lon="0.56014">
        <ele>793</ele>
        <time>2025-07-21T13:33:39Z</time>
      </trkpt>
      <trkpt lat="42.80481" lon="0.56025">
        <ele>794</ele>
        <time>2025-07-21T13:33:46Z</time>
      </trkpt>
      <trkpt lat="42.80479" lon="0.56026">
        <ele>794.4</ele>
        <time>2025-07-21T13:33:47Z</time>
      </trkpt>
      <trkpt lat="42.80466" lon="0.56022">
        <ele>795.2</ele>
        <time>2025-07-21T13:33:53Z</time>
      </trkpt>
      <trkpt lat="42.80464" lon="0.56012">
        <ele>795.4</ele>
        <time>2025-07-21T13:33:56Z</time>
      </trkpt>
      <trkpt lat="42.80464" lon="0.56005">
        <ele>795.8</ele>
        <time>2025-07-21T13:33:58Z</time>
      </trkpt>
      <trkpt lat="42.8047" lon="0.55998">
        <ele>796.6</ele>
        <time>2025-07-21T13:34:01Z</time>
      </trkpt>
      <trkpt lat="42.80474" lon="0.55996">
        <ele>796.6</ele>
        <time>2025-07-21T13:34:02Z</time>
      </trkpt>
      <trkpt lat="42.80487" lon="0.55993">
        <ele>797.6</ele>
        <time>2025-07-21T13:34:07Z</time>
      </trkpt>
      <trkpt lat="42.80492" lon="0.55993">
        <ele>797.8</ele>
        <time>2025-07-21T13:34:09Z</time>
      </trkpt>
      <trkpt lat="42.80506" lon="0.55987">
        <ele>798.8</ele>
        <time>2025-07-21T13:34:15Z</time>
      </trkpt>
      <trkpt lat="42.80508" lon="0.55985">
        <ele>799</ele>
        <time>2025-07-21T13:34:16Z</time>
      </trkpt>
      <trkpt lat="42.80521" lon="0.55976">
        <ele>800</ele>
        <time>2025-07-21T13:34:22Z</time>
      </trkpt>
      <trkpt lat="42.80529" lon="0.55971">
        <ele>800.8</ele>
        <time>2025-07-21T13:34:26Z</time>
      </trkpt>
      <trkpt lat="42.80531" lon="0.5597">
        <ele>801</ele>
        <time>2025-07-21T13:34:27Z</time>
      </trkpt>
      <trkpt lat="42.80545" lon="0.55967">
        <ele>801.8</ele>
        <time>2025-07-21T13:34:33Z</time>
      </trkpt>
      <trkpt lat="42.80549" lon="0.55967">
        <ele>802</ele>
        <time>2025-07-21T13:34:35Z</time>
      </trkpt>
      <trkpt lat="42.80558" lon="0.55966">
        <ele>803</ele>
        <time>2025-07-21T13:34:39Z</time>
      </trkpt>
      <trkpt lat="42.80564" lon="0.55965">
        <ele>803.4</ele>
        <time>2025-07-21T13:34:42Z</time>
      </trkpt>
      <trkpt lat="42.80571" lon="0.55966">
        <ele>804.2</ele>
        <time>2025-07-21T13:34:45Z</time>
      </trkpt>
      <trkpt lat="42.80581" lon="0.55968">
        <ele>805.4</ele>
        <time>2025-07-21T13:34:50Z</time>
      </trkpt>
      <trkpt lat="42.80588" lon="0.55969">
        <ele>806.4</ele>
        <time>2025-07-21T13:34:55Z</time>
      </trkpt>
      <trkpt lat="42.80594" lon="0.55972">
        <ele>807.4</ele>
        <time>2025-07-21T13:34:58Z</time>
      </trkpt>
      <trkpt lat="42.80595" lon="0.55973">
        <ele>807.6</ele>
        <time>2025-07-21T13:34:59Z</time>
      </trkpt>
      <trkpt lat="42.80605" lon="0.55979">
        <ele>808.8</ele>
        <time>2025-07-21T13:35:04Z</time>
      </trkpt>
      <trkpt lat="42.80607" lon="0.5598">
        <ele>808.8</ele>
        <time>2025-07-21T13:35:05Z</time>
      </trkpt>
      <trkpt lat="42.80619" lon="0.55985">
        <ele>810</ele>
        <time>2025-07-21T13:35:09Z</time>
      </trkpt>
      <trkpt lat="42.80629" lon="0.5599">
        <ele>810.8</ele>
        <time>2025-07-21T13:35:14Z</time>
      </trkpt>
      <trkpt lat="42.80634" lon="0.55991">
        <ele>811.2</ele>
        <time>2025-07-21T13:35:16Z</time>
      </trkpt>
      <trkpt lat="42.80647" lon="0.55992">
        <ele>812</ele>
        <time>2025-07-21T13:35:21Z</time>
      </trkpt>
      <trkpt lat="42.80653" lon="0.5599">
        <ele>812.4</ele>
        <time>2025-07-21T13:35:23Z</time>
      </trkpt>
      <trkpt lat="42.80658" lon="0.55981">
        <ele>813</ele>
        <time>2025-07-21T13:35:26Z</time>
      </trkpt>
      <trkpt lat="42.80661" lon="0.55966">
        <ele>813.4</ele>
        <time>2025-07-21T13:35:30Z</time>
      </trkpt>
      <trkpt lat="42.80659" lon="0.5596">
        <ele>813.8</ele>
        <time>2025-07-21T13:35:32Z</time>
      </trkpt>
      <trkpt lat="42.80647" lon="0.55944">
        <ele>814.2</ele>
        <time>2025-07-21T13:35:37Z</time>
      </trkpt>
      <trkpt lat="42.80638" lon="0.55942">
        <ele>814.6</ele>
        <time>2025-07-21T13:35:41Z</time>
      </trkpt>
      <trkpt lat="42.80635" lon="0.55942">
        <ele>814.8</ele>
        <time>2025-07-21T13:35:42Z</time>
      </trkpt>
      <trkpt lat="42.80621" lon="0.55941">
        <ele>815.4</ele>
        <time>2025-07-21T13:35:49Z</time>
      </trkpt>
      <trkpt lat="42.80617" lon="0.55939">
        <ele>815.8</ele>
        <time>2025-07-21T13:35:51Z</time>
      </trkpt>
      <trkpt lat="42.80607" lon="0.55935">
        <ele>816.6</ele>
        <time>2025-07-21T13:35:54Z</time>
      </trkpt>
      <trkpt lat="42.80605" lon="0.55933">
        <ele>817</ele>
        <time>2025-07-21T13:35:56Z</time>
      </trkpt>
      <trkpt lat="42.80597" lon="0.55929">
        <ele>818</ele>
        <time>2025-07-21T13:35:59Z</time>
      </trkpt>
      <trkpt lat="42.80591" lon="0.55927">
        <ele>818.4</ele>
        <time>2025-07-21T13:36:02Z</time>
      </trkpt>
      <trkpt lat="42.80586" lon="0.55923">
        <ele>819</ele>
        <time>2025-07-21T13:36:06Z</time>
      </trkpt>
      <trkpt lat="42.80577" lon="0.55917">
        <ele>819.6</ele>
        <time>2025-07-21T13:36:09Z</time>
      </trkpt>
      <trkpt lat="42.8057" lon="0.55915">
        <ele>820</ele>
        <time>2025-07-21T13:36:12Z</time>
      </trkpt>
      <trkpt lat="42.80559" lon="0.55905">
        <ele>821</ele>
        <time>2025-07-21T13:36:18Z</time>
      </trkpt>
      <trkpt lat="42.80559" lon="0.55905">
        <ele>821.2</ele>
        <time>2025-07-21T13:36:19Z</time>
      </trkpt>
      <trkpt lat="42.8055" lon="0.55891">
        <ele>822.2</ele>
        <time>2025-07-21T13:36:25Z</time>
      </trkpt>
      <trkpt lat="42.80548" lon="0.55886">
        <ele>822.6</ele>
        <time>2025-07-21T13:36:26Z</time>
      </trkpt>
      <trkpt lat="42.80546" lon="0.55877">
        <ele>823.2</ele>
        <time>2025-07-21T13:36:29Z</time>
      </trkpt>
      <trkpt lat="42.80546" lon="0.55874">
        <ele>823.4</ele>
        <time>2025-07-21T13:36:30Z</time>
      </trkpt>
      <trkpt lat="42.80546" lon="0.5586">
        <ele>824.4</ele>
        <time>2025-07-21T13:36:34Z</time>
      </trkpt>
      <trkpt lat="42.80547" lon="0.55854">
        <ele>825.4</ele>
        <time>2025-07-21T13:36:36Z</time>
      </trkpt>
      <trkpt lat="42.80548" lon="0.55847">
        <ele>825.8</ele>
        <time>2025-07-21T13:36:38Z</time>
      </trkpt>
      <trkpt lat="42.80551" lon="0.55833">
        <ele>827.2</ele>
        <time>2025-07-21T13:36:43Z</time>
      </trkpt>
      <trkpt lat="42.80552" lon="0.5583">
        <ele>827.8</ele>
        <time>2025-07-21T13:36:45Z</time>
      </trkpt>
      <trkpt lat="42.80554" lon="0.55824">
        <ele>828.4</ele>
        <time>2025-07-21T13:36:47Z</time>
      </trkpt>
      <trkpt lat="42.80561" lon="0.55804">
        <ele>829.6</ele>
        <time>2025-07-21T13:36:52Z</time>
      </trkpt>
      <trkpt lat="42.80567" lon="0.55789">
        <ele>830.8</ele>
        <time>2025-07-21T13:36:57Z</time>
      </trkpt>
      <trkpt lat="42.80568" lon="0.55781">
        <ele>831.8</ele>
        <time>2025-07-21T13:37:01Z</time>
      </trkpt>
      <trkpt lat="42.80571" lon="0.55764">
        <ele>832.8</ele>
        <time>2025-07-21T13:37:06Z</time>
      </trkpt>
      <trkpt lat="42.80574" lon="0.55756">
        <ele>834</ele>
        <time>2025-07-21T13:37:09Z</time>
      </trkpt>
      <trkpt lat="42.80577" lon="0.55746">
        <ele>835.2</ele>
        <time>2025-07-21T13:37:14Z</time>
      </trkpt>
      <trkpt lat="42.80583" lon="0.5573">
        <ele>836.2</ele>
        <time>2025-07-21T13:37:19Z</time>
      </trkpt>
      <trkpt lat="42.80585" lon="0.55718">
        <ele>837.6</ele>
        <time>2025-07-21T13:37:23Z</time>
      </trkpt>
      <trkpt lat="42.80585" lon="0.55718">
        <ele>837.8</ele>
        <time>2025-07-21T13:37:24Z</time>
      </trkpt>
      <trkpt lat="42.80586" lon="0.55716">
        <ele>838</ele>
        <time>2025-07-21T13:37:25Z</time>
      </trkpt>
      <trkpt lat="42.80589" lon="0.55708">
        <ele>838.6</ele>
        <time>2025-07-21T13:37:27Z</time>
      </trkpt>
      <trkpt lat="42.8059" lon="0.55705">
        <ele>839</ele>
        <time>2025-07-21T13:37:29Z</time>
      </trkpt>
      <trkpt lat="42.80591" lon="0.55693">
        <ele>839.8</ele>
        <time>2025-07-21T13:37:32Z</time>
      </trkpt>
      <trkpt lat="42.80594" lon="0.55684">
        <ele>840.8</ele>
        <time>2025-07-21T13:37:36Z</time>
      </trkpt>
      <trkpt lat="42.80597" lon="0.55667">
        <ele>841.8</ele>
        <time>2025-07-21T13:37:40Z</time>
      </trkpt>
      <trkpt lat="42.80598" lon="0.55658">
        <ele>842.8</ele>
        <time>2025-07-21T13:37:44Z</time>
      </trkpt>
      <trkpt lat="42.80598" lon="0.55651">
        <ele>843.6</ele>
        <time>2025-07-21T13:37:47Z</time>
      </trkpt>
      <trkpt lat="42.80599" lon="0.55644">
        <ele>844</ele>
        <time>2025-07-21T13:37:49Z</time>
      </trkpt>
      <trkpt lat="42.80601" lon="0.5563">
        <ele>845.4</ele>
        <time>2025-07-21T13:37:54Z</time>
      </trkpt>
      <trkpt lat="42.80601" lon="0.55624">
        <ele>846</ele>
        <time>2025-07-21T13:37:56Z</time>
      </trkpt>
      <trkpt lat="42.80602" lon="0.55615">
        <ele>846.6</ele>
        <time>2025-07-21T13:37:59Z</time>
      </trkpt>
      <trkpt lat="42.80604" lon="0.5561">
        <ele>847</ele>
        <time>2025-07-21T13:38:01Z</time>
      </trkpt>
      <trkpt lat="42.80609" lon="0.55596">
        <ele>847.8</ele>
        <time>2025-07-21T13:38:05Z</time>
      </trkpt>
      <trkpt lat="42.80609" lon="0.55583">
        <ele>848</ele>
        <time>2025-07-21T13:38:08Z</time>
      </trkpt>
      <trkpt lat="42.8061" lon="0.55567">
        <ele>848.8</ele>
        <time>2025-07-21T13:38:13Z</time>
      </trkpt>
      <trkpt lat="42.8061" lon="0.55565">
        <ele>849</ele>
        <time>2025-07-21T13:38:14Z</time>
      </trkpt>
      <trkpt lat="42.8061" lon="0.55549">
        <ele>849.8</ele>
        <time>2025-07-21T13:38:19Z</time>
      </trkpt>
      <trkpt lat="42.8061" lon="0.55535">
        <ele>850.6</ele>
        <time>2025-07-21T13:38:23Z</time>
      </trkpt>
      <trkpt lat="42.80608" lon="0.55523">
        <ele>850.8</ele>
        <time>2025-07-21T13:38:25Z</time>
      </trkpt>
      <trkpt lat="42.80609" lon="0.55518">
        <ele>851.2</ele>
        <time>2025-07-21T13:38:27Z</time>
      </trkpt>
      <trkpt lat="42.80608" lon="0.55515">
        <ele>851.4</ele>
        <time>2025-07-21T13:38:28Z</time>
      </trkpt>
      <trkpt lat="42.80608" lon="0.55504">
        <ele>851.8</ele>
        <time>2025-07-21T13:38:31Z</time>
      </trkpt>
      <trkpt lat="42.80608" lon="0.555">
        <ele>852</ele>
        <time>2025-07-21T13:38:32Z</time>
      </trkpt>
      <trkpt lat="42.80608" lon="0.55481">
        <ele>853</ele>
        <time>2025-07-21T13:38:38Z</time>
      </trkpt>
      <trkpt lat="42.80607" lon="0.55472">
        <ele>853.4</ele>
        <time>2025-07-21T13:38:41Z</time>
      </trkpt>
      <trkpt lat="42.80606" lon="0.55455">
        <ele>854.4</ele>
        <time>2025-07-21T13:38:46Z</time>
      </trkpt>
      <trkpt lat="42.80605" lon="0.55449">
        <ele>854.6</ele>
        <time>2025-07-21T13:38:48Z</time>
      </trkpt>
      <trkpt lat="42.80604" lon="0.55438">
        <ele>855.4</ele>
        <time>2025-07-21T13:38:52Z</time>
      </trkpt>
      <trkpt lat="42.80604" lon="0.5543">
        <ele>856.2</ele>
        <time>2025-07-21T13:38:55Z</time>
      </trkpt>
      <trkpt lat="42.80604" lon="0.55424">
        <ele>856.4</ele>
        <time>2025-07-21T13:38:57Z</time>
      </trkpt>
      <trkpt lat="42.80602" lon="0.55406">
        <ele>857.4</ele>
        <time>2025-07-21T13:39:03Z</time>
      </trkpt>
      <trkpt lat="42.80602" lon="0.55403">
        <ele>857.8</ele>
        <time>2025-07-21T13:39:04Z</time>
      </trkpt>
      <trkpt lat="42.80602" lon="0.55394">
        <ele>858.4</ele>
        <time>2025-07-21T13:39:07Z</time>
      </trkpt>
      <trkpt lat="42.806" lon="0.55383">
        <ele>859.4</ele>
        <time>2025-07-21T13:39:11Z</time>
      </trkpt>
      <trkpt lat="42.806" lon="0.5538">
        <ele>859.6</ele>
        <time>2025-07-21T13:39:12Z</time>
      </trkpt>
      <trkpt lat="42.80597" lon="0.55363">
        <ele>860.6</ele>
        <time>2025-07-21T13:39:17Z</time>
      </trkpt>
      <trkpt lat="42.80596" lon="0.55352">
        <ele>861.2</ele>
        <time>2025-07-21T13:39:20Z</time>
      </trkpt>
      <trkpt lat="42.80595" lon="0.55342">
        <ele>861.8</ele>
        <time>2025-07-21T13:39:23Z</time>
      </trkpt>
      <trkpt lat="42.80594" lon="0.5533">
        <ele>863</ele>
        <time>2025-07-21T13:39:28Z</time>
      </trkpt>
      <trkpt lat="42.80593" lon="0.55318">
        <ele>863.4</ele>
        <time>2025-07-21T13:39:31Z</time>
      </trkpt>
      <trkpt lat="42.80594" lon="0.55313">
        <ele>864</ele>
        <time>2025-07-21T13:39:33Z</time>
      </trkpt>
      <trkpt lat="42.80594" lon="0.55304">
        <ele>864.8</ele>
        <time>2025-07-21T13:39:37Z</time>
      </trkpt>
      <trkpt lat="42.80593" lon="0.55299">
        <ele>865</ele>
        <time>2025-07-21T13:39:38Z</time>
      </trkpt>
      <trkpt lat="42.80592" lon="0.55285">
        <ele>866</ele>
        <time>2025-07-21T13:39:43Z</time>
      </trkpt>
      <trkpt lat="42.80592" lon="0.55282">
        <ele>866.2</ele>
        <time>2025-07-21T13:39:44Z</time>
      </trkpt>
      <trkpt lat="42.80594" lon="0.55269">
        <ele>867.4</ele>
        <time>2025-07-21T13:39:49Z</time>
      </trkpt>
      <trkpt lat="42.80596" lon="0.55255">
        <ele>868.6</ele>
        <time>2025-07-21T13:39:53Z</time>
      </trkpt>
      <trkpt lat="42.80597" lon="0.55242">
        <ele>869.4</ele>
        <time>2025-07-21T13:39:57Z</time>
      </trkpt>
      <trkpt lat="42.80598" lon="0.55239">
        <ele>869.8</ele>
        <time>2025-07-21T13:39:58Z</time>
      </trkpt>
      <trkpt lat="42.806" lon="0.55224">
        <ele>870.8</ele>
        <time>2025-07-21T13:40:03Z</time>
      </trkpt>
      <trkpt lat="42.806" lon="0.55221">
        <ele>870.8</ele>
        <time>2025-07-21T13:40:04Z</time>
      </trkpt>
      <trkpt lat="42.80602" lon="0.55209">
        <ele>872</ele>
        <time>2025-07-21T13:40:08Z</time>
      </trkpt>
      <trkpt lat="42.80602" lon="0.55201">
        <ele>872.8</ele>
        <time>2025-07-21T13:40:11Z</time>
      </trkpt>
      <trkpt lat="42.80603" lon="0.55195">
        <ele>873.2</ele>
        <time>2025-07-21T13:40:13Z</time>
      </trkpt>
      <trkpt lat="42.80605" lon="0.55184">
        <ele>874.2</ele>
        <time>2025-07-21T13:40:17Z</time>
      </trkpt>
      <trkpt lat="42.80607" lon="0.55167">
        <ele>875.2</ele>
        <time>2025-07-21T13:40:22Z</time>
      </trkpt>
      <trkpt lat="42.8061" lon="0.55152">
        <ele>876.6</ele>
        <time>2025-07-21T13:40:27Z</time>
      </trkpt>
      <trkpt lat="42.80613" lon="0.55133">
        <ele>877.6</ele>
        <time>2025-07-21T13:40:33Z</time>
      </trkpt>
      <trkpt lat="42.80615" lon="0.55122">
        <ele>878.4</ele>
        <time>2025-07-21T13:40:36Z</time>
      </trkpt>
      <trkpt lat="42.80616" lon="0.55119">
        <ele>878.8</ele>
        <time>2025-07-21T13:40:37Z</time>
      </trkpt>
      <trkpt lat="42.80618" lon="0.55106">
        <ele>879.8</ele>
        <time>2025-07-21T13:40:41Z</time>
      </trkpt>
      <trkpt lat="42.8062" lon="0.55093">
        <ele>880.6</ele>
        <time>2025-07-21T13:40:45Z</time>
      </trkpt>
      <trkpt lat="42.80621" lon="0.5509">
        <ele>881</ele>
        <time>2025-07-21T13:40:46Z</time>
      </trkpt>
      <trkpt lat="42.80623" lon="0.55074">
        <ele>882</ele>
        <time>2025-07-21T13:40:51Z</time>
      </trkpt>
      <trkpt lat="42.80623" lon="0.55071">
        <ele>882.2</ele>
        <time>2025-07-21T13:40:52Z</time>
      </trkpt>
      <trkpt lat="42.80625" lon="0.55059">
        <ele>883.4</ele>
        <time>2025-07-21T13:40:56Z</time>
      </trkpt>
      <trkpt lat="42.80627" lon="0.55044">
        <ele>884.2</ele>
        <time>2025-07-21T13:41:01Z</time>
      </trkpt>
      <trkpt lat="42.80627" lon="0.55041">
        <ele>884.4</ele>
        <time>2025-07-21T13:41:02Z</time>
      </trkpt>
      <trkpt lat="42.8063" lon="0.55024">
        <ele>885.6</ele>
        <time>2025-07-21T13:41:08Z</time>
      </trkpt>
      <trkpt lat="42.80631" lon="0.55015">
        <ele>886.2</ele>
        <time>2025-07-21T13:41:10Z</time>
      </trkpt>
      <trkpt lat="42.80632" lon="0.55012">
        <ele>886.6</ele>
        <time>2025-07-21T13:41:12Z</time>
      </trkpt>
      <trkpt lat="42.80634" lon="0.54994">
        <ele>887.8</ele>
        <time>2025-07-21T13:41:17Z</time>
      </trkpt>
      <trkpt lat="42.80634" lon="0.54971">
        <ele>888.8</ele>
        <time>2025-07-21T13:41:23Z</time>
      </trkpt>
      <trkpt lat="42.80634" lon="0.54959">
        <ele>889.2</ele>
        <time>2025-07-21T13:41:26Z</time>
      </trkpt>
      <trkpt lat="42.80633" lon="0.5495">
        <ele>889.6</ele>
        <time>2025-07-21T13:41:29Z</time>
      </trkpt>
      <trkpt lat="42.80633" lon="0.54947">
        <ele>890</ele>
        <time>2025-07-21T13:41:30Z</time>
      </trkpt>
      <trkpt lat="42.80633" lon="0.54944">
        <ele>890.2</ele>
        <time>2025-07-21T13:41:31Z</time>
      </trkpt>
      <trkpt lat="42.80629" lon="0.54917">
        <ele>890.8</ele>
        <time>2025-07-21T13:41:39Z</time>
      </trkpt>
      <trkpt lat="42.80628" lon="0.54915">
        <ele>891</ele>
        <time>2025-07-21T13:41:40Z</time>
      </trkpt>
      <trkpt lat="42.80628" lon="0.54894">
        <ele>891.6</ele>
        <time>2025-07-21T13:41:46Z</time>
      </trkpt>
      <trkpt lat="42.80628" lon="0.5488">
        <ele>892</ele>
        <time>2025-07-21T13:41:49Z</time>
      </trkpt>
      <trkpt lat="42.80628" lon="0.54859">
        <ele>892.8</ele>
        <time>2025-07-21T13:41:55Z</time>
      </trkpt>
      <trkpt lat="42.80628" lon="0.54859">
        <ele>893</ele>
        <time>2025-07-21T13:41:56Z</time>
      </trkpt>
      <trkpt lat="42.80631" lon="0.54844">
        <ele>894.2</ele>
        <time>2025-07-21T13:42:01Z</time>
      </trkpt>
      <trkpt lat="42.80634" lon="0.54835">
        <ele>894.6</ele>
        <time>2025-07-21T13:42:03Z</time>
      </trkpt>
      <trkpt lat="42.80637" lon="0.54823">
        <ele>895.4</ele>
        <time>2025-07-21T13:42:07Z</time>
      </trkpt>
      <trkpt lat="42.80639" lon="0.54817">
        <ele>895.8</ele>
        <time>2025-07-21T13:42:09Z</time>
      </trkpt>
      <trkpt lat="42.80641" lon="0.54809">
        <ele>896.4</ele>
        <time>2025-07-21T13:42:12Z</time>
      </trkpt>
      <trkpt lat="42.80643" lon="0.54803">
        <ele>897</ele>
        <time>2025-07-21T13:42:15Z</time>
      </trkpt>
      <trkpt lat="42.80643" lon="0.54798">
        <ele>897.6</ele>
        <time>2025-07-21T13:42:17Z</time>
      </trkpt>
      <trkpt lat="42.80645" lon="0.54782">
        <ele>898.8</ele>
        <time>2025-07-21T13:42:22Z</time>
      </trkpt>
      <trkpt lat="42.80647" lon="0.5477">
        <ele>899.8</ele>
        <time>2025-07-21T13:42:26Z</time>
      </trkpt>
      <trkpt lat="42.80648" lon="0.54767">
        <ele>899.8</ele>
        <time>2025-07-21T13:42:27Z</time>
      </trkpt>
      <trkpt lat="42.80651" lon="0.54752">
        <ele>900.6</ele>
        <time>2025-07-21T13:42:32Z</time>
      </trkpt>
      <trkpt lat="42.80653" lon="0.54744">
        <ele>901.2</ele>
        <time>2025-07-21T13:42:35Z</time>
      </trkpt>
      <trkpt lat="42.80654" lon="0.5473">
        <ele>901.8</ele>
        <time>2025-07-21T13:42:38Z</time>
      </trkpt>
      <trkpt lat="42.80656" lon="0.54713">
        <ele>902.8</ele>
        <time>2025-07-21T13:42:42Z</time>
      </trkpt>
      <trkpt lat="42.80657" lon="0.54694">
        <ele>903.6</ele>
        <time>2025-07-21T13:42:48Z</time>
      </trkpt>
      <trkpt lat="42.80658" lon="0.5469">
        <ele>903.8</ele>
        <time>2025-07-21T13:42:49Z</time>
      </trkpt>
      <trkpt lat="42.80659" lon="0.54664">
        <ele>905</ele>
        <time>2025-07-21T13:42:56Z</time>
      </trkpt>
      <trkpt lat="42.80657" lon="0.54635">
        <ele>906</ele>
        <time>2025-07-21T13:43:03Z</time>
      </trkpt>
      <trkpt lat="42.80657" lon="0.54635">
        <ele>906</ele>
        <time>2025-07-21T13:43:04Z</time>
      </trkpt>
      <trkpt lat="42.80652" lon="0.54606">
        <ele>906.4</ele>
        <time>2025-07-21T13:43:09Z</time>
      </trkpt>
      <trkpt lat="42.80648" lon="0.5458">
        <ele>907.2</ele>
        <time>2025-07-21T13:43:15Z</time>
      </trkpt>
      <trkpt lat="42.80647" lon="0.54563">
        <ele>907.4</ele>
        <time>2025-07-21T13:43:19Z</time>
      </trkpt>
      <trkpt lat="42.80645" lon="0.5454">
        <ele>908</ele>
        <time>2025-07-21T13:43:24Z</time>
      </trkpt>
      <trkpt lat="42.80645" lon="0.54525">
        <ele>908.2</ele>
        <time>2025-07-21T13:43:27Z</time>
      </trkpt>
      <trkpt lat="42.80645" lon="0.54495">
        <ele>909</ele>
        <time>2025-07-21T13:43:33Z</time>
      </trkpt>
      <trkpt lat="42.80646" lon="0.5446">
        <ele>909.8</ele>
        <time>2025-07-21T13:43:40Z</time>
      </trkpt>
      <trkpt lat="42.80646" lon="0.54452">
        <ele>910.2</ele>
        <time>2025-07-21T13:43:42Z</time>
      </trkpt>
      <trkpt lat="42.80649" lon="0.54433">
        <ele>910.8</ele>
        <time>2025-07-21T13:43:47Z</time>
      </trkpt>
      <trkpt lat="42.80648" lon="0.54427">
        <ele>911.2</ele>
        <time>2025-07-21T13:43:49Z</time>
      </trkpt>
      <trkpt lat="42.80642" lon="0.54404">
        <ele>912.4</ele>
        <time>2025-07-21T13:43:56Z</time>
      </trkpt>
      <trkpt lat="42.80639" lon="0.54391">
        <ele>913.4</ele>
        <time>2025-07-21T13:44:00Z</time>
      </trkpt>
      <trkpt lat="42.80636" lon="0.54371">
        <ele>914.2</ele>
        <time>2025-07-21T13:44:06Z</time>
      </trkpt>
      <trkpt lat="42.80634" lon="0.54364">
        <ele>914.4</ele>
        <time>2025-07-21T13:44:08Z</time>
      </trkpt>
      <trkpt lat="42.80631" lon="0.54343">
        <ele>915.6</ele>
        <time>2025-07-21T13:44:14Z</time>
      </trkpt>
      <trkpt lat="42.80628" lon="0.54333">
        <ele>916</ele>
        <time>2025-07-21T13:44:17Z</time>
      </trkpt>
      <trkpt lat="42.80625" lon="0.54317">
        <ele>916.8</ele>
        <time>2025-07-21T13:44:22Z</time>
      </trkpt>
      <trkpt lat="42.80625" lon="0.54311">
        <ele>917.2</ele>
        <time>2025-07-21T13:44:24Z</time>
      </trkpt>
      <trkpt lat="42.80624" lon="0.54301">
        <ele>917.6</ele>
        <time>2025-07-21T13:44:27Z</time>
      </trkpt>
      <trkpt lat="42.80623" lon="0.54284">
        <ele>918.4</ele>
        <time>2025-07-21T13:44:32Z</time>
      </trkpt>
      <trkpt lat="42.80623" lon="0.54281">
        <ele>918.6</ele>
        <time>2025-07-21T13:44:33Z</time>
      </trkpt>
      <trkpt lat="42.80622" lon="0.54257">
        <ele>919.6</ele>
        <time>2025-07-21T13:44:40Z</time>
      </trkpt>
      <trkpt lat="42.80622" lon="0.54253">
        <ele>919.8</ele>
        <time>2025-07-21T13:44:41Z</time>
      </trkpt>
      <trkpt lat="42.80622" lon="0.54229">
        <ele>920.8</ele>
        <time>2025-07-21T13:44:48Z</time>
      </trkpt>
      <trkpt lat="42.80622" lon="0.54211">
        <ele>921.8</ele>
        <time>2025-07-21T13:44:53Z</time>
      </trkpt>
      <trkpt lat="42.80622" lon="0.54178">
        <ele>922.8</ele>
        <time>2025-07-21T13:45:02Z</time>
      </trkpt>
      <trkpt lat="42.80622" lon="0.5415">
        <ele>924</ele>
        <time>2025-07-21T13:45:10Z</time>
      </trkpt>
      <trkpt lat="42.80622" lon="0.54143">
        <ele>924.4</ele>
        <time>2025-07-21T13:45:12Z</time>
      </trkpt>
      <trkpt lat="42.80623" lon="0.54118">
        <ele>925</ele>
        <time>2025-07-21T13:45:19Z</time>
      </trkpt>
      <trkpt lat="42.80623" lon="0.54108">
        <ele>925.6</ele>
        <time>2025-07-21T13:45:22Z</time>
      </trkpt>
      <trkpt lat="42.80623" lon="0.54102">
        <ele>926</ele>
        <time>2025-07-21T13:45:24Z</time>
      </trkpt>
      <trkpt lat="42.80625" lon="0.54078">
        <ele>927.4</ele>
        <time>2025-07-21T13:45:31Z</time>
      </trkpt>
      <trkpt lat="42.80626" lon="0.54075">
        <ele>927.6</ele>
        <time>2025-07-21T13:45:32Z</time>
      </trkpt>
      <trkpt lat="42.80627" lon="0.54065">
        <ele>928.4</ele>
        <time>2025-07-21T13:45:35Z</time>
      </trkpt>
      <trkpt lat="42.80629" lon="0.54046">
        <ele>929.2</ele>
        <time>2025-07-21T13:45:41Z</time>
      </trkpt>
      <trkpt lat="42.80629" lon="0.54042">
        <ele>929.4</ele>
        <time>2025-07-21T13:45:42Z</time>
      </trkpt>
      <trkpt lat="42.80632" lon="0.5402">
        <ele>930.6</ele>
        <time>2025-07-21T13:45:49Z</time>
      </trkpt>
      <trkpt lat="42.80633" lon="0.5401">
        <ele>931.2</ele>
        <time>2025-07-21T13:45:52Z</time>
      </trkpt>
      <trkpt lat="42.80634" lon="0.54004">
        <ele>931.6</ele>
        <time>2025-07-21T13:45:54Z</time>
      </trkpt>
      <trkpt lat="42.80635" lon="0.53991">
        <ele>932.6</ele>
        <time>2025-07-21T13:45:58Z</time>
      </trkpt>
      <trkpt lat="42.80636" lon="0.53984">
        <ele>933.2</ele>
        <time>2025-07-21T13:46:01Z</time>
      </trkpt>
      <trkpt lat="42.80638" lon="0.53971">
        <ele>933.6</ele>
        <time>2025-07-21T13:46:04Z</time>
      </trkpt>
      <trkpt lat="42.80642" lon="0.53948">
        <ele>934.8</ele>
        <time>2025-07-21T13:46:11Z</time>
      </trkpt>
      <trkpt lat="42.80643" lon="0.53945">
        <ele>934.8</ele>
        <time>2025-07-21T13:46:12Z</time>
      </trkpt>
      <trkpt lat="42.80646" lon="0.53925">
        <ele>935.8</ele>
        <time>2025-07-21T13:46:18Z</time>
      </trkpt>
      <trkpt lat="42.80649" lon="0.53909">
        <ele>936.6</ele>
        <time>2025-07-21T13:46:23Z</time>
      </trkpt>
      <trkpt lat="42.8065" lon="0.53902">
        <ele>936.8</ele>
        <time>2025-07-21T13:46:25Z</time>
      </trkpt>
      <trkpt lat="42.80653" lon="0.53879">
        <ele>937.8</ele>
        <time>2025-07-21T13:46:32Z</time>
      </trkpt>
      <trkpt lat="42.80654" lon="0.53875">
        <ele>938</ele>
        <time>2025-07-21T13:46:33Z</time>
      </trkpt>
      <trkpt lat="42.80658" lon="0.53845">
        <ele>939.2</ele>
        <time>2025-07-21T13:46:42Z</time>
      </trkpt>
      <trkpt lat="42.8066" lon="0.53834">
        <ele>939.8</ele>
        <time>2025-07-21T13:46:45Z</time>
      </trkpt>
      <trkpt lat="42.80663" lon="0.53803">
        <ele>940.4</ele>
        <time>2025-07-21T13:46:53Z</time>
      </trkpt>
      <trkpt lat="42.80664" lon="0.53795">
        <ele>940.4</ele>
        <time>2025-07-21T13:46:55Z</time>
      </trkpt>
      <trkpt lat="42.80665" lon="0.53762">
        <ele>941.2</ele>
        <time>2025-07-21T13:47:03Z</time>
      </trkpt>
      <trkpt lat="42.80666" lon="0.53754">
        <ele>941.4</ele>
        <time>2025-07-21T13:47:05Z</time>
      </trkpt>
      <trkpt lat="42.80666" lon="0.53727">
        <ele>942</ele>
        <time>2025-07-21T13:47:11Z</time>
      </trkpt>
      <trkpt lat="42.80664" lon="0.53707">
        <ele>942.4</ele>
        <time>2025-07-21T13:47:15Z</time>
      </trkpt>
      <trkpt lat="42.80666" lon="0.53687">
        <ele>943</ele>
        <time>2025-07-21T13:47:20Z</time>
      </trkpt>
      <trkpt lat="42.80665" lon="0.53664">
        <ele>943.6</ele>
        <time>2025-07-21T13:47:25Z</time>
      </trkpt>
      <trkpt lat="42.80664" lon="0.53654">
        <ele>944</ele>
        <time>2025-07-21T13:47:27Z</time>
      </trkpt>
      <trkpt lat="42.80664" lon="0.53615">
        <ele>944.4</ele>
        <time>2025-07-21T13:47:33Z</time>
      </trkpt>
      <trkpt lat="42.80666" lon="0.53597">
        <ele>944.4</ele>
        <time>2025-07-21T13:47:36Z</time>
      </trkpt>
      <trkpt lat="42.80674" lon="0.53546">
        <ele>945</ele>
        <time>2025-07-21T13:47:44Z</time>
      </trkpt>
      <trkpt lat="42.80679" lon="0.53522">
        <ele>945.4</ele>
        <time>2025-07-21T13:47:49Z</time>
      </trkpt>
      <trkpt lat="42.80684" lon="0.535">
        <ele>945.8</ele>
        <time>2025-07-21T13:47:52Z</time>
      </trkpt>
      <trkpt lat="42.80687" lon="0.53484">
        <ele>946.2</ele>
        <time>2025-07-21T13:47:55Z</time>
      </trkpt>
      <trkpt lat="42.80689" lon="0.53474">
        <ele>946.6</ele>
        <time>2025-07-21T13:47:57Z</time>
      </trkpt>
      <trkpt lat="42.8069" lon="0.53465">
        <ele>947</ele>
        <time>2025-07-21T13:47:59Z</time>
      </trkpt>
      <trkpt lat="42.80691" lon="0.5345">
        <ele>947.8</ele>
        <time>2025-07-21T13:48:02Z</time>
      </trkpt>
      <trkpt lat="42.80691" lon="0.53434">
        <ele>948.6</ele>
        <time>2025-07-21T13:48:05Z</time>
      </trkpt>
      <trkpt lat="42.8069" lon="0.53424">
        <ele>949</ele>
        <time>2025-07-21T13:48:07Z</time>
      </trkpt>
      <trkpt lat="42.80688" lon="0.534">
        <ele>950.2</ele>
        <time>2025-07-21T13:48:12Z</time>
      </trkpt>
      <trkpt lat="42.80687" lon="0.5339">
        <ele>950.6</ele>
        <time>2025-07-21T13:48:14Z</time>
      </trkpt>
      <trkpt lat="42.80686" lon="0.5337">
        <ele>951.2</ele>
        <time>2025-07-21T13:48:18Z</time>
      </trkpt>
      <trkpt lat="42.80686" lon="0.5337">
        <ele>951.4</ele>
        <time>2025-07-21T13:48:19Z</time>
      </trkpt>
      <trkpt lat="42.80687" lon="0.53363">
        <ele>951.4</ele>
        <time>2025-07-21T13:48:20Z</time>
      </trkpt>
      <trkpt lat="42.80685" lon="0.53341">
        <ele>952</ele>
        <time>2025-07-21T13:48:25Z</time>
      </trkpt>
      <trkpt lat="42.80685" lon="0.53322">
        <ele>952.4</ele>
        <time>2025-07-21T13:48:29Z</time>
      </trkpt>
      <trkpt lat="42.80686" lon="0.53318">
        <ele>952.6</ele>
        <time>2025-07-21T13:48:30Z</time>
      </trkpt>
      <trkpt lat="42.80689" lon="0.53299">
        <ele>953.4</ele>
        <time>2025-07-21T13:48:35Z</time>
      </trkpt>
      <trkpt lat="42.80695" lon="0.53278">
        <ele>954.2</ele>
        <time>2025-07-21T13:48:39Z</time>
      </trkpt>
      <trkpt lat="42.80697" lon="0.5327">
        <ele>954.6</ele>
        <time>2025-07-21T13:48:41Z</time>
      </trkpt>
      <trkpt lat="42.80702" lon="0.5325">
        <ele>955.4</ele>
        <time>2025-07-21T13:48:47Z</time>
      </trkpt>
      <trkpt lat="42.80704" lon="0.53243">
        <ele>955.8</ele>
        <time>2025-07-21T13:48:49Z</time>
      </trkpt>
      <trkpt lat="42.80707" lon="0.53227">
        <ele>957</ele>
        <time>2025-07-21T13:48:54Z</time>
      </trkpt>
      <trkpt lat="42.80707" lon="0.53224">
        <ele>957.2</ele>
        <time>2025-07-21T13:48:55Z</time>
      </trkpt>
      <trkpt lat="42.80711" lon="0.53209">
        <ele>958.2</ele>
        <time>2025-07-21T13:49:00Z</time>
      </trkpt>
      <trkpt lat="42.80713" lon="0.53192">
        <ele>959</ele>
        <time>2025-07-21T13:49:06Z</time>
      </trkpt>
      <trkpt lat="42.80714" lon="0.53186">
        <ele>959.6</ele>
        <time>2025-07-21T13:49:08Z</time>
      </trkpt>
      <trkpt lat="42.80716" lon="0.53172">
        <ele>960.4</ele>
        <time>2025-07-21T13:49:13Z</time>
      </trkpt>
      <trkpt lat="42.80717" lon="0.53166">
        <ele>960.6</ele>
        <time>2025-07-21T13:49:15Z</time>
      </trkpt>
      <trkpt lat="42.8072" lon="0.53154">
        <ele>961.4</ele>
        <time>2025-07-21T13:49:19Z</time>
      </trkpt>
      <trkpt lat="42.80723" lon="0.53142">
        <ele>962.4</ele>
        <time>2025-07-21T13:49:23Z</time>
      </trkpt>
      <trkpt lat="42.80724" lon="0.53136">
        <ele>962.8</ele>
        <time>2025-07-21T13:49:25Z</time>
      </trkpt>
      <trkpt lat="42.80727" lon="0.53121">
        <ele>963.8</ele>
        <time>2025-07-21T13:49:30Z</time>
      </trkpt>
      <trkpt lat="42.80728" lon="0.53112">
        <ele>964.2</ele>
        <time>2025-07-21T13:49:33Z</time>
      </trkpt>
      <trkpt lat="42.8073" lon="0.53101">
        <ele>965</ele>
        <time>2025-07-21T13:49:37Z</time>
      </trkpt>
      <trkpt lat="42.80732" lon="0.5309">
        <ele>965.6</ele>
        <time>2025-07-21T13:49:41Z</time>
      </trkpt>
      <trkpt lat="42.80734" lon="0.53084">
        <ele>966.2</ele>
        <time>2025-07-21T13:49:43Z</time>
      </trkpt>
      <trkpt lat="42.80737" lon="0.53074">
        <ele>967</ele>
        <time>2025-07-21T13:49:47Z</time>
      </trkpt>
      <trkpt lat="42.80738" lon="0.53071">
        <ele>967.2</ele>
        <time>2025-07-21T13:49:48Z</time>
      </trkpt>
      <trkpt lat="42.8074" lon="0.53058">
        <ele>968.2</ele>
        <time>2025-07-21T13:49:52Z</time>
      </trkpt>
      <trkpt lat="42.80741" lon="0.53046">
        <ele>969.2</ele>
        <time>2025-07-21T13:49:56Z</time>
      </trkpt>
      <trkpt lat="42.80741" lon="0.53043">
        <ele>969.4</ele>
        <time>2025-07-21T13:49:57Z</time>
      </trkpt>
      <trkpt lat="42.80741" lon="0.53024">
        <ele>970.4</ele>
        <time>2025-07-21T13:50:03Z</time>
      </trkpt>
      <trkpt lat="42.80741" lon="0.53018">
        <ele>970.8</ele>
        <time>2025-07-21T13:50:05Z</time>
      </trkpt>
      <trkpt lat="42.8074" lon="0.53005">
        <ele>971.6</ele>
        <time>2025-07-21T13:50:09Z</time>
      </trkpt>
      <trkpt lat="42.80739" lon="0.52992">
        <ele>972.8</ele>
        <time>2025-07-21T13:50:14Z</time>
      </trkpt>
      <trkpt lat="42.80738" lon="0.52989">
        <ele>972.8</ele>
        <time>2025-07-21T13:50:15Z</time>
      </trkpt>
      <trkpt lat="42.80737" lon="0.52975">
        <ele>974</ele>
        <time>2025-07-21T13:50:20Z</time>
      </trkpt>
      <trkpt lat="42.80735" lon="0.52964">
        <ele>975</ele>
        <time>2025-07-21T13:50:24Z</time>
      </trkpt>
      <trkpt lat="42.80732" lon="0.52951">
        <ele>976.2</ele>
        <time>2025-07-21T13:50:29Z</time>
      </trkpt>
      <trkpt lat="42.80731" lon="0.52946">
        <ele>976.4</ele>
        <time>2025-07-21T13:50:31Z</time>
      </trkpt>
      <trkpt lat="42.80729" lon="0.52936">
        <ele>977.4</ele>
        <time>2025-07-21T13:50:35Z</time>
      </trkpt>
      <trkpt lat="42.80728" lon="0.52923">
        <ele>978.6</ele>
        <time>2025-07-21T13:50:40Z</time>
      </trkpt>
      <trkpt lat="42.80723" lon="0.52905">
        <ele>980</ele>
        <time>2025-07-21T13:50:47Z</time>
      </trkpt>
      <trkpt lat="42.80721" lon="0.52901">
        <ele>980.4</ele>
        <time>2025-07-21T13:50:49Z</time>
      </trkpt>
      <trkpt lat="42.80718" lon="0.52893">
        <ele>981.2</ele>
        <time>2025-07-21T13:50:52Z</time>
      </trkpt>
      <trkpt lat="42.80712" lon="0.52879">
        <ele>982.2</ele>
        <time>2025-07-21T13:50:57Z</time>
      </trkpt>
      <trkpt lat="42.80711" lon="0.52876">
        <ele>982.4</ele>
        <time>2025-07-21T13:50:58Z</time>
      </trkpt>
      <trkpt lat="42.80707" lon="0.52863">
        <ele>983.2</ele>
        <time>2025-07-21T13:51:03Z</time>
      </trkpt>
      <trkpt lat="42.80704" lon="0.52853">
        <ele>984</ele>
        <time>2025-07-21T13:51:07Z</time>
      </trkpt>
      <trkpt lat="42.80703" lon="0.52851">
        <ele>984.2</ele>
        <time>2025-07-21T13:51:08Z</time>
      </trkpt>
      <trkpt lat="42.80697" lon="0.52839">
        <ele>985</ele>
        <time>2025-07-21T13:51:13Z</time>
      </trkpt>
      <trkpt lat="42.80696" lon="0.52834">
        <ele>985.4</ele>
        <time>2025-07-21T13:51:15Z</time>
      </trkpt>
      <trkpt lat="42.80691" lon="0.52822">
        <ele>986.4</ele>
        <time>2025-07-21T13:51:20Z</time>
      </trkpt>
      <trkpt lat="42.8069" lon="0.5282">
        <ele>986.6</ele>
        <time>2025-07-21T13:51:21Z</time>
      </trkpt>
      <trkpt lat="42.80687" lon="0.5281">
        <ele>987.6</ele>
        <time>2025-07-21T13:51:25Z</time>
      </trkpt>
      <trkpt lat="42.80683" lon="0.52801">
        <ele>988.4</ele>
        <time>2025-07-21T13:51:29Z</time>
      </trkpt>
      <trkpt lat="42.80681" lon="0.52796">
        <ele>988.6</ele>
        <time>2025-07-21T13:51:31Z</time>
      </trkpt>
      <trkpt lat="42.80676" lon="0.52784">
        <ele>989.8</ele>
        <time>2025-07-21T13:51:36Z</time>
      </trkpt>
      <trkpt lat="42.80674" lon="0.52779">
        <ele>990</ele>
        <time>2025-07-21T13:51:38Z</time>
      </trkpt>
      <trkpt lat="42.8067" lon="0.5277">
        <ele>991</ele>
        <time>2025-07-21T13:51:42Z</time>
      </trkpt>
      <trkpt lat="42.8067" lon="0.52769">
        <ele>991</ele>
        <time>2025-07-21T13:51:43Z</time>
      </trkpt>
      <trkpt lat="42.80666" lon="0.52752">
        <ele>992.2</ele>
        <time>2025-07-21T13:51:49Z</time>
      </trkpt>
      <trkpt lat="42.80664" lon="0.52744">
        <ele>992.8</ele>
        <time>2025-07-21T13:51:52Z</time>
      </trkpt>
      <trkpt lat="42.80663" lon="0.52739">
        <ele>993</ele>
        <time>2025-07-21T13:51:54Z</time>
      </trkpt>
      <trkpt lat="42.80659" lon="0.52725">
        <ele>994</ele>
        <time>2025-07-21T13:51:59Z</time>
      </trkpt>
      <trkpt lat="42.80658" lon="0.52723">
        <ele>994.2</ele>
        <time>2025-07-21T13:52:00Z</time>
      </trkpt>
      <trkpt lat="42.80655" lon="0.52709">
        <ele>995.4</ele>
        <time>2025-07-21T13:52:05Z</time>
      </trkpt>
      <trkpt lat="42.80653" lon="0.52703">
        <ele>996</ele>
        <time>2025-07-21T13:52:07Z</time>
      </trkpt>
      <trkpt lat="42.80651" lon="0.52695">
        <ele>996.6</ele>
        <time>2025-07-21T13:52:10Z</time>
      </trkpt>
      <trkpt lat="42.80648" lon="0.52683">
        <ele>997.8</ele>
        <time>2025-07-21T13:52:15Z</time>
      </trkpt>
      <trkpt lat="42.80646" lon="0.52669">
        <ele>998.8</ele>
        <time>2025-07-21T13:52:20Z</time>
      </trkpt>
      <trkpt lat="42.80644" lon="0.52661">
        <ele>999.2</ele>
        <time>2025-07-21T13:52:23Z</time>
      </trkpt>
      <trkpt lat="42.80643" lon="0.52655">
        <ele>999.8</ele>
        <time>2025-07-21T13:52:25Z</time>
      </trkpt>
      <trkpt lat="42.80641" lon="0.52643">
        <ele>1001</ele>
        <time>2025-07-21T13:52:30Z</time>
      </trkpt>
      <trkpt lat="42.8064" lon="0.52641">
        <ele>1001.2</ele>
        <time>2025-07-21T13:52:31Z</time>
      </trkpt>
      <trkpt lat="42.80638" lon="0.52633">
        <ele>1002</ele>
        <time>2025-07-21T13:52:34Z</time>
      </trkpt>
      <trkpt lat="42.80635" lon="0.52619">
        <ele>1003</ele>
        <time>2025-07-21T13:52:39Z</time>
      </trkpt>
      <trkpt lat="42.80634" lon="0.52617">
        <ele>1003.2</ele>
        <time>2025-07-21T13:52:40Z</time>
      </trkpt>
      <trkpt lat="42.80633" lon="0.52608">
        <ele>1004.2</ele>
        <time>2025-07-21T13:52:43Z</time>
      </trkpt>
      <trkpt lat="42.80629" lon="0.52594">
        <ele>1005.2</ele>
        <time>2025-07-21T13:52:48Z</time>
      </trkpt>
      <trkpt lat="42.80629" lon="0.52591">
        <ele>1005.2</ele>
        <time>2025-07-21T13:52:49Z</time>
      </trkpt>
      <trkpt lat="42.80624" lon="0.52568">
        <ele>1006.2</ele>
        <time>2025-07-21T13:52:57Z</time>
      </trkpt>
      <trkpt lat="42.80622" lon="0.5256">
        <ele>1007</ele>
        <time>2025-07-21T13:53:00Z</time>
      </trkpt>
      <trkpt lat="42.80621" lon="0.52557">
        <ele>1007.2</ele>
        <time>2025-07-21T13:53:01Z</time>
      </trkpt>
      <trkpt lat="42.80619" lon="0.52543">
        <ele>1008.6</ele>
        <time>2025-07-21T13:53:06Z</time>
      </trkpt>
      <trkpt lat="42.80617" lon="0.52534">
        <ele>1009.4</ele>
        <time>2025-07-21T13:53:09Z</time>
      </trkpt>
      <trkpt lat="42.80616" lon="0.52528">
        <ele>1009.8</ele>
        <time>2025-07-21T13:53:11Z</time>
      </trkpt>
      <trkpt lat="42.80612" lon="0.52509">
        <ele>1011</ele>
        <time>2025-07-21T13:53:18Z</time>
      </trkpt>
      <trkpt lat="42.8061" lon="0.52493">
        <ele>1012</ele>
        <time>2025-07-21T13:53:24Z</time>
      </trkpt>
      <trkpt lat="42.8061" lon="0.52487">
        <ele>1012.4</ele>
        <time>2025-07-21T13:53:26Z</time>
      </trkpt>
      <trkpt lat="42.80609" lon="0.52475">
        <ele>1013</ele>
        <time>2025-07-21T13:53:30Z</time>
      </trkpt>
      <trkpt lat="42.8061" lon="0.52466">
        <ele>1013.8</ele>
        <time>2025-07-21T13:53:33Z</time>
      </trkpt>
      <trkpt lat="42.8061" lon="0.52463">
        <ele>1014</ele>
        <time>2025-07-21T13:53:34Z</time>
      </trkpt>
      <trkpt lat="42.80609" lon="0.5246">
        <ele>1014.2</ele>
        <time>2025-07-21T13:53:35Z</time>
      </trkpt>
      <trkpt lat="42.80609" lon="0.52445">
        <ele>1015.4</ele>
        <time>2025-07-21T13:53:40Z</time>
      </trkpt>
      <trkpt lat="42.80609" lon="0.52435">
        <ele>1016.2</ele>
        <time>2025-07-21T13:53:44Z</time>
      </trkpt>
      <trkpt lat="42.8061" lon="0.52429">
        <ele>1016.4</ele>
        <time>2025-07-21T13:53:46Z</time>
      </trkpt>
      <trkpt lat="42.8061" lon="0.52419">
        <ele>1017</ele>
        <time>2025-07-21T13:53:50Z</time>
      </trkpt>
      <trkpt lat="42.8061" lon="0.52413">
        <ele>1017.4</ele>
        <time>2025-07-21T13:53:52Z</time>
      </trkpt>
      <trkpt lat="42.80609" lon="0.52401">
        <ele>1018.6</ele>
        <time>2025-07-21T13:53:56Z</time>
      </trkpt>
      <trkpt lat="42.8061" lon="0.52394">
        <ele>1019</ele>
        <time>2025-07-21T13:53:59Z</time>
      </trkpt>
      <trkpt lat="42.8061" lon="0.52388">
        <ele>1019.6</ele>
        <time>2025-07-21T13:54:01Z</time>
      </trkpt>
      <trkpt lat="42.8061" lon="0.52369">
        <ele>1020.8</ele>
        <time>2025-07-21T13:54:08Z</time>
      </trkpt>
      <trkpt lat="42.8061" lon="0.5236">
        <ele>1021.2</ele>
        <time>2025-07-21T13:54:11Z</time>
      </trkpt>
      <trkpt lat="42.8061" lon="0.52355">
        <ele>1021.8</ele>
        <time>2025-07-21T13:54:13Z</time>
      </trkpt>
      <trkpt lat="42.8061" lon="0.52339">
        <ele>1023.2</ele>
        <time>2025-07-21T13:54:19Z</time>
      </trkpt>
      <trkpt lat="42.8061" lon="0.52336">
        <ele>1023.4</ele>
        <time>2025-07-21T13:54:20Z</time>
      </trkpt>
      <trkpt lat="42.80609" lon="0.52328">
        <ele>1024</ele>
        <time>2025-07-21T13:54:23Z</time>
      </trkpt>
      <trkpt lat="42.80607" lon="0.52311">
        <ele>1025.2</ele>
        <time>2025-07-21T13:54:29Z</time>
      </trkpt>
      <trkpt lat="42.80607" lon="0.52305">
        <ele>1025.8</ele>
        <time>2025-07-21T13:54:31Z</time>
      </trkpt>
      <trkpt lat="42.80606" lon="0.52299">
        <ele>1026.6</ele>
        <time>2025-07-21T13:54:33Z</time>
      </trkpt>
      <trkpt lat="42.80605" lon="0.52281">
        <ele>1027.8</ele>
        <time>2025-07-21T13:54:39Z</time>
      </trkpt>
      <trkpt lat="42.80604" lon="0.52268">
        <ele>1028.6</ele>
        <time>2025-07-21T13:54:44Z</time>
      </trkpt>
      <trkpt lat="42.80603" lon="0.52266">
        <ele>1029</ele>
        <time>2025-07-21T13:54:45Z</time>
      </trkpt>
      <trkpt lat="42.80601" lon="0.52253">
        <ele>1029.8</ele>
        <time>2025-07-21T13:54:50Z</time>
      </trkpt>
      <trkpt lat="42.806" lon="0.5225">
        <ele>1030</ele>
        <time>2025-07-21T13:54:51Z</time>
      </trkpt>
      <trkpt lat="42.806" lon="0.5224">
        <ele>1031.4</ele>
        <time>2025-07-21T13:54:55Z</time>
      </trkpt>
      <trkpt lat="42.806" lon="0.52234">
        <ele>1031.8</ele>
        <time>2025-07-21T13:54:57Z</time>
      </trkpt>
      <trkpt lat="42.806" lon="0.52227">
        <ele>1032.6</ele>
        <time>2025-07-21T13:55:00Z</time>
      </trkpt>
      <trkpt lat="42.806" lon="0.52215">
        <ele>1033.4</ele>
        <time>2025-07-21T13:55:04Z</time>
      </trkpt>
      <trkpt lat="42.806" lon="0.52209">
        <ele>1033.8</ele>
        <time>2025-07-21T13:55:06Z</time>
      </trkpt>
      <trkpt lat="42.80601" lon="0.52196">
        <ele>1034.8</ele>
        <time>2025-07-21T13:55:11Z</time>
      </trkpt>
      <trkpt lat="42.80604" lon="0.52182">
        <ele>1036</ele>
        <time>2025-07-21T13:55:16Z</time>
      </trkpt>
      <trkpt lat="42.80607" lon="0.52175">
        <ele>1037</ele>
        <time>2025-07-21T13:55:19Z</time>
      </trkpt>
      <trkpt lat="42.80609" lon="0.52171">
        <ele>1037.2</ele>
        <time>2025-07-21T13:55:21Z</time>
      </trkpt>
      <trkpt lat="42.80613" lon="0.52157">
        <ele>1038.4</ele>
        <time>2025-07-21T13:55:26Z</time>
      </trkpt>
      <trkpt lat="42.80618" lon="0.52144">
        <ele>1039.4</ele>
        <time>2025-07-21T13:55:31Z</time>
      </trkpt>
      <trkpt lat="42.8062" lon="0.5214">
        <ele>1040</ele>
        <time>2025-07-21T13:55:33Z</time>
      </trkpt>
      <trkpt lat="42.80622" lon="0.52133">
        <ele>1040.4</ele>
        <time>2025-07-21T13:55:36Z</time>
      </trkpt>
      <trkpt lat="42.80625" lon="0.52123">
        <ele>1041.4</ele>
        <time>2025-07-21T13:55:40Z</time>
      </trkpt>
      <trkpt lat="42.80626" lon="0.52121">
        <ele>1041.4</ele>
        <time>2025-07-21T13:55:41Z</time>
      </trkpt>
      <trkpt lat="42.80629" lon="0.52112">
        <ele>1042.6</ele>
        <time>2025-07-21T13:55:45Z</time>
      </trkpt>
      <trkpt lat="42.8063" lon="0.52107">
        <ele>1043</ele>
        <time>2025-07-21T13:55:47Z</time>
      </trkpt>
      <trkpt lat="42.80632" lon="0.52099">
        <ele>1043.6</ele>
        <time>2025-07-21T13:55:50Z</time>
      </trkpt>
      <trkpt lat="42.80635" lon="0.52087">
        <ele>1044.6</ele>
        <time>2025-07-21T13:55:55Z</time>
      </trkpt>
      <trkpt lat="42.80636" lon="0.52084">
        <ele>1045</ele>
        <time>2025-07-21T13:55:56Z</time>
      </trkpt>
      <trkpt lat="42.80637" lon="0.52072">
        <ele>1045.8</ele>
        <time>2025-07-21T13:56:00Z</time>
      </trkpt>
      <trkpt lat="42.80639" lon="0.52062">
        <ele>1046.8</ele>
        <time>2025-07-21T13:56:04Z</time>
      </trkpt>
      <trkpt lat="42.80641" lon="0.52046">
        <ele>1048</ele>
        <time>2025-07-21T13:56:10Z</time>
      </trkpt>
      <trkpt lat="42.80647" lon="0.52032">
        <ele>1049.2</ele>
        <time>2025-07-21T13:56:15Z</time>
      </trkpt>
      <trkpt lat="42.80647" lon="0.5203">
        <ele>1049.4</ele>
        <time>2025-07-21T13:56:16Z</time>
      </trkpt>
      <trkpt lat="42.80652" lon="0.52022">
        <ele>1050</ele>
        <time>2025-07-21T13:56:20Z</time>
      </trkpt>
      <trkpt lat="42.80654" lon="0.52019">
        <ele>1050.2</ele>
        <time>2025-07-21T13:56:21Z</time>
      </trkpt>
      <trkpt lat="42.80658" lon="0.5201">
        <ele>1051.2</ele>
        <time>2025-07-21T13:56:25Z</time>
      </trkpt>
      <trkpt lat="42.80662" lon="0.52002">
        <ele>1051.8</ele>
        <time>2025-07-21T13:56:28Z</time>
      </trkpt>
      <trkpt lat="42.80668" lon="0.51993">
        <ele>1052.6</ele>
        <time>2025-07-21T13:56:32Z</time>
      </trkpt>
      <trkpt lat="42.80671" lon="0.51988">
        <ele>1053</ele>
        <time>2025-07-21T13:56:34Z</time>
      </trkpt>
      <trkpt lat="42.80676" lon="0.51983">
        <ele>1053.6</ele>
        <time>2025-07-21T13:56:37Z</time>
      </trkpt>
      <trkpt lat="42.80677" lon="0.51982">
        <ele>1054</ele>
        <time>2025-07-21T13:56:38Z</time>
      </trkpt>
      <trkpt lat="42.8068" lon="0.51979">
        <ele>1054.4</ele>
        <time>2025-07-21T13:56:40Z</time>
      </trkpt>
      <trkpt lat="42.80682" lon="0.51979">
        <ele>1054.6</ele>
        <time>2025-07-21T13:56:41Z</time>
      </trkpt>
      <trkpt lat="42.80685" lon="0.51976">
        <ele>1055</ele>
        <time>2025-07-21T13:56:43Z</time>
      </trkpt>
      <trkpt lat="42.80691" lon="0.51971">
        <ele>1056</ele>
        <time>2025-07-21T13:56:46Z</time>
      </trkpt>
      <trkpt lat="42.80693" lon="0.5197">
        <ele>1056.2</ele>
        <time>2025-07-21T13:56:47Z</time>
      </trkpt>
      <trkpt lat="42.80701" lon="0.51966">
        <ele>1057.2</ele>
        <time>2025-07-21T13:56:51Z</time>
      </trkpt>
      <trkpt lat="42.80709" lon="0.51962">
        <ele>1058</ele>
        <time>2025-07-21T13:56:55Z</time>
      </trkpt>
      <trkpt lat="42.80713" lon="0.51961">
        <ele>1058.4</ele>
        <time>2025-07-21T13:56:57Z</time>
      </trkpt>
      <trkpt lat="42.80723" lon="0.51959">
        <ele>1059.6</ele>
        <time>2025-07-21T13:57:02Z</time>
      </trkpt>
      <trkpt lat="42.80732" lon="0.51958">
        <ele>1060.4</ele>
        <time>2025-07-21T13:57:06Z</time>
      </trkpt>
      <trkpt lat="42.80734" lon="0.51958">
        <ele>1060.6</ele>
        <time>2025-07-21T13:57:07Z</time>
      </trkpt>
      <trkpt lat="42.80744" lon="0.51957">
        <ele>1061.8</ele>
        <time>2025-07-21T13:57:12Z</time>
      </trkpt>
      <trkpt lat="42.80745" lon="0.51957">
        <ele>1062</ele>
        <time>2025-07-21T13:57:13Z</time>
      </trkpt>
      <trkpt lat="42.80753" lon="0.51956">
        <ele>1062.8</ele>
        <time>2025-07-21T13:57:17Z</time>
      </trkpt>
      <trkpt lat="42.80763" lon="0.51957">
        <ele>1063.8</ele>
        <time>2025-07-21T13:57:23Z</time>
      </trkpt>
      <trkpt lat="42.80777" lon="0.51957">
        <ele>1065.2</ele>
        <time>2025-07-21T13:57:28Z</time>
      </trkpt>
      <trkpt lat="42.80788" lon="0.51955">
        <ele>1066</ele>
        <time>2025-07-21T13:57:33Z</time>
      </trkpt>
      <trkpt lat="42.80792" lon="0.51956">
        <ele>1066.4</ele>
        <time>2025-07-21T13:57:35Z</time>
      </trkpt>
      <trkpt lat="42.80806" lon="0.51955">
        <ele>1067.6</ele>
        <time>2025-07-21T13:57:42Z</time>
      </trkpt>
      <trkpt lat="42.8081" lon="0.51953">
        <ele>1068.2</ele>
        <time>2025-07-21T13:57:44Z</time>
      </trkpt>
      <trkpt lat="42.80816" lon="0.51952">
        <ele>1068.8</ele>
        <time>2025-07-21T13:57:47Z</time>
      </trkpt>
      <trkpt lat="42.80826" lon="0.51947">
        <ele>1069.6</ele>
        <time>2025-07-21T13:57:52Z</time>
      </trkpt>
      <trkpt lat="42.8083" lon="0.51944">
        <ele>1070.2</ele>
        <time>2025-07-21T13:57:54Z</time>
      </trkpt>
      <trkpt lat="42.80832" lon="0.51942">
        <ele>1070.4</ele>
        <time>2025-07-21T13:57:55Z</time>
      </trkpt>
      <trkpt lat="42.80839" lon="0.51935">
        <ele>1071.2</ele>
        <time>2025-07-21T13:57:59Z</time>
      </trkpt>
      <trkpt lat="42.80846" lon="0.51926">
        <ele>1072.4</ele>
        <time>2025-07-21T13:58:04Z</time>
      </trkpt>
      <trkpt lat="42.80851" lon="0.51919">
        <ele>1072.8</ele>
        <time>2025-07-21T13:58:07Z</time>
      </trkpt>
      <trkpt lat="42.80855" lon="0.51913">
        <ele>1073.4</ele>
        <time>2025-07-21T13:58:10Z</time>
      </trkpt>
      <trkpt lat="42.80861" lon="0.51904">
        <ele>1074.6</ele>
        <time>2025-07-21T13:58:15Z</time>
      </trkpt>
      <trkpt lat="42.80864" lon="0.519">
        <ele>1074.8</ele>
        <time>2025-07-21T13:58:16Z</time>
      </trkpt>
      <trkpt lat="42.80868" lon="0.51894">
        <ele>1075.6</ele>
        <time>2025-07-21T13:58:20Z</time>
      </trkpt>
      <trkpt lat="42.80873" lon="0.51879">
        <ele>1076.4</ele>
        <time>2025-07-21T13:58:24Z</time>
      </trkpt>
      <trkpt lat="42.80876" lon="0.5187">
        <ele>1076.8</ele>
        <time>2025-07-21T13:58:27Z</time>
      </trkpt>
      <trkpt lat="42.80878" lon="0.51856">
        <ele>1077.4</ele>
        <time>2025-07-21T13:58:31Z</time>
      </trkpt>
      <trkpt lat="42.80879" lon="0.51849">
        <ele>1077.8</ele>
        <time>2025-07-21T13:58:33Z</time>
      </trkpt>
      <trkpt lat="42.80882" lon="0.51823">
        <ele>1078.4</ele>
        <time>2025-07-21T13:58:40Z</time>
      </trkpt>
      <trkpt lat="42.80885" lon="0.51792">
        <ele>1078.8</ele>
        <time>2025-07-21T13:58:47Z</time>
      </trkpt>
      <trkpt lat="42.80887" lon="0.51762">
        <ele>1079.4</ele>
        <time>2025-07-21T13:58:54Z</time>
      </trkpt>
      <trkpt lat="42.80885" lon="0.51741">
        <ele>1079.8</ele>
        <time>2025-07-21T13:58:59Z</time>
      </trkpt>
      <trkpt lat="42.80884" lon="0.51725">
        <ele>1080.2</ele>
        <time>2025-07-21T13:59:03Z</time>
      </trkpt>
      <trkpt lat="42.80882" lon="0.51706">
        <ele>1080.8</ele>
        <time>2025-07-21T13:59:08Z</time>
      </trkpt>
      <trkpt lat="42.80881" lon="0.5169">
        <ele>1081.2</ele>
        <time>2025-07-21T13:59:12Z</time>
      </trkpt>
      <trkpt lat="42.80879" lon="0.51675">
        <ele>1081.8</ele>
        <time>2025-07-21T13:59:16Z</time>
      </trkpt>
      <trkpt lat="42.80878" lon="0.51657">
        <ele>1082.6</ele>
        <time>2025-07-21T13:59:21Z</time>
      </trkpt>
      <trkpt lat="42.80877" lon="0.51649">
        <ele>1082.8</ele>
        <time>2025-07-21T13:59:23Z</time>
      </trkpt>
      <trkpt lat="42.80874" lon="0.51618">
        <ele>1083.8</ele>
        <time>2025-07-21T13:59:31Z</time>
      </trkpt>
      <trkpt lat="42.80873" lon="0.51614">
        <ele>1083.8</ele>
        <time>2025-07-21T13:59:32Z</time>
      </trkpt>
      <trkpt lat="42.80869" lon="0.51581">
        <ele>1084.8</ele>
        <time>2025-07-21T13:59:39Z</time>
      </trkpt>
      <trkpt lat="42.80867" lon="0.51574">
        <ele>1084.8</ele>
        <time>2025-07-21T13:59:41Z</time>
      </trkpt>
      <trkpt lat="42.80866" lon="0.51537">
        <ele>1085.6</ele>
        <time>2025-07-21T13:59:50Z</time>
      </trkpt>
      <trkpt lat="42.80865" lon="0.51524">
        <ele>1085.8</ele>
        <time>2025-07-21T13:59:52Z</time>
      </trkpt>
      <trkpt lat="42.80854" lon="0.51502">
        <ele>1086.2</ele>
        <time>2025-07-21T13:59:58Z</time>
      </trkpt>
      <trkpt lat="42.80834" lon="0.51494">
        <ele>1086.4</ele>
        <time>2025-07-21T14:00:04Z</time>
      </trkpt>
      <trkpt lat="42.8083" lon="0.5149">
        <ele>1086.4</ele>
        <time>2025-07-21T14:00:06Z</time>
      </trkpt>
      <trkpt lat="42.80818" lon="0.51476">
        <ele>1086.8</ele>
        <time>2025-07-21T14:00:10Z</time>
      </trkpt>
      <trkpt lat="42.80817" lon="0.51473">
        <ele>1087.2</ele>
        <time>2025-07-21T14:00:12Z</time>
      </trkpt>
      <trkpt lat="42.80812" lon="0.51458">
        <ele>1087.6</ele>
        <time>2025-07-21T14:00:17Z</time>
      </trkpt>
      <trkpt lat="42.80809" lon="0.51447">
        <ele>1088.6</ele>
        <time>2025-07-21T14:00:22Z</time>
      </trkpt>
      <trkpt lat="42.80807" lon="0.51439">
        <ele>1089</ele>
        <time>2025-07-21T14:00:24Z</time>
      </trkpt>
      <trkpt lat="42.80807" lon="0.51434">
        <ele>1089.6</ele>
        <time>2025-07-21T14:00:27Z</time>
      </trkpt>
      <trkpt lat="42.80807" lon="0.51425">
        <ele>1090.8</ele>
        <time>2025-07-21T14:00:30Z</time>
      </trkpt>
      <trkpt lat="42.80807" lon="0.51419">
        <ele>1091</ele>
        <time>2025-07-21T14:00:31Z</time>
      </trkpt>
      <trkpt lat="42.80807" lon="0.51405">
        <ele>1091.8</ele>
        <time>2025-07-21T14:00:36Z</time>
      </trkpt>
      <trkpt lat="42.80808" lon="0.51392">
        <ele>1092.6</ele>
        <time>2025-07-21T14:00:40Z</time>
      </trkpt>
      <trkpt lat="42.80809" lon="0.51387">
        <ele>1093</ele>
        <time>2025-07-21T14:00:42Z</time>
      </trkpt>
      <trkpt lat="42.8081" lon="0.51375">
        <ele>1093.8</ele>
        <time>2025-07-21T14:00:46Z</time>
      </trkpt>
      <trkpt lat="42.80811" lon="0.51362">
        <ele>1094.8</ele>
        <time>2025-07-21T14:00:51Z</time>
      </trkpt>
      <trkpt lat="42.80812" lon="0.51349">
        <ele>1096</ele>
        <time>2025-07-21T14:00:56Z</time>
      </trkpt>
      <trkpt lat="42.80813" lon="0.51341">
        <ele>1096.6</ele>
        <time>2025-07-21T14:00:59Z</time>
      </trkpt>
      <trkpt lat="42.80814" lon="0.51336">
        <ele>1097</ele>
        <time>2025-07-21T14:01:01Z</time>
      </trkpt>
      <trkpt lat="42.80816" lon="0.51323">
        <ele>1098.2</ele>
        <time>2025-07-21T14:01:06Z</time>
      </trkpt>
      <trkpt lat="42.80816" lon="0.51317">
        <ele>1098.6</ele>
        <time>2025-07-21T14:01:08Z</time>
      </trkpt>
      <trkpt lat="42.80819" lon="0.51304">
        <ele>1099.4</ele>
        <time>2025-07-21T14:01:13Z</time>
      </trkpt>
      <trkpt lat="42.8082" lon="0.51298">
        <ele>1099.8</ele>
        <time>2025-07-21T14:01:15Z</time>
      </trkpt>
      <trkpt lat="42.80821" lon="0.51292">
        <ele>1100.4</ele>
        <time>2025-07-21T14:01:18Z</time>
      </trkpt>
      <trkpt lat="42.80823" lon="0.51271">
        <ele>1101.4</ele>
        <time>2025-07-21T14:01:24Z</time>
      </trkpt>
      <trkpt lat="42.80823" lon="0.5126">
        <ele>1102.2</ele>
        <time>2025-07-21T14:01:28Z</time>
      </trkpt>
      <trkpt lat="42.80823" lon="0.51257">
        <ele>1102.6</ele>
        <time>2025-07-21T14:01:30Z</time>
      </trkpt>
      <trkpt lat="42.80824" lon="0.51243">
        <ele>1103.6</ele>
        <time>2025-07-21T14:01:34Z</time>
      </trkpt>
      <trkpt lat="42.80824" lon="0.51226">
        <ele>1105</ele>
        <time>2025-07-21T14:01:40Z</time>
      </trkpt>
      <trkpt lat="42.80824" lon="0.51223">
        <ele>1105.6</ele>
        <time>2025-07-21T14:01:42Z</time>
      </trkpt>
      <trkpt lat="42.80824" lon="0.51212">
        <ele>1106</ele>
        <time>2025-07-21T14:01:46Z</time>
      </trkpt>
      <trkpt lat="42.80823" lon="0.512">
        <ele>1106.8</ele>
        <time>2025-07-21T14:01:50Z</time>
      </trkpt>
      <trkpt lat="42.80822" lon="0.51194">
        <ele>1107</ele>
        <time>2025-07-21T14:01:52Z</time>
      </trkpt>
      <trkpt lat="42.8082" lon="0.51187">
        <ele>1107.8</ele>
        <time>2025-07-21T14:01:54Z</time>
      </trkpt>
      <trkpt lat="42.80818" lon="0.51181">
        <ele>1108.2</ele>
        <time>2025-07-21T14:01:57Z</time>
      </trkpt>
      <trkpt lat="42.80815" lon="0.51165">
        <ele>1109</ele>
        <time>2025-07-21T14:02:02Z</time>
      </trkpt>
      <trkpt lat="42.80814" lon="0.5116">
        <ele>1109.4</ele>
        <time>2025-07-21T14:02:04Z</time>
      </trkpt>
      <trkpt lat="42.80809" lon="0.51139">
        <ele>1110.4</ele>
        <time>2025-07-21T14:02:11Z</time>
      </trkpt>
      <trkpt lat="42.80807" lon="0.51128">
        <ele>1111.2</ele>
        <time>2025-07-21T14:02:15Z</time>
      </trkpt>
      <trkpt lat="42.80807" lon="0.51128">
        <ele>1111.4</ele>
        <time>2025-07-21T14:02:16Z</time>
      </trkpt>
      <trkpt lat="42.80806" lon="0.51124">
        <ele>1112</ele>
        <time>2025-07-21T14:02:18Z</time>
      </trkpt>
      <trkpt lat="42.80806" lon="0.51119">
        <ele>1112.4</ele>
        <time>2025-07-21T14:02:20Z</time>
      </trkpt>
      <trkpt lat="42.80807" lon="0.51101">
        <ele>1113.4</ele>
        <time>2025-07-21T14:02:26Z</time>
      </trkpt>
      <trkpt lat="42.80805" lon="0.51085">
        <ele>1114.6</ele>
        <time>2025-07-21T14:02:31Z</time>
      </trkpt>
      <trkpt lat="42.80805" lon="0.51078">
        <ele>1114.8</ele>
        <time>2025-07-21T14:02:32Z</time>
      </trkpt>
      <trkpt lat="42.80804" lon="0.51072">
        <ele>1115.4</ele>
        <time>2025-07-21T14:02:35Z</time>
      </trkpt>
      <trkpt lat="42.80804" lon="0.51069">
        <ele>1115.6</ele>
        <time>2025-07-21T14:02:36Z</time>
      </trkpt>
      <trkpt lat="42.808" lon="0.51054">
        <ele>1116.6</ele>
        <time>2025-07-21T14:02:41Z</time>
      </trkpt>
      <trkpt lat="42.80799" lon="0.5105">
        <ele>1116.6</ele>
        <time>2025-07-21T14:02:42Z</time>
      </trkpt>
      <trkpt lat="42.80795" lon="0.51036">
        <ele>1117.8</ele>
        <time>2025-07-21T14:02:47Z</time>
      </trkpt>
      <trkpt lat="42.80793" lon="0.51027">
        <ele>1118.4</ele>
        <time>2025-07-21T14:02:50Z</time>
      </trkpt>
      <trkpt lat="42.8079" lon="0.51014">
        <ele>1119</ele>
        <time>2025-07-21T14:02:53Z</time>
      </trkpt>
      <trkpt lat="42.80787" lon="0.51003">
        <ele>1119.8</ele>
        <time>2025-07-21T14:02:58Z</time>
      </trkpt>
      <trkpt lat="42.80786" lon="0.50997">
        <ele>1120.2</ele>
        <time>2025-07-21T14:03:00Z</time>
      </trkpt>
      <trkpt lat="42.8078" lon="0.50978">
        <ele>1120.8</ele>
        <time>2025-07-21T14:03:06Z</time>
      </trkpt>
      <trkpt lat="42.80778" lon="0.50969">
        <ele>1121</ele>
        <time>2025-07-21T14:03:09Z</time>
      </trkpt>
      <trkpt lat="42.80778" lon="0.50962">
        <ele>1121.2</ele>
        <time>2025-07-21T14:03:11Z</time>
      </trkpt>
      <trkpt lat="42.8078" lon="0.50959">
        <ele>1121.4</ele>
        <time>2025-07-21T14:03:12Z</time>
      </trkpt>
      <trkpt lat="42.80785" lon="0.50953">
        <ele>1121.6</ele>
        <time>2025-07-21T14:03:15Z</time>
      </trkpt>
      <trkpt lat="42.8079" lon="0.50953">
        <ele>1122</ele>
        <time>2025-07-21T14:03:17Z</time>
      </trkpt>
      <trkpt lat="42.80796" lon="0.50953">
        <ele>1122</ele>
        <time>2025-07-21T14:03:19Z</time>
      </trkpt>
      <trkpt lat="42.80802" lon="0.50951">
        <ele>1122.2</ele>
        <time>2025-07-21T14:03:22Z</time>
      </trkpt>
      <trkpt lat="42.80804" lon="0.5095">
        <ele>1122.4</ele>
        <time>2025-07-21T14:03:27Z</time>
      </trkpt>
      <trkpt lat="42.80804" lon="0.5095">
        <ele>1122.4</ele>
        <time>2025-07-21T14:03:28Z</time>
      </trkpt>
      <trkpt lat="42.80798" lon="0.5095">
        <ele>1122.2</ele>
        <time>2025-07-21T14:04:51Z</time>
      </trkpt>
      <trkpt lat="42.80792" lon="0.50954">
        <ele>1122</ele>
        <time>2025-07-21T14:04:54Z</time>
      </trkpt>
      <trkpt lat="42.80778" lon="0.50955">
        <ele>1121.6</ele>
        <time>2025-07-21T14:05:00Z</time>
      </trkpt>
      <trkpt lat="42.80773" lon="0.50946">
        <ele>1121.6</ele>
        <time>2025-07-21T14:05:05Z</time>
      </trkpt>
      <trkpt lat="42.80768" lon="0.50924">
        <ele>1122.2</ele>
        <time>2025-07-21T14:05:13Z</time>
      </trkpt>
      <trkpt lat="42.80765" lon="0.5091">
        <ele>1122.8</ele>
        <time>2025-07-21T14:05:18Z</time>
      </trkpt>
      <trkpt lat="42.80762" lon="0.50903">
        <ele>1123.2</ele>
        <time>2025-07-21T14:05:21Z</time>
      </trkpt>
      <trkpt lat="42.80758" lon="0.50887">
        <ele>1123.8</ele>
        <time>2025-07-21T14:05:27Z</time>
      </trkpt>
      <trkpt lat="42.80757" lon="0.50882">
        <ele>1124</ele>
        <time>2025-07-21T14:05:29Z</time>
      </trkpt>
      <trkpt lat="42.80751" lon="0.50861">
        <ele>1125</ele>
        <time>2025-07-21T14:05:37Z</time>
      </trkpt>
      <trkpt lat="42.80749" lon="0.50851">
        <ele>1125.6</ele>
        <time>2025-07-21T14:05:41Z</time>
      </trkpt>
      <trkpt lat="42.80746" lon="0.50842">
        <ele>1126.2</ele>
        <time>2025-07-21T14:05:44Z</time>
      </trkpt>
      <trkpt lat="42.80741" lon="0.50823">
        <ele>1127</ele>
        <time>2025-07-21T14:05:51Z</time>
      </trkpt>
      <trkpt lat="42.80741" lon="0.50821">
        <ele>1127.2</ele>
        <time>2025-07-21T14:05:52Z</time>
      </trkpt>
      <trkpt lat="42.80737" lon="0.50807">
        <ele>1128.4</ele>
        <time>2025-07-21T14:05:57Z</time>
      </trkpt>
      <trkpt lat="42.80735" lon="0.50797">
        <ele>1129.4</ele>
        <time>2025-07-21T14:06:01Z</time>
      </trkpt>
      <trkpt lat="42.80734" lon="0.50795">
        <ele>1129.6</ele>
        <time>2025-07-21T14:06:02Z</time>
      </trkpt>
      <trkpt lat="42.80729" lon="0.50775">
        <ele>1130.4</ele>
        <time>2025-07-21T14:06:09Z</time>
      </trkpt>
      <trkpt lat="42.80729" lon="0.50773">
        <ele>1130.6</ele>
        <time>2025-07-21T14:06:10Z</time>
      </trkpt>
      <trkpt lat="42.80726" lon="0.50762">
        <ele>1131.4</ele>
        <time>2025-07-21T14:06:14Z</time>
      </trkpt>
      <trkpt lat="42.80725" lon="0.50754">
        <ele>1132</ele>
        <time>2025-07-21T14:06:17Z</time>
      </trkpt>
      <trkpt lat="42.80724" lon="0.50748">
        <ele>1132.4</ele>
        <time>2025-07-21T14:06:19Z</time>
      </trkpt>
      <trkpt lat="42.8072" lon="0.50731">
        <ele>1133.6</ele>
        <time>2025-07-21T14:06:25Z</time>
      </trkpt>
      <trkpt lat="42.80716" lon="0.5071">
        <ele>1135</ele>
        <time>2025-07-21T14:06:32Z</time>
      </trkpt>
      <trkpt lat="42.80715" lon="0.50702">
        <ele>1135.6</ele>
        <time>2025-07-21T14:06:35Z</time>
      </trkpt>
      <trkpt lat="42.80714" lon="0.50696">
        <ele>1136</ele>
        <time>2025-07-21T14:06:37Z</time>
      </trkpt>
      <trkpt lat="42.80712" lon="0.50686">
        <ele>1136.4</ele>
        <time>2025-07-21T14:06:40Z</time>
      </trkpt>
      <trkpt lat="42.8071" lon="0.50676">
        <ele>1137</ele>
        <time>2025-07-21T14:06:43Z</time>
      </trkpt>
      <trkpt lat="42.8071" lon="0.50668">
        <ele>1137.6</ele>
        <time>2025-07-21T14:06:46Z</time>
      </trkpt>
      <trkpt lat="42.80709" lon="0.50662">
        <ele>1138</ele>
        <time>2025-07-21T14:06:48Z</time>
      </trkpt>
      <trkpt lat="42.80707" lon="0.50647">
        <ele>1139</ele>
        <time>2025-07-21T14:06:53Z</time>
      </trkpt>
      <trkpt lat="42.80706" lon="0.50639">
        <ele>1139.6</ele>
        <time>2025-07-21T14:06:56Z</time>
      </trkpt>
      <trkpt lat="42.80704" lon="0.50624">
        <ele>1140.2</ele>
        <time>2025-07-21T14:07:01Z</time>
      </trkpt>
      <trkpt lat="42.80703" lon="0.50611">
        <ele>1141</ele>
        <time>2025-07-21T14:07:05Z</time>
      </trkpt>
      <trkpt lat="42.80702" lon="0.50608">
        <ele>1141.2</ele>
        <time>2025-07-21T14:07:06Z</time>
      </trkpt>
      <trkpt lat="42.807" lon="0.50587">
        <ele>1142.4</ele>
        <time>2025-07-21T14:07:13Z</time>
      </trkpt>
      <trkpt lat="42.80699" lon="0.50581">
        <ele>1142.6</ele>
        <time>2025-07-21T14:07:15Z</time>
      </trkpt>
      <trkpt lat="42.80697" lon="0.50566">
        <ele>1143.4</ele>
        <time>2025-07-21T14:07:20Z</time>
      </trkpt>
      <trkpt lat="42.80694" lon="0.50552">
        <ele>1144.4</ele>
        <time>2025-07-21T14:07:25Z</time>
      </trkpt>
      <trkpt lat="42.80692" lon="0.50535">
        <ele>1145.6</ele>
        <time>2025-07-21T14:07:31Z</time>
      </trkpt>
      <trkpt lat="42.8069" lon="0.50522">
        <ele>1146.6</ele>
        <time>2025-07-21T14:07:36Z</time>
      </trkpt>
      <trkpt lat="42.8069" lon="0.50519">
        <ele>1146.8</ele>
        <time>2025-07-21T14:07:37Z</time>
      </trkpt>
      <trkpt lat="42.80686" lon="0.50507">
        <ele>1147.6</ele>
        <time>2025-07-21T14:07:42Z</time>
      </trkpt>
      <trkpt lat="42.80685" lon="0.50504">
        <ele>1147.8</ele>
        <time>2025-07-21T14:07:43Z</time>
      </trkpt>
      <trkpt lat="42.8068" lon="0.50493">
        <ele>1148.8</ele>
        <time>2025-07-21T14:07:47Z</time>
      </trkpt>
      <trkpt lat="42.80678" lon="0.50482">
        <ele>1149.4</ele>
        <time>2025-07-21T14:07:51Z</time>
      </trkpt>
      <trkpt lat="42.80678" lon="0.50476">
        <ele>1149.8</ele>
        <time>2025-07-21T14:07:53Z</time>
      </trkpt>
      <trkpt lat="42.80678" lon="0.5046">
        <ele>1150.8</ele>
        <time>2025-07-21T14:07:58Z</time>
      </trkpt>
      <trkpt lat="42.80679" lon="0.50454">
        <ele>1151.2</ele>
        <time>2025-07-21T14:08:00Z</time>
      </trkpt>
      <trkpt lat="42.80679" lon="0.50445">
        <ele>1151.8</ele>
        <time>2025-07-21T14:08:03Z</time>
      </trkpt>
      <trkpt lat="42.80677" lon="0.5043">
        <ele>1153</ele>
        <time>2025-07-21T14:08:08Z</time>
      </trkpt>
      <trkpt lat="42.80677" lon="0.50427">
        <ele>1153.2</ele>
        <time>2025-07-21T14:08:09Z</time>
      </trkpt>
      <trkpt lat="42.80675" lon="0.50415">
        <ele>1154</ele>
        <time>2025-07-21T14:08:13Z</time>
      </trkpt>
      <trkpt lat="42.80675" lon="0.50409">
        <ele>1154.4</ele>
        <time>2025-07-21T14:08:15Z</time>
      </trkpt>
      <trkpt lat="42.80673" lon="0.504">
        <ele>1155</ele>
        <time>2025-07-21T14:08:18Z</time>
      </trkpt>
      <trkpt lat="42.80669" lon="0.50383">
        <ele>1155.8</ele>
        <time>2025-07-21T14:08:24Z</time>
      </trkpt>
      <trkpt lat="42.80668" lon="0.5038">
        <ele>1156.2</ele>
        <time>2025-07-21T14:08:25Z</time>
      </trkpt>
      <trkpt lat="42.80663" lon="0.50367">
        <ele>1157.2</ele>
        <time>2025-07-21T14:08:30Z</time>
      </trkpt>
      <trkpt lat="42.80658" lon="0.50357">
        <ele>1157.8</ele>
        <time>2025-07-21T14:08:34Z</time>
      </trkpt>
      <trkpt lat="42.80652" lon="0.50348">
        <ele>1158.4</ele>
        <time>2025-07-21T14:08:38Z</time>
      </trkpt>
      <trkpt lat="42.80641" lon="0.50334">
        <ele>1159.4</ele>
        <time>2025-07-21T14:08:45Z</time>
      </trkpt>
      <trkpt lat="42.80633" lon="0.50323">
        <ele>1160.6</ele>
        <time>2025-07-21T14:08:51Z</time>
      </trkpt>
      <trkpt lat="42.80631" lon="0.50321">
        <ele>1160.8</ele>
        <time>2025-07-21T14:08:52Z</time>
      </trkpt>
      <trkpt lat="42.80623" lon="0.50314">
        <ele>1161.8</ele>
        <time>2025-07-21T14:08:56Z</time>
      </trkpt>
      <trkpt lat="42.80616" lon="0.50307">
        <ele>1162.2</ele>
        <time>2025-07-21T14:09:00Z</time>
      </trkpt>
      <trkpt lat="42.80612" lon="0.50302">
        <ele>1162.8</ele>
        <time>2025-07-21T14:09:03Z</time>
      </trkpt>
      <trkpt lat="42.80603" lon="0.50293">
        <ele>1164</ele>
        <time>2025-07-21T14:09:08Z</time>
      </trkpt>
      <trkpt lat="42.80601" lon="0.50291">
        <ele>1164.2</ele>
        <time>2025-07-21T14:09:09Z</time>
      </trkpt>
      <trkpt lat="42.80593" lon="0.50285">
        <ele>1165.2</ele>
        <time>2025-07-21T14:09:13Z</time>
      </trkpt>
      <trkpt lat="42.80584" lon="0.50276">
        <ele>1166</ele>
        <time>2025-07-21T14:09:18Z</time>
      </trkpt>
      <trkpt lat="42.80583" lon="0.50275">
        <ele>1166.2</ele>
        <time>2025-07-21T14:09:19Z</time>
      </trkpt>
      <trkpt lat="42.80576" lon="0.50266">
        <ele>1167.4</ele>
        <time>2025-07-21T14:09:23Z</time>
      </trkpt>
      <trkpt lat="42.80568" lon="0.50257">
        <ele>1168</ele>
        <time>2025-07-21T14:09:28Z</time>
      </trkpt>
      <trkpt lat="42.80564" lon="0.50254">
        <ele>1168.2</ele>
        <time>2025-07-21T14:09:30Z</time>
      </trkpt>
      <trkpt lat="42.80559" lon="0.50246">
        <ele>1169.4</ele>
        <time>2025-07-21T14:09:34Z</time>
      </trkpt>
      <trkpt lat="42.80554" lon="0.50238">
        <ele>1170.2</ele>
        <time>2025-07-21T14:09:38Z</time>
      </trkpt>
      <trkpt lat="42.80553" lon="0.50236">
        <ele>1170.4</ele>
        <time>2025-07-21T14:09:39Z</time>
      </trkpt>
      <trkpt lat="42.80549" lon="0.50216">
        <ele>1171.8</ele>
        <time>2025-07-21T14:09:46Z</time>
      </trkpt>
      <trkpt lat="42.8055" lon="0.50199">
        <ele>1173</ele>
        <time>2025-07-21T14:09:51Z</time>
      </trkpt>
      <trkpt lat="42.80551" lon="0.50188">
        <ele>1173.6</ele>
        <time>2025-07-21T14:09:54Z</time>
      </trkpt>
      <trkpt lat="42.80552" lon="0.50181">
        <ele>1174.2</ele>
        <time>2025-07-21T14:09:56Z</time>
      </trkpt>
      <trkpt lat="42.80558" lon="0.50163">
        <ele>1175.4</ele>
        <time>2025-07-21T14:10:02Z</time>
      </trkpt>
      <trkpt lat="42.80559" lon="0.5016">
        <ele>1175.6</ele>
        <time>2025-07-21T14:10:03Z</time>
      </trkpt>
      <trkpt lat="42.80562" lon="0.50148">
        <ele>1176.4</ele>
        <time>2025-07-21T14:10:07Z</time>
      </trkpt>
      <trkpt lat="42.80563" lon="0.50145">
        <ele>1176.6</ele>
        <time>2025-07-21T14:10:08Z</time>
      </trkpt>
      <trkpt lat="42.80566" lon="0.50139">
        <ele>1176.8</ele>
        <time>2025-07-21T14:10:10Z</time>
      </trkpt>
      <trkpt lat="42.8057" lon="0.50128">
        <ele>1177.6</ele>
        <time>2025-07-21T14:10:14Z</time>
      </trkpt>
      <trkpt lat="42.80577" lon="0.50112">
        <ele>1178.4</ele>
        <time>2025-07-21T14:10:20Z</time>
      </trkpt>
      <trkpt lat="42.80583" lon="0.50097">
        <ele>1179.6</ele>
        <time>2025-07-21T14:10:26Z</time>
      </trkpt>
      <trkpt lat="42.80584" lon="0.50095">
        <ele>1179.8</ele>
        <time>2025-07-21T14:10:27Z</time>
      </trkpt>
      <trkpt lat="42.80587" lon="0.50087">
        <ele>1180.6</ele>
        <time>2025-07-21T14:10:30Z</time>
      </trkpt>
      <trkpt lat="42.80591" lon="0.50075">
        <ele>1181.6</ele>
        <time>2025-07-21T14:10:35Z</time>
      </trkpt>
      <trkpt lat="42.80592" lon="0.50073">
        <ele>1181.8</ele>
        <time>2025-07-21T14:10:36Z</time>
      </trkpt>
      <trkpt lat="42.80597" lon="0.50061">
        <ele>1183</ele>
        <time>2025-07-21T14:10:41Z</time>
      </trkpt>
      <trkpt lat="42.806" lon="0.50056">
        <ele>1183.4</ele>
        <time>2025-07-21T14:10:43Z</time>
      </trkpt>
      <trkpt lat="42.80604" lon="0.50045">
        <ele>1184.2</ele>
        <time>2025-07-21T14:10:47Z</time>
      </trkpt>
      <trkpt lat="42.80606" lon="0.50039">
        <ele>1184.4</ele>
        <time>2025-07-21T14:10:49Z</time>
      </trkpt>
      <trkpt lat="42.80612" lon="0.50029">
        <ele>1185</ele>
        <time>2025-07-21T14:10:53Z</time>
      </trkpt>
      <trkpt lat="42.80614" lon="0.50024">
        <ele>1185.6</ele>
        <time>2025-07-21T14:10:55Z</time>
      </trkpt>
      <trkpt lat="42.80618" lon="0.50017">
        <ele>1186.2</ele>
        <time>2025-07-21T14:10:58Z</time>
      </trkpt>
      <trkpt lat="42.80625" lon="0.50001">
        <ele>1187.4</ele>
        <time>2025-07-21T14:11:04Z</time>
      </trkpt>
      <trkpt lat="42.80626" lon="0.49999">
        <ele>1187.6</ele>
        <time>2025-07-21T14:11:05Z</time>
      </trkpt>
      <trkpt lat="42.80632" lon="0.49986">
        <ele>1188.4</ele>
        <time>2025-07-21T14:11:10Z</time>
      </trkpt>
      <trkpt lat="42.80637" lon="0.49976">
        <ele>1189.2</ele>
        <time>2025-07-21T14:11:14Z</time>
      </trkpt>
      <trkpt lat="42.8064" lon="0.49971">
        <ele>1189.6</ele>
        <time>2025-07-21T14:11:16Z</time>
      </trkpt>
      <trkpt lat="42.80646" lon="0.49957">
        <ele>1190.8</ele>
        <time>2025-07-21T14:11:22Z</time>
      </trkpt>
      <trkpt lat="42.8065" lon="0.49949">
        <ele>1191.2</ele>
        <time>2025-07-21T14:11:24Z</time>
      </trkpt>
      <trkpt lat="42.80654" lon="0.49939">
        <ele>1192</ele>
        <time>2025-07-21T14:11:28Z</time>
      </trkpt>
      <trkpt lat="42.8066" lon="0.49926">
        <ele>1192.8</ele>
        <time>2025-07-21T14:11:33Z</time>
      </trkpt>
      <trkpt lat="42.80661" lon="0.49923">
        <ele>1193</ele>
        <time>2025-07-21T14:11:34Z</time>
      </trkpt>
      <trkpt lat="42.80665" lon="0.49906">
        <ele>1194.2</ele>
        <time>2025-07-21T14:11:40Z</time>
      </trkpt>
      <trkpt lat="42.80665" lon="0.49899">
        <ele>1194.4</ele>
        <time>2025-07-21T14:11:42Z</time>
      </trkpt>
      <trkpt lat="42.80665" lon="0.49886">
        <ele>1195.2</ele>
        <time>2025-07-21T14:11:46Z</time>
      </trkpt>
      <trkpt lat="42.80665" lon="0.4986">
        <ele>1196.2</ele>
        <time>2025-07-21T14:11:54Z</time>
      </trkpt>
      <trkpt lat="42.80665" lon="0.49857">
        <ele>1196.4</ele>
        <time>2025-07-21T14:11:55Z</time>
      </trkpt>
      <trkpt lat="42.80666" lon="0.49841">
        <ele>1197.6</ele>
        <time>2025-07-21T14:12:00Z</time>
      </trkpt>
      <trkpt lat="42.80666" lon="0.49832">
        <ele>1197.8</ele>
        <time>2025-07-21T14:12:03Z</time>
      </trkpt>
      <trkpt lat="42.80667" lon="0.4982">
        <ele>1198.6</ele>
        <time>2025-07-21T14:12:07Z</time>
      </trkpt>
      <trkpt lat="42.80667" lon="0.498">
        <ele>1199.6</ele>
        <time>2025-07-21T14:12:13Z</time>
      </trkpt>
      <trkpt lat="42.80664" lon="0.49782">
        <ele>1200.6</ele>
        <time>2025-07-21T14:12:19Z</time>
      </trkpt>
      <trkpt lat="42.80661" lon="0.4977">
        <ele>1201.4</ele>
        <time>2025-07-21T14:12:23Z</time>
      </trkpt>
      <trkpt lat="42.8066" lon="0.49767">
        <ele>1201.8</ele>
        <time>2025-07-21T14:12:24Z</time>
      </trkpt>
      <trkpt lat="42.80652" lon="0.49748">
        <ele>1202.8</ele>
        <time>2025-07-21T14:12:31Z</time>
      </trkpt>
      <trkpt lat="42.80644" lon="0.49729">
        <ele>1204</ele>
        <time>2025-07-21T14:12:38Z</time>
      </trkpt>
      <trkpt lat="42.80636" lon="0.4971">
        <ele>1205</ele>
        <time>2025-07-21T14:12:45Z</time>
      </trkpt>
      <trkpt lat="42.80635" lon="0.49707">
        <ele>1205</ele>
        <time>2025-07-21T14:12:46Z</time>
      </trkpt>
      <trkpt lat="42.80632" lon="0.49694">
        <ele>1206.2</ele>
        <time>2025-07-21T14:12:51Z</time>
      </trkpt>
      <trkpt lat="42.80631" lon="0.49687">
        <ele>1206.8</ele>
        <time>2025-07-21T14:12:53Z</time>
      </trkpt>
      <trkpt lat="42.8063" lon="0.49679">
        <ele>1207.2</ele>
        <time>2025-07-21T14:12:56Z</time>
      </trkpt>
      <trkpt lat="42.80629" lon="0.49667">
        <ele>1208.2</ele>
        <time>2025-07-21T14:13:00Z</time>
      </trkpt>
      <trkpt lat="42.8063" lon="0.49648">
        <ele>1209.4</ele>
        <time>2025-07-21T14:13:06Z</time>
      </trkpt>
      <trkpt lat="42.80631" lon="0.49637">
        <ele>1210.4</ele>
        <time>2025-07-21T14:13:10Z</time>
      </trkpt>
      <trkpt lat="42.80632" lon="0.49635">
        <ele>1210.6</ele>
        <time>2025-07-21T14:13:11Z</time>
      </trkpt>
      <trkpt lat="42.80634" lon="0.49619">
        <ele>1211.8</ele>
        <time>2025-07-21T14:13:16Z</time>
      </trkpt>
      <trkpt lat="42.80634" lon="0.49612">
        <ele>1212.2</ele>
        <time>2025-07-21T14:13:18Z</time>
      </trkpt>
      <trkpt lat="42.80635" lon="0.49604">
        <ele>1212.8</ele>
        <time>2025-07-21T14:13:21Z</time>
      </trkpt>
      <trkpt lat="42.80635" lon="0.49595">
        <ele>1213.2</ele>
        <time>2025-07-21T14:13:24Z</time>
      </trkpt>
      <trkpt lat="42.80636" lon="0.49583">
        <ele>1214</ele>
        <time>2025-07-21T14:13:28Z</time>
      </trkpt>
      <trkpt lat="42.80636" lon="0.49573">
        <ele>1214.6</ele>
        <time>2025-07-21T14:13:31Z</time>
      </trkpt>
      <trkpt lat="42.80637" lon="0.49561">
        <ele>1215.2</ele>
        <time>2025-07-21T14:13:35Z</time>
      </trkpt>
      <trkpt lat="42.80638" lon="0.49552">
        <ele>1215.6</ele>
        <time>2025-07-21T14:13:38Z</time>
      </trkpt>
      <trkpt lat="42.80638" lon="0.49541">
        <ele>1216.4</ele>
        <time>2025-07-21T14:13:42Z</time>
      </trkpt>
      <trkpt lat="42.8064" lon="0.49529">
        <ele>1217</ele>
        <time>2025-07-21T14:13:46Z</time>
      </trkpt>
      <trkpt lat="42.80641" lon="0.49523">
        <ele>1217.6</ele>
        <time>2025-07-21T14:13:48Z</time>
      </trkpt>
      <trkpt lat="42.80643" lon="0.49506">
        <ele>1218.8</ele>
        <time>2025-07-21T14:13:54Z</time>
      </trkpt>
      <trkpt lat="42.80644" lon="0.49492">
        <ele>1220</ele>
        <time>2025-07-21T14:13:59Z</time>
      </trkpt>
      <trkpt lat="42.80645" lon="0.49482">
        <ele>1220.4</ele>
        <time>2025-07-21T14:14:02Z</time>
      </trkpt>
      <trkpt lat="42.80646" lon="0.49476">
        <ele>1220.8</ele>
        <time>2025-07-21T14:14:04Z</time>
      </trkpt>
      <trkpt lat="42.8065" lon="0.49461">
        <ele>1221.8</ele>
        <time>2025-07-21T14:14:09Z</time>
      </trkpt>
      <trkpt lat="42.80651" lon="0.49456">
        <ele>1222.2</ele>
        <time>2025-07-21T14:14:11Z</time>
      </trkpt>
      <trkpt lat="42.80654" lon="0.49439">
        <ele>1223.4</ele>
        <time>2025-07-21T14:14:17Z</time>
      </trkpt>
      <trkpt lat="42.80655" lon="0.49437">
        <ele>1223.6</ele>
        <time>2025-07-21T14:14:18Z</time>
      </trkpt>
      <trkpt lat="42.80657" lon="0.49428">
        <ele>1224.4</ele>
        <time>2025-07-21T14:14:22Z</time>
      </trkpt>
      <trkpt lat="42.80658" lon="0.49416">
        <ele>1225.4</ele>
        <time>2025-07-21T14:14:26Z</time>
      </trkpt>
      <trkpt lat="42.80659" lon="0.49411">
        <ele>1226</ele>
        <time>2025-07-21T14:14:28Z</time>
      </trkpt>
      <trkpt lat="42.8066" lon="0.49403">
        <ele>1226.4</ele>
        <time>2025-07-21T14:14:31Z</time>
      </trkpt>
      <trkpt lat="42.80661" lon="0.49394">
        <ele>1227</ele>
        <time>2025-07-21T14:14:34Z</time>
      </trkpt>
      <trkpt lat="42.80662" lon="0.49388">
        <ele>1227.4</ele>
        <time>2025-07-21T14:14:36Z</time>
      </trkpt>
      <trkpt lat="42.80664" lon="0.49379">
        <ele>1228</ele>
        <time>2025-07-21T14:14:39Z</time>
      </trkpt>
      <trkpt lat="42.80666" lon="0.4937">
        <ele>1228.6</ele>
        <time>2025-07-21T14:14:42Z</time>
      </trkpt>
      <trkpt lat="42.8067" lon="0.49357">
        <ele>1229.8</ele>
        <time>2025-07-21T14:14:47Z</time>
      </trkpt>
      <trkpt lat="42.80672" lon="0.49343">
        <ele>1230.8</ele>
        <time>2025-07-21T14:14:52Z</time>
      </trkpt>
      <trkpt lat="42.80673" lon="0.49326">
        <ele>1232.2</ele>
        <time>2025-07-21T14:14:57Z</time>
      </trkpt>
      <trkpt lat="42.80674" lon="0.49317">
        <ele>1233</ele>
        <time>2025-07-21T14:15:00Z</time>
      </trkpt>
      <trkpt lat="42.80674" lon="0.4931">
        <ele>1233.2</ele>
        <time>2025-07-21T14:15:02Z</time>
      </trkpt>
      <trkpt lat="42.80675" lon="0.49296">
        <ele>1234.4</ele>
        <time>2025-07-21T14:15:06Z</time>
      </trkpt>
      <trkpt lat="42.80677" lon="0.49292">
        <ele>1234.8</ele>
        <time>2025-07-21T14:15:08Z</time>
      </trkpt>
      <trkpt lat="42.8068" lon="0.49285">
        <ele>1235.4</ele>
        <time>2025-07-21T14:15:11Z</time>
      </trkpt>
      <trkpt lat="42.80683" lon="0.49273">
        <ele>1236.6</ele>
        <time>2025-07-21T14:15:16Z</time>
      </trkpt>
      <trkpt lat="42.80683" lon="0.4927">
        <ele>1236.8</ele>
        <time>2025-07-21T14:15:17Z</time>
      </trkpt>
      <trkpt lat="42.80683" lon="0.4926">
        <ele>1237.6</ele>
        <time>2025-07-21T14:15:21Z</time>
      </trkpt>
      <trkpt lat="42.80684" lon="0.49251">
        <ele>1238.2</ele>
        <time>2025-07-21T14:15:24Z</time>
      </trkpt>
      <trkpt lat="42.80685" lon="0.49245">
        <ele>1238.8</ele>
        <time>2025-07-21T14:15:26Z</time>
      </trkpt>
      <trkpt lat="42.80687" lon="0.49229">
        <ele>1240</ele>
        <time>2025-07-21T14:15:31Z</time>
      </trkpt>
      <trkpt lat="42.80689" lon="0.49219">
        <ele>1240.8</ele>
        <time>2025-07-21T14:15:34Z</time>
      </trkpt>
      <trkpt lat="42.80689" lon="0.49216">
        <ele>1241.2</ele>
        <time>2025-07-21T14:15:35Z</time>
      </trkpt>
      <trkpt lat="42.80693" lon="0.492">
        <ele>1242.2</ele>
        <time>2025-07-21T14:15:40Z</time>
      </trkpt>
      <trkpt lat="42.80693" lon="0.49198">
        <ele>1242.4</ele>
        <time>2025-07-21T14:15:41Z</time>
      </trkpt>
      <trkpt lat="42.80695" lon="0.49183">
        <ele>1243.4</ele>
        <time>2025-07-21T14:15:46Z</time>
      </trkpt>
      <trkpt lat="42.80697" lon="0.49169">
        <ele>1244</ele>
        <time>2025-07-21T14:15:51Z</time>
      </trkpt>
      <trkpt lat="42.80698" lon="0.49166">
        <ele>1244.2</ele>
        <time>2025-07-21T14:15:52Z</time>
      </trkpt>
      <trkpt lat="42.80701" lon="0.49152">
        <ele>1245.4</ele>
        <time>2025-07-21T14:15:57Z</time>
      </trkpt>
      <trkpt lat="42.80703" lon="0.4914">
        <ele>1246</ele>
        <time>2025-07-21T14:16:01Z</time>
      </trkpt>
      <trkpt lat="42.80704" lon="0.49135">
        <ele>1246.4</ele>
        <time>2025-07-21T14:16:03Z</time>
      </trkpt>
      <trkpt lat="42.80708" lon="0.49115">
        <ele>1247.6</ele>
        <time>2025-07-21T14:16:10Z</time>
      </trkpt>
      <trkpt lat="42.80709" lon="0.49109">
        <ele>1248</ele>
        <time>2025-07-21T14:16:12Z</time>
      </trkpt>
      <trkpt lat="42.80711" lon="0.49097">
        <ele>1248.6</ele>
        <time>2025-07-21T14:16:16Z</time>
      </trkpt>
      <trkpt lat="42.80713" lon="0.49085">
        <ele>1249.4</ele>
        <time>2025-07-21T14:16:20Z</time>
      </trkpt>
      <trkpt lat="42.80714" lon="0.49079">
        <ele>1249.6</ele>
        <time>2025-07-21T14:16:22Z</time>
      </trkpt>
      <trkpt lat="42.80716" lon="0.49064">
        <ele>1250.6</ele>
        <time>2025-07-21T14:16:27Z</time>
      </trkpt>
      <trkpt lat="42.80717" lon="0.49058">
        <ele>1250.8</ele>
        <time>2025-07-21T14:16:29Z</time>
      </trkpt>
      <trkpt lat="42.8072" lon="0.49049">
        <ele>1251.2</ele>
        <time>2025-07-21T14:16:32Z</time>
      </trkpt>
      <trkpt lat="42.80721" lon="0.49047">
        <ele>1251.4</ele>
        <time>2025-07-21T14:16:33Z</time>
      </trkpt>
      <trkpt lat="42.80724" lon="0.49033">
        <ele>1252.8</ele>
        <time>2025-07-21T14:16:38Z</time>
      </trkpt>
      <trkpt lat="42.80729" lon="0.49017">
        <ele>1253.8</ele>
        <time>2025-07-21T14:16:44Z</time>
      </trkpt>
      <trkpt lat="42.80732" lon="0.49007">
        <ele>1254.6</ele>
        <time>2025-07-21T14:16:48Z</time>
      </trkpt>
      <trkpt lat="42.80733" lon="0.49001">
        <ele>1255</ele>
        <time>2025-07-21T14:16:50Z</time>
      </trkpt>
      <trkpt lat="42.80736" lon="0.48987">
        <ele>1256.2</ele>
        <time>2025-07-21T14:16:55Z</time>
      </trkpt>
      <trkpt lat="42.80737" lon="0.48979">
        <ele>1256.6</ele>
        <time>2025-07-21T14:16:58Z</time>
      </trkpt>
      <trkpt lat="42.80738" lon="0.4897">
        <ele>1257.2</ele>
        <time>2025-07-21T14:17:01Z</time>
      </trkpt>
      <trkpt lat="42.8074" lon="0.48957">
        <ele>1257.8</ele>
        <time>2025-07-21T14:17:05Z</time>
      </trkpt>
      <trkpt lat="42.80741" lon="0.4895">
        <ele>1258.6</ele>
        <time>2025-07-21T14:17:07Z</time>
      </trkpt>
      <trkpt lat="42.80743" lon="0.48938">
        <ele>1259</ele>
        <time>2025-07-21T14:17:11Z</time>
      </trkpt>
      <trkpt lat="42.80744" lon="0.48932">
        <ele>1259.6</ele>
        <time>2025-07-21T14:17:13Z</time>
      </trkpt>
      <trkpt lat="42.80746" lon="0.48915">
        <ele>1260.6</ele>
        <time>2025-07-21T14:17:19Z</time>
      </trkpt>
      <trkpt lat="42.80747" lon="0.48912">
        <ele>1260.8</ele>
        <time>2025-07-21T14:17:20Z</time>
      </trkpt>
      <trkpt lat="42.80749" lon="0.48894">
        <ele>1261.6</ele>
        <time>2025-07-21T14:17:26Z</time>
      </trkpt>
      <trkpt lat="42.80751" lon="0.48882">
        <ele>1262.6</ele>
        <time>2025-07-21T14:17:30Z</time>
      </trkpt>
      <trkpt lat="42.80756" lon="0.4886">
        <ele>1263.6</ele>
        <time>2025-07-21T14:17:37Z</time>
      </trkpt>
      <trkpt lat="42.80759" lon="0.48839">
        <ele>1264.8</ele>
        <time>2025-07-21T14:17:44Z</time>
      </trkpt>
      <trkpt lat="42.80761" lon="0.4883">
        <ele>1265.2</ele>
        <time>2025-07-21T14:17:47Z</time>
      </trkpt>
      <trkpt lat="42.80762" lon="0.48817">
        <ele>1265.8</ele>
        <time>2025-07-21T14:17:51Z</time>
      </trkpt>
      <trkpt lat="42.80763" lon="0.48805">
        <ele>1266.8</ele>
        <time>2025-07-21T14:17:55Z</time>
      </trkpt>
      <trkpt lat="42.80763" lon="0.48798">
        <ele>1267</ele>
        <time>2025-07-21T14:17:57Z</time>
      </trkpt>
      <trkpt lat="42.80764" lon="0.48779">
        <ele>1268</ele>
        <time>2025-07-21T14:18:03Z</time>
      </trkpt>
      <trkpt lat="42.80765" lon="0.48764">
        <ele>1268.8</ele>
        <time>2025-07-21T14:18:08Z</time>
      </trkpt>
      <trkpt lat="42.80764" lon="0.48748">
        <ele>1269.8</ele>
        <time>2025-07-21T14:18:13Z</time>
      </trkpt>
      <trkpt lat="42.80764" lon="0.48735">
        <ele>1271</ele>
        <time>2025-07-21T14:18:18Z</time>
      </trkpt>
      <trkpt lat="42.80764" lon="0.48714">
        <ele>1272</ele>
        <time>2025-07-21T14:18:25Z</time>
      </trkpt>
      <trkpt lat="42.80764" lon="0.48702">
        <ele>1272.8</ele>
        <time>2025-07-21T14:18:29Z</time>
      </trkpt>
      <trkpt lat="42.80764" lon="0.48696">
        <ele>1273.2</ele>
        <time>2025-07-21T14:18:31Z</time>
      </trkpt>
      <trkpt lat="42.80764" lon="0.48681">
        <ele>1274.4</ele>
        <time>2025-07-21T14:18:36Z</time>
      </trkpt>
      <trkpt lat="42.80763" lon="0.48672">
        <ele>1275</ele>
        <time>2025-07-21T14:18:39Z</time>
      </trkpt>
      <trkpt lat="42.80763" lon="0.48662">
        <ele>1275.6</ele>
        <time>2025-07-21T14:18:42Z</time>
      </trkpt>
      <trkpt lat="42.80763" lon="0.48646">
        <ele>1276.4</ele>
        <time>2025-07-21T14:18:47Z</time>
      </trkpt>
      <trkpt lat="42.80763" lon="0.48643">
        <ele>1276.8</ele>
        <time>2025-07-21T14:18:48Z</time>
      </trkpt>
      <trkpt lat="42.80763" lon="0.48628">
        <ele>1277.8</ele>
        <time>2025-07-21T14:18:53Z</time>
      </trkpt>
      <trkpt lat="42.80765" lon="0.48616">
        <ele>1278.4</ele>
        <time>2025-07-21T14:18:57Z</time>
      </trkpt>
      <trkpt lat="42.80764" lon="0.4861">
        <ele>1278.8</ele>
        <time>2025-07-21T14:18:59Z</time>
      </trkpt>
      <trkpt lat="42.80764" lon="0.48594">
        <ele>1279.6</ele>
        <time>2025-07-21T14:19:04Z</time>
      </trkpt>
      <trkpt lat="42.80765" lon="0.48584">
        <ele>1280.6</ele>
        <time>2025-07-21T14:19:07Z</time>
      </trkpt>
      <trkpt lat="42.80766" lon="0.48577">
        <ele>1280.8</ele>
        <time>2025-07-21T14:19:09Z</time>
      </trkpt>
      <trkpt lat="42.80767" lon="0.48555">
        <ele>1282</ele>
        <time>2025-07-21T14:19:16Z</time>
      </trkpt>
      <trkpt lat="42.80767" lon="0.48552">
        <ele>1282.2</ele>
        <time>2025-07-21T14:19:17Z</time>
      </trkpt>
      <trkpt lat="42.80767" lon="0.48542">
        <ele>1283.2</ele>
        <time>2025-07-21T14:19:20Z</time>
      </trkpt>
      <trkpt lat="42.80768" lon="0.48528">
        <ele>1284</ele>
        <time>2025-07-21T14:19:25Z</time>
      </trkpt>
      <trkpt lat="42.80768" lon="0.48525">
        <ele>1284.2</ele>
        <time>2025-07-21T14:19:26Z</time>
      </trkpt>
      <trkpt lat="42.80768" lon="0.48506">
        <ele>1285.2</ele>
        <time>2025-07-21T14:19:32Z</time>
      </trkpt>
      <trkpt lat="42.80768" lon="0.48503">
        <ele>1285.2</ele>
        <time>2025-07-21T14:19:33Z</time>
      </trkpt>
      <trkpt lat="42.80768" lon="0.48487">
        <ele>1286.2</ele>
        <time>2025-07-21T14:19:38Z</time>
      </trkpt>
      <trkpt lat="42.80768" lon="0.48466">
        <ele>1287.2</ele>
        <time>2025-07-21T14:19:45Z</time>
      </trkpt>
      <trkpt lat="42.80767" lon="0.48448">
        <ele>1288.4</ele>
        <time>2025-07-21T14:19:51Z</time>
      </trkpt>
      <trkpt lat="42.80766" lon="0.48431">
        <ele>1289</ele>
        <time>2025-07-21T14:19:56Z</time>
      </trkpt>
      <trkpt lat="42.80765" lon="0.48425">
        <ele>1289.4</ele>
        <time>2025-07-21T14:19:58Z</time>
      </trkpt>
      <trkpt lat="42.80764" lon="0.48411">
        <ele>1290.4</ele>
        <time>2025-07-21T14:20:03Z</time>
      </trkpt>
      <trkpt lat="42.80761" lon="0.48398">
        <ele>1291.2</ele>
        <time>2025-07-21T14:20:07Z</time>
      </trkpt>
      <trkpt lat="42.80758" lon="0.48386">
        <ele>1291.6</ele>
        <time>2025-07-21T14:20:11Z</time>
      </trkpt>
      <trkpt lat="42.80753" lon="0.48365">
        <ele>1292.8</ele>
        <time>2025-07-21T14:20:18Z</time>
      </trkpt>
      <trkpt lat="42.80748" lon="0.48347">
        <ele>1293.6</ele>
        <time>2025-07-21T14:20:24Z</time>
      </trkpt>
      <trkpt lat="42.80743" lon="0.48333">
        <ele>1294.4</ele>
        <time>2025-07-21T14:20:29Z</time>
      </trkpt>
      <trkpt lat="42.80742" lon="0.4833">
        <ele>1294.6</ele>
        <time>2025-07-21T14:20:30Z</time>
      </trkpt>
      <trkpt lat="42.80735" lon="0.48316">
        <ele>1295.6</ele>
        <time>2025-07-21T14:20:36Z</time>
      </trkpt>
      <trkpt lat="42.80732" lon="0.48312">
        <ele>1296</ele>
        <time>2025-07-21T14:20:38Z</time>
      </trkpt>
      <trkpt lat="42.80727" lon="0.48301">
        <ele>1296.8</ele>
        <time>2025-07-21T14:20:42Z</time>
      </trkpt>
      <trkpt lat="42.80721" lon="0.48292">
        <ele>1297.4</ele>
        <time>2025-07-21T14:20:46Z</time>
      </trkpt>
      <trkpt lat="42.80718" lon="0.48286">
        <ele>1297.8</ele>
        <time>2025-07-21T14:20:48Z</time>
      </trkpt>
      <trkpt lat="42.80707" lon="0.48268">
        <ele>1298.8</ele>
        <time>2025-07-21T14:20:55Z</time>
      </trkpt>
      <trkpt lat="42.80706" lon="0.48266">
        <ele>1299</ele>
        <time>2025-07-21T14:20:56Z</time>
      </trkpt>
      <trkpt lat="42.807" lon="0.48256">
        <ele>1299.6</ele>
        <time>2025-07-21T14:21:00Z</time>
      </trkpt>
      <trkpt lat="42.80694" lon="0.48246">
        <ele>1300.6</ele>
        <time>2025-07-21T14:21:04Z</time>
      </trkpt>
      <trkpt lat="42.80693" lon="0.48244">
        <ele>1300.6</ele>
        <time>2025-07-21T14:21:05Z</time>
      </trkpt>
      <trkpt lat="42.80685" lon="0.48233">
        <ele>1301.8</ele>
        <time>2025-07-21T14:21:10Z</time>
      </trkpt>
      <trkpt lat="42.80681" lon="0.48226">
        <ele>1302.2</ele>
        <time>2025-07-21T14:21:13Z</time>
      </trkpt>
      <trkpt lat="42.80674" lon="0.48218">
        <ele>1302.8</ele>
        <time>2025-07-21T14:21:17Z</time>
      </trkpt>
      <trkpt lat="42.80666" lon="0.48208">
        <ele>1303.8</ele>
        <time>2025-07-21T14:21:22Z</time>
      </trkpt>
      <trkpt lat="42.80661" lon="0.48202">
        <ele>1304.4</ele>
        <time>2025-07-21T14:21:25Z</time>
      </trkpt>
      <trkpt lat="42.80656" lon="0.48196">
        <ele>1305.2</ele>
        <time>2025-07-21T14:21:28Z</time>
      </trkpt>
      <trkpt lat="42.80646" lon="0.48183">
        <ele>1306.2</ele>
        <time>2025-07-21T14:21:34Z</time>
      </trkpt>
      <trkpt lat="42.80644" lon="0.48181">
        <ele>1306.6</ele>
        <time>2025-07-21T14:21:35Z</time>
      </trkpt>
      <trkpt lat="42.80636" lon="0.48171">
        <ele>1307.4</ele>
        <time>2025-07-21T14:21:40Z</time>
      </trkpt>
      <trkpt lat="42.80627" lon="0.48161">
        <ele>1307.8</ele>
        <time>2025-07-21T14:21:45Z</time>
      </trkpt>
      <trkpt lat="42.80624" lon="0.48157">
        <ele>1308.2</ele>
        <time>2025-07-21T14:21:47Z</time>
      </trkpt>
      <trkpt lat="42.80615" lon="0.48144">
        <ele>1309.2</ele>
        <time>2025-07-21T14:21:53Z</time>
      </trkpt>
      <trkpt lat="42.80613" lon="0.48139">
        <ele>1309.6</ele>
        <time>2025-07-21T14:21:55Z</time>
      </trkpt>
      <trkpt lat="42.80607" lon="0.4813">
        <ele>1310.2</ele>
        <time>2025-07-21T14:21:59Z</time>
      </trkpt>
      <trkpt lat="42.80599" lon="0.4812">
        <ele>1311</ele>
        <time>2025-07-21T14:22:04Z</time>
      </trkpt>
      <trkpt lat="42.80596" lon="0.48115">
        <ele>1311.4</ele>
        <time>2025-07-21T14:22:06Z</time>
      </trkpt>
      <trkpt lat="42.80587" lon="0.48101">
        <ele>1312.4</ele>
        <time>2025-07-21T14:22:12Z</time>
      </trkpt>
      <trkpt lat="42.80584" lon="0.48097">
        <ele>1312.8</ele>
        <time>2025-07-21T14:22:14Z</time>
      </trkpt>
      <trkpt lat="42.80578" lon="0.48088">
        <ele>1313.2</ele>
        <time>2025-07-21T14:22:18Z</time>
      </trkpt>
      <trkpt lat="42.80571" lon="0.48076">
        <ele>1314.4</ele>
        <time>2025-07-21T14:22:23Z</time>
      </trkpt>
      <trkpt lat="42.80569" lon="0.48074">
        <ele>1314.6</ele>
        <time>2025-07-21T14:22:24Z</time>
      </trkpt>
      <trkpt lat="42.80564" lon="0.48067">
        <ele>1315.4</ele>
        <time>2025-07-21T14:22:28Z</time>
      </trkpt>
      <trkpt lat="42.80558" lon="0.48057">
        <ele>1316</ele>
        <time>2025-07-21T14:22:32Z</time>
      </trkpt>
      <trkpt lat="42.80553" lon="0.4805">
        <ele>1316.8</ele>
        <time>2025-07-21T14:22:35Z</time>
      </trkpt>
      <trkpt lat="42.80543" lon="0.48036">
        <ele>1317.8</ele>
        <time>2025-07-21T14:22:41Z</time>
      </trkpt>
      <trkpt lat="42.80542" lon="0.48034">
        <ele>1318</ele>
        <time>2025-07-21T14:22:42Z</time>
      </trkpt>
      <trkpt lat="42.80532" lon="0.48021">
        <ele>1319.2</ele>
        <time>2025-07-21T14:22:48Z</time>
      </trkpt>
      <trkpt lat="42.80528" lon="0.48015">
        <ele>1319.6</ele>
        <time>2025-07-21T14:22:51Z</time>
      </trkpt>
      <trkpt lat="42.80524" lon="0.48007">
        <ele>1320.2</ele>
        <time>2025-07-21T14:22:54Z</time>
      </trkpt>
      <trkpt lat="42.8052" lon="0.47993">
        <ele>1321.4</ele>
        <time>2025-07-21T14:22:59Z</time>
      </trkpt>
      <trkpt lat="42.80515" lon="0.47977">
        <ele>1322.4</ele>
        <time>2025-07-21T14:23:05Z</time>
      </trkpt>
      <trkpt lat="42.80513" lon="0.47968">
        <ele>1323</ele>
        <time>2025-07-21T14:23:08Z</time>
      </trkpt>
      <trkpt lat="42.80511" lon="0.4796">
        <ele>1323.4</ele>
        <time>2025-07-21T14:23:11Z</time>
      </trkpt>
      <trkpt lat="42.80506" lon="0.47941">
        <ele>1324.4</ele>
        <time>2025-07-21T14:23:18Z</time>
      </trkpt>
      <trkpt lat="42.80501" lon="0.47927">
        <ele>1325.4</ele>
        <time>2025-07-21T14:23:23Z</time>
      </trkpt>
      <trkpt lat="42.80496" lon="0.47914">
        <ele>1326.6</ele>
        <time>2025-07-21T14:23:28Z</time>
      </trkpt>
      <trkpt lat="42.80495" lon="0.47912">
        <ele>1326.8</ele>
        <time>2025-07-21T14:23:29Z</time>
      </trkpt>
      <trkpt lat="42.8049" lon="0.47894">
        <ele>1327.8</ele>
        <time>2025-07-21T14:23:35Z</time>
      </trkpt>
      <trkpt lat="42.80486" lon="0.47878">
        <ele>1329</ele>
        <time>2025-07-21T14:23:41Z</time>
      </trkpt>
      <trkpt lat="42.80481" lon="0.47858">
        <ele>1330.2</ele>
        <time>2025-07-21T14:23:48Z</time>
      </trkpt>
      <trkpt lat="42.8048" lon="0.47849">
        <ele>1330.6</ele>
        <time>2025-07-21T14:23:51Z</time>
      </trkpt>
      <trkpt lat="42.80477" lon="0.47834">
        <ele>1331.2</ele>
        <time>2025-07-21T14:23:56Z</time>
      </trkpt>
      <trkpt lat="42.80474" lon="0.47819">
        <ele>1332.2</ele>
        <time>2025-07-21T14:24:01Z</time>
      </trkpt>
      <trkpt lat="42.80473" lon="0.47816">
        <ele>1332.4</ele>
        <time>2025-07-21T14:24:02Z</time>
      </trkpt>
      <trkpt lat="42.8047" lon="0.47801">
        <ele>1333.4</ele>
        <time>2025-07-21T14:24:07Z</time>
      </trkpt>
      <trkpt lat="42.80467" lon="0.47788">
        <ele>1334.6</ele>
        <time>2025-07-21T14:24:12Z</time>
      </trkpt>
      <trkpt lat="42.80463" lon="0.4777">
        <ele>1335.6</ele>
        <time>2025-07-21T14:24:18Z</time>
      </trkpt>
      <trkpt lat="42.80461" lon="0.47761">
        <ele>1336.2</ele>
        <time>2025-07-21T14:24:21Z</time>
      </trkpt>
      <trkpt lat="42.80459" lon="0.47755">
        <ele>1336.6</ele>
        <time>2025-07-21T14:24:23Z</time>
      </trkpt>
      <trkpt lat="42.80454" lon="0.47738">
        <ele>1337.8</ele>
        <time>2025-07-21T14:24:29Z</time>
      </trkpt>
      <trkpt lat="42.80452" lon="0.47734">
        <ele>1338.2</ele>
        <time>2025-07-21T14:24:31Z</time>
      </trkpt>
      <trkpt lat="42.80449" lon="0.47726">
        <ele>1338.8</ele>
        <time>2025-07-21T14:24:34Z</time>
      </trkpt>
      <trkpt lat="42.80442" lon="0.47708">
        <ele>1339.6</ele>
        <time>2025-07-21T14:24:41Z</time>
      </trkpt>
      <trkpt lat="42.8044" lon="0.47703">
        <ele>1340</ele>
        <time>2025-07-21T14:24:43Z</time>
      </trkpt>
      <trkpt lat="42.80434" lon="0.47687">
        <ele>1341</ele>
        <time>2025-07-21T14:24:49Z</time>
      </trkpt>
      <trkpt lat="42.80432" lon="0.47682">
        <ele>1341.6</ele>
        <time>2025-07-21T14:24:51Z</time>
      </trkpt>
      <trkpt lat="42.80427" lon="0.47672">
        <ele>1342.2</ele>
        <time>2025-07-21T14:24:55Z</time>
      </trkpt>
      <trkpt lat="42.80424" lon="0.47666">
        <ele>1342.8</ele>
        <time>2025-07-21T14:24:58Z</time>
      </trkpt>
      <trkpt lat="42.80421" lon="0.47656">
        <ele>1343.4</ele>
        <time>2025-07-21T14:25:02Z</time>
      </trkpt>
      <trkpt lat="42.80418" lon="0.47648">
        <ele>1344.2</ele>
        <time>2025-07-21T14:25:05Z</time>
      </trkpt>
      <trkpt lat="42.80416" lon="0.47643">
        <ele>1344.6</ele>
        <time>2025-07-21T14:25:07Z</time>
      </trkpt>
      <trkpt lat="42.80411" lon="0.47631">
        <ele>1345.6</ele>
        <time>2025-07-21T14:25:12Z</time>
      </trkpt>
      <trkpt lat="42.80407" lon="0.47621">
        <ele>1346.8</ele>
        <time>2025-07-21T14:25:16Z</time>
      </trkpt>
      <trkpt lat="42.80404" lon="0.47614">
        <ele>1347.4</ele>
        <time>2025-07-21T14:25:19Z</time>
      </trkpt>
      <trkpt lat="42.80402" lon="0.47609">
        <ele>1347.8</ele>
        <time>2025-07-21T14:25:21Z</time>
      </trkpt>
      <trkpt lat="42.80396" lon="0.47596">
        <ele>1349</ele>
        <time>2025-07-21T14:25:26Z</time>
      </trkpt>
      <trkpt lat="42.80392" lon="0.47586">
        <ele>1349.6</ele>
        <time>2025-07-21T14:25:30Z</time>
      </trkpt>
      <trkpt lat="42.80387" lon="0.47579">
        <ele>1350.2</ele>
        <time>2025-07-21T14:25:33Z</time>
      </trkpt>
      <trkpt lat="42.80377" lon="0.47564">
        <ele>1351.2</ele>
        <time>2025-07-21T14:25:40Z</time>
      </trkpt>
      <trkpt lat="42.80375" lon="0.4756">
        <ele>1351.6</ele>
        <time>2025-07-21T14:25:42Z</time>
      </trkpt>
      <trkpt lat="42.8037" lon="0.47554">
        <ele>1352.2</ele>
        <time>2025-07-21T14:25:45Z</time>
      </trkpt>
      <trkpt lat="42.80362" lon="0.47544">
        <ele>1353.4</ele>
        <time>2025-07-21T14:25:50Z</time>
      </trkpt>
      <trkpt lat="42.80357" lon="0.47539">
        <ele>1354</ele>
        <time>2025-07-21T14:25:53Z</time>
      </trkpt>
      <trkpt lat="42.80352" lon="0.47534">
        <ele>1354.6</ele>
        <time>2025-07-21T14:25:56Z</time>
      </trkpt>
      <trkpt lat="42.80342" lon="0.47522">
        <ele>1355.6</ele>
        <time>2025-07-21T14:26:02Z</time>
      </trkpt>
      <trkpt lat="42.80341" lon="0.47521">
        <ele>1355.8</ele>
        <time>2025-07-21T14:26:03Z</time>
      </trkpt>
      <trkpt lat="42.80333" lon="0.47513">
        <ele>1356.8</ele>
        <time>2025-07-21T14:26:08Z</time>
      </trkpt>
      <trkpt lat="42.80331" lon="0.47511">
        <ele>1357</ele>
        <time>2025-07-21T14:26:09Z</time>
      </trkpt>
      <trkpt lat="42.80322" lon="0.47501">
        <ele>1358</ele>
        <time>2025-07-21T14:26:14Z</time>
      </trkpt>
      <trkpt lat="42.80319" lon="0.47498">
        <ele>1358.4</ele>
        <time>2025-07-21T14:26:16Z</time>
      </trkpt>
      <trkpt lat="42.80311" lon="0.4749">
        <ele>1359</ele>
        <time>2025-07-21T14:26:20Z</time>
      </trkpt>
      <trkpt lat="42.80303" lon="0.4748">
        <ele>1360</ele>
        <time>2025-07-21T14:26:25Z</time>
      </trkpt>
      <trkpt lat="42.80301" lon="0.47478">
        <ele>1360.2</ele>
        <time>2025-07-21T14:26:26Z</time>
      </trkpt>
      <trkpt lat="42.80292" lon="0.47468">
        <ele>1361</ele>
        <time>2025-07-21T14:26:31Z</time>
      </trkpt>
      <trkpt lat="42.80284" lon="0.47459">
        <ele>1362</ele>
        <time>2025-07-21T14:26:36Z</time>
      </trkpt>
      <trkpt lat="42.80282" lon="0.47457">
        <ele>1362</ele>
        <time>2025-07-21T14:26:37Z</time>
      </trkpt>
      <trkpt lat="42.80273" lon="0.47442">
        <ele>1363</ele>
        <time>2025-07-21T14:26:43Z</time>
      </trkpt>
      <trkpt lat="42.80266" lon="0.47431">
        <ele>1364</ele>
        <time>2025-07-21T14:26:48Z</time>
      </trkpt>
      <trkpt lat="42.80265" lon="0.47429">
        <ele>1364.2</ele>
        <time>2025-07-21T14:26:49Z</time>
      </trkpt>
      <trkpt lat="42.80257" lon="0.47414">
        <ele>1365.6</ele>
        <time>2025-07-21T14:26:55Z</time>
      </trkpt>
      <trkpt lat="42.80249" lon="0.47401">
        <ele>1366.6</ele>
        <time>2025-07-21T14:27:01Z</time>
      </trkpt>
      <trkpt lat="42.80245" lon="0.47394">
        <ele>1367</ele>
        <time>2025-07-21T14:27:04Z</time>
      </trkpt>
      <trkpt lat="42.80242" lon="0.47388">
        <ele>1367.4</ele>
        <time>2025-07-21T14:27:06Z</time>
      </trkpt>
      <trkpt lat="42.80237" lon="0.47374">
        <ele>1368.4</ele>
        <time>2025-07-21T14:27:11Z</time>
      </trkpt>
      <trkpt lat="42.80232" lon="0.47356">
        <ele>1369.6</ele>
        <time>2025-07-21T14:27:17Z</time>
      </trkpt>
      <trkpt lat="42.8023" lon="0.47347">
        <ele>1370.2</ele>
        <time>2025-07-21T14:27:20Z</time>
      </trkpt>
      <trkpt lat="42.80229" lon="0.47342">
        <ele>1370.6</ele>
        <time>2025-07-21T14:27:22Z</time>
      </trkpt>
      <trkpt lat="42.80224" lon="0.47325">
        <ele>1371.6</ele>
        <time>2025-07-21T14:27:28Z</time>
      </trkpt>
      <trkpt lat="42.80223" lon="0.47322">
        <ele>1372</ele>
        <time>2025-07-21T14:27:29Z</time>
      </trkpt>
      <trkpt lat="42.80216" lon="0.4731">
        <ele>1373</ele>
        <time>2025-07-21T14:27:34Z</time>
      </trkpt>
      <trkpt lat="42.80209" lon="0.47299">
        <ele>1373.8</ele>
        <time>2025-07-21T14:27:39Z</time>
      </trkpt>
      <trkpt lat="42.80206" lon="0.47295">
        <ele>1374</ele>
        <time>2025-07-21T14:27:41Z</time>
      </trkpt>
      <trkpt lat="42.80194" lon="0.4728">
        <ele>1375</ele>
        <time>2025-07-21T14:27:48Z</time>
      </trkpt>
      <trkpt lat="42.80192" lon="0.47278">
        <ele>1375.2</ele>
        <time>2025-07-21T14:27:49Z</time>
      </trkpt>
      <trkpt lat="42.80177" lon="0.47258">
        <ele>1376</ele>
        <time>2025-07-21T14:27:58Z</time>
      </trkpt>
      <trkpt lat="42.80173" lon="0.47253">
        <ele>1376.2</ele>
        <time>2025-07-21T14:28:00Z</time>
      </trkpt>
      <trkpt lat="42.80161" lon="0.4723">
        <ele>1377.2</ele>
        <time>2025-07-21T14:28:09Z</time>
      </trkpt>
      <trkpt lat="42.80155" lon="0.47211">
        <ele>1378</ele>
        <time>2025-07-21T14:28:16Z</time>
      </trkpt>
      <trkpt lat="42.80154" lon="0.47208">
        <ele>1378.4</ele>
        <time>2025-07-21T14:28:17Z</time>
      </trkpt>
      <trkpt lat="42.80151" lon="0.47195">
        <ele>1379.4</ele>
        <time>2025-07-21T14:28:22Z</time>
      </trkpt>
      <trkpt lat="42.80151" lon="0.47192">
        <ele>1379.6</ele>
        <time>2025-07-21T14:28:23Z</time>
      </trkpt>
      <trkpt lat="42.80148" lon="0.4718">
        <ele>1380.4</ele>
        <time>2025-07-21T14:28:27Z</time>
      </trkpt>
      <trkpt lat="42.80145" lon="0.47163">
        <ele>1381.4</ele>
        <time>2025-07-21T14:28:33Z</time>
      </trkpt>
      <trkpt lat="42.80144" lon="0.47147">
        <ele>1382.6</ele>
        <time>2025-07-21T14:28:38Z</time>
      </trkpt>
      <trkpt lat="42.80145" lon="0.47133">
        <ele>1383.6</ele>
        <time>2025-07-21T14:28:42Z</time>
      </trkpt>
      <trkpt lat="42.80148" lon="0.47118">
        <ele>1384.8</ele>
        <time>2025-07-21T14:28:47Z</time>
      </trkpt>
      <trkpt lat="42.8015" lon="0.47113">
        <ele>1385.2</ele>
        <time>2025-07-21T14:28:49Z</time>
      </trkpt>
      <trkpt lat="42.80151" lon="0.47107">
        <ele>1385.8</ele>
        <time>2025-07-21T14:28:51Z</time>
      </trkpt>
      <trkpt lat="42.80155" lon="0.47094">
        <ele>1386.8</ele>
        <time>2025-07-21T14:28:56Z</time>
      </trkpt>
      <trkpt lat="42.80155" lon="0.47092">
        <ele>1386.8</ele>
        <time>2025-07-21T14:28:57Z</time>
      </trkpt>
      <trkpt lat="42.80159" lon="0.47076">
        <ele>1388</ele>
        <time>2025-07-21T14:29:03Z</time>
      </trkpt>
      <trkpt lat="42.80161" lon="0.47071">
        <ele>1388.4</ele>
        <time>2025-07-21T14:29:05Z</time>
      </trkpt>
      <trkpt lat="42.80163" lon="0.4706">
        <ele>1389.2</ele>
        <time>2025-07-21T14:29:09Z</time>
      </trkpt>
      <trkpt lat="42.80165" lon="0.47048">
        <ele>1390.6</ele>
        <time>2025-07-21T14:29:13Z</time>
      </trkpt>
      <trkpt lat="42.80166" lon="0.47043">
        <ele>1391</ele>
        <time>2025-07-21T14:29:15Z</time>
      </trkpt>
      <trkpt lat="42.80169" lon="0.47032">
        <ele>1391.6</ele>
        <time>2025-07-21T14:29:19Z</time>
      </trkpt>
      <trkpt lat="42.80172" lon="0.47015">
        <ele>1392.8</ele>
        <time>2025-07-21T14:29:25Z</time>
      </trkpt>
      <trkpt lat="42.80172" lon="0.47013">
        <ele>1392.8</ele>
        <time>2025-07-21T14:29:26Z</time>
      </trkpt>
      <trkpt lat="42.80173" lon="0.46999">
        <ele>1393.8</ele>
        <time>2025-07-21T14:29:31Z</time>
      </trkpt>
      <trkpt lat="42.80175" lon="0.46981">
        <ele>1395</ele>
        <time>2025-07-21T14:29:37Z</time>
      </trkpt>
      <trkpt lat="42.80176" lon="0.46961">
        <ele>1396</ele>
        <time>2025-07-21T14:29:44Z</time>
      </trkpt>
      <trkpt lat="42.80176" lon="0.46958">
        <ele>1396.2</ele>
        <time>2025-07-21T14:29:45Z</time>
      </trkpt>
      <trkpt lat="42.80179" lon="0.46947">
        <ele>1397.2</ele>
        <time>2025-07-21T14:29:49Z</time>
      </trkpt>
      <trkpt lat="42.80182" lon="0.46932">
        <ele>1398.2</ele>
        <time>2025-07-21T14:29:54Z</time>
      </trkpt>
      <trkpt lat="42.80183" lon="0.4693">
        <ele>1398.4</ele>
        <time>2025-07-21T14:29:55Z</time>
      </trkpt>
      <trkpt lat="42.80189" lon="0.46918">
        <ele>1399.4</ele>
        <time>2025-07-21T14:30:00Z</time>
      </trkpt>
      <trkpt lat="42.80192" lon="0.46914">
        <ele>1399.8</ele>
        <time>2025-07-21T14:30:02Z</time>
      </trkpt>
      <trkpt lat="42.80197" lon="0.46909">
        <ele>1400.2</ele>
        <time>2025-07-21T14:30:05Z</time>
      </trkpt>
      <trkpt lat="42.80206" lon="0.46906">
        <ele>1401.4</ele>
        <time>2025-07-21T14:30:09Z</time>
      </trkpt>
      <trkpt lat="42.80217" lon="0.46902">
        <ele>1402.4</ele>
        <time>2025-07-21T14:30:14Z</time>
      </trkpt>
      <trkpt lat="42.80226" lon="0.46898">
        <ele>1403</ele>
        <time>2025-07-21T14:30:18Z</time>
      </trkpt>
      <trkpt lat="42.8023" lon="0.46897">
        <ele>1403.2</ele>
        <time>2025-07-21T14:30:20Z</time>
      </trkpt>
      <trkpt lat="42.80238" lon="0.46894">
        <ele>1403.8</ele>
        <time>2025-07-21T14:30:24Z</time>
      </trkpt>
      <trkpt lat="42.80243" lon="0.46893">
        <ele>1404.2</ele>
        <time>2025-07-21T14:30:26Z</time>
      </trkpt>
      <trkpt lat="42.8026" lon="0.46893">
        <ele>1405.6</ele>
        <time>2025-07-21T14:30:33Z</time>
      </trkpt>
      <trkpt lat="42.80272" lon="0.46894">
        <ele>1406.6</ele>
        <time>2025-07-21T14:30:39Z</time>
      </trkpt>
      <trkpt lat="42.80283" lon="0.46897">
        <ele>1407.6</ele>
        <time>2025-07-21T14:30:44Z</time>
      </trkpt>
      <trkpt lat="42.80285" lon="0.46896">
        <ele>1408</ele>
        <time>2025-07-21T14:30:45Z</time>
      </trkpt>
      <trkpt lat="42.80295" lon="0.46897">
        <ele>1408.8</ele>
        <time>2025-07-21T14:30:49Z</time>
      </trkpt>
      <trkpt lat="42.80306" lon="0.46898">
        <ele>1409.6</ele>
        <time>2025-07-21T14:30:54Z</time>
      </trkpt>
      <trkpt lat="42.80308" lon="0.46899">
        <ele>1409.8</ele>
        <time>2025-07-21T14:30:55Z</time>
      </trkpt>
      <trkpt lat="42.80322" lon="0.46904">
        <ele>1411</ele>
        <time>2025-07-21T14:31:02Z</time>
      </trkpt>
      <trkpt lat="42.80327" lon="0.46906">
        <ele>1411.4</ele>
        <time>2025-07-21T14:31:04Z</time>
      </trkpt>
      <trkpt lat="42.80333" lon="0.46908">
        <ele>1412</ele>
        <time>2025-07-21T14:31:07Z</time>
      </trkpt>
      <trkpt lat="42.80342" lon="0.46914">
        <ele>1413</ele>
        <time>2025-07-21T14:31:12Z</time>
      </trkpt>
      <trkpt lat="42.80348" lon="0.46919">
        <ele>1414</ele>
        <time>2025-07-21T14:31:15Z</time>
      </trkpt>
      <trkpt lat="42.80357" lon="0.46928">
        <ele>1415.2</ele>
        <time>2025-07-21T14:31:20Z</time>
      </trkpt>
      <trkpt lat="42.80358" lon="0.46929">
        <ele>1415.4</ele>
        <time>2025-07-21T14:31:21Z</time>
      </trkpt>
      <trkpt lat="42.80366" lon="0.46941">
        <ele>1416</ele>
        <time>2025-07-21T14:31:26Z</time>
      </trkpt>
      <trkpt lat="42.80368" lon="0.46946">
        <ele>1416.2</ele>
        <time>2025-07-21T14:31:28Z</time>
      </trkpt>
      <trkpt lat="42.80373" lon="0.46953">
        <ele>1417</ele>
        <time>2025-07-21T14:31:31Z</time>
      </trkpt>
      <trkpt lat="42.80383" lon="0.4696">
        <ele>1418</ele>
        <time>2025-07-21T14:31:36Z</time>
      </trkpt>
      <trkpt lat="42.80386" lon="0.4696">
        <ele>1418.2</ele>
        <time>2025-07-21T14:31:37Z</time>
      </trkpt>
      <trkpt lat="42.80388" lon="0.46959">
        <ele>1418.6</ele>
        <time>2025-07-21T14:31:38Z</time>
      </trkpt>
      <trkpt lat="42.80392" lon="0.46952">
        <ele>1419</ele>
        <time>2025-07-21T14:31:41Z</time>
      </trkpt>
      <trkpt lat="42.80393" lon="0.46949">
        <ele>1419.2</ele>
        <time>2025-07-21T14:31:42Z</time>
      </trkpt>
      <trkpt lat="42.80391" lon="0.46936">
        <ele>1420</ele>
        <time>2025-07-21T14:31:46Z</time>
      </trkpt>
      <trkpt lat="42.80389" lon="0.46933">
        <ele>1420.2</ele>
        <time>2025-07-21T14:31:47Z</time>
      </trkpt>
      <trkpt lat="42.80379" lon="0.46919">
        <ele>1421</ele>
        <time>2025-07-21T14:31:53Z</time>
      </trkpt>
      <trkpt lat="42.80377" lon="0.46917">
        <ele>1421.2</ele>
        <time>2025-07-21T14:31:54Z</time>
      </trkpt>
      <trkpt lat="42.80364" lon="0.46901">
        <ele>1422</ele>
        <time>2025-07-21T14:32:02Z</time>
      </trkpt>
      <trkpt lat="42.8036" lon="0.46896">
        <ele>1422.4</ele>
        <time>2025-07-21T14:32:04Z</time>
      </trkpt>
      <trkpt lat="42.8035" lon="0.46884">
        <ele>1423.2</ele>
        <time>2025-07-21T14:32:10Z</time>
      </trkpt>
      <trkpt lat="42.80343" lon="0.46876">
        <ele>1424.2</ele>
        <time>2025-07-21T14:32:14Z</time>
      </trkpt>
      <trkpt lat="42.80341" lon="0.46873">
        <ele>1424.2</ele>
        <time>2025-07-21T14:32:15Z</time>
      </trkpt>
      <trkpt lat="42.80332" lon="0.46863">
        <ele>1425.2</ele>
        <time>2025-07-21T14:32:20Z</time>
      </trkpt>
      <trkpt lat="42.80327" lon="0.46858">
        <ele>1425.8</ele>
        <time>2025-07-21T14:32:23Z</time>
      </trkpt>
      <trkpt lat="42.80322" lon="0.46852">
        <ele>1426.2</ele>
        <time>2025-07-21T14:32:26Z</time>
      </trkpt>
      <trkpt lat="42.80316" lon="0.46844">
        <ele>1427.2</ele>
        <time>2025-07-21T14:32:30Z</time>
      </trkpt>
      <trkpt lat="42.80313" lon="0.4684">
        <ele>1427.6</ele>
        <time>2025-07-21T14:32:32Z</time>
      </trkpt>
      <trkpt lat="42.80308" lon="0.46834">
        <ele>1428</ele>
        <time>2025-07-21T14:32:35Z</time>
      </trkpt>
      <trkpt lat="42.803" lon="0.46825">
        <ele>1429</ele>
        <time>2025-07-21T14:32:40Z</time>
      </trkpt>
      <trkpt lat="42.80299" lon="0.46823">
        <ele>1429.2</ele>
        <time>2025-07-21T14:32:41Z</time>
      </trkpt>
      <trkpt lat="42.80292" lon="0.46813">
        <ele>1430.2</ele>
        <time>2025-07-21T14:32:46Z</time>
      </trkpt>
      <trkpt lat="42.80289" lon="0.46809">
        <ele>1430.8</ele>
        <time>2025-07-21T14:32:48Z</time>
      </trkpt>
      <trkpt lat="42.80286" lon="0.46805">
        <ele>1431.2</ele>
        <time>2025-07-21T14:32:50Z</time>
      </trkpt>
      <trkpt lat="42.80279" lon="0.46792">
        <ele>1432.2</ele>
        <time>2025-07-21T14:32:56Z</time>
      </trkpt>
      <trkpt lat="42.80273" lon="0.46784">
        <ele>1433.2</ele>
        <time>2025-07-21T14:33:00Z</time>
      </trkpt>
      <trkpt lat="42.80265" lon="0.46773">
        <ele>1434.4</ele>
        <time>2025-07-21T14:33:05Z</time>
      </trkpt>
      <trkpt lat="42.80255" lon="0.46762">
        <ele>1435.6</ele>
        <time>2025-07-21T14:33:11Z</time>
      </trkpt>
      <trkpt lat="42.80253" lon="0.46761">
        <ele>1435.8</ele>
        <time>2025-07-21T14:33:12Z</time>
      </trkpt>
      <trkpt lat="42.80245" lon="0.46754">
        <ele>1436.6</ele>
        <time>2025-07-21T14:33:17Z</time>
      </trkpt>
      <trkpt lat="42.80239" lon="0.46749">
        <ele>1436.8</ele>
        <time>2025-07-21T14:33:20Z</time>
      </trkpt>
      <trkpt lat="42.80233" lon="0.46743">
        <ele>1437.6</ele>
        <time>2025-07-21T14:33:24Z</time>
      </trkpt>
      <trkpt lat="42.80224" lon="0.46735">
        <ele>1438.8</ele>
        <time>2025-07-21T14:33:29Z</time>
      </trkpt>
      <trkpt lat="42.80214" lon="0.46731">
        <ele>1439.6</ele>
        <time>2025-07-21T14:33:34Z</time>
      </trkpt>
      <trkpt lat="42.80205" lon="0.46729">
        <ele>1440.4</ele>
        <time>2025-07-21T14:33:38Z</time>
      </trkpt>
      <trkpt lat="42.80201" lon="0.46729">
        <ele>1440.8</ele>
        <time>2025-07-21T14:33:40Z</time>
      </trkpt>
      <trkpt lat="42.80189" lon="0.4673">
        <ele>1442</ele>
        <time>2025-07-21T14:33:45Z</time>
      </trkpt>
      <trkpt lat="42.80183" lon="0.4673">
        <ele>1442.6</ele>
        <time>2025-07-21T14:33:48Z</time>
      </trkpt>
      <trkpt lat="42.80174" lon="0.46729">
        <ele>1443</ele>
        <time>2025-07-21T14:33:52Z</time>
      </trkpt>
      <trkpt lat="42.80167" lon="0.46722">
        <ele>1443.6</ele>
        <time>2025-07-21T14:33:56Z</time>
      </trkpt>
      <trkpt lat="42.80166" lon="0.46716">
        <ele>1444.2</ele>
        <time>2025-07-21T14:33:58Z</time>
      </trkpt>
      <trkpt lat="42.80167" lon="0.46707">
        <ele>1444.6</ele>
        <time>2025-07-21T14:34:01Z</time>
      </trkpt>
      <trkpt lat="42.80173" lon="0.467">
        <ele>1445</ele>
        <time>2025-07-21T14:34:04Z</time>
      </trkpt>
      <trkpt lat="42.80177" lon="0.46699">
        <ele>1445.2</ele>
        <time>2025-07-21T14:34:06Z</time>
      </trkpt>
      <trkpt lat="42.80193" lon="0.467">
        <ele>1446</ele>
        <time>2025-07-21T14:34:12Z</time>
      </trkpt>
      <trkpt lat="42.80198" lon="0.46702">
        <ele>1446.4</ele>
        <time>2025-07-21T14:34:14Z</time>
      </trkpt>
      <trkpt lat="42.80211" lon="0.46705">
        <ele>1447.2</ele>
        <time>2025-07-21T14:34:19Z</time>
      </trkpt>
      <trkpt lat="42.80226" lon="0.4671">
        <ele>1448</ele>
        <time>2025-07-21T14:34:25Z</time>
      </trkpt>
      <trkpt lat="42.80229" lon="0.46711">
        <ele>1448.4</ele>
        <time>2025-07-21T14:34:26Z</time>
      </trkpt>
      <trkpt lat="42.80244" lon="0.46718">
        <ele>1449.6</ele>
        <time>2025-07-21T14:34:32Z</time>
      </trkpt>
      <trkpt lat="42.80249" lon="0.4672">
        <ele>1450</ele>
        <time>2025-07-21T14:34:34Z</time>
      </trkpt>
      <trkpt lat="42.80258" lon="0.46725">
        <ele>1450.6</ele>
        <time>2025-07-21T14:34:38Z</time>
      </trkpt>
      <trkpt lat="42.80264" lon="0.46728">
        <ele>1451.2</ele>
        <time>2025-07-21T14:34:41Z</time>
      </trkpt>
      <trkpt lat="42.80269" lon="0.46731">
        <ele>1451.8</ele>
        <time>2025-07-21T14:34:43Z</time>
      </trkpt>
      <trkpt lat="42.80278" lon="0.46738">
        <ele>1453</ele>
        <time>2025-07-21T14:34:48Z</time>
      </trkpt>
      <trkpt lat="42.80283" lon="0.46741">
        <ele>1453.4</ele>
        <time>2025-07-21T14:34:50Z</time>
      </trkpt>
      <trkpt lat="42.80294" lon="0.46748">
        <ele>1454.2</ele>
        <time>2025-07-21T14:34:55Z</time>
      </trkpt>
      <trkpt lat="42.80305" lon="0.46756">
        <ele>1455.2</ele>
        <time>2025-07-21T14:35:01Z</time>
      </trkpt>
      <trkpt lat="42.80307" lon="0.46757">
        <ele>1455.6</ele>
        <time>2025-07-21T14:35:02Z</time>
      </trkpt>
      <trkpt lat="42.80317" lon="0.46765">
        <ele>1456.6</ele>
        <time>2025-07-21T14:35:07Z</time>
      </trkpt>
      <trkpt lat="42.80326" lon="0.46771">
        <ele>1457.6</ele>
        <time>2025-07-21T14:35:12Z</time>
      </trkpt>
      <trkpt lat="42.80328" lon="0.46773">
        <ele>1457.6</ele>
        <time>2025-07-21T14:35:13Z</time>
      </trkpt>
      <trkpt lat="42.80338" lon="0.46781">
        <ele>1458.8</ele>
        <time>2025-07-21T14:35:18Z</time>
      </trkpt>
      <trkpt lat="42.80348" lon="0.46788">
        <ele>1459.6</ele>
        <time>2025-07-21T14:35:23Z</time>
      </trkpt>
      <trkpt lat="42.8035" lon="0.46789">
        <ele>1459.8</ele>
        <time>2025-07-21T14:35:24Z</time>
      </trkpt>
      <trkpt lat="42.8036" lon="0.46794">
        <ele>1460.8</ele>
        <time>2025-07-21T14:35:29Z</time>
      </trkpt>
      <trkpt lat="42.80364" lon="0.46797">
        <ele>1461.4</ele>
        <time>2025-07-21T14:35:31Z</time>
      </trkpt>
      <trkpt lat="42.8037" lon="0.46802">
        <ele>1462</ele>
        <time>2025-07-21T14:35:34Z</time>
      </trkpt>
      <trkpt lat="42.80378" lon="0.46808">
        <ele>1462.6</ele>
        <time>2025-07-21T14:35:38Z</time>
      </trkpt>
      <trkpt lat="42.8038" lon="0.4681">
        <ele>1463</ele>
        <time>2025-07-21T14:35:39Z</time>
      </trkpt>
      <trkpt lat="42.80395" lon="0.4682">
        <ele>1464</ele>
        <time>2025-07-21T14:35:46Z</time>
      </trkpt>
      <trkpt lat="42.80397" lon="0.46822">
        <ele>1464.2</ele>
        <time>2025-07-21T14:35:47Z</time>
      </trkpt>
      <trkpt lat="42.80404" lon="0.46827">
        <ele>1465.2</ele>
        <time>2025-07-21T14:35:51Z</time>
      </trkpt>
      <trkpt lat="42.80413" lon="0.46835">
        <ele>1466.2</ele>
        <time>2025-07-21T14:35:56Z</time>
      </trkpt>
      <trkpt lat="42.80415" lon="0.46836">
        <ele>1466.4</ele>
        <time>2025-07-21T14:35:57Z</time>
      </trkpt>
      <trkpt lat="42.80424" lon="0.46844">
        <ele>1467.4</ele>
        <time>2025-07-21T14:36:02Z</time>
      </trkpt>
      <trkpt lat="42.80428" lon="0.46847">
        <ele>1467.8</ele>
        <time>2025-07-21T14:36:04Z</time>
      </trkpt>
      <trkpt lat="42.80435" lon="0.46853">
        <ele>1468.6</ele>
        <time>2025-07-21T14:36:08Z</time>
      </trkpt>
      <trkpt lat="42.80447" lon="0.46865">
        <ele>1470</ele>
        <time>2025-07-21T14:36:15Z</time>
      </trkpt>
      <trkpt lat="42.80459" lon="0.4688">
        <ele>1471.4</ele>
        <time>2025-07-21T14:36:22Z</time>
      </trkpt>
      <trkpt lat="42.80461" lon="0.46882">
        <ele>1471.8</ele>
        <time>2025-07-21T14:36:23Z</time>
      </trkpt>
      <trkpt lat="42.80467" lon="0.46886">
        <ele>1472.4</ele>
        <time>2025-07-21T14:36:26Z</time>
      </trkpt>
      <trkpt lat="42.80472" lon="0.46886">
        <ele>1472.8</ele>
        <time>2025-07-21T14:36:28Z</time>
      </trkpt>
      <trkpt lat="42.80479" lon="0.46878">
        <ele>1473.4</ele>
        <time>2025-07-21T14:36:32Z</time>
      </trkpt>
      <trkpt lat="42.80478" lon="0.46864">
        <ele>1473.8</ele>
        <time>2025-07-21T14:36:36Z</time>
      </trkpt>
      <trkpt lat="42.80466" lon="0.46851">
        <ele>1474.8</ele>
        <time>2025-07-21T14:36:42Z</time>
      </trkpt>
      <trkpt lat="42.80453" lon="0.46839">
        <ele>1475.8</ele>
        <time>2025-07-21T14:36:49Z</time>
      </trkpt>
      <trkpt lat="42.80449" lon="0.46835">
        <ele>1476.2</ele>
        <time>2025-07-21T14:36:51Z</time>
      </trkpt>
      <trkpt lat="42.8044" lon="0.46826">
        <ele>1476.8</ele>
        <time>2025-07-21T14:36:56Z</time>
      </trkpt>
      <trkpt lat="42.80433" lon="0.46816">
        <ele>1477.8</ele>
        <time>2025-07-21T14:37:00Z</time>
      </trkpt>
      <trkpt lat="42.80423" lon="0.46803">
        <ele>1478.8</ele>
        <time>2025-07-21T14:37:06Z</time>
      </trkpt>
      <trkpt lat="42.8042" lon="0.46799">
        <ele>1479.4</ele>
        <time>2025-07-21T14:37:08Z</time>
      </trkpt>
      <trkpt lat="42.80415" lon="0.46792">
        <ele>1480</ele>
        <time>2025-07-21T14:37:11Z</time>
      </trkpt>
      <trkpt lat="42.80407" lon="0.46781">
        <ele>1481.2</ele>
        <time>2025-07-21T14:37:16Z</time>
      </trkpt>
      <trkpt lat="42.80405" lon="0.46779">
        <ele>1481.4</ele>
        <time>2025-07-21T14:37:17Z</time>
      </trkpt>
      <trkpt lat="42.80399" lon="0.46771">
        <ele>1482.4</ele>
        <time>2025-07-21T14:37:21Z</time>
      </trkpt>
      <trkpt lat="42.80391" lon="0.4676">
        <ele>1483.2</ele>
        <time>2025-07-21T14:37:26Z</time>
      </trkpt>
      <trkpt lat="42.8039" lon="0.46758">
        <ele>1483.6</ele>
        <time>2025-07-21T14:37:27Z</time>
      </trkpt>
      <trkpt lat="42.80381" lon="0.46746">
        <ele>1484.6</ele>
        <time>2025-07-21T14:37:33Z</time>
      </trkpt>
      <trkpt lat="42.80373" lon="0.46735">
        <ele>1485.4</ele>
        <time>2025-07-21T14:37:38Z</time>
      </trkpt>
      <trkpt lat="42.80371" lon="0.46731">
        <ele>1485.8</ele>
        <time>2025-07-21T14:37:40Z</time>
      </trkpt>
      <trkpt lat="42.80363" lon="0.46722">
        <ele>1487</ele>
        <time>2025-07-21T14:37:45Z</time>
      </trkpt>
      <trkpt lat="42.80356" lon="0.46711">
        <ele>1488</ele>
        <time>2025-07-21T14:37:50Z</time>
      </trkpt>
      <trkpt lat="42.80354" lon="0.46709">
        <ele>1488.2</ele>
        <time>2025-07-21T14:37:51Z</time>
      </trkpt>
      <trkpt lat="42.80345" lon="0.46696">
        <ele>1489.2</ele>
        <time>2025-07-21T14:37:57Z</time>
      </trkpt>
      <trkpt lat="42.80341" lon="0.46689">
        <ele>1489.6</ele>
        <time>2025-07-21T14:38:00Z</time>
      </trkpt>
      <trkpt lat="42.80338" lon="0.46685">
        <ele>1490.4</ele>
        <time>2025-07-21T14:38:02Z</time>
      </trkpt>
      <trkpt lat="42.80329" lon="0.46671">
        <ele>1491.6</ele>
        <time>2025-07-21T14:38:08Z</time>
      </trkpt>
      <trkpt lat="42.80325" lon="0.46665">
        <ele>1492.4</ele>
        <time>2025-07-21T14:38:11Z</time>
      </trkpt>
      <trkpt lat="42.80321" lon="0.46658">
        <ele>1492.6</ele>
        <time>2025-07-21T14:38:14Z</time>
      </trkpt>
      <trkpt lat="42.80312" lon="0.46643">
        <ele>1493.8</ele>
        <time>2025-07-21T14:38:20Z</time>
      </trkpt>
      <trkpt lat="42.8031" lon="0.46638">
        <ele>1494.2</ele>
        <time>2025-07-21T14:38:22Z</time>
      </trkpt>
      <trkpt lat="42.80305" lon="0.46627">
        <ele>1495</ele>
        <time>2025-07-21T14:38:26Z</time>
      </trkpt>
      <trkpt lat="42.803" lon="0.46612">
        <ele>1496.2</ele>
        <time>2025-07-21T14:38:31Z</time>
      </trkpt>
      <trkpt lat="42.80295" lon="0.46595">
        <ele>1497.2</ele>
        <time>2025-07-21T14:38:37Z</time>
      </trkpt>
      <trkpt lat="42.80294" lon="0.4659">
        <ele>1497.6</ele>
        <time>2025-07-21T14:38:39Z</time>
      </trkpt>
      <trkpt lat="42.80292" lon="0.46586">
        <ele>1497.6</ele>
        <time>2025-07-21T14:38:40Z</time>
      </trkpt>
      <trkpt lat="42.80291" lon="0.46582">
        <ele>1498.2</ele>
        <time>2025-07-21T14:38:42Z</time>
      </trkpt>
      <trkpt lat="42.80289" lon="0.46574">
        <ele>1499.4</ele>
        <time>2025-07-21T14:38:45Z</time>
      </trkpt>
      <trkpt lat="42.80288" lon="0.46568">
        <ele>1499.6</ele>
        <time>2025-07-21T14:38:47Z</time>
      </trkpt>
      <trkpt lat="42.80285" lon="0.4656">
        <ele>1500.4</ele>
        <time>2025-07-21T14:38:50Z</time>
      </trkpt>
      <trkpt lat="42.80281" lon="0.46546">
        <ele>1501.4</ele>
        <time>2025-07-21T14:38:55Z</time>
      </trkpt>
      <trkpt lat="42.80279" lon="0.4654">
        <ele>1501.6</ele>
        <time>2025-07-21T14:38:57Z</time>
      </trkpt>
      <trkpt lat="42.80277" lon="0.4653">
        <ele>1502.4</ele>
        <time>2025-07-21T14:39:00Z</time>
      </trkpt>
      <trkpt lat="42.80273" lon="0.46513">
        <ele>1503.4</ele>
        <time>2025-07-21T14:39:06Z</time>
      </trkpt>
      <trkpt lat="42.80272" lon="0.4651">
        <ele>1503.6</ele>
        <time>2025-07-21T14:39:07Z</time>
      </trkpt>
      <trkpt lat="42.80268" lon="0.46496">
        <ele>1504.8</ele>
        <time>2025-07-21T14:39:12Z</time>
      </trkpt>
      <trkpt lat="42.80266" lon="0.46485">
        <ele>1505.4</ele>
        <time>2025-07-21T14:39:16Z</time>
      </trkpt>
      <trkpt lat="42.80264" lon="0.46479">
        <ele>1505.6</ele>
        <time>2025-07-21T14:39:18Z</time>
      </trkpt>
      <trkpt lat="42.80261" lon="0.46465">
        <ele>1506.8</ele>
        <time>2025-07-21T14:39:23Z</time>
      </trkpt>
      <trkpt lat="42.8026" lon="0.46456">
        <ele>1507.6</ele>
        <time>2025-07-21T14:39:26Z</time>
      </trkpt>
      <trkpt lat="42.80259" lon="0.46454">
        <ele>1507.8</ele>
        <time>2025-07-21T14:39:27Z</time>
      </trkpt>
      <trkpt lat="42.80257" lon="0.46439">
        <ele>1508.4</ele>
        <time>2025-07-21T14:39:32Z</time>
      </trkpt>
      <trkpt lat="42.80256" lon="0.46436">
        <ele>1508.6</ele>
        <time>2025-07-21T14:39:33Z</time>
      </trkpt>
      <trkpt lat="42.80252" lon="0.46425">
        <ele>1509.8</ele>
        <time>2025-07-21T14:39:37Z</time>
      </trkpt>
      <trkpt lat="42.80249" lon="0.46415">
        <ele>1510.8</ele>
        <time>2025-07-21T14:39:41Z</time>
      </trkpt>
      <trkpt lat="42.80247" lon="0.46409">
        <ele>1511.4</ele>
        <time>2025-07-21T14:39:43Z</time>
      </trkpt>
      <trkpt lat="42.80244" lon="0.464">
        <ele>1511.8</ele>
        <time>2025-07-21T14:39:47Z</time>
      </trkpt>
      <trkpt lat="42.8024" lon="0.46386">
        <ele>1513</ele>
        <time>2025-07-21T14:39:52Z</time>
      </trkpt>
      <trkpt lat="42.80239" lon="0.46383">
        <ele>1513.2</ele>
        <time>2025-07-21T14:39:53Z</time>
      </trkpt>
      <trkpt lat="42.80237" lon="0.46374">
        <ele>1514</ele>
        <time>2025-07-21T14:39:56Z</time>
      </trkpt>
      <trkpt lat="42.80236" lon="0.46362">
        <ele>1514.8</ele>
        <time>2025-07-21T14:40:00Z</time>
      </trkpt>
      <trkpt lat="42.80236" lon="0.46359">
        <ele>1515</ele>
        <time>2025-07-21T14:40:01Z</time>
      </trkpt>
      <trkpt lat="42.80236" lon="0.4634">
        <ele>1515.8</ele>
        <time>2025-07-21T14:40:07Z</time>
      </trkpt>
      <trkpt lat="42.80235" lon="0.46328">
        <ele>1516.8</ele>
        <time>2025-07-21T14:40:11Z</time>
      </trkpt>
      <trkpt lat="42.80235" lon="0.46325">
        <ele>1517</ele>
        <time>2025-07-21T14:40:12Z</time>
      </trkpt>
      <trkpt lat="42.80235" lon="0.46313">
        <ele>1517.8</ele>
        <time>2025-07-21T14:40:16Z</time>
      </trkpt>
      <trkpt lat="42.80235" lon="0.46306">
        <ele>1518.2</ele>
        <time>2025-07-21T14:40:20Z</time>
      </trkpt>
      <trkpt lat="42.80235" lon="0.46306">
        <ele>1518.4</ele>
        <time>2025-07-21T14:40:21Z</time>
      </trkpt>
      <trkpt lat="42.80234" lon="0.46297">
        <ele>1518.2</ele>
        <time>2025-07-21T14:42:17Z</time>
      </trkpt>
      <trkpt lat="42.80233" lon="0.4629">
        <ele>1518.4</ele>
        <time>2025-07-21T14:42:19Z</time>
      </trkpt>
      <trkpt lat="42.80231" lon="0.46264">
        <ele>1518.8</ele>
        <time>2025-07-21T14:42:26Z</time>
      </trkpt>
      <trkpt lat="42.80229" lon="0.46248">
        <ele>1518.8</ele>
        <time>2025-07-21T14:42:31Z</time>
      </trkpt>
      <trkpt lat="42.80227" lon="0.46218">
        <ele>1518.4</ele>
        <time>2025-07-21T14:42:38Z</time>
      </trkpt>
      <trkpt lat="42.80227" lon="0.46195">
        <ele>1517.6</ele>
        <time>2025-07-21T14:42:45Z</time>
      </trkpt>
      <trkpt lat="42.80228" lon="0.46191">
        <ele>1516.8</ele>
        <time>2025-07-21T14:42:50Z</time>
      </trkpt>
      <trkpt lat="42.80228" lon="0.46191">
        <ele>1516.6</ele>
        <time>2025-07-21T14:42:51Z</time>
      </trkpt>
      <trkpt lat="42.80227" lon="0.46188">
        <ele>1515.6</ele>
        <time>2025-07-21T14:51:31Z</time>
      </trkpt>
      <trkpt lat="42.80225" lon="0.46179">
        <ele>1515.6</ele>
        <time>2025-07-21T14:51:34Z</time>
      </trkpt>
      <trkpt lat="42.80222" lon="0.46159">
        <ele>1515.8</ele>
        <time>2025-07-21T14:51:38Z</time>
      </trkpt>
      <trkpt lat="42.80219" lon="0.46134">
        <ele>1515.2</ele>
        <time>2025-07-21T14:51:44Z</time>
      </trkpt>
      <trkpt lat="42.80214" lon="0.46093">
        <ele>1514.2</ele>
        <time>2025-07-21T14:51:52Z</time>
      </trkpt>
      <trkpt lat="42.80213" lon="0.46088">
        <ele>1514.2</ele>
        <time>2025-07-21T14:51:53Z</time>
      </trkpt>
      <trkpt lat="42.8021" lon="0.46056">
        <ele>1513.6</ele>
        <time>2025-07-21T14:51:58Z</time>
      </trkpt>
      <trkpt lat="42.80206" lon="0.46027">
        <ele>1512.8</ele>
        <time>2025-07-21T14:52:03Z</time>
      </trkpt>
      <trkpt lat="42.80204" lon="0.46009">
        <ele>1512.2</ele>
        <time>2025-07-21T14:52:06Z</time>
      </trkpt>
      <trkpt lat="42.80201" lon="0.45986">
        <ele>1511.8</ele>
        <time>2025-07-21T14:52:09Z</time>
      </trkpt>
      <trkpt lat="42.80198" lon="0.45959">
        <ele>1510.6</ele>
        <time>2025-07-21T14:52:13Z</time>
      </trkpt>
      <trkpt lat="42.80196" lon="0.45941">
        <ele>1509.6</ele>
        <time>2025-07-21T14:52:16Z</time>
      </trkpt>
      <trkpt lat="42.80193" lon="0.45911">
        <ele>1508.2</ele>
        <time>2025-07-21T14:52:20Z</time>
      </trkpt>
      <trkpt lat="42.80193" lon="0.45904">
        <ele>1507.8</ele>
        <time>2025-07-21T14:52:21Z</time>
      </trkpt>
      <trkpt lat="42.80192" lon="0.4589">
        <ele>1506.6</ele>
        <time>2025-07-21T14:52:23Z</time>
      </trkpt>
      <trkpt lat="42.80191" lon="0.45875">
        <ele>1505.2</ele>
        <time>2025-07-21T14:52:25Z</time>
      </trkpt>
      <trkpt lat="42.80189" lon="0.4585">
        <ele>1504</ele>
        <time>2025-07-21T14:52:28Z</time>
      </trkpt>
      <trkpt lat="42.80189" lon="0.45842">
        <ele>1503.8</ele>
        <time>2025-07-21T14:52:29Z</time>
      </trkpt>
      <trkpt lat="42.80186" lon="0.45812">
        <ele>1502.4</ele>
        <time>2025-07-21T14:52:32Z</time>
      </trkpt>
      <trkpt lat="42.80185" lon="0.45795">
        <ele>1500.8</ele>
        <time>2025-07-21T14:52:34Z</time>
      </trkpt>
      <trkpt lat="42.80184" lon="0.45784">
        <ele>1500</ele>
        <time>2025-07-21T14:52:35Z</time>
      </trkpt>
      <trkpt lat="42.80182" lon="0.45771">
        <ele>1499.8</ele>
        <time>2025-07-21T14:52:36Z</time>
      </trkpt>
      <trkpt lat="42.8018" lon="0.4576">
        <ele>1498.6</ele>
        <time>2025-07-21T14:52:37Z</time>
      </trkpt>
      <trkpt lat="42.80177" lon="0.45739">
        <ele>1497.6</ele>
        <time>2025-07-21T14:52:39Z</time>
      </trkpt>
      <trkpt lat="42.80175" lon="0.45727">
        <ele>1496.8</ele>
        <time>2025-07-21T14:52:40Z</time>
      </trkpt>
      <trkpt lat="42.80176" lon="0.457">
        <ele>1495.6</ele>
        <time>2025-07-21T14:52:42Z</time>
      </trkpt>
      <trkpt lat="42.80179" lon="0.45676">
        <ele>1494.4</ele>
        <time>2025-07-21T14:52:44Z</time>
      </trkpt>
      <trkpt lat="42.80183" lon="0.45647">
        <ele>1493.2</ele>
        <time>2025-07-21T14:52:46Z</time>
      </trkpt>
      <trkpt lat="42.80185" lon="0.45633">
        <ele>1492.2</ele>
        <time>2025-07-21T14:52:47Z</time>
      </trkpt>
      <trkpt lat="42.80188" lon="0.45607">
        <ele>1490.4</ele>
        <time>2025-07-21T14:52:49Z</time>
      </trkpt>
      <trkpt lat="42.80189" lon="0.45589">
        <ele>1489.4</ele>
        <time>2025-07-21T14:52:50Z</time>
      </trkpt>
      <trkpt lat="42.80191" lon="0.45563">
        <ele>1487.8</ele>
        <time>2025-07-21T14:52:52Z</time>
      </trkpt>
      <trkpt lat="42.80193" lon="0.45535">
        <ele>1486</ele>
        <time>2025-07-21T14:52:54Z</time>
      </trkpt>
      <trkpt lat="42.80194" lon="0.45521">
        <ele>1484.4</ele>
        <time>2025-07-21T14:52:55Z</time>
      </trkpt>
      <trkpt lat="42.80196" lon="0.45507">
        <ele>1483.8</ele>
        <time>2025-07-21T14:52:56Z</time>
      </trkpt>
      <trkpt lat="42.80199" lon="0.45492">
        <ele>1482.4</ele>
        <time>2025-07-21T14:52:57Z</time>
      </trkpt>
      <trkpt lat="42.80205" lon="0.45462">
        <ele>1480.6</ele>
        <time>2025-07-21T14:52:59Z</time>
      </trkpt>
      <trkpt lat="42.80208" lon="0.45431">
        <ele>1479.4</ele>
        <time>2025-07-21T14:53:01Z</time>
      </trkpt>
      <trkpt lat="42.80208" lon="0.45412">
        <ele>1478.2</ele>
        <time>2025-07-21T14:53:02Z</time>
      </trkpt>
      <trkpt lat="42.80208" lon="0.4538">
        <ele>1476.4</ele>
        <time>2025-07-21T14:53:04Z</time>
      </trkpt>
      <trkpt lat="42.8021" lon="0.45348">
        <ele>1474.2</ele>
        <time>2025-07-21T14:53:06Z</time>
      </trkpt>
      <trkpt lat="42.80213" lon="0.45333">
        <ele>1472.6</ele>
        <time>2025-07-21T14:53:07Z</time>
      </trkpt>
      <trkpt lat="42.80217" lon="0.45319">
        <ele>1472.2</ele>
        <time>2025-07-21T14:53:08Z</time>
      </trkpt>
      <trkpt lat="42.80223" lon="0.45306">
        <ele>1471.2</ele>
        <time>2025-07-21T14:53:09Z</time>
      </trkpt>
      <trkpt lat="42.80233" lon="0.45281">
        <ele>1468.8</ele>
        <time>2025-07-21T14:53:11Z</time>
      </trkpt>
      <trkpt lat="42.80238" lon="0.45252">
        <ele>1466.8</ele>
        <time>2025-07-21T14:53:13Z</time>
      </trkpt>
      <trkpt lat="42.80238" lon="0.45237">
        <ele>1465.6</ele>
        <time>2025-07-21T14:53:14Z</time>
      </trkpt>
      <trkpt lat="42.80237" lon="0.45206">
        <ele>1463</ele>
        <time>2025-07-21T14:53:16Z</time>
      </trkpt>
      <trkpt lat="42.80237" lon="0.4519">
        <ele>1462.2</ele>
        <time>2025-07-21T14:53:17Z</time>
      </trkpt>
      <trkpt lat="42.80237" lon="0.45174">
        <ele>1461</ele>
        <time>2025-07-21T14:53:18Z</time>
      </trkpt>
      <trkpt lat="42.80236" lon="0.45141">
        <ele>1459.6</ele>
        <time>2025-07-21T14:53:20Z</time>
      </trkpt>
      <trkpt lat="42.80234" lon="0.45125">
        <ele>1458.2</ele>
        <time>2025-07-21T14:53:21Z</time>
      </trkpt>
      <trkpt lat="42.80232" lon="0.45109">
        <ele>1457.8</ele>
        <time>2025-07-21T14:53:22Z</time>
      </trkpt>
      <trkpt lat="42.80229" lon="0.45093">
        <ele>1456</ele>
        <time>2025-07-21T14:53:23Z</time>
      </trkpt>
      <trkpt lat="42.80224" lon="0.45065">
        <ele>1453.6</ele>
        <time>2025-07-21T14:53:25Z</time>
      </trkpt>
      <trkpt lat="42.80221" lon="0.45046">
        <ele>1452.2</ele>
        <time>2025-07-21T14:53:26Z</time>
      </trkpt>
      <trkpt lat="42.80213" lon="0.45019">
        <ele>1450</ele>
        <time>2025-07-21T14:53:28Z</time>
      </trkpt>
      <trkpt lat="42.80203" lon="0.4499">
        <ele>1447.8</ele>
        <time>2025-07-21T14:53:30Z</time>
      </trkpt>
      <trkpt lat="42.80198" lon="0.44975">
        <ele>1446.6</ele>
        <time>2025-07-21T14:53:31Z</time>
      </trkpt>
      <trkpt lat="42.80191" lon="0.44946">
        <ele>1444.8</ele>
        <time>2025-07-21T14:53:33Z</time>
      </trkpt>
      <trkpt lat="42.80188" lon="0.4493">
        <ele>1444</ele>
        <time>2025-07-21T14:53:34Z</time>
      </trkpt>
      <trkpt lat="42.80186" lon="0.44915">
        <ele>1442.4</ele>
        <time>2025-07-21T14:53:35Z</time>
      </trkpt>
      <trkpt lat="42.80185" lon="0.44897">
        <ele>1441.4</ele>
        <time>2025-07-21T14:53:36Z</time>
      </trkpt>
      <trkpt lat="42.80185" lon="0.44884">
        <ele>1440.8</ele>
        <time>2025-07-21T14:53:37Z</time>
      </trkpt>
      <trkpt lat="42.80186" lon="0.44868">
        <ele>1439.6</ele>
        <time>2025-07-21T14:53:38Z</time>
      </trkpt>
      <trkpt lat="42.80188" lon="0.44837">
        <ele>1437.4</ele>
        <time>2025-07-21T14:53:40Z</time>
      </trkpt>
      <trkpt lat="42.8019" lon="0.44805">
        <ele>1435.8</ele>
        <time>2025-07-21T14:53:42Z</time>
      </trkpt>
      <trkpt lat="42.80192" lon="0.44788">
        <ele>1434.8</ele>
        <time>2025-07-21T14:53:43Z</time>
      </trkpt>
      <trkpt lat="42.80193" lon="0.44772">
        <ele>1434.2</ele>
        <time>2025-07-21T14:53:44Z</time>
      </trkpt>
      <trkpt lat="42.80194" lon="0.44756">
        <ele>1433.2</ele>
        <time>2025-07-21T14:53:45Z</time>
      </trkpt>
      <trkpt lat="42.80197" lon="0.44724">
        <ele>1430.4</ele>
        <time>2025-07-21T14:53:47Z</time>
      </trkpt>
      <trkpt lat="42.80198" lon="0.44704">
        <ele>1429</ele>
        <time>2025-07-21T14:53:48Z</time>
      </trkpt>
      <trkpt lat="42.80199" lon="0.44673">
        <ele>1426.8</ele>
        <time>2025-07-21T14:53:50Z</time>
      </trkpt>
      <trkpt lat="42.80201" lon="0.4464">
        <ele>1424.6</ele>
        <time>2025-07-21T14:53:52Z</time>
      </trkpt>
      <trkpt lat="42.80202" lon="0.44606">
        <ele>1422.6</ele>
        <time>2025-07-21T14:53:54Z</time>
      </trkpt>
      <trkpt lat="42.80203" lon="0.4459">
        <ele>1421</ele>
        <time>2025-07-21T14:53:55Z</time>
      </trkpt>
      <trkpt lat="42.80205" lon="0.44558">
        <ele>1419.2</ele>
        <time>2025-07-21T14:53:57Z</time>
      </trkpt>
      <trkpt lat="42.80207" lon="0.44526">
        <ele>1416.8</ele>
        <time>2025-07-21T14:53:59Z</time>
      </trkpt>
      <trkpt lat="42.80207" lon="0.4451">
        <ele>1415</ele>
        <time>2025-07-21T14:54:00Z</time>
      </trkpt>
      <trkpt lat="42.80207" lon="0.44479">
        <ele>1413.2</ele>
        <time>2025-07-21T14:54:02Z</time>
      </trkpt>
      <trkpt lat="42.8021" lon="0.44451">
        <ele>1411.2</ele>
        <time>2025-07-21T14:54:04Z</time>
      </trkpt>
      <trkpt lat="42.80213" lon="0.44438">
        <ele>1410.6</ele>
        <time>2025-07-21T14:54:05Z</time>
      </trkpt>
      <trkpt lat="42.80214" lon="0.44424">
        <ele>1409.2</ele>
        <time>2025-07-21T14:54:06Z</time>
      </trkpt>
      <trkpt lat="42.80214" lon="0.4441">
        <ele>1407.2</ele>
        <time>2025-07-21T14:54:07Z</time>
      </trkpt>
      <trkpt lat="42.80211" lon="0.44397">
        <ele>1406.4</ele>
        <time>2025-07-21T14:54:08Z</time>
      </trkpt>
      <trkpt lat="42.80207" lon="0.44384">
        <ele>1405</ele>
        <time>2025-07-21T14:54:09Z</time>
      </trkpt>
      <trkpt lat="42.802" lon="0.44369">
        <ele>1404.4</ele>
        <time>2025-07-21T14:54:10Z</time>
      </trkpt>
      <trkpt lat="42.80195" lon="0.44359">
        <ele>1403.2</ele>
        <time>2025-07-21T14:54:11Z</time>
      </trkpt>
      <trkpt lat="42.80188" lon="0.44348">
        <ele>1402.2</ele>
        <time>2025-07-21T14:54:12Z</time>
      </trkpt>
      <trkpt lat="42.80175" lon="0.44324">
        <ele>1400</ele>
        <time>2025-07-21T14:54:14Z</time>
      </trkpt>
      <trkpt lat="42.8017" lon="0.44311">
        <ele>1399.4</ele>
        <time>2025-07-21T14:54:15Z</time>
      </trkpt>
      <trkpt lat="42.80166" lon="0.44297">
        <ele>1398.2</ele>
        <time>2025-07-21T14:54:16Z</time>
      </trkpt>
      <trkpt lat="42.80162" lon="0.44283">
        <ele>1397</ele>
        <time>2025-07-21T14:54:17Z</time>
      </trkpt>
      <trkpt lat="42.80156" lon="0.44252">
        <ele>1395.4</ele>
        <time>2025-07-21T14:54:19Z</time>
      </trkpt>
      <trkpt lat="42.80152" lon="0.44221">
        <ele>1393</ele>
        <time>2025-07-21T14:54:21Z</time>
      </trkpt>
      <trkpt lat="42.80146" lon="0.44189">
        <ele>1391.2</ele>
        <time>2025-07-21T14:54:23Z</time>
      </trkpt>
      <trkpt lat="42.80141" lon="0.44172">
        <ele>1389.6</ele>
        <time>2025-07-21T14:54:24Z</time>
      </trkpt>
      <trkpt lat="42.80129" lon="0.44149">
        <ele>1388</ele>
        <time>2025-07-21T14:54:26Z</time>
      </trkpt>
      <trkpt lat="42.80122" lon="0.44137">
        <ele>1387.6</ele>
        <time>2025-07-21T14:54:27Z</time>
      </trkpt>
      <trkpt lat="42.80118" lon="0.44124">
        <ele>1386.6</ele>
        <time>2025-07-21T14:54:28Z</time>
      </trkpt>
      <trkpt lat="42.80114" lon="0.4411">
        <ele>1385.4</ele>
        <time>2025-07-21T14:54:29Z</time>
      </trkpt>
      <trkpt lat="42.80112" lon="0.44081">
        <ele>1383.8</ele>
        <time>2025-07-21T14:54:31Z</time>
      </trkpt>
      <trkpt lat="42.80111" lon="0.44051">
        <ele>1382.2</ele>
        <time>2025-07-21T14:54:33Z</time>
      </trkpt>
      <trkpt lat="42.8011" lon="0.4402">
        <ele>1380.4</ele>
        <time>2025-07-21T14:54:35Z</time>
      </trkpt>
      <trkpt lat="42.80108" lon="0.44005">
        <ele>1379.6</ele>
        <time>2025-07-21T14:54:36Z</time>
      </trkpt>
      <trkpt lat="42.80106" lon="0.43991">
        <ele>1379</ele>
        <time>2025-07-21T14:54:37Z</time>
      </trkpt>
      <trkpt lat="42.80104" lon="0.43976">
        <ele>1377.8</ele>
        <time>2025-07-21T14:54:38Z</time>
      </trkpt>
      <trkpt lat="42.80099" lon="0.43946">
        <ele>1376</ele>
        <time>2025-07-21T14:54:40Z</time>
      </trkpt>
      <trkpt lat="42.80098" lon="0.4393">
        <ele>1374.8</ele>
        <time>2025-07-21T14:54:41Z</time>
      </trkpt>
      <trkpt lat="42.80096" lon="0.43899">
        <ele>1373.8</ele>
        <time>2025-07-21T14:54:43Z</time>
      </trkpt>
      <trkpt lat="42.80094" lon="0.43868">
        <ele>1372.4</ele>
        <time>2025-07-21T14:54:45Z</time>
      </trkpt>
      <trkpt lat="42.80093" lon="0.43836">
        <ele>1370.8</ele>
        <time>2025-07-21T14:54:47Z</time>
      </trkpt>
      <trkpt lat="42.80094" lon="0.4382">
        <ele>1369.6</ele>
        <time>2025-07-21T14:54:48Z</time>
      </trkpt>
      <trkpt lat="42.80094" lon="0.43788">
        <ele>1368</ele>
        <time>2025-07-21T14:54:50Z</time>
      </trkpt>
      <trkpt lat="42.80094" lon="0.43755">
        <ele>1366.4</ele>
        <time>2025-07-21T14:54:52Z</time>
      </trkpt>
      <trkpt lat="42.80093" lon="0.43739">
        <ele>1365.2</ele>
        <time>2025-07-21T14:54:53Z</time>
      </trkpt>
      <trkpt lat="42.80092" lon="0.43706">
        <ele>1363.8</ele>
        <time>2025-07-21T14:54:55Z</time>
      </trkpt>
      <trkpt lat="42.80091" lon="0.43674">
        <ele>1361.8</ele>
        <time>2025-07-21T14:54:57Z</time>
      </trkpt>
      <trkpt lat="42.80091" lon="0.43641">
        <ele>1360.6</ele>
        <time>2025-07-21T14:54:59Z</time>
      </trkpt>
      <trkpt lat="42.80093" lon="0.43624">
        <ele>1359.4</ele>
        <time>2025-07-21T14:55:00Z</time>
      </trkpt>
      <trkpt lat="42.80096" lon="0.43608">
        <ele>1358.8</ele>
        <time>2025-07-21T14:55:01Z</time>
      </trkpt>
      <trkpt lat="42.80099" lon="0.43592">
        <ele>1357.8</ele>
        <time>2025-07-21T14:55:02Z</time>
      </trkpt>
      <trkpt lat="42.80105" lon="0.4356">
        <ele>1355.8</ele>
        <time>2025-07-21T14:55:04Z</time>
      </trkpt>
      <trkpt lat="42.80111" lon="0.43528">
        <ele>1354.4</ele>
        <time>2025-07-21T14:55:06Z</time>
      </trkpt>
      <trkpt lat="42.80114" lon="0.43511">
        <ele>1353</ele>
        <time>2025-07-21T14:55:07Z</time>
      </trkpt>
      <trkpt lat="42.80117" lon="0.43477">
        <ele>1351</ele>
        <time>2025-07-21T14:55:09Z</time>
      </trkpt>
      <trkpt lat="42.80121" lon="0.43443">
        <ele>1349.6</ele>
        <time>2025-07-21T14:55:11Z</time>
      </trkpt>
      <trkpt lat="42.80123" lon="0.43426">
        <ele>1348.2</ele>
        <time>2025-07-21T14:55:12Z</time>
      </trkpt>
      <trkpt lat="42.80129" lon="0.43393">
        <ele>1346.8</ele>
        <time>2025-07-21T14:55:14Z</time>
      </trkpt>
      <trkpt lat="42.80135" lon="0.43359">
        <ele>1345</ele>
        <time>2025-07-21T14:55:16Z</time>
      </trkpt>
      <trkpt lat="42.80138" lon="0.43342">
        <ele>1344.2</ele>
        <time>2025-07-21T14:55:17Z</time>
      </trkpt>
      <trkpt lat="42.80139" lon="0.43326">
        <ele>1343.6</ele>
        <time>2025-07-21T14:55:18Z</time>
      </trkpt>
      <trkpt lat="42.80141" lon="0.43309">
        <ele>1342.4</ele>
        <time>2025-07-21T14:55:19Z</time>
      </trkpt>
      <trkpt lat="42.80142" lon="0.43276">
        <ele>1340.2</ele>
        <time>2025-07-21T14:55:21Z</time>
      </trkpt>
      <trkpt lat="42.80142" lon="0.43259">
        <ele>1339</ele>
        <time>2025-07-21T14:55:22Z</time>
      </trkpt>
      <trkpt lat="42.80142" lon="0.43242">
        <ele>1338.4</ele>
        <time>2025-07-21T14:55:23Z</time>
      </trkpt>
      <trkpt lat="42.80142" lon="0.43225">
        <ele>1337.2</ele>
        <time>2025-07-21T14:55:24Z</time>
      </trkpt>
      <trkpt lat="42.80144" lon="0.43191">
        <ele>1335.8</ele>
        <time>2025-07-21T14:55:26Z</time>
      </trkpt>
      <trkpt lat="42.80148" lon="0.43158">
        <ele>1334.2</ele>
        <time>2025-07-21T14:55:28Z</time>
      </trkpt>
      <trkpt lat="42.80151" lon="0.43141">
        <ele>1332.6</ele>
        <time>2025-07-21T14:55:29Z</time>
      </trkpt>
      <trkpt lat="42.8016" lon="0.4311">
        <ele>1331.4</ele>
        <time>2025-07-21T14:55:31Z</time>
      </trkpt>
      <trkpt lat="42.80166" lon="0.43092">
        <ele>1330.8</ele>
        <time>2025-07-21T14:55:32Z</time>
      </trkpt>
      <trkpt lat="42.80171" lon="0.43078">
        <ele>1329.4</ele>
        <time>2025-07-21T14:55:33Z</time>
      </trkpt>
      <trkpt lat="42.80175" lon="0.43063">
        <ele>1328.2</ele>
        <time>2025-07-21T14:55:34Z</time>
      </trkpt>
      <trkpt lat="42.80182" lon="0.43032">
        <ele>1326.4</ele>
        <time>2025-07-21T14:55:36Z</time>
      </trkpt>
      <trkpt lat="42.80184" lon="0.43017">
        <ele>1325.8</ele>
        <time>2025-07-21T14:55:37Z</time>
      </trkpt>
      <trkpt lat="42.80184" lon="0.43002">
        <ele>1325</ele>
        <time>2025-07-21T14:55:38Z</time>
      </trkpt>
      <trkpt lat="42.80183" lon="0.42971">
        <ele>1323.6</ele>
        <time>2025-07-21T14:55:40Z</time>
      </trkpt>
      <trkpt lat="42.80182" lon="0.42927">
        <ele>1322.2</ele>
        <time>2025-07-21T14:55:43Z</time>
      </trkpt>
      <trkpt lat="42.80184" lon="0.42912">
        <ele>1321.8</ele>
        <time>2025-07-21T14:55:44Z</time>
      </trkpt>
      <trkpt lat="42.80188" lon="0.42883">
        <ele>1320.8</ele>
        <time>2025-07-21T14:55:46Z</time>
      </trkpt>
      <trkpt lat="42.80196" lon="0.42839">
        <ele>1319.8</ele>
        <time>2025-07-21T14:55:49Z</time>
      </trkpt>
      <trkpt lat="42.802" lon="0.42825">
        <ele>1319.2</ele>
        <time>2025-07-21T14:55:50Z</time>
      </trkpt>
      <trkpt lat="42.80212" lon="0.42781">
        <ele>1317.4</ele>
        <time>2025-07-21T14:55:53Z</time>
      </trkpt>
      <trkpt lat="42.80214" lon="0.42766">
        <ele>1316.8</ele>
        <time>2025-07-21T14:55:54Z</time>
      </trkpt>
      <trkpt lat="42.80216" lon="0.42751">
        <ele>1316.2</ele>
        <time>2025-07-21T14:55:55Z</time>
      </trkpt>
      <trkpt lat="42.80219" lon="0.4272">
        <ele>1314.8</ele>
        <time>2025-07-21T14:55:57Z</time>
      </trkpt>
      <trkpt lat="42.80221" lon="0.42704">
        <ele>1313.8</ele>
        <time>2025-07-21T14:55:58Z</time>
      </trkpt>
      <trkpt lat="42.80225" lon="0.42689">
        <ele>1313</ele>
        <time>2025-07-21T14:55:59Z</time>
      </trkpt>
      <trkpt lat="42.8023" lon="0.42673">
        <ele>1311.6</ele>
        <time>2025-07-21T14:56:00Z</time>
      </trkpt>
      <trkpt lat="42.8024" lon="0.42643">
        <ele>1310.2</ele>
        <time>2025-07-21T14:56:02Z</time>
      </trkpt>
      <trkpt lat="42.80245" lon="0.42628">
        <ele>1308.6</ele>
        <time>2025-07-21T14:56:03Z</time>
      </trkpt>
      <trkpt lat="42.80253" lon="0.426">
        <ele>1306.6</ele>
        <time>2025-07-21T14:56:05Z</time>
      </trkpt>
      <trkpt lat="42.8026" lon="0.42572">
        <ele>1304.4</ele>
        <time>2025-07-21T14:56:07Z</time>
      </trkpt>
      <trkpt lat="42.80265" lon="0.42559">
        <ele>1303.6</ele>
        <time>2025-07-21T14:56:08Z</time>
      </trkpt>
      <trkpt lat="42.80272" lon="0.42549">
        <ele>1302.2</ele>
        <time>2025-07-21T14:56:09Z</time>
      </trkpt>
      <trkpt lat="42.80279" lon="0.42541">
        <ele>1300.6</ele>
        <time>2025-07-21T14:56:10Z</time>
      </trkpt>
      <trkpt lat="42.80288" lon="0.42534">
        <ele>1300</ele>
        <time>2025-07-21T14:56:11Z</time>
      </trkpt>
      <trkpt lat="42.80298" lon="0.42526">
        <ele>1298.6</ele>
        <time>2025-07-21T14:56:12Z</time>
      </trkpt>
      <trkpt lat="42.80315" lon="0.42513">
        <ele>1296.6</ele>
        <time>2025-07-21T14:56:14Z</time>
      </trkpt>
      <trkpt lat="42.80325" lon="0.42505">
        <ele>1295.2</ele>
        <time>2025-07-21T14:56:15Z</time>
      </trkpt>
      <trkpt lat="42.80346" lon="0.4249">
        <ele>1292.6</ele>
        <time>2025-07-21T14:56:17Z</time>
      </trkpt>
      <trkpt lat="42.8037" lon="0.42476">
        <ele>1290.8</ele>
        <time>2025-07-21T14:56:19Z</time>
      </trkpt>
      <trkpt lat="42.80381" lon="0.4247">
        <ele>1289.6</ele>
        <time>2025-07-21T14:56:20Z</time>
      </trkpt>
      <trkpt lat="42.80401" lon="0.42463">
        <ele>1287.8</ele>
        <time>2025-07-21T14:56:22Z</time>
      </trkpt>
      <trkpt lat="42.80426" lon="0.42459">
        <ele>1285.8</ele>
        <time>2025-07-21T14:56:24Z</time>
      </trkpt>
      <trkpt lat="42.80438" lon="0.42459">
        <ele>1285.4</ele>
        <time>2025-07-21T14:56:25Z</time>
      </trkpt>
      <trkpt lat="42.80451" lon="0.4246">
        <ele>1283.8</ele>
        <time>2025-07-21T14:56:26Z</time>
      </trkpt>
      <trkpt lat="42.80463" lon="0.42462">
        <ele>1282.4</ele>
        <time>2025-07-21T14:56:27Z</time>
      </trkpt>
      <trkpt lat="42.80488" lon="0.42465">
        <ele>1280.6</ele>
        <time>2025-07-21T14:56:29Z</time>
      </trkpt>
      <trkpt lat="42.805" lon="0.42466">
        <ele>1280.2</ele>
        <time>2025-07-21T14:56:30Z</time>
      </trkpt>
      <trkpt lat="42.8051" lon="0.42467">
        <ele>1279</ele>
        <time>2025-07-21T14:56:31Z</time>
      </trkpt>
      <trkpt lat="42.80523" lon="0.42468">
        <ele>1277.4</ele>
        <time>2025-07-21T14:56:32Z</time>
      </trkpt>
      <trkpt lat="42.8055" lon="0.4247">
        <ele>1275.8</ele>
        <time>2025-07-21T14:56:34Z</time>
      </trkpt>
      <trkpt lat="42.8056" lon="0.4247">
        <ele>1274.6</ele>
        <time>2025-07-21T14:56:35Z</time>
      </trkpt>
      <trkpt lat="42.80572" lon="0.42471">
        <ele>1273.2</ele>
        <time>2025-07-21T14:56:36Z</time>
      </trkpt>
      <trkpt lat="42.80596" lon="0.42474">
        <ele>1271</ele>
        <time>2025-07-21T14:56:38Z</time>
      </trkpt>
      <trkpt lat="42.80609" lon="0.42475">
        <ele>1269.8</ele>
        <time>2025-07-21T14:56:39Z</time>
      </trkpt>
      <trkpt lat="42.80633" lon="0.42479">
        <ele>1267.2</ele>
        <time>2025-07-21T14:56:41Z</time>
      </trkpt>
      <trkpt lat="42.80657" lon="0.42482">
        <ele>1265.2</ele>
        <time>2025-07-21T14:56:43Z</time>
      </trkpt>
      <trkpt lat="42.80669" lon="0.42484">
        <ele>1264</ele>
        <time>2025-07-21T14:56:44Z</time>
      </trkpt>
      <trkpt lat="42.80693" lon="0.42488">
        <ele>1262</ele>
        <time>2025-07-21T14:56:46Z</time>
      </trkpt>
      <trkpt lat="42.80717" lon="0.42495">
        <ele>1260</ele>
        <time>2025-07-21T14:56:48Z</time>
      </trkpt>
      <trkpt lat="42.80731" lon="0.425">
        <ele>1258.2</ele>
        <time>2025-07-21T14:56:49Z</time>
      </trkpt>
      <trkpt lat="42.80753" lon="0.42507">
        <ele>1256.2</ele>
        <time>2025-07-21T14:56:51Z</time>
      </trkpt>
      <trkpt lat="42.80777" lon="0.42516">
        <ele>1254.2</ele>
        <time>2025-07-21T14:56:53Z</time>
      </trkpt>
      <trkpt lat="42.808" lon="0.42525">
        <ele>1252.2</ele>
        <time>2025-07-21T14:56:55Z</time>
      </trkpt>
      <trkpt lat="42.80811" lon="0.42529">
        <ele>1251</ele>
        <time>2025-07-21T14:56:56Z</time>
      </trkpt>
      <trkpt lat="42.80834" lon="0.42539">
        <ele>1249</ele>
        <time>2025-07-21T14:56:58Z</time>
      </trkpt>
      <trkpt lat="42.80857" lon="0.4255">
        <ele>1246.6</ele>
        <time>2025-07-21T14:57:00Z</time>
      </trkpt>
      <trkpt lat="42.80867" lon="0.42557">
        <ele>1245.2</ele>
        <time>2025-07-21T14:57:01Z</time>
      </trkpt>
      <trkpt lat="42.80877" lon="0.42565">
        <ele>1244.2</ele>
        <time>2025-07-21T14:57:02Z</time>
      </trkpt>
      <trkpt lat="42.80888" lon="0.42577">
        <ele>1242.8</ele>
        <time>2025-07-21T14:57:03Z</time>
      </trkpt>
      <trkpt lat="42.80903" lon="0.42598">
        <ele>1241.2</ele>
        <time>2025-07-21T14:57:05Z</time>
      </trkpt>
      <trkpt lat="42.80911" lon="0.4261">
        <ele>1240</ele>
        <time>2025-07-21T14:57:06Z</time>
      </trkpt>
      <trkpt lat="42.80926" lon="0.42633">
        <ele>1237.8</ele>
        <time>2025-07-21T14:57:08Z</time>
      </trkpt>
      <trkpt lat="42.80937" lon="0.42644">
        <ele>1237.2</ele>
        <time>2025-07-21T14:57:09Z</time>
      </trkpt>
      <trkpt lat="42.80947" lon="0.42651">
        <ele>1235.8</ele>
        <time>2025-07-21T14:57:10Z</time>
      </trkpt>
      <trkpt lat="42.80966" lon="0.42663">
        <ele>1233.8</ele>
        <time>2025-07-21T14:57:12Z</time>
      </trkpt>
      <trkpt lat="42.80977" lon="0.4267">
        <ele>1232.4</ele>
        <time>2025-07-21T14:57:13Z</time>
      </trkpt>
      <trkpt lat="42.80998" lon="0.42686">
        <ele>1230.4</ele>
        <time>2025-07-21T14:57:15Z</time>
      </trkpt>
      <trkpt lat="42.81019" lon="0.42704">
        <ele>1228.6</ele>
        <time>2025-07-21T14:57:17Z</time>
      </trkpt>
      <trkpt lat="42.8103" lon="0.42712">
        <ele>1227.4</ele>
        <time>2025-07-21T14:57:18Z</time>
      </trkpt>
      <trkpt lat="42.81042" lon="0.42719">
        <ele>1226.6</ele>
        <time>2025-07-21T14:57:19Z</time>
      </trkpt>
      <trkpt lat="42.81054" lon="0.42725">
        <ele>1225</ele>
        <time>2025-07-21T14:57:20Z</time>
      </trkpt>
      <trkpt lat="42.81079" lon="0.42734">
        <ele>1223</ele>
        <time>2025-07-21T14:57:22Z</time>
      </trkpt>
      <trkpt lat="42.81104" lon="0.42746">
        <ele>1220.8</ele>
        <time>2025-07-21T14:57:24Z</time>
      </trkpt>
      <trkpt lat="42.81116" lon="0.42754">
        <ele>1219.4</ele>
        <time>2025-07-21T14:57:25Z</time>
      </trkpt>
      <trkpt lat="42.8114" lon="0.42772">
        <ele>1217</ele>
        <time>2025-07-21T14:57:27Z</time>
      </trkpt>
      <trkpt lat="42.81163" lon="0.4279">
        <ele>1215</ele>
        <time>2025-07-21T14:57:29Z</time>
      </trkpt>
      <trkpt lat="42.81175" lon="0.42799">
        <ele>1213.4</ele>
        <time>2025-07-21T14:57:30Z</time>
      </trkpt>
      <trkpt lat="42.812" lon="0.42813">
        <ele>1211</ele>
        <time>2025-07-21T14:57:32Z</time>
      </trkpt>
      <trkpt lat="42.81212" lon="0.42819">
        <ele>1210</ele>
        <time>2025-07-21T14:57:33Z</time>
      </trkpt>
      <trkpt lat="42.81225" lon="0.42825">
        <ele>1208.4</ele>
        <time>2025-07-21T14:57:34Z</time>
      </trkpt>
      <trkpt lat="42.81237" lon="0.42831">
        <ele>1207</ele>
        <time>2025-07-21T14:57:35Z</time>
      </trkpt>
      <trkpt lat="42.8126" lon="0.4284">
        <ele>1205</ele>
        <time>2025-07-21T14:57:37Z</time>
      </trkpt>
      <trkpt lat="42.81281" lon="0.42844">
        <ele>1202.8</ele>
        <time>2025-07-21T14:57:39Z</time>
      </trkpt>
      <trkpt lat="42.81299" lon="0.42845">
        <ele>1200.4</ele>
        <time>2025-07-21T14:57:41Z</time>
      </trkpt>
      <trkpt lat="42.81306" lon="0.42842">
        <ele>1199</ele>
        <time>2025-07-21T14:57:42Z</time>
      </trkpt>
      <trkpt lat="42.81312" lon="0.42837">
        <ele>1198.4</ele>
        <time>2025-07-21T14:57:43Z</time>
      </trkpt>
      <trkpt lat="42.81316" lon="0.42829">
        <ele>1197.2</ele>
        <time>2025-07-21T14:57:44Z</time>
      </trkpt>
      <trkpt lat="42.81318" lon="0.4282">
        <ele>1196.4</ele>
        <time>2025-07-21T14:57:45Z</time>
      </trkpt>
      <trkpt lat="42.81316" lon="0.4281">
        <ele>1195.4</ele>
        <time>2025-07-21T14:57:46Z</time>
      </trkpt>
      <trkpt lat="42.81312" lon="0.42801">
        <ele>1194.6</ele>
        <time>2025-07-21T14:57:47Z</time>
      </trkpt>
      <trkpt lat="42.81305" lon="0.42795">
        <ele>1194</ele>
        <time>2025-07-21T14:57:48Z</time>
      </trkpt>
      <trkpt lat="42.81297" lon="0.42791">
        <ele>1193.2</ele>
        <time>2025-07-21T14:57:49Z</time>
      </trkpt>
      <trkpt lat="42.81288" lon="0.4279">
        <ele>1192.8</ele>
        <time>2025-07-21T14:57:50Z</time>
      </trkpt>
      <trkpt lat="42.81278" lon="0.42788">
        <ele>1192.2</ele>
        <time>2025-07-21T14:57:51Z</time>
      </trkpt>
      <trkpt lat="42.81269" lon="0.42784">
        <ele>1191.4</ele>
        <time>2025-07-21T14:57:52Z</time>
      </trkpt>
      <trkpt lat="42.8126" lon="0.42779">
        <ele>1190.8</ele>
        <time>2025-07-21T14:57:53Z</time>
      </trkpt>
      <trkpt lat="42.81252" lon="0.42772">
        <ele>1189.8</ele>
        <time>2025-07-21T14:57:54Z</time>
      </trkpt>
      <trkpt lat="42.81236" lon="0.42753">
        <ele>1188.8</ele>
        <time>2025-07-21T14:57:56Z</time>
      </trkpt>
      <trkpt lat="42.81221" lon="0.42733">
        <ele>1187.2</ele>
        <time>2025-07-21T14:57:58Z</time>
      </trkpt>
      <trkpt lat="42.81213" lon="0.42722">
        <ele>1186.2</ele>
        <time>2025-07-21T14:57:59Z</time>
      </trkpt>
      <trkpt lat="42.81206" lon="0.4271">
        <ele>1185.8</ele>
        <time>2025-07-21T14:58:00Z</time>
      </trkpt>
      <trkpt lat="42.812" lon="0.42698">
        <ele>1185.2</ele>
        <time>2025-07-21T14:58:01Z</time>
      </trkpt>
      <trkpt lat="42.81195" lon="0.42684">
        <ele>1184.6</ele>
        <time>2025-07-21T14:58:02Z</time>
      </trkpt>
      <trkpt lat="42.81191" lon="0.4267">
        <ele>1183.4</ele>
        <time>2025-07-21T14:58:03Z</time>
      </trkpt>
      <trkpt lat="42.81184" lon="0.42636">
        <ele>1182</ele>
        <time>2025-07-21T14:58:05Z</time>
      </trkpt>
      <trkpt lat="42.81182" lon="0.42624">
        <ele>1180.2</ele>
        <time>2025-07-21T14:58:06Z</time>
      </trkpt>
      <trkpt lat="42.81178" lon="0.42609">
        <ele>1179</ele>
        <time>2025-07-21T14:58:07Z</time>
      </trkpt>
      <trkpt lat="42.81174" lon="0.42594">
        <ele>1177.8</ele>
        <time>2025-07-21T14:58:08Z</time>
      </trkpt>
      <trkpt lat="42.8117" lon="0.4258">
        <ele>1176.4</ele>
        <time>2025-07-21T14:58:09Z</time>
      </trkpt>
      <trkpt lat="42.81165" lon="0.42566">
        <ele>1175.8</ele>
        <time>2025-07-21T14:58:10Z</time>
      </trkpt>
      <trkpt lat="42.81159" lon="0.42554">
        <ele>1174.6</ele>
        <time>2025-07-21T14:58:11Z</time>
      </trkpt>
      <trkpt lat="42.81144" lon="0.42533">
        <ele>1173</ele>
        <time>2025-07-21T14:58:13Z</time>
      </trkpt>
      <trkpt lat="42.81126" lon="0.42518">
        <ele>1171.6</ele>
        <time>2025-07-21T14:58:15Z</time>
      </trkpt>
      <trkpt lat="42.81115" lon="0.42513">
        <ele>1169.8</ele>
        <time>2025-07-21T14:58:16Z</time>
      </trkpt>
      <trkpt lat="42.81094" lon="0.42508">
        <ele>1167.8</ele>
        <time>2025-07-21T14:58:18Z</time>
      </trkpt>
      <trkpt lat="42.81084" lon="0.42505">
        <ele>1167.2</ele>
        <time>2025-07-21T14:58:19Z</time>
      </trkpt>
      <trkpt lat="42.81075" lon="0.425">
        <ele>1165.8</ele>
        <time>2025-07-21T14:58:20Z</time>
      </trkpt>
      <trkpt lat="42.81068" lon="0.42494">
        <ele>1164.6</ele>
        <time>2025-07-21T14:58:21Z</time>
      </trkpt>
      <trkpt lat="42.81064" lon="0.42484">
        <ele>1164</ele>
        <time>2025-07-21T14:58:22Z</time>
      </trkpt>
      <trkpt lat="42.81063" lon="0.42472">
        <ele>1162.6</ele>
        <time>2025-07-21T14:58:23Z</time>
      </trkpt>
      <trkpt lat="42.81062" lon="0.42445">
        <ele>1160.8</ele>
        <time>2025-07-21T14:58:25Z</time>
      </trkpt>
      <trkpt lat="42.81061" lon="0.42427">
        <ele>1160</ele>
        <time>2025-07-21T14:58:26Z</time>
      </trkpt>
      <trkpt lat="42.81057" lon="0.42416">
        <ele>1159.4</ele>
        <time>2025-07-21T14:58:27Z</time>
      </trkpt>
      <trkpt lat="42.8105" lon="0.42401">
        <ele>1158.4</ele>
        <time>2025-07-21T14:58:28Z</time>
      </trkpt>
      <trkpt lat="42.81036" lon="0.42373">
        <ele>1157</ele>
        <time>2025-07-21T14:58:30Z</time>
      </trkpt>
      <trkpt lat="42.81023" lon="0.42345">
        <ele>1155.2</ele>
        <time>2025-07-21T14:58:32Z</time>
      </trkpt>
      <trkpt lat="42.81016" lon="0.42331">
        <ele>1153.8</ele>
        <time>2025-07-21T14:58:33Z</time>
      </trkpt>
      <trkpt lat="42.81002" lon="0.42298">
        <ele>1151.8</ele>
        <time>2025-07-21T14:58:35Z</time>
      </trkpt>
      <trkpt lat="42.80992" lon="0.42274">
        <ele>1149.8</ele>
        <time>2025-07-21T14:58:37Z</time>
      </trkpt>
      <trkpt lat="42.80986" lon="0.42262">
        <ele>1148.2</ele>
        <time>2025-07-21T14:58:38Z</time>
      </trkpt>
      <trkpt lat="42.80977" lon="0.4225">
        <ele>1146.2</ele>
        <time>2025-07-21T14:58:40Z</time>
      </trkpt>
      <trkpt lat="42.80957" lon="0.42231">
        <ele>1145.6</ele>
        <time>2025-07-21T14:58:41Z</time>
      </trkpt>
      <trkpt lat="42.80947" lon="0.42223">
        <ele>1144.4</ele>
        <time>2025-07-21T14:58:42Z</time>
      </trkpt>
      <trkpt lat="42.80937" lon="0.42214">
        <ele>1143.2</ele>
        <time>2025-07-21T14:58:43Z</time>
      </trkpt>
      <trkpt lat="42.80918" lon="0.42196">
        <ele>1141.4</ele>
        <time>2025-07-21T14:58:45Z</time>
      </trkpt>
      <trkpt lat="42.80902" lon="0.42179">
        <ele>1139</ele>
        <time>2025-07-21T14:58:47Z</time>
      </trkpt>
      <trkpt lat="42.80889" lon="0.42164">
        <ele>1136.8</ele>
        <time>2025-07-21T14:58:49Z</time>
      </trkpt>
      <trkpt lat="42.80884" lon="0.42158">
        <ele>1135.4</ele>
        <time>2025-07-21T14:58:50Z</time>
      </trkpt>
      <trkpt lat="42.8088" lon="0.42142">
        <ele>1133.2</ele>
        <time>2025-07-21T14:58:52Z</time>
      </trkpt>
      <trkpt lat="42.80887" lon="0.42133">
        <ele>1131.2</ele>
        <time>2025-07-21T14:58:54Z</time>
      </trkpt>
      <trkpt lat="42.80893" lon="0.42133">
        <ele>1130.2</ele>
        <time>2025-07-21T14:58:55Z</time>
      </trkpt>
      <trkpt lat="42.80899" lon="0.42138">
        <ele>1129.6</ele>
        <time>2025-07-21T14:58:56Z</time>
      </trkpt>
      <trkpt lat="42.80904" lon="0.42146">
        <ele>1129</ele>
        <time>2025-07-21T14:58:57Z</time>
      </trkpt>
      <trkpt lat="42.8091" lon="0.42155">
        <ele>1128.6</ele>
        <time>2025-07-21T14:58:58Z</time>
      </trkpt>
      <trkpt lat="42.80919" lon="0.42163">
        <ele>1127.8</ele>
        <time>2025-07-21T14:58:59Z</time>
      </trkpt>
      <trkpt lat="42.80925" lon="0.42167">
        <ele>1127</ele>
        <time>2025-07-21T14:59:00Z</time>
      </trkpt>
      <trkpt lat="42.80936" lon="0.42171">
        <ele>1126.6</ele>
        <time>2025-07-21T14:59:01Z</time>
      </trkpt>
      <trkpt lat="42.80944" lon="0.42172">
        <ele>1125.8</ele>
        <time>2025-07-21T14:59:02Z</time>
      </trkpt>
      <trkpt lat="42.80964" lon="0.42175">
        <ele>1124.4</ele>
        <time>2025-07-21T14:59:04Z</time>
      </trkpt>
      <trkpt lat="42.80986" lon="0.42179">
        <ele>1123</ele>
        <time>2025-07-21T14:59:06Z</time>
      </trkpt>
      <trkpt lat="42.80994" lon="0.42182">
        <ele>1122</ele>
        <time>2025-07-21T14:59:07Z</time>
      </trkpt>
      <trkpt lat="42.81004" lon="0.42186">
        <ele>1121.8</ele>
        <time>2025-07-21T14:59:08Z</time>
      </trkpt>
      <trkpt lat="42.81014" lon="0.42191">
        <ele>1120.6</ele>
        <time>2025-07-21T14:59:09Z</time>
      </trkpt>
      <trkpt lat="42.81032" lon="0.42203">
        <ele>1119</ele>
        <time>2025-07-21T14:59:11Z</time>
      </trkpt>
      <trkpt lat="42.81041" lon="0.4221">
        <ele>1117.8</ele>
        <time>2025-07-21T14:59:12Z</time>
      </trkpt>
      <trkpt lat="42.81059" lon="0.42223">
        <ele>1116.4</ele>
        <time>2025-07-21T14:59:14Z</time>
      </trkpt>
      <trkpt lat="42.81077" lon="0.42237">
        <ele>1114.8</ele>
        <time>2025-07-21T14:59:16Z</time>
      </trkpt>
      <trkpt lat="42.81095" lon="0.4225">
        <ele>1113.2</ele>
        <time>2025-07-21T14:59:18Z</time>
      </trkpt>
      <trkpt lat="42.81103" lon="0.42257">
        <ele>1111.8</ele>
        <time>2025-07-21T14:59:19Z</time>
      </trkpt>
      <trkpt lat="42.81119" lon="0.42269">
        <ele>1110.4</ele>
        <time>2025-07-21T14:59:21Z</time>
      </trkpt>
      <trkpt lat="42.81136" lon="0.4228">
        <ele>1108.8</ele>
        <time>2025-07-21T14:59:23Z</time>
      </trkpt>
      <trkpt lat="42.81145" lon="0.42285">
        <ele>1107.6</ele>
        <time>2025-07-21T14:59:24Z</time>
      </trkpt>
      <trkpt lat="42.81165" lon="0.42293">
        <ele>1106</ele>
        <time>2025-07-21T14:59:26Z</time>
      </trkpt>
      <trkpt lat="42.81186" lon="0.42301">
        <ele>1104.6</ele>
        <time>2025-07-21T14:59:28Z</time>
      </trkpt>
      <trkpt lat="42.81208" lon="0.4231">
        <ele>1103.4</ele>
        <time>2025-07-21T14:59:30Z</time>
      </trkpt>
      <trkpt lat="42.81219" lon="0.42315">
        <ele>1102.4</ele>
        <time>2025-07-21T14:59:31Z</time>
      </trkpt>
      <trkpt lat="42.81242" lon="0.42325">
        <ele>1100.8</ele>
        <time>2025-07-21T14:59:33Z</time>
      </trkpt>
      <trkpt lat="42.81264" lon="0.42338">
        <ele>1099</ele>
        <time>2025-07-21T14:59:35Z</time>
      </trkpt>
      <trkpt lat="42.81274" lon="0.42345">
        <ele>1098.2</ele>
        <time>2025-07-21T14:59:36Z</time>
      </trkpt>
      <trkpt lat="42.81284" lon="0.42351">
        <ele>1098</ele>
        <time>2025-07-21T14:59:37Z</time>
      </trkpt>
      <trkpt lat="42.81295" lon="0.42356">
        <ele>1096.8</ele>
        <time>2025-07-21T14:59:38Z</time>
      </trkpt>
      <trkpt lat="42.81305" lon="0.42361">
        <ele>1095.8</ele>
        <time>2025-07-21T14:59:39Z</time>
      </trkpt>
      <trkpt lat="42.81315" lon="0.42363">
        <ele>1094.4</ele>
        <time>2025-07-21T14:59:40Z</time>
      </trkpt>
      <trkpt lat="42.81325" lon="0.42364">
        <ele>1093.2</ele>
        <time>2025-07-21T14:59:41Z</time>
      </trkpt>
      <trkpt lat="42.81345" lon="0.42356">
        <ele>1091.2</ele>
        <time>2025-07-21T14:59:43Z</time>
      </trkpt>
      <trkpt lat="42.81362" lon="0.42334">
        <ele>1089.2</ele>
        <time>2025-07-21T14:59:45Z</time>
      </trkpt>
      <trkpt lat="42.8137" lon="0.42321">
        <ele>1087.6</ele>
        <time>2025-07-21T14:59:46Z</time>
      </trkpt>
      <trkpt lat="42.81384" lon="0.42293">
        <ele>1085.8</ele>
        <time>2025-07-21T14:59:48Z</time>
      </trkpt>
      <trkpt lat="42.8139" lon="0.42278">
        <ele>1085</ele>
        <time>2025-07-21T14:59:49Z</time>
      </trkpt>
      <trkpt lat="42.81396" lon="0.42264">
        <ele>1083.6</ele>
        <time>2025-07-21T14:59:50Z</time>
      </trkpt>
      <trkpt lat="42.81408" lon="0.42236">
        <ele>1081.6</ele>
        <time>2025-07-21T14:59:52Z</time>
      </trkpt>
      <trkpt lat="42.81415" lon="0.42223">
        <ele>1080.2</ele>
        <time>2025-07-21T14:59:53Z</time>
      </trkpt>
      <trkpt lat="42.81429" lon="0.42196">
        <ele>1078.2</ele>
        <time>2025-07-21T14:59:55Z</time>
      </trkpt>
      <trkpt lat="42.81437" lon="0.42184">
        <ele>1077.6</ele>
        <time>2025-07-21T14:59:56Z</time>
      </trkpt>
      <trkpt lat="42.81448" lon="0.42171">
        <ele>1076.6</ele>
        <time>2025-07-21T14:59:57Z</time>
      </trkpt>
      <trkpt lat="42.81457" lon="0.42161">
        <ele>1075</ele>
        <time>2025-07-21T14:59:58Z</time>
      </trkpt>
      <trkpt lat="42.81478" lon="0.42145">
        <ele>1073</ele>
        <time>2025-07-21T15:00:00Z</time>
      </trkpt>
      <trkpt lat="42.81501" lon="0.42132">
        <ele>1070.8</ele>
        <time>2025-07-21T15:00:02Z</time>
      </trkpt>
      <trkpt lat="42.81513" lon="0.42125">
        <ele>1069.6</ele>
        <time>2025-07-21T15:00:03Z</time>
      </trkpt>
      <trkpt lat="42.81536" lon="0.42115">
        <ele>1067.2</ele>
        <time>2025-07-21T15:00:05Z</time>
      </trkpt>
      <trkpt lat="42.81558" lon="0.42105">
        <ele>1065.2</ele>
        <time>2025-07-21T15:00:07Z</time>
      </trkpt>
      <trkpt lat="42.8158" lon="0.42096">
        <ele>1063</ele>
        <time>2025-07-21T15:00:09Z</time>
      </trkpt>
      <trkpt lat="42.81589" lon="0.42092">
        <ele>1061.6</ele>
        <time>2025-07-21T15:00:10Z</time>
      </trkpt>
      <trkpt lat="42.816" lon="0.42085">
        <ele>1061</ele>
        <time>2025-07-21T15:00:11Z</time>
      </trkpt>
      <trkpt lat="42.8161" lon="0.42076">
        <ele>1059.6</ele>
        <time>2025-07-21T15:00:12Z</time>
      </trkpt>
      <trkpt lat="42.81629" lon="0.42056">
        <ele>1057.8</ele>
        <time>2025-07-21T15:00:14Z</time>
      </trkpt>
      <trkpt lat="42.81638" lon="0.42045">
        <ele>1056.8</ele>
        <time>2025-07-21T15:00:15Z</time>
      </trkpt>
      <trkpt lat="42.81656" lon="0.42026">
        <ele>1054.8</ele>
        <time>2025-07-21T15:00:17Z</time>
      </trkpt>
      <trkpt lat="42.81674" lon="0.42008">
        <ele>1052.6</ele>
        <time>2025-07-21T15:00:19Z</time>
      </trkpt>
      <trkpt lat="42.81685" lon="0.41998">
        <ele>1052.2</ele>
        <time>2025-07-21T15:00:20Z</time>
      </trkpt>
      <trkpt lat="42.81695" lon="0.4199">
        <ele>1050.8</ele>
        <time>2025-07-21T15:00:21Z</time>
      </trkpt>
      <trkpt lat="42.81705" lon="0.41982">
        <ele>1049.6</ele>
        <time>2025-07-21T15:00:22Z</time>
      </trkpt>
      <trkpt lat="42.81726" lon="0.4197">
        <ele>1048.2</ele>
        <time>2025-07-21T15:00:24Z</time>
      </trkpt>
      <trkpt lat="42.81737" lon="0.41965">
        <ele>1047.4</ele>
        <time>2025-07-21T15:00:25Z</time>
      </trkpt>
      <trkpt lat="42.81748" lon="0.4196">
        <ele>1045.8</ele>
        <time>2025-07-21T15:00:26Z</time>
      </trkpt>
      <trkpt lat="42.81759" lon="0.41955">
        <ele>1044.4</ele>
        <time>2025-07-21T15:00:27Z</time>
      </trkpt>
      <trkpt lat="42.81782" lon="0.41944">
        <ele>1042.8</ele>
        <time>2025-07-21T15:00:29Z</time>
      </trkpt>
      <trkpt lat="42.81805" lon="0.41934">
        <ele>1040.6</ele>
        <time>2025-07-21T15:00:31Z</time>
      </trkpt>
      <trkpt lat="42.81817" lon="0.41929">
        <ele>1039.6</ele>
        <time>2025-07-21T15:00:32Z</time>
      </trkpt>
      <trkpt lat="42.8184" lon="0.41919">
        <ele>1037.4</ele>
        <time>2025-07-21T15:00:34Z</time>
      </trkpt>
      <trkpt lat="42.81863" lon="0.41909">
        <ele>1035.2</ele>
        <time>2025-07-21T15:00:36Z</time>
      </trkpt>
      <trkpt lat="42.81886" lon="0.41896">
        <ele>1033.2</ele>
        <time>2025-07-21T15:00:38Z</time>
      </trkpt>
      <trkpt lat="42.81896" lon="0.41889">
        <ele>1031.8</ele>
        <time>2025-07-21T15:00:39Z</time>
      </trkpt>
      <trkpt lat="42.81917" lon="0.41872">
        <ele>1029.8</ele>
        <time>2025-07-21T15:00:41Z</time>
      </trkpt>
      <trkpt lat="42.81926" lon="0.41862">
        <ele>1028.8</ele>
        <time>2025-07-21T15:00:42Z</time>
      </trkpt>
      <trkpt lat="42.81933" lon="0.41854">
        <ele>1027.4</ele>
        <time>2025-07-21T15:00:43Z</time>
      </trkpt>
      <trkpt lat="42.81942" lon="0.41844">
        <ele>1026.2</ele>
        <time>2025-07-21T15:00:44Z</time>
      </trkpt>
      <trkpt lat="42.81953" lon="0.41836">
        <ele>1025.4</ele>
        <time>2025-07-21T15:00:45Z</time>
      </trkpt>
      <trkpt lat="42.81966" lon="0.41827">
        <ele>1024</ele>
        <time>2025-07-21T15:00:46Z</time>
      </trkpt>
      <trkpt lat="42.81986" lon="0.41813">
        <ele>1022.2</ele>
        <time>2025-07-21T15:00:48Z</time>
      </trkpt>
      <trkpt lat="42.81997" lon="0.41805">
        <ele>1020.8</ele>
        <time>2025-07-21T15:00:49Z</time>
      </trkpt>
      <trkpt lat="42.82021" lon="0.41786">
        <ele>1019</ele>
        <time>2025-07-21T15:00:51Z</time>
      </trkpt>
      <trkpt lat="42.82032" lon="0.41777">
        <ele>1018.4</ele>
        <time>2025-07-21T15:00:52Z</time>
      </trkpt>
      <trkpt lat="42.82044" lon="0.41768">
        <ele>1017</ele>
        <time>2025-07-21T15:00:53Z</time>
      </trkpt>
      <trkpt lat="42.82067" lon="0.41752">
        <ele>1014.8</ele>
        <time>2025-07-21T15:00:55Z</time>
      </trkpt>
      <trkpt lat="42.82078" lon="0.41745">
        <ele>1013.4</ele>
        <time>2025-07-21T15:00:56Z</time>
      </trkpt>
      <trkpt lat="42.8209" lon="0.41738">
        <ele>1012.6</ele>
        <time>2025-07-21T15:00:57Z</time>
      </trkpt>
      <trkpt lat="42.82102" lon="0.4173">
        <ele>1011.6</ele>
        <time>2025-07-21T15:00:58Z</time>
      </trkpt>
      <trkpt lat="42.82125" lon="0.41716">
        <ele>1009.4</ele>
        <time>2025-07-21T15:01:00Z</time>
      </trkpt>
      <trkpt lat="42.82137" lon="0.41708">
        <ele>1007.8</ele>
        <time>2025-07-21T15:01:01Z</time>
      </trkpt>
      <trkpt lat="42.82159" lon="0.41694">
        <ele>1005.8</ele>
        <time>2025-07-21T15:01:03Z</time>
      </trkpt>
      <trkpt lat="42.8217" lon="0.41686">
        <ele>1005</ele>
        <time>2025-07-21T15:01:04Z</time>
      </trkpt>
      <trkpt lat="42.82181" lon="0.41679">
        <ele>1003.6</ele>
        <time>2025-07-21T15:01:05Z</time>
      </trkpt>
      <trkpt lat="42.82203" lon="0.41665">
        <ele>1001.6</ele>
        <time>2025-07-21T15:01:07Z</time>
      </trkpt>
      <trkpt lat="42.82214" lon="0.41658">
        <ele>1000.2</ele>
        <time>2025-07-21T15:01:08Z</time>
      </trkpt>
      <trkpt lat="42.82234" lon="0.41644">
        <ele>998</ele>
        <time>2025-07-21T15:01:10Z</time>
      </trkpt>
      <trkpt lat="42.82254" lon="0.4163">
        <ele>996</ele>
        <time>2025-07-21T15:01:12Z</time>
      </trkpt>
      <trkpt lat="42.82262" lon="0.41624">
        <ele>994.2</ele>
        <time>2025-07-21T15:01:13Z</time>
      </trkpt>
      <trkpt lat="42.82284" lon="0.41608">
        <ele>992.6</ele>
        <time>2025-07-21T15:01:15Z</time>
      </trkpt>
      <trkpt lat="42.82303" lon="0.41594">
        <ele>990.2</ele>
        <time>2025-07-21T15:01:17Z</time>
      </trkpt>
      <trkpt lat="42.8231" lon="0.41588">
        <ele>989.2</ele>
        <time>2025-07-21T15:01:18Z</time>
      </trkpt>
      <trkpt lat="42.82328" lon="0.41571">
        <ele>987.2</ele>
        <time>2025-07-21T15:01:20Z</time>
      </trkpt>
      <trkpt lat="42.82338" lon="0.41561">
        <ele>986.4</ele>
        <time>2025-07-21T15:01:21Z</time>
      </trkpt>
      <trkpt lat="42.82345" lon="0.41551">
        <ele>985</ele>
        <time>2025-07-21T15:01:22Z</time>
      </trkpt>
      <trkpt lat="42.82357" lon="0.41533">
        <ele>982.8</ele>
        <time>2025-07-21T15:01:24Z</time>
      </trkpt>
      <trkpt lat="42.82363" lon="0.41523">
        <ele>981.4</ele>
        <time>2025-07-21T15:01:25Z</time>
      </trkpt>
      <trkpt lat="42.82377" lon="0.41505">
        <ele>979.6</ele>
        <time>2025-07-21T15:01:27Z</time>
      </trkpt>
      <trkpt lat="42.82393" lon="0.41491">
        <ele>977.6</ele>
        <time>2025-07-21T15:01:29Z</time>
      </trkpt>
      <trkpt lat="42.82402" lon="0.41486">
        <ele>976.4</ele>
        <time>2025-07-21T15:01:30Z</time>
      </trkpt>
      <trkpt lat="42.82418" lon="0.4148">
        <ele>974.8</ele>
        <time>2025-07-21T15:01:32Z</time>
      </trkpt>
      <trkpt lat="42.82427" lon="0.41478">
        <ele>974</ele>
        <time>2025-07-21T15:01:33Z</time>
      </trkpt>
      <trkpt lat="42.82436" lon="0.41476">
        <ele>973</ele>
        <time>2025-07-21T15:01:34Z</time>
      </trkpt>
      <trkpt lat="42.82454" lon="0.41473">
        <ele>971</ele>
        <time>2025-07-21T15:01:36Z</time>
      </trkpt>
      <trkpt lat="42.82463" lon="0.41472">
        <ele>970.2</ele>
        <time>2025-07-21T15:01:37Z</time>
      </trkpt>
      <trkpt lat="42.82472" lon="0.41472">
        <ele>969.2</ele>
        <time>2025-07-21T15:01:38Z</time>
      </trkpt>
      <trkpt lat="42.8248" lon="0.41475">
        <ele>968</ele>
        <time>2025-07-21T15:01:39Z</time>
      </trkpt>
      <trkpt lat="42.82488" lon="0.4148">
        <ele>967.2</ele>
        <time>2025-07-21T15:01:40Z</time>
      </trkpt>
      <trkpt lat="42.82495" lon="0.41487">
        <ele>966.2</ele>
        <time>2025-07-21T15:01:41Z</time>
      </trkpt>
      <trkpt lat="42.82502" lon="0.41496">
        <ele>965.2</ele>
        <time>2025-07-21T15:01:42Z</time>
      </trkpt>
      <trkpt lat="42.82509" lon="0.41502">
        <ele>965</ele>
        <time>2025-07-21T15:01:43Z</time>
      </trkpt>
      <trkpt lat="42.82516" lon="0.41507">
        <ele>963.8</ele>
        <time>2025-07-21T15:01:44Z</time>
      </trkpt>
      <trkpt lat="42.82523" lon="0.4151">
        <ele>963.4</ele>
        <time>2025-07-21T15:01:45Z</time>
      </trkpt>
      <trkpt lat="42.82523" lon="0.4151">
        <ele>962.4</ele>
        <time>2025-07-21T15:01:46Z</time>
      </trkpt>
      <trkpt lat="42.82539" lon="0.41504">
        <ele>960.8</ele>
        <time>2025-07-21T15:01:47Z</time>
      </trkpt>
      <trkpt lat="42.82548" lon="0.41496">
        <ele>960</ele>
        <time>2025-07-21T15:01:48Z</time>
      </trkpt>
      <trkpt lat="42.82556" lon="0.41489">
        <ele>959.4</ele>
        <time>2025-07-21T15:01:49Z</time>
      </trkpt>
      <trkpt lat="42.82571" lon="0.41472">
        <ele>957.8</ele>
        <time>2025-07-21T15:01:51Z</time>
      </trkpt>
      <trkpt lat="42.82577" lon="0.41462">
        <ele>957.4</ele>
        <time>2025-07-21T15:01:52Z</time>
      </trkpt>
      <trkpt lat="42.8258" lon="0.41451">
        <ele>956.4</ele>
        <time>2025-07-21T15:01:53Z</time>
      </trkpt>
      <trkpt lat="42.82583" lon="0.4144">
        <ele>955.2</ele>
        <time>2025-07-21T15:01:54Z</time>
      </trkpt>
      <trkpt lat="42.82587" lon="0.4143">
        <ele>954.4</ele>
        <time>2025-07-21T15:01:55Z</time>
      </trkpt>
      <trkpt lat="42.82593" lon="0.41421">
        <ele>953.6</ele>
        <time>2025-07-21T15:01:56Z</time>
      </trkpt>
      <trkpt lat="42.82598" lon="0.41416">
        <ele>953.2</ele>
        <time>2025-07-21T15:01:57Z</time>
      </trkpt>
      <trkpt lat="42.82607" lon="0.41412">
        <ele>952</ele>
        <time>2025-07-21T15:01:58Z</time>
      </trkpt>
      <trkpt lat="42.82616" lon="0.41411">
        <ele>951.2</ele>
        <time>2025-07-21T15:01:59Z</time>
      </trkpt>
      <trkpt lat="42.82627" lon="0.4141">
        <ele>950.4</ele>
        <time>2025-07-21T15:02:00Z</time>
      </trkpt>
      <trkpt lat="42.82637" lon="0.41408">
        <ele>949.4</ele>
        <time>2025-07-21T15:02:01Z</time>
      </trkpt>
      <trkpt lat="42.82658" lon="0.41404">
        <ele>947.8</ele>
        <time>2025-07-21T15:02:03Z</time>
      </trkpt>
      <trkpt lat="42.82669" lon="0.41401">
        <ele>946.6</ele>
        <time>2025-07-21T15:02:04Z</time>
      </trkpt>
      <trkpt lat="42.82692" lon="0.41395">
        <ele>944.6</ele>
        <time>2025-07-21T15:02:06Z</time>
      </trkpt>
      <trkpt lat="42.82716" lon="0.41387">
        <ele>942.8</ele>
        <time>2025-07-21T15:02:08Z</time>
      </trkpt>
      <trkpt lat="42.82739" lon="0.41377">
        <ele>941.2</ele>
        <time>2025-07-21T15:02:10Z</time>
      </trkpt>
      <trkpt lat="42.82753" lon="0.4137">
        <ele>940</ele>
        <time>2025-07-21T15:02:11Z</time>
      </trkpt>
      <trkpt lat="42.82775" lon="0.41361">
        <ele>938.6</ele>
        <time>2025-07-21T15:02:13Z</time>
      </trkpt>
      <trkpt lat="42.82799" lon="0.41354">
        <ele>937.2</ele>
        <time>2025-07-21T15:02:15Z</time>
      </trkpt>
      <trkpt lat="42.82812" lon="0.4135">
        <ele>935.8</ele>
        <time>2025-07-21T15:02:16Z</time>
      </trkpt>
      <trkpt lat="42.82836" lon="0.41342">
        <ele>933.8</ele>
        <time>2025-07-21T15:02:18Z</time>
      </trkpt>
      <trkpt lat="42.8286" lon="0.41335">
        <ele>931.8</ele>
        <time>2025-07-21T15:02:20Z</time>
      </trkpt>
      <trkpt lat="42.82884" lon="0.41331">
        <ele>930.4</ele>
        <time>2025-07-21T15:02:22Z</time>
      </trkpt>
      <trkpt lat="42.82896" lon="0.41329">
        <ele>929.2</ele>
        <time>2025-07-21T15:02:23Z</time>
      </trkpt>
      <trkpt lat="42.8292" lon="0.41324">
        <ele>927.4</ele>
        <time>2025-07-21T15:02:25Z</time>
      </trkpt>
      <trkpt lat="42.82942" lon="0.41319">
        <ele>926.2</ele>
        <time>2025-07-21T15:02:27Z</time>
      </trkpt>
      <trkpt lat="42.82964" lon="0.41315">
        <ele>925</ele>
        <time>2025-07-21T15:02:29Z</time>
      </trkpt>
      <trkpt lat="42.82974" lon="0.41314">
        <ele>924.2</ele>
        <time>2025-07-21T15:02:30Z</time>
      </trkpt>
      <trkpt lat="42.82985" lon="0.41314">
        <ele>923.6</ele>
        <time>2025-07-21T15:02:31Z</time>
      </trkpt>
      <trkpt lat="42.83006" lon="0.41317">
        <ele>922.2</ele>
        <time>2025-07-21T15:02:33Z</time>
      </trkpt>
      <trkpt lat="42.83015" lon="0.4132">
        <ele>922</ele>
        <time>2025-07-21T15:02:34Z</time>
      </trkpt>
      <trkpt lat="42.83043" lon="0.41326">
        <ele>920.8</ele>
        <time>2025-07-21T15:02:37Z</time>
      </trkpt>
      <trkpt lat="42.8307" lon="0.41332">
        <ele>920.2</ele>
        <time>2025-07-21T15:02:40Z</time>
      </trkpt>
      <trkpt lat="42.83116" lon="0.41341">
        <ele>920.4</ele>
        <time>2025-07-21T15:02:46Z</time>
      </trkpt>
      <trkpt lat="42.83161" lon="0.41351">
        <ele>921.4</ele>
        <time>2025-07-21T15:02:53Z</time>
      </trkpt>
      <trkpt lat="42.83184" lon="0.41356">
        <ele>922</ele>
        <time>2025-07-21T15:02:57Z</time>
      </trkpt>
      <trkpt lat="42.83194" lon="0.41358">
        <ele>922.4</ele>
        <time>2025-07-21T15:02:59Z</time>
      </trkpt>
      <trkpt lat="42.83199" lon="0.41359">
        <ele>922.4</ele>
        <time>2025-07-21T15:03:00Z</time>
      </trkpt>
      <trkpt lat="42.83218" lon="0.41362">
        <ele>923.2</ele>
        <time>2025-07-21T15:03:04Z</time>
      </trkpt>
      <trkpt lat="42.83231" lon="0.41366">
        <ele>923.8</ele>
        <time>2025-07-21T15:03:07Z</time>
      </trkpt>
      <trkpt lat="42.83256" lon="0.41371">
        <ele>924.4</ele>
        <time>2025-07-21T15:03:13Z</time>
      </trkpt>
      <trkpt lat="42.83267" lon="0.41373">
        <ele>924.8</ele>
        <time>2025-07-21T15:03:16Z</time>
      </trkpt>
      <trkpt lat="42.83285" lon="0.41377">
        <ele>925.4</ele>
        <time>2025-07-21T15:03:21Z</time>
      </trkpt>
      <trkpt lat="42.83299" lon="0.4138">
        <ele>926</ele>
        <time>2025-07-21T15:03:25Z</time>
      </trkpt>
      <trkpt lat="42.83307" lon="0.41379">
        <ele>926.6</ele>
        <time>2025-07-21T15:03:27Z</time>
      </trkpt>
      <trkpt lat="42.83322" lon="0.41376">
        <ele>927.4</ele>
        <time>2025-07-21T15:03:31Z</time>
      </trkpt>
      <trkpt lat="42.83354" lon="0.41361">
        <ele>927.2</ele>
        <time>2025-07-21T15:03:39Z</time>
      </trkpt>
      <trkpt lat="42.83384" lon="0.41351">
        <ele>926.8</ele>
        <time>2025-07-21T15:03:45Z</time>
      </trkpt>
      <trkpt lat="42.83422" lon="0.41339">
        <ele>925.4</ele>
        <time>2025-07-21T15:03:52Z</time>
      </trkpt>
      <trkpt lat="42.83428" lon="0.41338">
        <ele>925.2</ele>
        <time>2025-07-21T15:03:53Z</time>
      </trkpt>
      <trkpt lat="42.83465" lon="0.41323">
        <ele>924.6</ele>
        <time>2025-07-21T15:03:58Z</time>
      </trkpt>
      <trkpt lat="42.83499" lon="0.41305">
        <ele>923.4</ele>
        <time>2025-07-21T15:04:02Z</time>
      </trkpt>
      <trkpt lat="42.83517" lon="0.41294">
        <ele>922.8</ele>
        <time>2025-07-21T15:04:04Z</time>
      </trkpt>
      <trkpt lat="42.83532" lon="0.41284">
        <ele>921.8</ele>
        <time>2025-07-21T15:04:06Z</time>
      </trkpt>
      <trkpt lat="42.83552" lon="0.4127">
        <ele>920.6</ele>
        <time>2025-07-21T15:04:08Z</time>
      </trkpt>
      <trkpt lat="42.83561" lon="0.41265">
        <ele>920</ele>
        <time>2025-07-21T15:04:09Z</time>
      </trkpt>
      <trkpt lat="42.83578" lon="0.41256">
        <ele>918.8</ele>
        <time>2025-07-21T15:04:11Z</time>
      </trkpt>
      <trkpt lat="42.83607" lon="0.41241">
        <ele>917.2</ele>
        <time>2025-07-21T15:04:14Z</time>
      </trkpt>
      <trkpt lat="42.83631" lon="0.41229">
        <ele>916.2</ele>
        <time>2025-07-21T15:04:17Z</time>
      </trkpt>
      <trkpt lat="42.83656" lon="0.41218">
        <ele>915.2</ele>
        <time>2025-07-21T15:04:20Z</time>
      </trkpt>
      <trkpt lat="42.83665" lon="0.41215">
        <ele>915</ele>
        <time>2025-07-21T15:04:21Z</time>
      </trkpt>
      <trkpt lat="42.83716" lon="0.4119">
        <ele>914</ele>
        <time>2025-07-21T15:04:27Z</time>
      </trkpt>
      <trkpt lat="42.83726" lon="0.41184">
        <ele>913.8</ele>
        <time>2025-07-21T15:04:28Z</time>
      </trkpt>
      <trkpt lat="42.83734" lon="0.41179">
        <ele>913.4</ele>
        <time>2025-07-21T15:04:29Z</time>
      </trkpt>
      <trkpt lat="42.83759" lon="0.41167">
        <ele>912.8</ele>
        <time>2025-07-21T15:04:32Z</time>
      </trkpt>
      <trkpt lat="42.83767" lon="0.41167">
        <ele>912.6</ele>
        <time>2025-07-21T15:04:33Z</time>
      </trkpt>
      <trkpt lat="42.83776" lon="0.41169">
        <ele>912.4</ele>
        <time>2025-07-21T15:04:34Z</time>
      </trkpt>
      <trkpt lat="42.83791" lon="0.41176">
        <ele>911.8</ele>
        <time>2025-07-21T15:04:36Z</time>
      </trkpt>
      <trkpt lat="42.83809" lon="0.41184">
        <ele>911.2</ele>
        <time>2025-07-21T15:04:38Z</time>
      </trkpt>
      <trkpt lat="42.83824" lon="0.41187">
        <ele>910.8</ele>
        <time>2025-07-21T15:04:40Z</time>
      </trkpt>
      <trkpt lat="42.83868" lon="0.41185">
        <ele>909.6</ele>
        <time>2025-07-21T15:04:45Z</time>
      </trkpt>
      <trkpt lat="42.83877" lon="0.41183">
        <ele>909.4</ele>
        <time>2025-07-21T15:04:46Z</time>
      </trkpt>
      <trkpt lat="42.83887" lon="0.41181">
        <ele>909.2</ele>
        <time>2025-07-21T15:04:47Z</time>
      </trkpt>
      <trkpt lat="42.83905" lon="0.41177">
        <ele>908.6</ele>
        <time>2025-07-21T15:04:49Z</time>
      </trkpt>
      <trkpt lat="42.83913" lon="0.41174">
        <ele>908.4</ele>
        <time>2025-07-21T15:04:50Z</time>
      </trkpt>
      <trkpt lat="42.83963" lon="0.41144">
        <ele>907.2</ele>
        <time>2025-07-21T15:04:56Z</time>
      </trkpt>
      <trkpt lat="42.8397" lon="0.4114">
        <ele>906.6</ele>
        <time>2025-07-21T15:04:57Z</time>
      </trkpt>
      <trkpt lat="42.83981" lon="0.41134">
        <ele>906.4</ele>
        <time>2025-07-21T15:04:58Z</time>
      </trkpt>
      <trkpt lat="42.83991" lon="0.4113">
        <ele>906.2</ele>
        <time>2025-07-21T15:04:59Z</time>
      </trkpt>
      <trkpt lat="42.84002" lon="0.41129">
        <ele>905.2</ele>
        <time>2025-07-21T15:05:00Z</time>
      </trkpt>
      <trkpt lat="42.8401" lon="0.4113">
        <ele>904.8</ele>
        <time>2025-07-21T15:05:01Z</time>
      </trkpt>
      <trkpt lat="42.84021" lon="0.41132">
        <ele>903.6</ele>
        <time>2025-07-21T15:05:02Z</time>
      </trkpt>
      <trkpt lat="42.84046" lon="0.41137">
        <ele>902.2</ele>
        <time>2025-07-21T15:05:04Z</time>
      </trkpt>
      <trkpt lat="42.84067" lon="0.41144">
        <ele>900.4</ele>
        <time>2025-07-21T15:05:06Z</time>
      </trkpt>
      <trkpt lat="42.84079" lon="0.41149">
        <ele>899.2</ele>
        <time>2025-07-21T15:05:07Z</time>
      </trkpt>
      <trkpt lat="42.84105" lon="0.41157">
        <ele>896.6</ele>
        <time>2025-07-21T15:05:09Z</time>
      </trkpt>
      <trkpt lat="42.84129" lon="0.41159">
        <ele>895.4</ele>
        <time>2025-07-21T15:05:11Z</time>
      </trkpt>
      <trkpt lat="42.84141" lon="0.41159">
        <ele>894.4</ele>
        <time>2025-07-21T15:05:12Z</time>
      </trkpt>
      <trkpt lat="42.84153" lon="0.41158">
        <ele>893.6</ele>
        <time>2025-07-21T15:05:13Z</time>
      </trkpt>
      <trkpt lat="42.84165" lon="0.41158">
        <ele>892</ele>
        <time>2025-07-21T15:05:14Z</time>
      </trkpt>
      <trkpt lat="42.84187" lon="0.41155">
        <ele>890.4</ele>
        <time>2025-07-21T15:05:16Z</time>
      </trkpt>
      <trkpt lat="42.84199" lon="0.41152">
        <ele>889.4</ele>
        <time>2025-07-21T15:05:17Z</time>
      </trkpt>
      <trkpt lat="42.84213" lon="0.41148">
        <ele>888.6</ele>
        <time>2025-07-21T15:05:18Z</time>
      </trkpt>
      <trkpt lat="42.84225" lon="0.41145">
        <ele>887.6</ele>
        <time>2025-07-21T15:05:19Z</time>
      </trkpt>
      <trkpt lat="42.84247" lon="0.41139">
        <ele>886.2</ele>
        <time>2025-07-21T15:05:21Z</time>
      </trkpt>
      <trkpt lat="42.84273" lon="0.41131">
        <ele>884.8</ele>
        <time>2025-07-21T15:05:23Z</time>
      </trkpt>
      <trkpt lat="42.84294" lon="0.41122">
        <ele>883.4</ele>
        <time>2025-07-21T15:05:25Z</time>
      </trkpt>
      <trkpt lat="42.84325" lon="0.41101">
        <ele>882</ele>
        <time>2025-07-21T15:05:28Z</time>
      </trkpt>
      <trkpt lat="42.84335" lon="0.41092">
        <ele>881.6</ele>
        <time>2025-07-21T15:05:29Z</time>
      </trkpt>
      <trkpt lat="42.84344" lon="0.41082">
        <ele>881.4</ele>
        <time>2025-07-21T15:05:30Z</time>
      </trkpt>
      <trkpt lat="42.84352" lon="0.41072">
        <ele>880.8</ele>
        <time>2025-07-21T15:05:31Z</time>
      </trkpt>
      <trkpt lat="42.8437" lon="0.41049">
        <ele>879.6</ele>
        <time>2025-07-21T15:05:33Z</time>
      </trkpt>
      <trkpt lat="42.84389" lon="0.41026">
        <ele>878.2</ele>
        <time>2025-07-21T15:05:35Z</time>
      </trkpt>
      <trkpt lat="42.84395" lon="0.41018">
        <ele>877.2</ele>
        <time>2025-07-21T15:05:36Z</time>
      </trkpt>
      <trkpt lat="42.84414" lon="0.40995">
        <ele>876</ele>
        <time>2025-07-21T15:05:38Z</time>
      </trkpt>
      <trkpt lat="42.84428" lon="0.40974">
        <ele>874.8</ele>
        <time>2025-07-21T15:05:40Z</time>
      </trkpt>
      <trkpt lat="42.84445" lon="0.40944">
        <ele>873.6</ele>
        <time>2025-07-21T15:05:43Z</time>
      </trkpt>
      <trkpt lat="42.84455" lon="0.40926">
        <ele>873.2</ele>
        <time>2025-07-21T15:05:45Z</time>
      </trkpt>
      <trkpt lat="42.8446" lon="0.40919">
        <ele>873.2</ele>
        <time>2025-07-21T15:05:46Z</time>
      </trkpt>
      <trkpt lat="42.84474" lon="0.40907">
        <ele>873.2</ele>
        <time>2025-07-21T15:05:48Z</time>
      </trkpt>
      <trkpt lat="42.84489" lon="0.40905">
        <ele>873.2</ele>
        <time>2025-07-21T15:05:50Z</time>
      </trkpt>
      <trkpt lat="42.84494" lon="0.40907">
        <ele>873.2</ele>
        <time>2025-07-21T15:05:51Z</time>
      </trkpt>
      <trkpt lat="42.84499" lon="0.40912">
        <ele>873.2</ele>
        <time>2025-07-21T15:05:52Z</time>
      </trkpt>
      <trkpt lat="42.84513" lon="0.40928">
        <ele>874</ele>
        <time>2025-07-21T15:05:55Z</time>
      </trkpt>
      <trkpt lat="42.84518" lon="0.40937">
        <ele>874.8</ele>
        <time>2025-07-21T15:05:57Z</time>
      </trkpt>
      <trkpt lat="42.84528" lon="0.40951">
        <ele>875.6</ele>
        <time>2025-07-21T15:06:00Z</time>
      </trkpt>
      <trkpt lat="42.8453" lon="0.40954">
        <ele>876</ele>
        <time>2025-07-21T15:06:01Z</time>
      </trkpt>
      <trkpt lat="42.84536" lon="0.40963">
        <ele>876.4</ele>
        <time>2025-07-21T15:06:03Z</time>
      </trkpt>
      <trkpt lat="42.84542" lon="0.40969">
        <ele>877</ele>
        <time>2025-07-21T15:06:05Z</time>
      </trkpt>
      <trkpt lat="42.84558" lon="0.40978">
        <ele>878</ele>
        <time>2025-07-21T15:06:10Z</time>
      </trkpt>
      <trkpt lat="42.84561" lon="0.40978">
        <ele>878.2</ele>
        <time>2025-07-21T15:06:11Z</time>
      </trkpt>
      <trkpt lat="42.84577" lon="0.40976">
        <ele>879</ele>
        <time>2025-07-21T15:06:16Z</time>
      </trkpt>
      <trkpt lat="42.84583" lon="0.40974">
        <ele>879.2</ele>
        <time>2025-07-21T15:06:18Z</time>
      </trkpt>
      <trkpt lat="42.84603" lon="0.40962">
        <ele>879.8</ele>
        <time>2025-07-21T15:06:24Z</time>
      </trkpt>
      <trkpt lat="42.84623" lon="0.40953">
        <ele>879.8</ele>
        <time>2025-07-21T15:06:29Z</time>
      </trkpt>
      <trkpt lat="42.84651" lon="0.4095">
        <ele>879.6</ele>
        <time>2025-07-21T15:06:34Z</time>
      </trkpt>
      <trkpt lat="42.84691" lon="0.40953">
        <ele>878.6</ele>
        <time>2025-07-21T15:06:40Z</time>
      </trkpt>
      <trkpt lat="42.84698" lon="0.40953">
        <ele>878.2</ele>
        <time>2025-07-21T15:06:41Z</time>
      </trkpt>
      <trkpt lat="42.84712" lon="0.40949">
        <ele>877.6</ele>
        <time>2025-07-21T15:06:43Z</time>
      </trkpt>
      <trkpt lat="42.8472" lon="0.40946">
        <ele>877.4</ele>
        <time>2025-07-21T15:06:44Z</time>
      </trkpt>
      <trkpt lat="42.84729" lon="0.40941">
        <ele>876.8</ele>
        <time>2025-07-21T15:06:45Z</time>
      </trkpt>
      <trkpt lat="42.84761" lon="0.4092">
        <ele>875.6</ele>
        <time>2025-07-21T15:06:49Z</time>
      </trkpt>
      <trkpt lat="42.84777" lon="0.40909">
        <ele>874.4</ele>
        <time>2025-07-21T15:06:51Z</time>
      </trkpt>
      <trkpt lat="42.84801" lon="0.40892">
        <ele>873.6</ele>
        <time>2025-07-21T15:06:54Z</time>
      </trkpt>
      <trkpt lat="42.84818" lon="0.40882">
        <ele>872.6</ele>
        <time>2025-07-21T15:06:56Z</time>
      </trkpt>
      <trkpt lat="42.84825" lon="0.40877">
        <ele>872.2</ele>
        <time>2025-07-21T15:06:57Z</time>
      </trkpt>
      <trkpt lat="42.84834" lon="0.40872">
        <ele>871.2</ele>
        <time>2025-07-21T15:06:58Z</time>
      </trkpt>
      <trkpt lat="42.84854" lon="0.40863">
        <ele>870.2</ele>
        <time>2025-07-21T15:07:00Z</time>
      </trkpt>
      <trkpt lat="42.8487" lon="0.40857">
        <ele>869.4</ele>
        <time>2025-07-21T15:07:02Z</time>
      </trkpt>
      <trkpt lat="42.84879" lon="0.40855">
        <ele>868.6</ele>
        <time>2025-07-21T15:07:03Z</time>
      </trkpt>
      <trkpt lat="42.84889" lon="0.40852">
        <ele>868.4</ele>
        <time>2025-07-21T15:07:04Z</time>
      </trkpt>
      <trkpt lat="42.84913" lon="0.40848">
        <ele>867.2</ele>
        <time>2025-07-21T15:07:07Z</time>
      </trkpt>
      <trkpt lat="42.84922" lon="0.40847">
        <ele>867</ele>
        <time>2025-07-21T15:07:08Z</time>
      </trkpt>
      <trkpt lat="42.84948" lon="0.40844">
        <ele>866.4</ele>
        <time>2025-07-21T15:07:11Z</time>
      </trkpt>
      <trkpt lat="42.84954" lon="0.40841">
        <ele>866.4</ele>
        <time>2025-07-21T15:07:12Z</time>
      </trkpt>
      <trkpt lat="42.84962" lon="0.40836">
        <ele>866.2</ele>
        <time>2025-07-21T15:07:13Z</time>
      </trkpt>
      <trkpt lat="42.84975" lon="0.40825">
        <ele>866</ele>
        <time>2025-07-21T15:07:15Z</time>
      </trkpt>
      <trkpt lat="42.85005" lon="0.40795">
        <ele>865.2</ele>
        <time>2025-07-21T15:07:20Z</time>
      </trkpt>
      <trkpt lat="42.85011" lon="0.40791">
        <ele>865</ele>
        <time>2025-07-21T15:07:21Z</time>
      </trkpt>
      <trkpt lat="42.85018" lon="0.40789">
        <ele>865</ele>
        <time>2025-07-21T15:07:22Z</time>
      </trkpt>
      <trkpt lat="42.85025" lon="0.40787">
        <ele>864.8</ele>
        <time>2025-07-21T15:07:23Z</time>
      </trkpt>
      <trkpt lat="42.85037" lon="0.40784">
        <ele>864.8</ele>
        <time>2025-07-21T15:07:25Z</time>
      </trkpt>
      <trkpt lat="42.85071" lon="0.40774">
        <ele>865.2</ele>
        <time>2025-07-21T15:07:31Z</time>
      </trkpt>
      <trkpt lat="42.85095" lon="0.40758">
        <ele>866</ele>
        <time>2025-07-21T15:07:36Z</time>
      </trkpt>
      <trkpt lat="42.85109" lon="0.40749">
        <ele>866.6</ele>
        <time>2025-07-21T15:07:39Z</time>
      </trkpt>
      <trkpt lat="42.85132" lon="0.40734">
        <ele>867</ele>
        <time>2025-07-21T15:07:44Z</time>
      </trkpt>
      <trkpt lat="42.85143" lon="0.40731">
        <ele>867.2</ele>
        <time>2025-07-21T15:07:46Z</time>
      </trkpt>
      <trkpt lat="42.8518" lon="0.40721">
        <ele>867.6</ele>
        <time>2025-07-21T15:07:53Z</time>
      </trkpt>
      <trkpt lat="42.85222" lon="0.40718">
        <ele>868.4</ele>
        <time>2025-07-21T15:08:01Z</time>
      </trkpt>
      <trkpt lat="42.85227" lon="0.40719">
        <ele>868.4</ele>
        <time>2025-07-21T15:08:02Z</time>
      </trkpt>
      <trkpt lat="42.85267" lon="0.40723">
        <ele>869.2</ele>
        <time>2025-07-21T15:08:10Z</time>
      </trkpt>
      <trkpt lat="42.85278" lon="0.40723">
        <ele>869.4</ele>
        <time>2025-07-21T15:08:12Z</time>
      </trkpt>
      <trkpt lat="42.85287" lon="0.40722">
        <ele>869.6</ele>
        <time>2025-07-21T15:08:14Z</time>
      </trkpt>
      <trkpt lat="42.85303" lon="0.40718">
        <ele>870</ele>
        <time>2025-07-21T15:08:17Z</time>
      </trkpt>
      <trkpt lat="42.85332" lon="0.40704">
        <ele>870.2</ele>
        <time>2025-07-21T15:08:23Z</time>
      </trkpt>
      <trkpt lat="42.85336" lon="0.40701">
        <ele>870</ele>
        <time>2025-07-21T15:08:24Z</time>
      </trkpt>
      <trkpt lat="42.85365" lon="0.40673">
        <ele>869</ele>
        <time>2025-07-21T15:08:29Z</time>
      </trkpt>
      <trkpt lat="42.85383" lon="0.40648">
        <ele>868.4</ele>
        <time>2025-07-21T15:08:32Z</time>
      </trkpt>
      <trkpt lat="42.85393" lon="0.4063">
        <ele>867.8</ele>
        <time>2025-07-21T15:08:34Z</time>
      </trkpt>
      <trkpt lat="42.85408" lon="0.40601">
        <ele>867.2</ele>
        <time>2025-07-21T15:08:37Z</time>
      </trkpt>
      <trkpt lat="42.85418" lon="0.40582">
        <ele>866</ele>
        <time>2025-07-21T15:08:39Z</time>
      </trkpt>
      <trkpt lat="42.8543" lon="0.40563">
        <ele>865.2</ele>
        <time>2025-07-21T15:08:41Z</time>
      </trkpt>
      <trkpt lat="42.85436" lon="0.40556">
        <ele>865</ele>
        <time>2025-07-21T15:08:42Z</time>
      </trkpt>
      <trkpt lat="42.85445" lon="0.40546">
        <ele>864.6</ele>
        <time>2025-07-21T15:08:43Z</time>
      </trkpt>
      <trkpt lat="42.85451" lon="0.4054">
        <ele>863.8</ele>
        <time>2025-07-21T15:08:44Z</time>
      </trkpt>
      <trkpt lat="42.85478" lon="0.4052">
        <ele>862.4</ele>
        <time>2025-07-21T15:08:47Z</time>
      </trkpt>
      <trkpt lat="42.85495" lon="0.40511">
        <ele>861.4</ele>
        <time>2025-07-21T15:08:49Z</time>
      </trkpt>
      <trkpt lat="42.85516" lon="0.40498">
        <ele>860.2</ele>
        <time>2025-07-21T15:08:51Z</time>
      </trkpt>
      <trkpt lat="42.85544" lon="0.40482">
        <ele>858.8</ele>
        <time>2025-07-21T15:08:54Z</time>
      </trkpt>
      <trkpt lat="42.85565" lon="0.40472">
        <ele>857.2</ele>
        <time>2025-07-21T15:08:56Z</time>
      </trkpt>
      <trkpt lat="42.85584" lon="0.40463">
        <ele>856</ele>
        <time>2025-07-21T15:08:58Z</time>
      </trkpt>
      <trkpt lat="42.85603" lon="0.40455">
        <ele>854.8</ele>
        <time>2025-07-21T15:09:00Z</time>
      </trkpt>
      <trkpt lat="42.8561" lon="0.40453">
        <ele>854.6</ele>
        <time>2025-07-21T15:09:01Z</time>
      </trkpt>
      <trkpt lat="42.85631" lon="0.40448">
        <ele>853.4</ele>
        <time>2025-07-21T15:09:03Z</time>
      </trkpt>
      <trkpt lat="42.85647" lon="0.40447">
        <ele>853</ele>
        <time>2025-07-21T15:09:05Z</time>
      </trkpt>
      <trkpt lat="42.85675" lon="0.40447">
        <ele>852.2</ele>
        <time>2025-07-21T15:09:08Z</time>
      </trkpt>
      <trkpt lat="42.85698" lon="0.40445">
        <ele>851.8</ele>
        <time>2025-07-21T15:09:11Z</time>
      </trkpt>
      <trkpt lat="42.85737" lon="0.40436">
        <ele>851.2</ele>
        <time>2025-07-21T15:09:16Z</time>
      </trkpt>
      <trkpt lat="42.85755" lon="0.40429">
        <ele>850.8</ele>
        <time>2025-07-21T15:09:18Z</time>
      </trkpt>
      <trkpt lat="42.85789" lon="0.40418">
        <ele>849.8</ele>
        <time>2025-07-21T15:09:22Z</time>
      </trkpt>
      <trkpt lat="42.85808" lon="0.40414">
        <ele>848.8</ele>
        <time>2025-07-21T15:09:24Z</time>
      </trkpt>
      <trkpt lat="42.85817" lon="0.40412">
        <ele>848.4</ele>
        <time>2025-07-21T15:09:25Z</time>
      </trkpt>
      <trkpt lat="42.85868" lon="0.40401">
        <ele>847.2</ele>
        <time>2025-07-21T15:09:31Z</time>
      </trkpt>
      <trkpt lat="42.85879" lon="0.40397">
        <ele>847</ele>
        <time>2025-07-21T15:09:32Z</time>
      </trkpt>
      <trkpt lat="42.85921" lon="0.40378">
        <ele>846.2</ele>
        <time>2025-07-21T15:09:37Z</time>
      </trkpt>
      <trkpt lat="42.8593" lon="0.40373">
        <ele>846.2</ele>
        <time>2025-07-21T15:09:38Z</time>
      </trkpt>
      <trkpt lat="42.85937" lon="0.40366">
        <ele>846</ele>
        <time>2025-07-21T15:09:39Z</time>
      </trkpt>
      <trkpt lat="42.85965" lon="0.40332">
        <ele>845.4</ele>
        <time>2025-07-21T15:09:43Z</time>
      </trkpt>
      <trkpt lat="42.85971" lon="0.40323">
        <ele>845</ele>
        <time>2025-07-21T15:09:44Z</time>
      </trkpt>
      <trkpt lat="42.85977" lon="0.40317">
        <ele>844.8</ele>
        <time>2025-07-21T15:09:45Z</time>
      </trkpt>
      <trkpt lat="42.85992" lon="0.40303">
        <ele>844.4</ele>
        <time>2025-07-21T15:09:47Z</time>
      </trkpt>
      <trkpt lat="42.86002" lon="0.40298">
        <ele>844</ele>
        <time>2025-07-21T15:09:48Z</time>
      </trkpt>
      <trkpt lat="42.8601" lon="0.40295">
        <ele>843.6</ele>
        <time>2025-07-21T15:09:49Z</time>
      </trkpt>
      <trkpt lat="42.86026" lon="0.4029">
        <ele>843.2</ele>
        <time>2025-07-21T15:09:51Z</time>
      </trkpt>
      <trkpt lat="42.86037" lon="0.40288">
        <ele>843</ele>
        <time>2025-07-21T15:09:52Z</time>
      </trkpt>
      <trkpt lat="42.8607" lon="0.40282">
        <ele>842</ele>
        <time>2025-07-21T15:09:56Z</time>
      </trkpt>
      <trkpt lat="42.8608" lon="0.40279">
        <ele>841.8</ele>
        <time>2025-07-21T15:09:57Z</time>
      </trkpt>
      <trkpt lat="42.86096" lon="0.4027">
        <ele>841.4</ele>
        <time>2025-07-21T15:09:59Z</time>
      </trkpt>
      <trkpt lat="42.86103" lon="0.40263">
        <ele>841.2</ele>
        <time>2025-07-21T15:10:00Z</time>
      </trkpt>
      <trkpt lat="42.8611" lon="0.40254">
        <ele>841</ele>
        <time>2025-07-21T15:10:01Z</time>
      </trkpt>
      <trkpt lat="42.86126" lon="0.40225">
        <ele>840.4</ele>
        <time>2025-07-21T15:10:04Z</time>
      </trkpt>
      <trkpt lat="42.86132" lon="0.40216">
        <ele>839.8</ele>
        <time>2025-07-21T15:10:05Z</time>
      </trkpt>
      <trkpt lat="42.86155" lon="0.4018">
        <ele>838.8</ele>
        <time>2025-07-21T15:10:09Z</time>
      </trkpt>
      <trkpt lat="42.86166" lon="0.40166">
        <ele>838.4</ele>
        <time>2025-07-21T15:10:11Z</time>
      </trkpt>
      <trkpt lat="42.86188" lon="0.40144">
        <ele>837.8</ele>
        <time>2025-07-21T15:10:14Z</time>
      </trkpt>
      <trkpt lat="42.86204" lon="0.40133">
        <ele>837.2</ele>
        <time>2025-07-21T15:10:16Z</time>
      </trkpt>
      <trkpt lat="42.86212" lon="0.40129">
        <ele>837.4</ele>
        <time>2025-07-21T15:10:17Z</time>
      </trkpt>
      <trkpt lat="42.86241" lon="0.40121">
        <ele>836.4</ele>
        <time>2025-07-21T15:10:20Z</time>
      </trkpt>
      <trkpt lat="42.86285" lon="0.40122">
        <ele>835.2</ele>
        <time>2025-07-21T15:10:25Z</time>
      </trkpt>
      <trkpt lat="42.86292" lon="0.40122">
        <ele>835.2</ele>
        <time>2025-07-21T15:10:26Z</time>
      </trkpt>
      <trkpt lat="42.86343" lon="0.40133">
        <ele>834.4</ele>
        <time>2025-07-21T15:10:32Z</time>
      </trkpt>
      <trkpt lat="42.86351" lon="0.40135">
        <ele>834.2</ele>
        <time>2025-07-21T15:10:33Z</time>
      </trkpt>
      <trkpt lat="42.86374" lon="0.40137">
        <ele>834.2</ele>
        <time>2025-07-21T15:10:36Z</time>
      </trkpt>
      <trkpt lat="42.8638" lon="0.40137">
        <ele>834</ele>
        <time>2025-07-21T15:10:37Z</time>
      </trkpt>
      <trkpt lat="42.86436" lon="0.40128">
        <ele>833</ele>
        <time>2025-07-21T15:10:44Z</time>
      </trkpt>
      <trkpt lat="42.86444" lon="0.40128">
        <ele>833</ele>
        <time>2025-07-21T15:10:45Z</time>
      </trkpt>
      <trkpt lat="42.86491" lon="0.40129">
        <ele>832.2</ele>
        <time>2025-07-21T15:10:51Z</time>
      </trkpt>
      <trkpt lat="42.86507" lon="0.40128">
        <ele>832</ele>
        <time>2025-07-21T15:10:53Z</time>
      </trkpt>
      <trkpt lat="42.86523" lon="0.40124">
        <ele>831.8</ele>
        <time>2025-07-21T15:10:55Z</time>
      </trkpt>
      <trkpt lat="42.86538" lon="0.40116">
        <ele>831.6</ele>
        <time>2025-07-21T15:10:57Z</time>
      </trkpt>
      <trkpt lat="42.86551" lon="0.40103">
        <ele>831.6</ele>
        <time>2025-07-21T15:10:59Z</time>
      </trkpt>
      <trkpt lat="42.86563" lon="0.40088">
        <ele>831.2</ele>
        <time>2025-07-21T15:11:01Z</time>
      </trkpt>
      <trkpt lat="42.8658" lon="0.40064">
        <ele>831.2</ele>
        <time>2025-07-21T15:11:04Z</time>
      </trkpt>
      <trkpt lat="42.86615" lon="0.40018">
        <ele>830.2</ele>
        <time>2025-07-21T15:11:10Z</time>
      </trkpt>
      <trkpt lat="42.86628" lon="0.40003">
        <ele>829.8</ele>
        <time>2025-07-21T15:11:12Z</time>
      </trkpt>
      <trkpt lat="42.8667" lon="0.39965">
        <ele>829</ele>
        <time>2025-07-21T15:11:18Z</time>
      </trkpt>
      <trkpt lat="42.86705" lon="0.39932">
        <ele>828.2</ele>
        <time>2025-07-21T15:11:23Z</time>
      </trkpt>
      <trkpt lat="42.86726" lon="0.3991">
        <ele>827.4</ele>
        <time>2025-07-21T15:11:26Z</time>
      </trkpt>
      <trkpt lat="42.86732" lon="0.39902">
        <ele>827.2</ele>
        <time>2025-07-21T15:11:27Z</time>
      </trkpt>
      <trkpt lat="42.86742" lon="0.39882">
        <ele>826.6</ele>
        <time>2025-07-21T15:11:29Z</time>
      </trkpt>
      <trkpt lat="42.86745" lon="0.39871">
        <ele>826.4</ele>
        <time>2025-07-21T15:11:30Z</time>
      </trkpt>
      <trkpt lat="42.86749" lon="0.39847">
        <ele>826</ele>
        <time>2025-07-21T15:11:32Z</time>
      </trkpt>
      <trkpt lat="42.86752" lon="0.39812">
        <ele>825.4</ele>
        <time>2025-07-21T15:11:35Z</time>
      </trkpt>
      <trkpt lat="42.86757" lon="0.39778">
        <ele>825</ele>
        <time>2025-07-21T15:11:38Z</time>
      </trkpt>
      <trkpt lat="42.86763" lon="0.39745">
        <ele>824.8</ele>
        <time>2025-07-21T15:11:41Z</time>
      </trkpt>
      <trkpt lat="42.86765" lon="0.39734">
        <ele>824.8</ele>
        <time>2025-07-21T15:11:42Z</time>
      </trkpt>
      <trkpt lat="42.86773" lon="0.39715">
        <ele>824.6</ele>
        <time>2025-07-21T15:11:44Z</time>
      </trkpt>
      <trkpt lat="42.86778" lon="0.39707">
        <ele>824.6</ele>
        <time>2025-07-21T15:11:45Z</time>
      </trkpt>
      <trkpt lat="42.8679" lon="0.39691">
        <ele>824.4</ele>
        <time>2025-07-21T15:11:47Z</time>
      </trkpt>
      <trkpt lat="42.86809" lon="0.39674">
        <ele>824.2</ele>
        <time>2025-07-21T15:11:50Z</time>
      </trkpt>
      <trkpt lat="42.86816" lon="0.39669">
        <ele>824</ele>
        <time>2025-07-21T15:11:51Z</time>
      </trkpt>
      <trkpt lat="42.86837" lon="0.39657">
        <ele>823.8</ele>
        <time>2025-07-21T15:11:54Z</time>
      </trkpt>
      <trkpt lat="42.86844" lon="0.39655">
        <ele>823.6</ele>
        <time>2025-07-21T15:11:55Z</time>
      </trkpt>
      <trkpt lat="42.86881" lon="0.3965">
        <ele>823.4</ele>
        <time>2025-07-21T15:12:00Z</time>
      </trkpt>
      <trkpt lat="42.86911" lon="0.39653">
        <ele>823</ele>
        <time>2025-07-21T15:12:04Z</time>
      </trkpt>
      <trkpt lat="42.86947" lon="0.39657">
        <ele>822.6</ele>
        <time>2025-07-21T15:12:09Z</time>
      </trkpt>
      <trkpt lat="42.87004" lon="0.39656">
        <ele>822</ele>
        <time>2025-07-21T15:12:17Z</time>
      </trkpt>
      <trkpt lat="42.87029" lon="0.39654">
        <ele>821.8</ele>
        <time>2025-07-21T15:12:21Z</time>
      </trkpt>
      <trkpt lat="42.87034" lon="0.39652">
        <ele>821.6</ele>
        <time>2025-07-21T15:12:22Z</time>
      </trkpt>
      <trkpt lat="42.87051" lon="0.39644">
        <ele>821.4</ele>
        <time>2025-07-21T15:12:25Z</time>
      </trkpt>
      <trkpt lat="42.8706" lon="0.39635">
        <ele>821.2</ele>
        <time>2025-07-21T15:12:27Z</time>
      </trkpt>
      <trkpt lat="42.87071" lon="0.39623">
        <ele>821</ele>
        <time>2025-07-21T15:12:30Z</time>
      </trkpt>
      <trkpt lat="42.87073" lon="0.39619">
        <ele>821</ele>
        <time>2025-07-21T15:12:31Z</time>
      </trkpt>
      <trkpt lat="42.87084" lon="0.39595">
        <ele>820.8</ele>
        <time>2025-07-21T15:12:37Z</time>
      </trkpt>
      <trkpt lat="42.8709" lon="0.3958">
        <ele>820.6</ele>
        <time>2025-07-21T15:12:42Z</time>
      </trkpt>
      <trkpt lat="42.87093" lon="0.39573">
        <ele>820.4</ele>
        <time>2025-07-21T15:12:46Z</time>
      </trkpt>
      <trkpt lat="42.87093" lon="0.39573">
        <ele>820.2</ele>
        <time>2025-07-21T15:12:48Z</time>
      </trkpt>
      <trkpt lat="42.87093" lon="0.39573">
        <ele>820.2</ele>
        <time>2025-07-21T15:12:49Z</time>
      </trkpt>
      <trkpt lat="42.87095" lon="0.39568">
        <ele>819.8</ele>
        <time>2025-07-21T15:13:19Z</time>
      </trkpt>
      <trkpt lat="42.87095" lon="0.39564">
        <ele>819.8</ele>
        <time>2025-07-21T15:13:20Z</time>
      </trkpt>
      <trkpt lat="42.87105" lon="0.39537">
        <ele>819.8</ele>
        <time>2025-07-21T15:13:26Z</time>
      </trkpt>
      <trkpt lat="42.87115" lon="0.39506">
        <ele>819.4</ele>
        <time>2025-07-21T15:13:31Z</time>
      </trkpt>
      <trkpt lat="42.87118" lon="0.39499">
        <ele>819.2</ele>
        <time>2025-07-21T15:13:32Z</time>
      </trkpt>
      <trkpt lat="42.8712" lon="0.39493">
        <ele>819.2</ele>
        <time>2025-07-21T15:13:33Z</time>
      </trkpt>
      <trkpt lat="42.87128" lon="0.39465">
        <ele>818.8</ele>
        <time>2025-07-21T15:13:37Z</time>
      </trkpt>
      <trkpt lat="42.87149" lon="0.39413">
        <ele>818.4</ele>
        <time>2025-07-21T15:13:44Z</time>
      </trkpt>
      <trkpt lat="42.87152" lon="0.39405">
        <ele>818.4</ele>
        <time>2025-07-21T15:13:45Z</time>
      </trkpt>
      <trkpt lat="42.87166" lon="0.39387">
        <ele>818.4</ele>
        <time>2025-07-21T15:13:48Z</time>
      </trkpt>
      <trkpt lat="42.87171" lon="0.39382">
        <ele>818.4</ele>
        <time>2025-07-21T15:13:49Z</time>
      </trkpt>
      <trkpt lat="42.87176" lon="0.39378">
        <ele>818.2</ele>
        <time>2025-07-21T15:13:50Z</time>
      </trkpt>
      <trkpt lat="42.87182" lon="0.39375">
        <ele>818.4</ele>
        <time>2025-07-21T15:13:51Z</time>
      </trkpt>
      <trkpt lat="42.87187" lon="0.39372">
        <ele>818.4</ele>
        <time>2025-07-21T15:13:52Z</time>
      </trkpt>
      <trkpt lat="42.87244" lon="0.39353">
        <ele>818</ele>
        <time>2025-07-21T15:14:01Z</time>
      </trkpt>
      <trkpt lat="42.87258" lon="0.39349">
        <ele>817.6</ele>
        <time>2025-07-21T15:14:03Z</time>
      </trkpt>
      <trkpt lat="42.87312" lon="0.39332">
        <ele>817.4</ele>
        <time>2025-07-21T15:14:11Z</time>
      </trkpt>
      <trkpt lat="42.87319" lon="0.3933">
        <ele>817.4</ele>
        <time>2025-07-21T15:14:12Z</time>
      </trkpt>
      <trkpt lat="42.87372" lon="0.39316">
        <ele>817.2</ele>
        <time>2025-07-21T15:14:20Z</time>
      </trkpt>
      <trkpt lat="42.87385" lon="0.39312">
        <ele>817.2</ele>
        <time>2025-07-21T15:14:22Z</time>
      </trkpt>
      <trkpt lat="42.87437" lon="0.39292">
        <ele>817</ele>
        <time>2025-07-21T15:14:30Z</time>
      </trkpt>
      <trkpt lat="42.87462" lon="0.39276">
        <ele>816.6</ele>
        <time>2025-07-21T15:14:34Z</time>
      </trkpt>
      <trkpt lat="42.87474" lon="0.39268">
        <ele>816.4</ele>
        <time>2025-07-21T15:14:36Z</time>
      </trkpt>
      <trkpt lat="42.87506" lon="0.39253">
        <ele>815.8</ele>
        <time>2025-07-21T15:14:40Z</time>
      </trkpt>
      <trkpt lat="42.8753" lon="0.39237">
        <ele>815.4</ele>
        <time>2025-07-21T15:14:43Z</time>
      </trkpt>
      <trkpt lat="42.87545" lon="0.39224">
        <ele>814.8</ele>
        <time>2025-07-21T15:14:45Z</time>
      </trkpt>
      <trkpt lat="42.87561" lon="0.3921">
        <ele>814.2</ele>
        <time>2025-07-21T15:14:47Z</time>
      </trkpt>
      <trkpt lat="42.87577" lon="0.39197">
        <ele>813</ele>
        <time>2025-07-21T15:14:49Z</time>
      </trkpt>
      <trkpt lat="42.87593" lon="0.39182">
        <ele>811.8</ele>
        <time>2025-07-21T15:14:51Z</time>
      </trkpt>
      <trkpt lat="42.87621" lon="0.3915">
        <ele>810.6</ele>
        <time>2025-07-21T15:14:55Z</time>
      </trkpt>
      <trkpt lat="42.87628" lon="0.39141">
        <ele>810.2</ele>
        <time>2025-07-21T15:14:56Z</time>
      </trkpt>
      <trkpt lat="42.87641" lon="0.39123">
        <ele>809.6</ele>
        <time>2025-07-21T15:14:58Z</time>
      </trkpt>
      <trkpt lat="42.87656" lon="0.39109">
        <ele>809.2</ele>
        <time>2025-07-21T15:15:00Z</time>
      </trkpt>
      <trkpt lat="42.87664" lon="0.39104">
        <ele>809</ele>
        <time>2025-07-21T15:15:01Z</time>
      </trkpt>
      <trkpt lat="42.87672" lon="0.39101">
        <ele>808.6</ele>
        <time>2025-07-21T15:15:02Z</time>
      </trkpt>
      <trkpt lat="42.8769" lon="0.39098">
        <ele>807.8</ele>
        <time>2025-07-21T15:15:04Z</time>
      </trkpt>
      <trkpt lat="42.87699" lon="0.39097">
        <ele>807.4</ele>
        <time>2025-07-21T15:15:05Z</time>
      </trkpt>
      <trkpt lat="42.87708" lon="0.39095">
        <ele>807.2</ele>
        <time>2025-07-21T15:15:06Z</time>
      </trkpt>
      <trkpt lat="42.87717" lon="0.39092">
        <ele>806.4</ele>
        <time>2025-07-21T15:15:08Z</time>
      </trkpt>
      <trkpt lat="42.87732" lon="0.39078">
        <ele>806.2</ele>
        <time>2025-07-21T15:15:09Z</time>
      </trkpt>
      <trkpt lat="42.87739" lon="0.39069">
        <ele>806</ele>
        <time>2025-07-21T15:15:10Z</time>
      </trkpt>
      <trkpt lat="42.8776" lon="0.39029">
        <ele>805.4</ele>
        <time>2025-07-21T15:15:14Z</time>
      </trkpt>
      <trkpt lat="42.87764" lon="0.39019">
        <ele>805.2</ele>
        <time>2025-07-21T15:15:15Z</time>
      </trkpt>
      <trkpt lat="42.87782" lon="0.38978">
        <ele>804.4</ele>
        <time>2025-07-21T15:15:19Z</time>
      </trkpt>
      <trkpt lat="42.87794" lon="0.38964">
        <ele>804.2</ele>
        <time>2025-07-21T15:15:21Z</time>
      </trkpt>
      <trkpt lat="42.87809" lon="0.3896">
        <ele>804</ele>
        <time>2025-07-21T15:15:23Z</time>
      </trkpt>
      <trkpt lat="42.87817" lon="0.38961">
        <ele>804</ele>
        <time>2025-07-21T15:15:24Z</time>
      </trkpt>
      <trkpt lat="42.87857" lon="0.38967">
        <ele>803.8</ele>
        <time>2025-07-21T15:15:29Z</time>
      </trkpt>
      <trkpt lat="42.87896" lon="0.38955">
        <ele>803.4</ele>
        <time>2025-07-21T15:15:34Z</time>
      </trkpt>
      <trkpt lat="42.87919" lon="0.38945">
        <ele>803.4</ele>
        <time>2025-07-21T15:15:37Z</time>
      </trkpt>
      <trkpt lat="42.87952" lon="0.38929">
        <ele>802.8</ele>
        <time>2025-07-21T15:15:41Z</time>
      </trkpt>
      <trkpt lat="42.87978" lon="0.38916">
        <ele>802.2</ele>
        <time>2025-07-21T15:15:44Z</time>
      </trkpt>
      <trkpt lat="42.88005" lon="0.38906">
        <ele>801.2</ele>
        <time>2025-07-21T15:15:47Z</time>
      </trkpt>
      <trkpt lat="42.88014" lon="0.38903">
        <ele>800.8</ele>
        <time>2025-07-21T15:15:48Z</time>
      </trkpt>
      <trkpt lat="42.88044" lon="0.38896">
        <ele>799.6</ele>
        <time>2025-07-21T15:15:51Z</time>
      </trkpt>
      <trkpt lat="42.88054" lon="0.38894">
        <ele>799.4</ele>
        <time>2025-07-21T15:15:52Z</time>
      </trkpt>
      <trkpt lat="42.88083" lon="0.38887">
        <ele>798</ele>
        <time>2025-07-21T15:15:55Z</time>
      </trkpt>
      <trkpt lat="42.88112" lon="0.3888">
        <ele>797</ele>
        <time>2025-07-21T15:15:58Z</time>
      </trkpt>
      <trkpt lat="42.88131" lon="0.38873">
        <ele>796.2</ele>
        <time>2025-07-21T15:16:00Z</time>
      </trkpt>
      <trkpt lat="42.88149" lon="0.38866">
        <ele>795.8</ele>
        <time>2025-07-21T15:16:02Z</time>
      </trkpt>
      <trkpt lat="42.88176" lon="0.3885">
        <ele>794.6</ele>
        <time>2025-07-21T15:16:05Z</time>
      </trkpt>
      <trkpt lat="42.88185" lon="0.38845">
        <ele>794.4</ele>
        <time>2025-07-21T15:16:06Z</time>
      </trkpt>
      <trkpt lat="42.88211" lon="0.38828">
        <ele>793.6</ele>
        <time>2025-07-21T15:16:09Z</time>
      </trkpt>
      <trkpt lat="42.88229" lon="0.38815">
        <ele>792.4</ele>
        <time>2025-07-21T15:16:11Z</time>
      </trkpt>
      <trkpt lat="42.88256" lon="0.38797">
        <ele>791.4</ele>
        <time>2025-07-21T15:16:14Z</time>
      </trkpt>
      <trkpt lat="42.88285" lon="0.38782">
        <ele>790.2</ele>
        <time>2025-07-21T15:16:17Z</time>
      </trkpt>
      <trkpt lat="42.88304" lon="0.38767">
        <ele>789.2</ele>
        <time>2025-07-21T15:16:19Z</time>
      </trkpt>
      <trkpt lat="42.88312" lon="0.38757">
        <ele>789</ele>
        <time>2025-07-21T15:16:20Z</time>
      </trkpt>
      <trkpt lat="42.88328" lon="0.38737">
        <ele>787.6</ele>
        <time>2025-07-21T15:16:22Z</time>
      </trkpt>
      <trkpt lat="42.88336" lon="0.38727">
        <ele>787.4</ele>
        <time>2025-07-21T15:16:23Z</time>
      </trkpt>
      <trkpt lat="42.8836" lon="0.38695">
        <ele>785.8</ele>
        <time>2025-07-21T15:16:26Z</time>
      </trkpt>
      <trkpt lat="42.88375" lon="0.38676">
        <ele>784.4</ele>
        <time>2025-07-21T15:16:28Z</time>
      </trkpt>
      <trkpt lat="42.88391" lon="0.38656">
        <ele>783.4</ele>
        <time>2025-07-21T15:16:30Z</time>
      </trkpt>
      <trkpt lat="42.88398" lon="0.38647">
        <ele>782.6</ele>
        <time>2025-07-21T15:16:31Z</time>
      </trkpt>
      <trkpt lat="42.8843" lon="0.38613">
        <ele>781.4</ele>
        <time>2025-07-21T15:16:35Z</time>
      </trkpt>
      <trkpt lat="42.88461" lon="0.38595">
        <ele>779.4</ele>
        <time>2025-07-21T15:16:38Z</time>
      </trkpt>
      <trkpt lat="42.88479" lon="0.38586">
        <ele>778.4</ele>
        <time>2025-07-21T15:16:40Z</time>
      </trkpt>
      <trkpt lat="42.885" lon="0.38575">
        <ele>777.4</ele>
        <time>2025-07-21T15:16:42Z</time>
      </trkpt>
      <trkpt lat="42.88522" lon="0.38563">
        <ele>776.4</ele>
        <time>2025-07-21T15:16:44Z</time>
      </trkpt>
      <trkpt lat="42.88532" lon="0.38556">
        <ele>775.2</ele>
        <time>2025-07-21T15:16:45Z</time>
      </trkpt>
      <trkpt lat="42.88543" lon="0.38549">
        <ele>774.4</ele>
        <time>2025-07-21T15:16:46Z</time>
      </trkpt>
      <trkpt lat="42.88554" lon="0.38543">
        <ele>774</ele>
        <time>2025-07-21T15:16:47Z</time>
      </trkpt>
      <trkpt lat="42.88574" lon="0.38529">
        <ele>772.6</ele>
        <time>2025-07-21T15:16:49Z</time>
      </trkpt>
      <trkpt lat="42.88584" lon="0.38521">
        <ele>771.6</ele>
        <time>2025-07-21T15:16:50Z</time>
      </trkpt>
      <trkpt lat="42.88593" lon="0.38512">
        <ele>771.2</ele>
        <time>2025-07-21T15:16:51Z</time>
      </trkpt>
      <trkpt lat="42.88601" lon="0.38503">
        <ele>770.4</ele>
        <time>2025-07-21T15:16:52Z</time>
      </trkpt>
      <trkpt lat="42.88608" lon="0.38493">
        <ele>770</ele>
        <time>2025-07-21T15:16:53Z</time>
      </trkpt>
      <trkpt lat="42.88615" lon="0.38483">
        <ele>769.6</ele>
        <time>2025-07-21T15:16:54Z</time>
      </trkpt>
      <trkpt lat="42.88621" lon="0.38471">
        <ele>769.2</ele>
        <time>2025-07-21T15:16:55Z</time>
      </trkpt>
      <trkpt lat="42.88634" lon="0.38435">
        <ele>768.4</ele>
        <time>2025-07-21T15:16:58Z</time>
      </trkpt>
      <trkpt lat="42.88638" lon="0.38423">
        <ele>768.2</ele>
        <time>2025-07-21T15:16:59Z</time>
      </trkpt>
      <trkpt lat="42.88665" lon="0.38351">
        <ele>767</ele>
        <time>2025-07-21T15:17:05Z</time>
      </trkpt>
      <trkpt lat="42.88688" lon="0.38305">
        <ele>765.8</ele>
        <time>2025-07-21T15:17:09Z</time>
      </trkpt>
      <trkpt lat="42.88706" lon="0.38273">
        <ele>764</ele>
        <time>2025-07-21T15:17:12Z</time>
      </trkpt>
      <trkpt lat="42.88713" lon="0.38263">
        <ele>763.8</ele>
        <time>2025-07-21T15:17:13Z</time>
      </trkpt>
      <trkpt lat="42.8872" lon="0.38253">
        <ele>762.8</ele>
        <time>2025-07-21T15:17:14Z</time>
      </trkpt>
      <trkpt lat="42.88741" lon="0.38229">
        <ele>761.6</ele>
        <time>2025-07-21T15:17:17Z</time>
      </trkpt>
      <trkpt lat="42.88747" lon="0.38221">
        <ele>761.4</ele>
        <time>2025-07-21T15:17:18Z</time>
      </trkpt>
      <trkpt lat="42.88757" lon="0.38201">
        <ele>761</ele>
        <time>2025-07-21T15:17:20Z</time>
      </trkpt>
      <trkpt lat="42.88761" lon="0.38191">
        <ele>760.4</ele>
        <time>2025-07-21T15:17:21Z</time>
      </trkpt>
      <trkpt lat="42.88764" lon="0.38179">
        <ele>760.2</ele>
        <time>2025-07-21T15:17:22Z</time>
      </trkpt>
      <trkpt lat="42.88769" lon="0.38144">
        <ele>759.6</ele>
        <time>2025-07-21T15:17:25Z</time>
      </trkpt>
      <trkpt lat="42.88771" lon="0.38132">
        <ele>759</ele>
        <time>2025-07-21T15:17:26Z</time>
      </trkpt>
      <trkpt lat="42.88777" lon="0.38082">
        <ele>757.6</ele>
        <time>2025-07-21T15:17:30Z</time>
      </trkpt>
      <trkpt lat="42.88782" lon="0.38058">
        <ele>757.2</ele>
        <time>2025-07-21T15:17:32Z</time>
      </trkpt>
      <trkpt lat="42.88786" lon="0.38047">
        <ele>757.2</ele>
        <time>2025-07-21T15:17:33Z</time>
      </trkpt>
      <trkpt lat="42.88797" lon="0.38027">
        <ele>756.6</ele>
        <time>2025-07-21T15:17:35Z</time>
      </trkpt>
      <trkpt lat="42.88821" lon="0.38012">
        <ele>755.4</ele>
        <time>2025-07-21T15:17:38Z</time>
      </trkpt>
      <trkpt lat="42.88879" lon="0.37988">
        <ele>754.4</ele>
        <time>2025-07-21T15:17:44Z</time>
      </trkpt>
      <trkpt lat="42.88888" lon="0.37983">
        <ele>754</ele>
        <time>2025-07-21T15:17:45Z</time>
      </trkpt>
      <trkpt lat="42.88929" lon="0.37959">
        <ele>753</ele>
        <time>2025-07-21T15:17:50Z</time>
      </trkpt>
      <trkpt lat="42.88947" lon="0.37948">
        <ele>752.4</ele>
        <time>2025-07-21T15:17:52Z</time>
      </trkpt>
      <trkpt lat="42.88963" lon="0.37938">
        <ele>751.6</ele>
        <time>2025-07-21T15:17:54Z</time>
      </trkpt>
      <trkpt lat="42.88995" lon="0.37915">
        <ele>750.8</ele>
        <time>2025-07-21T15:17:58Z</time>
      </trkpt>
      <trkpt lat="42.89002" lon="0.37907">
        <ele>750.8</ele>
        <time>2025-07-21T15:17:59Z</time>
      </trkpt>
      <trkpt lat="42.89009" lon="0.37896">
        <ele>750.4</ele>
        <time>2025-07-21T15:18:00Z</time>
      </trkpt>
      <trkpt lat="42.89013" lon="0.37885">
        <ele>750.4</ele>
        <time>2025-07-21T15:18:01Z</time>
      </trkpt>
      <trkpt lat="42.89017" lon="0.37864">
        <ele>750</ele>
        <time>2025-07-21T15:18:03Z</time>
      </trkpt>
      <trkpt lat="42.89017" lon="0.37851">
        <ele>749.8</ele>
        <time>2025-07-21T15:18:04Z</time>
      </trkpt>
      <trkpt lat="42.89016" lon="0.37839">
        <ele>749.6</ele>
        <time>2025-07-21T15:18:05Z</time>
      </trkpt>
      <trkpt lat="42.89014" lon="0.37828">
        <ele>749.4</ele>
        <time>2025-07-21T15:18:06Z</time>
      </trkpt>
      <trkpt lat="42.8901" lon="0.37817">
        <ele>749.2</ele>
        <time>2025-07-21T15:18:07Z</time>
      </trkpt>
      <trkpt lat="42.88999" lon="0.37796">
        <ele>748.6</ele>
        <time>2025-07-21T15:18:09Z</time>
      </trkpt>
      <trkpt lat="42.88993" lon="0.37788">
        <ele>748.4</ele>
        <time>2025-07-21T15:18:10Z</time>
      </trkpt>
      <trkpt lat="42.88987" lon="0.37782">
        <ele>748.2</ele>
        <time>2025-07-21T15:18:11Z</time>
      </trkpt>
      <trkpt lat="42.88962" lon="0.37747">
        <ele>747.2</ele>
        <time>2025-07-21T15:18:15Z</time>
      </trkpt>
      <trkpt lat="42.88957" lon="0.37737">
        <ele>747</ele>
        <time>2025-07-21T15:18:16Z</time>
      </trkpt>
      <trkpt lat="42.88952" lon="0.37717">
        <ele>746.4</ele>
        <time>2025-07-21T15:18:18Z</time>
      </trkpt>
      <trkpt lat="42.88952" lon="0.37703">
        <ele>745.8</ele>
        <time>2025-07-21T15:18:19Z</time>
      </trkpt>
      <trkpt lat="42.88954" lon="0.37691">
        <ele>745.6</ele>
        <time>2025-07-21T15:18:20Z</time>
      </trkpt>
      <trkpt lat="42.88964" lon="0.37674">
        <ele>744.8</ele>
        <time>2025-07-21T15:18:22Z</time>
      </trkpt>
      <trkpt lat="42.88972" lon="0.37666">
        <ele>744.4</ele>
        <time>2025-07-21T15:18:23Z</time>
      </trkpt>
      <trkpt lat="42.88989" lon="0.37649">
        <ele>744</ele>
        <time>2025-07-21T15:18:25Z</time>
      </trkpt>
      <trkpt lat="42.88998" lon="0.37636">
        <ele>743.6</ele>
        <time>2025-07-21T15:18:26Z</time>
      </trkpt>
      <trkpt lat="42.89003" lon="0.37627">
        <ele>742.8</ele>
        <time>2025-07-21T15:18:27Z</time>
      </trkpt>
      <trkpt lat="42.89017" lon="0.37605">
        <ele>741.6</ele>
        <time>2025-07-21T15:18:29Z</time>
      </trkpt>
      <trkpt lat="42.89029" lon="0.37582">
        <ele>740.2</ele>
        <time>2025-07-21T15:18:31Z</time>
      </trkpt>
      <trkpt lat="42.89035" lon="0.3757">
        <ele>740</ele>
        <time>2025-07-21T15:18:32Z</time>
      </trkpt>
      <trkpt lat="42.89044" lon="0.37547">
        <ele>739</ele>
        <time>2025-07-21T15:18:34Z</time>
      </trkpt>
      <trkpt lat="42.89056" lon="0.37512">
        <ele>738</ele>
        <time>2025-07-21T15:18:37Z</time>
      </trkpt>
      <trkpt lat="42.8906" lon="0.37501">
        <ele>737.8</ele>
        <time>2025-07-21T15:18:38Z</time>
      </trkpt>
      <trkpt lat="42.8908" lon="0.37458">
        <ele>737.2</ele>
        <time>2025-07-21T15:18:42Z</time>
      </trkpt>
      <trkpt lat="42.89115" lon="0.374">
        <ele>737</ele>
        <time>2025-07-21T15:18:49Z</time>
      </trkpt>
      <trkpt lat="42.89121" lon="0.37391">
        <ele>736.8</ele>
        <time>2025-07-21T15:18:50Z</time>
      </trkpt>
      <trkpt lat="42.89146" lon="0.3736">
        <ele>736.6</ele>
        <time>2025-07-21T15:18:54Z</time>
      </trkpt>
      <trkpt lat="42.89189" lon="0.37317">
        <ele>736</ele>
        <time>2025-07-21T15:19:01Z</time>
      </trkpt>
      <trkpt lat="42.89221" lon="0.37282">
        <ele>736.6</ele>
        <time>2025-07-21T15:19:07Z</time>
      </trkpt>
      <trkpt lat="42.89249" lon="0.37255">
        <ele>737.4</ele>
        <time>2025-07-21T15:19:13Z</time>
      </trkpt>
      <trkpt lat="42.89294" lon="0.37214">
        <ele>737.8</ele>
        <time>2025-07-21T15:19:21Z</time>
      </trkpt>
      <trkpt lat="42.89301" lon="0.37208">
        <ele>737.8</ele>
        <time>2025-07-21T15:19:22Z</time>
      </trkpt>
      <trkpt lat="42.89338" lon="0.37178">
        <ele>736.8</ele>
        <time>2025-07-21T15:19:27Z</time>
      </trkpt>
      <trkpt lat="42.89353" lon="0.37167">
        <ele>736</ele>
        <time>2025-07-21T15:19:29Z</time>
      </trkpt>
      <trkpt lat="42.89361" lon="0.37164">
        <ele>735.4</ele>
        <time>2025-07-21T15:19:30Z</time>
      </trkpt>
      <trkpt lat="42.89369" lon="0.37161">
        <ele>734.8</ele>
        <time>2025-07-21T15:19:31Z</time>
      </trkpt>
      <trkpt lat="42.89376" lon="0.37157">
        <ele>734.6</ele>
        <time>2025-07-21T15:19:32Z</time>
      </trkpt>
      <trkpt lat="42.89389" lon="0.37148">
        <ele>734.2</ele>
        <time>2025-07-21T15:19:34Z</time>
      </trkpt>
      <trkpt lat="42.89403" lon="0.37138">
        <ele>734.2</ele>
        <time>2025-07-21T15:19:36Z</time>
      </trkpt>
      <trkpt lat="42.89426" lon="0.37125">
        <ele>734.4</ele>
        <time>2025-07-21T15:19:40Z</time>
      </trkpt>
      <trkpt lat="42.89461" lon="0.37114">
        <ele>735.8</ele>
        <time>2025-07-21T15:19:46Z</time>
      </trkpt>
      <trkpt lat="42.89466" lon="0.37113">
        <ele>736</ele>
        <time>2025-07-21T15:19:47Z</time>
      </trkpt>
      <trkpt lat="42.89485" lon="0.37104">
        <ele>736.2</ele>
        <time>2025-07-21T15:19:50Z</time>
      </trkpt>
      <trkpt lat="42.89498" lon="0.37096">
        <ele>736.2</ele>
        <time>2025-07-21T15:19:52Z</time>
      </trkpt>
      <trkpt lat="42.8952" lon="0.3708">
        <ele>735.8</ele>
        <time>2025-07-21T15:19:55Z</time>
      </trkpt>
      <trkpt lat="42.89535" lon="0.37071">
        <ele>735.4</ele>
        <time>2025-07-21T15:19:57Z</time>
      </trkpt>
      <trkpt lat="42.89552" lon="0.37064">
        <ele>734.8</ele>
        <time>2025-07-21T15:19:59Z</time>
      </trkpt>
      <trkpt lat="42.8959" lon="0.37044">
        <ele>733.4</ele>
        <time>2025-07-21T15:20:04Z</time>
      </trkpt>
      <trkpt lat="42.89597" lon="0.3704">
        <ele>733.4</ele>
        <time>2025-07-21T15:20:05Z</time>
      </trkpt>
      <trkpt lat="42.89642" lon="0.37018">
        <ele>732.4</ele>
        <time>2025-07-21T15:20:11Z</time>
      </trkpt>
      <trkpt lat="42.89665" lon="0.37008">
        <ele>731.8</ele>
        <time>2025-07-21T15:20:14Z</time>
      </trkpt>
      <trkpt lat="42.89679" lon="0.36996">
        <ele>731.2</ele>
        <time>2025-07-21T15:20:16Z</time>
      </trkpt>
      <trkpt lat="42.8969" lon="0.36963">
        <ele>730.6</ele>
        <time>2025-07-21T15:20:19Z</time>
      </trkpt>
      <trkpt lat="42.89692" lon="0.36951">
        <ele>730.4</ele>
        <time>2025-07-21T15:20:20Z</time>
      </trkpt>
      <trkpt lat="42.89694" lon="0.36914">
        <ele>729.2</ele>
        <time>2025-07-21T15:20:23Z</time>
      </trkpt>
      <trkpt lat="42.89694" lon="0.36901">
        <ele>728.8</ele>
        <time>2025-07-21T15:20:24Z</time>
      </trkpt>
      <trkpt lat="42.89696" lon="0.36875">
        <ele>727.8</ele>
        <time>2025-07-21T15:20:26Z</time>
      </trkpt>
      <trkpt lat="42.897" lon="0.36849">
        <ele>726.8</ele>
        <time>2025-07-21T15:20:28Z</time>
      </trkpt>
      <trkpt lat="42.89702" lon="0.36836">
        <ele>726.4</ele>
        <time>2025-07-21T15:20:29Z</time>
      </trkpt>
      <trkpt lat="42.89706" lon="0.36823">
        <ele>725.8</ele>
        <time>2025-07-21T15:20:30Z</time>
      </trkpt>
      <trkpt lat="42.8971" lon="0.36811">
        <ele>725.2</ele>
        <time>2025-07-21T15:20:31Z</time>
      </trkpt>
      <trkpt lat="42.89722" lon="0.36787">
        <ele>724.2</ele>
        <time>2025-07-21T15:20:33Z</time>
      </trkpt>
      <trkpt lat="42.89734" lon="0.36763">
        <ele>723</ele>
        <time>2025-07-21T15:20:35Z</time>
      </trkpt>
      <trkpt lat="42.89754" lon="0.36727">
        <ele>721.2</ele>
        <time>2025-07-21T15:20:38Z</time>
      </trkpt>
      <trkpt lat="42.89768" lon="0.36705">
        <ele>720</ele>
        <time>2025-07-21T15:20:40Z</time>
      </trkpt>
      <trkpt lat="42.89783" lon="0.36684">
        <ele>718.8</ele>
        <time>2025-07-21T15:20:42Z</time>
      </trkpt>
      <trkpt lat="42.89797" lon="0.36664">
        <ele>717.8</ele>
        <time>2025-07-21T15:20:44Z</time>
      </trkpt>
      <trkpt lat="42.8981" lon="0.36641">
        <ele>716.8</ele>
        <time>2025-07-21T15:20:46Z</time>
      </trkpt>
      <trkpt lat="42.89815" lon="0.3663">
        <ele>716.2</ele>
        <time>2025-07-21T15:20:47Z</time>
      </trkpt>
      <trkpt lat="42.8983" lon="0.36598">
        <ele>714.6</ele>
        <time>2025-07-21T15:20:50Z</time>
      </trkpt>
      <trkpt lat="42.89834" lon="0.3659">
        <ele>714.2</ele>
        <time>2025-07-21T15:20:51Z</time>
      </trkpt>
      <trkpt lat="42.8984" lon="0.36583">
        <ele>713.6</ele>
        <time>2025-07-21T15:20:52Z</time>
      </trkpt>
      <trkpt lat="42.89846" lon="0.36578">
        <ele>713.4</ele>
        <time>2025-07-21T15:20:53Z</time>
      </trkpt>
      <trkpt lat="42.89853" lon="0.36574">
        <ele>712.6</ele>
        <time>2025-07-21T15:20:54Z</time>
      </trkpt>
      <trkpt lat="42.89866" lon="0.36567">
        <ele>711.8</ele>
        <time>2025-07-21T15:20:56Z</time>
      </trkpt>
      <trkpt lat="42.89871" lon="0.3656">
        <ele>711.4</ele>
        <time>2025-07-21T15:20:57Z</time>
      </trkpt>
      <trkpt lat="42.89876" lon="0.36552">
        <ele>711.2</ele>
        <time>2025-07-21T15:20:58Z</time>
      </trkpt>
      <trkpt lat="42.89884" lon="0.36533">
        <ele>710.4</ele>
        <time>2025-07-21T15:21:00Z</time>
      </trkpt>
      <trkpt lat="42.89888" lon="0.36523">
        <ele>709.8</ele>
        <time>2025-07-21T15:21:01Z</time>
      </trkpt>
      <trkpt lat="42.89892" lon="0.36513">
        <ele>708.8</ele>
        <time>2025-07-21T15:21:02Z</time>
      </trkpt>
      <trkpt lat="42.89911" lon="0.36472">
        <ele>707.6</ele>
        <time>2025-07-21T15:21:06Z</time>
      </trkpt>
      <trkpt lat="42.89916" lon="0.36462">
        <ele>707.4</ele>
        <time>2025-07-21T15:21:07Z</time>
      </trkpt>
      <trkpt lat="42.89925" lon="0.36443">
        <ele>706.2</ele>
        <time>2025-07-21T15:21:09Z</time>
      </trkpt>
      <trkpt lat="42.89931" lon="0.36434">
        <ele>705.6</ele>
        <time>2025-07-21T15:21:10Z</time>
      </trkpt>
      <trkpt lat="42.89937" lon="0.36425">
        <ele>705</ele>
        <time>2025-07-21T15:21:11Z</time>
      </trkpt>
      <trkpt lat="42.89943" lon="0.36416">
        <ele>704.6</ele>
        <time>2025-07-21T15:21:12Z</time>
      </trkpt>
      <trkpt lat="42.89957" lon="0.36401">
        <ele>703.6</ele>
        <time>2025-07-21T15:21:14Z</time>
      </trkpt>
      <trkpt lat="42.89971" lon="0.36388">
        <ele>702.8</ele>
        <time>2025-07-21T15:21:16Z</time>
      </trkpt>
      <trkpt lat="42.89987" lon="0.36377">
        <ele>702.4</ele>
        <time>2025-07-21T15:21:18Z</time>
      </trkpt>
      <trkpt lat="42.90009" lon="0.36359">
        <ele>701.2</ele>
        <time>2025-07-21T15:21:21Z</time>
      </trkpt>
      <trkpt lat="42.90016" lon="0.36353">
        <ele>701</ele>
        <time>2025-07-21T15:21:22Z</time>
      </trkpt>
      <trkpt lat="42.90038" lon="0.36332">
        <ele>699.8</ele>
        <time>2025-07-21T15:21:25Z</time>
      </trkpt>
      <trkpt lat="42.90068" lon="0.36304">
        <ele>699.2</ele>
        <time>2025-07-21T15:21:29Z</time>
      </trkpt>
      <trkpt lat="42.90075" lon="0.36297">
        <ele>698.8</ele>
        <time>2025-07-21T15:21:30Z</time>
      </trkpt>
      <trkpt lat="42.90109" lon="0.36253">
        <ele>697.8</ele>
        <time>2025-07-21T15:21:35Z</time>
      </trkpt>
      <trkpt lat="42.90116" lon="0.36243">
        <ele>697.6</ele>
        <time>2025-07-21T15:21:36Z</time>
      </trkpt>
      <trkpt lat="42.90129" lon="0.36222">
        <ele>695.6</ele>
        <time>2025-07-21T15:21:38Z</time>
      </trkpt>
      <trkpt lat="42.90135" lon="0.36212">
        <ele>695</ele>
        <time>2025-07-21T15:21:39Z</time>
      </trkpt>
      <trkpt lat="42.90142" lon="0.36204">
        <ele>694.2</ele>
        <time>2025-07-21T15:21:40Z</time>
      </trkpt>
      <trkpt lat="42.90158" lon="0.36189">
        <ele>692.8</ele>
        <time>2025-07-21T15:21:42Z</time>
      </trkpt>
      <trkpt lat="42.90166" lon="0.36183">
        <ele>692.6</ele>
        <time>2025-07-21T15:21:43Z</time>
      </trkpt>
      <trkpt lat="42.90182" lon="0.36173">
        <ele>691.6</ele>
        <time>2025-07-21T15:21:45Z</time>
      </trkpt>
      <trkpt lat="42.90197" lon="0.36164">
        <ele>691.2</ele>
        <time>2025-07-21T15:21:47Z</time>
      </trkpt>
      <trkpt lat="42.90211" lon="0.36156">
        <ele>690.2</ele>
        <time>2025-07-21T15:21:49Z</time>
      </trkpt>
      <trkpt lat="42.90229" lon="0.36145">
        <ele>689</ele>
        <time>2025-07-21T15:21:52Z</time>
      </trkpt>
      <trkpt lat="42.90235" lon="0.36141">
        <ele>688.8</ele>
        <time>2025-07-21T15:21:53Z</time>
      </trkpt>
      <trkpt lat="42.9026" lon="0.36116">
        <ele>688.2</ele>
        <time>2025-07-21T15:21:58Z</time>
      </trkpt>
      <trkpt lat="42.90264" lon="0.36112">
        <ele>688.2</ele>
        <time>2025-07-21T15:21:59Z</time>
      </trkpt>
      <trkpt lat="42.90281" lon="0.36091">
        <ele>687.6</ele>
        <time>2025-07-21T15:22:04Z</time>
      </trkpt>
      <trkpt lat="42.90288" lon="0.36085">
        <ele>687</ele>
        <time>2025-07-21T15:22:07Z</time>
      </trkpt>
      <trkpt lat="42.90289" lon="0.36084">
        <ele>686.8</ele>
        <time>2025-07-21T15:22:08Z</time>
      </trkpt>
      <trkpt lat="42.90292" lon="0.36082">
        <ele>686.4</ele>
        <time>2025-07-21T15:22:10Z</time>
      </trkpt>
      <trkpt lat="42.90292" lon="0.36081">
        <ele>686.2</ele>
        <time>2025-07-21T15:22:12Z</time>
      </trkpt>
      <trkpt lat="42.90292" lon="0.3608">
        <ele>686</ele>
        <time>2025-07-21T15:22:14Z</time>
      </trkpt>
      <trkpt lat="42.90292" lon="0.3608">
        <ele>686</ele>
        <time>2025-07-21T15:22:15Z</time>
      </trkpt>
      <trkpt lat="42.90313" lon="0.36073">
        <ele>685.6</ele>
        <time>2025-07-21T15:26:35Z</time>
      </trkpt>
      <trkpt lat="42.90315" lon="0.36071">
        <ele>685.6</ele>
        <time>2025-07-21T15:26:36Z</time>
      </trkpt>
      <trkpt lat="42.90321" lon="0.36067">
        <ele>685.6</ele>
        <time>2025-07-21T15:26:39Z</time>
      </trkpt>
      <trkpt lat="42.90324" lon="0.36063">
        <ele>685.4</ele>
        <time>2025-07-21T15:26:41Z</time>
      </trkpt>
      <trkpt lat="42.90328" lon="0.36055">
        <ele>685.2</ele>
        <time>2025-07-21T15:26:44Z</time>
      </trkpt>
      <trkpt lat="42.90327" lon="0.36052">
        <ele>685.2</ele>
        <time>2025-07-21T15:26:45Z</time>
      </trkpt>
      <trkpt lat="42.90322" lon="0.36036">
        <ele>684.8</ele>
        <time>2025-07-21T15:26:50Z</time>
      </trkpt>
      <trkpt lat="42.90316" lon="0.36027">
        <ele>684.8</ele>
        <time>2025-07-21T15:26:55Z</time>
      </trkpt>
      <trkpt lat="42.90314" lon="0.36027">
        <ele>685</ele>
        <time>2025-07-21T15:26:56Z</time>
      </trkpt>
      <trkpt lat="42.90309" lon="0.36028">
        <ele>685.2</ele>
        <time>2025-07-21T15:26:59Z</time>
      </trkpt>
    </trkseg>
  </trk>
</gpx>